<?xml version="1.0" encoding="UTF-8" standalone="no" ?>
<gpx xmlns="http://www.topografix.com/GPX/1/1" xmlns:xsi="http://www.w3.org/2001/XMLSchema-instance" xsi:schemaLocation="http://www.topografix.com/GPX/1/1 http://www.topografix.com/GPX/1/1/gpx.xsd" version="1.1" creator="VisuGPX - https://www.visugpx.com">
  <metadata>
    <name>Glaris-Engelberg(tout)</name>
  </metadata>
  <trk>
    <name><![CDATA[Glaris-Engelberg(tout)_9]]></name>
    <extensions>
      <line xmlns="http://www.topografix.com/GPX/gpx_style/0/2">
        <color>880000</color>
        <width>4</width>
      </line>
    </extensions>
    <trkseg>
      <trkpt lat="46.88224" lon="8.54561">
        <ele>1495</ele>
        <time>2021-08-11T08:23:56.378Z</time>
      </trkpt>
      <trkpt lat="46.88227" lon="8.54562">
        <ele>1494</ele>
        <time>2021-08-11T08:23:57.378Z</time>
      </trkpt>
      <trkpt lat="46.88225" lon="8.54563">
        <ele>1493</ele>
        <time>2021-08-11T08:23:58.378Z</time>
      </trkpt>
      <trkpt lat="46.88222" lon="8.54564">
        <ele>1492</ele>
        <time>2021-08-11T08:23:59.378Z</time>
      </trkpt>
      <trkpt lat="46.88222" lon="8.54561">
        <ele>1491</ele>
        <time>2021-08-11T08:24:00.378Z</time>
      </trkpt>
      <trkpt lat="46.88221" lon="8.54559">
        <ele>1490</ele>
        <time>2021-08-11T08:24:01.378Z</time>
      </trkpt>
      <trkpt lat="46.8822" lon="8.54557">
        <ele>1489</ele>
        <time>2021-08-11T08:24:02.378Z</time>
      </trkpt>
      <trkpt lat="46.88219" lon="8.54554">
        <ele>1489</ele>
        <time>2021-08-11T08:24:03.378Z</time>
      </trkpt>
      <trkpt lat="46.88216" lon="8.54553">
        <ele>1488</ele>
        <time>2021-08-11T08:24:04.378Z</time>
      </trkpt>
      <trkpt lat="46.88214" lon="8.54551">
        <ele>1488</ele>
        <time>2021-08-11T08:24:05.378Z</time>
      </trkpt>
      <trkpt lat="46.88213" lon="8.5455">
        <ele>1488</ele>
        <time>2021-08-11T08:24:06.378Z</time>
      </trkpt>
      <trkpt lat="46.88212" lon="8.5455">
        <ele>1488</ele>
        <time>2021-08-11T08:24:07.378Z</time>
      </trkpt>
      <trkpt lat="46.88212" lon="8.5455">
        <ele>1488</ele>
        <time>2021-08-11T08:24:08.379Z</time>
      </trkpt>
      <trkpt lat="46.88212" lon="8.5455">
        <ele>1488</ele>
        <time>2021-08-11T08:24:09.379Z</time>
      </trkpt>
      <trkpt lat="46.88212" lon="8.5455">
        <ele>1488</ele>
        <time>2021-08-11T08:24:10.378Z</time>
      </trkpt>
      <trkpt lat="46.88212" lon="8.54549">
        <ele>1488</ele>
        <time>2021-08-11T08:24:11.378Z</time>
      </trkpt>
      <trkpt lat="46.88212" lon="8.54548">
        <ele>1488</ele>
        <time>2021-08-11T08:24:12.379Z</time>
      </trkpt>
      <trkpt lat="46.88211" lon="8.54549">
        <ele>1488</ele>
        <time>2021-08-11T08:24:13.378Z</time>
      </trkpt>
      <trkpt lat="46.8821" lon="8.54549">
        <ele>1488</ele>
        <time>2021-08-11T08:24:14.378Z</time>
      </trkpt>
      <trkpt lat="46.8821" lon="8.5455">
        <ele>1489</ele>
        <time>2021-08-11T08:24:15.378Z</time>
      </trkpt>
      <trkpt lat="46.88209" lon="8.54549">
        <ele>1489</ele>
        <time>2021-08-11T08:24:16.378Z</time>
      </trkpt>
      <trkpt lat="46.88208" lon="8.54549">
        <ele>1489</ele>
        <time>2021-08-11T08:24:17.378Z</time>
      </trkpt>
      <trkpt lat="46.88208" lon="8.54549">
        <ele>1489</ele>
        <time>2021-08-11T08:24:18.378Z</time>
      </trkpt>
      <trkpt lat="46.88208" lon="8.54549">
        <ele>1490</ele>
        <time>2021-08-11T08:24:19.378Z</time>
      </trkpt>
      <trkpt lat="46.88208" lon="8.54549">
        <ele>1490</ele>
        <time>2021-08-11T08:24:20.378Z</time>
      </trkpt>
      <trkpt lat="46.88208" lon="8.54549">
        <ele>1490</ele>
        <time>2021-08-11T08:24:21.378Z</time>
      </trkpt>
      <trkpt lat="46.88209" lon="8.5455">
        <ele>1490</ele>
        <time>2021-08-11T08:24:22.378Z</time>
      </trkpt>
      <trkpt lat="46.88208" lon="8.5455">
        <ele>1491</ele>
        <time>2021-08-11T08:24:23.378Z</time>
      </trkpt>
      <trkpt lat="46.88208" lon="8.5455">
        <ele>1491</ele>
        <time>2021-08-11T08:24:24.378Z</time>
      </trkpt>
      <trkpt lat="46.88208" lon="8.5455">
        <ele>1491</ele>
        <time>2021-08-11T08:24:25.379Z</time>
      </trkpt>
      <trkpt lat="46.88208" lon="8.5455">
        <ele>1491</ele>
        <time>2021-08-11T08:24:26.378Z</time>
      </trkpt>
      <trkpt lat="46.88208" lon="8.5455">
        <ele>1491</ele>
        <time>2021-08-11T08:24:27.378Z</time>
      </trkpt>
      <trkpt lat="46.88209" lon="8.5455">
        <ele>1491</ele>
        <time>2021-08-11T08:24:28.378Z</time>
      </trkpt>
      <trkpt lat="46.88209" lon="8.54549">
        <ele>1491</ele>
        <time>2021-08-11T08:24:29.378Z</time>
      </trkpt>
      <trkpt lat="46.8821" lon="8.54549">
        <ele>1491</ele>
        <time>2021-08-11T08:24:30.378Z</time>
      </trkpt>
      <trkpt lat="46.8821" lon="8.54549">
        <ele>1491</ele>
        <time>2021-08-11T08:24:31.378Z</time>
      </trkpt>
      <trkpt lat="46.8821" lon="8.54549">
        <ele>1491</ele>
        <time>2021-08-11T08:24:32.378Z</time>
      </trkpt>
      <trkpt lat="46.8821" lon="8.54549">
        <ele>1491</ele>
        <time>2021-08-11T08:24:33.378Z</time>
      </trkpt>
      <trkpt lat="46.8821" lon="8.54549">
        <ele>1491</ele>
        <time>2021-08-11T08:24:34.378Z</time>
      </trkpt>
      <trkpt lat="46.88209" lon="8.54548">
        <ele>1491</ele>
        <time>2021-08-11T08:24:35.378Z</time>
      </trkpt>
      <trkpt lat="46.88208" lon="8.54547">
        <ele>1491</ele>
        <time>2021-08-11T08:24:36.378Z</time>
      </trkpt>
      <trkpt lat="46.88207" lon="8.54547">
        <ele>1491</ele>
        <time>2021-08-11T08:24:37.378Z</time>
      </trkpt>
      <trkpt lat="46.88208" lon="8.54547">
        <ele>1492</ele>
        <time>2021-08-11T08:24:38.378Z</time>
      </trkpt>
      <trkpt lat="46.88208" lon="8.54547">
        <ele>1492</ele>
        <time>2021-08-11T08:24:39.378Z</time>
      </trkpt>
      <trkpt lat="46.88209" lon="8.54548">
        <ele>1492</ele>
        <time>2021-08-11T08:24:40.378Z</time>
      </trkpt>
      <trkpt lat="46.88211" lon="8.54549">
        <ele>1492</ele>
        <time>2021-08-11T08:24:41.378Z</time>
      </trkpt>
      <trkpt lat="46.88212" lon="8.5455">
        <ele>1492</ele>
        <time>2021-08-11T08:24:42.378Z</time>
      </trkpt>
      <trkpt lat="46.88213" lon="8.5455">
        <ele>1493</ele>
        <time>2021-08-11T08:24:43.378Z</time>
      </trkpt>
      <trkpt lat="46.88214" lon="8.54549">
        <ele>1493</ele>
        <time>2021-08-11T08:24:44.378Z</time>
      </trkpt>
      <trkpt lat="46.88215" lon="8.54549">
        <ele>1493</ele>
        <time>2021-08-11T08:24:45.378Z</time>
      </trkpt>
      <trkpt lat="46.88216" lon="8.54549">
        <ele>1493</ele>
        <time>2021-08-11T08:24:46.378Z</time>
      </trkpt>
      <trkpt lat="46.88217" lon="8.54549">
        <ele>1493</ele>
        <time>2021-08-11T08:24:47.378Z</time>
      </trkpt>
      <trkpt lat="46.88217" lon="8.54549">
        <ele>1493</ele>
        <time>2021-08-11T08:24:48.379Z</time>
      </trkpt>
      <trkpt lat="46.88219" lon="8.54549">
        <ele>1493</ele>
        <time>2021-08-11T08:24:49.378Z</time>
      </trkpt>
      <trkpt lat="46.88221" lon="8.54549">
        <ele>1493</ele>
        <time>2021-08-11T08:24:50.378Z</time>
      </trkpt>
      <trkpt lat="46.88221" lon="8.54549">
        <ele>1493</ele>
        <time>2021-08-11T08:24:51.378Z</time>
      </trkpt>
      <trkpt lat="46.88223" lon="8.54549">
        <ele>1494</ele>
        <time>2021-08-11T08:24:52.378Z</time>
      </trkpt>
      <trkpt lat="46.88225" lon="8.54549">
        <ele>1494</ele>
        <time>2021-08-11T08:24:53.379Z</time>
      </trkpt>
      <trkpt lat="46.88225" lon="8.54549">
        <ele>1494</ele>
        <time>2021-08-11T08:24:54.379Z</time>
      </trkpt>
      <trkpt lat="46.88227" lon="8.54549">
        <ele>1494</ele>
        <time>2021-08-11T08:24:55.378Z</time>
      </trkpt>
      <trkpt lat="46.88228" lon="8.54549">
        <ele>1494</ele>
        <time>2021-08-11T08:24:56.378Z</time>
      </trkpt>
      <trkpt lat="46.88229" lon="8.54549">
        <ele>1494</ele>
        <time>2021-08-11T08:24:57.378Z</time>
      </trkpt>
      <trkpt lat="46.8823" lon="8.54549">
        <ele>1494</ele>
        <time>2021-08-11T08:24:58.378Z</time>
      </trkpt>
      <trkpt lat="46.8823" lon="8.54548">
        <ele>1495</ele>
        <time>2021-08-11T08:24:59.378Z</time>
      </trkpt>
      <trkpt lat="46.8823" lon="8.54548">
        <ele>1495</ele>
        <time>2021-08-11T08:25:00.378Z</time>
      </trkpt>
      <trkpt lat="46.8823" lon="8.54548">
        <ele>1495</ele>
        <time>2021-08-11T08:25:01.378Z</time>
      </trkpt>
      <trkpt lat="46.8823" lon="8.54543">
        <ele>1499</ele>
        <time>2021-08-11T08:25:02.379Z</time>
      </trkpt>
      <trkpt lat="46.8823" lon="8.54542">
        <ele>1499</ele>
        <time>2021-08-11T08:25:03.378Z</time>
      </trkpt>
      <trkpt lat="46.88231" lon="8.54543">
        <ele>1499</ele>
        <time>2021-08-11T08:25:04.378Z</time>
      </trkpt>
      <trkpt lat="46.88231" lon="8.54544">
        <ele>1499</ele>
        <time>2021-08-11T08:25:05.378Z</time>
      </trkpt>
      <trkpt lat="46.88232" lon="8.54545">
        <ele>1499</ele>
        <time>2021-08-11T08:25:06.378Z</time>
      </trkpt>
      <trkpt lat="46.88233" lon="8.54546">
        <ele>1500</ele>
        <time>2021-08-11T08:25:07.378Z</time>
      </trkpt>
      <trkpt lat="46.88234" lon="8.54547">
        <ele>1500</ele>
        <time>2021-08-11T08:25:08.378Z</time>
      </trkpt>
      <trkpt lat="46.88235" lon="8.54548">
        <ele>1500</ele>
        <time>2021-08-11T08:25:09.378Z</time>
      </trkpt>
      <trkpt lat="46.88237" lon="8.54548">
        <ele>1500</ele>
        <time>2021-08-11T08:25:10.378Z</time>
      </trkpt>
      <trkpt lat="46.88238" lon="8.54549">
        <ele>1500</ele>
        <time>2021-08-11T08:25:11.378Z</time>
      </trkpt>
      <trkpt lat="46.88239" lon="8.54549">
        <ele>1501</ele>
        <time>2021-08-11T08:25:12.379Z</time>
      </trkpt>
      <trkpt lat="46.8824" lon="8.5455">
        <ele>1501</ele>
        <time>2021-08-11T08:25:13.378Z</time>
      </trkpt>
      <trkpt lat="46.8824" lon="8.5455">
        <ele>1501</ele>
        <time>2021-08-11T08:25:14.379Z</time>
      </trkpt>
      <trkpt lat="46.88241" lon="8.5455">
        <ele>1501</ele>
        <time>2021-08-11T08:25:15.378Z</time>
      </trkpt>
      <trkpt lat="46.88243" lon="8.54551">
        <ele>1501</ele>
        <time>2021-08-11T08:25:16.379Z</time>
      </trkpt>
      <trkpt lat="46.88244" lon="8.54552">
        <ele>1501</ele>
        <time>2021-08-11T08:25:17.379Z</time>
      </trkpt>
      <trkpt lat="46.88245" lon="8.54553">
        <ele>1501</ele>
        <time>2021-08-11T08:25:18.379Z</time>
      </trkpt>
      <trkpt lat="46.88245" lon="8.54554">
        <ele>1501</ele>
        <time>2021-08-11T08:25:19.379Z</time>
      </trkpt>
      <trkpt lat="46.88246" lon="8.54555">
        <ele>1500</ele>
        <time>2021-08-11T08:25:20.378Z</time>
      </trkpt>
      <trkpt lat="46.88247" lon="8.54556">
        <ele>1500</ele>
        <time>2021-08-11T08:25:21.379Z</time>
      </trkpt>
      <trkpt lat="46.88248" lon="8.54556">
        <ele>1500</ele>
        <time>2021-08-11T08:25:22.379Z</time>
      </trkpt>
      <trkpt lat="46.88249" lon="8.54557">
        <ele>1499</ele>
        <time>2021-08-11T08:25:23.379Z</time>
      </trkpt>
      <trkpt lat="46.8825" lon="8.54558">
        <ele>1499</ele>
        <time>2021-08-11T08:25:24.378Z</time>
      </trkpt>
      <trkpt lat="46.88251" lon="8.54558">
        <ele>1498</ele>
        <time>2021-08-11T08:25:25.379Z</time>
      </trkpt>
      <trkpt lat="46.88251" lon="8.54559">
        <ele>1498</ele>
        <time>2021-08-11T08:25:26.379Z</time>
      </trkpt>
      <trkpt lat="46.88252" lon="8.54561">
        <ele>1497</ele>
        <time>2021-08-11T08:25:27.379Z</time>
      </trkpt>
      <trkpt lat="46.88253" lon="8.54562">
        <ele>1497</ele>
        <time>2021-08-11T08:25:28.379Z</time>
      </trkpt>
      <trkpt lat="46.88253" lon="8.54563">
        <ele>1497</ele>
        <time>2021-08-11T08:25:29.378Z</time>
      </trkpt>
      <trkpt lat="46.88254" lon="8.54564">
        <ele>1496</ele>
        <time>2021-08-11T08:25:30.379Z</time>
      </trkpt>
      <trkpt lat="46.88255" lon="8.54565">
        <ele>1496</ele>
        <time>2021-08-11T08:25:31.379Z</time>
      </trkpt>
      <trkpt lat="46.88255" lon="8.54567">
        <ele>1496</ele>
        <time>2021-08-11T08:25:32.379Z</time>
      </trkpt>
      <trkpt lat="46.88256" lon="8.54568">
        <ele>1495</ele>
        <time>2021-08-11T08:25:33.378Z</time>
      </trkpt>
      <trkpt lat="46.88257" lon="8.54568">
        <ele>1495</ele>
        <time>2021-08-11T08:25:34.379Z</time>
      </trkpt>
      <trkpt lat="46.88258" lon="8.54569">
        <ele>1495</ele>
        <time>2021-08-11T08:25:35.379Z</time>
      </trkpt>
      <trkpt lat="46.88259" lon="8.5457">
        <ele>1495</ele>
        <time>2021-08-11T08:25:36.379Z</time>
      </trkpt>
      <trkpt lat="46.8826" lon="8.54571">
        <ele>1495</ele>
        <time>2021-08-11T08:25:37.379Z</time>
      </trkpt>
      <trkpt lat="46.8826" lon="8.54571">
        <ele>1495</ele>
        <time>2021-08-11T08:25:38.378Z</time>
      </trkpt>
      <trkpt lat="46.8826" lon="8.54571">
        <ele>1495</ele>
        <time>2021-08-11T08:25:39.379Z</time>
      </trkpt>
      <trkpt lat="46.8826" lon="8.54571">
        <ele>1495</ele>
        <time>2021-08-11T08:25:40.379Z</time>
      </trkpt>
      <trkpt lat="46.88259" lon="8.54575">
        <ele>1496</ele>
        <time>2021-08-11T08:25:41.379Z</time>
      </trkpt>
      <trkpt lat="46.8826" lon="8.54576">
        <ele>1496</ele>
        <time>2021-08-11T08:25:42.378Z</time>
      </trkpt>
      <trkpt lat="46.88261" lon="8.54576">
        <ele>1496</ele>
        <time>2021-08-11T08:25:43.378Z</time>
      </trkpt>
      <trkpt lat="46.88262" lon="8.54576">
        <ele>1496</ele>
        <time>2021-08-11T08:25:44.378Z</time>
      </trkpt>
      <trkpt lat="46.88262" lon="8.54576">
        <ele>1496</ele>
        <time>2021-08-11T08:25:45.379Z</time>
      </trkpt>
      <trkpt lat="46.88263" lon="8.54576">
        <ele>1496</ele>
        <time>2021-08-11T08:25:46.378Z</time>
      </trkpt>
      <trkpt lat="46.88263" lon="8.54576">
        <ele>1496</ele>
        <time>2021-08-11T08:25:47.378Z</time>
      </trkpt>
      <trkpt lat="46.88263" lon="8.54576">
        <ele>1495</ele>
        <time>2021-08-11T08:25:48.379Z</time>
      </trkpt>
      <trkpt lat="46.88264" lon="8.54577">
        <ele>1495</ele>
        <time>2021-08-11T08:25:49.379Z</time>
      </trkpt>
      <trkpt lat="46.88265" lon="8.54578">
        <ele>1495</ele>
        <time>2021-08-11T08:25:50.378Z</time>
      </trkpt>
      <trkpt lat="46.88266" lon="8.54579">
        <ele>1495</ele>
        <time>2021-08-11T08:25:51.378Z</time>
      </trkpt>
      <trkpt lat="46.88267" lon="8.5458">
        <ele>1494</ele>
        <time>2021-08-11T08:25:52.379Z</time>
      </trkpt>
      <trkpt lat="46.88268" lon="8.5458">
        <ele>1494</ele>
        <time>2021-08-11T08:25:53.379Z</time>
      </trkpt>
      <trkpt lat="46.88269" lon="8.54581">
        <ele>1495</ele>
        <time>2021-08-11T08:25:54.379Z</time>
      </trkpt>
      <trkpt lat="46.8827" lon="8.54581">
        <ele>1494</ele>
        <time>2021-08-11T08:25:55.378Z</time>
      </trkpt>
      <trkpt lat="46.88271" lon="8.54581">
        <ele>1494</ele>
        <time>2021-08-11T08:25:56.379Z</time>
      </trkpt>
      <trkpt lat="46.88272" lon="8.54582">
        <ele>1494</ele>
        <time>2021-08-11T08:25:57.379Z</time>
      </trkpt>
      <trkpt lat="46.88273" lon="8.54582">
        <ele>1494</ele>
        <time>2021-08-11T08:25:58.379Z</time>
      </trkpt>
      <trkpt lat="46.88274" lon="8.54583">
        <ele>1494</ele>
        <time>2021-08-11T08:25:59.379Z</time>
      </trkpt>
      <trkpt lat="46.88275" lon="8.54583">
        <ele>1493</ele>
        <time>2021-08-11T08:26:00.378Z</time>
      </trkpt>
      <trkpt lat="46.88276" lon="8.54584">
        <ele>1493</ele>
        <time>2021-08-11T08:26:01.379Z</time>
      </trkpt>
      <trkpt lat="46.88277" lon="8.54585">
        <ele>1493</ele>
        <time>2021-08-11T08:26:02.379Z</time>
      </trkpt>
      <trkpt lat="46.88278" lon="8.54586">
        <ele>1493</ele>
        <time>2021-08-11T08:26:03.379Z</time>
      </trkpt>
      <trkpt lat="46.88279" lon="8.54587">
        <ele>1493</ele>
        <time>2021-08-11T08:26:04.378Z</time>
      </trkpt>
      <trkpt lat="46.8828" lon="8.54587">
        <ele>1493</ele>
        <time>2021-08-11T08:26:05.379Z</time>
      </trkpt>
      <trkpt lat="46.88281" lon="8.54588">
        <ele>1493</ele>
        <time>2021-08-11T08:26:06.379Z</time>
      </trkpt>
      <trkpt lat="46.88282" lon="8.54588">
        <ele>1494</ele>
        <time>2021-08-11T08:26:07.379Z</time>
      </trkpt>
      <trkpt lat="46.88284" lon="8.54589">
        <ele>1494</ele>
        <time>2021-08-11T08:26:08.379Z</time>
      </trkpt>
      <trkpt lat="46.88285" lon="8.54589">
        <ele>1495</ele>
        <time>2021-08-11T08:26:09.378Z</time>
      </trkpt>
      <trkpt lat="46.88286" lon="8.5459">
        <ele>1495</ele>
        <time>2021-08-11T08:26:10.379Z</time>
      </trkpt>
      <trkpt lat="46.88287" lon="8.5459">
        <ele>1494</ele>
        <time>2021-08-11T08:26:11.379Z</time>
      </trkpt>
      <trkpt lat="46.88288" lon="8.54591">
        <ele>1494</ele>
        <time>2021-08-11T08:26:12.379Z</time>
      </trkpt>
      <trkpt lat="46.88289" lon="8.54592">
        <ele>1494</ele>
        <time>2021-08-11T08:26:13.378Z</time>
      </trkpt>
      <trkpt lat="46.8829" lon="8.54592">
        <ele>1494</ele>
        <time>2021-08-11T08:26:14.379Z</time>
      </trkpt>
      <trkpt lat="46.88291" lon="8.54593">
        <ele>1493</ele>
        <time>2021-08-11T08:26:15.378Z</time>
      </trkpt>
      <trkpt lat="46.88292" lon="8.54593">
        <ele>1493</ele>
        <time>2021-08-11T08:26:16.379Z</time>
      </trkpt>
      <trkpt lat="46.88294" lon="8.54594">
        <ele>1494</ele>
        <time>2021-08-11T08:26:17.379Z</time>
      </trkpt>
      <trkpt lat="46.88295" lon="8.54594">
        <ele>1494</ele>
        <time>2021-08-11T08:26:18.379Z</time>
      </trkpt>
      <trkpt lat="46.88296" lon="8.54596">
        <ele>1494</ele>
        <time>2021-08-11T08:26:19.379Z</time>
      </trkpt>
      <trkpt lat="46.88296" lon="8.54597">
        <ele>1495</ele>
        <time>2021-08-11T08:26:20.379Z</time>
      </trkpt>
      <trkpt lat="46.88297" lon="8.54598">
        <ele>1495</ele>
        <time>2021-08-11T08:26:21.379Z</time>
      </trkpt>
      <trkpt lat="46.88298" lon="8.54599">
        <ele>1495</ele>
        <time>2021-08-11T08:26:22.379Z</time>
      </trkpt>
      <trkpt lat="46.88299" lon="8.54599">
        <ele>1495</ele>
        <time>2021-08-11T08:26:23.378Z</time>
      </trkpt>
      <trkpt lat="46.883" lon="8.546">
        <ele>1494</ele>
        <time>2021-08-11T08:26:24.378Z</time>
      </trkpt>
      <trkpt lat="46.88301" lon="8.546">
        <ele>1494</ele>
        <time>2021-08-11T08:26:25.378Z</time>
      </trkpt>
      <trkpt lat="46.88302" lon="8.54601">
        <ele>1494</ele>
        <time>2021-08-11T08:26:26.378Z</time>
      </trkpt>
      <trkpt lat="46.88303" lon="8.54601">
        <ele>1494</ele>
        <time>2021-08-11T08:26:27.378Z</time>
      </trkpt>
      <trkpt lat="46.88304" lon="8.54601">
        <ele>1494</ele>
        <time>2021-08-11T08:26:28.379Z</time>
      </trkpt>
      <trkpt lat="46.88305" lon="8.54601">
        <ele>1494</ele>
        <time>2021-08-11T08:26:29.378Z</time>
      </trkpt>
      <trkpt lat="46.88306" lon="8.54601">
        <ele>1494</ele>
        <time>2021-08-11T08:26:30.378Z</time>
      </trkpt>
      <trkpt lat="46.88307" lon="8.54601">
        <ele>1495</ele>
        <time>2021-08-11T08:26:31.378Z</time>
      </trkpt>
      <trkpt lat="46.88308" lon="8.54601">
        <ele>1495</ele>
        <time>2021-08-11T08:26:32.379Z</time>
      </trkpt>
      <trkpt lat="46.88309" lon="8.54601">
        <ele>1495</ele>
        <time>2021-08-11T08:26:33.378Z</time>
      </trkpt>
      <trkpt lat="46.8831" lon="8.54601">
        <ele>1495</ele>
        <time>2021-08-11T08:26:34.378Z</time>
      </trkpt>
      <trkpt lat="46.8831" lon="8.54601">
        <ele>1495</ele>
        <time>2021-08-11T08:26:35.379Z</time>
      </trkpt>
      <trkpt lat="46.88311" lon="8.54601">
        <ele>1495</ele>
        <time>2021-08-11T08:26:36.379Z</time>
      </trkpt>
      <trkpt lat="46.88312" lon="8.54601">
        <ele>1495</ele>
        <time>2021-08-11T08:26:37.379Z</time>
      </trkpt>
      <trkpt lat="46.88313" lon="8.54601">
        <ele>1495</ele>
        <time>2021-08-11T08:26:38.378Z</time>
      </trkpt>
      <trkpt lat="46.88314" lon="8.546">
        <ele>1495</ele>
        <time>2021-08-11T08:26:39.379Z</time>
      </trkpt>
      <trkpt lat="46.88315" lon="8.546">
        <ele>1495</ele>
        <time>2021-08-11T08:26:40.379Z</time>
      </trkpt>
      <trkpt lat="46.88316" lon="8.546">
        <ele>1494</ele>
        <time>2021-08-11T08:26:41.379Z</time>
      </trkpt>
      <trkpt lat="46.88317" lon="8.54599">
        <ele>1494</ele>
        <time>2021-08-11T08:26:42.378Z</time>
      </trkpt>
      <trkpt lat="46.88318" lon="8.54599">
        <ele>1494</ele>
        <time>2021-08-11T08:26:43.379Z</time>
      </trkpt>
      <trkpt lat="46.88318" lon="8.54598">
        <ele>1494</ele>
        <time>2021-08-11T08:26:44.378Z</time>
      </trkpt>
      <trkpt lat="46.88319" lon="8.54598">
        <ele>1493</ele>
        <time>2021-08-11T08:26:45.379Z</time>
      </trkpt>
      <trkpt lat="46.8832" lon="8.54597">
        <ele>1493</ele>
        <time>2021-08-11T08:26:46.378Z</time>
      </trkpt>
      <trkpt lat="46.88321" lon="8.54597">
        <ele>1493</ele>
        <time>2021-08-11T08:26:47.379Z</time>
      </trkpt>
      <trkpt lat="46.88322" lon="8.54596">
        <ele>1492</ele>
        <time>2021-08-11T08:26:48.378Z</time>
      </trkpt>
      <trkpt lat="46.88323" lon="8.54596">
        <ele>1492</ele>
        <time>2021-08-11T08:26:49.379Z</time>
      </trkpt>
      <trkpt lat="46.88323" lon="8.54595">
        <ele>1492</ele>
        <time>2021-08-11T08:26:50.379Z</time>
      </trkpt>
      <trkpt lat="46.88324" lon="8.54594">
        <ele>1492</ele>
        <time>2021-08-11T08:26:51.379Z</time>
      </trkpt>
      <trkpt lat="46.88324" lon="8.54593">
        <ele>1492</ele>
        <time>2021-08-11T08:26:52.379Z</time>
      </trkpt>
      <trkpt lat="46.88324" lon="8.54592">
        <ele>1492</ele>
        <time>2021-08-11T08:26:53.379Z</time>
      </trkpt>
      <trkpt lat="46.88325" lon="8.54591">
        <ele>1492</ele>
        <time>2021-08-11T08:26:54.378Z</time>
      </trkpt>
      <trkpt lat="46.88324" lon="8.5459">
        <ele>1492</ele>
        <time>2021-08-11T08:26:55.378Z</time>
      </trkpt>
      <trkpt lat="46.88324" lon="8.54589">
        <ele>1492</ele>
        <time>2021-08-11T08:26:56.378Z</time>
      </trkpt>
      <trkpt lat="46.88324" lon="8.54587">
        <ele>1492</ele>
        <time>2021-08-11T08:26:57.378Z</time>
      </trkpt>
      <trkpt lat="46.88323" lon="8.54586">
        <ele>1492</ele>
        <time>2021-08-11T08:26:58.379Z</time>
      </trkpt>
      <trkpt lat="46.88323" lon="8.54585">
        <ele>1493</ele>
        <time>2021-08-11T08:26:59.379Z</time>
      </trkpt>
      <trkpt lat="46.88322" lon="8.54585">
        <ele>1493</ele>
        <time>2021-08-11T08:27:00.379Z</time>
      </trkpt>
      <trkpt lat="46.88321" lon="8.54584">
        <ele>1493</ele>
        <time>2021-08-11T08:27:01.379Z</time>
      </trkpt>
      <trkpt lat="46.88321" lon="8.54583">
        <ele>1494</ele>
        <time>2021-08-11T08:27:02.379Z</time>
      </trkpt>
      <trkpt lat="46.8832" lon="8.54582">
        <ele>1494</ele>
        <time>2021-08-11T08:27:03.379Z</time>
      </trkpt>
      <trkpt lat="46.88319" lon="8.54581">
        <ele>1494</ele>
        <time>2021-08-11T08:27:04.379Z</time>
      </trkpt>
      <trkpt lat="46.88318" lon="8.54581">
        <ele>1494</ele>
        <time>2021-08-11T08:27:05.379Z</time>
      </trkpt>
      <trkpt lat="46.88317" lon="8.5458">
        <ele>1495</ele>
        <time>2021-08-11T08:27:06.379Z</time>
      </trkpt>
      <trkpt lat="46.88317" lon="8.5458">
        <ele>1495</ele>
        <time>2021-08-11T08:27:07.379Z</time>
      </trkpt>
      <trkpt lat="46.88316" lon="8.5458">
        <ele>1496</ele>
        <time>2021-08-11T08:27:08.379Z</time>
      </trkpt>
      <trkpt lat="46.88315" lon="8.54579">
        <ele>1497</ele>
        <time>2021-08-11T08:27:09.379Z</time>
      </trkpt>
      <trkpt lat="46.88315" lon="8.54579">
        <ele>1497</ele>
        <time>2021-08-11T08:27:10.379Z</time>
      </trkpt>
      <trkpt lat="46.88314" lon="8.54578">
        <ele>1498</ele>
        <time>2021-08-11T08:27:11.379Z</time>
      </trkpt>
      <trkpt lat="46.88313" lon="8.54577">
        <ele>1498</ele>
        <time>2021-08-11T08:27:12.379Z</time>
      </trkpt>
      <trkpt lat="46.88313" lon="8.54577">
        <ele>1499</ele>
        <time>2021-08-11T08:27:13.379Z</time>
      </trkpt>
      <trkpt lat="46.88312" lon="8.54576">
        <ele>1499</ele>
        <time>2021-08-11T08:27:14.379Z</time>
      </trkpt>
      <trkpt lat="46.88312" lon="8.54576">
        <ele>1500</ele>
        <time>2021-08-11T08:27:15.378Z</time>
      </trkpt>
      <trkpt lat="46.88311" lon="8.54575">
        <ele>1500</ele>
        <time>2021-08-11T08:27:16.378Z</time>
      </trkpt>
      <trkpt lat="46.88311" lon="8.54575">
        <ele>1500</ele>
        <time>2021-08-11T08:27:17.379Z</time>
      </trkpt>
      <trkpt lat="46.8831" lon="8.54574">
        <ele>1500</ele>
        <time>2021-08-11T08:27:18.378Z</time>
      </trkpt>
      <trkpt lat="46.8831" lon="8.54574">
        <ele>1500</ele>
        <time>2021-08-11T08:27:19.379Z</time>
      </trkpt>
      <trkpt lat="46.8831" lon="8.54574">
        <ele>1500</ele>
        <time>2021-08-11T08:27:20.379Z</time>
      </trkpt>
      <trkpt lat="46.88309" lon="8.54574">
        <ele>1501</ele>
        <time>2021-08-11T08:27:21.379Z</time>
      </trkpt>
      <trkpt lat="46.88308" lon="8.54574">
        <ele>1501</ele>
        <time>2021-08-11T08:27:22.378Z</time>
      </trkpt>
      <trkpt lat="46.88308" lon="8.54573">
        <ele>1501</ele>
        <time>2021-08-11T08:27:23.379Z</time>
      </trkpt>
      <trkpt lat="46.88307" lon="8.54573">
        <ele>1501</ele>
        <time>2021-08-11T08:27:24.379Z</time>
      </trkpt>
      <trkpt lat="46.88307" lon="8.54573">
        <ele>1501</ele>
        <time>2021-08-11T08:27:25.379Z</time>
      </trkpt>
      <trkpt lat="46.88306" lon="8.54572">
        <ele>1501</ele>
        <time>2021-08-11T08:27:26.378Z</time>
      </trkpt>
      <trkpt lat="46.88305" lon="8.54572">
        <ele>1501</ele>
        <time>2021-08-11T08:27:27.379Z</time>
      </trkpt>
      <trkpt lat="46.88305" lon="8.54571">
        <ele>1501</ele>
        <time>2021-08-11T08:27:28.379Z</time>
      </trkpt>
      <trkpt lat="46.88304" lon="8.5457">
        <ele>1501</ele>
        <time>2021-08-11T08:27:29.378Z</time>
      </trkpt>
      <trkpt lat="46.88304" lon="8.5457">
        <ele>1502</ele>
        <time>2021-08-11T08:27:30.379Z</time>
      </trkpt>
      <trkpt lat="46.88303" lon="8.54569">
        <ele>1502</ele>
        <time>2021-08-11T08:27:31.379Z</time>
      </trkpt>
      <trkpt lat="46.88303" lon="8.54568">
        <ele>1502</ele>
        <time>2021-08-11T08:27:32.379Z</time>
      </trkpt>
      <trkpt lat="46.88303" lon="8.54568">
        <ele>1502</ele>
        <time>2021-08-11T08:27:33.379Z</time>
      </trkpt>
      <trkpt lat="46.88302" lon="8.54567">
        <ele>1503</ele>
        <time>2021-08-11T08:27:34.378Z</time>
      </trkpt>
      <trkpt lat="46.88302" lon="8.54566">
        <ele>1503</ele>
        <time>2021-08-11T08:27:35.379Z</time>
      </trkpt>
      <trkpt lat="46.88302" lon="8.54565">
        <ele>1503</ele>
        <time>2021-08-11T08:27:36.379Z</time>
      </trkpt>
      <trkpt lat="46.88302" lon="8.54564">
        <ele>1503</ele>
        <time>2021-08-11T08:27:37.379Z</time>
      </trkpt>
      <trkpt lat="46.88301" lon="8.54563">
        <ele>1503</ele>
        <time>2021-08-11T08:27:38.379Z</time>
      </trkpt>
      <trkpt lat="46.88301" lon="8.54562">
        <ele>1503</ele>
        <time>2021-08-11T08:27:39.379Z</time>
      </trkpt>
      <trkpt lat="46.88301" lon="8.54561">
        <ele>1504</ele>
        <time>2021-08-11T08:27:40.379Z</time>
      </trkpt>
      <trkpt lat="46.883" lon="8.5456">
        <ele>1504</ele>
        <time>2021-08-11T08:27:41.379Z</time>
      </trkpt>
      <trkpt lat="46.883" lon="8.54559">
        <ele>1504</ele>
        <time>2021-08-11T08:27:42.379Z</time>
      </trkpt>
      <trkpt lat="46.88299" lon="8.54558">
        <ele>1505</ele>
        <time>2021-08-11T08:27:43.379Z</time>
      </trkpt>
      <trkpt lat="46.88299" lon="8.54557">
        <ele>1505</ele>
        <time>2021-08-11T08:27:44.379Z</time>
      </trkpt>
      <trkpt lat="46.88299" lon="8.54556">
        <ele>1505</ele>
        <time>2021-08-11T08:27:45.379Z</time>
      </trkpt>
      <trkpt lat="46.88299" lon="8.54555">
        <ele>1505</ele>
        <time>2021-08-11T08:27:46.379Z</time>
      </trkpt>
      <trkpt lat="46.883" lon="8.54554">
        <ele>1505</ele>
        <time>2021-08-11T08:27:47.378Z</time>
      </trkpt>
      <trkpt lat="46.88299" lon="8.54553">
        <ele>1505</ele>
        <time>2021-08-11T08:27:48.378Z</time>
      </trkpt>
      <trkpt lat="46.88299" lon="8.54553">
        <ele>1505</ele>
        <time>2021-08-11T08:27:49.379Z</time>
      </trkpt>
      <trkpt lat="46.88299" lon="8.54552">
        <ele>1505</ele>
        <time>2021-08-11T08:27:50.379Z</time>
      </trkpt>
      <trkpt lat="46.88299" lon="8.54551">
        <ele>1505</ele>
        <time>2021-08-11T08:27:51.379Z</time>
      </trkpt>
      <trkpt lat="46.88299" lon="8.5455">
        <ele>1505</ele>
        <time>2021-08-11T08:27:52.378Z</time>
      </trkpt>
      <trkpt lat="46.88298" lon="8.54549">
        <ele>1505</ele>
        <time>2021-08-11T08:27:53.379Z</time>
      </trkpt>
      <trkpt lat="46.88298" lon="8.54548">
        <ele>1506</ele>
        <time>2021-08-11T08:27:54.379Z</time>
      </trkpt>
      <trkpt lat="46.88298" lon="8.54547">
        <ele>1506</ele>
        <time>2021-08-11T08:27:55.378Z</time>
      </trkpt>
      <trkpt lat="46.88298" lon="8.54547">
        <ele>1506</ele>
        <time>2021-08-11T08:27:56.378Z</time>
      </trkpt>
      <trkpt lat="46.88298" lon="8.54546">
        <ele>1507</ele>
        <time>2021-08-11T08:27:57.378Z</time>
      </trkpt>
      <trkpt lat="46.88297" lon="8.54545">
        <ele>1507</ele>
        <time>2021-08-11T08:27:58.379Z</time>
      </trkpt>
      <trkpt lat="46.88297" lon="8.54544">
        <ele>1507</ele>
        <time>2021-08-11T08:27:59.379Z</time>
      </trkpt>
      <trkpt lat="46.88297" lon="8.54542">
        <ele>1507</ele>
        <time>2021-08-11T08:28:00.379Z</time>
      </trkpt>
      <trkpt lat="46.88297" lon="8.54541">
        <ele>1507</ele>
        <time>2021-08-11T08:28:01.378Z</time>
      </trkpt>
      <trkpt lat="46.88297" lon="8.5454">
        <ele>1507</ele>
        <time>2021-08-11T08:28:02.378Z</time>
      </trkpt>
      <trkpt lat="46.88297" lon="8.5454">
        <ele>1507</ele>
        <time>2021-08-11T08:28:03.379Z</time>
      </trkpt>
      <trkpt lat="46.88297" lon="8.54539">
        <ele>1508</ele>
        <time>2021-08-11T08:28:04.379Z</time>
      </trkpt>
      <trkpt lat="46.88297" lon="8.54538">
        <ele>1509</ele>
        <time>2021-08-11T08:28:05.379Z</time>
      </trkpt>
      <trkpt lat="46.88298" lon="8.54538">
        <ele>1510</ele>
        <time>2021-08-11T08:28:06.379Z</time>
      </trkpt>
      <trkpt lat="46.88298" lon="8.54537">
        <ele>1510</ele>
        <time>2021-08-11T08:28:07.378Z</time>
      </trkpt>
      <trkpt lat="46.88298" lon="8.54536">
        <ele>1511</ele>
        <time>2021-08-11T08:28:08.379Z</time>
      </trkpt>
      <trkpt lat="46.88297" lon="8.54536">
        <ele>1511</ele>
        <time>2021-08-11T08:28:09.379Z</time>
      </trkpt>
      <trkpt lat="46.88297" lon="8.54535">
        <ele>1511</ele>
        <time>2021-08-11T08:28:10.379Z</time>
      </trkpt>
      <trkpt lat="46.88296" lon="8.54534">
        <ele>1511</ele>
        <time>2021-08-11T08:28:11.379Z</time>
      </trkpt>
      <trkpt lat="46.88296" lon="8.54533">
        <ele>1511</ele>
        <time>2021-08-11T08:28:12.378Z</time>
      </trkpt>
      <trkpt lat="46.88295" lon="8.54532">
        <ele>1511</ele>
        <time>2021-08-11T08:28:13.378Z</time>
      </trkpt>
      <trkpt lat="46.88295" lon="8.54532">
        <ele>1512</ele>
        <time>2021-08-11T08:28:14.379Z</time>
      </trkpt>
      <trkpt lat="46.88294" lon="8.54531">
        <ele>1512</ele>
        <time>2021-08-11T08:28:15.379Z</time>
      </trkpt>
      <trkpt lat="46.88294" lon="8.5453">
        <ele>1512</ele>
        <time>2021-08-11T08:28:16.379Z</time>
      </trkpt>
      <trkpt lat="46.88294" lon="8.5453">
        <ele>1512</ele>
        <time>2021-08-11T08:28:17.378Z</time>
      </trkpt>
      <trkpt lat="46.88295" lon="8.5453">
        <ele>1513</ele>
        <time>2021-08-11T08:28:18.378Z</time>
      </trkpt>
      <trkpt lat="46.88294" lon="8.54529">
        <ele>1513</ele>
        <time>2021-08-11T08:28:19.379Z</time>
      </trkpt>
      <trkpt lat="46.88295" lon="8.54529">
        <ele>1513</ele>
        <time>2021-08-11T08:28:20.379Z</time>
      </trkpt>
      <trkpt lat="46.88295" lon="8.54528">
        <ele>1513</ele>
        <time>2021-08-11T08:28:21.379Z</time>
      </trkpt>
      <trkpt lat="46.88295" lon="8.54527">
        <ele>1513</ele>
        <time>2021-08-11T08:28:22.378Z</time>
      </trkpt>
      <trkpt lat="46.88295" lon="8.54526">
        <ele>1513</ele>
        <time>2021-08-11T08:28:23.378Z</time>
      </trkpt>
      <trkpt lat="46.88295" lon="8.54525">
        <ele>1513</ele>
        <time>2021-08-11T08:28:24.379Z</time>
      </trkpt>
      <trkpt lat="46.88296" lon="8.54525">
        <ele>1513</ele>
        <time>2021-08-11T08:28:25.379Z</time>
      </trkpt>
      <trkpt lat="46.88296" lon="8.54524">
        <ele>1513</ele>
        <time>2021-08-11T08:28:26.379Z</time>
      </trkpt>
      <trkpt lat="46.88296" lon="8.54523">
        <ele>1513</ele>
        <time>2021-08-11T08:28:27.379Z</time>
      </trkpt>
      <trkpt lat="46.88296" lon="8.54522">
        <ele>1513</ele>
        <time>2021-08-11T08:28:28.379Z</time>
      </trkpt>
      <trkpt lat="46.88296" lon="8.54521">
        <ele>1513</ele>
        <time>2021-08-11T08:28:29.379Z</time>
      </trkpt>
      <trkpt lat="46.88296" lon="8.5452">
        <ele>1513</ele>
        <time>2021-08-11T08:28:30.379Z</time>
      </trkpt>
      <trkpt lat="46.88296" lon="8.5452">
        <ele>1513</ele>
        <time>2021-08-11T08:28:31.379Z</time>
      </trkpt>
      <trkpt lat="46.88296" lon="8.54519">
        <ele>1513</ele>
        <time>2021-08-11T08:28:32.379Z</time>
      </trkpt>
      <trkpt lat="46.88296" lon="8.54518">
        <ele>1513</ele>
        <time>2021-08-11T08:28:33.378Z</time>
      </trkpt>
      <trkpt lat="46.88296" lon="8.54518">
        <ele>1512</ele>
        <time>2021-08-11T08:28:34.379Z</time>
      </trkpt>
      <trkpt lat="46.88296" lon="8.54517">
        <ele>1512</ele>
        <time>2021-08-11T08:28:35.379Z</time>
      </trkpt>
      <trkpt lat="46.88296" lon="8.54517">
        <ele>1511</ele>
        <time>2021-08-11T08:28:36.379Z</time>
      </trkpt>
      <trkpt lat="46.88297" lon="8.54516">
        <ele>1511</ele>
        <time>2021-08-11T08:28:37.379Z</time>
      </trkpt>
      <trkpt lat="46.88297" lon="8.54516">
        <ele>1512</ele>
        <time>2021-08-11T08:28:38.379Z</time>
      </trkpt>
      <trkpt lat="46.88298" lon="8.54516">
        <ele>1512</ele>
        <time>2021-08-11T08:28:39.378Z</time>
      </trkpt>
      <trkpt lat="46.88299" lon="8.54516">
        <ele>1513</ele>
        <time>2021-08-11T08:28:40.379Z</time>
      </trkpt>
      <trkpt lat="46.883" lon="8.54516">
        <ele>1513</ele>
        <time>2021-08-11T08:28:41.378Z</time>
      </trkpt>
      <trkpt lat="46.883" lon="8.54516">
        <ele>1514</ele>
        <time>2021-08-11T08:28:42.379Z</time>
      </trkpt>
      <trkpt lat="46.88301" lon="8.54516">
        <ele>1514</ele>
        <time>2021-08-11T08:28:43.379Z</time>
      </trkpt>
      <trkpt lat="46.88302" lon="8.54516">
        <ele>1514</ele>
        <time>2021-08-11T08:28:44.379Z</time>
      </trkpt>
      <trkpt lat="46.88303" lon="8.54516">
        <ele>1514</ele>
        <time>2021-08-11T08:28:45.378Z</time>
      </trkpt>
      <trkpt lat="46.88303" lon="8.54516">
        <ele>1515</ele>
        <time>2021-08-11T08:28:46.379Z</time>
      </trkpt>
      <trkpt lat="46.88303" lon="8.54515">
        <ele>1515</ele>
        <time>2021-08-11T08:28:47.379Z</time>
      </trkpt>
      <trkpt lat="46.88304" lon="8.54514">
        <ele>1515</ele>
        <time>2021-08-11T08:28:48.378Z</time>
      </trkpt>
      <trkpt lat="46.88303" lon="8.54514">
        <ele>1515</ele>
        <time>2021-08-11T08:28:49.378Z</time>
      </trkpt>
      <trkpt lat="46.88303" lon="8.54513">
        <ele>1515</ele>
        <time>2021-08-11T08:28:50.379Z</time>
      </trkpt>
      <trkpt lat="46.88303" lon="8.54512">
        <ele>1515</ele>
        <time>2021-08-11T08:28:51.379Z</time>
      </trkpt>
      <trkpt lat="46.88302" lon="8.54511">
        <ele>1515</ele>
        <time>2021-08-11T08:28:52.379Z</time>
      </trkpt>
      <trkpt lat="46.88302" lon="8.5451">
        <ele>1515</ele>
        <time>2021-08-11T08:28:53.378Z</time>
      </trkpt>
      <trkpt lat="46.88301" lon="8.54509">
        <ele>1515</ele>
        <time>2021-08-11T08:28:54.378Z</time>
      </trkpt>
      <trkpt lat="46.883" lon="8.54509">
        <ele>1515</ele>
        <time>2021-08-11T08:28:55.378Z</time>
      </trkpt>
      <trkpt lat="46.883" lon="8.54508">
        <ele>1514</ele>
        <time>2021-08-11T08:28:56.379Z</time>
      </trkpt>
      <trkpt lat="46.883" lon="8.54507">
        <ele>1514</ele>
        <time>2021-08-11T08:28:57.378Z</time>
      </trkpt>
      <trkpt lat="46.88299" lon="8.54507">
        <ele>1515</ele>
        <time>2021-08-11T08:28:58.379Z</time>
      </trkpt>
      <trkpt lat="46.88299" lon="8.54506">
        <ele>1515</ele>
        <time>2021-08-11T08:28:59.379Z</time>
      </trkpt>
      <trkpt lat="46.88299" lon="8.54505">
        <ele>1516</ele>
        <time>2021-08-11T08:29:00.379Z</time>
      </trkpt>
      <trkpt lat="46.88299" lon="8.54505">
        <ele>1516</ele>
        <time>2021-08-11T08:29:01.378Z</time>
      </trkpt>
      <trkpt lat="46.88298" lon="8.54504">
        <ele>1517</ele>
        <time>2021-08-11T08:29:02.378Z</time>
      </trkpt>
      <trkpt lat="46.88298" lon="8.54504">
        <ele>1517</ele>
        <time>2021-08-11T08:29:03.379Z</time>
      </trkpt>
      <trkpt lat="46.88298" lon="8.54503">
        <ele>1516</ele>
        <time>2021-08-11T08:29:04.379Z</time>
      </trkpt>
      <trkpt lat="46.88297" lon="8.54502">
        <ele>1516</ele>
        <time>2021-08-11T08:29:05.379Z</time>
      </trkpt>
      <trkpt lat="46.88297" lon="8.54502">
        <ele>1516</ele>
        <time>2021-08-11T08:29:06.379Z</time>
      </trkpt>
      <trkpt lat="46.88297" lon="8.54501">
        <ele>1516</ele>
        <time>2021-08-11T08:29:07.379Z</time>
      </trkpt>
      <trkpt lat="46.88297" lon="8.54501">
        <ele>1516</ele>
        <time>2021-08-11T08:29:08.378Z</time>
      </trkpt>
      <trkpt lat="46.88296" lon="8.545">
        <ele>1516</ele>
        <time>2021-08-11T08:29:09.379Z</time>
      </trkpt>
      <trkpt lat="46.88296" lon="8.545">
        <ele>1516</ele>
        <time>2021-08-11T08:29:10.379Z</time>
      </trkpt>
      <trkpt lat="46.88296" lon="8.54499">
        <ele>1516</ele>
        <time>2021-08-11T08:29:11.379Z</time>
      </trkpt>
      <trkpt lat="46.88295" lon="8.54498">
        <ele>1517</ele>
        <time>2021-08-11T08:29:12.378Z</time>
      </trkpt>
      <trkpt lat="46.88295" lon="8.54498">
        <ele>1517</ele>
        <time>2021-08-11T08:29:13.378Z</time>
      </trkpt>
      <trkpt lat="46.88295" lon="8.54497">
        <ele>1517</ele>
        <time>2021-08-11T08:29:14.379Z</time>
      </trkpt>
      <trkpt lat="46.88295" lon="8.54496">
        <ele>1518</ele>
        <time>2021-08-11T08:29:15.379Z</time>
      </trkpt>
      <trkpt lat="46.88294" lon="8.54495">
        <ele>1518</ele>
        <time>2021-08-11T08:29:16.379Z</time>
      </trkpt>
      <trkpt lat="46.88294" lon="8.54494">
        <ele>1518</ele>
        <time>2021-08-11T08:29:17.378Z</time>
      </trkpt>
      <trkpt lat="46.88293" lon="8.54493">
        <ele>1519</ele>
        <time>2021-08-11T08:29:18.378Z</time>
      </trkpt>
      <trkpt lat="46.88293" lon="8.54491">
        <ele>1519</ele>
        <time>2021-08-11T08:29:19.379Z</time>
      </trkpt>
      <trkpt lat="46.88292" lon="8.54491">
        <ele>1520</ele>
        <time>2021-08-11T08:29:20.379Z</time>
      </trkpt>
      <trkpt lat="46.88292" lon="8.5449">
        <ele>1520</ele>
        <time>2021-08-11T08:29:21.379Z</time>
      </trkpt>
      <trkpt lat="46.88291" lon="8.54489">
        <ele>1521</ele>
        <time>2021-08-11T08:29:22.378Z</time>
      </trkpt>
      <trkpt lat="46.88291" lon="8.54488">
        <ele>1521</ele>
        <time>2021-08-11T08:29:23.379Z</time>
      </trkpt>
      <trkpt lat="46.8829" lon="8.54488">
        <ele>1522</ele>
        <time>2021-08-11T08:29:24.379Z</time>
      </trkpt>
      <trkpt lat="46.8829" lon="8.54487">
        <ele>1522</ele>
        <time>2021-08-11T08:29:25.379Z</time>
      </trkpt>
      <trkpt lat="46.8829" lon="8.54487">
        <ele>1522</ele>
        <time>2021-08-11T08:29:26.379Z</time>
      </trkpt>
      <trkpt lat="46.8829" lon="8.54486">
        <ele>1522</ele>
        <time>2021-08-11T08:29:27.378Z</time>
      </trkpt>
      <trkpt lat="46.88289" lon="8.54486">
        <ele>1522</ele>
        <time>2021-08-11T08:29:28.378Z</time>
      </trkpt>
      <trkpt lat="46.88289" lon="8.54485">
        <ele>1522</ele>
        <time>2021-08-11T08:29:29.378Z</time>
      </trkpt>
      <trkpt lat="46.88288" lon="8.54485">
        <ele>1522</ele>
        <time>2021-08-11T08:29:30.379Z</time>
      </trkpt>
      <trkpt lat="46.88288" lon="8.54484">
        <ele>1522</ele>
        <time>2021-08-11T08:29:31.379Z</time>
      </trkpt>
      <trkpt lat="46.88287" lon="8.54483">
        <ele>1522</ele>
        <time>2021-08-11T08:29:32.378Z</time>
      </trkpt>
      <trkpt lat="46.88287" lon="8.54483">
        <ele>1522</ele>
        <time>2021-08-11T08:29:33.378Z</time>
      </trkpt>
      <trkpt lat="46.88287" lon="8.54483">
        <ele>1522</ele>
        <time>2021-08-11T08:29:34.379Z</time>
      </trkpt>
      <trkpt lat="46.88287" lon="8.54482">
        <ele>1523</ele>
        <time>2021-08-11T08:29:35.378Z</time>
      </trkpt>
      <trkpt lat="46.88286" lon="8.54482">
        <ele>1523</ele>
        <time>2021-08-11T08:29:36.378Z</time>
      </trkpt>
      <trkpt lat="46.88286" lon="8.54481">
        <ele>1524</ele>
        <time>2021-08-11T08:29:37.378Z</time>
      </trkpt>
      <trkpt lat="46.88286" lon="8.5448">
        <ele>1524</ele>
        <time>2021-08-11T08:29:38.378Z</time>
      </trkpt>
      <trkpt lat="46.88285" lon="8.5448">
        <ele>1524</ele>
        <time>2021-08-11T08:29:39.378Z</time>
      </trkpt>
      <trkpt lat="46.88285" lon="8.54479">
        <ele>1524</ele>
        <time>2021-08-11T08:29:40.379Z</time>
      </trkpt>
      <trkpt lat="46.88285" lon="8.54479">
        <ele>1524</ele>
        <time>2021-08-11T08:29:41.379Z</time>
      </trkpt>
      <trkpt lat="46.88285" lon="8.54478">
        <ele>1525</ele>
        <time>2021-08-11T08:29:42.378Z</time>
      </trkpt>
      <trkpt lat="46.88284" lon="8.54478">
        <ele>1525</ele>
        <time>2021-08-11T08:29:43.378Z</time>
      </trkpt>
      <trkpt lat="46.88284" lon="8.54477">
        <ele>1525</ele>
        <time>2021-08-11T08:29:44.378Z</time>
      </trkpt>
      <trkpt lat="46.88283" lon="8.54477">
        <ele>1525</ele>
        <time>2021-08-11T08:29:45.379Z</time>
      </trkpt>
      <trkpt lat="46.88283" lon="8.54476">
        <ele>1525</ele>
        <time>2021-08-11T08:29:46.378Z</time>
      </trkpt>
      <trkpt lat="46.88283" lon="8.54476">
        <ele>1525</ele>
        <time>2021-08-11T08:29:47.378Z</time>
      </trkpt>
      <trkpt lat="46.88282" lon="8.54475">
        <ele>1525</ele>
        <time>2021-08-11T08:29:48.378Z</time>
      </trkpt>
      <trkpt lat="46.88282" lon="8.54475">
        <ele>1525</ele>
        <time>2021-08-11T08:29:49.379Z</time>
      </trkpt>
      <trkpt lat="46.88281" lon="8.54474">
        <ele>1525</ele>
        <time>2021-08-11T08:29:50.379Z</time>
      </trkpt>
      <trkpt lat="46.88281" lon="8.54474">
        <ele>1525</ele>
        <time>2021-08-11T08:29:51.378Z</time>
      </trkpt>
      <trkpt lat="46.88281" lon="8.54473">
        <ele>1524</ele>
        <time>2021-08-11T08:29:52.378Z</time>
      </trkpt>
      <trkpt lat="46.88281" lon="8.54473">
        <ele>1524</ele>
        <time>2021-08-11T08:29:53.378Z</time>
      </trkpt>
      <trkpt lat="46.88281" lon="8.54472">
        <ele>1524</ele>
        <time>2021-08-11T08:29:54.379Z</time>
      </trkpt>
      <trkpt lat="46.88281" lon="8.54471">
        <ele>1525</ele>
        <time>2021-08-11T08:29:55.378Z</time>
      </trkpt>
      <trkpt lat="46.8828" lon="8.54471">
        <ele>1525</ele>
        <time>2021-08-11T08:29:56.378Z</time>
      </trkpt>
      <trkpt lat="46.8828" lon="8.5447">
        <ele>1526</ele>
        <time>2021-08-11T08:29:57.378Z</time>
      </trkpt>
      <trkpt lat="46.8828" lon="8.5447">
        <ele>1526</ele>
        <time>2021-08-11T08:29:58.378Z</time>
      </trkpt>
      <trkpt lat="46.8828" lon="8.54469">
        <ele>1526</ele>
        <time>2021-08-11T08:29:59.379Z</time>
      </trkpt>
      <trkpt lat="46.8828" lon="8.54468">
        <ele>1527</ele>
        <time>2021-08-11T08:30:00.378Z</time>
      </trkpt>
      <trkpt lat="46.88279" lon="8.54467">
        <ele>1527</ele>
        <time>2021-08-11T08:30:01.378Z</time>
      </trkpt>
      <trkpt lat="46.88279" lon="8.54466">
        <ele>1527</ele>
        <time>2021-08-11T08:30:02.378Z</time>
      </trkpt>
      <trkpt lat="46.88278" lon="8.54466">
        <ele>1528</ele>
        <time>2021-08-11T08:30:03.379Z</time>
      </trkpt>
      <trkpt lat="46.88278" lon="8.54465">
        <ele>1528</ele>
        <time>2021-08-11T08:30:04.378Z</time>
      </trkpt>
      <trkpt lat="46.88277" lon="8.54464">
        <ele>1528</ele>
        <time>2021-08-11T08:30:05.379Z</time>
      </trkpt>
      <trkpt lat="46.88277" lon="8.54463">
        <ele>1528</ele>
        <time>2021-08-11T08:30:06.378Z</time>
      </trkpt>
      <trkpt lat="46.88277" lon="8.54462">
        <ele>1529</ele>
        <time>2021-08-11T08:30:07.378Z</time>
      </trkpt>
      <trkpt lat="46.88277" lon="8.54462">
        <ele>1529</ele>
        <time>2021-08-11T08:30:08.379Z</time>
      </trkpt>
      <trkpt lat="46.88276" lon="8.54461">
        <ele>1530</ele>
        <time>2021-08-11T08:30:09.379Z</time>
      </trkpt>
      <trkpt lat="46.88276" lon="8.5446">
        <ele>1530</ele>
        <time>2021-08-11T08:30:10.379Z</time>
      </trkpt>
      <trkpt lat="46.88276" lon="8.54459">
        <ele>1530</ele>
        <time>2021-08-11T08:30:11.379Z</time>
      </trkpt>
      <trkpt lat="46.88275" lon="8.54458">
        <ele>1530</ele>
        <time>2021-08-11T08:30:12.378Z</time>
      </trkpt>
      <trkpt lat="46.88275" lon="8.54457">
        <ele>1530</ele>
        <time>2021-08-11T08:30:13.379Z</time>
      </trkpt>
      <trkpt lat="46.88274" lon="8.54456">
        <ele>1530</ele>
        <time>2021-08-11T08:30:14.379Z</time>
      </trkpt>
      <trkpt lat="46.88274" lon="8.54456">
        <ele>1530</ele>
        <time>2021-08-11T08:30:15.379Z</time>
      </trkpt>
      <trkpt lat="46.88274" lon="8.54455">
        <ele>1530</ele>
        <time>2021-08-11T08:30:16.378Z</time>
      </trkpt>
      <trkpt lat="46.88274" lon="8.54454">
        <ele>1530</ele>
        <time>2021-08-11T08:30:17.379Z</time>
      </trkpt>
      <trkpt lat="46.88274" lon="8.54453">
        <ele>1530</ele>
        <time>2021-08-11T08:30:18.379Z</time>
      </trkpt>
      <trkpt lat="46.88273" lon="8.54452">
        <ele>1530</ele>
        <time>2021-08-11T08:30:19.379Z</time>
      </trkpt>
      <trkpt lat="46.88273" lon="8.54451">
        <ele>1529</ele>
        <time>2021-08-11T08:30:20.379Z</time>
      </trkpt>
      <trkpt lat="46.88273" lon="8.54451">
        <ele>1529</ele>
        <time>2021-08-11T08:30:21.378Z</time>
      </trkpt>
      <trkpt lat="46.88273" lon="8.5445">
        <ele>1529</ele>
        <time>2021-08-11T08:30:22.379Z</time>
      </trkpt>
      <trkpt lat="46.88272" lon="8.5445">
        <ele>1529</ele>
        <time>2021-08-11T08:30:23.379Z</time>
      </trkpt>
      <trkpt lat="46.88272" lon="8.54449">
        <ele>1529</ele>
        <time>2021-08-11T08:30:24.379Z</time>
      </trkpt>
      <trkpt lat="46.88272" lon="8.54448">
        <ele>1530</ele>
        <time>2021-08-11T08:30:25.379Z</time>
      </trkpt>
      <trkpt lat="46.88272" lon="8.54448">
        <ele>1530</ele>
        <time>2021-08-11T08:30:26.379Z</time>
      </trkpt>
      <trkpt lat="46.88271" lon="8.54447">
        <ele>1530</ele>
        <time>2021-08-11T08:30:27.379Z</time>
      </trkpt>
      <trkpt lat="46.88271" lon="8.54446">
        <ele>1530</ele>
        <time>2021-08-11T08:30:28.378Z</time>
      </trkpt>
      <trkpt lat="46.88271" lon="8.54445">
        <ele>1531</ele>
        <time>2021-08-11T08:30:29.379Z</time>
      </trkpt>
      <trkpt lat="46.8827" lon="8.54445">
        <ele>1531</ele>
        <time>2021-08-11T08:30:30.378Z</time>
      </trkpt>
      <trkpt lat="46.8827" lon="8.54444">
        <ele>1531</ele>
        <time>2021-08-11T08:30:31.379Z</time>
      </trkpt>
      <trkpt lat="46.88269" lon="8.54443">
        <ele>1531</ele>
        <time>2021-08-11T08:30:32.379Z</time>
      </trkpt>
      <trkpt lat="46.88269" lon="8.54443">
        <ele>1531</ele>
        <time>2021-08-11T08:30:33.379Z</time>
      </trkpt>
      <trkpt lat="46.88269" lon="8.54442">
        <ele>1531</ele>
        <time>2021-08-11T08:30:34.378Z</time>
      </trkpt>
      <trkpt lat="46.88269" lon="8.54442">
        <ele>1530</ele>
        <time>2021-08-11T08:30:35.379Z</time>
      </trkpt>
      <trkpt lat="46.88269" lon="8.54441">
        <ele>1530</ele>
        <time>2021-08-11T08:30:36.379Z</time>
      </trkpt>
      <trkpt lat="46.88269" lon="8.54441">
        <ele>1530</ele>
        <time>2021-08-11T08:30:37.379Z</time>
      </trkpt>
      <trkpt lat="46.88269" lon="8.5444">
        <ele>1530</ele>
        <time>2021-08-11T08:30:38.379Z</time>
      </trkpt>
      <trkpt lat="46.88269" lon="8.5444">
        <ele>1530</ele>
        <time>2021-08-11T08:30:39.378Z</time>
      </trkpt>
      <trkpt lat="46.88269" lon="8.54439">
        <ele>1530</ele>
        <time>2021-08-11T08:30:40.379Z</time>
      </trkpt>
      <trkpt lat="46.8827" lon="8.54439">
        <ele>1530</ele>
        <time>2021-08-11T08:30:41.379Z</time>
      </trkpt>
      <trkpt lat="46.8827" lon="8.54438">
        <ele>1531</ele>
        <time>2021-08-11T08:30:42.379Z</time>
      </trkpt>
      <trkpt lat="46.8827" lon="8.54438">
        <ele>1531</ele>
        <time>2021-08-11T08:30:43.379Z</time>
      </trkpt>
      <trkpt lat="46.8827" lon="8.54437">
        <ele>1531</ele>
        <time>2021-08-11T08:30:44.378Z</time>
      </trkpt>
      <trkpt lat="46.8827" lon="8.54437">
        <ele>1531</ele>
        <time>2021-08-11T08:30:45.379Z</time>
      </trkpt>
      <trkpt lat="46.88271" lon="8.54437">
        <ele>1531</ele>
        <time>2021-08-11T08:30:46.379Z</time>
      </trkpt>
      <trkpt lat="46.88271" lon="8.54436">
        <ele>1531</ele>
        <time>2021-08-11T08:30:47.379Z</time>
      </trkpt>
      <trkpt lat="46.88272" lon="8.54436">
        <ele>1531</ele>
        <time>2021-08-11T08:30:48.378Z</time>
      </trkpt>
      <trkpt lat="46.88272" lon="8.54436">
        <ele>1531</ele>
        <time>2021-08-11T08:30:49.379Z</time>
      </trkpt>
      <trkpt lat="46.88273" lon="8.54436">
        <ele>1531</ele>
        <time>2021-08-11T08:30:50.379Z</time>
      </trkpt>
      <trkpt lat="46.88273" lon="8.54436">
        <ele>1531</ele>
        <time>2021-08-11T08:30:51.379Z</time>
      </trkpt>
      <trkpt lat="46.88274" lon="8.54436">
        <ele>1531</ele>
        <time>2021-08-11T08:30:52.379Z</time>
      </trkpt>
      <trkpt lat="46.88274" lon="8.54436">
        <ele>1531</ele>
        <time>2021-08-11T08:30:53.378Z</time>
      </trkpt>
      <trkpt lat="46.88275" lon="8.54437">
        <ele>1531</ele>
        <time>2021-08-11T08:30:54.379Z</time>
      </trkpt>
      <trkpt lat="46.88276" lon="8.54437">
        <ele>1531</ele>
        <time>2021-08-11T08:30:55.379Z</time>
      </trkpt>
      <trkpt lat="46.88276" lon="8.54437">
        <ele>1532</ele>
        <time>2021-08-11T08:30:56.379Z</time>
      </trkpt>
      <trkpt lat="46.88277" lon="8.54437">
        <ele>1532</ele>
        <time>2021-08-11T08:30:57.378Z</time>
      </trkpt>
      <trkpt lat="46.88277" lon="8.54436">
        <ele>1532</ele>
        <time>2021-08-11T08:30:58.379Z</time>
      </trkpt>
      <trkpt lat="46.88278" lon="8.54436">
        <ele>1532</ele>
        <time>2021-08-11T08:30:59.379Z</time>
      </trkpt>
      <trkpt lat="46.88279" lon="8.54436">
        <ele>1533</ele>
        <time>2021-08-11T08:31:00.378Z</time>
      </trkpt>
      <trkpt lat="46.8828" lon="8.54436">
        <ele>1533</ele>
        <time>2021-08-11T08:31:01.379Z</time>
      </trkpt>
      <trkpt lat="46.88281" lon="8.54436">
        <ele>1534</ele>
        <time>2021-08-11T08:31:02.378Z</time>
      </trkpt>
      <trkpt lat="46.88281" lon="8.54436">
        <ele>1534</ele>
        <time>2021-08-11T08:31:03.379Z</time>
      </trkpt>
      <trkpt lat="46.88282" lon="8.54435">
        <ele>1534</ele>
        <time>2021-08-11T08:31:04.378Z</time>
      </trkpt>
      <trkpt lat="46.88282" lon="8.54435">
        <ele>1534</ele>
        <time>2021-08-11T08:31:05.379Z</time>
      </trkpt>
      <trkpt lat="46.88282" lon="8.54435">
        <ele>1534</ele>
        <time>2021-08-11T08:31:06.378Z</time>
      </trkpt>
      <trkpt lat="46.88283" lon="8.54435">
        <ele>1534</ele>
        <time>2021-08-11T08:31:07.378Z</time>
      </trkpt>
      <trkpt lat="46.88283" lon="8.54434">
        <ele>1535</ele>
        <time>2021-08-11T08:31:08.380Z</time>
      </trkpt>
      <trkpt lat="46.88283" lon="8.54434">
        <ele>1535</ele>
        <time>2021-08-11T08:31:09.379Z</time>
      </trkpt>
      <trkpt lat="46.88283" lon="8.54433">
        <ele>1535</ele>
        <time>2021-08-11T08:31:10.379Z</time>
      </trkpt>
      <trkpt lat="46.8828" lon="8.54432">
        <ele>1541</ele>
        <time>2021-08-11T08:31:11.381Z</time>
      </trkpt>
      <trkpt lat="46.8828" lon="8.54432">
        <ele>1541</ele>
        <time>2021-08-11T08:31:12.380Z</time>
      </trkpt>
      <trkpt lat="46.8828" lon="8.54432">
        <ele>1541</ele>
        <time>2021-08-11T08:31:13.381Z</time>
      </trkpt>
      <trkpt lat="46.8828" lon="8.54433">
        <ele>1540</ele>
        <time>2021-08-11T08:31:14.380Z</time>
      </trkpt>
      <trkpt lat="46.88281" lon="8.54432">
        <ele>1539</ele>
        <time>2021-08-11T08:31:15.382Z</time>
      </trkpt>
      <trkpt lat="46.88281" lon="8.54432">
        <ele>1540</ele>
        <time>2021-08-11T08:31:16.382Z</time>
      </trkpt>
      <trkpt lat="46.88281" lon="8.54432">
        <ele>1540</ele>
        <time>2021-08-11T08:31:17.381Z</time>
      </trkpt>
      <trkpt lat="46.88281" lon="8.54432">
        <ele>1541</ele>
        <time>2021-08-11T08:31:18.382Z</time>
      </trkpt>
      <trkpt lat="46.88281" lon="8.54432">
        <ele>1539</ele>
        <time>2021-08-11T08:31:19.381Z</time>
      </trkpt>
      <trkpt lat="46.88279" lon="8.54429">
        <ele>1539</ele>
        <time>2021-08-11T08:31:20.381Z</time>
      </trkpt>
      <trkpt lat="46.88281" lon="8.54431">
        <ele>1540</ele>
        <time>2021-08-11T08:31:21.382Z</time>
      </trkpt>
      <trkpt lat="46.88281" lon="8.54432">
        <ele>1540</ele>
        <time>2021-08-11T08:31:22.381Z</time>
      </trkpt>
      <trkpt lat="46.88283" lon="8.54436">
        <ele>1538</ele>
        <time>2021-08-11T08:31:23.382Z</time>
      </trkpt>
      <trkpt lat="46.88283" lon="8.54436">
        <ele>1538</ele>
        <time>2021-08-11T08:31:24.383Z</time>
      </trkpt>
      <trkpt lat="46.88283" lon="8.54436">
        <ele>1537</ele>
        <time>2021-08-11T08:31:25.382Z</time>
      </trkpt>
      <trkpt lat="46.88283" lon="8.54435">
        <ele>1537</ele>
        <time>2021-08-11T08:31:26.382Z</time>
      </trkpt>
      <trkpt lat="46.88283" lon="8.54435">
        <ele>1536</ele>
        <time>2021-08-11T08:31:27.382Z</time>
      </trkpt>
      <trkpt lat="46.88283" lon="8.54435">
        <ele>1536</ele>
        <time>2021-08-11T08:31:28.383Z</time>
      </trkpt>
      <trkpt lat="46.88283" lon="8.54435">
        <ele>1536</ele>
        <time>2021-08-11T08:31:29.383Z</time>
      </trkpt>
      <trkpt lat="46.88283" lon="8.54434">
        <ele>1535</ele>
        <time>2021-08-11T08:31:30.383Z</time>
      </trkpt>
      <trkpt lat="46.88281" lon="8.54432">
        <ele>1536</ele>
        <time>2021-08-11T08:31:31.384Z</time>
      </trkpt>
      <trkpt lat="46.88281" lon="8.54432">
        <ele>1537</ele>
        <time>2021-08-11T08:31:32.383Z</time>
      </trkpt>
      <trkpt lat="46.88281" lon="8.54433">
        <ele>1537</ele>
        <time>2021-08-11T08:31:33.384Z</time>
      </trkpt>
      <trkpt lat="46.88281" lon="8.54433">
        <ele>1538</ele>
        <time>2021-08-11T08:31:34.384Z</time>
      </trkpt>
      <trkpt lat="46.88281" lon="8.54434">
        <ele>1538</ele>
        <time>2021-08-11T08:31:35.384Z</time>
      </trkpt>
      <trkpt lat="46.88281" lon="8.54434">
        <ele>1538</ele>
        <time>2021-08-11T08:31:36.383Z</time>
      </trkpt>
      <trkpt lat="46.88281" lon="8.54434">
        <ele>1538</ele>
        <time>2021-08-11T08:31:37.383Z</time>
      </trkpt>
      <trkpt lat="46.8828" lon="8.54434">
        <ele>1537</ele>
        <time>2021-08-11T08:31:38.383Z</time>
      </trkpt>
      <trkpt lat="46.8828" lon="8.54434">
        <ele>1537</ele>
        <time>2021-08-11T08:31:39.384Z</time>
      </trkpt>
      <trkpt lat="46.8828" lon="8.54435">
        <ele>1537</ele>
        <time>2021-08-11T08:31:40.384Z</time>
      </trkpt>
      <trkpt lat="46.88281" lon="8.54435">
        <ele>1537</ele>
        <time>2021-08-11T08:31:41.383Z</time>
      </trkpt>
      <trkpt lat="46.88282" lon="8.54436">
        <ele>1537</ele>
        <time>2021-08-11T08:31:42.384Z</time>
      </trkpt>
      <trkpt lat="46.88282" lon="8.54436">
        <ele>1537</ele>
        <time>2021-08-11T08:31:43.384Z</time>
      </trkpt>
      <trkpt lat="46.88283" lon="8.54436">
        <ele>1537</ele>
        <time>2021-08-11T08:31:44.383Z</time>
      </trkpt>
      <trkpt lat="46.88286" lon="8.54433">
        <ele>1539</ele>
        <time>2021-08-11T08:31:45.385Z</time>
      </trkpt>
      <trkpt lat="46.88287" lon="8.54433">
        <ele>1539</ele>
        <time>2021-08-11T08:31:46.384Z</time>
      </trkpt>
      <trkpt lat="46.88287" lon="8.54433">
        <ele>1540</ele>
        <time>2021-08-11T08:31:47.384Z</time>
      </trkpt>
      <trkpt lat="46.88288" lon="8.54433">
        <ele>1540</ele>
        <time>2021-08-11T08:31:48.385Z</time>
      </trkpt>
      <trkpt lat="46.88289" lon="8.54433">
        <ele>1540</ele>
        <time>2021-08-11T08:31:49.384Z</time>
      </trkpt>
      <trkpt lat="46.8829" lon="8.54433">
        <ele>1540</ele>
        <time>2021-08-11T08:31:50.384Z</time>
      </trkpt>
      <trkpt lat="46.88291" lon="8.54433">
        <ele>1540</ele>
        <time>2021-08-11T08:31:51.385Z</time>
      </trkpt>
      <trkpt lat="46.88292" lon="8.54433">
        <ele>1540</ele>
        <time>2021-08-11T08:31:52.385Z</time>
      </trkpt>
      <trkpt lat="46.88293" lon="8.54433">
        <ele>1539</ele>
        <time>2021-08-11T08:31:53.385Z</time>
      </trkpt>
      <trkpt lat="46.88294" lon="8.54433">
        <ele>1539</ele>
        <time>2021-08-11T08:31:54.384Z</time>
      </trkpt>
      <trkpt lat="46.88295" lon="8.54433">
        <ele>1539</ele>
        <time>2021-08-11T08:31:55.384Z</time>
      </trkpt>
      <trkpt lat="46.88295" lon="8.54433">
        <ele>1538</ele>
        <time>2021-08-11T08:31:56.385Z</time>
      </trkpt>
      <trkpt lat="46.88296" lon="8.54433">
        <ele>1538</ele>
        <time>2021-08-11T08:31:57.385Z</time>
      </trkpt>
      <trkpt lat="46.88296" lon="8.54433">
        <ele>1538</ele>
        <time>2021-08-11T08:31:58.385Z</time>
      </trkpt>
      <trkpt lat="46.88297" lon="8.54434">
        <ele>1538</ele>
        <time>2021-08-11T08:31:59.385Z</time>
      </trkpt>
      <trkpt lat="46.88297" lon="8.54434">
        <ele>1537</ele>
        <time>2021-08-11T08:32:00.384Z</time>
      </trkpt>
      <trkpt lat="46.88298" lon="8.54434">
        <ele>1537</ele>
        <time>2021-08-11T08:32:01.385Z</time>
      </trkpt>
      <trkpt lat="46.88298" lon="8.54434">
        <ele>1537</ele>
        <time>2021-08-11T08:32:02.385Z</time>
      </trkpt>
      <trkpt lat="46.88299" lon="8.54434">
        <ele>1537</ele>
        <time>2021-08-11T08:32:03.385Z</time>
      </trkpt>
      <trkpt lat="46.883" lon="8.54434">
        <ele>1536</ele>
        <time>2021-08-11T08:32:04.385Z</time>
      </trkpt>
      <trkpt lat="46.883" lon="8.54434">
        <ele>1536</ele>
        <time>2021-08-11T08:32:05.384Z</time>
      </trkpt>
      <trkpt lat="46.88301" lon="8.54434">
        <ele>1536</ele>
        <time>2021-08-11T08:32:06.384Z</time>
      </trkpt>
      <trkpt lat="46.88301" lon="8.54434">
        <ele>1536</ele>
        <time>2021-08-11T08:32:07.384Z</time>
      </trkpt>
      <trkpt lat="46.88302" lon="8.54434">
        <ele>1536</ele>
        <time>2021-08-11T08:32:08.384Z</time>
      </trkpt>
      <trkpt lat="46.88303" lon="8.54434">
        <ele>1536</ele>
        <time>2021-08-11T08:32:09.385Z</time>
      </trkpt>
      <trkpt lat="46.88303" lon="8.54434">
        <ele>1536</ele>
        <time>2021-08-11T08:32:10.385Z</time>
      </trkpt>
      <trkpt lat="46.88304" lon="8.54434">
        <ele>1536</ele>
        <time>2021-08-11T08:32:11.385Z</time>
      </trkpt>
      <trkpt lat="46.88305" lon="8.54435">
        <ele>1536</ele>
        <time>2021-08-11T08:32:12.385Z</time>
      </trkpt>
      <trkpt lat="46.88305" lon="8.54435">
        <ele>1537</ele>
        <time>2021-08-11T08:32:13.385Z</time>
      </trkpt>
      <trkpt lat="46.88306" lon="8.54435">
        <ele>1537</ele>
        <time>2021-08-11T08:32:14.385Z</time>
      </trkpt>
      <trkpt lat="46.88307" lon="8.54436">
        <ele>1537</ele>
        <time>2021-08-11T08:32:15.384Z</time>
      </trkpt>
      <trkpt lat="46.88307" lon="8.54436">
        <ele>1537</ele>
        <time>2021-08-11T08:32:16.385Z</time>
      </trkpt>
      <trkpt lat="46.88308" lon="8.54438">
        <ele>1537</ele>
        <time>2021-08-11T08:32:17.384Z</time>
      </trkpt>
      <trkpt lat="46.88309" lon="8.54439">
        <ele>1538</ele>
        <time>2021-08-11T08:32:18.385Z</time>
      </trkpt>
      <trkpt lat="46.8831" lon="8.5444">
        <ele>1538</ele>
        <time>2021-08-11T08:32:19.385Z</time>
      </trkpt>
      <trkpt lat="46.88311" lon="8.54441">
        <ele>1539</ele>
        <time>2021-08-11T08:32:20.385Z</time>
      </trkpt>
      <trkpt lat="46.88312" lon="8.54442">
        <ele>1539</ele>
        <time>2021-08-11T08:32:21.385Z</time>
      </trkpt>
      <trkpt lat="46.88313" lon="8.54443">
        <ele>1540</ele>
        <time>2021-08-11T08:32:22.385Z</time>
      </trkpt>
      <trkpt lat="46.88314" lon="8.54444">
        <ele>1540</ele>
        <time>2021-08-11T08:32:23.385Z</time>
      </trkpt>
      <trkpt lat="46.88315" lon="8.54445">
        <ele>1540</ele>
        <time>2021-08-11T08:32:24.385Z</time>
      </trkpt>
      <trkpt lat="46.88316" lon="8.54445">
        <ele>1540</ele>
        <time>2021-08-11T08:32:25.385Z</time>
      </trkpt>
      <trkpt lat="46.88316" lon="8.54447">
        <ele>1540</ele>
        <time>2021-08-11T08:32:26.385Z</time>
      </trkpt>
      <trkpt lat="46.88317" lon="8.54448">
        <ele>1540</ele>
        <time>2021-08-11T08:32:27.385Z</time>
      </trkpt>
      <trkpt lat="46.88319" lon="8.54449">
        <ele>1540</ele>
        <time>2021-08-11T08:32:28.384Z</time>
      </trkpt>
      <trkpt lat="46.8832" lon="8.54449">
        <ele>1540</ele>
        <time>2021-08-11T08:32:29.385Z</time>
      </trkpt>
      <trkpt lat="46.88321" lon="8.5445">
        <ele>1540</ele>
        <time>2021-08-11T08:32:30.384Z</time>
      </trkpt>
      <trkpt lat="46.88322" lon="8.54451">
        <ele>1540</ele>
        <time>2021-08-11T08:32:31.385Z</time>
      </trkpt>
      <trkpt lat="46.88323" lon="8.54451">
        <ele>1540</ele>
        <time>2021-08-11T08:32:32.385Z</time>
      </trkpt>
      <trkpt lat="46.88324" lon="8.54452">
        <ele>1540</ele>
        <time>2021-08-11T08:32:33.385Z</time>
      </trkpt>
      <trkpt lat="46.88325" lon="8.54453">
        <ele>1540</ele>
        <time>2021-08-11T08:32:34.385Z</time>
      </trkpt>
      <trkpt lat="46.88325" lon="8.54454">
        <ele>1540</ele>
        <time>2021-08-11T08:32:35.385Z</time>
      </trkpt>
      <trkpt lat="46.88326" lon="8.54455">
        <ele>1540</ele>
        <time>2021-08-11T08:32:36.385Z</time>
      </trkpt>
      <trkpt lat="46.88327" lon="8.54455">
        <ele>1540</ele>
        <time>2021-08-11T08:32:37.385Z</time>
      </trkpt>
      <trkpt lat="46.88328" lon="8.54456">
        <ele>1540</ele>
        <time>2021-08-11T08:32:38.385Z</time>
      </trkpt>
      <trkpt lat="46.88328" lon="8.54457">
        <ele>1540</ele>
        <time>2021-08-11T08:32:39.385Z</time>
      </trkpt>
      <trkpt lat="46.88329" lon="8.54457">
        <ele>1540</ele>
        <time>2021-08-11T08:32:40.384Z</time>
      </trkpt>
      <trkpt lat="46.8833" lon="8.54457">
        <ele>1539</ele>
        <time>2021-08-11T08:32:41.385Z</time>
      </trkpt>
      <trkpt lat="46.88331" lon="8.54457">
        <ele>1540</ele>
        <time>2021-08-11T08:32:42.384Z</time>
      </trkpt>
      <trkpt lat="46.88332" lon="8.54458">
        <ele>1540</ele>
        <time>2021-08-11T08:32:43.385Z</time>
      </trkpt>
      <trkpt lat="46.88333" lon="8.54458">
        <ele>1540</ele>
        <time>2021-08-11T08:32:44.385Z</time>
      </trkpt>
      <trkpt lat="46.88334" lon="8.54459">
        <ele>1540</ele>
        <time>2021-08-11T08:32:45.385Z</time>
      </trkpt>
      <trkpt lat="46.88334" lon="8.54459">
        <ele>1540</ele>
        <time>2021-08-11T08:32:46.385Z</time>
      </trkpt>
      <trkpt lat="46.88335" lon="8.54459">
        <ele>1540</ele>
        <time>2021-08-11T08:32:47.385Z</time>
      </trkpt>
      <trkpt lat="46.88335" lon="8.54459">
        <ele>1541</ele>
        <time>2021-08-11T08:32:48.385Z</time>
      </trkpt>
      <trkpt lat="46.88336" lon="8.5446">
        <ele>1541</ele>
        <time>2021-08-11T08:32:49.384Z</time>
      </trkpt>
      <trkpt lat="46.88337" lon="8.5446">
        <ele>1541</ele>
        <time>2021-08-11T08:32:50.384Z</time>
      </trkpt>
      <trkpt lat="46.88338" lon="8.54461">
        <ele>1541</ele>
        <time>2021-08-11T08:32:51.385Z</time>
      </trkpt>
      <trkpt lat="46.88339" lon="8.54461">
        <ele>1541</ele>
        <time>2021-08-11T08:32:52.385Z</time>
      </trkpt>
      <trkpt lat="46.88339" lon="8.54461">
        <ele>1542</ele>
        <time>2021-08-11T08:32:53.385Z</time>
      </trkpt>
      <trkpt lat="46.8834" lon="8.54461">
        <ele>1542</ele>
        <time>2021-08-11T08:32:54.385Z</time>
      </trkpt>
      <trkpt lat="46.8834" lon="8.54461">
        <ele>1541</ele>
        <time>2021-08-11T08:32:55.385Z</time>
      </trkpt>
      <trkpt lat="46.88341" lon="8.54461">
        <ele>1541</ele>
        <time>2021-08-11T08:32:56.385Z</time>
      </trkpt>
      <trkpt lat="46.88341" lon="8.54462">
        <ele>1541</ele>
        <time>2021-08-11T08:32:57.385Z</time>
      </trkpt>
      <trkpt lat="46.88342" lon="8.54462">
        <ele>1541</ele>
        <time>2021-08-11T08:32:58.384Z</time>
      </trkpt>
      <trkpt lat="46.88343" lon="8.54462">
        <ele>1541</ele>
        <time>2021-08-11T08:32:59.385Z</time>
      </trkpt>
      <trkpt lat="46.88344" lon="8.54462">
        <ele>1541</ele>
        <time>2021-08-11T08:33:00.385Z</time>
      </trkpt>
      <trkpt lat="46.88344" lon="8.54462">
        <ele>1542</ele>
        <time>2021-08-11T08:33:01.385Z</time>
      </trkpt>
      <trkpt lat="46.88345" lon="8.54462">
        <ele>1542</ele>
        <time>2021-08-11T08:33:02.385Z</time>
      </trkpt>
      <trkpt lat="46.88345" lon="8.54462">
        <ele>1542</ele>
        <time>2021-08-11T08:33:03.385Z</time>
      </trkpt>
      <trkpt lat="46.88346" lon="8.54462">
        <ele>1542</ele>
        <time>2021-08-11T08:33:04.385Z</time>
      </trkpt>
      <trkpt lat="46.88347" lon="8.54462">
        <ele>1542</ele>
        <time>2021-08-11T08:33:05.385Z</time>
      </trkpt>
      <trkpt lat="46.88348" lon="8.54462">
        <ele>1542</ele>
        <time>2021-08-11T08:33:06.385Z</time>
      </trkpt>
      <trkpt lat="46.88349" lon="8.54462">
        <ele>1543</ele>
        <time>2021-08-11T08:33:07.385Z</time>
      </trkpt>
      <trkpt lat="46.8835" lon="8.54462">
        <ele>1543</ele>
        <time>2021-08-11T08:33:08.384Z</time>
      </trkpt>
      <trkpt lat="46.88351" lon="8.54462">
        <ele>1544</ele>
        <time>2021-08-11T08:33:09.385Z</time>
      </trkpt>
      <trkpt lat="46.88352" lon="8.54463">
        <ele>1544</ele>
        <time>2021-08-11T08:33:10.385Z</time>
      </trkpt>
      <trkpt lat="46.88352" lon="8.54462">
        <ele>1544</ele>
        <time>2021-08-11T08:33:11.385Z</time>
      </trkpt>
      <trkpt lat="46.88353" lon="8.54463">
        <ele>1545</ele>
        <time>2021-08-11T08:33:12.384Z</time>
      </trkpt>
      <trkpt lat="46.88353" lon="8.54463">
        <ele>1545</ele>
        <time>2021-08-11T08:33:13.385Z</time>
      </trkpt>
      <trkpt lat="46.88354" lon="8.54463">
        <ele>1546</ele>
        <time>2021-08-11T08:33:14.385Z</time>
      </trkpt>
      <trkpt lat="46.88355" lon="8.54463">
        <ele>1546</ele>
        <time>2021-08-11T08:33:15.384Z</time>
      </trkpt>
      <trkpt lat="46.88356" lon="8.54463">
        <ele>1546</ele>
        <time>2021-08-11T08:33:16.384Z</time>
      </trkpt>
      <trkpt lat="46.88357" lon="8.54462">
        <ele>1547</ele>
        <time>2021-08-11T08:33:17.385Z</time>
      </trkpt>
      <trkpt lat="46.88357" lon="8.54462">
        <ele>1547</ele>
        <time>2021-08-11T08:33:18.385Z</time>
      </trkpt>
      <trkpt lat="46.88358" lon="8.54462">
        <ele>1547</ele>
        <time>2021-08-11T08:33:19.385Z</time>
      </trkpt>
      <trkpt lat="46.88359" lon="8.54462">
        <ele>1548</ele>
        <time>2021-08-11T08:33:20.385Z</time>
      </trkpt>
      <trkpt lat="46.88359" lon="8.54462">
        <ele>1548</ele>
        <time>2021-08-11T08:33:21.384Z</time>
      </trkpt>
      <trkpt lat="46.8836" lon="8.54462">
        <ele>1548</ele>
        <time>2021-08-11T08:33:22.385Z</time>
      </trkpt>
      <trkpt lat="46.8836" lon="8.54462">
        <ele>1548</ele>
        <time>2021-08-11T08:33:23.385Z</time>
      </trkpt>
      <trkpt lat="46.88361" lon="8.54461">
        <ele>1549</ele>
        <time>2021-08-11T08:33:24.385Z</time>
      </trkpt>
      <trkpt lat="46.88362" lon="8.54461">
        <ele>1549</ele>
        <time>2021-08-11T08:33:25.384Z</time>
      </trkpt>
      <trkpt lat="46.88363" lon="8.54461">
        <ele>1549</ele>
        <time>2021-08-11T08:33:26.385Z</time>
      </trkpt>
      <trkpt lat="46.88364" lon="8.54461">
        <ele>1549</ele>
        <time>2021-08-11T08:33:27.384Z</time>
      </trkpt>
      <trkpt lat="46.88364" lon="8.54461">
        <ele>1549</ele>
        <time>2021-08-11T08:33:28.385Z</time>
      </trkpt>
      <trkpt lat="46.88365" lon="8.54461">
        <ele>1550</ele>
        <time>2021-08-11T08:33:29.384Z</time>
      </trkpt>
      <trkpt lat="46.88366" lon="8.54461">
        <ele>1550</ele>
        <time>2021-08-11T08:33:30.384Z</time>
      </trkpt>
      <trkpt lat="46.88367" lon="8.54461">
        <ele>1550</ele>
        <time>2021-08-11T08:33:31.385Z</time>
      </trkpt>
      <trkpt lat="46.88367" lon="8.5446">
        <ele>1550</ele>
        <time>2021-08-11T08:33:32.385Z</time>
      </trkpt>
      <trkpt lat="46.88368" lon="8.5446">
        <ele>1550</ele>
        <time>2021-08-11T08:33:33.385Z</time>
      </trkpt>
      <trkpt lat="46.88368" lon="8.5446">
        <ele>1550</ele>
        <time>2021-08-11T08:33:34.384Z</time>
      </trkpt>
      <trkpt lat="46.88369" lon="8.54459">
        <ele>1549</ele>
        <time>2021-08-11T08:33:35.385Z</time>
      </trkpt>
      <trkpt lat="46.8837" lon="8.54459">
        <ele>1549</ele>
        <time>2021-08-11T08:33:36.385Z</time>
      </trkpt>
      <trkpt lat="46.8837" lon="8.54458">
        <ele>1549</ele>
        <time>2021-08-11T08:33:37.384Z</time>
      </trkpt>
      <trkpt lat="46.88371" lon="8.54458">
        <ele>1548</ele>
        <time>2021-08-11T08:33:38.385Z</time>
      </trkpt>
      <trkpt lat="46.88371" lon="8.54458">
        <ele>1548</ele>
        <time>2021-08-11T08:33:39.385Z</time>
      </trkpt>
      <trkpt lat="46.88372" lon="8.54457">
        <ele>1548</ele>
        <time>2021-08-11T08:33:40.384Z</time>
      </trkpt>
      <trkpt lat="46.88372" lon="8.54457">
        <ele>1548</ele>
        <time>2021-08-11T08:33:41.384Z</time>
      </trkpt>
      <trkpt lat="46.88373" lon="8.54456">
        <ele>1549</ele>
        <time>2021-08-11T08:33:42.385Z</time>
      </trkpt>
      <trkpt lat="46.88373" lon="8.54456">
        <ele>1549</ele>
        <time>2021-08-11T08:33:43.384Z</time>
      </trkpt>
      <trkpt lat="46.88374" lon="8.54455">
        <ele>1549</ele>
        <time>2021-08-11T08:33:44.385Z</time>
      </trkpt>
      <trkpt lat="46.88374" lon="8.54455">
        <ele>1550</ele>
        <time>2021-08-11T08:33:45.385Z</time>
      </trkpt>
      <trkpt lat="46.88375" lon="8.54454">
        <ele>1550</ele>
        <time>2021-08-11T08:33:46.385Z</time>
      </trkpt>
      <trkpt lat="46.88375" lon="8.54453">
        <ele>1551</ele>
        <time>2021-08-11T08:33:47.385Z</time>
      </trkpt>
      <trkpt lat="46.88375" lon="8.54452">
        <ele>1551</ele>
        <time>2021-08-11T08:33:48.385Z</time>
      </trkpt>
      <trkpt lat="46.88375" lon="8.54451">
        <ele>1551</ele>
        <time>2021-08-11T08:33:49.385Z</time>
      </trkpt>
      <trkpt lat="46.88375" lon="8.5445">
        <ele>1551</ele>
        <time>2021-08-11T08:33:50.385Z</time>
      </trkpt>
      <trkpt lat="46.88376" lon="8.54449">
        <ele>1551</ele>
        <time>2021-08-11T08:33:51.384Z</time>
      </trkpt>
      <trkpt lat="46.88376" lon="8.54448">
        <ele>1552</ele>
        <time>2021-08-11T08:33:52.385Z</time>
      </trkpt>
      <trkpt lat="46.88377" lon="8.54447">
        <ele>1552</ele>
        <time>2021-08-11T08:33:53.385Z</time>
      </trkpt>
      <trkpt lat="46.88377" lon="8.54446">
        <ele>1552</ele>
        <time>2021-08-11T08:33:54.385Z</time>
      </trkpt>
      <trkpt lat="46.88377" lon="8.54445">
        <ele>1552</ele>
        <time>2021-08-11T08:33:55.384Z</time>
      </trkpt>
      <trkpt lat="46.88376" lon="8.54444">
        <ele>1552</ele>
        <time>2021-08-11T08:33:56.385Z</time>
      </trkpt>
      <trkpt lat="46.88376" lon="8.54443">
        <ele>1552</ele>
        <time>2021-08-11T08:33:57.384Z</time>
      </trkpt>
      <trkpt lat="46.88376" lon="8.54442">
        <ele>1552</ele>
        <time>2021-08-11T08:33:58.385Z</time>
      </trkpt>
      <trkpt lat="46.88377" lon="8.54441">
        <ele>1552</ele>
        <time>2021-08-11T08:33:59.385Z</time>
      </trkpt>
      <trkpt lat="46.88377" lon="8.5444">
        <ele>1552</ele>
        <time>2021-08-11T08:34:00.385Z</time>
      </trkpt>
      <trkpt lat="46.88377" lon="8.54439">
        <ele>1553</ele>
        <time>2021-08-11T08:34:01.385Z</time>
      </trkpt>
      <trkpt lat="46.88377" lon="8.54438">
        <ele>1553</ele>
        <time>2021-08-11T08:34:02.384Z</time>
      </trkpt>
      <trkpt lat="46.88377" lon="8.54437">
        <ele>1554</ele>
        <time>2021-08-11T08:34:03.385Z</time>
      </trkpt>
      <trkpt lat="46.88378" lon="8.54436">
        <ele>1554</ele>
        <time>2021-08-11T08:34:04.385Z</time>
      </trkpt>
      <trkpt lat="46.88378" lon="8.54435">
        <ele>1554</ele>
        <time>2021-08-11T08:34:05.384Z</time>
      </trkpt>
      <trkpt lat="46.88379" lon="8.54434">
        <ele>1555</ele>
        <time>2021-08-11T08:34:06.385Z</time>
      </trkpt>
      <trkpt lat="46.88379" lon="8.54433">
        <ele>1555</ele>
        <time>2021-08-11T08:34:07.384Z</time>
      </trkpt>
      <trkpt lat="46.88379" lon="8.54432">
        <ele>1555</ele>
        <time>2021-08-11T08:34:08.385Z</time>
      </trkpt>
      <trkpt lat="46.88379" lon="8.54431">
        <ele>1555</ele>
        <time>2021-08-11T08:34:09.385Z</time>
      </trkpt>
      <trkpt lat="46.88379" lon="8.5443">
        <ele>1555</ele>
        <time>2021-08-11T08:34:10.385Z</time>
      </trkpt>
      <trkpt lat="46.88379" lon="8.54429">
        <ele>1555</ele>
        <time>2021-08-11T08:34:11.385Z</time>
      </trkpt>
      <trkpt lat="46.88379" lon="8.54428">
        <ele>1556</ele>
        <time>2021-08-11T08:34:12.384Z</time>
      </trkpt>
      <trkpt lat="46.88379" lon="8.54427">
        <ele>1556</ele>
        <time>2021-08-11T08:34:13.385Z</time>
      </trkpt>
      <trkpt lat="46.88378" lon="8.54427">
        <ele>1556</ele>
        <time>2021-08-11T08:34:14.385Z</time>
      </trkpt>
      <trkpt lat="46.88378" lon="8.54426">
        <ele>1556</ele>
        <time>2021-08-11T08:34:15.384Z</time>
      </trkpt>
      <trkpt lat="46.88378" lon="8.54425">
        <ele>1555</ele>
        <time>2021-08-11T08:34:16.385Z</time>
      </trkpt>
      <trkpt lat="46.88378" lon="8.54425">
        <ele>1555</ele>
        <time>2021-08-11T08:34:17.384Z</time>
      </trkpt>
      <trkpt lat="46.88377" lon="8.54424">
        <ele>1555</ele>
        <time>2021-08-11T08:34:18.385Z</time>
      </trkpt>
      <trkpt lat="46.88377" lon="8.54424">
        <ele>1555</ele>
        <time>2021-08-11T08:34:19.384Z</time>
      </trkpt>
      <trkpt lat="46.88378" lon="8.54423">
        <ele>1556</ele>
        <time>2021-08-11T08:34:20.385Z</time>
      </trkpt>
      <trkpt lat="46.88378" lon="8.54423">
        <ele>1556</ele>
        <time>2021-08-11T08:34:21.385Z</time>
      </trkpt>
      <trkpt lat="46.88378" lon="8.54422">
        <ele>1557</ele>
        <time>2021-08-11T08:34:22.385Z</time>
      </trkpt>
      <trkpt lat="46.88378" lon="8.54421">
        <ele>1557</ele>
        <time>2021-08-11T08:34:23.385Z</time>
      </trkpt>
      <trkpt lat="46.88378" lon="8.54421">
        <ele>1558</ele>
        <time>2021-08-11T08:34:24.385Z</time>
      </trkpt>
      <trkpt lat="46.88378" lon="8.54421">
        <ele>1558</ele>
        <time>2021-08-11T08:34:25.385Z</time>
      </trkpt>
      <trkpt lat="46.88379" lon="8.5442">
        <ele>1559</ele>
        <time>2021-08-11T08:34:26.384Z</time>
      </trkpt>
      <trkpt lat="46.8838" lon="8.54419">
        <ele>1559</ele>
        <time>2021-08-11T08:34:27.385Z</time>
      </trkpt>
      <trkpt lat="46.8838" lon="8.54418">
        <ele>1559</ele>
        <time>2021-08-11T08:34:28.384Z</time>
      </trkpt>
      <trkpt lat="46.8838" lon="8.54418">
        <ele>1559</ele>
        <time>2021-08-11T08:34:29.384Z</time>
      </trkpt>
      <trkpt lat="46.88381" lon="8.54417">
        <ele>1559</ele>
        <time>2021-08-11T08:34:30.385Z</time>
      </trkpt>
      <trkpt lat="46.88381" lon="8.54416">
        <ele>1559</ele>
        <time>2021-08-11T08:34:31.384Z</time>
      </trkpt>
      <trkpt lat="46.88381" lon="8.54415">
        <ele>1559</ele>
        <time>2021-08-11T08:34:32.385Z</time>
      </trkpt>
      <trkpt lat="46.88381" lon="8.54414">
        <ele>1559</ele>
        <time>2021-08-11T08:34:33.385Z</time>
      </trkpt>
      <trkpt lat="46.88381" lon="8.54413">
        <ele>1559</ele>
        <time>2021-08-11T08:34:34.385Z</time>
      </trkpt>
      <trkpt lat="46.88381" lon="8.54413">
        <ele>1559</ele>
        <time>2021-08-11T08:34:35.385Z</time>
      </trkpt>
      <trkpt lat="46.88382" lon="8.54412">
        <ele>1559</ele>
        <time>2021-08-11T08:34:36.384Z</time>
      </trkpt>
      <trkpt lat="46.88382" lon="8.54411">
        <ele>1559</ele>
        <time>2021-08-11T08:34:37.384Z</time>
      </trkpt>
      <trkpt lat="46.88382" lon="8.54411">
        <ele>1559</ele>
        <time>2021-08-11T08:34:38.385Z</time>
      </trkpt>
      <trkpt lat="46.88383" lon="8.5441">
        <ele>1560</ele>
        <time>2021-08-11T08:34:39.384Z</time>
      </trkpt>
      <trkpt lat="46.88383" lon="8.54409">
        <ele>1560</ele>
        <time>2021-08-11T08:34:40.385Z</time>
      </trkpt>
      <trkpt lat="46.88383" lon="8.54409">
        <ele>1560</ele>
        <time>2021-08-11T08:34:41.385Z</time>
      </trkpt>
      <trkpt lat="46.88383" lon="8.54408">
        <ele>1560</ele>
        <time>2021-08-11T08:34:42.385Z</time>
      </trkpt>
      <trkpt lat="46.88384" lon="8.54407">
        <ele>1561</ele>
        <time>2021-08-11T08:34:43.384Z</time>
      </trkpt>
      <trkpt lat="46.88385" lon="8.54406">
        <ele>1561</ele>
        <time>2021-08-11T08:34:44.384Z</time>
      </trkpt>
      <trkpt lat="46.88386" lon="8.54405">
        <ele>1561</ele>
        <time>2021-08-11T08:34:45.385Z</time>
      </trkpt>
      <trkpt lat="46.88387" lon="8.54405">
        <ele>1562</ele>
        <time>2021-08-11T08:34:46.385Z</time>
      </trkpt>
      <trkpt lat="46.88388" lon="8.54404">
        <ele>1562</ele>
        <time>2021-08-11T08:34:47.385Z</time>
      </trkpt>
      <trkpt lat="46.88388" lon="8.54404">
        <ele>1562</ele>
        <time>2021-08-11T08:34:48.385Z</time>
      </trkpt>
      <trkpt lat="46.88388" lon="8.54404">
        <ele>1562</ele>
        <time>2021-08-11T08:34:49.384Z</time>
      </trkpt>
      <trkpt lat="46.88388" lon="8.54403">
        <ele>1562</ele>
        <time>2021-08-11T08:34:50.385Z</time>
      </trkpt>
      <trkpt lat="46.88388" lon="8.54403">
        <ele>1562</ele>
        <time>2021-08-11T08:34:51.385Z</time>
      </trkpt>
      <trkpt lat="46.88389" lon="8.54402">
        <ele>1562</ele>
        <time>2021-08-11T08:34:52.385Z</time>
      </trkpt>
      <trkpt lat="46.88389" lon="8.54401">
        <ele>1563</ele>
        <time>2021-08-11T08:34:53.385Z</time>
      </trkpt>
      <trkpt lat="46.8839" lon="8.54401">
        <ele>1563</ele>
        <time>2021-08-11T08:34:54.385Z</time>
      </trkpt>
      <trkpt lat="46.8839" lon="8.544">
        <ele>1563</ele>
        <time>2021-08-11T08:34:55.385Z</time>
      </trkpt>
      <trkpt lat="46.8839" lon="8.544">
        <ele>1563</ele>
        <time>2021-08-11T08:34:56.384Z</time>
      </trkpt>
      <trkpt lat="46.8839" lon="8.544">
        <ele>1563</ele>
        <time>2021-08-11T08:34:57.385Z</time>
      </trkpt>
      <trkpt lat="46.8839" lon="8.54399">
        <ele>1563</ele>
        <time>2021-08-11T08:34:58.384Z</time>
      </trkpt>
      <trkpt lat="46.8839" lon="8.54399">
        <ele>1563</ele>
        <time>2021-08-11T08:34:59.384Z</time>
      </trkpt>
      <trkpt lat="46.88391" lon="8.54398">
        <ele>1563</ele>
        <time>2021-08-11T08:35:00.385Z</time>
      </trkpt>
      <trkpt lat="46.88391" lon="8.54397">
        <ele>1564</ele>
        <time>2021-08-11T08:35:01.385Z</time>
      </trkpt>
      <trkpt lat="46.88391" lon="8.54397">
        <ele>1564</ele>
        <time>2021-08-11T08:35:02.385Z</time>
      </trkpt>
      <trkpt lat="46.88391" lon="8.54396">
        <ele>1564</ele>
        <time>2021-08-11T08:35:03.384Z</time>
      </trkpt>
      <trkpt lat="46.88392" lon="8.54396">
        <ele>1564</ele>
        <time>2021-08-11T08:35:04.385Z</time>
      </trkpt>
      <trkpt lat="46.88392" lon="8.54395">
        <ele>1565</ele>
        <time>2021-08-11T08:35:05.385Z</time>
      </trkpt>
      <trkpt lat="46.88392" lon="8.54395">
        <ele>1566</ele>
        <time>2021-08-11T08:35:06.385Z</time>
      </trkpt>
      <trkpt lat="46.88393" lon="8.54394">
        <ele>1566</ele>
        <time>2021-08-11T08:35:07.385Z</time>
      </trkpt>
      <trkpt lat="46.88393" lon="8.54393">
        <ele>1567</ele>
        <time>2021-08-11T08:35:08.385Z</time>
      </trkpt>
      <trkpt lat="46.88394" lon="8.54393">
        <ele>1567</ele>
        <time>2021-08-11T08:35:09.385Z</time>
      </trkpt>
      <trkpt lat="46.88394" lon="8.54392">
        <ele>1567</ele>
        <time>2021-08-11T08:35:10.385Z</time>
      </trkpt>
      <trkpt lat="46.88394" lon="8.54391">
        <ele>1568</ele>
        <time>2021-08-11T08:35:11.385Z</time>
      </trkpt>
      <trkpt lat="46.88394" lon="8.54391">
        <ele>1568</ele>
        <time>2021-08-11T08:35:12.385Z</time>
      </trkpt>
      <trkpt lat="46.88394" lon="8.54391">
        <ele>1568</ele>
        <time>2021-08-11T08:35:13.385Z</time>
      </trkpt>
      <trkpt lat="46.88395" lon="8.54391">
        <ele>1569</ele>
        <time>2021-08-11T08:35:14.385Z</time>
      </trkpt>
      <trkpt lat="46.88395" lon="8.5439">
        <ele>1568</ele>
        <time>2021-08-11T08:35:15.384Z</time>
      </trkpt>
      <trkpt lat="46.88395" lon="8.5439">
        <ele>1568</ele>
        <time>2021-08-11T08:35:16.384Z</time>
      </trkpt>
      <trkpt lat="46.88395" lon="8.54389">
        <ele>1568</ele>
        <time>2021-08-11T08:35:17.384Z</time>
      </trkpt>
      <trkpt lat="46.88395" lon="8.54389">
        <ele>1568</ele>
        <time>2021-08-11T08:35:18.385Z</time>
      </trkpt>
      <trkpt lat="46.88394" lon="8.5439">
        <ele>1568</ele>
        <time>2021-08-11T08:35:19.385Z</time>
      </trkpt>
      <trkpt lat="46.88395" lon="8.54389">
        <ele>1569</ele>
        <time>2021-08-11T08:35:20.384Z</time>
      </trkpt>
      <trkpt lat="46.88395" lon="8.54389">
        <ele>1569</ele>
        <time>2021-08-11T08:35:21.385Z</time>
      </trkpt>
      <trkpt lat="46.88396" lon="8.54388">
        <ele>1569</ele>
        <time>2021-08-11T08:35:22.384Z</time>
      </trkpt>
      <trkpt lat="46.88396" lon="8.54387">
        <ele>1569</ele>
        <time>2021-08-11T08:35:23.384Z</time>
      </trkpt>
      <trkpt lat="46.88397" lon="8.54386">
        <ele>1569</ele>
        <time>2021-08-11T08:35:24.385Z</time>
      </trkpt>
      <trkpt lat="46.88397" lon="8.54386">
        <ele>1569</ele>
        <time>2021-08-11T08:35:25.384Z</time>
      </trkpt>
      <trkpt lat="46.88398" lon="8.54386">
        <ele>1569</ele>
        <time>2021-08-11T08:35:26.384Z</time>
      </trkpt>
      <trkpt lat="46.88398" lon="8.54386">
        <ele>1569</ele>
        <time>2021-08-11T08:35:27.385Z</time>
      </trkpt>
      <trkpt lat="46.88399" lon="8.54385">
        <ele>1570</ele>
        <time>2021-08-11T08:35:28.385Z</time>
      </trkpt>
      <trkpt lat="46.88399" lon="8.54384">
        <ele>1570</ele>
        <time>2021-08-11T08:35:29.384Z</time>
      </trkpt>
      <trkpt lat="46.884" lon="8.54384">
        <ele>1570</ele>
        <time>2021-08-11T08:35:30.385Z</time>
      </trkpt>
      <trkpt lat="46.884" lon="8.54383">
        <ele>1571</ele>
        <time>2021-08-11T08:35:31.384Z</time>
      </trkpt>
      <trkpt lat="46.88401" lon="8.54383">
        <ele>1571</ele>
        <time>2021-08-11T08:35:32.384Z</time>
      </trkpt>
      <trkpt lat="46.88401" lon="8.54383">
        <ele>1571</ele>
        <time>2021-08-11T08:35:33.384Z</time>
      </trkpt>
      <trkpt lat="46.88402" lon="8.54383">
        <ele>1572</ele>
        <time>2021-08-11T08:35:34.384Z</time>
      </trkpt>
      <trkpt lat="46.88402" lon="8.54383">
        <ele>1573</ele>
        <time>2021-08-11T08:35:35.385Z</time>
      </trkpt>
      <trkpt lat="46.88403" lon="8.54382">
        <ele>1573</ele>
        <time>2021-08-11T08:35:36.384Z</time>
      </trkpt>
      <trkpt lat="46.88403" lon="8.54382">
        <ele>1573</ele>
        <time>2021-08-11T08:35:37.384Z</time>
      </trkpt>
      <trkpt lat="46.88404" lon="8.54382">
        <ele>1574</ele>
        <time>2021-08-11T08:35:38.384Z</time>
      </trkpt>
      <trkpt lat="46.88404" lon="8.54381">
        <ele>1574</ele>
        <time>2021-08-11T08:35:39.384Z</time>
      </trkpt>
      <trkpt lat="46.88404" lon="8.54381">
        <ele>1574</ele>
        <time>2021-08-11T08:35:40.384Z</time>
      </trkpt>
      <trkpt lat="46.88405" lon="8.5438">
        <ele>1574</ele>
        <time>2021-08-11T08:35:41.384Z</time>
      </trkpt>
      <trkpt lat="46.88405" lon="8.54379">
        <ele>1575</ele>
        <time>2021-08-11T08:35:42.384Z</time>
      </trkpt>
      <trkpt lat="46.88406" lon="8.54379">
        <ele>1575</ele>
        <time>2021-08-11T08:35:43.384Z</time>
      </trkpt>
      <trkpt lat="46.88406" lon="8.54378">
        <ele>1575</ele>
        <time>2021-08-11T08:35:44.384Z</time>
      </trkpt>
      <trkpt lat="46.88407" lon="8.54378">
        <ele>1575</ele>
        <time>2021-08-11T08:35:45.384Z</time>
      </trkpt>
      <trkpt lat="46.88407" lon="8.54378">
        <ele>1575</ele>
        <time>2021-08-11T08:35:46.384Z</time>
      </trkpt>
      <trkpt lat="46.88407" lon="8.54377">
        <ele>1575</ele>
        <time>2021-08-11T08:35:47.384Z</time>
      </trkpt>
      <trkpt lat="46.88407" lon="8.54377">
        <ele>1575</ele>
        <time>2021-08-11T08:35:48.385Z</time>
      </trkpt>
      <trkpt lat="46.88407" lon="8.54377">
        <ele>1574</ele>
        <time>2021-08-11T08:35:49.385Z</time>
      </trkpt>
      <trkpt lat="46.88407" lon="8.54376">
        <ele>1574</ele>
        <time>2021-08-11T08:35:50.385Z</time>
      </trkpt>
      <trkpt lat="46.88407" lon="8.54376">
        <ele>1574</ele>
        <time>2021-08-11T08:35:51.385Z</time>
      </trkpt>
      <trkpt lat="46.88407" lon="8.54375">
        <ele>1574</ele>
        <time>2021-08-11T08:35:52.385Z</time>
      </trkpt>
      <trkpt lat="46.88407" lon="8.54374">
        <ele>1574</ele>
        <time>2021-08-11T08:35:53.385Z</time>
      </trkpt>
      <trkpt lat="46.88408" lon="8.54374">
        <ele>1574</ele>
        <time>2021-08-11T08:35:54.385Z</time>
      </trkpt>
      <trkpt lat="46.88408" lon="8.54374">
        <ele>1574</ele>
        <time>2021-08-11T08:35:55.385Z</time>
      </trkpt>
      <trkpt lat="46.88409" lon="8.54374">
        <ele>1574</ele>
        <time>2021-08-11T08:35:56.384Z</time>
      </trkpt>
      <trkpt lat="46.88409" lon="8.54373">
        <ele>1574</ele>
        <time>2021-08-11T08:35:57.385Z</time>
      </trkpt>
      <trkpt lat="46.88409" lon="8.54373">
        <ele>1574</ele>
        <time>2021-08-11T08:35:58.384Z</time>
      </trkpt>
      <trkpt lat="46.88409" lon="8.54373">
        <ele>1575</ele>
        <time>2021-08-11T08:35:59.386Z</time>
      </trkpt>
      <trkpt lat="46.88409" lon="8.54373">
        <ele>1576</ele>
        <time>2021-08-11T08:36:00.386Z</time>
      </trkpt>
      <trkpt lat="46.88409" lon="8.54373">
        <ele>1575</ele>
        <time>2021-08-11T08:36:01.385Z</time>
      </trkpt>
      <trkpt lat="46.8841" lon="8.54373">
        <ele>1575</ele>
        <time>2021-08-11T08:36:02.386Z</time>
      </trkpt>
      <trkpt lat="46.8841" lon="8.54373">
        <ele>1576</ele>
        <time>2021-08-11T08:36:03.386Z</time>
      </trkpt>
      <trkpt lat="46.8841" lon="8.54372">
        <ele>1576</ele>
        <time>2021-08-11T08:36:04.385Z</time>
      </trkpt>
      <trkpt lat="46.88407" lon="8.5437">
        <ele>1577</ele>
        <time>2021-08-11T08:36:05.386Z</time>
      </trkpt>
      <trkpt lat="46.88409" lon="8.54368">
        <ele>1577</ele>
        <time>2021-08-11T08:36:06.387Z</time>
      </trkpt>
      <trkpt lat="46.88408" lon="8.54368">
        <ele>1577</ele>
        <time>2021-08-11T08:36:07.386Z</time>
      </trkpt>
      <trkpt lat="46.88409" lon="8.54369">
        <ele>1576</ele>
        <time>2021-08-11T08:36:08.386Z</time>
      </trkpt>
      <trkpt lat="46.8841" lon="8.54368">
        <ele>1576</ele>
        <time>2021-08-11T08:36:09.387Z</time>
      </trkpt>
      <trkpt lat="46.88411" lon="8.54367">
        <ele>1576</ele>
        <time>2021-08-11T08:36:10.387Z</time>
      </trkpt>
      <trkpt lat="46.88412" lon="8.54366">
        <ele>1576</ele>
        <time>2021-08-11T08:36:11.386Z</time>
      </trkpt>
      <trkpt lat="46.88412" lon="8.54366">
        <ele>1576</ele>
        <time>2021-08-11T08:36:12.386Z</time>
      </trkpt>
      <trkpt lat="46.88413" lon="8.54365">
        <ele>1577</ele>
        <time>2021-08-11T08:36:13.386Z</time>
      </trkpt>
      <trkpt lat="46.88413" lon="8.54365">
        <ele>1577</ele>
        <time>2021-08-11T08:36:14.386Z</time>
      </trkpt>
      <trkpt lat="46.88414" lon="8.54364">
        <ele>1577</ele>
        <time>2021-08-11T08:36:15.386Z</time>
      </trkpt>
      <trkpt lat="46.88414" lon="8.54362">
        <ele>1580</ele>
        <time>2021-08-11T08:36:16.386Z</time>
      </trkpt>
      <trkpt lat="46.88415" lon="8.54362">
        <ele>1580</ele>
        <time>2021-08-11T08:36:17.386Z</time>
      </trkpt>
      <trkpt lat="46.88415" lon="8.54362">
        <ele>1579</ele>
        <time>2021-08-11T08:36:18.386Z</time>
      </trkpt>
      <trkpt lat="46.88416" lon="8.54361">
        <ele>1579</ele>
        <time>2021-08-11T08:36:19.386Z</time>
      </trkpt>
      <trkpt lat="46.88416" lon="8.54361">
        <ele>1579</ele>
        <time>2021-08-11T08:36:20.386Z</time>
      </trkpt>
      <trkpt lat="46.88417" lon="8.5436">
        <ele>1580</ele>
        <time>2021-08-11T08:36:21.387Z</time>
      </trkpt>
      <trkpt lat="46.88417" lon="8.54359">
        <ele>1580</ele>
        <time>2021-08-11T08:36:22.387Z</time>
      </trkpt>
      <trkpt lat="46.88417" lon="8.54359">
        <ele>1581</ele>
        <time>2021-08-11T08:36:23.386Z</time>
      </trkpt>
      <trkpt lat="46.88417" lon="8.54358">
        <ele>1581</ele>
        <time>2021-08-11T08:36:24.386Z</time>
      </trkpt>
      <trkpt lat="46.88418" lon="8.54357">
        <ele>1581</ele>
        <time>2021-08-11T08:36:25.386Z</time>
      </trkpt>
      <trkpt lat="46.88418" lon="8.54357">
        <ele>1582</ele>
        <time>2021-08-11T08:36:26.386Z</time>
      </trkpt>
      <trkpt lat="46.88418" lon="8.54356">
        <ele>1582</ele>
        <time>2021-08-11T08:36:27.387Z</time>
      </trkpt>
      <trkpt lat="46.88419" lon="8.54355">
        <ele>1582</ele>
        <time>2021-08-11T08:36:28.386Z</time>
      </trkpt>
      <trkpt lat="46.88419" lon="8.54355">
        <ele>1583</ele>
        <time>2021-08-11T08:36:29.386Z</time>
      </trkpt>
      <trkpt lat="46.88419" lon="8.54354">
        <ele>1583</ele>
        <time>2021-08-11T08:36:30.386Z</time>
      </trkpt>
      <trkpt lat="46.88419" lon="8.54353">
        <ele>1583</ele>
        <time>2021-08-11T08:36:31.387Z</time>
      </trkpt>
      <trkpt lat="46.8842" lon="8.54353">
        <ele>1583</ele>
        <time>2021-08-11T08:36:32.386Z</time>
      </trkpt>
      <trkpt lat="46.8842" lon="8.54352">
        <ele>1583</ele>
        <time>2021-08-11T08:36:33.387Z</time>
      </trkpt>
      <trkpt lat="46.8842" lon="8.54351">
        <ele>1583</ele>
        <time>2021-08-11T08:36:34.386Z</time>
      </trkpt>
      <trkpt lat="46.88421" lon="8.5435">
        <ele>1583</ele>
        <time>2021-08-11T08:36:35.386Z</time>
      </trkpt>
      <trkpt lat="46.88421" lon="8.5435">
        <ele>1583</ele>
        <time>2021-08-11T08:36:36.387Z</time>
      </trkpt>
      <trkpt lat="46.88421" lon="8.5435">
        <ele>1582</ele>
        <time>2021-08-11T08:36:37.387Z</time>
      </trkpt>
      <trkpt lat="46.88421" lon="8.5435">
        <ele>1582</ele>
        <time>2021-08-11T08:36:38.386Z</time>
      </trkpt>
      <trkpt lat="46.88421" lon="8.54349">
        <ele>1581</ele>
        <time>2021-08-11T08:36:39.387Z</time>
      </trkpt>
      <trkpt lat="46.88421" lon="8.54348">
        <ele>1581</ele>
        <time>2021-08-11T08:36:40.386Z</time>
      </trkpt>
      <trkpt lat="46.88422" lon="8.54348">
        <ele>1581</ele>
        <time>2021-08-11T08:36:41.386Z</time>
      </trkpt>
      <trkpt lat="46.88422" lon="8.54347">
        <ele>1581</ele>
        <time>2021-08-11T08:36:42.386Z</time>
      </trkpt>
      <trkpt lat="46.88422" lon="8.54347">
        <ele>1581</ele>
        <time>2021-08-11T08:36:43.386Z</time>
      </trkpt>
      <trkpt lat="46.88422" lon="8.54346">
        <ele>1581</ele>
        <time>2021-08-11T08:36:44.386Z</time>
      </trkpt>
      <trkpt lat="46.88422" lon="8.54346">
        <ele>1581</ele>
        <time>2021-08-11T08:36:45.386Z</time>
      </trkpt>
      <trkpt lat="46.88422" lon="8.54345">
        <ele>1581</ele>
        <time>2021-08-11T08:36:46.386Z</time>
      </trkpt>
      <trkpt lat="46.88422" lon="8.54345">
        <ele>1581</ele>
        <time>2021-08-11T08:36:47.386Z</time>
      </trkpt>
      <trkpt lat="46.88422" lon="8.54344">
        <ele>1581</ele>
        <time>2021-08-11T08:36:48.388Z</time>
      </trkpt>
      <trkpt lat="46.88422" lon="8.54343">
        <ele>1581</ele>
        <time>2021-08-11T08:36:49.387Z</time>
      </trkpt>
      <trkpt lat="46.88422" lon="8.54343">
        <ele>1580</ele>
        <time>2021-08-11T08:36:50.387Z</time>
      </trkpt>
      <trkpt lat="46.88422" lon="8.54342">
        <ele>1580</ele>
        <time>2021-08-11T08:36:51.387Z</time>
      </trkpt>
      <trkpt lat="46.88422" lon="8.54341">
        <ele>1580</ele>
        <time>2021-08-11T08:36:52.387Z</time>
      </trkpt>
      <trkpt lat="46.88423" lon="8.5434">
        <ele>1580</ele>
        <time>2021-08-11T08:36:53.387Z</time>
      </trkpt>
      <trkpt lat="46.88423" lon="8.5434">
        <ele>1580</ele>
        <time>2021-08-11T08:36:54.387Z</time>
      </trkpt>
      <trkpt lat="46.88423" lon="8.54339">
        <ele>1580</ele>
        <time>2021-08-11T08:36:55.388Z</time>
      </trkpt>
      <trkpt lat="46.88423" lon="8.54339">
        <ele>1580</ele>
        <time>2021-08-11T08:36:56.387Z</time>
      </trkpt>
      <trkpt lat="46.88424" lon="8.54339">
        <ele>1580</ele>
        <time>2021-08-11T08:36:57.387Z</time>
      </trkpt>
      <trkpt lat="46.88423" lon="8.54339">
        <ele>1580</ele>
        <time>2021-08-11T08:36:58.387Z</time>
      </trkpt>
      <trkpt lat="46.88423" lon="8.54338">
        <ele>1579</ele>
        <time>2021-08-11T08:36:59.387Z</time>
      </trkpt>
      <trkpt lat="46.88423" lon="8.54338">
        <ele>1579</ele>
        <time>2021-08-11T08:37:00.388Z</time>
      </trkpt>
      <trkpt lat="46.88424" lon="8.54337">
        <ele>1578</ele>
        <time>2021-08-11T08:37:01.387Z</time>
      </trkpt>
      <trkpt lat="46.88424" lon="8.54337">
        <ele>1578</ele>
        <time>2021-08-11T08:37:02.387Z</time>
      </trkpt>
      <trkpt lat="46.88423" lon="8.54336">
        <ele>1578</ele>
        <time>2021-08-11T08:37:03.387Z</time>
      </trkpt>
      <trkpt lat="46.88422" lon="8.54336">
        <ele>1577</ele>
        <time>2021-08-11T08:37:04.388Z</time>
      </trkpt>
      <trkpt lat="46.88423" lon="8.54336">
        <ele>1576</ele>
        <time>2021-08-11T08:37:05.387Z</time>
      </trkpt>
      <trkpt lat="46.88423" lon="8.54335">
        <ele>1576</ele>
        <time>2021-08-11T08:37:06.388Z</time>
      </trkpt>
      <trkpt lat="46.88424" lon="8.54335">
        <ele>1575</ele>
        <time>2021-08-11T08:37:07.387Z</time>
      </trkpt>
      <trkpt lat="46.88424" lon="8.54335">
        <ele>1575</ele>
        <time>2021-08-11T08:37:08.387Z</time>
      </trkpt>
      <trkpt lat="46.88425" lon="8.54333">
        <ele>1577</ele>
        <time>2021-08-11T08:37:09.387Z</time>
      </trkpt>
      <trkpt lat="46.88426" lon="8.54331">
        <ele>1579</ele>
        <time>2021-08-11T08:37:10.388Z</time>
      </trkpt>
      <trkpt lat="46.88427" lon="8.5433">
        <ele>1579</ele>
        <time>2021-08-11T08:37:11.388Z</time>
      </trkpt>
      <trkpt lat="46.88427" lon="8.5433">
        <ele>1579</ele>
        <time>2021-08-11T08:37:12.387Z</time>
      </trkpt>
      <trkpt lat="46.88427" lon="8.54329">
        <ele>1579</ele>
        <time>2021-08-11T08:37:13.388Z</time>
      </trkpt>
      <trkpt lat="46.88427" lon="8.54328">
        <ele>1579</ele>
        <time>2021-08-11T08:37:14.387Z</time>
      </trkpt>
      <trkpt lat="46.88427" lon="8.54328">
        <ele>1579</ele>
        <time>2021-08-11T08:37:15.388Z</time>
      </trkpt>
      <trkpt lat="46.88427" lon="8.54328">
        <ele>1580</ele>
        <time>2021-08-11T08:37:16.388Z</time>
      </trkpt>
      <trkpt lat="46.88426" lon="8.54326">
        <ele>1579</ele>
        <time>2021-08-11T08:37:17.389Z</time>
      </trkpt>
      <trkpt lat="46.88425" lon="8.54325">
        <ele>1579</ele>
        <time>2021-08-11T08:37:18.389Z</time>
      </trkpt>
      <trkpt lat="46.88425" lon="8.54325">
        <ele>1579</ele>
        <time>2021-08-11T08:37:19.388Z</time>
      </trkpt>
      <trkpt lat="46.88425" lon="8.54325">
        <ele>1579</ele>
        <time>2021-08-11T08:37:20.388Z</time>
      </trkpt>
      <trkpt lat="46.88425" lon="8.54324">
        <ele>1578</ele>
        <time>2021-08-11T08:37:21.389Z</time>
      </trkpt>
      <trkpt lat="46.88425" lon="8.54324">
        <ele>1578</ele>
        <time>2021-08-11T08:37:22.388Z</time>
      </trkpt>
      <trkpt lat="46.88426" lon="8.54324">
        <ele>1579</ele>
        <time>2021-08-11T08:37:23.389Z</time>
      </trkpt>
      <trkpt lat="46.88426" lon="8.54324">
        <ele>1579</ele>
        <time>2021-08-11T08:37:24.388Z</time>
      </trkpt>
      <trkpt lat="46.88428" lon="8.54322">
        <ele>1578</ele>
        <time>2021-08-11T08:37:25.390Z</time>
      </trkpt>
      <trkpt lat="46.88428" lon="8.54321">
        <ele>1578</ele>
        <time>2021-08-11T08:37:26.389Z</time>
      </trkpt>
      <trkpt lat="46.88427" lon="8.5432">
        <ele>1578</ele>
        <time>2021-08-11T08:37:27.389Z</time>
      </trkpt>
      <trkpt lat="46.88427" lon="8.54319">
        <ele>1577</ele>
        <time>2021-08-11T08:37:28.389Z</time>
      </trkpt>
      <trkpt lat="46.88427" lon="8.54318">
        <ele>1577</ele>
        <time>2021-08-11T08:37:29.390Z</time>
      </trkpt>
      <trkpt lat="46.88427" lon="8.54317">
        <ele>1577</ele>
        <time>2021-08-11T08:37:30.389Z</time>
      </trkpt>
      <trkpt lat="46.88427" lon="8.54316">
        <ele>1576</ele>
        <time>2021-08-11T08:37:31.390Z</time>
      </trkpt>
      <trkpt lat="46.88427" lon="8.54316">
        <ele>1576</ele>
        <time>2021-08-11T08:37:32.390Z</time>
      </trkpt>
      <trkpt lat="46.88427" lon="8.54316">
        <ele>1576</ele>
        <time>2021-08-11T08:37:33.390Z</time>
      </trkpt>
      <trkpt lat="46.88428" lon="8.54316">
        <ele>1577</ele>
        <time>2021-08-11T08:37:34.390Z</time>
      </trkpt>
      <trkpt lat="46.88428" lon="8.54316">
        <ele>1577</ele>
        <time>2021-08-11T08:37:35.391Z</time>
      </trkpt>
      <trkpt lat="46.88429" lon="8.54315">
        <ele>1577</ele>
        <time>2021-08-11T08:37:36.391Z</time>
      </trkpt>
      <trkpt lat="46.88429" lon="8.54315">
        <ele>1578</ele>
        <time>2021-08-11T08:37:37.390Z</time>
      </trkpt>
      <trkpt lat="46.88429" lon="8.54314">
        <ele>1577</ele>
        <time>2021-08-11T08:37:38.391Z</time>
      </trkpt>
      <trkpt lat="46.88429" lon="8.54312">
        <ele>1577</ele>
        <time>2021-08-11T08:37:39.391Z</time>
      </trkpt>
      <trkpt lat="46.88429" lon="8.54311">
        <ele>1578</ele>
        <time>2021-08-11T08:37:40.391Z</time>
      </trkpt>
      <trkpt lat="46.88429" lon="8.54311">
        <ele>1578</ele>
        <time>2021-08-11T08:37:41.390Z</time>
      </trkpt>
      <trkpt lat="46.88429" lon="8.5431">
        <ele>1578</ele>
        <time>2021-08-11T08:37:42.391Z</time>
      </trkpt>
      <trkpt lat="46.88429" lon="8.5431">
        <ele>1578</ele>
        <time>2021-08-11T08:37:43.391Z</time>
      </trkpt>
      <trkpt lat="46.88429" lon="8.54309">
        <ele>1578</ele>
        <time>2021-08-11T08:37:44.391Z</time>
      </trkpt>
      <trkpt lat="46.88429" lon="8.54308">
        <ele>1578</ele>
        <time>2021-08-11T08:37:45.390Z</time>
      </trkpt>
      <trkpt lat="46.88429" lon="8.54307">
        <ele>1578</ele>
        <time>2021-08-11T08:37:46.390Z</time>
      </trkpt>
      <trkpt lat="46.88428" lon="8.54307">
        <ele>1578</ele>
        <time>2021-08-11T08:37:47.391Z</time>
      </trkpt>
      <trkpt lat="46.88428" lon="8.54306">
        <ele>1578</ele>
        <time>2021-08-11T08:37:48.390Z</time>
      </trkpt>
      <trkpt lat="46.88429" lon="8.54306">
        <ele>1578</ele>
        <time>2021-08-11T08:37:49.391Z</time>
      </trkpt>
      <trkpt lat="46.88431" lon="8.54304">
        <ele>1581</ele>
        <time>2021-08-11T08:37:50.393Z</time>
      </trkpt>
      <trkpt lat="46.88431" lon="8.54303">
        <ele>1581</ele>
        <time>2021-08-11T08:37:51.392Z</time>
      </trkpt>
      <trkpt lat="46.88432" lon="8.543">
        <ele>1580</ele>
        <time>2021-08-11T08:37:52.393Z</time>
      </trkpt>
      <trkpt lat="46.88432" lon="8.543">
        <ele>1581</ele>
        <time>2021-08-11T08:37:53.392Z</time>
      </trkpt>
      <trkpt lat="46.88433" lon="8.54299">
        <ele>1582</ele>
        <time>2021-08-11T08:37:54.393Z</time>
      </trkpt>
      <trkpt lat="46.88433" lon="8.54299">
        <ele>1582</ele>
        <time>2021-08-11T08:37:55.393Z</time>
      </trkpt>
      <trkpt lat="46.88434" lon="8.54299">
        <ele>1582</ele>
        <time>2021-08-11T08:37:56.392Z</time>
      </trkpt>
      <trkpt lat="46.88434" lon="8.54298">
        <ele>1582</ele>
        <time>2021-08-11T08:37:57.393Z</time>
      </trkpt>
      <trkpt lat="46.88434" lon="8.54298">
        <ele>1582</ele>
        <time>2021-08-11T08:37:58.393Z</time>
      </trkpt>
      <trkpt lat="46.88435" lon="8.54297">
        <ele>1582</ele>
        <time>2021-08-11T08:37:59.393Z</time>
      </trkpt>
      <trkpt lat="46.88435" lon="8.54297">
        <ele>1583</ele>
        <time>2021-08-11T08:38:00.392Z</time>
      </trkpt>
      <trkpt lat="46.88436" lon="8.54296">
        <ele>1583</ele>
        <time>2021-08-11T08:38:01.393Z</time>
      </trkpt>
      <trkpt lat="46.88437" lon="8.54296">
        <ele>1584</ele>
        <time>2021-08-11T08:38:02.392Z</time>
      </trkpt>
      <trkpt lat="46.88437" lon="8.54296">
        <ele>1584</ele>
        <time>2021-08-11T08:38:03.393Z</time>
      </trkpt>
      <trkpt lat="46.88438" lon="8.54295">
        <ele>1584</ele>
        <time>2021-08-11T08:38:04.393Z</time>
      </trkpt>
      <trkpt lat="46.88438" lon="8.54295">
        <ele>1584</ele>
        <time>2021-08-11T08:38:05.393Z</time>
      </trkpt>
      <trkpt lat="46.88438" lon="8.54294">
        <ele>1584</ele>
        <time>2021-08-11T08:38:06.393Z</time>
      </trkpt>
      <trkpt lat="46.88438" lon="8.54294">
        <ele>1584</ele>
        <time>2021-08-11T08:38:07.393Z</time>
      </trkpt>
      <trkpt lat="46.88439" lon="8.54293">
        <ele>1584</ele>
        <time>2021-08-11T08:38:08.393Z</time>
      </trkpt>
      <trkpt lat="46.88439" lon="8.54293">
        <ele>1584</ele>
        <time>2021-08-11T08:38:09.393Z</time>
      </trkpt>
      <trkpt lat="46.88439" lon="8.54292">
        <ele>1584</ele>
        <time>2021-08-11T08:38:10.393Z</time>
      </trkpt>
      <trkpt lat="46.8844" lon="8.54291">
        <ele>1584</ele>
        <time>2021-08-11T08:38:11.392Z</time>
      </trkpt>
      <trkpt lat="46.8844" lon="8.54291">
        <ele>1584</ele>
        <time>2021-08-11T08:38:12.393Z</time>
      </trkpt>
      <trkpt lat="46.88441" lon="8.5429">
        <ele>1583</ele>
        <time>2021-08-11T08:38:13.392Z</time>
      </trkpt>
      <trkpt lat="46.88441" lon="8.54289">
        <ele>1583</ele>
        <time>2021-08-11T08:38:14.393Z</time>
      </trkpt>
      <trkpt lat="46.88441" lon="8.54289">
        <ele>1584</ele>
        <time>2021-08-11T08:38:15.392Z</time>
      </trkpt>
      <trkpt lat="46.88442" lon="8.54289">
        <ele>1584</ele>
        <time>2021-08-11T08:38:16.393Z</time>
      </trkpt>
      <trkpt lat="46.88442" lon="8.54288">
        <ele>1585</ele>
        <time>2021-08-11T08:38:17.393Z</time>
      </trkpt>
      <trkpt lat="46.88442" lon="8.54287">
        <ele>1585</ele>
        <time>2021-08-11T08:38:18.393Z</time>
      </trkpt>
      <trkpt lat="46.88442" lon="8.54287">
        <ele>1585</ele>
        <time>2021-08-11T08:38:19.393Z</time>
      </trkpt>
      <trkpt lat="46.88442" lon="8.54286">
        <ele>1585</ele>
        <time>2021-08-11T08:38:20.393Z</time>
      </trkpt>
      <trkpt lat="46.88443" lon="8.54286">
        <ele>1586</ele>
        <time>2021-08-11T08:38:21.393Z</time>
      </trkpt>
      <trkpt lat="46.88443" lon="8.54285">
        <ele>1586</ele>
        <time>2021-08-11T08:38:22.393Z</time>
      </trkpt>
      <trkpt lat="46.88444" lon="8.54285">
        <ele>1587</ele>
        <time>2021-08-11T08:38:23.393Z</time>
      </trkpt>
      <trkpt lat="46.88445" lon="8.54284">
        <ele>1587</ele>
        <time>2021-08-11T08:38:24.393Z</time>
      </trkpt>
      <trkpt lat="46.88445" lon="8.54283">
        <ele>1588</ele>
        <time>2021-08-11T08:38:25.393Z</time>
      </trkpt>
      <trkpt lat="46.88445" lon="8.54282">
        <ele>1589</ele>
        <time>2021-08-11T08:38:26.393Z</time>
      </trkpt>
      <trkpt lat="46.88446" lon="8.54281">
        <ele>1588</ele>
        <time>2021-08-11T08:38:27.392Z</time>
      </trkpt>
      <trkpt lat="46.88446" lon="8.5428">
        <ele>1588</ele>
        <time>2021-08-11T08:38:28.393Z</time>
      </trkpt>
      <trkpt lat="46.88446" lon="8.5428">
        <ele>1588</ele>
        <time>2021-08-11T08:38:29.393Z</time>
      </trkpt>
      <trkpt lat="46.88447" lon="8.54279">
        <ele>1588</ele>
        <time>2021-08-11T08:38:30.393Z</time>
      </trkpt>
      <trkpt lat="46.88448" lon="8.54279">
        <ele>1589</ele>
        <time>2021-08-11T08:38:31.392Z</time>
      </trkpt>
      <trkpt lat="46.88448" lon="8.54278">
        <ele>1589</ele>
        <time>2021-08-11T08:38:32.392Z</time>
      </trkpt>
      <trkpt lat="46.88448" lon="8.54278">
        <ele>1589</ele>
        <time>2021-08-11T08:38:33.393Z</time>
      </trkpt>
      <trkpt lat="46.88448" lon="8.54277">
        <ele>1589</ele>
        <time>2021-08-11T08:38:34.393Z</time>
      </trkpt>
      <trkpt lat="46.88448" lon="8.54277">
        <ele>1589</ele>
        <time>2021-08-11T08:38:35.393Z</time>
      </trkpt>
      <trkpt lat="46.88447" lon="8.54276">
        <ele>1588</ele>
        <time>2021-08-11T08:38:36.393Z</time>
      </trkpt>
      <trkpt lat="46.88447" lon="8.54275">
        <ele>1588</ele>
        <time>2021-08-11T08:38:37.392Z</time>
      </trkpt>
      <trkpt lat="46.88447" lon="8.54274">
        <ele>1588</ele>
        <time>2021-08-11T08:38:38.392Z</time>
      </trkpt>
      <trkpt lat="46.88447" lon="8.54273">
        <ele>1589</ele>
        <time>2021-08-11T08:38:39.392Z</time>
      </trkpt>
      <trkpt lat="46.88448" lon="8.54273">
        <ele>1588</ele>
        <time>2021-08-11T08:38:40.393Z</time>
      </trkpt>
      <trkpt lat="46.88448" lon="8.54272">
        <ele>1589</ele>
        <time>2021-08-11T08:38:41.393Z</time>
      </trkpt>
      <trkpt lat="46.88448" lon="8.54272">
        <ele>1589</ele>
        <time>2021-08-11T08:38:42.393Z</time>
      </trkpt>
      <trkpt lat="46.88449" lon="8.54272">
        <ele>1589</ele>
        <time>2021-08-11T08:38:43.392Z</time>
      </trkpt>
      <trkpt lat="46.8845" lon="8.54271">
        <ele>1589</ele>
        <time>2021-08-11T08:38:44.392Z</time>
      </trkpt>
      <trkpt lat="46.8845" lon="8.54271">
        <ele>1589</ele>
        <time>2021-08-11T08:38:45.392Z</time>
      </trkpt>
      <trkpt lat="46.8845" lon="8.5427">
        <ele>1589</ele>
        <time>2021-08-11T08:38:46.392Z</time>
      </trkpt>
      <trkpt lat="46.8845" lon="8.54269">
        <ele>1589</ele>
        <time>2021-08-11T08:38:47.392Z</time>
      </trkpt>
      <trkpt lat="46.8845" lon="8.54268">
        <ele>1590</ele>
        <time>2021-08-11T08:38:48.393Z</time>
      </trkpt>
      <trkpt lat="46.88451" lon="8.54268">
        <ele>1590</ele>
        <time>2021-08-11T08:38:49.393Z</time>
      </trkpt>
      <trkpt lat="46.88451" lon="8.54267">
        <ele>1591</ele>
        <time>2021-08-11T08:38:50.393Z</time>
      </trkpt>
      <trkpt lat="46.88453" lon="8.54266">
        <ele>1591</ele>
        <time>2021-08-11T08:38:51.393Z</time>
      </trkpt>
      <trkpt lat="46.88453" lon="8.54265">
        <ele>1592</ele>
        <time>2021-08-11T08:38:52.393Z</time>
      </trkpt>
      <trkpt lat="46.88453" lon="8.54265">
        <ele>1593</ele>
        <time>2021-08-11T08:38:53.393Z</time>
      </trkpt>
      <trkpt lat="46.88453" lon="8.54265">
        <ele>1594</ele>
        <time>2021-08-11T08:38:54.392Z</time>
      </trkpt>
      <trkpt lat="46.88453" lon="8.54264">
        <ele>1594</ele>
        <time>2021-08-11T08:38:55.393Z</time>
      </trkpt>
      <trkpt lat="46.88453" lon="8.54264">
        <ele>1594</ele>
        <time>2021-08-11T08:38:56.393Z</time>
      </trkpt>
      <trkpt lat="46.88453" lon="8.54263">
        <ele>1594</ele>
        <time>2021-08-11T08:38:57.393Z</time>
      </trkpt>
      <trkpt lat="46.88453" lon="8.54263">
        <ele>1594</ele>
        <time>2021-08-11T08:38:58.393Z</time>
      </trkpt>
      <trkpt lat="46.88453" lon="8.54262">
        <ele>1594</ele>
        <time>2021-08-11T08:38:59.393Z</time>
      </trkpt>
      <trkpt lat="46.88453" lon="8.54262">
        <ele>1594</ele>
        <time>2021-08-11T08:39:00.392Z</time>
      </trkpt>
      <trkpt lat="46.88453" lon="8.54261">
        <ele>1594</ele>
        <time>2021-08-11T08:39:01.393Z</time>
      </trkpt>
      <trkpt lat="46.88453" lon="8.54261">
        <ele>1594</ele>
        <time>2021-08-11T08:39:02.393Z</time>
      </trkpt>
      <trkpt lat="46.88453" lon="8.54261">
        <ele>1594</ele>
        <time>2021-08-11T08:39:03.393Z</time>
      </trkpt>
      <trkpt lat="46.88453" lon="8.5426">
        <ele>1593</ele>
        <time>2021-08-11T08:39:04.394Z</time>
      </trkpt>
      <trkpt lat="46.88453" lon="8.54259">
        <ele>1593</ele>
        <time>2021-08-11T08:39:05.394Z</time>
      </trkpt>
      <trkpt lat="46.88452" lon="8.54258">
        <ele>1593</ele>
        <time>2021-08-11T08:39:06.394Z</time>
      </trkpt>
      <trkpt lat="46.88451" lon="8.54258">
        <ele>1594</ele>
        <time>2021-08-11T08:39:07.393Z</time>
      </trkpt>
      <trkpt lat="46.88452" lon="8.54257">
        <ele>1594</ele>
        <time>2021-08-11T08:39:08.394Z</time>
      </trkpt>
      <trkpt lat="46.88452" lon="8.54256">
        <ele>1594</ele>
        <time>2021-08-11T08:39:09.393Z</time>
      </trkpt>
      <trkpt lat="46.88453" lon="8.54256">
        <ele>1594</ele>
        <time>2021-08-11T08:39:10.394Z</time>
      </trkpt>
      <trkpt lat="46.88454" lon="8.54255">
        <ele>1595</ele>
        <time>2021-08-11T08:39:11.393Z</time>
      </trkpt>
      <trkpt lat="46.88454" lon="8.54254">
        <ele>1595</ele>
        <time>2021-08-11T08:39:12.394Z</time>
      </trkpt>
      <trkpt lat="46.88454" lon="8.54254">
        <ele>1595</ele>
        <time>2021-08-11T08:39:13.394Z</time>
      </trkpt>
      <trkpt lat="46.88454" lon="8.54254">
        <ele>1595</ele>
        <time>2021-08-11T08:39:14.394Z</time>
      </trkpt>
      <trkpt lat="46.88454" lon="8.54253">
        <ele>1595</ele>
        <time>2021-08-11T08:39:15.394Z</time>
      </trkpt>
      <trkpt lat="46.88454" lon="8.54253">
        <ele>1595</ele>
        <time>2021-08-11T08:39:16.393Z</time>
      </trkpt>
      <trkpt lat="46.88454" lon="8.54253">
        <ele>1595</ele>
        <time>2021-08-11T08:39:17.394Z</time>
      </trkpt>
      <trkpt lat="46.88454" lon="8.54252">
        <ele>1595</ele>
        <time>2021-08-11T08:39:18.394Z</time>
      </trkpt>
      <trkpt lat="46.88455" lon="8.54252">
        <ele>1595</ele>
        <time>2021-08-11T08:39:19.394Z</time>
      </trkpt>
      <trkpt lat="46.88455" lon="8.54251">
        <ele>1595</ele>
        <time>2021-08-11T08:39:20.393Z</time>
      </trkpt>
      <trkpt lat="46.88455" lon="8.5425">
        <ele>1595</ele>
        <time>2021-08-11T08:39:21.394Z</time>
      </trkpt>
      <trkpt lat="46.88455" lon="8.5425">
        <ele>1596</ele>
        <time>2021-08-11T08:39:22.394Z</time>
      </trkpt>
      <trkpt lat="46.88455" lon="8.54249">
        <ele>1596</ele>
        <time>2021-08-11T08:39:23.394Z</time>
      </trkpt>
      <trkpt lat="46.88455" lon="8.54249">
        <ele>1596</ele>
        <time>2021-08-11T08:39:24.394Z</time>
      </trkpt>
      <trkpt lat="46.88455" lon="8.54248">
        <ele>1597</ele>
        <time>2021-08-11T08:39:25.394Z</time>
      </trkpt>
      <trkpt lat="46.88456" lon="8.54248">
        <ele>1596</ele>
        <time>2021-08-11T08:39:26.393Z</time>
      </trkpt>
      <trkpt lat="46.88456" lon="8.54247">
        <ele>1597</ele>
        <time>2021-08-11T08:39:27.394Z</time>
      </trkpt>
      <trkpt lat="46.88456" lon="8.54247">
        <ele>1597</ele>
        <time>2021-08-11T08:39:28.394Z</time>
      </trkpt>
      <trkpt lat="46.88457" lon="8.54246">
        <ele>1597</ele>
        <time>2021-08-11T08:39:29.394Z</time>
      </trkpt>
      <trkpt lat="46.88458" lon="8.54245">
        <ele>1598</ele>
        <time>2021-08-11T08:39:30.394Z</time>
      </trkpt>
      <trkpt lat="46.88458" lon="8.54245">
        <ele>1598</ele>
        <time>2021-08-11T08:39:31.393Z</time>
      </trkpt>
      <trkpt lat="46.88459" lon="8.54244">
        <ele>1598</ele>
        <time>2021-08-11T08:39:32.394Z</time>
      </trkpt>
      <trkpt lat="46.88459" lon="8.54244">
        <ele>1599</ele>
        <time>2021-08-11T08:39:33.394Z</time>
      </trkpt>
      <trkpt lat="46.88459" lon="8.54243">
        <ele>1599</ele>
        <time>2021-08-11T08:39:34.394Z</time>
      </trkpt>
      <trkpt lat="46.8846" lon="8.54242">
        <ele>1600</ele>
        <time>2021-08-11T08:39:35.394Z</time>
      </trkpt>
      <trkpt lat="46.88461" lon="8.54242">
        <ele>1600</ele>
        <time>2021-08-11T08:39:36.393Z</time>
      </trkpt>
      <trkpt lat="46.88461" lon="8.54242">
        <ele>1600</ele>
        <time>2021-08-11T08:39:37.394Z</time>
      </trkpt>
      <trkpt lat="46.88462" lon="8.54241">
        <ele>1600</ele>
        <time>2021-08-11T08:39:38.394Z</time>
      </trkpt>
      <trkpt lat="46.88462" lon="8.5424">
        <ele>1600</ele>
        <time>2021-08-11T08:39:39.394Z</time>
      </trkpt>
      <trkpt lat="46.88463" lon="8.5424">
        <ele>1600</ele>
        <time>2021-08-11T08:39:40.393Z</time>
      </trkpt>
      <trkpt lat="46.88464" lon="8.54239">
        <ele>1601</ele>
        <time>2021-08-11T08:39:41.394Z</time>
      </trkpt>
      <trkpt lat="46.88463" lon="8.54239">
        <ele>1601</ele>
        <time>2021-08-11T08:39:42.394Z</time>
      </trkpt>
      <trkpt lat="46.88463" lon="8.54238">
        <ele>1601</ele>
        <time>2021-08-11T08:39:43.394Z</time>
      </trkpt>
      <trkpt lat="46.88464" lon="8.54237">
        <ele>1601</ele>
        <time>2021-08-11T08:39:44.394Z</time>
      </trkpt>
      <trkpt lat="46.88464" lon="8.54237">
        <ele>1601</ele>
        <time>2021-08-11T08:39:45.393Z</time>
      </trkpt>
      <trkpt lat="46.88464" lon="8.54236">
        <ele>1601</ele>
        <time>2021-08-11T08:39:46.394Z</time>
      </trkpt>
      <trkpt lat="46.88464" lon="8.54235">
        <ele>1601</ele>
        <time>2021-08-11T08:39:47.394Z</time>
      </trkpt>
      <trkpt lat="46.88464" lon="8.54234">
        <ele>1601</ele>
        <time>2021-08-11T08:39:48.394Z</time>
      </trkpt>
      <trkpt lat="46.88464" lon="8.54233">
        <ele>1601</ele>
        <time>2021-08-11T08:39:49.393Z</time>
      </trkpt>
      <trkpt lat="46.88464" lon="8.54233">
        <ele>1601</ele>
        <time>2021-08-11T08:39:50.393Z</time>
      </trkpt>
      <trkpt lat="46.88464" lon="8.54232">
        <ele>1601</ele>
        <time>2021-08-11T08:39:51.393Z</time>
      </trkpt>
      <trkpt lat="46.88464" lon="8.54233">
        <ele>1601</ele>
        <time>2021-08-11T08:39:52.393Z</time>
      </trkpt>
      <trkpt lat="46.88462" lon="8.54231">
        <ele>1598</ele>
        <time>2021-08-11T08:39:53.395Z</time>
      </trkpt>
      <trkpt lat="46.88462" lon="8.5423">
        <ele>1598</ele>
        <time>2021-08-11T08:39:54.395Z</time>
      </trkpt>
      <trkpt lat="46.88462" lon="8.54229">
        <ele>1598</ele>
        <time>2021-08-11T08:39:55.394Z</time>
      </trkpt>
      <trkpt lat="46.88462" lon="8.54229">
        <ele>1598</ele>
        <time>2021-08-11T08:39:56.395Z</time>
      </trkpt>
      <trkpt lat="46.88462" lon="8.54228">
        <ele>1598</ele>
        <time>2021-08-11T08:39:57.395Z</time>
      </trkpt>
      <trkpt lat="46.88461" lon="8.54228">
        <ele>1598</ele>
        <time>2021-08-11T08:39:58.395Z</time>
      </trkpt>
      <trkpt lat="46.88461" lon="8.54227">
        <ele>1598</ele>
        <time>2021-08-11T08:39:59.395Z</time>
      </trkpt>
      <trkpt lat="46.88461" lon="8.54227">
        <ele>1598</ele>
        <time>2021-08-11T08:40:00.394Z</time>
      </trkpt>
      <trkpt lat="46.88461" lon="8.54226">
        <ele>1599</ele>
        <time>2021-08-11T08:40:01.395Z</time>
      </trkpt>
      <trkpt lat="46.88461" lon="8.54225">
        <ele>1600</ele>
        <time>2021-08-11T08:40:02.395Z</time>
      </trkpt>
      <trkpt lat="46.88461" lon="8.54225">
        <ele>1600</ele>
        <time>2021-08-11T08:40:03.396Z</time>
      </trkpt>
      <trkpt lat="46.8846" lon="8.54224">
        <ele>1600</ele>
        <time>2021-08-11T08:40:04.395Z</time>
      </trkpt>
      <trkpt lat="46.8846" lon="8.54224">
        <ele>1600</ele>
        <time>2021-08-11T08:40:05.395Z</time>
      </trkpt>
      <trkpt lat="46.8846" lon="8.54223">
        <ele>1600</ele>
        <time>2021-08-11T08:40:06.395Z</time>
      </trkpt>
      <trkpt lat="46.8846" lon="8.54223">
        <ele>1600</ele>
        <time>2021-08-11T08:40:07.396Z</time>
      </trkpt>
      <trkpt lat="46.8846" lon="8.54223">
        <ele>1601</ele>
        <time>2021-08-11T08:40:08.396Z</time>
      </trkpt>
      <trkpt lat="46.8846" lon="8.54222">
        <ele>1601</ele>
        <time>2021-08-11T08:40:09.395Z</time>
      </trkpt>
      <trkpt lat="46.8846" lon="8.54221">
        <ele>1601</ele>
        <time>2021-08-11T08:40:10.396Z</time>
      </trkpt>
      <trkpt lat="46.8846" lon="8.5422">
        <ele>1601</ele>
        <time>2021-08-11T08:40:11.395Z</time>
      </trkpt>
      <trkpt lat="46.8846" lon="8.5422">
        <ele>1601</ele>
        <time>2021-08-11T08:40:12.395Z</time>
      </trkpt>
      <trkpt lat="46.8846" lon="8.54219">
        <ele>1601</ele>
        <time>2021-08-11T08:40:13.395Z</time>
      </trkpt>
      <trkpt lat="46.8846" lon="8.54218">
        <ele>1601</ele>
        <time>2021-08-11T08:40:14.395Z</time>
      </trkpt>
      <trkpt lat="46.8846" lon="8.54218">
        <ele>1601</ele>
        <time>2021-08-11T08:40:15.395Z</time>
      </trkpt>
      <trkpt lat="46.88459" lon="8.54217">
        <ele>1601</ele>
        <time>2021-08-11T08:40:16.395Z</time>
      </trkpt>
      <trkpt lat="46.88459" lon="8.54216">
        <ele>1601</ele>
        <time>2021-08-11T08:40:17.396Z</time>
      </trkpt>
      <trkpt lat="46.88459" lon="8.54216">
        <ele>1601</ele>
        <time>2021-08-11T08:40:18.396Z</time>
      </trkpt>
      <trkpt lat="46.88458" lon="8.54215">
        <ele>1601</ele>
        <time>2021-08-11T08:40:19.396Z</time>
      </trkpt>
      <trkpt lat="46.88458" lon="8.54215">
        <ele>1601</ele>
        <time>2021-08-11T08:40:20.395Z</time>
      </trkpt>
      <trkpt lat="46.88457" lon="8.54215">
        <ele>1601</ele>
        <time>2021-08-11T08:40:21.396Z</time>
      </trkpt>
      <trkpt lat="46.88457" lon="8.54214">
        <ele>1602</ele>
        <time>2021-08-11T08:40:22.395Z</time>
      </trkpt>
      <trkpt lat="46.88457" lon="8.54214">
        <ele>1603</ele>
        <time>2021-08-11T08:40:23.396Z</time>
      </trkpt>
      <trkpt lat="46.88457" lon="8.54213">
        <ele>1603</ele>
        <time>2021-08-11T08:40:24.396Z</time>
      </trkpt>
      <trkpt lat="46.88457" lon="8.54212">
        <ele>1604</ele>
        <time>2021-08-11T08:40:25.395Z</time>
      </trkpt>
      <trkpt lat="46.88458" lon="8.54212">
        <ele>1604</ele>
        <time>2021-08-11T08:40:26.395Z</time>
      </trkpt>
      <trkpt lat="46.88458" lon="8.54211">
        <ele>1605</ele>
        <time>2021-08-11T08:40:27.395Z</time>
      </trkpt>
      <trkpt lat="46.88458" lon="8.5421">
        <ele>1605</ele>
        <time>2021-08-11T08:40:28.395Z</time>
      </trkpt>
      <trkpt lat="46.88458" lon="8.5421">
        <ele>1606</ele>
        <time>2021-08-11T08:40:29.395Z</time>
      </trkpt>
      <trkpt lat="46.88458" lon="8.5421">
        <ele>1606</ele>
        <time>2021-08-11T08:40:30.395Z</time>
      </trkpt>
      <trkpt lat="46.88458" lon="8.54209">
        <ele>1606</ele>
        <time>2021-08-11T08:40:31.396Z</time>
      </trkpt>
      <trkpt lat="46.88458" lon="8.54209">
        <ele>1606</ele>
        <time>2021-08-11T08:40:32.396Z</time>
      </trkpt>
      <trkpt lat="46.88457" lon="8.54208">
        <ele>1606</ele>
        <time>2021-08-11T08:40:33.396Z</time>
      </trkpt>
      <trkpt lat="46.88456" lon="8.54207">
        <ele>1606</ele>
        <time>2021-08-11T08:40:34.395Z</time>
      </trkpt>
      <trkpt lat="46.88456" lon="8.54207">
        <ele>1607</ele>
        <time>2021-08-11T08:40:35.395Z</time>
      </trkpt>
      <trkpt lat="46.88456" lon="8.54206">
        <ele>1607</ele>
        <time>2021-08-11T08:40:36.396Z</time>
      </trkpt>
      <trkpt lat="46.88456" lon="8.54206">
        <ele>1607</ele>
        <time>2021-08-11T08:40:37.395Z</time>
      </trkpt>
      <trkpt lat="46.88457" lon="8.54205">
        <ele>1607</ele>
        <time>2021-08-11T08:40:38.396Z</time>
      </trkpt>
      <trkpt lat="46.88457" lon="8.54205">
        <ele>1608</ele>
        <time>2021-08-11T08:40:39.395Z</time>
      </trkpt>
      <trkpt lat="46.88456" lon="8.54204">
        <ele>1608</ele>
        <time>2021-08-11T08:40:40.396Z</time>
      </trkpt>
      <trkpt lat="46.88456" lon="8.54204">
        <ele>1608</ele>
        <time>2021-08-11T08:40:41.395Z</time>
      </trkpt>
      <trkpt lat="46.88456" lon="8.54203">
        <ele>1608</ele>
        <time>2021-08-11T08:40:42.395Z</time>
      </trkpt>
      <trkpt lat="46.88455" lon="8.54203">
        <ele>1609</ele>
        <time>2021-08-11T08:40:43.396Z</time>
      </trkpt>
      <trkpt lat="46.88454" lon="8.54202">
        <ele>1609</ele>
        <time>2021-08-11T08:40:44.395Z</time>
      </trkpt>
      <trkpt lat="46.88454" lon="8.54202">
        <ele>1609</ele>
        <time>2021-08-11T08:40:45.395Z</time>
      </trkpt>
      <trkpt lat="46.88454" lon="8.54201">
        <ele>1609</ele>
        <time>2021-08-11T08:40:46.395Z</time>
      </trkpt>
      <trkpt lat="46.88454" lon="8.54201">
        <ele>1610</ele>
        <time>2021-08-11T08:40:47.396Z</time>
      </trkpt>
      <trkpt lat="46.88453" lon="8.54201">
        <ele>1610</ele>
        <time>2021-08-11T08:40:48.396Z</time>
      </trkpt>
      <trkpt lat="46.88453" lon="8.542">
        <ele>1610</ele>
        <time>2021-08-11T08:40:49.396Z</time>
      </trkpt>
      <trkpt lat="46.88453" lon="8.542">
        <ele>1611</ele>
        <time>2021-08-11T08:40:50.395Z</time>
      </trkpt>
      <trkpt lat="46.88452" lon="8.54199">
        <ele>1611</ele>
        <time>2021-08-11T08:40:51.395Z</time>
      </trkpt>
      <trkpt lat="46.88451" lon="8.54198">
        <ele>1611</ele>
        <time>2021-08-11T08:40:52.395Z</time>
      </trkpt>
      <trkpt lat="46.88451" lon="8.54197">
        <ele>1611</ele>
        <time>2021-08-11T08:40:53.396Z</time>
      </trkpt>
      <trkpt lat="46.8845" lon="8.54196">
        <ele>1611</ele>
        <time>2021-08-11T08:40:54.396Z</time>
      </trkpt>
      <trkpt lat="46.8845" lon="8.54196">
        <ele>1611</ele>
        <time>2021-08-11T08:40:55.396Z</time>
      </trkpt>
      <trkpt lat="46.8845" lon="8.54195">
        <ele>1611</ele>
        <time>2021-08-11T08:40:56.396Z</time>
      </trkpt>
      <trkpt lat="46.88449" lon="8.54195">
        <ele>1611</ele>
        <time>2021-08-11T08:40:57.396Z</time>
      </trkpt>
      <trkpt lat="46.88449" lon="8.54194">
        <ele>1611</ele>
        <time>2021-08-11T08:40:58.395Z</time>
      </trkpt>
      <trkpt lat="46.88447" lon="8.54193">
        <ele>1611</ele>
        <time>2021-08-11T08:40:59.396Z</time>
      </trkpt>
      <trkpt lat="46.88447" lon="8.54193">
        <ele>1611</ele>
        <time>2021-08-11T08:41:00.396Z</time>
      </trkpt>
      <trkpt lat="46.88447" lon="8.54193">
        <ele>1611</ele>
        <time>2021-08-11T08:41:01.396Z</time>
      </trkpt>
      <trkpt lat="46.88447" lon="8.54193">
        <ele>1611</ele>
        <time>2021-08-11T08:41:02.395Z</time>
      </trkpt>
      <trkpt lat="46.88446" lon="8.54192">
        <ele>1611</ele>
        <time>2021-08-11T08:41:03.395Z</time>
      </trkpt>
      <trkpt lat="46.88445" lon="8.54191">
        <ele>1611</ele>
        <time>2021-08-11T08:41:04.395Z</time>
      </trkpt>
      <trkpt lat="46.88445" lon="8.54191">
        <ele>1611</ele>
        <time>2021-08-11T08:41:05.396Z</time>
      </trkpt>
      <trkpt lat="46.88444" lon="8.5419">
        <ele>1611</ele>
        <time>2021-08-11T08:41:06.395Z</time>
      </trkpt>
      <trkpt lat="46.88444" lon="8.5419">
        <ele>1610</ele>
        <time>2021-08-11T08:41:07.396Z</time>
      </trkpt>
      <trkpt lat="46.88444" lon="8.54189">
        <ele>1610</ele>
        <time>2021-08-11T08:41:08.396Z</time>
      </trkpt>
      <trkpt lat="46.88443" lon="8.54189">
        <ele>1610</ele>
        <time>2021-08-11T08:41:09.396Z</time>
      </trkpt>
      <trkpt lat="46.88443" lon="8.54189">
        <ele>1610</ele>
        <time>2021-08-11T08:41:10.396Z</time>
      </trkpt>
      <trkpt lat="46.88442" lon="8.54188">
        <ele>1610</ele>
        <time>2021-08-11T08:41:11.395Z</time>
      </trkpt>
      <trkpt lat="46.88442" lon="8.54188">
        <ele>1610</ele>
        <time>2021-08-11T08:41:12.396Z</time>
      </trkpt>
      <trkpt lat="46.88441" lon="8.54187">
        <ele>1610</ele>
        <time>2021-08-11T08:41:13.396Z</time>
      </trkpt>
      <trkpt lat="46.88441" lon="8.54187">
        <ele>1610</ele>
        <time>2021-08-11T08:41:14.396Z</time>
      </trkpt>
      <trkpt lat="46.88441" lon="8.54187">
        <ele>1610</ele>
        <time>2021-08-11T08:41:15.395Z</time>
      </trkpt>
      <trkpt lat="46.88441" lon="8.54186">
        <ele>1611</ele>
        <time>2021-08-11T08:41:16.396Z</time>
      </trkpt>
      <trkpt lat="46.8844" lon="8.54185">
        <ele>1611</ele>
        <time>2021-08-11T08:41:17.395Z</time>
      </trkpt>
      <trkpt lat="46.88439" lon="8.54184">
        <ele>1611</ele>
        <time>2021-08-11T08:41:18.396Z</time>
      </trkpt>
      <trkpt lat="46.88439" lon="8.54184">
        <ele>1612</ele>
        <time>2021-08-11T08:41:19.396Z</time>
      </trkpt>
      <trkpt lat="46.88439" lon="8.54183">
        <ele>1612</ele>
        <time>2021-08-11T08:41:20.396Z</time>
      </trkpt>
      <trkpt lat="46.88439" lon="8.54183">
        <ele>1612</ele>
        <time>2021-08-11T08:41:21.395Z</time>
      </trkpt>
      <trkpt lat="46.88438" lon="8.54183">
        <ele>1613</ele>
        <time>2021-08-11T08:41:22.395Z</time>
      </trkpt>
      <trkpt lat="46.88438" lon="8.54182">
        <ele>1613</ele>
        <time>2021-08-11T08:41:23.395Z</time>
      </trkpt>
      <trkpt lat="46.88437" lon="8.54182">
        <ele>1612</ele>
        <time>2021-08-11T08:41:24.396Z</time>
      </trkpt>
      <trkpt lat="46.88437" lon="8.54181">
        <ele>1612</ele>
        <time>2021-08-11T08:41:25.396Z</time>
      </trkpt>
      <trkpt lat="46.88436" lon="8.5418">
        <ele>1612</ele>
        <time>2021-08-11T08:41:26.396Z</time>
      </trkpt>
      <trkpt lat="46.88436" lon="8.5418">
        <ele>1612</ele>
        <time>2021-08-11T08:41:27.396Z</time>
      </trkpt>
      <trkpt lat="46.88435" lon="8.54179">
        <ele>1613</ele>
        <time>2021-08-11T08:41:28.395Z</time>
      </trkpt>
      <trkpt lat="46.88435" lon="8.54179">
        <ele>1613</ele>
        <time>2021-08-11T08:41:29.396Z</time>
      </trkpt>
      <trkpt lat="46.88434" lon="8.54179">
        <ele>1613</ele>
        <time>2021-08-11T08:41:30.395Z</time>
      </trkpt>
      <trkpt lat="46.88435" lon="8.54178">
        <ele>1613</ele>
        <time>2021-08-11T08:41:31.396Z</time>
      </trkpt>
      <trkpt lat="46.88434" lon="8.54178">
        <ele>1613</ele>
        <time>2021-08-11T08:41:32.395Z</time>
      </trkpt>
      <trkpt lat="46.88434" lon="8.54177">
        <ele>1613</ele>
        <time>2021-08-11T08:41:33.396Z</time>
      </trkpt>
      <trkpt lat="46.88433" lon="8.54176">
        <ele>1614</ele>
        <time>2021-08-11T08:41:34.396Z</time>
      </trkpt>
      <trkpt lat="46.88433" lon="8.54176">
        <ele>1614</ele>
        <time>2021-08-11T08:41:35.395Z</time>
      </trkpt>
      <trkpt lat="46.88433" lon="8.54175">
        <ele>1615</ele>
        <time>2021-08-11T08:41:36.395Z</time>
      </trkpt>
      <trkpt lat="46.88432" lon="8.54175">
        <ele>1615</ele>
        <time>2021-08-11T08:41:37.395Z</time>
      </trkpt>
      <trkpt lat="46.88432" lon="8.54175">
        <ele>1615</ele>
        <time>2021-08-11T08:41:38.396Z</time>
      </trkpt>
      <trkpt lat="46.88432" lon="8.54174">
        <ele>1615</ele>
        <time>2021-08-11T08:41:39.396Z</time>
      </trkpt>
      <trkpt lat="46.88431" lon="8.54173">
        <ele>1616</ele>
        <time>2021-08-11T08:41:40.396Z</time>
      </trkpt>
      <trkpt lat="46.88431" lon="8.54173">
        <ele>1616</ele>
        <time>2021-08-11T08:41:41.396Z</time>
      </trkpt>
      <trkpt lat="46.88431" lon="8.54173">
        <ele>1616</ele>
        <time>2021-08-11T08:41:42.397Z</time>
      </trkpt>
      <trkpt lat="46.8843" lon="8.54172">
        <ele>1616</ele>
        <time>2021-08-11T08:41:43.397Z</time>
      </trkpt>
      <trkpt lat="46.8843" lon="8.54171">
        <ele>1617</ele>
        <time>2021-08-11T08:41:44.397Z</time>
      </trkpt>
      <trkpt lat="46.88429" lon="8.54171">
        <ele>1616</ele>
        <time>2021-08-11T08:41:45.397Z</time>
      </trkpt>
      <trkpt lat="46.88429" lon="8.54171">
        <ele>1616</ele>
        <time>2021-08-11T08:41:46.397Z</time>
      </trkpt>
      <trkpt lat="46.88429" lon="8.54171">
        <ele>1616</ele>
        <time>2021-08-11T08:41:47.396Z</time>
      </trkpt>
      <trkpt lat="46.88429" lon="8.54171">
        <ele>1616</ele>
        <time>2021-08-11T08:41:48.397Z</time>
      </trkpt>
      <trkpt lat="46.88428" lon="8.5417">
        <ele>1615</ele>
        <time>2021-08-11T08:41:49.396Z</time>
      </trkpt>
      <trkpt lat="46.88428" lon="8.5417">
        <ele>1615</ele>
        <time>2021-08-11T08:41:50.397Z</time>
      </trkpt>
      <trkpt lat="46.88428" lon="8.5417">
        <ele>1615</ele>
        <time>2021-08-11T08:41:51.397Z</time>
      </trkpt>
      <trkpt lat="46.88427" lon="8.54169">
        <ele>1615</ele>
        <time>2021-08-11T08:41:52.397Z</time>
      </trkpt>
      <trkpt lat="46.88426" lon="8.54168">
        <ele>1616</ele>
        <time>2021-08-11T08:41:53.396Z</time>
      </trkpt>
      <trkpt lat="46.88426" lon="8.54168">
        <ele>1616</ele>
        <time>2021-08-11T08:41:54.397Z</time>
      </trkpt>
      <trkpt lat="46.88425" lon="8.54167">
        <ele>1616</ele>
        <time>2021-08-11T08:41:55.397Z</time>
      </trkpt>
      <trkpt lat="46.88425" lon="8.54167">
        <ele>1616</ele>
        <time>2021-08-11T08:41:56.396Z</time>
      </trkpt>
      <trkpt lat="46.88424" lon="8.54166">
        <ele>1617</ele>
        <time>2021-08-11T08:41:57.396Z</time>
      </trkpt>
      <trkpt lat="46.88423" lon="8.54166">
        <ele>1617</ele>
        <time>2021-08-11T08:41:58.397Z</time>
      </trkpt>
      <trkpt lat="46.88423" lon="8.54165">
        <ele>1617</ele>
        <time>2021-08-11T08:41:59.397Z</time>
      </trkpt>
      <trkpt lat="46.88423" lon="8.54165">
        <ele>1618</ele>
        <time>2021-08-11T08:42:00.396Z</time>
      </trkpt>
      <trkpt lat="46.88422" lon="8.54165">
        <ele>1617</ele>
        <time>2021-08-11T08:42:01.396Z</time>
      </trkpt>
      <trkpt lat="46.88422" lon="8.54164">
        <ele>1616</ele>
        <time>2021-08-11T08:42:02.396Z</time>
      </trkpt>
      <trkpt lat="46.88422" lon="8.54165">
        <ele>1616</ele>
        <time>2021-08-11T08:42:03.396Z</time>
      </trkpt>
      <trkpt lat="46.88421" lon="8.54164">
        <ele>1615</ele>
        <time>2021-08-11T08:42:04.396Z</time>
      </trkpt>
      <trkpt lat="46.88421" lon="8.54163">
        <ele>1615</ele>
        <time>2021-08-11T08:42:05.396Z</time>
      </trkpt>
      <trkpt lat="46.8842" lon="8.54163">
        <ele>1615</ele>
        <time>2021-08-11T08:42:06.396Z</time>
      </trkpt>
      <trkpt lat="46.88419" lon="8.54162">
        <ele>1616</ele>
        <time>2021-08-11T08:42:07.397Z</time>
      </trkpt>
      <trkpt lat="46.88419" lon="8.54162">
        <ele>1616</ele>
        <time>2021-08-11T08:42:08.396Z</time>
      </trkpt>
      <trkpt lat="46.88418" lon="8.54162">
        <ele>1616</ele>
        <time>2021-08-11T08:42:09.397Z</time>
      </trkpt>
      <trkpt lat="46.88418" lon="8.54161">
        <ele>1617</ele>
        <time>2021-08-11T08:42:10.396Z</time>
      </trkpt>
      <trkpt lat="46.88417" lon="8.54161">
        <ele>1617</ele>
        <time>2021-08-11T08:42:11.397Z</time>
      </trkpt>
      <trkpt lat="46.88417" lon="8.54161">
        <ele>1617</ele>
        <time>2021-08-11T08:42:12.397Z</time>
      </trkpt>
      <trkpt lat="46.88417" lon="8.5416">
        <ele>1618</ele>
        <time>2021-08-11T08:42:13.396Z</time>
      </trkpt>
      <trkpt lat="46.88416" lon="8.5416">
        <ele>1618</ele>
        <time>2021-08-11T08:42:14.396Z</time>
      </trkpt>
      <trkpt lat="46.88416" lon="8.54159">
        <ele>1618</ele>
        <time>2021-08-11T08:42:15.397Z</time>
      </trkpt>
      <trkpt lat="46.88415" lon="8.54159">
        <ele>1619</ele>
        <time>2021-08-11T08:42:16.397Z</time>
      </trkpt>
      <trkpt lat="46.88415" lon="8.54159">
        <ele>1619</ele>
        <time>2021-08-11T08:42:17.397Z</time>
      </trkpt>
      <trkpt lat="46.88414" lon="8.54158">
        <ele>1620</ele>
        <time>2021-08-11T08:42:18.397Z</time>
      </trkpt>
      <trkpt lat="46.88414" lon="8.54158">
        <ele>1620</ele>
        <time>2021-08-11T08:42:19.397Z</time>
      </trkpt>
      <trkpt lat="46.88413" lon="8.54157">
        <ele>1620</ele>
        <time>2021-08-11T08:42:20.396Z</time>
      </trkpt>
      <trkpt lat="46.88412" lon="8.54156">
        <ele>1620</ele>
        <time>2021-08-11T08:42:21.397Z</time>
      </trkpt>
      <trkpt lat="46.88412" lon="8.54156">
        <ele>1620</ele>
        <time>2021-08-11T08:42:22.396Z</time>
      </trkpt>
      <trkpt lat="46.88412" lon="8.54155">
        <ele>1621</ele>
        <time>2021-08-11T08:42:23.396Z</time>
      </trkpt>
      <trkpt lat="46.88411" lon="8.54155">
        <ele>1621</ele>
        <time>2021-08-11T08:42:24.396Z</time>
      </trkpt>
      <trkpt lat="46.88411" lon="8.54154">
        <ele>1622</ele>
        <time>2021-08-11T08:42:25.396Z</time>
      </trkpt>
      <trkpt lat="46.88412" lon="8.54154">
        <ele>1623</ele>
        <time>2021-08-11T08:42:26.396Z</time>
      </trkpt>
      <trkpt lat="46.88411" lon="8.54154">
        <ele>1623</ele>
        <time>2021-08-11T08:42:27.396Z</time>
      </trkpt>
      <trkpt lat="46.88411" lon="8.54153">
        <ele>1624</ele>
        <time>2021-08-11T08:42:28.396Z</time>
      </trkpt>
      <trkpt lat="46.8841" lon="8.54152">
        <ele>1624</ele>
        <time>2021-08-11T08:42:29.396Z</time>
      </trkpt>
      <trkpt lat="46.8841" lon="8.54151">
        <ele>1625</ele>
        <time>2021-08-11T08:42:30.396Z</time>
      </trkpt>
      <trkpt lat="46.88409" lon="8.54151">
        <ele>1625</ele>
        <time>2021-08-11T08:42:31.397Z</time>
      </trkpt>
      <trkpt lat="46.88409" lon="8.54151">
        <ele>1626</ele>
        <time>2021-08-11T08:42:32.396Z</time>
      </trkpt>
      <trkpt lat="46.88408" lon="8.5415">
        <ele>1626</ele>
        <time>2021-08-11T08:42:33.396Z</time>
      </trkpt>
      <trkpt lat="46.88408" lon="8.5415">
        <ele>1626</ele>
        <time>2021-08-11T08:42:34.396Z</time>
      </trkpt>
      <trkpt lat="46.88408" lon="8.5415">
        <ele>1626</ele>
        <time>2021-08-11T08:42:35.396Z</time>
      </trkpt>
      <trkpt lat="46.88407" lon="8.54149">
        <ele>1626</ele>
        <time>2021-08-11T08:42:36.396Z</time>
      </trkpt>
      <trkpt lat="46.88407" lon="8.54149">
        <ele>1626</ele>
        <time>2021-08-11T08:42:37.396Z</time>
      </trkpt>
      <trkpt lat="46.88407" lon="8.54148">
        <ele>1625</ele>
        <time>2021-08-11T08:42:38.396Z</time>
      </trkpt>
      <trkpt lat="46.88406" lon="8.54148">
        <ele>1625</ele>
        <time>2021-08-11T08:42:39.397Z</time>
      </trkpt>
      <trkpt lat="46.88406" lon="8.54147">
        <ele>1625</ele>
        <time>2021-08-11T08:42:40.397Z</time>
      </trkpt>
      <trkpt lat="46.88405" lon="8.54147">
        <ele>1624</ele>
        <time>2021-08-11T08:42:41.397Z</time>
      </trkpt>
      <trkpt lat="46.88404" lon="8.54146">
        <ele>1624</ele>
        <time>2021-08-11T08:42:42.397Z</time>
      </trkpt>
      <trkpt lat="46.88404" lon="8.54146">
        <ele>1623</ele>
        <time>2021-08-11T08:42:43.396Z</time>
      </trkpt>
      <trkpt lat="46.88404" lon="8.54145">
        <ele>1623</ele>
        <time>2021-08-11T08:42:44.396Z</time>
      </trkpt>
      <trkpt lat="46.88403" lon="8.54144">
        <ele>1623</ele>
        <time>2021-08-11T08:42:45.396Z</time>
      </trkpt>
      <trkpt lat="46.88402" lon="8.54144">
        <ele>1623</ele>
        <time>2021-08-11T08:42:46.397Z</time>
      </trkpt>
      <trkpt lat="46.88402" lon="8.54144">
        <ele>1623</ele>
        <time>2021-08-11T08:42:47.397Z</time>
      </trkpt>
      <trkpt lat="46.88402" lon="8.54144">
        <ele>1623</ele>
        <time>2021-08-11T08:42:48.397Z</time>
      </trkpt>
      <trkpt lat="46.88402" lon="8.54144">
        <ele>1623</ele>
        <time>2021-08-11T08:42:49.396Z</time>
      </trkpt>
      <trkpt lat="46.88401" lon="8.54143">
        <ele>1624</ele>
        <time>2021-08-11T08:42:50.396Z</time>
      </trkpt>
      <trkpt lat="46.88401" lon="8.54143">
        <ele>1625</ele>
        <time>2021-08-11T08:42:51.397Z</time>
      </trkpt>
      <trkpt lat="46.884" lon="8.54143">
        <ele>1625</ele>
        <time>2021-08-11T08:42:52.397Z</time>
      </trkpt>
      <trkpt lat="46.884" lon="8.54142">
        <ele>1625</ele>
        <time>2021-08-11T08:42:53.396Z</time>
      </trkpt>
      <trkpt lat="46.88399" lon="8.54142">
        <ele>1625</ele>
        <time>2021-08-11T08:42:54.397Z</time>
      </trkpt>
      <trkpt lat="46.88399" lon="8.54142">
        <ele>1625</ele>
        <time>2021-08-11T08:42:55.396Z</time>
      </trkpt>
      <trkpt lat="46.88398" lon="8.54141">
        <ele>1626</ele>
        <time>2021-08-11T08:42:56.397Z</time>
      </trkpt>
      <trkpt lat="46.88398" lon="8.5414">
        <ele>1627</ele>
        <time>2021-08-11T08:42:57.397Z</time>
      </trkpt>
      <trkpt lat="46.88397" lon="8.5414">
        <ele>1627</ele>
        <time>2021-08-11T08:42:58.396Z</time>
      </trkpt>
      <trkpt lat="46.88397" lon="8.54139">
        <ele>1627</ele>
        <time>2021-08-11T08:42:59.396Z</time>
      </trkpt>
      <trkpt lat="46.88396" lon="8.54138">
        <ele>1627</ele>
        <time>2021-08-11T08:43:00.396Z</time>
      </trkpt>
      <trkpt lat="46.88396" lon="8.54138">
        <ele>1627</ele>
        <time>2021-08-11T08:43:01.397Z</time>
      </trkpt>
      <trkpt lat="46.88395" lon="8.54138">
        <ele>1627</ele>
        <time>2021-08-11T08:43:02.396Z</time>
      </trkpt>
      <trkpt lat="46.88395" lon="8.54137">
        <ele>1627</ele>
        <time>2021-08-11T08:43:03.397Z</time>
      </trkpt>
      <trkpt lat="46.88395" lon="8.54137">
        <ele>1627</ele>
        <time>2021-08-11T08:43:04.397Z</time>
      </trkpt>
      <trkpt lat="46.88394" lon="8.54137">
        <ele>1627</ele>
        <time>2021-08-11T08:43:05.396Z</time>
      </trkpt>
      <trkpt lat="46.88394" lon="8.54137">
        <ele>1628</ele>
        <time>2021-08-11T08:43:06.396Z</time>
      </trkpt>
      <trkpt lat="46.88394" lon="8.54137">
        <ele>1628</ele>
        <time>2021-08-11T08:43:07.396Z</time>
      </trkpt>
      <trkpt lat="46.88394" lon="8.54137">
        <ele>1628</ele>
        <time>2021-08-11T08:43:08.396Z</time>
      </trkpt>
      <trkpt lat="46.88393" lon="8.54137">
        <ele>1628</ele>
        <time>2021-08-11T08:43:09.396Z</time>
      </trkpt>
      <trkpt lat="46.88393" lon="8.54137">
        <ele>1628</ele>
        <time>2021-08-11T08:43:10.396Z</time>
      </trkpt>
      <trkpt lat="46.88392" lon="8.54137">
        <ele>1628</ele>
        <time>2021-08-11T08:43:11.396Z</time>
      </trkpt>
      <trkpt lat="46.88392" lon="8.54136">
        <ele>1628</ele>
        <time>2021-08-11T08:43:12.396Z</time>
      </trkpt>
      <trkpt lat="46.88392" lon="8.54136">
        <ele>1628</ele>
        <time>2021-08-11T08:43:13.396Z</time>
      </trkpt>
      <trkpt lat="46.88392" lon="8.54136">
        <ele>1627</ele>
        <time>2021-08-11T08:43:14.396Z</time>
      </trkpt>
      <trkpt lat="46.88391" lon="8.54136">
        <ele>1627</ele>
        <time>2021-08-11T08:43:15.396Z</time>
      </trkpt>
      <trkpt lat="46.8839" lon="8.54135">
        <ele>1627</ele>
        <time>2021-08-11T08:43:16.396Z</time>
      </trkpt>
      <trkpt lat="46.8839" lon="8.54135">
        <ele>1627</ele>
        <time>2021-08-11T08:43:17.396Z</time>
      </trkpt>
      <trkpt lat="46.88389" lon="8.54135">
        <ele>1627</ele>
        <time>2021-08-11T08:43:18.396Z</time>
      </trkpt>
      <trkpt lat="46.88388" lon="8.54134">
        <ele>1626</ele>
        <time>2021-08-11T08:43:19.396Z</time>
      </trkpt>
      <trkpt lat="46.88388" lon="8.54134">
        <ele>1626</ele>
        <time>2021-08-11T08:43:20.397Z</time>
      </trkpt>
      <trkpt lat="46.88388" lon="8.54134">
        <ele>1626</ele>
        <time>2021-08-11T08:43:21.396Z</time>
      </trkpt>
      <trkpt lat="46.88388" lon="8.54134">
        <ele>1626</ele>
        <time>2021-08-11T08:43:22.397Z</time>
      </trkpt>
      <trkpt lat="46.88387" lon="8.54134">
        <ele>1626</ele>
        <time>2021-08-11T08:43:23.396Z</time>
      </trkpt>
      <trkpt lat="46.88387" lon="8.54133">
        <ele>1625</ele>
        <time>2021-08-11T08:43:24.396Z</time>
      </trkpt>
      <trkpt lat="46.88386" lon="8.54133">
        <ele>1625</ele>
        <time>2021-08-11T08:43:25.396Z</time>
      </trkpt>
      <trkpt lat="46.88386" lon="8.54133">
        <ele>1625</ele>
        <time>2021-08-11T08:43:26.396Z</time>
      </trkpt>
      <trkpt lat="46.88385" lon="8.54132">
        <ele>1630</ele>
        <time>2021-08-11T08:43:27.397Z</time>
      </trkpt>
      <trkpt lat="46.88385" lon="8.54131">
        <ele>1630</ele>
        <time>2021-08-11T08:43:28.396Z</time>
      </trkpt>
      <trkpt lat="46.88385" lon="8.54131">
        <ele>1631</ele>
        <time>2021-08-11T08:43:29.396Z</time>
      </trkpt>
      <trkpt lat="46.88385" lon="8.54131">
        <ele>1631</ele>
        <time>2021-08-11T08:43:30.396Z</time>
      </trkpt>
      <trkpt lat="46.88386" lon="8.54131">
        <ele>1631</ele>
        <time>2021-08-11T08:43:31.396Z</time>
      </trkpt>
      <trkpt lat="46.88386" lon="8.54131">
        <ele>1631</ele>
        <time>2021-08-11T08:43:32.397Z</time>
      </trkpt>
      <trkpt lat="46.88387" lon="8.5413">
        <ele>1631</ele>
        <time>2021-08-11T08:43:33.396Z</time>
      </trkpt>
      <trkpt lat="46.88387" lon="8.5413">
        <ele>1631</ele>
        <time>2021-08-11T08:43:34.396Z</time>
      </trkpt>
      <trkpt lat="46.88387" lon="8.54129">
        <ele>1631</ele>
        <time>2021-08-11T08:43:35.396Z</time>
      </trkpt>
      <trkpt lat="46.88387" lon="8.54129">
        <ele>1631</ele>
        <time>2021-08-11T08:43:36.396Z</time>
      </trkpt>
      <trkpt lat="46.88388" lon="8.54129">
        <ele>1628</ele>
        <time>2021-08-11T08:43:37.398Z</time>
      </trkpt>
      <trkpt lat="46.88388" lon="8.5413">
        <ele>1629</ele>
        <time>2021-08-11T08:43:38.399Z</time>
      </trkpt>
      <trkpt lat="46.88389" lon="8.5413">
        <ele>1629</ele>
        <time>2021-08-11T08:43:39.398Z</time>
      </trkpt>
      <trkpt lat="46.88389" lon="8.54131">
        <ele>1628</ele>
        <time>2021-08-11T08:43:40.399Z</time>
      </trkpt>
      <trkpt lat="46.88389" lon="8.54131">
        <ele>1628</ele>
        <time>2021-08-11T08:43:41.399Z</time>
      </trkpt>
      <trkpt lat="46.8839" lon="8.5413">
        <ele>1628</ele>
        <time>2021-08-11T08:43:42.400Z</time>
      </trkpt>
      <trkpt lat="46.8839" lon="8.5413">
        <ele>1628</ele>
        <time>2021-08-11T08:43:43.399Z</time>
      </trkpt>
      <trkpt lat="46.8839" lon="8.5413">
        <ele>1628</ele>
        <time>2021-08-11T08:43:44.399Z</time>
      </trkpt>
      <trkpt lat="46.8839" lon="8.54129">
        <ele>1628</ele>
        <time>2021-08-11T08:43:45.400Z</time>
      </trkpt>
      <trkpt lat="46.8839" lon="8.54129">
        <ele>1628</ele>
        <time>2021-08-11T08:43:46.399Z</time>
      </trkpt>
      <trkpt lat="46.8839" lon="8.54129">
        <ele>1629</ele>
        <time>2021-08-11T08:43:47.400Z</time>
      </trkpt>
      <trkpt lat="46.8839" lon="8.54129">
        <ele>1629</ele>
        <time>2021-08-11T08:43:48.400Z</time>
      </trkpt>
      <trkpt lat="46.88391" lon="8.54128">
        <ele>1630</ele>
        <time>2021-08-11T08:43:49.401Z</time>
      </trkpt>
      <trkpt lat="46.88392" lon="8.54128">
        <ele>1631</ele>
        <time>2021-08-11T08:43:50.400Z</time>
      </trkpt>
      <trkpt lat="46.88393" lon="8.54128">
        <ele>1631</ele>
        <time>2021-08-11T08:43:51.400Z</time>
      </trkpt>
      <trkpt lat="46.88393" lon="8.54128">
        <ele>1631</ele>
        <time>2021-08-11T08:43:52.401Z</time>
      </trkpt>
      <trkpt lat="46.88394" lon="8.54127">
        <ele>1632</ele>
        <time>2021-08-11T08:43:53.400Z</time>
      </trkpt>
      <trkpt lat="46.88394" lon="8.54127">
        <ele>1631</ele>
        <time>2021-08-11T08:43:54.400Z</time>
      </trkpt>
      <trkpt lat="46.88395" lon="8.54126">
        <ele>1631</ele>
        <time>2021-08-11T08:43:55.400Z</time>
      </trkpt>
      <trkpt lat="46.88395" lon="8.54126">
        <ele>1631</ele>
        <time>2021-08-11T08:43:56.400Z</time>
      </trkpt>
      <trkpt lat="46.88396" lon="8.54126">
        <ele>1631</ele>
        <time>2021-08-11T08:43:57.400Z</time>
      </trkpt>
      <trkpt lat="46.88397" lon="8.54125">
        <ele>1631</ele>
        <time>2021-08-11T08:43:58.400Z</time>
      </trkpt>
      <trkpt lat="46.88397" lon="8.54125">
        <ele>1632</ele>
        <time>2021-08-11T08:43:59.400Z</time>
      </trkpt>
      <trkpt lat="46.88397" lon="8.54125">
        <ele>1632</ele>
        <time>2021-08-11T08:44:00.400Z</time>
      </trkpt>
      <trkpt lat="46.88398" lon="8.54125">
        <ele>1632</ele>
        <time>2021-08-11T08:44:01.401Z</time>
      </trkpt>
      <trkpt lat="46.88398" lon="8.54124">
        <ele>1631</ele>
        <time>2021-08-11T08:44:02.401Z</time>
      </trkpt>
      <trkpt lat="46.88398" lon="8.54124">
        <ele>1631</ele>
        <time>2021-08-11T08:44:03.401Z</time>
      </trkpt>
      <trkpt lat="46.88398" lon="8.54124">
        <ele>1631</ele>
        <time>2021-08-11T08:44:04.400Z</time>
      </trkpt>
      <trkpt lat="46.88399" lon="8.54124">
        <ele>1631</ele>
        <time>2021-08-11T08:44:05.400Z</time>
      </trkpt>
      <trkpt lat="46.88399" lon="8.54124">
        <ele>1631</ele>
        <time>2021-08-11T08:44:06.401Z</time>
      </trkpt>
      <trkpt lat="46.88399" lon="8.54123">
        <ele>1631</ele>
        <time>2021-08-11T08:44:07.400Z</time>
      </trkpt>
      <trkpt lat="46.884" lon="8.54123">
        <ele>1631</ele>
        <time>2021-08-11T08:44:08.400Z</time>
      </trkpt>
      <trkpt lat="46.88401" lon="8.54123">
        <ele>1631</ele>
        <time>2021-08-11T08:44:09.401Z</time>
      </trkpt>
      <trkpt lat="46.88402" lon="8.54123">
        <ele>1631</ele>
        <time>2021-08-11T08:44:10.400Z</time>
      </trkpt>
      <trkpt lat="46.88403" lon="8.54123">
        <ele>1632</ele>
        <time>2021-08-11T08:44:11.400Z</time>
      </trkpt>
      <trkpt lat="46.88403" lon="8.54123">
        <ele>1632</ele>
        <time>2021-08-11T08:44:12.401Z</time>
      </trkpt>
      <trkpt lat="46.88404" lon="8.54123">
        <ele>1632</ele>
        <time>2021-08-11T08:44:13.400Z</time>
      </trkpt>
      <trkpt lat="46.88404" lon="8.54124">
        <ele>1632</ele>
        <time>2021-08-11T08:44:14.401Z</time>
      </trkpt>
      <trkpt lat="46.88405" lon="8.54125">
        <ele>1632</ele>
        <time>2021-08-11T08:44:15.401Z</time>
      </trkpt>
      <trkpt lat="46.88405" lon="8.54125">
        <ele>1632</ele>
        <time>2021-08-11T08:44:16.401Z</time>
      </trkpt>
      <trkpt lat="46.88405" lon="8.54125">
        <ele>1632</ele>
        <time>2021-08-11T08:44:17.400Z</time>
      </trkpt>
      <trkpt lat="46.88405" lon="8.54126">
        <ele>1632</ele>
        <time>2021-08-11T08:44:18.400Z</time>
      </trkpt>
      <trkpt lat="46.88406" lon="8.54126">
        <ele>1631</ele>
        <time>2021-08-11T08:44:19.400Z</time>
      </trkpt>
      <trkpt lat="46.88406" lon="8.54125">
        <ele>1631</ele>
        <time>2021-08-11T08:44:20.400Z</time>
      </trkpt>
      <trkpt lat="46.88407" lon="8.54125">
        <ele>1630</ele>
        <time>2021-08-11T08:44:21.401Z</time>
      </trkpt>
      <trkpt lat="46.88408" lon="8.54125">
        <ele>1630</ele>
        <time>2021-08-11T08:44:22.400Z</time>
      </trkpt>
      <trkpt lat="46.88408" lon="8.54125">
        <ele>1630</ele>
        <time>2021-08-11T08:44:23.401Z</time>
      </trkpt>
      <trkpt lat="46.88408" lon="8.54125">
        <ele>1630</ele>
        <time>2021-08-11T08:44:24.400Z</time>
      </trkpt>
      <trkpt lat="46.88409" lon="8.54125">
        <ele>1630</ele>
        <time>2021-08-11T08:44:25.400Z</time>
      </trkpt>
      <trkpt lat="46.88409" lon="8.54124">
        <ele>1630</ele>
        <time>2021-08-11T08:44:26.400Z</time>
      </trkpt>
      <trkpt lat="46.88409" lon="8.54124">
        <ele>1630</ele>
        <time>2021-08-11T08:44:27.400Z</time>
      </trkpt>
      <trkpt lat="46.8841" lon="8.54124">
        <ele>1631</ele>
        <time>2021-08-11T08:44:28.401Z</time>
      </trkpt>
      <trkpt lat="46.88411" lon="8.54123">
        <ele>1631</ele>
        <time>2021-08-11T08:44:29.400Z</time>
      </trkpt>
      <trkpt lat="46.88411" lon="8.54123">
        <ele>1631</ele>
        <time>2021-08-11T08:44:30.400Z</time>
      </trkpt>
      <trkpt lat="46.88412" lon="8.54123">
        <ele>1631</ele>
        <time>2021-08-11T08:44:31.401Z</time>
      </trkpt>
      <trkpt lat="46.88413" lon="8.54123">
        <ele>1632</ele>
        <time>2021-08-11T08:44:32.400Z</time>
      </trkpt>
      <trkpt lat="46.88413" lon="8.54123">
        <ele>1632</ele>
        <time>2021-08-11T08:44:33.400Z</time>
      </trkpt>
      <trkpt lat="46.88414" lon="8.54123">
        <ele>1633</ele>
        <time>2021-08-11T08:44:34.400Z</time>
      </trkpt>
      <trkpt lat="46.88415" lon="8.54123">
        <ele>1634</ele>
        <time>2021-08-11T08:44:35.400Z</time>
      </trkpt>
      <trkpt lat="46.88415" lon="8.54123">
        <ele>1634</ele>
        <time>2021-08-11T08:44:36.400Z</time>
      </trkpt>
      <trkpt lat="46.88415" lon="8.54122">
        <ele>1635</ele>
        <time>2021-08-11T08:44:37.401Z</time>
      </trkpt>
      <trkpt lat="46.88416" lon="8.54122">
        <ele>1635</ele>
        <time>2021-08-11T08:44:38.400Z</time>
      </trkpt>
      <trkpt lat="46.88416" lon="8.54122">
        <ele>1635</ele>
        <time>2021-08-11T08:44:39.401Z</time>
      </trkpt>
      <trkpt lat="46.88416" lon="8.54122">
        <ele>1636</ele>
        <time>2021-08-11T08:44:40.400Z</time>
      </trkpt>
      <trkpt lat="46.88417" lon="8.54121">
        <ele>1636</ele>
        <time>2021-08-11T08:44:41.400Z</time>
      </trkpt>
      <trkpt lat="46.88417" lon="8.54121">
        <ele>1636</ele>
        <time>2021-08-11T08:44:42.400Z</time>
      </trkpt>
      <trkpt lat="46.88418" lon="8.5412">
        <ele>1636</ele>
        <time>2021-08-11T08:44:43.401Z</time>
      </trkpt>
      <trkpt lat="46.88418" lon="8.5412">
        <ele>1637</ele>
        <time>2021-08-11T08:44:44.400Z</time>
      </trkpt>
      <trkpt lat="46.88418" lon="8.5412">
        <ele>1637</ele>
        <time>2021-08-11T08:44:45.400Z</time>
      </trkpt>
      <trkpt lat="46.88419" lon="8.5412">
        <ele>1638</ele>
        <time>2021-08-11T08:44:46.401Z</time>
      </trkpt>
      <trkpt lat="46.88419" lon="8.54119">
        <ele>1638</ele>
        <time>2021-08-11T08:44:47.400Z</time>
      </trkpt>
      <trkpt lat="46.88419" lon="8.54119">
        <ele>1638</ele>
        <time>2021-08-11T08:44:48.400Z</time>
      </trkpt>
      <trkpt lat="46.8842" lon="8.54118">
        <ele>1638</ele>
        <time>2021-08-11T08:44:49.401Z</time>
      </trkpt>
      <trkpt lat="46.8842" lon="8.54118">
        <ele>1638</ele>
        <time>2021-08-11T08:44:50.400Z</time>
      </trkpt>
      <trkpt lat="46.88421" lon="8.54118">
        <ele>1639</ele>
        <time>2021-08-11T08:44:51.401Z</time>
      </trkpt>
      <trkpt lat="46.88421" lon="8.54117">
        <ele>1639</ele>
        <time>2021-08-11T08:44:52.401Z</time>
      </trkpt>
      <trkpt lat="46.88422" lon="8.54117">
        <ele>1639</ele>
        <time>2021-08-11T08:44:53.400Z</time>
      </trkpt>
      <trkpt lat="46.88422" lon="8.54116">
        <ele>1640</ele>
        <time>2021-08-11T08:44:54.400Z</time>
      </trkpt>
      <trkpt lat="46.88423" lon="8.54116">
        <ele>1641</ele>
        <time>2021-08-11T08:44:55.401Z</time>
      </trkpt>
      <trkpt lat="46.88424" lon="8.54115">
        <ele>1641</ele>
        <time>2021-08-11T08:44:56.400Z</time>
      </trkpt>
      <trkpt lat="46.88424" lon="8.54114">
        <ele>1642</ele>
        <time>2021-08-11T08:44:57.400Z</time>
      </trkpt>
      <trkpt lat="46.88424" lon="8.54114">
        <ele>1643</ele>
        <time>2021-08-11T08:44:58.401Z</time>
      </trkpt>
      <trkpt lat="46.88424" lon="8.54113">
        <ele>1643</ele>
        <time>2021-08-11T08:44:59.400Z</time>
      </trkpt>
      <trkpt lat="46.88424" lon="8.54113">
        <ele>1643</ele>
        <time>2021-08-11T08:45:00.400Z</time>
      </trkpt>
      <trkpt lat="46.88424" lon="8.54113">
        <ele>1644</ele>
        <time>2021-08-11T08:45:01.400Z</time>
      </trkpt>
      <trkpt lat="46.88424" lon="8.54113">
        <ele>1644</ele>
        <time>2021-08-11T08:45:02.401Z</time>
      </trkpt>
      <trkpt lat="46.88424" lon="8.54113">
        <ele>1645</ele>
        <time>2021-08-11T08:45:03.400Z</time>
      </trkpt>
      <trkpt lat="46.88424" lon="8.54113">
        <ele>1645</ele>
        <time>2021-08-11T08:45:04.400Z</time>
      </trkpt>
      <trkpt lat="46.88424" lon="8.54113">
        <ele>1645</ele>
        <time>2021-08-11T08:45:05.400Z</time>
      </trkpt>
      <trkpt lat="46.88423" lon="8.54113">
        <ele>1644</ele>
        <time>2021-08-11T08:45:06.400Z</time>
      </trkpt>
      <trkpt lat="46.88423" lon="8.54112">
        <ele>1643</ele>
        <time>2021-08-11T08:45:07.400Z</time>
      </trkpt>
      <trkpt lat="46.88423" lon="8.54112">
        <ele>1643</ele>
        <time>2021-08-11T08:45:08.400Z</time>
      </trkpt>
      <trkpt lat="46.88424" lon="8.54111">
        <ele>1643</ele>
        <time>2021-08-11T08:45:09.401Z</time>
      </trkpt>
      <trkpt lat="46.88424" lon="8.54111">
        <ele>1643</ele>
        <time>2021-08-11T08:45:10.402Z</time>
      </trkpt>
      <trkpt lat="46.88424" lon="8.54111">
        <ele>1644</ele>
        <time>2021-08-11T08:45:11.402Z</time>
      </trkpt>
      <trkpt lat="46.88424" lon="8.5411">
        <ele>1644</ele>
        <time>2021-08-11T08:45:12.401Z</time>
      </trkpt>
      <trkpt lat="46.88423" lon="8.5411">
        <ele>1645</ele>
        <time>2021-08-11T08:45:13.402Z</time>
      </trkpt>
      <trkpt lat="46.88423" lon="8.54111">
        <ele>1645</ele>
        <time>2021-08-11T08:45:14.402Z</time>
      </trkpt>
      <trkpt lat="46.88423" lon="8.54111">
        <ele>1645</ele>
        <time>2021-08-11T08:45:15.402Z</time>
      </trkpt>
      <trkpt lat="46.88423" lon="8.54112">
        <ele>1645</ele>
        <time>2021-08-11T08:45:16.401Z</time>
      </trkpt>
      <trkpt lat="46.88423" lon="8.54115">
        <ele>1642</ele>
        <time>2021-08-11T08:45:17.401Z</time>
      </trkpt>
      <trkpt lat="46.88423" lon="8.54115">
        <ele>1641</ele>
        <time>2021-08-11T08:45:18.402Z</time>
      </trkpt>
      <trkpt lat="46.88423" lon="8.54115">
        <ele>1641</ele>
        <time>2021-08-11T08:45:19.402Z</time>
      </trkpt>
      <trkpt lat="46.88423" lon="8.54115">
        <ele>1641</ele>
        <time>2021-08-11T08:45:20.402Z</time>
      </trkpt>
      <trkpt lat="46.88424" lon="8.54114">
        <ele>1642</ele>
        <time>2021-08-11T08:45:21.401Z</time>
      </trkpt>
      <trkpt lat="46.88424" lon="8.54114">
        <ele>1642</ele>
        <time>2021-08-11T08:45:22.402Z</time>
      </trkpt>
      <trkpt lat="46.88424" lon="8.54115">
        <ele>1642</ele>
        <time>2021-08-11T08:45:23.401Z</time>
      </trkpt>
      <trkpt lat="46.88424" lon="8.54115">
        <ele>1642</ele>
        <time>2021-08-11T08:45:24.402Z</time>
      </trkpt>
      <trkpt lat="46.88424" lon="8.54115">
        <ele>1642</ele>
        <time>2021-08-11T08:45:25.402Z</time>
      </trkpt>
      <trkpt lat="46.88424" lon="8.54114">
        <ele>1640</ele>
        <time>2021-08-11T08:45:26.402Z</time>
      </trkpt>
      <trkpt lat="46.88424" lon="8.54114">
        <ele>1640</ele>
        <time>2021-08-11T08:45:27.401Z</time>
      </trkpt>
      <trkpt lat="46.88424" lon="8.54114">
        <ele>1640</ele>
        <time>2021-08-11T08:45:28.401Z</time>
      </trkpt>
      <trkpt lat="46.88423" lon="8.54116">
        <ele>1639</ele>
        <time>2021-08-11T08:45:29.403Z</time>
      </trkpt>
      <trkpt lat="46.88423" lon="8.54115">
        <ele>1640</ele>
        <time>2021-08-11T08:45:30.402Z</time>
      </trkpt>
      <trkpt lat="46.88423" lon="8.54115">
        <ele>1641</ele>
        <time>2021-08-11T08:45:31.402Z</time>
      </trkpt>
      <trkpt lat="46.88423" lon="8.54115">
        <ele>1641</ele>
        <time>2021-08-11T08:45:32.403Z</time>
      </trkpt>
      <trkpt lat="46.88423" lon="8.54115">
        <ele>1641</ele>
        <time>2021-08-11T08:45:33.402Z</time>
      </trkpt>
      <trkpt lat="46.88423" lon="8.54115">
        <ele>1644</ele>
        <time>2021-08-11T08:45:34.403Z</time>
      </trkpt>
      <trkpt lat="46.88423" lon="8.54115">
        <ele>1644</ele>
        <time>2021-08-11T08:45:35.404Z</time>
      </trkpt>
      <trkpt lat="46.88423" lon="8.54114">
        <ele>1643</ele>
        <time>2021-08-11T08:45:36.403Z</time>
      </trkpt>
      <trkpt lat="46.88423" lon="8.54114">
        <ele>1641</ele>
        <time>2021-08-11T08:45:37.405Z</time>
      </trkpt>
      <trkpt lat="46.88423" lon="8.54114">
        <ele>1641</ele>
        <time>2021-08-11T08:45:38.404Z</time>
      </trkpt>
      <trkpt lat="46.88423" lon="8.54114">
        <ele>1641</ele>
        <time>2021-08-11T08:45:39.404Z</time>
      </trkpt>
      <trkpt lat="46.88423" lon="8.54113">
        <ele>1641</ele>
        <time>2021-08-11T08:45:40.404Z</time>
      </trkpt>
      <trkpt lat="46.88423" lon="8.54114">
        <ele>1639</ele>
        <time>2021-08-11T08:45:41.405Z</time>
      </trkpt>
      <trkpt lat="46.88423" lon="8.54112">
        <ele>1639</ele>
        <time>2021-08-11T08:45:42.405Z</time>
      </trkpt>
      <trkpt lat="46.88423" lon="8.54113">
        <ele>1640</ele>
        <time>2021-08-11T08:45:43.405Z</time>
      </trkpt>
      <trkpt lat="46.88424" lon="8.54112">
        <ele>1642</ele>
        <time>2021-08-11T08:45:44.406Z</time>
      </trkpt>
      <trkpt lat="46.88424" lon="8.54112">
        <ele>1642</ele>
        <time>2021-08-11T08:45:45.406Z</time>
      </trkpt>
      <trkpt lat="46.88423" lon="8.54113">
        <ele>1640</ele>
        <time>2021-08-11T08:45:46.406Z</time>
      </trkpt>
      <trkpt lat="46.88424" lon="8.54114">
        <ele>1640</ele>
        <time>2021-08-11T08:45:47.407Z</time>
      </trkpt>
      <trkpt lat="46.88424" lon="8.54114">
        <ele>1641</ele>
        <time>2021-08-11T08:45:48.406Z</time>
      </trkpt>
      <trkpt lat="46.88425" lon="8.54114">
        <ele>1644</ele>
        <time>2021-08-11T08:45:49.406Z</time>
      </trkpt>
      <trkpt lat="46.88425" lon="8.54114">
        <ele>1644</ele>
        <time>2021-08-11T08:45:50.407Z</time>
      </trkpt>
      <trkpt lat="46.88425" lon="8.54114">
        <ele>1643</ele>
        <time>2021-08-11T08:45:51.406Z</time>
      </trkpt>
      <trkpt lat="46.88425" lon="8.54114">
        <ele>1643</ele>
        <time>2021-08-11T08:45:52.407Z</time>
      </trkpt>
      <trkpt lat="46.88425" lon="8.54114">
        <ele>1642</ele>
        <time>2021-08-11T08:45:53.406Z</time>
      </trkpt>
      <trkpt lat="46.88426" lon="8.54114">
        <ele>1638</ele>
        <time>2021-08-11T08:45:54.408Z</time>
      </trkpt>
      <trkpt lat="46.88426" lon="8.54113">
        <ele>1638</ele>
        <time>2021-08-11T08:45:55.407Z</time>
      </trkpt>
      <trkpt lat="46.88426" lon="8.54113">
        <ele>1638</ele>
        <time>2021-08-11T08:45:56.407Z</time>
      </trkpt>
      <trkpt lat="46.88426" lon="8.54113">
        <ele>1638</ele>
        <time>2021-08-11T08:45:57.408Z</time>
      </trkpt>
      <trkpt lat="46.88427" lon="8.54113">
        <ele>1638</ele>
        <time>2021-08-11T08:45:58.407Z</time>
      </trkpt>
      <trkpt lat="46.88426" lon="8.54113">
        <ele>1638</ele>
        <time>2021-08-11T08:45:59.407Z</time>
      </trkpt>
      <trkpt lat="46.88426" lon="8.54113">
        <ele>1638</ele>
        <time>2021-08-11T08:46:00.408Z</time>
      </trkpt>
      <trkpt lat="46.88427" lon="8.54112">
        <ele>1638</ele>
        <time>2021-08-11T08:46:01.407Z</time>
      </trkpt>
      <trkpt lat="46.88427" lon="8.54112">
        <ele>1637</ele>
        <time>2021-08-11T08:46:02.408Z</time>
      </trkpt>
      <trkpt lat="46.88426" lon="8.54112">
        <ele>1637</ele>
        <time>2021-08-11T08:46:03.407Z</time>
      </trkpt>
      <trkpt lat="46.88426" lon="8.54111">
        <ele>1637</ele>
        <time>2021-08-11T08:46:04.408Z</time>
      </trkpt>
      <trkpt lat="46.88426" lon="8.54111">
        <ele>1637</ele>
        <time>2021-08-11T08:46:05.407Z</time>
      </trkpt>
      <trkpt lat="46.88425" lon="8.54111">
        <ele>1638</ele>
        <time>2021-08-11T08:46:06.407Z</time>
      </trkpt>
      <trkpt lat="46.88427" lon="8.54114">
        <ele>1642</ele>
        <time>2021-08-11T08:46:07.407Z</time>
      </trkpt>
      <trkpt lat="46.88427" lon="8.54114">
        <ele>1643</ele>
        <time>2021-08-11T08:46:08.407Z</time>
      </trkpt>
      <trkpt lat="46.88425" lon="8.54115">
        <ele>1639</ele>
        <time>2021-08-11T08:46:09.408Z</time>
      </trkpt>
      <trkpt lat="46.88425" lon="8.54115">
        <ele>1639</ele>
        <time>2021-08-11T08:46:10.407Z</time>
      </trkpt>
      <trkpt lat="46.88427" lon="8.54116">
        <ele>1641</ele>
        <time>2021-08-11T08:46:11.407Z</time>
      </trkpt>
      <trkpt lat="46.88428" lon="8.54117">
        <ele>1642</ele>
        <time>2021-08-11T08:46:12.408Z</time>
      </trkpt>
      <trkpt lat="46.88428" lon="8.54116">
        <ele>1642</ele>
        <time>2021-08-11T08:46:13.407Z</time>
      </trkpt>
      <trkpt lat="46.88428" lon="8.54116">
        <ele>1642</ele>
        <time>2021-08-11T08:46:14.407Z</time>
      </trkpt>
      <trkpt lat="46.88426" lon="8.54115">
        <ele>1641</ele>
        <time>2021-08-11T08:46:15.408Z</time>
      </trkpt>
      <trkpt lat="46.88426" lon="8.54114">
        <ele>1641</ele>
        <time>2021-08-11T08:46:16.407Z</time>
      </trkpt>
      <trkpt lat="46.88426" lon="8.54114">
        <ele>1641</ele>
        <time>2021-08-11T08:46:17.407Z</time>
      </trkpt>
      <trkpt lat="46.88426" lon="8.54114">
        <ele>1640</ele>
        <time>2021-08-11T08:46:18.408Z</time>
      </trkpt>
      <trkpt lat="46.88425" lon="8.54114">
        <ele>1639</ele>
        <time>2021-08-11T08:46:19.409Z</time>
      </trkpt>
      <trkpt lat="46.88426" lon="8.54113">
        <ele>1639</ele>
        <time>2021-08-11T08:46:20.409Z</time>
      </trkpt>
      <trkpt lat="46.88427" lon="8.54112">
        <ele>1639</ele>
        <time>2021-08-11T08:46:21.408Z</time>
      </trkpt>
      <trkpt lat="46.88428" lon="8.54112">
        <ele>1639</ele>
        <time>2021-08-11T08:46:22.409Z</time>
      </trkpt>
      <trkpt lat="46.88428" lon="8.54112">
        <ele>1639</ele>
        <time>2021-08-11T08:46:23.409Z</time>
      </trkpt>
      <trkpt lat="46.88428" lon="8.54112">
        <ele>1639</ele>
        <time>2021-08-11T08:46:24.409Z</time>
      </trkpt>
      <trkpt lat="46.88428" lon="8.54112">
        <ele>1639</ele>
        <time>2021-08-11T08:46:25.408Z</time>
      </trkpt>
      <trkpt lat="46.88428" lon="8.54112">
        <ele>1639</ele>
        <time>2021-08-11T08:46:26.409Z</time>
      </trkpt>
      <trkpt lat="46.88428" lon="8.54113">
        <ele>1639</ele>
        <time>2021-08-11T08:46:27.409Z</time>
      </trkpt>
      <trkpt lat="46.88428" lon="8.54113">
        <ele>1639</ele>
        <time>2021-08-11T08:46:28.409Z</time>
      </trkpt>
      <trkpt lat="46.88429" lon="8.54112">
        <ele>1639</ele>
        <time>2021-08-11T08:46:29.409Z</time>
      </trkpt>
      <trkpt lat="46.88429" lon="8.54111">
        <ele>1639</ele>
        <time>2021-08-11T08:46:30.409Z</time>
      </trkpt>
      <trkpt lat="46.8843" lon="8.54111">
        <ele>1639</ele>
        <time>2021-08-11T08:46:31.409Z</time>
      </trkpt>
      <trkpt lat="46.8843" lon="8.54111">
        <ele>1640</ele>
        <time>2021-08-11T08:46:32.409Z</time>
      </trkpt>
      <trkpt lat="46.88431" lon="8.54111">
        <ele>1641</ele>
        <time>2021-08-11T08:46:33.409Z</time>
      </trkpt>
      <trkpt lat="46.88431" lon="8.5411">
        <ele>1641</ele>
        <time>2021-08-11T08:46:34.409Z</time>
      </trkpt>
      <trkpt lat="46.88432" lon="8.5411">
        <ele>1641</ele>
        <time>2021-08-11T08:46:35.409Z</time>
      </trkpt>
      <trkpt lat="46.88432" lon="8.54109">
        <ele>1641</ele>
        <time>2021-08-11T08:46:36.408Z</time>
      </trkpt>
      <trkpt lat="46.88432" lon="8.54109">
        <ele>1641</ele>
        <time>2021-08-11T08:46:37.409Z</time>
      </trkpt>
      <trkpt lat="46.88432" lon="8.54109">
        <ele>1641</ele>
        <time>2021-08-11T08:46:38.408Z</time>
      </trkpt>
      <trkpt lat="46.88433" lon="8.54108">
        <ele>1642</ele>
        <time>2021-08-11T08:46:39.409Z</time>
      </trkpt>
      <trkpt lat="46.88433" lon="8.54108">
        <ele>1642</ele>
        <time>2021-08-11T08:46:40.409Z</time>
      </trkpt>
      <trkpt lat="46.88434" lon="8.54107">
        <ele>1642</ele>
        <time>2021-08-11T08:46:41.409Z</time>
      </trkpt>
      <trkpt lat="46.88434" lon="8.54107">
        <ele>1642</ele>
        <time>2021-08-11T08:46:42.409Z</time>
      </trkpt>
      <trkpt lat="46.88435" lon="8.54106">
        <ele>1642</ele>
        <time>2021-08-11T08:46:43.409Z</time>
      </trkpt>
      <trkpt lat="46.88435" lon="8.54106">
        <ele>1643</ele>
        <time>2021-08-11T08:46:44.409Z</time>
      </trkpt>
      <trkpt lat="46.88435" lon="8.54105">
        <ele>1643</ele>
        <time>2021-08-11T08:46:45.409Z</time>
      </trkpt>
      <trkpt lat="46.88436" lon="8.54105">
        <ele>1643</ele>
        <time>2021-08-11T08:46:46.408Z</time>
      </trkpt>
      <trkpt lat="46.88436" lon="8.54104">
        <ele>1643</ele>
        <time>2021-08-11T08:46:47.409Z</time>
      </trkpt>
      <trkpt lat="46.88437" lon="8.54104">
        <ele>1643</ele>
        <time>2021-08-11T08:46:48.409Z</time>
      </trkpt>
      <trkpt lat="46.88437" lon="8.54103">
        <ele>1643</ele>
        <time>2021-08-11T08:46:49.409Z</time>
      </trkpt>
      <trkpt lat="46.88437" lon="8.54103">
        <ele>1643</ele>
        <time>2021-08-11T08:46:50.408Z</time>
      </trkpt>
      <trkpt lat="46.88438" lon="8.54102">
        <ele>1644</ele>
        <time>2021-08-11T08:46:51.409Z</time>
      </trkpt>
      <trkpt lat="46.88437" lon="8.54102">
        <ele>1644</ele>
        <time>2021-08-11T08:46:52.409Z</time>
      </trkpt>
      <trkpt lat="46.88437" lon="8.54102">
        <ele>1644</ele>
        <time>2021-08-11T08:46:53.409Z</time>
      </trkpt>
      <trkpt lat="46.88437" lon="8.54101">
        <ele>1644</ele>
        <time>2021-08-11T08:46:54.409Z</time>
      </trkpt>
      <trkpt lat="46.88437" lon="8.541">
        <ele>1645</ele>
        <time>2021-08-11T08:46:55.409Z</time>
      </trkpt>
      <trkpt lat="46.88438" lon="8.541">
        <ele>1646</ele>
        <time>2021-08-11T08:46:56.409Z</time>
      </trkpt>
      <trkpt lat="46.88438" lon="8.541">
        <ele>1646</ele>
        <time>2021-08-11T08:46:57.409Z</time>
      </trkpt>
      <trkpt lat="46.88438" lon="8.54099">
        <ele>1647</ele>
        <time>2021-08-11T08:46:58.409Z</time>
      </trkpt>
      <trkpt lat="46.88439" lon="8.54099">
        <ele>1648</ele>
        <time>2021-08-11T08:46:59.409Z</time>
      </trkpt>
      <trkpt lat="46.8844" lon="8.54099">
        <ele>1648</ele>
        <time>2021-08-11T08:47:00.409Z</time>
      </trkpt>
      <trkpt lat="46.8844" lon="8.54099">
        <ele>1649</ele>
        <time>2021-08-11T08:47:01.408Z</time>
      </trkpt>
      <trkpt lat="46.88441" lon="8.54098">
        <ele>1649</ele>
        <time>2021-08-11T08:47:02.409Z</time>
      </trkpt>
      <trkpt lat="46.88441" lon="8.54098">
        <ele>1650</ele>
        <time>2021-08-11T08:47:03.409Z</time>
      </trkpt>
      <trkpt lat="46.88441" lon="8.54098">
        <ele>1650</ele>
        <time>2021-08-11T08:47:04.409Z</time>
      </trkpt>
      <trkpt lat="46.88441" lon="8.54097">
        <ele>1651</ele>
        <time>2021-08-11T08:47:05.409Z</time>
      </trkpt>
      <trkpt lat="46.88442" lon="8.54096">
        <ele>1650</ele>
        <time>2021-08-11T08:47:06.410Z</time>
      </trkpt>
      <trkpt lat="46.88442" lon="8.54095">
        <ele>1649</ele>
        <time>2021-08-11T08:47:07.409Z</time>
      </trkpt>
      <trkpt lat="46.88442" lon="8.54095">
        <ele>1649</ele>
        <time>2021-08-11T08:47:08.409Z</time>
      </trkpt>
      <trkpt lat="46.88442" lon="8.54094">
        <ele>1649</ele>
        <time>2021-08-11T08:47:09.409Z</time>
      </trkpt>
      <trkpt lat="46.88442" lon="8.54094">
        <ele>1648</ele>
        <time>2021-08-11T08:47:10.410Z</time>
      </trkpt>
      <trkpt lat="46.88442" lon="8.54094">
        <ele>1648</ele>
        <time>2021-08-11T08:47:11.410Z</time>
      </trkpt>
      <trkpt lat="46.88443" lon="8.54094">
        <ele>1648</ele>
        <time>2021-08-11T08:47:12.409Z</time>
      </trkpt>
      <trkpt lat="46.88443" lon="8.54094">
        <ele>1648</ele>
        <time>2021-08-11T08:47:13.409Z</time>
      </trkpt>
      <trkpt lat="46.88443" lon="8.54093">
        <ele>1648</ele>
        <time>2021-08-11T08:47:14.410Z</time>
      </trkpt>
      <trkpt lat="46.88444" lon="8.54092">
        <ele>1648</ele>
        <time>2021-08-11T08:47:15.410Z</time>
      </trkpt>
      <trkpt lat="46.88444" lon="8.54092">
        <ele>1648</ele>
        <time>2021-08-11T08:47:16.410Z</time>
      </trkpt>
      <trkpt lat="46.88444" lon="8.54092">
        <ele>1648</ele>
        <time>2021-08-11T08:47:17.410Z</time>
      </trkpt>
      <trkpt lat="46.88445" lon="8.54091">
        <ele>1648</ele>
        <time>2021-08-11T08:47:18.409Z</time>
      </trkpt>
      <trkpt lat="46.88445" lon="8.54091">
        <ele>1648</ele>
        <time>2021-08-11T08:47:19.410Z</time>
      </trkpt>
      <trkpt lat="46.88445" lon="8.54091">
        <ele>1647</ele>
        <time>2021-08-11T08:47:20.410Z</time>
      </trkpt>
      <trkpt lat="46.88445" lon="8.54091">
        <ele>1647</ele>
        <time>2021-08-11T08:47:21.410Z</time>
      </trkpt>
      <trkpt lat="46.88446" lon="8.54091">
        <ele>1647</ele>
        <time>2021-08-11T08:47:22.410Z</time>
      </trkpt>
      <trkpt lat="46.88447" lon="8.5409">
        <ele>1647</ele>
        <time>2021-08-11T08:47:23.410Z</time>
      </trkpt>
      <trkpt lat="46.88447" lon="8.54089">
        <ele>1646</ele>
        <time>2021-08-11T08:47:24.409Z</time>
      </trkpt>
      <trkpt lat="46.88447" lon="8.54089">
        <ele>1646</ele>
        <time>2021-08-11T08:47:25.410Z</time>
      </trkpt>
      <trkpt lat="46.88448" lon="8.54089">
        <ele>1646</ele>
        <time>2021-08-11T08:47:26.410Z</time>
      </trkpt>
      <trkpt lat="46.88448" lon="8.54089">
        <ele>1646</ele>
        <time>2021-08-11T08:47:27.410Z</time>
      </trkpt>
      <trkpt lat="46.88448" lon="8.54089">
        <ele>1646</ele>
        <time>2021-08-11T08:47:28.410Z</time>
      </trkpt>
      <trkpt lat="46.88449" lon="8.54089">
        <ele>1646</ele>
        <time>2021-08-11T08:47:29.409Z</time>
      </trkpt>
      <trkpt lat="46.88449" lon="8.54089">
        <ele>1646</ele>
        <time>2021-08-11T08:47:30.410Z</time>
      </trkpt>
      <trkpt lat="46.8845" lon="8.54089">
        <ele>1646</ele>
        <time>2021-08-11T08:47:31.409Z</time>
      </trkpt>
      <trkpt lat="46.8845" lon="8.54089">
        <ele>1647</ele>
        <time>2021-08-11T08:47:32.409Z</time>
      </trkpt>
      <trkpt lat="46.88451" lon="8.54089">
        <ele>1647</ele>
        <time>2021-08-11T08:47:33.410Z</time>
      </trkpt>
      <trkpt lat="46.88451" lon="8.5409">
        <ele>1648</ele>
        <time>2021-08-11T08:47:34.409Z</time>
      </trkpt>
      <trkpt lat="46.88452" lon="8.5409">
        <ele>1649</ele>
        <time>2021-08-11T08:47:35.409Z</time>
      </trkpt>
      <trkpt lat="46.88452" lon="8.54091">
        <ele>1649</ele>
        <time>2021-08-11T08:47:36.410Z</time>
      </trkpt>
      <trkpt lat="46.88452" lon="8.54093">
        <ele>1650</ele>
        <time>2021-08-11T08:47:37.410Z</time>
      </trkpt>
      <trkpt lat="46.88453" lon="8.54093">
        <ele>1650</ele>
        <time>2021-08-11T08:47:38.409Z</time>
      </trkpt>
      <trkpt lat="46.88453" lon="8.54094">
        <ele>1651</ele>
        <time>2021-08-11T08:47:39.409Z</time>
      </trkpt>
      <trkpt lat="46.88453" lon="8.54095">
        <ele>1651</ele>
        <time>2021-08-11T08:47:40.410Z</time>
      </trkpt>
      <trkpt lat="46.88454" lon="8.54095">
        <ele>1651</ele>
        <time>2021-08-11T08:47:41.409Z</time>
      </trkpt>
      <trkpt lat="46.88454" lon="8.54095">
        <ele>1651</ele>
        <time>2021-08-11T08:47:42.409Z</time>
      </trkpt>
      <trkpt lat="46.88455" lon="8.54095">
        <ele>1651</ele>
        <time>2021-08-11T08:47:43.410Z</time>
      </trkpt>
      <trkpt lat="46.88455" lon="8.54096">
        <ele>1651</ele>
        <time>2021-08-11T08:47:44.409Z</time>
      </trkpt>
      <trkpt lat="46.88456" lon="8.54095">
        <ele>1651</ele>
        <time>2021-08-11T08:47:45.409Z</time>
      </trkpt>
      <trkpt lat="46.88456" lon="8.54095">
        <ele>1652</ele>
        <time>2021-08-11T08:47:46.410Z</time>
      </trkpt>
      <trkpt lat="46.88457" lon="8.54094">
        <ele>1652</ele>
        <time>2021-08-11T08:47:47.409Z</time>
      </trkpt>
      <trkpt lat="46.88457" lon="8.54094">
        <ele>1652</ele>
        <time>2021-08-11T08:47:48.410Z</time>
      </trkpt>
      <trkpt lat="46.88457" lon="8.54094">
        <ele>1652</ele>
        <time>2021-08-11T08:47:49.410Z</time>
      </trkpt>
      <trkpt lat="46.88457" lon="8.54094">
        <ele>1652</ele>
        <time>2021-08-11T08:47:50.409Z</time>
      </trkpt>
      <trkpt lat="46.88458" lon="8.54093">
        <ele>1651</ele>
        <time>2021-08-11T08:47:51.409Z</time>
      </trkpt>
      <trkpt lat="46.88458" lon="8.54093">
        <ele>1651</ele>
        <time>2021-08-11T08:47:52.410Z</time>
      </trkpt>
      <trkpt lat="46.88458" lon="8.54092">
        <ele>1651</ele>
        <time>2021-08-11T08:47:53.409Z</time>
      </trkpt>
      <trkpt lat="46.88459" lon="8.54091">
        <ele>1650</ele>
        <time>2021-08-11T08:47:54.410Z</time>
      </trkpt>
      <trkpt lat="46.88459" lon="8.54091">
        <ele>1650</ele>
        <time>2021-08-11T08:47:55.410Z</time>
      </trkpt>
      <trkpt lat="46.88459" lon="8.5409">
        <ele>1650</ele>
        <time>2021-08-11T08:47:56.410Z</time>
      </trkpt>
      <trkpt lat="46.8846" lon="8.5409">
        <ele>1650</ele>
        <time>2021-08-11T08:47:57.410Z</time>
      </trkpt>
      <trkpt lat="46.8846" lon="8.5409">
        <ele>1650</ele>
        <time>2021-08-11T08:47:58.409Z</time>
      </trkpt>
      <trkpt lat="46.8846" lon="8.54089">
        <ele>1650</ele>
        <time>2021-08-11T08:47:59.410Z</time>
      </trkpt>
      <trkpt lat="46.88461" lon="8.54088">
        <ele>1651</ele>
        <time>2021-08-11T08:48:00.409Z</time>
      </trkpt>
      <trkpt lat="46.88461" lon="8.54087">
        <ele>1650</ele>
        <time>2021-08-11T08:48:01.409Z</time>
      </trkpt>
      <trkpt lat="46.88461" lon="8.54087">
        <ele>1650</ele>
        <time>2021-08-11T08:48:02.409Z</time>
      </trkpt>
      <trkpt lat="46.88461" lon="8.54086">
        <ele>1650</ele>
        <time>2021-08-11T08:48:03.409Z</time>
      </trkpt>
      <trkpt lat="46.88461" lon="8.54086">
        <ele>1650</ele>
        <time>2021-08-11T08:48:04.409Z</time>
      </trkpt>
      <trkpt lat="46.88462" lon="8.54086">
        <ele>1650</ele>
        <time>2021-08-11T08:48:05.409Z</time>
      </trkpt>
      <trkpt lat="46.88462" lon="8.54086">
        <ele>1650</ele>
        <time>2021-08-11T08:48:06.409Z</time>
      </trkpt>
      <trkpt lat="46.88462" lon="8.54085">
        <ele>1650</ele>
        <time>2021-08-11T08:48:07.409Z</time>
      </trkpt>
      <trkpt lat="46.88463" lon="8.54085">
        <ele>1650</ele>
        <time>2021-08-11T08:48:08.409Z</time>
      </trkpt>
      <trkpt lat="46.88463" lon="8.54084">
        <ele>1650</ele>
        <time>2021-08-11T08:48:09.409Z</time>
      </trkpt>
      <trkpt lat="46.88464" lon="8.54084">
        <ele>1651</ele>
        <time>2021-08-11T08:48:10.409Z</time>
      </trkpt>
      <trkpt lat="46.88464" lon="8.54084">
        <ele>1651</ele>
        <time>2021-08-11T08:48:11.409Z</time>
      </trkpt>
      <trkpt lat="46.88465" lon="8.54083">
        <ele>1651</ele>
        <time>2021-08-11T08:48:12.409Z</time>
      </trkpt>
      <trkpt lat="46.88465" lon="8.54083">
        <ele>1652</ele>
        <time>2021-08-11T08:48:13.410Z</time>
      </trkpt>
      <trkpt lat="46.88465" lon="8.54083">
        <ele>1652</ele>
        <time>2021-08-11T08:48:14.410Z</time>
      </trkpt>
      <trkpt lat="46.88466" lon="8.54083">
        <ele>1653</ele>
        <time>2021-08-11T08:48:15.410Z</time>
      </trkpt>
      <trkpt lat="46.88466" lon="8.54083">
        <ele>1654</ele>
        <time>2021-08-11T08:48:16.409Z</time>
      </trkpt>
      <trkpt lat="46.88467" lon="8.54084">
        <ele>1655</ele>
        <time>2021-08-11T08:48:17.409Z</time>
      </trkpt>
      <trkpt lat="46.88468" lon="8.54084">
        <ele>1656</ele>
        <time>2021-08-11T08:48:18.410Z</time>
      </trkpt>
      <trkpt lat="46.88469" lon="8.54084">
        <ele>1656</ele>
        <time>2021-08-11T08:48:19.410Z</time>
      </trkpt>
      <trkpt lat="46.88469" lon="8.54084">
        <ele>1657</ele>
        <time>2021-08-11T08:48:20.410Z</time>
      </trkpt>
      <trkpt lat="46.8847" lon="8.54083">
        <ele>1657</ele>
        <time>2021-08-11T08:48:21.410Z</time>
      </trkpt>
      <trkpt lat="46.8847" lon="8.54083">
        <ele>1657</ele>
        <time>2021-08-11T08:48:22.409Z</time>
      </trkpt>
      <trkpt lat="46.8847" lon="8.54083">
        <ele>1657</ele>
        <time>2021-08-11T08:48:23.410Z</time>
      </trkpt>
      <trkpt lat="46.88471" lon="8.54083">
        <ele>1657</ele>
        <time>2021-08-11T08:48:24.410Z</time>
      </trkpt>
      <trkpt lat="46.88471" lon="8.54083">
        <ele>1658</ele>
        <time>2021-08-11T08:48:25.410Z</time>
      </trkpt>
      <trkpt lat="46.88472" lon="8.54083">
        <ele>1658</ele>
        <time>2021-08-11T08:48:26.409Z</time>
      </trkpt>
      <trkpt lat="46.88472" lon="8.54083">
        <ele>1658</ele>
        <time>2021-08-11T08:48:27.410Z</time>
      </trkpt>
      <trkpt lat="46.88473" lon="8.54084">
        <ele>1659</ele>
        <time>2021-08-11T08:48:28.409Z</time>
      </trkpt>
      <trkpt lat="46.88473" lon="8.54084">
        <ele>1659</ele>
        <time>2021-08-11T08:48:29.410Z</time>
      </trkpt>
      <trkpt lat="46.88474" lon="8.54084">
        <ele>1660</ele>
        <time>2021-08-11T08:48:30.410Z</time>
      </trkpt>
      <trkpt lat="46.88474" lon="8.54085">
        <ele>1660</ele>
        <time>2021-08-11T08:48:31.409Z</time>
      </trkpt>
      <trkpt lat="46.88474" lon="8.54084">
        <ele>1661</ele>
        <time>2021-08-11T08:48:32.409Z</time>
      </trkpt>
      <trkpt lat="46.88475" lon="8.54084">
        <ele>1661</ele>
        <time>2021-08-11T08:48:33.409Z</time>
      </trkpt>
      <trkpt lat="46.88475" lon="8.54083">
        <ele>1661</ele>
        <time>2021-08-11T08:48:34.410Z</time>
      </trkpt>
      <trkpt lat="46.88476" lon="8.54083">
        <ele>1661</ele>
        <time>2021-08-11T08:48:35.409Z</time>
      </trkpt>
      <trkpt lat="46.88476" lon="8.54083">
        <ele>1661</ele>
        <time>2021-08-11T08:48:36.410Z</time>
      </trkpt>
      <trkpt lat="46.88476" lon="8.54082">
        <ele>1661</ele>
        <time>2021-08-11T08:48:37.409Z</time>
      </trkpt>
      <trkpt lat="46.88476" lon="8.54082">
        <ele>1661</ele>
        <time>2021-08-11T08:48:38.410Z</time>
      </trkpt>
      <trkpt lat="46.88477" lon="8.54081">
        <ele>1661</ele>
        <time>2021-08-11T08:48:39.410Z</time>
      </trkpt>
      <trkpt lat="46.88477" lon="8.5408">
        <ele>1661</ele>
        <time>2021-08-11T08:48:40.409Z</time>
      </trkpt>
      <trkpt lat="46.88477" lon="8.5408">
        <ele>1662</ele>
        <time>2021-08-11T08:48:41.409Z</time>
      </trkpt>
      <trkpt lat="46.88477" lon="8.54079">
        <ele>1662</ele>
        <time>2021-08-11T08:48:42.410Z</time>
      </trkpt>
      <trkpt lat="46.88476" lon="8.54078">
        <ele>1662</ele>
        <time>2021-08-11T08:48:43.410Z</time>
      </trkpt>
      <trkpt lat="46.88476" lon="8.54078">
        <ele>1662</ele>
        <time>2021-08-11T08:48:44.410Z</time>
      </trkpt>
      <trkpt lat="46.88476" lon="8.54077">
        <ele>1662</ele>
        <time>2021-08-11T08:48:45.409Z</time>
      </trkpt>
      <trkpt lat="46.88476" lon="8.54076">
        <ele>1662</ele>
        <time>2021-08-11T08:48:46.409Z</time>
      </trkpt>
      <trkpt lat="46.88476" lon="8.54075">
        <ele>1662</ele>
        <time>2021-08-11T08:48:47.409Z</time>
      </trkpt>
      <trkpt lat="46.88475" lon="8.54075">
        <ele>1661</ele>
        <time>2021-08-11T08:48:48.410Z</time>
      </trkpt>
      <trkpt lat="46.88475" lon="8.54075">
        <ele>1661</ele>
        <time>2021-08-11T08:48:49.410Z</time>
      </trkpt>
      <trkpt lat="46.88474" lon="8.54075">
        <ele>1661</ele>
        <time>2021-08-11T08:48:50.410Z</time>
      </trkpt>
      <trkpt lat="46.88474" lon="8.54075">
        <ele>1661</ele>
        <time>2021-08-11T08:48:51.409Z</time>
      </trkpt>
      <trkpt lat="46.88474" lon="8.54074">
        <ele>1661</ele>
        <time>2021-08-11T08:48:52.409Z</time>
      </trkpt>
      <trkpt lat="46.88474" lon="8.54074">
        <ele>1661</ele>
        <time>2021-08-11T08:48:53.409Z</time>
      </trkpt>
      <trkpt lat="46.88473" lon="8.54072">
        <ele>1652</ele>
        <time>2021-08-11T08:48:54.410Z</time>
      </trkpt>
      <trkpt lat="46.88473" lon="8.54072">
        <ele>1653</ele>
        <time>2021-08-11T08:48:55.409Z</time>
      </trkpt>
      <trkpt lat="46.88474" lon="8.5407">
        <ele>1656</ele>
        <time>2021-08-11T08:48:56.410Z</time>
      </trkpt>
      <trkpt lat="46.88474" lon="8.5407">
        <ele>1656</ele>
        <time>2021-08-11T08:48:57.410Z</time>
      </trkpt>
      <trkpt lat="46.88474" lon="8.54069">
        <ele>1657</ele>
        <time>2021-08-11T08:48:58.409Z</time>
      </trkpt>
      <trkpt lat="46.88474" lon="8.54069">
        <ele>1657</ele>
        <time>2021-08-11T08:48:59.410Z</time>
      </trkpt>
      <trkpt lat="46.88474" lon="8.54069">
        <ele>1657</ele>
        <time>2021-08-11T08:49:00.410Z</time>
      </trkpt>
      <trkpt lat="46.88474" lon="8.54067">
        <ele>1659</ele>
        <time>2021-08-11T08:49:01.412Z</time>
      </trkpt>
      <trkpt lat="46.88475" lon="8.54067">
        <ele>1659</ele>
        <time>2021-08-11T08:49:02.412Z</time>
      </trkpt>
      <trkpt lat="46.88475" lon="8.54067">
        <ele>1659</ele>
        <time>2021-08-11T08:49:03.411Z</time>
      </trkpt>
      <trkpt lat="46.88475" lon="8.54067">
        <ele>1660</ele>
        <time>2021-08-11T08:49:04.412Z</time>
      </trkpt>
      <trkpt lat="46.88475" lon="8.54066">
        <ele>1660</ele>
        <time>2021-08-11T08:49:05.411Z</time>
      </trkpt>
      <trkpt lat="46.88475" lon="8.54066">
        <ele>1660</ele>
        <time>2021-08-11T08:49:06.411Z</time>
      </trkpt>
      <trkpt lat="46.88475" lon="8.54065">
        <ele>1659</ele>
        <time>2021-08-11T08:49:07.411Z</time>
      </trkpt>
      <trkpt lat="46.88475" lon="8.54065">
        <ele>1659</ele>
        <time>2021-08-11T08:49:08.412Z</time>
      </trkpt>
      <trkpt lat="46.88475" lon="8.54065">
        <ele>1659</ele>
        <time>2021-08-11T08:49:09.411Z</time>
      </trkpt>
      <trkpt lat="46.88475" lon="8.54064">
        <ele>1659</ele>
        <time>2021-08-11T08:49:10.411Z</time>
      </trkpt>
      <trkpt lat="46.88475" lon="8.54064">
        <ele>1658</ele>
        <time>2021-08-11T08:49:11.412Z</time>
      </trkpt>
      <trkpt lat="46.88476" lon="8.54063">
        <ele>1659</ele>
        <time>2021-08-11T08:49:12.411Z</time>
      </trkpt>
      <trkpt lat="46.88477" lon="8.54063">
        <ele>1659</ele>
        <time>2021-08-11T08:49:13.411Z</time>
      </trkpt>
      <trkpt lat="46.88476" lon="8.54062">
        <ele>1659</ele>
        <time>2021-08-11T08:49:14.411Z</time>
      </trkpt>
      <trkpt lat="46.88475" lon="8.54061">
        <ele>1660</ele>
        <time>2021-08-11T08:49:15.411Z</time>
      </trkpt>
      <trkpt lat="46.88475" lon="8.5406">
        <ele>1660</ele>
        <time>2021-08-11T08:49:16.411Z</time>
      </trkpt>
      <trkpt lat="46.88475" lon="8.5406">
        <ele>1661</ele>
        <time>2021-08-11T08:49:17.411Z</time>
      </trkpt>
      <trkpt lat="46.88476" lon="8.5406">
        <ele>1661</ele>
        <time>2021-08-11T08:49:18.411Z</time>
      </trkpt>
      <trkpt lat="46.88476" lon="8.5406">
        <ele>1661</ele>
        <time>2021-08-11T08:49:19.411Z</time>
      </trkpt>
      <trkpt lat="46.88476" lon="8.54059">
        <ele>1661</ele>
        <time>2021-08-11T08:49:20.411Z</time>
      </trkpt>
      <trkpt lat="46.88477" lon="8.54059">
        <ele>1661</ele>
        <time>2021-08-11T08:49:21.411Z</time>
      </trkpt>
      <trkpt lat="46.88478" lon="8.54059">
        <ele>1661</ele>
        <time>2021-08-11T08:49:22.411Z</time>
      </trkpt>
      <trkpt lat="46.88478" lon="8.54059">
        <ele>1661</ele>
        <time>2021-08-11T08:49:23.411Z</time>
      </trkpt>
      <trkpt lat="46.88479" lon="8.54059">
        <ele>1661</ele>
        <time>2021-08-11T08:49:24.411Z</time>
      </trkpt>
      <trkpt lat="46.8848" lon="8.54059">
        <ele>1662</ele>
        <time>2021-08-11T08:49:25.411Z</time>
      </trkpt>
      <trkpt lat="46.8848" lon="8.54059">
        <ele>1662</ele>
        <time>2021-08-11T08:49:26.411Z</time>
      </trkpt>
      <trkpt lat="46.88481" lon="8.54058">
        <ele>1663</ele>
        <time>2021-08-11T08:49:27.411Z</time>
      </trkpt>
      <trkpt lat="46.88481" lon="8.54058">
        <ele>1663</ele>
        <time>2021-08-11T08:49:28.412Z</time>
      </trkpt>
      <trkpt lat="46.88481" lon="8.54058">
        <ele>1664</ele>
        <time>2021-08-11T08:49:29.411Z</time>
      </trkpt>
      <trkpt lat="46.88482" lon="8.54058">
        <ele>1664</ele>
        <time>2021-08-11T08:49:30.411Z</time>
      </trkpt>
      <trkpt lat="46.88482" lon="8.54057">
        <ele>1665</ele>
        <time>2021-08-11T08:49:31.411Z</time>
      </trkpt>
      <trkpt lat="46.88482" lon="8.54057">
        <ele>1665</ele>
        <time>2021-08-11T08:49:32.411Z</time>
      </trkpt>
      <trkpt lat="46.88483" lon="8.54057">
        <ele>1666</ele>
        <time>2021-08-11T08:49:33.411Z</time>
      </trkpt>
      <trkpt lat="46.88483" lon="8.54057">
        <ele>1666</ele>
        <time>2021-08-11T08:49:34.411Z</time>
      </trkpt>
      <trkpt lat="46.88483" lon="8.54054">
        <ele>1665</ele>
        <time>2021-08-11T08:49:35.411Z</time>
      </trkpt>
      <trkpt lat="46.88483" lon="8.54054">
        <ele>1665</ele>
        <time>2021-08-11T08:49:36.411Z</time>
      </trkpt>
      <trkpt lat="46.88483" lon="8.54054">
        <ele>1665</ele>
        <time>2021-08-11T08:49:37.411Z</time>
      </trkpt>
      <trkpt lat="46.88484" lon="8.54053">
        <ele>1666</ele>
        <time>2021-08-11T08:49:38.411Z</time>
      </trkpt>
      <trkpt lat="46.88484" lon="8.54053">
        <ele>1666</ele>
        <time>2021-08-11T08:49:39.411Z</time>
      </trkpt>
      <trkpt lat="46.88485" lon="8.54053">
        <ele>1666</ele>
        <time>2021-08-11T08:49:40.411Z</time>
      </trkpt>
      <trkpt lat="46.88486" lon="8.54053">
        <ele>1667</ele>
        <time>2021-08-11T08:49:41.411Z</time>
      </trkpt>
      <trkpt lat="46.88486" lon="8.54052">
        <ele>1667</ele>
        <time>2021-08-11T08:49:42.411Z</time>
      </trkpt>
      <trkpt lat="46.88487" lon="8.54051">
        <ele>1668</ele>
        <time>2021-08-11T08:49:43.411Z</time>
      </trkpt>
      <trkpt lat="46.88487" lon="8.54051">
        <ele>1668</ele>
        <time>2021-08-11T08:49:44.411Z</time>
      </trkpt>
      <trkpt lat="46.88487" lon="8.5405">
        <ele>1669</ele>
        <time>2021-08-11T08:49:45.411Z</time>
      </trkpt>
      <trkpt lat="46.88488" lon="8.54049">
        <ele>1670</ele>
        <time>2021-08-11T08:49:46.411Z</time>
      </trkpt>
      <trkpt lat="46.88488" lon="8.54049">
        <ele>1670</ele>
        <time>2021-08-11T08:49:47.411Z</time>
      </trkpt>
      <trkpt lat="46.88488" lon="8.54048">
        <ele>1671</ele>
        <time>2021-08-11T08:49:48.411Z</time>
      </trkpt>
      <trkpt lat="46.88487" lon="8.54048">
        <ele>1671</ele>
        <time>2021-08-11T08:49:49.411Z</time>
      </trkpt>
      <trkpt lat="46.88487" lon="8.54048">
        <ele>1671</ele>
        <time>2021-08-11T08:49:50.411Z</time>
      </trkpt>
      <trkpt lat="46.88487" lon="8.54047">
        <ele>1671</ele>
        <time>2021-08-11T08:49:51.411Z</time>
      </trkpt>
      <trkpt lat="46.88487" lon="8.54047">
        <ele>1672</ele>
        <time>2021-08-11T08:49:52.411Z</time>
      </trkpt>
      <trkpt lat="46.88487" lon="8.54046">
        <ele>1672</ele>
        <time>2021-08-11T08:49:53.411Z</time>
      </trkpt>
      <trkpt lat="46.88487" lon="8.54046">
        <ele>1672</ele>
        <time>2021-08-11T08:49:54.411Z</time>
      </trkpt>
      <trkpt lat="46.88488" lon="8.54045">
        <ele>1672</ele>
        <time>2021-08-11T08:49:55.411Z</time>
      </trkpt>
      <trkpt lat="46.88488" lon="8.54045">
        <ele>1672</ele>
        <time>2021-08-11T08:49:56.411Z</time>
      </trkpt>
      <trkpt lat="46.88488" lon="8.54045">
        <ele>1672</ele>
        <time>2021-08-11T08:49:57.411Z</time>
      </trkpt>
      <trkpt lat="46.88488" lon="8.54044">
        <ele>1673</ele>
        <time>2021-08-11T08:49:58.411Z</time>
      </trkpt>
      <trkpt lat="46.88489" lon="8.54044">
        <ele>1672</ele>
        <time>2021-08-11T08:49:59.411Z</time>
      </trkpt>
      <trkpt lat="46.88489" lon="8.54043">
        <ele>1672</ele>
        <time>2021-08-11T08:50:00.411Z</time>
      </trkpt>
      <trkpt lat="46.88489" lon="8.54043">
        <ele>1672</ele>
        <time>2021-08-11T08:50:01.411Z</time>
      </trkpt>
      <trkpt lat="46.88489" lon="8.54043">
        <ele>1671</ele>
        <time>2021-08-11T08:50:02.412Z</time>
      </trkpt>
      <trkpt lat="46.88489" lon="8.54042">
        <ele>1671</ele>
        <time>2021-08-11T08:50:03.412Z</time>
      </trkpt>
      <trkpt lat="46.8849" lon="8.54042">
        <ele>1672</ele>
        <time>2021-08-11T08:50:04.412Z</time>
      </trkpt>
      <trkpt lat="46.8849" lon="8.54041">
        <ele>1672</ele>
        <time>2021-08-11T08:50:05.412Z</time>
      </trkpt>
      <trkpt lat="46.88489" lon="8.54041">
        <ele>1673</ele>
        <time>2021-08-11T08:50:06.413Z</time>
      </trkpt>
      <trkpt lat="46.88489" lon="8.5404">
        <ele>1673</ele>
        <time>2021-08-11T08:50:07.413Z</time>
      </trkpt>
      <trkpt lat="46.88489" lon="8.5404">
        <ele>1674</ele>
        <time>2021-08-11T08:50:08.413Z</time>
      </trkpt>
      <trkpt lat="46.8849" lon="8.54039">
        <ele>1675</ele>
        <time>2021-08-11T08:50:09.413Z</time>
      </trkpt>
      <trkpt lat="46.88489" lon="8.54039">
        <ele>1675</ele>
        <time>2021-08-11T08:50:10.413Z</time>
      </trkpt>
      <trkpt lat="46.88489" lon="8.54039">
        <ele>1676</ele>
        <time>2021-08-11T08:50:11.413Z</time>
      </trkpt>
      <trkpt lat="46.88488" lon="8.54039">
        <ele>1677</ele>
        <time>2021-08-11T08:50:12.413Z</time>
      </trkpt>
      <trkpt lat="46.88488" lon="8.54039">
        <ele>1677</ele>
        <time>2021-08-11T08:50:13.413Z</time>
      </trkpt>
      <trkpt lat="46.88488" lon="8.54039">
        <ele>1678</ele>
        <time>2021-08-11T08:50:14.413Z</time>
      </trkpt>
      <trkpt lat="46.88487" lon="8.54039">
        <ele>1678</ele>
        <time>2021-08-11T08:50:15.413Z</time>
      </trkpt>
      <trkpt lat="46.88487" lon="8.5404">
        <ele>1677</ele>
        <time>2021-08-11T08:50:16.413Z</time>
      </trkpt>
      <trkpt lat="46.88486" lon="8.5404">
        <ele>1677</ele>
        <time>2021-08-11T08:50:17.413Z</time>
      </trkpt>
      <trkpt lat="46.88486" lon="8.5404">
        <ele>1676</ele>
        <time>2021-08-11T08:50:18.412Z</time>
      </trkpt>
      <trkpt lat="46.88485" lon="8.54041">
        <ele>1675</ele>
        <time>2021-08-11T08:50:19.413Z</time>
      </trkpt>
      <trkpt lat="46.88485" lon="8.54041">
        <ele>1674</ele>
        <time>2021-08-11T08:50:20.413Z</time>
      </trkpt>
      <trkpt lat="46.88485" lon="8.54041">
        <ele>1674</ele>
        <time>2021-08-11T08:50:21.413Z</time>
      </trkpt>
      <trkpt lat="46.88484" lon="8.54041">
        <ele>1672</ele>
        <time>2021-08-11T08:50:22.414Z</time>
      </trkpt>
      <trkpt lat="46.88484" lon="8.54041">
        <ele>1672</ele>
        <time>2021-08-11T08:50:23.414Z</time>
      </trkpt>
      <trkpt lat="46.88484" lon="8.5404">
        <ele>1672</ele>
        <time>2021-08-11T08:50:24.413Z</time>
      </trkpt>
      <trkpt lat="46.88484" lon="8.5404">
        <ele>1672</ele>
        <time>2021-08-11T08:50:25.414Z</time>
      </trkpt>
      <trkpt lat="46.88483" lon="8.54039">
        <ele>1674</ele>
        <time>2021-08-11T08:50:26.415Z</time>
      </trkpt>
      <trkpt lat="46.88483" lon="8.54039">
        <ele>1675</ele>
        <time>2021-08-11T08:50:27.414Z</time>
      </trkpt>
      <trkpt lat="46.88483" lon="8.54038">
        <ele>1675</ele>
        <time>2021-08-11T08:50:28.414Z</time>
      </trkpt>
      <trkpt lat="46.88484" lon="8.54036">
        <ele>1675</ele>
        <time>2021-08-11T08:50:29.415Z</time>
      </trkpt>
      <trkpt lat="46.88485" lon="8.54036">
        <ele>1674</ele>
        <time>2021-08-11T08:50:30.415Z</time>
      </trkpt>
      <trkpt lat="46.88485" lon="8.54035">
        <ele>1674</ele>
        <time>2021-08-11T08:50:31.414Z</time>
      </trkpt>
      <trkpt lat="46.88486" lon="8.54034">
        <ele>1674</ele>
        <time>2021-08-11T08:50:32.415Z</time>
      </trkpt>
      <trkpt lat="46.88486" lon="8.54034">
        <ele>1674</ele>
        <time>2021-08-11T08:50:33.415Z</time>
      </trkpt>
      <trkpt lat="46.88486" lon="8.54034">
        <ele>1675</ele>
        <time>2021-08-11T08:50:34.414Z</time>
      </trkpt>
      <trkpt lat="46.88486" lon="8.54033">
        <ele>1676</ele>
        <time>2021-08-11T08:50:35.416Z</time>
      </trkpt>
      <trkpt lat="46.88487" lon="8.54032">
        <ele>1676</ele>
        <time>2021-08-11T08:50:36.415Z</time>
      </trkpt>
      <trkpt lat="46.88487" lon="8.54032">
        <ele>1675</ele>
        <time>2021-08-11T08:50:37.415Z</time>
      </trkpt>
      <trkpt lat="46.88487" lon="8.54032">
        <ele>1676</ele>
        <time>2021-08-11T08:50:38.415Z</time>
      </trkpt>
      <trkpt lat="46.88487" lon="8.54032">
        <ele>1676</ele>
        <time>2021-08-11T08:50:39.416Z</time>
      </trkpt>
      <trkpt lat="46.88488" lon="8.54031">
        <ele>1676</ele>
        <time>2021-08-11T08:50:40.415Z</time>
      </trkpt>
      <trkpt lat="46.88488" lon="8.54031">
        <ele>1676</ele>
        <time>2021-08-11T08:50:41.416Z</time>
      </trkpt>
      <trkpt lat="46.88488" lon="8.5403">
        <ele>1677</ele>
        <time>2021-08-11T08:50:42.416Z</time>
      </trkpt>
      <trkpt lat="46.88488" lon="8.5403">
        <ele>1677</ele>
        <time>2021-08-11T08:50:43.416Z</time>
      </trkpt>
      <trkpt lat="46.88489" lon="8.54029">
        <ele>1676</ele>
        <time>2021-08-11T08:50:44.416Z</time>
      </trkpt>
      <trkpt lat="46.88489" lon="8.54029">
        <ele>1676</ele>
        <time>2021-08-11T08:50:45.415Z</time>
      </trkpt>
      <trkpt lat="46.88489" lon="8.54028">
        <ele>1676</ele>
        <time>2021-08-11T08:50:46.416Z</time>
      </trkpt>
      <trkpt lat="46.88489" lon="8.54028">
        <ele>1676</ele>
        <time>2021-08-11T08:50:47.416Z</time>
      </trkpt>
      <trkpt lat="46.8849" lon="8.54028">
        <ele>1677</ele>
        <time>2021-08-11T08:50:48.416Z</time>
      </trkpt>
      <trkpt lat="46.8849" lon="8.54027">
        <ele>1677</ele>
        <time>2021-08-11T08:50:49.416Z</time>
      </trkpt>
      <trkpt lat="46.8849" lon="8.54027">
        <ele>1677</ele>
        <time>2021-08-11T08:50:50.416Z</time>
      </trkpt>
      <trkpt lat="46.8849" lon="8.54028">
        <ele>1678</ele>
        <time>2021-08-11T08:50:51.416Z</time>
      </trkpt>
      <trkpt lat="46.8849" lon="8.54027">
        <ele>1679</ele>
        <time>2021-08-11T08:50:52.416Z</time>
      </trkpt>
      <trkpt lat="46.88492" lon="8.54026">
        <ele>1681</ele>
        <time>2021-08-11T08:50:53.417Z</time>
      </trkpt>
      <trkpt lat="46.88493" lon="8.54025">
        <ele>1681</ele>
        <time>2021-08-11T08:50:54.416Z</time>
      </trkpt>
      <trkpt lat="46.88493" lon="8.54024">
        <ele>1681</ele>
        <time>2021-08-11T08:50:55.416Z</time>
      </trkpt>
      <trkpt lat="46.88493" lon="8.54024">
        <ele>1680</ele>
        <time>2021-08-11T08:50:56.417Z</time>
      </trkpt>
      <trkpt lat="46.88493" lon="8.54023">
        <ele>1680</ele>
        <time>2021-08-11T08:50:57.417Z</time>
      </trkpt>
      <trkpt lat="46.88493" lon="8.54023">
        <ele>1680</ele>
        <time>2021-08-11T08:50:58.416Z</time>
      </trkpt>
      <trkpt lat="46.88494" lon="8.54022">
        <ele>1680</ele>
        <time>2021-08-11T08:50:59.417Z</time>
      </trkpt>
      <trkpt lat="46.88494" lon="8.54022">
        <ele>1680</ele>
        <time>2021-08-11T08:51:00.417Z</time>
      </trkpt>
      <trkpt lat="46.88494" lon="8.54021">
        <ele>1679</ele>
        <time>2021-08-11T08:51:01.416Z</time>
      </trkpt>
      <trkpt lat="46.88494" lon="8.54021">
        <ele>1679</ele>
        <time>2021-08-11T08:51:02.417Z</time>
      </trkpt>
      <trkpt lat="46.88495" lon="8.5402">
        <ele>1679</ele>
        <time>2021-08-11T08:51:03.417Z</time>
      </trkpt>
      <trkpt lat="46.88495" lon="8.5402">
        <ele>1679</ele>
        <time>2021-08-11T08:51:04.417Z</time>
      </trkpt>
      <trkpt lat="46.88496" lon="8.54019">
        <ele>1679</ele>
        <time>2021-08-11T08:51:05.417Z</time>
      </trkpt>
      <trkpt lat="46.88496" lon="8.54019">
        <ele>1679</ele>
        <time>2021-08-11T08:51:06.416Z</time>
      </trkpt>
      <trkpt lat="46.88497" lon="8.54018">
        <ele>1679</ele>
        <time>2021-08-11T08:51:07.417Z</time>
      </trkpt>
      <trkpt lat="46.88497" lon="8.54017">
        <ele>1679</ele>
        <time>2021-08-11T08:51:08.417Z</time>
      </trkpt>
      <trkpt lat="46.88497" lon="8.54017">
        <ele>1679</ele>
        <time>2021-08-11T08:51:09.416Z</time>
      </trkpt>
      <trkpt lat="46.88497" lon="8.54017">
        <ele>1679</ele>
        <time>2021-08-11T08:51:10.417Z</time>
      </trkpt>
      <trkpt lat="46.88497" lon="8.54016">
        <ele>1679</ele>
        <time>2021-08-11T08:51:11.417Z</time>
      </trkpt>
      <trkpt lat="46.88498" lon="8.54016">
        <ele>1679</ele>
        <time>2021-08-11T08:51:12.417Z</time>
      </trkpt>
      <trkpt lat="46.88498" lon="8.54016">
        <ele>1679</ele>
        <time>2021-08-11T08:51:13.417Z</time>
      </trkpt>
      <trkpt lat="46.88499" lon="8.54015">
        <ele>1679</ele>
        <time>2021-08-11T08:51:14.416Z</time>
      </trkpt>
      <trkpt lat="46.88499" lon="8.54015">
        <ele>1680</ele>
        <time>2021-08-11T08:51:15.417Z</time>
      </trkpt>
      <trkpt lat="46.88499" lon="8.54014">
        <ele>1680</ele>
        <time>2021-08-11T08:51:16.416Z</time>
      </trkpt>
      <trkpt lat="46.88499" lon="8.54013">
        <ele>1680</ele>
        <time>2021-08-11T08:51:17.417Z</time>
      </trkpt>
      <trkpt lat="46.88499" lon="8.54013">
        <ele>1680</ele>
        <time>2021-08-11T08:51:18.416Z</time>
      </trkpt>
      <trkpt lat="46.885" lon="8.54012">
        <ele>1681</ele>
        <time>2021-08-11T08:51:19.416Z</time>
      </trkpt>
      <trkpt lat="46.885" lon="8.54011">
        <ele>1681</ele>
        <time>2021-08-11T08:51:20.417Z</time>
      </trkpt>
      <trkpt lat="46.885" lon="8.54011">
        <ele>1681</ele>
        <time>2021-08-11T08:51:21.417Z</time>
      </trkpt>
      <trkpt lat="46.88501" lon="8.5401">
        <ele>1682</ele>
        <time>2021-08-11T08:51:22.417Z</time>
      </trkpt>
      <trkpt lat="46.88501" lon="8.54009">
        <ele>1682</ele>
        <time>2021-08-11T08:51:23.417Z</time>
      </trkpt>
      <trkpt lat="46.88501" lon="8.54009">
        <ele>1682</ele>
        <time>2021-08-11T08:51:24.417Z</time>
      </trkpt>
      <trkpt lat="46.88501" lon="8.54008">
        <ele>1682</ele>
        <time>2021-08-11T08:51:25.416Z</time>
      </trkpt>
      <trkpt lat="46.88501" lon="8.54007">
        <ele>1682</ele>
        <time>2021-08-11T08:51:26.416Z</time>
      </trkpt>
      <trkpt lat="46.88501" lon="8.54006">
        <ele>1682</ele>
        <time>2021-08-11T08:51:27.417Z</time>
      </trkpt>
      <trkpt lat="46.88501" lon="8.54006">
        <ele>1682</ele>
        <time>2021-08-11T08:51:28.417Z</time>
      </trkpt>
      <trkpt lat="46.88502" lon="8.54004">
        <ele>1682</ele>
        <time>2021-08-11T08:51:29.417Z</time>
      </trkpt>
      <trkpt lat="46.88502" lon="8.54004">
        <ele>1682</ele>
        <time>2021-08-11T08:51:30.416Z</time>
      </trkpt>
      <trkpt lat="46.88502" lon="8.54003">
        <ele>1682</ele>
        <time>2021-08-11T08:51:31.416Z</time>
      </trkpt>
      <trkpt lat="46.88502" lon="8.54002">
        <ele>1683</ele>
        <time>2021-08-11T08:51:32.416Z</time>
      </trkpt>
      <trkpt lat="46.88502" lon="8.54002">
        <ele>1683</ele>
        <time>2021-08-11T08:51:33.416Z</time>
      </trkpt>
      <trkpt lat="46.88503" lon="8.54002">
        <ele>1683</ele>
        <time>2021-08-11T08:51:34.417Z</time>
      </trkpt>
      <trkpt lat="46.88503" lon="8.54001">
        <ele>1683</ele>
        <time>2021-08-11T08:51:35.417Z</time>
      </trkpt>
      <trkpt lat="46.88503" lon="8.54001">
        <ele>1684</ele>
        <time>2021-08-11T08:51:36.417Z</time>
      </trkpt>
      <trkpt lat="46.88503" lon="8.54001">
        <ele>1684</ele>
        <time>2021-08-11T08:51:37.416Z</time>
      </trkpt>
      <trkpt lat="46.88503" lon="8.54">
        <ele>1684</ele>
        <time>2021-08-11T08:51:38.417Z</time>
      </trkpt>
      <trkpt lat="46.88504" lon="8.53999">
        <ele>1684</ele>
        <time>2021-08-11T08:51:39.417Z</time>
      </trkpt>
      <trkpt lat="46.88504" lon="8.53999">
        <ele>1685</ele>
        <time>2021-08-11T08:51:40.416Z</time>
      </trkpt>
      <trkpt lat="46.88504" lon="8.53998">
        <ele>1686</ele>
        <time>2021-08-11T08:51:41.417Z</time>
      </trkpt>
      <trkpt lat="46.88504" lon="8.53998">
        <ele>1686</ele>
        <time>2021-08-11T08:51:42.416Z</time>
      </trkpt>
      <trkpt lat="46.88504" lon="8.53997">
        <ele>1686</ele>
        <time>2021-08-11T08:51:43.416Z</time>
      </trkpt>
      <trkpt lat="46.88505" lon="8.53997">
        <ele>1687</ele>
        <time>2021-08-11T08:51:44.417Z</time>
      </trkpt>
      <trkpt lat="46.88505" lon="8.53997">
        <ele>1687</ele>
        <time>2021-08-11T08:51:45.416Z</time>
      </trkpt>
      <trkpt lat="46.88505" lon="8.53997">
        <ele>1687</ele>
        <time>2021-08-11T08:51:46.417Z</time>
      </trkpt>
      <trkpt lat="46.88506" lon="8.53997">
        <ele>1687</ele>
        <time>2021-08-11T08:51:47.417Z</time>
      </trkpt>
      <trkpt lat="46.88506" lon="8.53997">
        <ele>1687</ele>
        <time>2021-08-11T08:51:48.417Z</time>
      </trkpt>
      <trkpt lat="46.88507" lon="8.53998">
        <ele>1687</ele>
        <time>2021-08-11T08:51:49.416Z</time>
      </trkpt>
      <trkpt lat="46.88507" lon="8.53999">
        <ele>1686</ele>
        <time>2021-08-11T08:51:50.417Z</time>
      </trkpt>
      <trkpt lat="46.88507" lon="8.53999">
        <ele>1686</ele>
        <time>2021-08-11T08:51:51.416Z</time>
      </trkpt>
      <trkpt lat="46.88508" lon="8.53999">
        <ele>1685</ele>
        <time>2021-08-11T08:51:52.417Z</time>
      </trkpt>
      <trkpt lat="46.88508" lon="8.53999">
        <ele>1685</ele>
        <time>2021-08-11T08:51:53.417Z</time>
      </trkpt>
      <trkpt lat="46.88508" lon="8.54">
        <ele>1684</ele>
        <time>2021-08-11T08:51:54.419Z</time>
      </trkpt>
      <trkpt lat="46.88509" lon="8.54001">
        <ele>1684</ele>
        <time>2021-08-11T08:51:55.418Z</time>
      </trkpt>
      <trkpt lat="46.88509" lon="8.54001">
        <ele>1684</ele>
        <time>2021-08-11T08:51:56.418Z</time>
      </trkpt>
      <trkpt lat="46.8851" lon="8.54001">
        <ele>1684</ele>
        <time>2021-08-11T08:51:57.419Z</time>
      </trkpt>
      <trkpt lat="46.8851" lon="8.54002">
        <ele>1683</ele>
        <time>2021-08-11T08:51:58.418Z</time>
      </trkpt>
      <trkpt lat="46.8851" lon="8.54002">
        <ele>1683</ele>
        <time>2021-08-11T08:51:59.418Z</time>
      </trkpt>
      <trkpt lat="46.88511" lon="8.54002">
        <ele>1683</ele>
        <time>2021-08-11T08:52:00.419Z</time>
      </trkpt>
      <trkpt lat="46.88512" lon="8.54002">
        <ele>1683</ele>
        <time>2021-08-11T08:52:01.419Z</time>
      </trkpt>
      <trkpt lat="46.88512" lon="8.54002">
        <ele>1684</ele>
        <time>2021-08-11T08:52:02.419Z</time>
      </trkpt>
      <trkpt lat="46.88512" lon="8.54003">
        <ele>1684</ele>
        <time>2021-08-11T08:52:03.418Z</time>
      </trkpt>
      <trkpt lat="46.88513" lon="8.54004">
        <ele>1685</ele>
        <time>2021-08-11T08:52:04.418Z</time>
      </trkpt>
      <trkpt lat="46.88513" lon="8.54005">
        <ele>1685</ele>
        <time>2021-08-11T08:52:05.419Z</time>
      </trkpt>
      <trkpt lat="46.88513" lon="8.54006">
        <ele>1686</ele>
        <time>2021-08-11T08:52:06.419Z</time>
      </trkpt>
      <trkpt lat="46.88513" lon="8.54007">
        <ele>1687</ele>
        <time>2021-08-11T08:52:07.418Z</time>
      </trkpt>
      <trkpt lat="46.88513" lon="8.54007">
        <ele>1687</ele>
        <time>2021-08-11T08:52:08.419Z</time>
      </trkpt>
      <trkpt lat="46.88514" lon="8.54008">
        <ele>1688</ele>
        <time>2021-08-11T08:52:09.419Z</time>
      </trkpt>
      <trkpt lat="46.88514" lon="8.54008">
        <ele>1688</ele>
        <time>2021-08-11T08:52:10.418Z</time>
      </trkpt>
      <trkpt lat="46.88515" lon="8.54009">
        <ele>1689</ele>
        <time>2021-08-11T08:52:11.419Z</time>
      </trkpt>
      <trkpt lat="46.88515" lon="8.54009">
        <ele>1690</ele>
        <time>2021-08-11T08:52:12.418Z</time>
      </trkpt>
      <trkpt lat="46.88516" lon="8.54009">
        <ele>1690</ele>
        <time>2021-08-11T08:52:13.419Z</time>
      </trkpt>
      <trkpt lat="46.88516" lon="8.54008">
        <ele>1691</ele>
        <time>2021-08-11T08:52:14.418Z</time>
      </trkpt>
      <trkpt lat="46.88517" lon="8.54008">
        <ele>1691</ele>
        <time>2021-08-11T08:52:15.418Z</time>
      </trkpt>
      <trkpt lat="46.88517" lon="8.54008">
        <ele>1692</ele>
        <time>2021-08-11T08:52:16.418Z</time>
      </trkpt>
      <trkpt lat="46.88517" lon="8.54008">
        <ele>1692</ele>
        <time>2021-08-11T08:52:17.419Z</time>
      </trkpt>
      <trkpt lat="46.88514" lon="8.54008">
        <ele>1691</ele>
        <time>2021-08-11T08:52:18.419Z</time>
      </trkpt>
      <trkpt lat="46.88515" lon="8.54008">
        <ele>1691</ele>
        <time>2021-08-11T08:52:19.419Z</time>
      </trkpt>
      <trkpt lat="46.88515" lon="8.54007">
        <ele>1691</ele>
        <time>2021-08-11T08:52:20.419Z</time>
      </trkpt>
      <trkpt lat="46.88516" lon="8.54007">
        <ele>1691</ele>
        <time>2021-08-11T08:52:21.419Z</time>
      </trkpt>
      <trkpt lat="46.88517" lon="8.54006">
        <ele>1691</ele>
        <time>2021-08-11T08:52:22.420Z</time>
      </trkpt>
      <trkpt lat="46.88517" lon="8.54004">
        <ele>1692</ele>
        <time>2021-08-11T08:52:23.419Z</time>
      </trkpt>
      <trkpt lat="46.88518" lon="8.54003">
        <ele>1692</ele>
        <time>2021-08-11T08:52:24.419Z</time>
      </trkpt>
      <trkpt lat="46.88518" lon="8.54003">
        <ele>1692</ele>
        <time>2021-08-11T08:52:25.419Z</time>
      </trkpt>
      <trkpt lat="46.88518" lon="8.54003">
        <ele>1692</ele>
        <time>2021-08-11T08:52:26.420Z</time>
      </trkpt>
      <trkpt lat="46.88518" lon="8.54002">
        <ele>1692</ele>
        <time>2021-08-11T08:52:27.420Z</time>
      </trkpt>
      <trkpt lat="46.88519" lon="8.54002">
        <ele>1692</ele>
        <time>2021-08-11T08:52:28.419Z</time>
      </trkpt>
      <trkpt lat="46.88519" lon="8.54002">
        <ele>1693</ele>
        <time>2021-08-11T08:52:29.419Z</time>
      </trkpt>
      <trkpt lat="46.8852" lon="8.54002">
        <ele>1693</ele>
        <time>2021-08-11T08:52:30.420Z</time>
      </trkpt>
      <trkpt lat="46.8852" lon="8.54002">
        <ele>1693</ele>
        <time>2021-08-11T08:52:31.420Z</time>
      </trkpt>
      <trkpt lat="46.8852" lon="8.54002">
        <ele>1693</ele>
        <time>2021-08-11T08:52:32.419Z</time>
      </trkpt>
      <trkpt lat="46.8852" lon="8.54003">
        <ele>1693</ele>
        <time>2021-08-11T08:52:33.419Z</time>
      </trkpt>
      <trkpt lat="46.88521" lon="8.54003">
        <ele>1693</ele>
        <time>2021-08-11T08:52:34.419Z</time>
      </trkpt>
      <trkpt lat="46.88521" lon="8.54002">
        <ele>1694</ele>
        <time>2021-08-11T08:52:35.420Z</time>
      </trkpt>
      <trkpt lat="46.88522" lon="8.54001">
        <ele>1694</ele>
        <time>2021-08-11T08:52:36.419Z</time>
      </trkpt>
      <trkpt lat="46.88521" lon="8.54001">
        <ele>1694</ele>
        <time>2021-08-11T08:52:37.419Z</time>
      </trkpt>
      <trkpt lat="46.88522" lon="8.54001">
        <ele>1693</ele>
        <time>2021-08-11T08:52:38.419Z</time>
      </trkpt>
      <trkpt lat="46.88522" lon="8.54001">
        <ele>1693</ele>
        <time>2021-08-11T08:52:39.419Z</time>
      </trkpt>
      <trkpt lat="46.88522" lon="8.54001">
        <ele>1694</ele>
        <time>2021-08-11T08:52:40.419Z</time>
      </trkpt>
      <trkpt lat="46.88522" lon="8.53999">
        <ele>1695</ele>
        <time>2021-08-11T08:52:41.419Z</time>
      </trkpt>
      <trkpt lat="46.88523" lon="8.53999">
        <ele>1696</ele>
        <time>2021-08-11T08:52:42.420Z</time>
      </trkpt>
      <trkpt lat="46.88523" lon="8.53999">
        <ele>1696</ele>
        <time>2021-08-11T08:52:43.419Z</time>
      </trkpt>
      <trkpt lat="46.88523" lon="8.53999">
        <ele>1696</ele>
        <time>2021-08-11T08:52:44.419Z</time>
      </trkpt>
      <trkpt lat="46.88523" lon="8.53999">
        <ele>1696</ele>
        <time>2021-08-11T08:52:45.420Z</time>
      </trkpt>
      <trkpt lat="46.88523" lon="8.53999">
        <ele>1696</ele>
        <time>2021-08-11T08:52:46.420Z</time>
      </trkpt>
      <trkpt lat="46.88522" lon="8.53999">
        <ele>1696</ele>
        <time>2021-08-11T08:52:47.420Z</time>
      </trkpt>
      <trkpt lat="46.88522" lon="8.53999">
        <ele>1696</ele>
        <time>2021-08-11T08:52:48.420Z</time>
      </trkpt>
      <trkpt lat="46.88522" lon="8.53999">
        <ele>1696</ele>
        <time>2021-08-11T08:52:49.420Z</time>
      </trkpt>
      <trkpt lat="46.88522" lon="8.53998">
        <ele>1697</ele>
        <time>2021-08-11T08:52:50.419Z</time>
      </trkpt>
      <trkpt lat="46.88523" lon="8.53998">
        <ele>1698</ele>
        <time>2021-08-11T08:52:51.420Z</time>
      </trkpt>
      <trkpt lat="46.88523" lon="8.53997">
        <ele>1698</ele>
        <time>2021-08-11T08:52:52.419Z</time>
      </trkpt>
      <trkpt lat="46.88525" lon="8.53998">
        <ele>1696</ele>
        <time>2021-08-11T08:52:53.419Z</time>
      </trkpt>
      <trkpt lat="46.88525" lon="8.53998">
        <ele>1695</ele>
        <time>2021-08-11T08:52:54.419Z</time>
      </trkpt>
      <trkpt lat="46.88525" lon="8.53997">
        <ele>1695</ele>
        <time>2021-08-11T08:52:55.419Z</time>
      </trkpt>
      <trkpt lat="46.88525" lon="8.53996">
        <ele>1695</ele>
        <time>2021-08-11T08:52:56.419Z</time>
      </trkpt>
      <trkpt lat="46.88526" lon="8.53996">
        <ele>1695</ele>
        <time>2021-08-11T08:52:57.419Z</time>
      </trkpt>
      <trkpt lat="46.88527" lon="8.53995">
        <ele>1695</ele>
        <time>2021-08-11T08:52:58.419Z</time>
      </trkpt>
      <trkpt lat="46.88527" lon="8.53995">
        <ele>1695</ele>
        <time>2021-08-11T08:52:59.419Z</time>
      </trkpt>
      <trkpt lat="46.88526" lon="8.53994">
        <ele>1695</ele>
        <time>2021-08-11T08:53:00.419Z</time>
      </trkpt>
      <trkpt lat="46.88526" lon="8.53994">
        <ele>1695</ele>
        <time>2021-08-11T08:53:01.419Z</time>
      </trkpt>
      <trkpt lat="46.88526" lon="8.53993">
        <ele>1695</ele>
        <time>2021-08-11T08:53:02.419Z</time>
      </trkpt>
      <trkpt lat="46.88526" lon="8.53993">
        <ele>1695</ele>
        <time>2021-08-11T08:53:03.419Z</time>
      </trkpt>
      <trkpt lat="46.88525" lon="8.53992">
        <ele>1696</ele>
        <time>2021-08-11T08:53:04.419Z</time>
      </trkpt>
      <trkpt lat="46.88525" lon="8.53992">
        <ele>1696</ele>
        <time>2021-08-11T08:53:05.419Z</time>
      </trkpt>
      <trkpt lat="46.88525" lon="8.53991">
        <ele>1696</ele>
        <time>2021-08-11T08:53:06.419Z</time>
      </trkpt>
      <trkpt lat="46.88525" lon="8.53991">
        <ele>1696</ele>
        <time>2021-08-11T08:53:07.419Z</time>
      </trkpt>
      <trkpt lat="46.88525" lon="8.53991">
        <ele>1696</ele>
        <time>2021-08-11T08:53:08.419Z</time>
      </trkpt>
      <trkpt lat="46.88526" lon="8.5399">
        <ele>1696</ele>
        <time>2021-08-11T08:53:09.419Z</time>
      </trkpt>
      <trkpt lat="46.88526" lon="8.53989">
        <ele>1697</ele>
        <time>2021-08-11T08:53:10.419Z</time>
      </trkpt>
      <trkpt lat="46.88526" lon="8.53988">
        <ele>1697</ele>
        <time>2021-08-11T08:53:11.419Z</time>
      </trkpt>
      <trkpt lat="46.88527" lon="8.53988">
        <ele>1697</ele>
        <time>2021-08-11T08:53:12.419Z</time>
      </trkpt>
      <trkpt lat="46.88528" lon="8.53987">
        <ele>1697</ele>
        <time>2021-08-11T08:53:13.419Z</time>
      </trkpt>
      <trkpt lat="46.88529" lon="8.53987">
        <ele>1697</ele>
        <time>2021-08-11T08:53:14.419Z</time>
      </trkpt>
      <trkpt lat="46.8853" lon="8.53987">
        <ele>1697</ele>
        <time>2021-08-11T08:53:15.419Z</time>
      </trkpt>
      <trkpt lat="46.8853" lon="8.53987">
        <ele>1697</ele>
        <time>2021-08-11T08:53:16.419Z</time>
      </trkpt>
      <trkpt lat="46.88531" lon="8.53987">
        <ele>1696</ele>
        <time>2021-08-11T08:53:17.419Z</time>
      </trkpt>
      <trkpt lat="46.88531" lon="8.53987">
        <ele>1696</ele>
        <time>2021-08-11T08:53:18.419Z</time>
      </trkpt>
      <trkpt lat="46.88531" lon="8.53988">
        <ele>1696</ele>
        <time>2021-08-11T08:53:19.419Z</time>
      </trkpt>
      <trkpt lat="46.88532" lon="8.53988">
        <ele>1696</ele>
        <time>2021-08-11T08:53:20.419Z</time>
      </trkpt>
      <trkpt lat="46.88532" lon="8.53989">
        <ele>1697</ele>
        <time>2021-08-11T08:53:21.419Z</time>
      </trkpt>
      <trkpt lat="46.88533" lon="8.5399">
        <ele>1697</ele>
        <time>2021-08-11T08:53:22.419Z</time>
      </trkpt>
      <trkpt lat="46.88534" lon="8.5399">
        <ele>1697</ele>
        <time>2021-08-11T08:53:23.419Z</time>
      </trkpt>
      <trkpt lat="46.88534" lon="8.5399">
        <ele>1697</ele>
        <time>2021-08-11T08:53:24.419Z</time>
      </trkpt>
      <trkpt lat="46.88535" lon="8.5399">
        <ele>1697</ele>
        <time>2021-08-11T08:53:25.419Z</time>
      </trkpt>
      <trkpt lat="46.88536" lon="8.53989">
        <ele>1697</ele>
        <time>2021-08-11T08:53:26.419Z</time>
      </trkpt>
      <trkpt lat="46.88536" lon="8.53989">
        <ele>1697</ele>
        <time>2021-08-11T08:53:27.419Z</time>
      </trkpt>
      <trkpt lat="46.88537" lon="8.53988">
        <ele>1698</ele>
        <time>2021-08-11T08:53:28.419Z</time>
      </trkpt>
      <trkpt lat="46.88537" lon="8.53988">
        <ele>1698</ele>
        <time>2021-08-11T08:53:29.419Z</time>
      </trkpt>
      <trkpt lat="46.88537" lon="8.53988">
        <ele>1698</ele>
        <time>2021-08-11T08:53:30.419Z</time>
      </trkpt>
      <trkpt lat="46.88537" lon="8.53989">
        <ele>1698</ele>
        <time>2021-08-11T08:53:31.419Z</time>
      </trkpt>
      <trkpt lat="46.88538" lon="8.53989">
        <ele>1698</ele>
        <time>2021-08-11T08:53:32.419Z</time>
      </trkpt>
      <trkpt lat="46.88539" lon="8.53989">
        <ele>1698</ele>
        <time>2021-08-11T08:53:33.419Z</time>
      </trkpt>
      <trkpt lat="46.88539" lon="8.53988">
        <ele>1698</ele>
        <time>2021-08-11T08:53:34.419Z</time>
      </trkpt>
      <trkpt lat="46.88539" lon="8.53988">
        <ele>1698</ele>
        <time>2021-08-11T08:53:35.419Z</time>
      </trkpt>
      <trkpt lat="46.88539" lon="8.53988">
        <ele>1699</ele>
        <time>2021-08-11T08:53:36.419Z</time>
      </trkpt>
      <trkpt lat="46.88539" lon="8.53987">
        <ele>1699</ele>
        <time>2021-08-11T08:53:37.419Z</time>
      </trkpt>
      <trkpt lat="46.88539" lon="8.53986">
        <ele>1699</ele>
        <time>2021-08-11T08:53:38.419Z</time>
      </trkpt>
      <trkpt lat="46.88539" lon="8.53986">
        <ele>1699</ele>
        <time>2021-08-11T08:53:39.419Z</time>
      </trkpt>
      <trkpt lat="46.88539" lon="8.53986">
        <ele>1699</ele>
        <time>2021-08-11T08:53:40.419Z</time>
      </trkpt>
      <trkpt lat="46.88539" lon="8.53985">
        <ele>1699</ele>
        <time>2021-08-11T08:53:41.419Z</time>
      </trkpt>
      <trkpt lat="46.8854" lon="8.53985">
        <ele>1699</ele>
        <time>2021-08-11T08:53:42.419Z</time>
      </trkpt>
      <trkpt lat="46.8854" lon="8.53985">
        <ele>1699</ele>
        <time>2021-08-11T08:53:43.419Z</time>
      </trkpt>
      <trkpt lat="46.8854" lon="8.53985">
        <ele>1700</ele>
        <time>2021-08-11T08:53:44.419Z</time>
      </trkpt>
      <trkpt lat="46.88541" lon="8.53985">
        <ele>1700</ele>
        <time>2021-08-11T08:53:45.419Z</time>
      </trkpt>
      <trkpt lat="46.88541" lon="8.53985">
        <ele>1701</ele>
        <time>2021-08-11T08:53:46.419Z</time>
      </trkpt>
      <trkpt lat="46.88542" lon="8.53984">
        <ele>1701</ele>
        <time>2021-08-11T08:53:47.419Z</time>
      </trkpt>
      <trkpt lat="46.88542" lon="8.53984">
        <ele>1701</ele>
        <time>2021-08-11T08:53:48.419Z</time>
      </trkpt>
      <trkpt lat="46.88543" lon="8.53984">
        <ele>1702</ele>
        <time>2021-08-11T08:53:49.419Z</time>
      </trkpt>
      <trkpt lat="46.88544" lon="8.53984">
        <ele>1702</ele>
        <time>2021-08-11T08:53:50.419Z</time>
      </trkpt>
      <trkpt lat="46.88545" lon="8.53984">
        <ele>1702</ele>
        <time>2021-08-11T08:53:51.419Z</time>
      </trkpt>
      <trkpt lat="46.88545" lon="8.53983">
        <ele>1702</ele>
        <time>2021-08-11T08:53:52.419Z</time>
      </trkpt>
      <trkpt lat="46.88546" lon="8.53983">
        <ele>1703</ele>
        <time>2021-08-11T08:53:53.419Z</time>
      </trkpt>
      <trkpt lat="46.88546" lon="8.53983">
        <ele>1703</ele>
        <time>2021-08-11T08:53:54.419Z</time>
      </trkpt>
      <trkpt lat="46.88547" lon="8.53983">
        <ele>1704</ele>
        <time>2021-08-11T08:53:55.419Z</time>
      </trkpt>
      <trkpt lat="46.88547" lon="8.53982">
        <ele>1705</ele>
        <time>2021-08-11T08:53:56.419Z</time>
      </trkpt>
      <trkpt lat="46.88548" lon="8.53982">
        <ele>1705</ele>
        <time>2021-08-11T08:53:57.419Z</time>
      </trkpt>
      <trkpt lat="46.88548" lon="8.53982">
        <ele>1706</ele>
        <time>2021-08-11T08:53:58.419Z</time>
      </trkpt>
      <trkpt lat="46.88547" lon="8.53983">
        <ele>1706</ele>
        <time>2021-08-11T08:53:59.419Z</time>
      </trkpt>
      <trkpt lat="46.88547" lon="8.53984">
        <ele>1706</ele>
        <time>2021-08-11T08:54:00.419Z</time>
      </trkpt>
      <trkpt lat="46.88548" lon="8.53984">
        <ele>1706</ele>
        <time>2021-08-11T08:54:01.419Z</time>
      </trkpt>
      <trkpt lat="46.88548" lon="8.53985">
        <ele>1706</ele>
        <time>2021-08-11T08:54:02.419Z</time>
      </trkpt>
      <trkpt lat="46.88548" lon="8.53985">
        <ele>1707</ele>
        <time>2021-08-11T08:54:03.419Z</time>
      </trkpt>
      <trkpt lat="46.88548" lon="8.53985">
        <ele>1707</ele>
        <time>2021-08-11T08:54:04.420Z</time>
      </trkpt>
      <trkpt lat="46.88549" lon="8.53984">
        <ele>1707</ele>
        <time>2021-08-11T08:54:05.420Z</time>
      </trkpt>
      <trkpt lat="46.8855" lon="8.53984">
        <ele>1708</ele>
        <time>2021-08-11T08:54:06.420Z</time>
      </trkpt>
      <trkpt lat="46.88551" lon="8.53984">
        <ele>1708</ele>
        <time>2021-08-11T08:54:07.419Z</time>
      </trkpt>
      <trkpt lat="46.88551" lon="8.53984">
        <ele>1708</ele>
        <time>2021-08-11T08:54:08.420Z</time>
      </trkpt>
      <trkpt lat="46.88552" lon="8.53983">
        <ele>1709</ele>
        <time>2021-08-11T08:54:09.419Z</time>
      </trkpt>
      <trkpt lat="46.88553" lon="8.53982">
        <ele>1709</ele>
        <time>2021-08-11T08:54:10.419Z</time>
      </trkpt>
      <trkpt lat="46.88554" lon="8.53981">
        <ele>1709</ele>
        <time>2021-08-11T08:54:11.419Z</time>
      </trkpt>
      <trkpt lat="46.88554" lon="8.53981">
        <ele>1710</ele>
        <time>2021-08-11T08:54:12.419Z</time>
      </trkpt>
      <trkpt lat="46.88555" lon="8.5398">
        <ele>1710</ele>
        <time>2021-08-11T08:54:13.419Z</time>
      </trkpt>
      <trkpt lat="46.88555" lon="8.5398">
        <ele>1710</ele>
        <time>2021-08-11T08:54:14.419Z</time>
      </trkpt>
      <trkpt lat="46.88555" lon="8.53981">
        <ele>1709</ele>
        <time>2021-08-11T08:54:15.420Z</time>
      </trkpt>
      <trkpt lat="46.88556" lon="8.53981">
        <ele>1709</ele>
        <time>2021-08-11T08:54:16.419Z</time>
      </trkpt>
      <trkpt lat="46.88557" lon="8.53981">
        <ele>1709</ele>
        <time>2021-08-11T08:54:17.419Z</time>
      </trkpt>
      <trkpt lat="46.88557" lon="8.53981">
        <ele>1709</ele>
        <time>2021-08-11T08:54:18.419Z</time>
      </trkpt>
      <trkpt lat="46.88558" lon="8.5398">
        <ele>1709</ele>
        <time>2021-08-11T08:54:19.420Z</time>
      </trkpt>
      <trkpt lat="46.88559" lon="8.53979">
        <ele>1709</ele>
        <time>2021-08-11T08:54:20.420Z</time>
      </trkpt>
      <trkpt lat="46.8856" lon="8.53978">
        <ele>1710</ele>
        <time>2021-08-11T08:54:21.419Z</time>
      </trkpt>
      <trkpt lat="46.8856" lon="8.53978">
        <ele>1710</ele>
        <time>2021-08-11T08:54:22.419Z</time>
      </trkpt>
      <trkpt lat="46.8856" lon="8.53977">
        <ele>1710</ele>
        <time>2021-08-11T08:54:23.420Z</time>
      </trkpt>
      <trkpt lat="46.88561" lon="8.53977">
        <ele>1710</ele>
        <time>2021-08-11T08:54:24.419Z</time>
      </trkpt>
      <trkpt lat="46.88562" lon="8.53976">
        <ele>1710</ele>
        <time>2021-08-11T08:54:25.419Z</time>
      </trkpt>
      <trkpt lat="46.88562" lon="8.53975">
        <ele>1710</ele>
        <time>2021-08-11T08:54:26.419Z</time>
      </trkpt>
      <trkpt lat="46.88562" lon="8.53975">
        <ele>1710</ele>
        <time>2021-08-11T08:54:27.420Z</time>
      </trkpt>
      <trkpt lat="46.88562" lon="8.53975">
        <ele>1709</ele>
        <time>2021-08-11T08:54:28.420Z</time>
      </trkpt>
      <trkpt lat="46.88562" lon="8.53975">
        <ele>1708</ele>
        <time>2021-08-11T08:54:29.421Z</time>
      </trkpt>
      <trkpt lat="46.88562" lon="8.53975">
        <ele>1708</ele>
        <time>2021-08-11T08:54:30.421Z</time>
      </trkpt>
      <trkpt lat="46.88562" lon="8.53976">
        <ele>1708</ele>
        <time>2021-08-11T08:54:31.421Z</time>
      </trkpt>
      <trkpt lat="46.88563" lon="8.53976">
        <ele>1708</ele>
        <time>2021-08-11T08:54:32.420Z</time>
      </trkpt>
      <trkpt lat="46.88563" lon="8.53975">
        <ele>1709</ele>
        <time>2021-08-11T08:54:33.421Z</time>
      </trkpt>
      <trkpt lat="46.88561" lon="8.53976">
        <ele>1707</ele>
        <time>2021-08-11T08:54:34.420Z</time>
      </trkpt>
      <trkpt lat="46.8856" lon="8.53976">
        <ele>1707</ele>
        <time>2021-08-11T08:54:35.421Z</time>
      </trkpt>
      <trkpt lat="46.88559" lon="8.53975">
        <ele>1708</ele>
        <time>2021-08-11T08:54:36.420Z</time>
      </trkpt>
      <trkpt lat="46.8856" lon="8.53976">
        <ele>1708</ele>
        <time>2021-08-11T08:54:37.421Z</time>
      </trkpt>
      <trkpt lat="46.8856" lon="8.53975">
        <ele>1708</ele>
        <time>2021-08-11T08:54:38.421Z</time>
      </trkpt>
      <trkpt lat="46.8856" lon="8.53975">
        <ele>1707</ele>
        <time>2021-08-11T08:54:39.422Z</time>
      </trkpt>
      <trkpt lat="46.88561" lon="8.53975">
        <ele>1707</ele>
        <time>2021-08-11T08:54:40.421Z</time>
      </trkpt>
      <trkpt lat="46.88561" lon="8.53975">
        <ele>1707</ele>
        <time>2021-08-11T08:54:41.421Z</time>
      </trkpt>
      <trkpt lat="46.88561" lon="8.53976">
        <ele>1706</ele>
        <time>2021-08-11T08:54:42.422Z</time>
      </trkpt>
      <trkpt lat="46.8856" lon="8.53976">
        <ele>1706</ele>
        <time>2021-08-11T08:54:43.422Z</time>
      </trkpt>
      <trkpt lat="46.88561" lon="8.53976">
        <ele>1706</ele>
        <time>2021-08-11T08:54:44.422Z</time>
      </trkpt>
      <trkpt lat="46.88561" lon="8.53977">
        <ele>1706</ele>
        <time>2021-08-11T08:54:45.422Z</time>
      </trkpt>
      <trkpt lat="46.88561" lon="8.53978">
        <ele>1706</ele>
        <time>2021-08-11T08:54:46.421Z</time>
      </trkpt>
      <trkpt lat="46.88563" lon="8.53976">
        <ele>1704</ele>
        <time>2021-08-11T08:54:47.423Z</time>
      </trkpt>
      <trkpt lat="46.88563" lon="8.53975">
        <ele>1704</ele>
        <time>2021-08-11T08:54:48.423Z</time>
      </trkpt>
      <trkpt lat="46.88563" lon="8.53975">
        <ele>1704</ele>
        <time>2021-08-11T08:54:49.423Z</time>
      </trkpt>
      <trkpt lat="46.88563" lon="8.53974">
        <ele>1704</ele>
        <time>2021-08-11T08:54:50.422Z</time>
      </trkpt>
      <trkpt lat="46.88562" lon="8.53973">
        <ele>1704</ele>
        <time>2021-08-11T08:54:51.422Z</time>
      </trkpt>
      <trkpt lat="46.88562" lon="8.53973">
        <ele>1704</ele>
        <time>2021-08-11T08:54:52.423Z</time>
      </trkpt>
      <trkpt lat="46.88562" lon="8.53972">
        <ele>1703</ele>
        <time>2021-08-11T08:54:53.422Z</time>
      </trkpt>
      <trkpt lat="46.88563" lon="8.53972">
        <ele>1703</ele>
        <time>2021-08-11T08:54:54.423Z</time>
      </trkpt>
      <trkpt lat="46.88564" lon="8.53971">
        <ele>1702</ele>
        <time>2021-08-11T08:54:55.422Z</time>
      </trkpt>
      <trkpt lat="46.88564" lon="8.5397">
        <ele>1703</ele>
        <time>2021-08-11T08:54:56.423Z</time>
      </trkpt>
      <trkpt lat="46.88564" lon="8.53969">
        <ele>1703</ele>
        <time>2021-08-11T08:54:57.423Z</time>
      </trkpt>
      <trkpt lat="46.88564" lon="8.53968">
        <ele>1703</ele>
        <time>2021-08-11T08:54:58.422Z</time>
      </trkpt>
      <trkpt lat="46.88564" lon="8.53968">
        <ele>1704</ele>
        <time>2021-08-11T08:54:59.423Z</time>
      </trkpt>
      <trkpt lat="46.88564" lon="8.53968">
        <ele>1704</ele>
        <time>2021-08-11T08:55:00.423Z</time>
      </trkpt>
      <trkpt lat="46.88565" lon="8.53968">
        <ele>1704</ele>
        <time>2021-08-11T08:55:01.423Z</time>
      </trkpt>
      <trkpt lat="46.88565" lon="8.53967">
        <ele>1705</ele>
        <time>2021-08-11T08:55:02.423Z</time>
      </trkpt>
      <trkpt lat="46.88566" lon="8.53967">
        <ele>1705</ele>
        <time>2021-08-11T08:55:03.422Z</time>
      </trkpt>
      <trkpt lat="46.88566" lon="8.53967">
        <ele>1705</ele>
        <time>2021-08-11T08:55:04.423Z</time>
      </trkpt>
      <trkpt lat="46.88567" lon="8.53968">
        <ele>1705</ele>
        <time>2021-08-11T08:55:05.423Z</time>
      </trkpt>
      <trkpt lat="46.88567" lon="8.53967">
        <ele>1706</ele>
        <time>2021-08-11T08:55:06.422Z</time>
      </trkpt>
      <trkpt lat="46.88567" lon="8.53966">
        <ele>1706</ele>
        <time>2021-08-11T08:55:07.423Z</time>
      </trkpt>
      <trkpt lat="46.88568" lon="8.53965">
        <ele>1706</ele>
        <time>2021-08-11T08:55:08.423Z</time>
      </trkpt>
      <trkpt lat="46.88568" lon="8.53964">
        <ele>1706</ele>
        <time>2021-08-11T08:55:09.422Z</time>
      </trkpt>
      <trkpt lat="46.88568" lon="8.53963">
        <ele>1706</ele>
        <time>2021-08-11T08:55:10.422Z</time>
      </trkpt>
      <trkpt lat="46.88568" lon="8.53963">
        <ele>1706</ele>
        <time>2021-08-11T08:55:11.423Z</time>
      </trkpt>
      <trkpt lat="46.88567" lon="8.53962">
        <ele>1706</ele>
        <time>2021-08-11T08:55:12.423Z</time>
      </trkpt>
      <trkpt lat="46.88567" lon="8.53962">
        <ele>1706</ele>
        <time>2021-08-11T08:55:13.423Z</time>
      </trkpt>
      <trkpt lat="46.88566" lon="8.53962">
        <ele>1706</ele>
        <time>2021-08-11T08:55:14.423Z</time>
      </trkpt>
      <trkpt lat="46.88566" lon="8.53961">
        <ele>1706</ele>
        <time>2021-08-11T08:55:15.422Z</time>
      </trkpt>
      <trkpt lat="46.88565" lon="8.53961">
        <ele>1706</ele>
        <time>2021-08-11T08:55:16.423Z</time>
      </trkpt>
      <trkpt lat="46.88565" lon="8.5396">
        <ele>1706</ele>
        <time>2021-08-11T08:55:17.422Z</time>
      </trkpt>
      <trkpt lat="46.88564" lon="8.5396">
        <ele>1707</ele>
        <time>2021-08-11T08:55:18.423Z</time>
      </trkpt>
      <trkpt lat="46.88564" lon="8.5396">
        <ele>1707</ele>
        <time>2021-08-11T08:55:19.423Z</time>
      </trkpt>
      <trkpt lat="46.88564" lon="8.53959">
        <ele>1707</ele>
        <time>2021-08-11T08:55:20.422Z</time>
      </trkpt>
      <trkpt lat="46.88563" lon="8.53959">
        <ele>1708</ele>
        <time>2021-08-11T08:55:21.423Z</time>
      </trkpt>
      <trkpt lat="46.88563" lon="8.53959">
        <ele>1708</ele>
        <time>2021-08-11T08:55:22.423Z</time>
      </trkpt>
      <trkpt lat="46.88562" lon="8.53959">
        <ele>1708</ele>
        <time>2021-08-11T08:55:23.422Z</time>
      </trkpt>
      <trkpt lat="46.88562" lon="8.53959">
        <ele>1708</ele>
        <time>2021-08-11T08:55:24.423Z</time>
      </trkpt>
      <trkpt lat="46.88561" lon="8.53959">
        <ele>1708</ele>
        <time>2021-08-11T08:55:25.423Z</time>
      </trkpt>
      <trkpt lat="46.88559" lon="8.53959">
        <ele>1712</ele>
        <time>2021-08-11T08:55:26.423Z</time>
      </trkpt>
      <trkpt lat="46.88559" lon="8.53959">
        <ele>1713</ele>
        <time>2021-08-11T08:55:27.423Z</time>
      </trkpt>
      <trkpt lat="46.88559" lon="8.53958">
        <ele>1714</ele>
        <time>2021-08-11T08:55:28.423Z</time>
      </trkpt>
      <trkpt lat="46.88559" lon="8.53957">
        <ele>1714</ele>
        <time>2021-08-11T08:55:29.422Z</time>
      </trkpt>
      <trkpt lat="46.88559" lon="8.53957">
        <ele>1714</ele>
        <time>2021-08-11T08:55:30.422Z</time>
      </trkpt>
      <trkpt lat="46.88559" lon="8.53957">
        <ele>1714</ele>
        <time>2021-08-11T08:55:31.423Z</time>
      </trkpt>
      <trkpt lat="46.8856" lon="8.53956">
        <ele>1713</ele>
        <time>2021-08-11T08:55:32.424Z</time>
      </trkpt>
      <trkpt lat="46.8856" lon="8.53956">
        <ele>1713</ele>
        <time>2021-08-11T08:55:33.424Z</time>
      </trkpt>
      <trkpt lat="46.8856" lon="8.53955">
        <ele>1713</ele>
        <time>2021-08-11T08:55:34.424Z</time>
      </trkpt>
      <trkpt lat="46.8856" lon="8.53954">
        <ele>1713</ele>
        <time>2021-08-11T08:55:35.423Z</time>
      </trkpt>
      <trkpt lat="46.8856" lon="8.53954">
        <ele>1713</ele>
        <time>2021-08-11T08:55:36.424Z</time>
      </trkpt>
      <trkpt lat="46.8856" lon="8.53954">
        <ele>1713</ele>
        <time>2021-08-11T08:55:37.424Z</time>
      </trkpt>
      <trkpt lat="46.8856" lon="8.53953">
        <ele>1713</ele>
        <time>2021-08-11T08:55:38.423Z</time>
      </trkpt>
      <trkpt lat="46.88561" lon="8.53953">
        <ele>1713</ele>
        <time>2021-08-11T08:55:39.424Z</time>
      </trkpt>
      <trkpt lat="46.88561" lon="8.53952">
        <ele>1714</ele>
        <time>2021-08-11T08:55:40.423Z</time>
      </trkpt>
      <trkpt lat="46.88562" lon="8.53952">
        <ele>1714</ele>
        <time>2021-08-11T08:55:41.424Z</time>
      </trkpt>
      <trkpt lat="46.88562" lon="8.53952">
        <ele>1714</ele>
        <time>2021-08-11T08:55:42.424Z</time>
      </trkpt>
      <trkpt lat="46.88562" lon="8.53951">
        <ele>1714</ele>
        <time>2021-08-11T08:55:43.424Z</time>
      </trkpt>
      <trkpt lat="46.88563" lon="8.5395">
        <ele>1714</ele>
        <time>2021-08-11T08:55:44.423Z</time>
      </trkpt>
      <trkpt lat="46.88563" lon="8.5395">
        <ele>1714</ele>
        <time>2021-08-11T08:55:45.424Z</time>
      </trkpt>
      <trkpt lat="46.88564" lon="8.53949">
        <ele>1715</ele>
        <time>2021-08-11T08:55:46.424Z</time>
      </trkpt>
      <trkpt lat="46.88564" lon="8.53949">
        <ele>1715</ele>
        <time>2021-08-11T08:55:47.424Z</time>
      </trkpt>
      <trkpt lat="46.88565" lon="8.53949">
        <ele>1715</ele>
        <time>2021-08-11T08:55:48.423Z</time>
      </trkpt>
      <trkpt lat="46.88565" lon="8.53948">
        <ele>1715</ele>
        <time>2021-08-11T08:55:49.423Z</time>
      </trkpt>
      <trkpt lat="46.88566" lon="8.53948">
        <ele>1715</ele>
        <time>2021-08-11T08:55:50.423Z</time>
      </trkpt>
      <trkpt lat="46.88566" lon="8.53948">
        <ele>1715</ele>
        <time>2021-08-11T08:55:51.424Z</time>
      </trkpt>
      <trkpt lat="46.88566" lon="8.53947">
        <ele>1715</ele>
        <time>2021-08-11T08:55:52.423Z</time>
      </trkpt>
      <trkpt lat="46.88567" lon="8.53947">
        <ele>1715</ele>
        <time>2021-08-11T08:55:53.423Z</time>
      </trkpt>
      <trkpt lat="46.88567" lon="8.53947">
        <ele>1715</ele>
        <time>2021-08-11T08:55:54.423Z</time>
      </trkpt>
      <trkpt lat="46.88567" lon="8.53946">
        <ele>1716</ele>
        <time>2021-08-11T08:55:55.424Z</time>
      </trkpt>
      <trkpt lat="46.88567" lon="8.53946">
        <ele>1716</ele>
        <time>2021-08-11T08:55:56.424Z</time>
      </trkpt>
      <trkpt lat="46.88568" lon="8.53945">
        <ele>1716</ele>
        <time>2021-08-11T08:55:57.423Z</time>
      </trkpt>
      <trkpt lat="46.88568" lon="8.53944">
        <ele>1716</ele>
        <time>2021-08-11T08:55:58.424Z</time>
      </trkpt>
      <trkpt lat="46.88568" lon="8.53944">
        <ele>1716</ele>
        <time>2021-08-11T08:55:59.424Z</time>
      </trkpt>
      <trkpt lat="46.88569" lon="8.53942">
        <ele>1717</ele>
        <time>2021-08-11T08:56:00.425Z</time>
      </trkpt>
      <trkpt lat="46.88569" lon="8.53941">
        <ele>1717</ele>
        <time>2021-08-11T08:56:01.425Z</time>
      </trkpt>
      <trkpt lat="46.8857" lon="8.53941">
        <ele>1717</ele>
        <time>2021-08-11T08:56:02.424Z</time>
      </trkpt>
      <trkpt lat="46.8857" lon="8.5394">
        <ele>1717</ele>
        <time>2021-08-11T08:56:03.425Z</time>
      </trkpt>
      <trkpt lat="46.8857" lon="8.53939">
        <ele>1717</ele>
        <time>2021-08-11T08:56:04.425Z</time>
      </trkpt>
      <trkpt lat="46.88571" lon="8.53939">
        <ele>1717</ele>
        <time>2021-08-11T08:56:05.425Z</time>
      </trkpt>
      <trkpt lat="46.88571" lon="8.53938">
        <ele>1717</ele>
        <time>2021-08-11T08:56:06.424Z</time>
      </trkpt>
      <trkpt lat="46.88571" lon="8.53938">
        <ele>1717</ele>
        <time>2021-08-11T08:56:07.425Z</time>
      </trkpt>
      <trkpt lat="46.88571" lon="8.53937">
        <ele>1717</ele>
        <time>2021-08-11T08:56:08.425Z</time>
      </trkpt>
      <trkpt lat="46.88572" lon="8.53937">
        <ele>1717</ele>
        <time>2021-08-11T08:56:09.425Z</time>
      </trkpt>
      <trkpt lat="46.88572" lon="8.53937">
        <ele>1717</ele>
        <time>2021-08-11T08:56:10.424Z</time>
      </trkpt>
      <trkpt lat="46.88572" lon="8.53936">
        <ele>1718</ele>
        <time>2021-08-11T08:56:11.424Z</time>
      </trkpt>
      <trkpt lat="46.88572" lon="8.53936">
        <ele>1718</ele>
        <time>2021-08-11T08:56:12.425Z</time>
      </trkpt>
      <trkpt lat="46.88573" lon="8.53935">
        <ele>1716</ele>
        <time>2021-08-11T08:56:13.426Z</time>
      </trkpt>
      <trkpt lat="46.88572" lon="8.53934">
        <ele>1716</ele>
        <time>2021-08-11T08:56:14.427Z</time>
      </trkpt>
      <trkpt lat="46.88571" lon="8.53933">
        <ele>1715</ele>
        <time>2021-08-11T08:56:15.427Z</time>
      </trkpt>
      <trkpt lat="46.88571" lon="8.53932">
        <ele>1715</ele>
        <time>2021-08-11T08:56:16.426Z</time>
      </trkpt>
      <trkpt lat="46.8857" lon="8.53931">
        <ele>1716</ele>
        <time>2021-08-11T08:56:17.426Z</time>
      </trkpt>
      <trkpt lat="46.88569" lon="8.53931">
        <ele>1715</ele>
        <time>2021-08-11T08:56:18.427Z</time>
      </trkpt>
      <trkpt lat="46.88569" lon="8.53931">
        <ele>1715</ele>
        <time>2021-08-11T08:56:19.427Z</time>
      </trkpt>
      <trkpt lat="46.88569" lon="8.5393">
        <ele>1715</ele>
        <time>2021-08-11T08:56:20.427Z</time>
      </trkpt>
      <trkpt lat="46.88569" lon="8.5393">
        <ele>1715</ele>
        <time>2021-08-11T08:56:21.426Z</time>
      </trkpt>
      <trkpt lat="46.8857" lon="8.5393">
        <ele>1715</ele>
        <time>2021-08-11T08:56:22.427Z</time>
      </trkpt>
      <trkpt lat="46.8857" lon="8.53929">
        <ele>1715</ele>
        <time>2021-08-11T08:56:23.427Z</time>
      </trkpt>
      <trkpt lat="46.8857" lon="8.53929">
        <ele>1715</ele>
        <time>2021-08-11T08:56:24.427Z</time>
      </trkpt>
      <trkpt lat="46.8857" lon="8.53928">
        <ele>1715</ele>
        <time>2021-08-11T08:56:25.426Z</time>
      </trkpt>
      <trkpt lat="46.88569" lon="8.53927">
        <ele>1716</ele>
        <time>2021-08-11T08:56:26.426Z</time>
      </trkpt>
      <trkpt lat="46.88569" lon="8.53926">
        <ele>1716</ele>
        <time>2021-08-11T08:56:27.427Z</time>
      </trkpt>
      <trkpt lat="46.88568" lon="8.53926">
        <ele>1716</ele>
        <time>2021-08-11T08:56:28.426Z</time>
      </trkpt>
      <trkpt lat="46.88567" lon="8.53925">
        <ele>1717</ele>
        <time>2021-08-11T08:56:29.426Z</time>
      </trkpt>
      <trkpt lat="46.88567" lon="8.53925">
        <ele>1718</ele>
        <time>2021-08-11T08:56:30.427Z</time>
      </trkpt>
      <trkpt lat="46.88565" lon="8.53924">
        <ele>1721</ele>
        <time>2021-08-11T08:56:31.427Z</time>
      </trkpt>
      <trkpt lat="46.88565" lon="8.53924">
        <ele>1721</ele>
        <time>2021-08-11T08:56:32.426Z</time>
      </trkpt>
      <trkpt lat="46.88564" lon="8.53924">
        <ele>1722</ele>
        <time>2021-08-11T08:56:33.428Z</time>
      </trkpt>
      <trkpt lat="46.88563" lon="8.53924">
        <ele>1722</ele>
        <time>2021-08-11T08:56:34.429Z</time>
      </trkpt>
      <trkpt lat="46.88563" lon="8.53924">
        <ele>1722</ele>
        <time>2021-08-11T08:56:35.428Z</time>
      </trkpt>
      <trkpt lat="46.88562" lon="8.53923">
        <ele>1720</ele>
        <time>2021-08-11T08:56:36.428Z</time>
      </trkpt>
      <trkpt lat="46.88562" lon="8.53923">
        <ele>1719</ele>
        <time>2021-08-11T08:56:37.428Z</time>
      </trkpt>
      <trkpt lat="46.88563" lon="8.53922">
        <ele>1719</ele>
        <time>2021-08-11T08:56:38.428Z</time>
      </trkpt>
      <trkpt lat="46.88563" lon="8.53921">
        <ele>1718</ele>
        <time>2021-08-11T08:56:39.428Z</time>
      </trkpt>
      <trkpt lat="46.88563" lon="8.53921">
        <ele>1718</ele>
        <time>2021-08-11T08:56:40.429Z</time>
      </trkpt>
      <trkpt lat="46.88563" lon="8.5392">
        <ele>1719</ele>
        <time>2021-08-11T08:56:41.428Z</time>
      </trkpt>
      <trkpt lat="46.88563" lon="8.5392">
        <ele>1719</ele>
        <time>2021-08-11T08:56:42.429Z</time>
      </trkpt>
      <trkpt lat="46.88562" lon="8.5392">
        <ele>1720</ele>
        <time>2021-08-11T08:56:43.429Z</time>
      </trkpt>
      <trkpt lat="46.88562" lon="8.5392">
        <ele>1720</ele>
        <time>2021-08-11T08:56:44.429Z</time>
      </trkpt>
      <trkpt lat="46.88562" lon="8.53921">
        <ele>1720</ele>
        <time>2021-08-11T08:56:45.428Z</time>
      </trkpt>
      <trkpt lat="46.88562" lon="8.53921">
        <ele>1721</ele>
        <time>2021-08-11T08:56:46.429Z</time>
      </trkpt>
      <trkpt lat="46.88562" lon="8.53921">
        <ele>1721</ele>
        <time>2021-08-11T08:56:47.429Z</time>
      </trkpt>
      <trkpt lat="46.88561" lon="8.53922">
        <ele>1721</ele>
        <time>2021-08-11T08:56:48.429Z</time>
      </trkpt>
      <trkpt lat="46.88561" lon="8.53921">
        <ele>1721</ele>
        <time>2021-08-11T08:56:49.429Z</time>
      </trkpt>
      <trkpt lat="46.88561" lon="8.53921">
        <ele>1722</ele>
        <time>2021-08-11T08:56:50.429Z</time>
      </trkpt>
      <trkpt lat="46.88561" lon="8.5392">
        <ele>1722</ele>
        <time>2021-08-11T08:56:51.428Z</time>
      </trkpt>
      <trkpt lat="46.8856" lon="8.53919">
        <ele>1722</ele>
        <time>2021-08-11T08:56:52.429Z</time>
      </trkpt>
      <trkpt lat="46.8856" lon="8.53919">
        <ele>1723</ele>
        <time>2021-08-11T08:56:53.429Z</time>
      </trkpt>
      <trkpt lat="46.8856" lon="8.53919">
        <ele>1723</ele>
        <time>2021-08-11T08:56:54.429Z</time>
      </trkpt>
      <trkpt lat="46.88559" lon="8.53918">
        <ele>1723</ele>
        <time>2021-08-11T08:56:55.429Z</time>
      </trkpt>
      <trkpt lat="46.88559" lon="8.53918">
        <ele>1724</ele>
        <time>2021-08-11T08:56:56.428Z</time>
      </trkpt>
      <trkpt lat="46.88558" lon="8.53918">
        <ele>1724</ele>
        <time>2021-08-11T08:56:57.429Z</time>
      </trkpt>
      <trkpt lat="46.88557" lon="8.53918">
        <ele>1724</ele>
        <time>2021-08-11T08:56:58.429Z</time>
      </trkpt>
      <trkpt lat="46.88557" lon="8.53917">
        <ele>1724</ele>
        <time>2021-08-11T08:56:59.429Z</time>
      </trkpt>
      <trkpt lat="46.88557" lon="8.53917">
        <ele>1724</ele>
        <time>2021-08-11T08:57:00.429Z</time>
      </trkpt>
      <trkpt lat="46.88557" lon="8.53916">
        <ele>1724</ele>
        <time>2021-08-11T08:57:01.428Z</time>
      </trkpt>
      <trkpt lat="46.88556" lon="8.53916">
        <ele>1724</ele>
        <time>2021-08-11T08:57:02.429Z</time>
      </trkpt>
      <trkpt lat="46.88556" lon="8.53917">
        <ele>1724</ele>
        <time>2021-08-11T08:57:03.429Z</time>
      </trkpt>
      <trkpt lat="46.88555" lon="8.53916">
        <ele>1728</ele>
        <time>2021-08-11T08:57:04.429Z</time>
      </trkpt>
      <trkpt lat="46.88555" lon="8.53916">
        <ele>1728</ele>
        <time>2021-08-11T08:57:05.429Z</time>
      </trkpt>
      <trkpt lat="46.88554" lon="8.53915">
        <ele>1728</ele>
        <time>2021-08-11T08:57:06.428Z</time>
      </trkpt>
      <trkpt lat="46.88554" lon="8.53916">
        <ele>1729</ele>
        <time>2021-08-11T08:57:07.428Z</time>
      </trkpt>
      <trkpt lat="46.88554" lon="8.53917">
        <ele>1729</ele>
        <time>2021-08-11T08:57:08.428Z</time>
      </trkpt>
      <trkpt lat="46.88554" lon="8.53916">
        <ele>1730</ele>
        <time>2021-08-11T08:57:09.429Z</time>
      </trkpt>
      <trkpt lat="46.88554" lon="8.53916">
        <ele>1730</ele>
        <time>2021-08-11T08:57:10.429Z</time>
      </trkpt>
      <trkpt lat="46.88553" lon="8.53915">
        <ele>1730</ele>
        <time>2021-08-11T08:57:11.428Z</time>
      </trkpt>
      <trkpt lat="46.88553" lon="8.53915">
        <ele>1731</ele>
        <time>2021-08-11T08:57:12.430Z</time>
      </trkpt>
      <trkpt lat="46.88553" lon="8.53915">
        <ele>1731</ele>
        <time>2021-08-11T08:57:13.430Z</time>
      </trkpt>
      <trkpt lat="46.88553" lon="8.53915">
        <ele>1731</ele>
        <time>2021-08-11T08:57:14.430Z</time>
      </trkpt>
      <trkpt lat="46.88553" lon="8.53915">
        <ele>1731</ele>
        <time>2021-08-11T08:57:15.430Z</time>
      </trkpt>
      <trkpt lat="46.88552" lon="8.53915">
        <ele>1730</ele>
        <time>2021-08-11T08:57:16.430Z</time>
      </trkpt>
      <trkpt lat="46.88552" lon="8.53915">
        <ele>1730</ele>
        <time>2021-08-11T08:57:17.430Z</time>
      </trkpt>
      <trkpt lat="46.88551" lon="8.53913">
        <ele>1729</ele>
        <time>2021-08-11T08:57:18.429Z</time>
      </trkpt>
      <trkpt lat="46.88551" lon="8.53913">
        <ele>1729</ele>
        <time>2021-08-11T08:57:19.430Z</time>
      </trkpt>
      <trkpt lat="46.8855" lon="8.53913">
        <ele>1729</ele>
        <time>2021-08-11T08:57:20.429Z</time>
      </trkpt>
      <trkpt lat="46.88549" lon="8.53913">
        <ele>1731</ele>
        <time>2021-08-11T08:57:21.429Z</time>
      </trkpt>
      <trkpt lat="46.88548" lon="8.53913">
        <ele>1731</ele>
        <time>2021-08-11T08:57:22.430Z</time>
      </trkpt>
      <trkpt lat="46.88548" lon="8.53913">
        <ele>1732</ele>
        <time>2021-08-11T08:57:23.429Z</time>
      </trkpt>
      <trkpt lat="46.88547" lon="8.53913">
        <ele>1733</ele>
        <time>2021-08-11T08:57:24.430Z</time>
      </trkpt>
      <trkpt lat="46.88547" lon="8.53913">
        <ele>1733</ele>
        <time>2021-08-11T08:57:25.430Z</time>
      </trkpt>
      <trkpt lat="46.88546" lon="8.53914">
        <ele>1737</ele>
        <time>2021-08-11T08:57:26.430Z</time>
      </trkpt>
      <trkpt lat="46.88547" lon="8.53914">
        <ele>1737</ele>
        <time>2021-08-11T08:57:27.430Z</time>
      </trkpt>
      <trkpt lat="46.88547" lon="8.53913">
        <ele>1737</ele>
        <time>2021-08-11T08:57:28.429Z</time>
      </trkpt>
      <trkpt lat="46.88547" lon="8.53913">
        <ele>1737</ele>
        <time>2021-08-11T08:57:29.431Z</time>
      </trkpt>
      <trkpt lat="46.88547" lon="8.53912">
        <ele>1737</ele>
        <time>2021-08-11T08:57:30.430Z</time>
      </trkpt>
      <trkpt lat="46.88548" lon="8.53911">
        <ele>1737</ele>
        <time>2021-08-11T08:57:31.430Z</time>
      </trkpt>
      <trkpt lat="46.88549" lon="8.53911">
        <ele>1737</ele>
        <time>2021-08-11T08:57:32.431Z</time>
      </trkpt>
      <trkpt lat="46.8855" lon="8.53911">
        <ele>1737</ele>
        <time>2021-08-11T08:57:33.430Z</time>
      </trkpt>
      <trkpt lat="46.8855" lon="8.5391">
        <ele>1737</ele>
        <time>2021-08-11T08:57:34.431Z</time>
      </trkpt>
      <trkpt lat="46.8855" lon="8.5391">
        <ele>1737</ele>
        <time>2021-08-11T08:57:35.431Z</time>
      </trkpt>
      <trkpt lat="46.8855" lon="8.5391">
        <ele>1737</ele>
        <time>2021-08-11T08:57:36.431Z</time>
      </trkpt>
      <trkpt lat="46.8855" lon="8.53909">
        <ele>1737</ele>
        <time>2021-08-11T08:57:37.431Z</time>
      </trkpt>
      <trkpt lat="46.88551" lon="8.5391">
        <ele>1737</ele>
        <time>2021-08-11T08:57:38.431Z</time>
      </trkpt>
      <trkpt lat="46.88551" lon="8.5391">
        <ele>1738</ele>
        <time>2021-08-11T08:57:39.431Z</time>
      </trkpt>
      <trkpt lat="46.88551" lon="8.5391">
        <ele>1738</ele>
        <time>2021-08-11T08:57:40.430Z</time>
      </trkpt>
      <trkpt lat="46.88551" lon="8.5391">
        <ele>1738</ele>
        <time>2021-08-11T08:57:41.431Z</time>
      </trkpt>
      <trkpt lat="46.88551" lon="8.53909">
        <ele>1738</ele>
        <time>2021-08-11T08:57:42.430Z</time>
      </trkpt>
      <trkpt lat="46.88553" lon="8.53909">
        <ele>1737</ele>
        <time>2021-08-11T08:57:43.430Z</time>
      </trkpt>
      <trkpt lat="46.88553" lon="8.53908">
        <ele>1737</ele>
        <time>2021-08-11T08:57:44.430Z</time>
      </trkpt>
      <trkpt lat="46.88554" lon="8.53907">
        <ele>1737</ele>
        <time>2021-08-11T08:57:45.430Z</time>
      </trkpt>
      <trkpt lat="46.88554" lon="8.53907">
        <ele>1737</ele>
        <time>2021-08-11T08:57:46.430Z</time>
      </trkpt>
      <trkpt lat="46.88554" lon="8.53906">
        <ele>1737</ele>
        <time>2021-08-11T08:57:47.430Z</time>
      </trkpt>
      <trkpt lat="46.88554" lon="8.53906">
        <ele>1738</ele>
        <time>2021-08-11T08:57:48.430Z</time>
      </trkpt>
      <trkpt lat="46.88555" lon="8.53905">
        <ele>1738</ele>
        <time>2021-08-11T08:57:49.430Z</time>
      </trkpt>
      <trkpt lat="46.88554" lon="8.53906">
        <ele>1738</ele>
        <time>2021-08-11T08:57:50.430Z</time>
      </trkpt>
      <trkpt lat="46.88554" lon="8.53905">
        <ele>1738</ele>
        <time>2021-08-11T08:57:51.431Z</time>
      </trkpt>
      <trkpt lat="46.88554" lon="8.53905">
        <ele>1738</ele>
        <time>2021-08-11T08:57:52.431Z</time>
      </trkpt>
      <trkpt lat="46.88555" lon="8.53905">
        <ele>1738</ele>
        <time>2021-08-11T08:57:53.431Z</time>
      </trkpt>
      <trkpt lat="46.88556" lon="8.53904">
        <ele>1738</ele>
        <time>2021-08-11T08:57:54.431Z</time>
      </trkpt>
      <trkpt lat="46.88556" lon="8.53904">
        <ele>1738</ele>
        <time>2021-08-11T08:57:55.431Z</time>
      </trkpt>
      <trkpt lat="46.88557" lon="8.53904">
        <ele>1737</ele>
        <time>2021-08-11T08:57:56.431Z</time>
      </trkpt>
      <trkpt lat="46.88557" lon="8.53903">
        <ele>1737</ele>
        <time>2021-08-11T08:57:57.431Z</time>
      </trkpt>
      <trkpt lat="46.88558" lon="8.53901">
        <ele>1737</ele>
        <time>2021-08-11T08:57:58.430Z</time>
      </trkpt>
      <trkpt lat="46.88559" lon="8.53901">
        <ele>1736</ele>
        <time>2021-08-11T08:57:59.431Z</time>
      </trkpt>
      <trkpt lat="46.88559" lon="8.539">
        <ele>1736</ele>
        <time>2021-08-11T08:58:00.431Z</time>
      </trkpt>
      <trkpt lat="46.88559" lon="8.53899">
        <ele>1737</ele>
        <time>2021-08-11T08:58:01.431Z</time>
      </trkpt>
      <trkpt lat="46.8856" lon="8.53899">
        <ele>1737</ele>
        <time>2021-08-11T08:58:02.430Z</time>
      </trkpt>
      <trkpt lat="46.88561" lon="8.53898">
        <ele>1737</ele>
        <time>2021-08-11T08:58:03.431Z</time>
      </trkpt>
      <trkpt lat="46.88562" lon="8.53897">
        <ele>1737</ele>
        <time>2021-08-11T08:58:04.430Z</time>
      </trkpt>
      <trkpt lat="46.88562" lon="8.53897">
        <ele>1737</ele>
        <time>2021-08-11T08:58:05.430Z</time>
      </trkpt>
      <trkpt lat="46.88563" lon="8.53897">
        <ele>1737</ele>
        <time>2021-08-11T08:58:06.431Z</time>
      </trkpt>
      <trkpt lat="46.88563" lon="8.53896">
        <ele>1738</ele>
        <time>2021-08-11T08:58:07.431Z</time>
      </trkpt>
      <trkpt lat="46.88563" lon="8.53896">
        <ele>1738</ele>
        <time>2021-08-11T08:58:08.431Z</time>
      </trkpt>
      <trkpt lat="46.88563" lon="8.53895">
        <ele>1738</ele>
        <time>2021-08-11T08:58:09.430Z</time>
      </trkpt>
      <trkpt lat="46.88563" lon="8.53894">
        <ele>1738</ele>
        <time>2021-08-11T08:58:10.430Z</time>
      </trkpt>
      <trkpt lat="46.88563" lon="8.53893">
        <ele>1738</ele>
        <time>2021-08-11T08:58:11.431Z</time>
      </trkpt>
      <trkpt lat="46.88563" lon="8.53892">
        <ele>1737</ele>
        <time>2021-08-11T08:58:12.430Z</time>
      </trkpt>
      <trkpt lat="46.88564" lon="8.53892">
        <ele>1737</ele>
        <time>2021-08-11T08:58:13.430Z</time>
      </trkpt>
      <trkpt lat="46.88564" lon="8.53891">
        <ele>1736</ele>
        <time>2021-08-11T08:58:14.431Z</time>
      </trkpt>
      <trkpt lat="46.88565" lon="8.5389">
        <ele>1736</ele>
        <time>2021-08-11T08:58:15.431Z</time>
      </trkpt>
      <trkpt lat="46.88565" lon="8.53889">
        <ele>1736</ele>
        <time>2021-08-11T08:58:16.430Z</time>
      </trkpt>
      <trkpt lat="46.88565" lon="8.53888">
        <ele>1736</ele>
        <time>2021-08-11T08:58:17.431Z</time>
      </trkpt>
      <trkpt lat="46.88566" lon="8.53887">
        <ele>1737</ele>
        <time>2021-08-11T08:58:18.430Z</time>
      </trkpt>
      <trkpt lat="46.88565" lon="8.53886">
        <ele>1741</ele>
        <time>2021-08-11T08:58:19.430Z</time>
      </trkpt>
      <trkpt lat="46.88563" lon="8.53886">
        <ele>1738</ele>
        <time>2021-08-11T08:58:20.431Z</time>
      </trkpt>
      <trkpt lat="46.88563" lon="8.53885">
        <ele>1738</ele>
        <time>2021-08-11T08:58:21.431Z</time>
      </trkpt>
      <trkpt lat="46.88564" lon="8.53883">
        <ele>1738</ele>
        <time>2021-08-11T08:58:22.430Z</time>
      </trkpt>
      <trkpt lat="46.88564" lon="8.53883">
        <ele>1738</ele>
        <time>2021-08-11T08:58:23.430Z</time>
      </trkpt>
      <trkpt lat="46.88565" lon="8.53882">
        <ele>1738</ele>
        <time>2021-08-11T08:58:24.430Z</time>
      </trkpt>
      <trkpt lat="46.88565" lon="8.53882">
        <ele>1738</ele>
        <time>2021-08-11T08:58:25.431Z</time>
      </trkpt>
      <trkpt lat="46.88565" lon="8.53881">
        <ele>1738</ele>
        <time>2021-08-11T08:58:26.430Z</time>
      </trkpt>
      <trkpt lat="46.88566" lon="8.5388">
        <ele>1737</ele>
        <time>2021-08-11T08:58:27.431Z</time>
      </trkpt>
      <trkpt lat="46.88566" lon="8.5388">
        <ele>1737</ele>
        <time>2021-08-11T08:58:28.431Z</time>
      </trkpt>
      <trkpt lat="46.88567" lon="8.53879">
        <ele>1737</ele>
        <time>2021-08-11T08:58:29.431Z</time>
      </trkpt>
      <trkpt lat="46.88567" lon="8.53878">
        <ele>1736</ele>
        <time>2021-08-11T08:58:30.431Z</time>
      </trkpt>
      <trkpt lat="46.88567" lon="8.53878">
        <ele>1736</ele>
        <time>2021-08-11T08:58:31.430Z</time>
      </trkpt>
      <trkpt lat="46.88568" lon="8.53878">
        <ele>1736</ele>
        <time>2021-08-11T08:58:32.430Z</time>
      </trkpt>
      <trkpt lat="46.88568" lon="8.53877">
        <ele>1736</ele>
        <time>2021-08-11T08:58:33.431Z</time>
      </trkpt>
      <trkpt lat="46.88568" lon="8.53877">
        <ele>1735</ele>
        <time>2021-08-11T08:58:34.431Z</time>
      </trkpt>
      <trkpt lat="46.88568" lon="8.53876">
        <ele>1735</ele>
        <time>2021-08-11T08:58:35.431Z</time>
      </trkpt>
      <trkpt lat="46.88568" lon="8.53876">
        <ele>1734</ele>
        <time>2021-08-11T08:58:36.431Z</time>
      </trkpt>
      <trkpt lat="46.88568" lon="8.53875">
        <ele>1734</ele>
        <time>2021-08-11T08:58:37.430Z</time>
      </trkpt>
      <trkpt lat="46.88567" lon="8.53875">
        <ele>1734</ele>
        <time>2021-08-11T08:58:38.431Z</time>
      </trkpt>
      <trkpt lat="46.88568" lon="8.53873">
        <ele>1734</ele>
        <time>2021-08-11T08:58:39.431Z</time>
      </trkpt>
      <trkpt lat="46.88568" lon="8.53873">
        <ele>1734</ele>
        <time>2021-08-11T08:58:40.431Z</time>
      </trkpt>
      <trkpt lat="46.88568" lon="8.53872">
        <ele>1734</ele>
        <time>2021-08-11T08:58:41.431Z</time>
      </trkpt>
      <trkpt lat="46.88568" lon="8.53871">
        <ele>1734</ele>
        <time>2021-08-11T08:58:42.430Z</time>
      </trkpt>
      <trkpt lat="46.88568" lon="8.5387">
        <ele>1734</ele>
        <time>2021-08-11T08:58:43.430Z</time>
      </trkpt>
      <trkpt lat="46.88569" lon="8.53869">
        <ele>1733</ele>
        <time>2021-08-11T08:58:44.431Z</time>
      </trkpt>
      <trkpt lat="46.8857" lon="8.53868">
        <ele>1733</ele>
        <time>2021-08-11T08:58:45.431Z</time>
      </trkpt>
      <trkpt lat="46.88571" lon="8.53868">
        <ele>1733</ele>
        <time>2021-08-11T08:58:46.431Z</time>
      </trkpt>
      <trkpt lat="46.88572" lon="8.53868">
        <ele>1733</ele>
        <time>2021-08-11T08:58:47.431Z</time>
      </trkpt>
      <trkpt lat="46.88571" lon="8.53867">
        <ele>1733</ele>
        <time>2021-08-11T08:58:48.430Z</time>
      </trkpt>
      <trkpt lat="46.88571" lon="8.53866">
        <ele>1734</ele>
        <time>2021-08-11T08:58:49.431Z</time>
      </trkpt>
      <trkpt lat="46.88571" lon="8.53865">
        <ele>1734</ele>
        <time>2021-08-11T08:58:50.431Z</time>
      </trkpt>
      <trkpt lat="46.88572" lon="8.53865">
        <ele>1734</ele>
        <time>2021-08-11T08:58:51.431Z</time>
      </trkpt>
      <trkpt lat="46.88572" lon="8.53865">
        <ele>1734</ele>
        <time>2021-08-11T08:58:52.431Z</time>
      </trkpt>
      <trkpt lat="46.88573" lon="8.53865">
        <ele>1734</ele>
        <time>2021-08-11T08:58:53.430Z</time>
      </trkpt>
      <trkpt lat="46.88574" lon="8.53864">
        <ele>1733</ele>
        <time>2021-08-11T08:58:54.430Z</time>
      </trkpt>
      <trkpt lat="46.88574" lon="8.53863">
        <ele>1733</ele>
        <time>2021-08-11T08:58:55.431Z</time>
      </trkpt>
      <trkpt lat="46.88574" lon="8.53859">
        <ele>1729</ele>
        <time>2021-08-11T08:58:56.431Z</time>
      </trkpt>
      <trkpt lat="46.88575" lon="8.53859">
        <ele>1729</ele>
        <time>2021-08-11T08:58:57.431Z</time>
      </trkpt>
      <trkpt lat="46.88575" lon="8.53858">
        <ele>1729</ele>
        <time>2021-08-11T08:58:58.430Z</time>
      </trkpt>
      <trkpt lat="46.88576" lon="8.53858">
        <ele>1729</ele>
        <time>2021-08-11T08:58:59.430Z</time>
      </trkpt>
      <trkpt lat="46.88577" lon="8.53858">
        <ele>1729</ele>
        <time>2021-08-11T08:59:00.431Z</time>
      </trkpt>
      <trkpt lat="46.88577" lon="8.53858">
        <ele>1729</ele>
        <time>2021-08-11T08:59:01.430Z</time>
      </trkpt>
      <trkpt lat="46.88577" lon="8.53857">
        <ele>1730</ele>
        <time>2021-08-11T08:59:02.431Z</time>
      </trkpt>
      <trkpt lat="46.88578" lon="8.53857">
        <ele>1730</ele>
        <time>2021-08-11T08:59:03.431Z</time>
      </trkpt>
      <trkpt lat="46.88578" lon="8.53857">
        <ele>1731</ele>
        <time>2021-08-11T08:59:04.431Z</time>
      </trkpt>
      <trkpt lat="46.88579" lon="8.53856">
        <ele>1732</ele>
        <time>2021-08-11T08:59:05.431Z</time>
      </trkpt>
      <trkpt lat="46.8858" lon="8.53856">
        <ele>1733</ele>
        <time>2021-08-11T08:59:06.431Z</time>
      </trkpt>
      <trkpt lat="46.88581" lon="8.53856">
        <ele>1733</ele>
        <time>2021-08-11T08:59:07.431Z</time>
      </trkpt>
      <trkpt lat="46.88582" lon="8.53855">
        <ele>1734</ele>
        <time>2021-08-11T08:59:08.430Z</time>
      </trkpt>
      <trkpt lat="46.88582" lon="8.53855">
        <ele>1735</ele>
        <time>2021-08-11T08:59:09.431Z</time>
      </trkpt>
      <trkpt lat="46.88583" lon="8.53854">
        <ele>1735</ele>
        <time>2021-08-11T08:59:10.431Z</time>
      </trkpt>
      <trkpt lat="46.88584" lon="8.53854">
        <ele>1736</ele>
        <time>2021-08-11T08:59:11.430Z</time>
      </trkpt>
      <trkpt lat="46.88584" lon="8.53854">
        <ele>1736</ele>
        <time>2021-08-11T08:59:12.431Z</time>
      </trkpt>
      <trkpt lat="46.88585" lon="8.53854">
        <ele>1737</ele>
        <time>2021-08-11T08:59:13.431Z</time>
      </trkpt>
      <trkpt lat="46.88585" lon="8.53853">
        <ele>1737</ele>
        <time>2021-08-11T08:59:14.431Z</time>
      </trkpt>
      <trkpt lat="46.88586" lon="8.53853">
        <ele>1738</ele>
        <time>2021-08-11T08:59:15.431Z</time>
      </trkpt>
      <trkpt lat="46.88587" lon="8.53853">
        <ele>1738</ele>
        <time>2021-08-11T08:59:16.431Z</time>
      </trkpt>
      <trkpt lat="46.88588" lon="8.53853">
        <ele>1739</ele>
        <time>2021-08-11T08:59:17.430Z</time>
      </trkpt>
      <trkpt lat="46.8859" lon="8.53853">
        <ele>1740</ele>
        <time>2021-08-11T08:59:18.431Z</time>
      </trkpt>
      <trkpt lat="46.88591" lon="8.53852">
        <ele>1740</ele>
        <time>2021-08-11T08:59:19.431Z</time>
      </trkpt>
      <trkpt lat="46.88591" lon="8.53851">
        <ele>1741</ele>
        <time>2021-08-11T08:59:20.430Z</time>
      </trkpt>
      <trkpt lat="46.88592" lon="8.5385">
        <ele>1741</ele>
        <time>2021-08-11T08:59:21.431Z</time>
      </trkpt>
      <trkpt lat="46.88593" lon="8.53849">
        <ele>1742</ele>
        <time>2021-08-11T08:59:22.431Z</time>
      </trkpt>
      <trkpt lat="46.88594" lon="8.53848">
        <ele>1742</ele>
        <time>2021-08-11T08:59:23.431Z</time>
      </trkpt>
      <trkpt lat="46.88594" lon="8.53848">
        <ele>1743</ele>
        <time>2021-08-11T08:59:24.430Z</time>
      </trkpt>
      <trkpt lat="46.88595" lon="8.53847">
        <ele>1743</ele>
        <time>2021-08-11T08:59:25.431Z</time>
      </trkpt>
      <trkpt lat="46.88595" lon="8.53846">
        <ele>1743</ele>
        <time>2021-08-11T08:59:26.431Z</time>
      </trkpt>
      <trkpt lat="46.88596" lon="8.53845">
        <ele>1743</ele>
        <time>2021-08-11T08:59:27.430Z</time>
      </trkpt>
      <trkpt lat="46.88597" lon="8.53844">
        <ele>1743</ele>
        <time>2021-08-11T08:59:28.431Z</time>
      </trkpt>
      <trkpt lat="46.88597" lon="8.53844">
        <ele>1743</ele>
        <time>2021-08-11T08:59:29.431Z</time>
      </trkpt>
      <trkpt lat="46.88598" lon="8.53843">
        <ele>1743</ele>
        <time>2021-08-11T08:59:30.430Z</time>
      </trkpt>
      <trkpt lat="46.88599" lon="8.53843">
        <ele>1743</ele>
        <time>2021-08-11T08:59:31.431Z</time>
      </trkpt>
      <trkpt lat="46.88599" lon="8.53843">
        <ele>1743</ele>
        <time>2021-08-11T08:59:32.431Z</time>
      </trkpt>
      <trkpt lat="46.886" lon="8.53843">
        <ele>1742</ele>
        <time>2021-08-11T08:59:33.431Z</time>
      </trkpt>
      <trkpt lat="46.886" lon="8.53843">
        <ele>1743</ele>
        <time>2021-08-11T08:59:34.430Z</time>
      </trkpt>
      <trkpt lat="46.88601" lon="8.53843">
        <ele>1743</ele>
        <time>2021-08-11T08:59:35.431Z</time>
      </trkpt>
      <trkpt lat="46.88601" lon="8.53844">
        <ele>1743</ele>
        <time>2021-08-11T08:59:36.431Z</time>
      </trkpt>
      <trkpt lat="46.88601" lon="8.53843">
        <ele>1744</ele>
        <time>2021-08-11T08:59:37.430Z</time>
      </trkpt>
      <trkpt lat="46.88601" lon="8.53843">
        <ele>1744</ele>
        <time>2021-08-11T08:59:38.431Z</time>
      </trkpt>
      <trkpt lat="46.88602" lon="8.53843">
        <ele>1744</ele>
        <time>2021-08-11T08:59:39.431Z</time>
      </trkpt>
      <trkpt lat="46.88602" lon="8.53843">
        <ele>1744</ele>
        <time>2021-08-11T08:59:40.430Z</time>
      </trkpt>
      <trkpt lat="46.88603" lon="8.53842">
        <ele>1744</ele>
        <time>2021-08-11T08:59:41.431Z</time>
      </trkpt>
      <trkpt lat="46.88603" lon="8.53842">
        <ele>1743</ele>
        <time>2021-08-11T08:59:42.431Z</time>
      </trkpt>
      <trkpt lat="46.88603" lon="8.53842">
        <ele>1743</ele>
        <time>2021-08-11T08:59:43.430Z</time>
      </trkpt>
      <trkpt lat="46.88601" lon="8.53843">
        <ele>1744</ele>
        <time>2021-08-11T08:59:44.430Z</time>
      </trkpt>
      <trkpt lat="46.88602" lon="8.53843">
        <ele>1745</ele>
        <time>2021-08-11T08:59:45.430Z</time>
      </trkpt>
      <trkpt lat="46.88602" lon="8.53842">
        <ele>1746</ele>
        <time>2021-08-11T08:59:46.430Z</time>
      </trkpt>
      <trkpt lat="46.88603" lon="8.53841">
        <ele>1747</ele>
        <time>2021-08-11T08:59:47.430Z</time>
      </trkpt>
      <trkpt lat="46.88603" lon="8.53841">
        <ele>1747</ele>
        <time>2021-08-11T08:59:48.431Z</time>
      </trkpt>
      <trkpt lat="46.88603" lon="8.53841">
        <ele>1747</ele>
        <time>2021-08-11T08:59:49.431Z</time>
      </trkpt>
      <trkpt lat="46.88604" lon="8.5384">
        <ele>1747</ele>
        <time>2021-08-11T08:59:50.430Z</time>
      </trkpt>
      <trkpt lat="46.88604" lon="8.5384">
        <ele>1747</ele>
        <time>2021-08-11T08:59:51.431Z</time>
      </trkpt>
      <trkpt lat="46.88604" lon="8.53838">
        <ele>1747</ele>
        <time>2021-08-11T08:59:52.431Z</time>
      </trkpt>
      <trkpt lat="46.88604" lon="8.53838">
        <ele>1747</ele>
        <time>2021-08-11T08:59:53.430Z</time>
      </trkpt>
      <trkpt lat="46.88604" lon="8.53837">
        <ele>1746</ele>
        <time>2021-08-11T08:59:54.431Z</time>
      </trkpt>
      <trkpt lat="46.88605" lon="8.53837">
        <ele>1746</ele>
        <time>2021-08-11T08:59:55.431Z</time>
      </trkpt>
      <trkpt lat="46.88605" lon="8.53836">
        <ele>1746</ele>
        <time>2021-08-11T08:59:56.430Z</time>
      </trkpt>
      <trkpt lat="46.88606" lon="8.53836">
        <ele>1746</ele>
        <time>2021-08-11T08:59:57.431Z</time>
      </trkpt>
      <trkpt lat="46.88606" lon="8.53835">
        <ele>1746</ele>
        <time>2021-08-11T08:59:58.431Z</time>
      </trkpt>
      <trkpt lat="46.88607" lon="8.53835">
        <ele>1747</ele>
        <time>2021-08-11T08:59:59.430Z</time>
      </trkpt>
      <trkpt lat="46.88607" lon="8.53834">
        <ele>1747</ele>
        <time>2021-08-11T09:00:00.431Z</time>
      </trkpt>
      <trkpt lat="46.88608" lon="8.53834">
        <ele>1747</ele>
        <time>2021-08-11T09:00:01.430Z</time>
      </trkpt>
      <trkpt lat="46.88608" lon="8.53834">
        <ele>1748</ele>
        <time>2021-08-11T09:00:02.430Z</time>
      </trkpt>
      <trkpt lat="46.88609" lon="8.53833">
        <ele>1748</ele>
        <time>2021-08-11T09:00:03.431Z</time>
      </trkpt>
      <trkpt lat="46.88609" lon="8.53832">
        <ele>1749</ele>
        <time>2021-08-11T09:00:04.431Z</time>
      </trkpt>
      <trkpt lat="46.8861" lon="8.53831">
        <ele>1749</ele>
        <time>2021-08-11T09:00:05.430Z</time>
      </trkpt>
      <trkpt lat="46.8861" lon="8.53829">
        <ele>1749</ele>
        <time>2021-08-11T09:00:06.431Z</time>
      </trkpt>
      <trkpt lat="46.88611" lon="8.53829">
        <ele>1749</ele>
        <time>2021-08-11T09:00:07.431Z</time>
      </trkpt>
      <trkpt lat="46.88611" lon="8.53828">
        <ele>1749</ele>
        <time>2021-08-11T09:00:08.431Z</time>
      </trkpt>
      <trkpt lat="46.88612" lon="8.53827">
        <ele>1750</ele>
        <time>2021-08-11T09:00:09.430Z</time>
      </trkpt>
      <trkpt lat="46.88612" lon="8.53827">
        <ele>1750</ele>
        <time>2021-08-11T09:00:10.431Z</time>
      </trkpt>
      <trkpt lat="46.88613" lon="8.53827">
        <ele>1751</ele>
        <time>2021-08-11T09:00:11.430Z</time>
      </trkpt>
      <trkpt lat="46.88614" lon="8.53827">
        <ele>1751</ele>
        <time>2021-08-11T09:00:12.431Z</time>
      </trkpt>
      <trkpt lat="46.88614" lon="8.53826">
        <ele>1752</ele>
        <time>2021-08-11T09:00:13.430Z</time>
      </trkpt>
      <trkpt lat="46.88615" lon="8.53825">
        <ele>1752</ele>
        <time>2021-08-11T09:00:14.430Z</time>
      </trkpt>
      <trkpt lat="46.88615" lon="8.53825">
        <ele>1752</ele>
        <time>2021-08-11T09:00:15.430Z</time>
      </trkpt>
      <trkpt lat="46.88616" lon="8.53825">
        <ele>1752</ele>
        <time>2021-08-11T09:00:16.431Z</time>
      </trkpt>
      <trkpt lat="46.88616" lon="8.53825">
        <ele>1753</ele>
        <time>2021-08-11T09:00:17.431Z</time>
      </trkpt>
      <trkpt lat="46.88617" lon="8.53825">
        <ele>1754</ele>
        <time>2021-08-11T09:00:18.431Z</time>
      </trkpt>
      <trkpt lat="46.88618" lon="8.53825">
        <ele>1754</ele>
        <time>2021-08-11T09:00:19.431Z</time>
      </trkpt>
      <trkpt lat="46.88619" lon="8.53824">
        <ele>1755</ele>
        <time>2021-08-11T09:00:20.430Z</time>
      </trkpt>
      <trkpt lat="46.8862" lon="8.53824">
        <ele>1755</ele>
        <time>2021-08-11T09:00:21.431Z</time>
      </trkpt>
      <trkpt lat="46.8862" lon="8.53824">
        <ele>1756</ele>
        <time>2021-08-11T09:00:22.431Z</time>
      </trkpt>
      <trkpt lat="46.8862" lon="8.53824">
        <ele>1756</ele>
        <time>2021-08-11T09:00:23.430Z</time>
      </trkpt>
      <trkpt lat="46.88621" lon="8.53823">
        <ele>1757</ele>
        <time>2021-08-11T09:00:24.431Z</time>
      </trkpt>
      <trkpt lat="46.88621" lon="8.53822">
        <ele>1757</ele>
        <time>2021-08-11T09:00:25.431Z</time>
      </trkpt>
      <trkpt lat="46.88621" lon="8.53822">
        <ele>1756</ele>
        <time>2021-08-11T09:00:26.431Z</time>
      </trkpt>
      <trkpt lat="46.88621" lon="8.53821">
        <ele>1756</ele>
        <time>2021-08-11T09:00:27.431Z</time>
      </trkpt>
      <trkpt lat="46.88622" lon="8.5382">
        <ele>1756</ele>
        <time>2021-08-11T09:00:28.431Z</time>
      </trkpt>
      <trkpt lat="46.88623" lon="8.53819">
        <ele>1755</ele>
        <time>2021-08-11T09:00:29.431Z</time>
      </trkpt>
      <trkpt lat="46.88624" lon="8.53818">
        <ele>1755</ele>
        <time>2021-08-11T09:00:30.431Z</time>
      </trkpt>
      <trkpt lat="46.88624" lon="8.53818">
        <ele>1754</ele>
        <time>2021-08-11T09:00:31.431Z</time>
      </trkpt>
      <trkpt lat="46.88624" lon="8.53818">
        <ele>1754</ele>
        <time>2021-08-11T09:00:32.431Z</time>
      </trkpt>
      <trkpt lat="46.88625" lon="8.53817">
        <ele>1754</ele>
        <time>2021-08-11T09:00:33.431Z</time>
      </trkpt>
      <trkpt lat="46.88625" lon="8.53817">
        <ele>1753</ele>
        <time>2021-08-11T09:00:34.430Z</time>
      </trkpt>
      <trkpt lat="46.88625" lon="8.53817">
        <ele>1753</ele>
        <time>2021-08-11T09:00:35.431Z</time>
      </trkpt>
      <trkpt lat="46.88625" lon="8.53818">
        <ele>1753</ele>
        <time>2021-08-11T09:00:36.430Z</time>
      </trkpt>
      <trkpt lat="46.88626" lon="8.53816">
        <ele>1754</ele>
        <time>2021-08-11T09:00:37.432Z</time>
      </trkpt>
      <trkpt lat="46.88626" lon="8.53815">
        <ele>1754</ele>
        <time>2021-08-11T09:00:38.432Z</time>
      </trkpt>
      <trkpt lat="46.88626" lon="8.53815">
        <ele>1754</ele>
        <time>2021-08-11T09:00:39.431Z</time>
      </trkpt>
      <trkpt lat="46.88626" lon="8.53816">
        <ele>1755</ele>
        <time>2021-08-11T09:00:40.432Z</time>
      </trkpt>
      <trkpt lat="46.88627" lon="8.53816">
        <ele>1755</ele>
        <time>2021-08-11T09:00:41.432Z</time>
      </trkpt>
      <trkpt lat="46.88628" lon="8.53815">
        <ele>1755</ele>
        <time>2021-08-11T09:00:42.433Z</time>
      </trkpt>
      <trkpt lat="46.88629" lon="8.53815">
        <ele>1755</ele>
        <time>2021-08-11T09:00:43.432Z</time>
      </trkpt>
      <trkpt lat="46.88629" lon="8.53815">
        <ele>1755</ele>
        <time>2021-08-11T09:00:44.432Z</time>
      </trkpt>
      <trkpt lat="46.8863" lon="8.53815">
        <ele>1755</ele>
        <time>2021-08-11T09:00:45.433Z</time>
      </trkpt>
      <trkpt lat="46.8863" lon="8.53815">
        <ele>1755</ele>
        <time>2021-08-11T09:00:46.433Z</time>
      </trkpt>
      <trkpt lat="46.8863" lon="8.53814">
        <ele>1755</ele>
        <time>2021-08-11T09:00:47.432Z</time>
      </trkpt>
      <trkpt lat="46.8863" lon="8.53813">
        <ele>1755</ele>
        <time>2021-08-11T09:00:48.433Z</time>
      </trkpt>
      <trkpt lat="46.8863" lon="8.53813">
        <ele>1754</ele>
        <time>2021-08-11T09:00:49.433Z</time>
      </trkpt>
      <trkpt lat="46.8863" lon="8.53812">
        <ele>1754</ele>
        <time>2021-08-11T09:00:50.432Z</time>
      </trkpt>
      <trkpt lat="46.88631" lon="8.53812">
        <ele>1754</ele>
        <time>2021-08-11T09:00:51.433Z</time>
      </trkpt>
      <trkpt lat="46.88631" lon="8.53812">
        <ele>1754</ele>
        <time>2021-08-11T09:00:52.433Z</time>
      </trkpt>
      <trkpt lat="46.88632" lon="8.53811">
        <ele>1754</ele>
        <time>2021-08-11T09:00:53.433Z</time>
      </trkpt>
      <trkpt lat="46.88632" lon="8.5381">
        <ele>1755</ele>
        <time>2021-08-11T09:00:54.432Z</time>
      </trkpt>
      <trkpt lat="46.88632" lon="8.5381">
        <ele>1755</ele>
        <time>2021-08-11T09:00:55.433Z</time>
      </trkpt>
      <trkpt lat="46.88632" lon="8.53811">
        <ele>1755</ele>
        <time>2021-08-11T09:00:56.433Z</time>
      </trkpt>
      <trkpt lat="46.88633" lon="8.53812">
        <ele>1756</ele>
        <time>2021-08-11T09:00:57.433Z</time>
      </trkpt>
      <trkpt lat="46.88633" lon="8.53812">
        <ele>1756</ele>
        <time>2021-08-11T09:00:58.432Z</time>
      </trkpt>
      <trkpt lat="46.88634" lon="8.53811">
        <ele>1761</ele>
        <time>2021-08-11T09:00:59.434Z</time>
      </trkpt>
      <trkpt lat="46.88634" lon="8.53812">
        <ele>1762</ele>
        <time>2021-08-11T09:01:00.434Z</time>
      </trkpt>
      <trkpt lat="46.88636" lon="8.5381">
        <ele>1763</ele>
        <time>2021-08-11T09:01:01.435Z</time>
      </trkpt>
      <trkpt lat="46.88636" lon="8.53809">
        <ele>1763</ele>
        <time>2021-08-11T09:01:02.434Z</time>
      </trkpt>
      <trkpt lat="46.88636" lon="8.53809">
        <ele>1762</ele>
        <time>2021-08-11T09:01:03.434Z</time>
      </trkpt>
      <trkpt lat="46.88636" lon="8.53809">
        <ele>1762</ele>
        <time>2021-08-11T09:01:04.434Z</time>
      </trkpt>
      <trkpt lat="46.88637" lon="8.53808">
        <ele>1762</ele>
        <time>2021-08-11T09:01:05.434Z</time>
      </trkpt>
      <trkpt lat="46.88637" lon="8.53806">
        <ele>1763</ele>
        <time>2021-08-11T09:01:06.435Z</time>
      </trkpt>
      <trkpt lat="46.88639" lon="8.53807">
        <ele>1764</ele>
        <time>2021-08-11T09:01:07.434Z</time>
      </trkpt>
      <trkpt lat="46.88639" lon="8.53807">
        <ele>1763</ele>
        <time>2021-08-11T09:01:08.435Z</time>
      </trkpt>
      <trkpt lat="46.88639" lon="8.53807">
        <ele>1763</ele>
        <time>2021-08-11T09:01:09.434Z</time>
      </trkpt>
      <trkpt lat="46.88639" lon="8.53807">
        <ele>1763</ele>
        <time>2021-08-11T09:01:10.434Z</time>
      </trkpt>
      <trkpt lat="46.8864" lon="8.53807">
        <ele>1763</ele>
        <time>2021-08-11T09:01:11.435Z</time>
      </trkpt>
      <trkpt lat="46.8864" lon="8.53807">
        <ele>1763</ele>
        <time>2021-08-11T09:01:12.435Z</time>
      </trkpt>
      <trkpt lat="46.88641" lon="8.53807">
        <ele>1763</ele>
        <time>2021-08-11T09:01:13.434Z</time>
      </trkpt>
      <trkpt lat="46.88642" lon="8.53807">
        <ele>1764</ele>
        <time>2021-08-11T09:01:14.435Z</time>
      </trkpt>
      <trkpt lat="46.88642" lon="8.53807">
        <ele>1764</ele>
        <time>2021-08-11T09:01:15.435Z</time>
      </trkpt>
      <trkpt lat="46.88643" lon="8.53806">
        <ele>1764</ele>
        <time>2021-08-11T09:01:16.435Z</time>
      </trkpt>
      <trkpt lat="46.88644" lon="8.53806">
        <ele>1764</ele>
        <time>2021-08-11T09:01:17.435Z</time>
      </trkpt>
      <trkpt lat="46.88644" lon="8.53806">
        <ele>1764</ele>
        <time>2021-08-11T09:01:18.435Z</time>
      </trkpt>
      <trkpt lat="46.88645" lon="8.53806">
        <ele>1764</ele>
        <time>2021-08-11T09:01:19.435Z</time>
      </trkpt>
      <trkpt lat="46.88646" lon="8.53806">
        <ele>1764</ele>
        <time>2021-08-11T09:01:20.434Z</time>
      </trkpt>
      <trkpt lat="46.88646" lon="8.53806">
        <ele>1764</ele>
        <time>2021-08-11T09:01:21.435Z</time>
      </trkpt>
      <trkpt lat="46.88647" lon="8.53805">
        <ele>1763</ele>
        <time>2021-08-11T09:01:22.435Z</time>
      </trkpt>
      <trkpt lat="46.88647" lon="8.53805">
        <ele>1763</ele>
        <time>2021-08-11T09:01:23.434Z</time>
      </trkpt>
      <trkpt lat="46.88648" lon="8.53804">
        <ele>1763</ele>
        <time>2021-08-11T09:01:24.434Z</time>
      </trkpt>
      <trkpt lat="46.88648" lon="8.53804">
        <ele>1763</ele>
        <time>2021-08-11T09:01:25.435Z</time>
      </trkpt>
      <trkpt lat="46.88648" lon="8.53803">
        <ele>1762</ele>
        <time>2021-08-11T09:01:26.434Z</time>
      </trkpt>
      <trkpt lat="46.88649" lon="8.53803">
        <ele>1762</ele>
        <time>2021-08-11T09:01:27.435Z</time>
      </trkpt>
      <trkpt lat="46.88649" lon="8.53803">
        <ele>1762</ele>
        <time>2021-08-11T09:01:28.435Z</time>
      </trkpt>
      <trkpt lat="46.8865" lon="8.53802">
        <ele>1762</ele>
        <time>2021-08-11T09:01:29.434Z</time>
      </trkpt>
      <trkpt lat="46.8865" lon="8.53802">
        <ele>1762</ele>
        <time>2021-08-11T09:01:30.435Z</time>
      </trkpt>
      <trkpt lat="46.88651" lon="8.53802">
        <ele>1762</ele>
        <time>2021-08-11T09:01:31.435Z</time>
      </trkpt>
      <trkpt lat="46.88651" lon="8.53802">
        <ele>1761</ele>
        <time>2021-08-11T09:01:32.434Z</time>
      </trkpt>
      <trkpt lat="46.88652" lon="8.53802">
        <ele>1761</ele>
        <time>2021-08-11T09:01:33.435Z</time>
      </trkpt>
      <trkpt lat="46.88652" lon="8.53801">
        <ele>1762</ele>
        <time>2021-08-11T09:01:34.435Z</time>
      </trkpt>
      <trkpt lat="46.88652" lon="8.53801">
        <ele>1762</ele>
        <time>2021-08-11T09:01:35.434Z</time>
      </trkpt>
      <trkpt lat="46.88653" lon="8.53801">
        <ele>1762</ele>
        <time>2021-08-11T09:01:36.434Z</time>
      </trkpt>
      <trkpt lat="46.88653" lon="8.538">
        <ele>1763</ele>
        <time>2021-08-11T09:01:37.434Z</time>
      </trkpt>
      <trkpt lat="46.88653" lon="8.538">
        <ele>1763</ele>
        <time>2021-08-11T09:01:38.435Z</time>
      </trkpt>
      <trkpt lat="46.88654" lon="8.53799">
        <ele>1765</ele>
        <time>2021-08-11T09:01:39.435Z</time>
      </trkpt>
      <trkpt lat="46.88654" lon="8.53798">
        <ele>1765</ele>
        <time>2021-08-11T09:01:40.435Z</time>
      </trkpt>
      <trkpt lat="46.88655" lon="8.53798">
        <ele>1764</ele>
        <time>2021-08-11T09:01:41.434Z</time>
      </trkpt>
      <trkpt lat="46.88655" lon="8.53798">
        <ele>1763</ele>
        <time>2021-08-11T09:01:42.435Z</time>
      </trkpt>
      <trkpt lat="46.88655" lon="8.53798">
        <ele>1763</ele>
        <time>2021-08-11T09:01:43.435Z</time>
      </trkpt>
      <trkpt lat="46.88655" lon="8.53798">
        <ele>1763</ele>
        <time>2021-08-11T09:01:44.435Z</time>
      </trkpt>
      <trkpt lat="46.88656" lon="8.53799">
        <ele>1762</ele>
        <time>2021-08-11T09:01:45.435Z</time>
      </trkpt>
      <trkpt lat="46.88656" lon="8.53799">
        <ele>1762</ele>
        <time>2021-08-11T09:01:46.434Z</time>
      </trkpt>
      <trkpt lat="46.88656" lon="8.538">
        <ele>1762</ele>
        <time>2021-08-11T09:01:47.435Z</time>
      </trkpt>
      <trkpt lat="46.88657" lon="8.53799">
        <ele>1761</ele>
        <time>2021-08-11T09:01:48.434Z</time>
      </trkpt>
      <trkpt lat="46.88658" lon="8.53798">
        <ele>1761</ele>
        <time>2021-08-11T09:01:49.435Z</time>
      </trkpt>
      <trkpt lat="46.88659" lon="8.53796">
        <ele>1761</ele>
        <time>2021-08-11T09:01:50.435Z</time>
      </trkpt>
      <trkpt lat="46.8866" lon="8.53795">
        <ele>1761</ele>
        <time>2021-08-11T09:01:51.434Z</time>
      </trkpt>
      <trkpt lat="46.8866" lon="8.53795">
        <ele>1761</ele>
        <time>2021-08-11T09:01:52.435Z</time>
      </trkpt>
      <trkpt lat="46.8866" lon="8.53795">
        <ele>1760</ele>
        <time>2021-08-11T09:01:53.435Z</time>
      </trkpt>
      <trkpt lat="46.88661" lon="8.53796">
        <ele>1760</ele>
        <time>2021-08-11T09:01:54.436Z</time>
      </trkpt>
      <trkpt lat="46.88662" lon="8.53796">
        <ele>1760</ele>
        <time>2021-08-11T09:01:55.435Z</time>
      </trkpt>
      <trkpt lat="46.88662" lon="8.53796">
        <ele>1760</ele>
        <time>2021-08-11T09:01:56.435Z</time>
      </trkpt>
      <trkpt lat="46.88663" lon="8.53796">
        <ele>1759</ele>
        <time>2021-08-11T09:01:57.436Z</time>
      </trkpt>
      <trkpt lat="46.88663" lon="8.53797">
        <ele>1759</ele>
        <time>2021-08-11T09:01:58.436Z</time>
      </trkpt>
      <trkpt lat="46.88663" lon="8.53797">
        <ele>1759</ele>
        <time>2021-08-11T09:01:59.435Z</time>
      </trkpt>
      <trkpt lat="46.88663" lon="8.53797">
        <ele>1760</ele>
        <time>2021-08-11T09:02:00.436Z</time>
      </trkpt>
      <trkpt lat="46.88663" lon="8.53797">
        <ele>1760</ele>
        <time>2021-08-11T09:02:01.436Z</time>
      </trkpt>
      <trkpt lat="46.88663" lon="8.53797">
        <ele>1760</ele>
        <time>2021-08-11T09:02:02.436Z</time>
      </trkpt>
      <trkpt lat="46.88664" lon="8.53796">
        <ele>1761</ele>
        <time>2021-08-11T09:02:03.436Z</time>
      </trkpt>
      <trkpt lat="46.88665" lon="8.53795">
        <ele>1761</ele>
        <time>2021-08-11T09:02:04.435Z</time>
      </trkpt>
      <trkpt lat="46.88665" lon="8.53795">
        <ele>1761</ele>
        <time>2021-08-11T09:02:05.436Z</time>
      </trkpt>
      <trkpt lat="46.88665" lon="8.53796">
        <ele>1761</ele>
        <time>2021-08-11T09:02:06.436Z</time>
      </trkpt>
      <trkpt lat="46.88665" lon="8.53796">
        <ele>1761</ele>
        <time>2021-08-11T09:02:07.436Z</time>
      </trkpt>
      <trkpt lat="46.88665" lon="8.53796">
        <ele>1761</ele>
        <time>2021-08-11T09:02:08.435Z</time>
      </trkpt>
      <trkpt lat="46.88666" lon="8.53797">
        <ele>1760</ele>
        <time>2021-08-11T09:02:09.436Z</time>
      </trkpt>
      <trkpt lat="46.88666" lon="8.53797">
        <ele>1760</ele>
        <time>2021-08-11T09:02:10.436Z</time>
      </trkpt>
      <trkpt lat="46.88667" lon="8.53796">
        <ele>1760</ele>
        <time>2021-08-11T09:02:11.435Z</time>
      </trkpt>
      <trkpt lat="46.88667" lon="8.53796">
        <ele>1761</ele>
        <time>2021-08-11T09:02:12.436Z</time>
      </trkpt>
      <trkpt lat="46.88666" lon="8.53794">
        <ele>1765</ele>
        <time>2021-08-11T09:02:13.436Z</time>
      </trkpt>
      <trkpt lat="46.88666" lon="8.53793">
        <ele>1766</ele>
        <time>2021-08-11T09:02:14.436Z</time>
      </trkpt>
      <trkpt lat="46.88665" lon="8.53792">
        <ele>1766</ele>
        <time>2021-08-11T09:02:15.435Z</time>
      </trkpt>
      <trkpt lat="46.88666" lon="8.53791">
        <ele>1766</ele>
        <time>2021-08-11T09:02:16.435Z</time>
      </trkpt>
      <trkpt lat="46.88666" lon="8.5379">
        <ele>1766</ele>
        <time>2021-08-11T09:02:17.435Z</time>
      </trkpt>
      <trkpt lat="46.88666" lon="8.5379">
        <ele>1766</ele>
        <time>2021-08-11T09:02:18.436Z</time>
      </trkpt>
      <trkpt lat="46.88666" lon="8.53789">
        <ele>1765</ele>
        <time>2021-08-11T09:02:19.436Z</time>
      </trkpt>
      <trkpt lat="46.88666" lon="8.53788">
        <ele>1765</ele>
        <time>2021-08-11T09:02:20.436Z</time>
      </trkpt>
      <trkpt lat="46.88665" lon="8.53788">
        <ele>1765</ele>
        <time>2021-08-11T09:02:21.435Z</time>
      </trkpt>
      <trkpt lat="46.88665" lon="8.53788">
        <ele>1765</ele>
        <time>2021-08-11T09:02:22.435Z</time>
      </trkpt>
      <trkpt lat="46.88666" lon="8.5379">
        <ele>1767</ele>
        <time>2021-08-11T09:02:23.437Z</time>
      </trkpt>
      <trkpt lat="46.88666" lon="8.5379">
        <ele>1767</ele>
        <time>2021-08-11T09:02:24.436Z</time>
      </trkpt>
      <trkpt lat="46.88665" lon="8.5379">
        <ele>1767</ele>
        <time>2021-08-11T09:02:25.436Z</time>
      </trkpt>
      <trkpt lat="46.88665" lon="8.5379">
        <ele>1767</ele>
        <time>2021-08-11T09:02:26.436Z</time>
      </trkpt>
      <trkpt lat="46.88664" lon="8.53789">
        <ele>1766</ele>
        <time>2021-08-11T09:02:27.438Z</time>
      </trkpt>
      <trkpt lat="46.88663" lon="8.53789">
        <ele>1766</ele>
        <time>2021-08-11T09:02:28.437Z</time>
      </trkpt>
      <trkpt lat="46.88663" lon="8.53788">
        <ele>1766</ele>
        <time>2021-08-11T09:02:29.437Z</time>
      </trkpt>
      <trkpt lat="46.88662" lon="8.53788">
        <ele>1766</ele>
        <time>2021-08-11T09:02:30.437Z</time>
      </trkpt>
      <trkpt lat="46.88662" lon="8.53788">
        <ele>1766</ele>
        <time>2021-08-11T09:02:31.438Z</time>
      </trkpt>
      <trkpt lat="46.88662" lon="8.53788">
        <ele>1766</ele>
        <time>2021-08-11T09:02:32.438Z</time>
      </trkpt>
      <trkpt lat="46.88662" lon="8.53787">
        <ele>1766</ele>
        <time>2021-08-11T09:02:33.437Z</time>
      </trkpt>
      <trkpt lat="46.88662" lon="8.53786">
        <ele>1767</ele>
        <time>2021-08-11T09:02:34.438Z</time>
      </trkpt>
      <trkpt lat="46.88662" lon="8.53785">
        <ele>1767</ele>
        <time>2021-08-11T09:02:35.438Z</time>
      </trkpt>
      <trkpt lat="46.88661" lon="8.53785">
        <ele>1767</ele>
        <time>2021-08-11T09:02:36.437Z</time>
      </trkpt>
      <trkpt lat="46.88661" lon="8.53785">
        <ele>1767</ele>
        <time>2021-08-11T09:02:37.438Z</time>
      </trkpt>
      <trkpt lat="46.88661" lon="8.53784">
        <ele>1767</ele>
        <time>2021-08-11T09:02:38.437Z</time>
      </trkpt>
      <trkpt lat="46.8866" lon="8.53784">
        <ele>1767</ele>
        <time>2021-08-11T09:02:39.437Z</time>
      </trkpt>
      <trkpt lat="46.8866" lon="8.53783">
        <ele>1767</ele>
        <time>2021-08-11T09:02:40.438Z</time>
      </trkpt>
      <trkpt lat="46.8866" lon="8.53782">
        <ele>1767</ele>
        <time>2021-08-11T09:02:41.438Z</time>
      </trkpt>
      <trkpt lat="46.8866" lon="8.53782">
        <ele>1767</ele>
        <time>2021-08-11T09:02:42.438Z</time>
      </trkpt>
      <trkpt lat="46.8866" lon="8.53782">
        <ele>1767</ele>
        <time>2021-08-11T09:02:43.438Z</time>
      </trkpt>
      <trkpt lat="46.88659" lon="8.53781">
        <ele>1767</ele>
        <time>2021-08-11T09:02:44.438Z</time>
      </trkpt>
      <trkpt lat="46.88658" lon="8.53781">
        <ele>1774</ele>
        <time>2021-08-11T09:02:45.438Z</time>
      </trkpt>
      <trkpt lat="46.88658" lon="8.53782">
        <ele>1777</ele>
        <time>2021-08-11T09:02:46.437Z</time>
      </trkpt>
      <trkpt lat="46.88658" lon="8.53781">
        <ele>1778</ele>
        <time>2021-08-11T09:02:47.438Z</time>
      </trkpt>
      <trkpt lat="46.88656" lon="8.53779">
        <ele>1771</ele>
        <time>2021-08-11T09:02:48.438Z</time>
      </trkpt>
      <trkpt lat="46.88656" lon="8.53779">
        <ele>1771</ele>
        <time>2021-08-11T09:02:49.438Z</time>
      </trkpt>
      <trkpt lat="46.88656" lon="8.53776">
        <ele>1770</ele>
        <time>2021-08-11T09:02:50.437Z</time>
      </trkpt>
      <trkpt lat="46.88656" lon="8.53775">
        <ele>1770</ele>
        <time>2021-08-11T09:02:51.438Z</time>
      </trkpt>
      <trkpt lat="46.88655" lon="8.53775">
        <ele>1769</ele>
        <time>2021-08-11T09:02:52.437Z</time>
      </trkpt>
      <trkpt lat="46.88655" lon="8.53774">
        <ele>1769</ele>
        <time>2021-08-11T09:02:53.438Z</time>
      </trkpt>
      <trkpt lat="46.88654" lon="8.53774">
        <ele>1769</ele>
        <time>2021-08-11T09:02:54.437Z</time>
      </trkpt>
      <trkpt lat="46.88654" lon="8.53773">
        <ele>1770</ele>
        <time>2021-08-11T09:02:55.437Z</time>
      </trkpt>
      <trkpt lat="46.88654" lon="8.53772">
        <ele>1770</ele>
        <time>2021-08-11T09:02:56.438Z</time>
      </trkpt>
      <trkpt lat="46.88653" lon="8.53771">
        <ele>1770</ele>
        <time>2021-08-11T09:02:57.438Z</time>
      </trkpt>
      <trkpt lat="46.88653" lon="8.53771">
        <ele>1770</ele>
        <time>2021-08-11T09:02:58.438Z</time>
      </trkpt>
      <trkpt lat="46.88653" lon="8.5377">
        <ele>1771</ele>
        <time>2021-08-11T09:02:59.438Z</time>
      </trkpt>
      <trkpt lat="46.88652" lon="8.53771">
        <ele>1771</ele>
        <time>2021-08-11T09:03:00.437Z</time>
      </trkpt>
      <trkpt lat="46.88652" lon="8.5377">
        <ele>1771</ele>
        <time>2021-08-11T09:03:01.438Z</time>
      </trkpt>
      <trkpt lat="46.88651" lon="8.53771">
        <ele>1772</ele>
        <time>2021-08-11T09:03:02.438Z</time>
      </trkpt>
      <trkpt lat="46.88651" lon="8.5377">
        <ele>1772</ele>
        <time>2021-08-11T09:03:03.438Z</time>
      </trkpt>
      <trkpt lat="46.88651" lon="8.5377">
        <ele>1772</ele>
        <time>2021-08-11T09:03:04.438Z</time>
      </trkpt>
      <trkpt lat="46.88651" lon="8.53769">
        <ele>1772</ele>
        <time>2021-08-11T09:03:05.437Z</time>
      </trkpt>
      <trkpt lat="46.8865" lon="8.53768">
        <ele>1771</ele>
        <time>2021-08-11T09:03:06.438Z</time>
      </trkpt>
      <trkpt lat="46.8865" lon="8.53768">
        <ele>1771</ele>
        <time>2021-08-11T09:03:07.438Z</time>
      </trkpt>
      <trkpt lat="46.88649" lon="8.53767">
        <ele>1771</ele>
        <time>2021-08-11T09:03:08.438Z</time>
      </trkpt>
      <trkpt lat="46.88649" lon="8.53767">
        <ele>1771</ele>
        <time>2021-08-11T09:03:09.438Z</time>
      </trkpt>
      <trkpt lat="46.88649" lon="8.53768">
        <ele>1771</ele>
        <time>2021-08-11T09:03:10.438Z</time>
      </trkpt>
      <trkpt lat="46.88649" lon="8.53767">
        <ele>1772</ele>
        <time>2021-08-11T09:03:11.437Z</time>
      </trkpt>
      <trkpt lat="46.88648" lon="8.53767">
        <ele>1772</ele>
        <time>2021-08-11T09:03:12.438Z</time>
      </trkpt>
      <trkpt lat="46.88648" lon="8.53767">
        <ele>1772</ele>
        <time>2021-08-11T09:03:13.438Z</time>
      </trkpt>
      <trkpt lat="46.88648" lon="8.53767">
        <ele>1772</ele>
        <time>2021-08-11T09:03:14.438Z</time>
      </trkpt>
      <trkpt lat="46.88648" lon="8.53767">
        <ele>1772</ele>
        <time>2021-08-11T09:03:15.437Z</time>
      </trkpt>
      <trkpt lat="46.88647" lon="8.53767">
        <ele>1772</ele>
        <time>2021-08-11T09:03:16.438Z</time>
      </trkpt>
      <trkpt lat="46.88647" lon="8.53766">
        <ele>1773</ele>
        <time>2021-08-11T09:03:17.438Z</time>
      </trkpt>
      <trkpt lat="46.88647" lon="8.53766">
        <ele>1773</ele>
        <time>2021-08-11T09:03:18.437Z</time>
      </trkpt>
      <trkpt lat="46.88646" lon="8.53765">
        <ele>1773</ele>
        <time>2021-08-11T09:03:19.438Z</time>
      </trkpt>
      <trkpt lat="46.88646" lon="8.53765">
        <ele>1773</ele>
        <time>2021-08-11T09:03:20.437Z</time>
      </trkpt>
      <trkpt lat="46.88645" lon="8.53765">
        <ele>1773</ele>
        <time>2021-08-11T09:03:21.438Z</time>
      </trkpt>
      <trkpt lat="46.88644" lon="8.53765">
        <ele>1773</ele>
        <time>2021-08-11T09:03:22.438Z</time>
      </trkpt>
      <trkpt lat="46.88643" lon="8.53764">
        <ele>1773</ele>
        <time>2021-08-11T09:03:23.437Z</time>
      </trkpt>
      <trkpt lat="46.88643" lon="8.53764">
        <ele>1773</ele>
        <time>2021-08-11T09:03:24.437Z</time>
      </trkpt>
      <trkpt lat="46.88643" lon="8.53763">
        <ele>1774</ele>
        <time>2021-08-11T09:03:25.438Z</time>
      </trkpt>
      <trkpt lat="46.88643" lon="8.53762">
        <ele>1774</ele>
        <time>2021-08-11T09:03:26.438Z</time>
      </trkpt>
      <trkpt lat="46.88643" lon="8.53762">
        <ele>1775</ele>
        <time>2021-08-11T09:03:27.438Z</time>
      </trkpt>
      <trkpt lat="46.88643" lon="8.53761">
        <ele>1775</ele>
        <time>2021-08-11T09:03:28.437Z</time>
      </trkpt>
      <trkpt lat="46.88643" lon="8.53762">
        <ele>1776</ele>
        <time>2021-08-11T09:03:29.438Z</time>
      </trkpt>
      <trkpt lat="46.88643" lon="8.53761">
        <ele>1776</ele>
        <time>2021-08-11T09:03:30.438Z</time>
      </trkpt>
      <trkpt lat="46.88643" lon="8.53762">
        <ele>1776</ele>
        <time>2021-08-11T09:03:31.438Z</time>
      </trkpt>
      <trkpt lat="46.88644" lon="8.53766">
        <ele>1776</ele>
        <time>2021-08-11T09:03:32.439Z</time>
      </trkpt>
      <trkpt lat="46.88645" lon="8.53766">
        <ele>1775</ele>
        <time>2021-08-11T09:03:33.438Z</time>
      </trkpt>
      <trkpt lat="46.88645" lon="8.53766">
        <ele>1775</ele>
        <time>2021-08-11T09:03:34.438Z</time>
      </trkpt>
      <trkpt lat="46.88644" lon="8.53763">
        <ele>1775</ele>
        <time>2021-08-11T09:03:35.440Z</time>
      </trkpt>
      <trkpt lat="46.88644" lon="8.53763">
        <ele>1775</ele>
        <time>2021-08-11T09:03:36.439Z</time>
      </trkpt>
      <trkpt lat="46.88643" lon="8.53762">
        <ele>1775</ele>
        <time>2021-08-11T09:03:37.440Z</time>
      </trkpt>
      <trkpt lat="46.88642" lon="8.53762">
        <ele>1775</ele>
        <time>2021-08-11T09:03:38.441Z</time>
      </trkpt>
      <trkpt lat="46.88642" lon="8.53762">
        <ele>1774</ele>
        <time>2021-08-11T09:03:39.440Z</time>
      </trkpt>
      <trkpt lat="46.88641" lon="8.53761">
        <ele>1772</ele>
        <time>2021-08-11T09:03:40.441Z</time>
      </trkpt>
      <trkpt lat="46.88642" lon="8.53761">
        <ele>1772</ele>
        <time>2021-08-11T09:03:41.440Z</time>
      </trkpt>
      <trkpt lat="46.88641" lon="8.53759">
        <ele>1773</ele>
        <time>2021-08-11T09:03:42.440Z</time>
      </trkpt>
      <trkpt lat="46.88639" lon="8.53758">
        <ele>1776</ele>
        <time>2021-08-11T09:03:43.440Z</time>
      </trkpt>
      <trkpt lat="46.88638" lon="8.53758">
        <ele>1776</ele>
        <time>2021-08-11T09:03:44.441Z</time>
      </trkpt>
      <trkpt lat="46.88638" lon="8.53758">
        <ele>1776</ele>
        <time>2021-08-11T09:03:45.441Z</time>
      </trkpt>
      <trkpt lat="46.88637" lon="8.53758">
        <ele>1776</ele>
        <time>2021-08-11T09:03:46.441Z</time>
      </trkpt>
      <trkpt lat="46.88637" lon="8.53757">
        <ele>1777</ele>
        <time>2021-08-11T09:03:47.441Z</time>
      </trkpt>
      <trkpt lat="46.88637" lon="8.53757">
        <ele>1777</ele>
        <time>2021-08-11T09:03:48.441Z</time>
      </trkpt>
      <trkpt lat="46.88637" lon="8.53757">
        <ele>1777</ele>
        <time>2021-08-11T09:03:49.441Z</time>
      </trkpt>
      <trkpt lat="46.88633" lon="8.53754">
        <ele>1782</ele>
        <time>2021-08-11T09:03:50.440Z</time>
      </trkpt>
      <trkpt lat="46.88632" lon="8.53754">
        <ele>1783</ele>
        <time>2021-08-11T09:03:51.440Z</time>
      </trkpt>
      <trkpt lat="46.88632" lon="8.53753">
        <ele>1783</ele>
        <time>2021-08-11T09:03:52.440Z</time>
      </trkpt>
      <trkpt lat="46.88632" lon="8.53753">
        <ele>1783</ele>
        <time>2021-08-11T09:03:53.440Z</time>
      </trkpt>
      <trkpt lat="46.88632" lon="8.53752">
        <ele>1783</ele>
        <time>2021-08-11T09:03:54.440Z</time>
      </trkpt>
      <trkpt lat="46.88632" lon="8.53752">
        <ele>1783</ele>
        <time>2021-08-11T09:03:55.440Z</time>
      </trkpt>
      <trkpt lat="46.88631" lon="8.53751">
        <ele>1783</ele>
        <time>2021-08-11T09:03:56.440Z</time>
      </trkpt>
      <trkpt lat="46.88631" lon="8.53751">
        <ele>1784</ele>
        <time>2021-08-11T09:03:57.440Z</time>
      </trkpt>
      <trkpt lat="46.88631" lon="8.53751">
        <ele>1785</ele>
        <time>2021-08-11T09:03:58.440Z</time>
      </trkpt>
      <trkpt lat="46.88631" lon="8.5375">
        <ele>1785</ele>
        <time>2021-08-11T09:03:59.440Z</time>
      </trkpt>
      <trkpt lat="46.88631" lon="8.5375">
        <ele>1785</ele>
        <time>2021-08-11T09:04:00.440Z</time>
      </trkpt>
      <trkpt lat="46.88631" lon="8.5375">
        <ele>1785</ele>
        <time>2021-08-11T09:04:01.440Z</time>
      </trkpt>
      <trkpt lat="46.8863" lon="8.5375">
        <ele>1783</ele>
        <time>2021-08-11T09:04:02.442Z</time>
      </trkpt>
      <trkpt lat="46.8863" lon="8.53749">
        <ele>1783</ele>
        <time>2021-08-11T09:04:03.442Z</time>
      </trkpt>
      <trkpt lat="46.8863" lon="8.53749">
        <ele>1782</ele>
        <time>2021-08-11T09:04:04.441Z</time>
      </trkpt>
      <trkpt lat="46.8863" lon="8.53748">
        <ele>1782</ele>
        <time>2021-08-11T09:04:05.442Z</time>
      </trkpt>
      <trkpt lat="46.8863" lon="8.53748">
        <ele>1783</ele>
        <time>2021-08-11T09:04:06.442Z</time>
      </trkpt>
      <trkpt lat="46.88631" lon="8.53748">
        <ele>1784</ele>
        <time>2021-08-11T09:04:07.442Z</time>
      </trkpt>
      <trkpt lat="46.88631" lon="8.53748">
        <ele>1784</ele>
        <time>2021-08-11T09:04:08.443Z</time>
      </trkpt>
      <trkpt lat="46.88632" lon="8.53747">
        <ele>1783</ele>
        <time>2021-08-11T09:04:09.442Z</time>
      </trkpt>
      <trkpt lat="46.88632" lon="8.53747">
        <ele>1783</ele>
        <time>2021-08-11T09:04:10.443Z</time>
      </trkpt>
      <trkpt lat="46.88633" lon="8.53747">
        <ele>1782</ele>
        <time>2021-08-11T09:04:11.443Z</time>
      </trkpt>
      <trkpt lat="46.88633" lon="8.53747">
        <ele>1782</ele>
        <time>2021-08-11T09:04:12.442Z</time>
      </trkpt>
      <trkpt lat="46.88634" lon="8.53746">
        <ele>1783</ele>
        <time>2021-08-11T09:04:13.442Z</time>
      </trkpt>
      <trkpt lat="46.88635" lon="8.53746">
        <ele>1783</ele>
        <time>2021-08-11T09:04:14.443Z</time>
      </trkpt>
      <trkpt lat="46.88635" lon="8.53746">
        <ele>1783</ele>
        <time>2021-08-11T09:04:15.443Z</time>
      </trkpt>
      <trkpt lat="46.88636" lon="8.53745">
        <ele>1783</ele>
        <time>2021-08-11T09:04:16.442Z</time>
      </trkpt>
      <trkpt lat="46.88635" lon="8.53744">
        <ele>1783</ele>
        <time>2021-08-11T09:04:17.443Z</time>
      </trkpt>
      <trkpt lat="46.88636" lon="8.53743">
        <ele>1783</ele>
        <time>2021-08-11T09:04:18.443Z</time>
      </trkpt>
      <trkpt lat="46.88636" lon="8.53742">
        <ele>1783</ele>
        <time>2021-08-11T09:04:19.443Z</time>
      </trkpt>
      <trkpt lat="46.88636" lon="8.53742">
        <ele>1782</ele>
        <time>2021-08-11T09:04:20.442Z</time>
      </trkpt>
      <trkpt lat="46.88636" lon="8.53742">
        <ele>1782</ele>
        <time>2021-08-11T09:04:21.442Z</time>
      </trkpt>
      <trkpt lat="46.88636" lon="8.53742">
        <ele>1782</ele>
        <time>2021-08-11T09:04:22.443Z</time>
      </trkpt>
      <trkpt lat="46.88637" lon="8.53741">
        <ele>1783</ele>
        <time>2021-08-11T09:04:23.443Z</time>
      </trkpt>
      <trkpt lat="46.88637" lon="8.53741">
        <ele>1783</ele>
        <time>2021-08-11T09:04:24.442Z</time>
      </trkpt>
      <trkpt lat="46.88637" lon="8.53741">
        <ele>1783</ele>
        <time>2021-08-11T09:04:25.442Z</time>
      </trkpt>
      <trkpt lat="46.88638" lon="8.53741">
        <ele>1783</ele>
        <time>2021-08-11T09:04:26.442Z</time>
      </trkpt>
      <trkpt lat="46.88638" lon="8.53741">
        <ele>1784</ele>
        <time>2021-08-11T09:04:27.442Z</time>
      </trkpt>
      <trkpt lat="46.88639" lon="8.5374">
        <ele>1784</ele>
        <time>2021-08-11T09:04:28.443Z</time>
      </trkpt>
      <trkpt lat="46.88639" lon="8.5374">
        <ele>1784</ele>
        <time>2021-08-11T09:04:29.444Z</time>
      </trkpt>
      <trkpt lat="46.8864" lon="8.5374">
        <ele>1784</ele>
        <time>2021-08-11T09:04:30.443Z</time>
      </trkpt>
      <trkpt lat="46.88642" lon="8.5374">
        <ele>1788</ele>
        <time>2021-08-11T09:04:31.444Z</time>
      </trkpt>
      <trkpt lat="46.88642" lon="8.53739">
        <ele>1788</ele>
        <time>2021-08-11T09:04:32.443Z</time>
      </trkpt>
      <trkpt lat="46.88643" lon="8.53739">
        <ele>1789</ele>
        <time>2021-08-11T09:04:33.444Z</time>
      </trkpt>
      <trkpt lat="46.88643" lon="8.53738">
        <ele>1789</ele>
        <time>2021-08-11T09:04:34.444Z</time>
      </trkpt>
      <trkpt lat="46.88643" lon="8.53738">
        <ele>1789</ele>
        <time>2021-08-11T09:04:35.443Z</time>
      </trkpt>
      <trkpt lat="46.88644" lon="8.53738">
        <ele>1789</ele>
        <time>2021-08-11T09:04:36.444Z</time>
      </trkpt>
      <trkpt lat="46.88644" lon="8.53737">
        <ele>1789</ele>
        <time>2021-08-11T09:04:37.444Z</time>
      </trkpt>
      <trkpt lat="46.88644" lon="8.53736">
        <ele>1790</ele>
        <time>2021-08-11T09:04:38.443Z</time>
      </trkpt>
      <trkpt lat="46.88644" lon="8.53736">
        <ele>1790</ele>
        <time>2021-08-11T09:04:39.444Z</time>
      </trkpt>
      <trkpt lat="46.88644" lon="8.53735">
        <ele>1790</ele>
        <time>2021-08-11T09:04:40.444Z</time>
      </trkpt>
      <trkpt lat="46.88644" lon="8.53735">
        <ele>1790</ele>
        <time>2021-08-11T09:04:41.444Z</time>
      </trkpt>
      <trkpt lat="46.88645" lon="8.53734">
        <ele>1790</ele>
        <time>2021-08-11T09:04:42.443Z</time>
      </trkpt>
      <trkpt lat="46.88645" lon="8.53734">
        <ele>1790</ele>
        <time>2021-08-11T09:04:43.444Z</time>
      </trkpt>
      <trkpt lat="46.88646" lon="8.53733">
        <ele>1790</ele>
        <time>2021-08-11T09:04:44.443Z</time>
      </trkpt>
      <trkpt lat="46.88645" lon="8.53733">
        <ele>1790</ele>
        <time>2021-08-11T09:04:45.443Z</time>
      </trkpt>
      <trkpt lat="46.88645" lon="8.53732">
        <ele>1790</ele>
        <time>2021-08-11T09:04:46.444Z</time>
      </trkpt>
      <trkpt lat="46.88644" lon="8.53731">
        <ele>1790</ele>
        <time>2021-08-11T09:04:47.444Z</time>
      </trkpt>
      <trkpt lat="46.88643" lon="8.5373">
        <ele>1790</ele>
        <time>2021-08-11T09:04:48.444Z</time>
      </trkpt>
      <trkpt lat="46.88643" lon="8.53729">
        <ele>1791</ele>
        <time>2021-08-11T09:04:49.444Z</time>
      </trkpt>
      <trkpt lat="46.88642" lon="8.53728">
        <ele>1791</ele>
        <time>2021-08-11T09:04:50.443Z</time>
      </trkpt>
      <trkpt lat="46.88641" lon="8.53728">
        <ele>1792</ele>
        <time>2021-08-11T09:04:51.444Z</time>
      </trkpt>
      <trkpt lat="46.88641" lon="8.53728">
        <ele>1792</ele>
        <time>2021-08-11T09:04:52.444Z</time>
      </trkpt>
      <trkpt lat="46.8864" lon="8.53727">
        <ele>1792</ele>
        <time>2021-08-11T09:04:53.444Z</time>
      </trkpt>
      <trkpt lat="46.8864" lon="8.53727">
        <ele>1792</ele>
        <time>2021-08-11T09:04:54.444Z</time>
      </trkpt>
      <trkpt lat="46.8864" lon="8.53727">
        <ele>1792</ele>
        <time>2021-08-11T09:04:55.443Z</time>
      </trkpt>
      <trkpt lat="46.88638" lon="8.53727">
        <ele>1791</ele>
        <time>2021-08-11T09:04:56.444Z</time>
      </trkpt>
      <trkpt lat="46.88638" lon="8.53726">
        <ele>1791</ele>
        <time>2021-08-11T09:04:57.444Z</time>
      </trkpt>
      <trkpt lat="46.88637" lon="8.53725">
        <ele>1791</ele>
        <time>2021-08-11T09:04:58.443Z</time>
      </trkpt>
      <trkpt lat="46.88637" lon="8.53725">
        <ele>1791</ele>
        <time>2021-08-11T09:04:59.444Z</time>
      </trkpt>
      <trkpt lat="46.88636" lon="8.53725">
        <ele>1791</ele>
        <time>2021-08-11T09:05:00.444Z</time>
      </trkpt>
      <trkpt lat="46.88635" lon="8.53726">
        <ele>1791</ele>
        <time>2021-08-11T09:05:01.443Z</time>
      </trkpt>
      <trkpt lat="46.88635" lon="8.53725">
        <ele>1791</ele>
        <time>2021-08-11T09:05:02.444Z</time>
      </trkpt>
      <trkpt lat="46.88635" lon="8.53725">
        <ele>1791</ele>
        <time>2021-08-11T09:05:03.444Z</time>
      </trkpt>
      <trkpt lat="46.88634" lon="8.53726">
        <ele>1791</ele>
        <time>2021-08-11T09:05:04.444Z</time>
      </trkpt>
      <trkpt lat="46.88634" lon="8.53727">
        <ele>1791</ele>
        <time>2021-08-11T09:05:05.444Z</time>
      </trkpt>
      <trkpt lat="46.88634" lon="8.53727">
        <ele>1791</ele>
        <time>2021-08-11T09:05:06.443Z</time>
      </trkpt>
      <trkpt lat="46.88633" lon="8.53727">
        <ele>1792</ele>
        <time>2021-08-11T09:05:07.443Z</time>
      </trkpt>
      <trkpt lat="46.88633" lon="8.53727">
        <ele>1791</ele>
        <time>2021-08-11T09:05:08.443Z</time>
      </trkpt>
      <trkpt lat="46.88633" lon="8.53726">
        <ele>1791</ele>
        <time>2021-08-11T09:05:09.444Z</time>
      </trkpt>
      <trkpt lat="46.88632" lon="8.53726">
        <ele>1791</ele>
        <time>2021-08-11T09:05:10.444Z</time>
      </trkpt>
      <trkpt lat="46.88632" lon="8.53727">
        <ele>1791</ele>
        <time>2021-08-11T09:05:11.443Z</time>
      </trkpt>
      <trkpt lat="46.88632" lon="8.53727">
        <ele>1791</ele>
        <time>2021-08-11T09:05:12.444Z</time>
      </trkpt>
      <trkpt lat="46.88631" lon="8.53727">
        <ele>1792</ele>
        <time>2021-08-11T09:05:13.443Z</time>
      </trkpt>
      <trkpt lat="46.88631" lon="8.53727">
        <ele>1792</ele>
        <time>2021-08-11T09:05:14.443Z</time>
      </trkpt>
      <trkpt lat="46.88631" lon="8.53727">
        <ele>1792</ele>
        <time>2021-08-11T09:05:15.444Z</time>
      </trkpt>
      <trkpt lat="46.8863" lon="8.53726">
        <ele>1792</ele>
        <time>2021-08-11T09:05:16.444Z</time>
      </trkpt>
      <trkpt lat="46.8863" lon="8.53726">
        <ele>1792</ele>
        <time>2021-08-11T09:05:17.444Z</time>
      </trkpt>
      <trkpt lat="46.8863" lon="8.53726">
        <ele>1791</ele>
        <time>2021-08-11T09:05:18.444Z</time>
      </trkpt>
      <trkpt lat="46.88629" lon="8.53725">
        <ele>1791</ele>
        <time>2021-08-11T09:05:19.443Z</time>
      </trkpt>
      <trkpt lat="46.88629" lon="8.53725">
        <ele>1791</ele>
        <time>2021-08-11T09:05:20.444Z</time>
      </trkpt>
      <trkpt lat="46.88628" lon="8.53724">
        <ele>1792</ele>
        <time>2021-08-11T09:05:21.444Z</time>
      </trkpt>
      <trkpt lat="46.88628" lon="8.53724">
        <ele>1792</ele>
        <time>2021-08-11T09:05:22.444Z</time>
      </trkpt>
      <trkpt lat="46.88628" lon="8.53724">
        <ele>1792</ele>
        <time>2021-08-11T09:05:23.444Z</time>
      </trkpt>
      <trkpt lat="46.88628" lon="8.53723">
        <ele>1792</ele>
        <time>2021-08-11T09:05:24.444Z</time>
      </trkpt>
      <trkpt lat="46.88628" lon="8.53723">
        <ele>1791</ele>
        <time>2021-08-11T09:05:25.444Z</time>
      </trkpt>
      <trkpt lat="46.88628" lon="8.53723">
        <ele>1792</ele>
        <time>2021-08-11T09:05:26.444Z</time>
      </trkpt>
      <trkpt lat="46.88627" lon="8.53722">
        <ele>1792</ele>
        <time>2021-08-11T09:05:27.445Z</time>
      </trkpt>
      <trkpt lat="46.88626" lon="8.53721">
        <ele>1793</ele>
        <time>2021-08-11T09:05:28.444Z</time>
      </trkpt>
      <trkpt lat="46.88624" lon="8.53721">
        <ele>1794</ele>
        <time>2021-08-11T09:05:29.445Z</time>
      </trkpt>
      <trkpt lat="46.88623" lon="8.53721">
        <ele>1795</ele>
        <time>2021-08-11T09:05:30.445Z</time>
      </trkpt>
      <trkpt lat="46.88622" lon="8.53722">
        <ele>1796</ele>
        <time>2021-08-11T09:05:31.445Z</time>
      </trkpt>
      <trkpt lat="46.88622" lon="8.53721">
        <ele>1797</ele>
        <time>2021-08-11T09:05:32.445Z</time>
      </trkpt>
      <trkpt lat="46.88622" lon="8.5372">
        <ele>1797</ele>
        <time>2021-08-11T09:05:33.444Z</time>
      </trkpt>
      <trkpt lat="46.88622" lon="8.5372">
        <ele>1797</ele>
        <time>2021-08-11T09:05:34.444Z</time>
      </trkpt>
      <trkpt lat="46.88622" lon="8.53721">
        <ele>1797</ele>
        <time>2021-08-11T09:05:35.444Z</time>
      </trkpt>
      <trkpt lat="46.88621" lon="8.53721">
        <ele>1797</ele>
        <time>2021-08-11T09:05:36.445Z</time>
      </trkpt>
      <trkpt lat="46.88621" lon="8.5372">
        <ele>1797</ele>
        <time>2021-08-11T09:05:37.445Z</time>
      </trkpt>
      <trkpt lat="46.88621" lon="8.5372">
        <ele>1796</ele>
        <time>2021-08-11T09:05:38.444Z</time>
      </trkpt>
      <trkpt lat="46.8862" lon="8.5372">
        <ele>1795</ele>
        <time>2021-08-11T09:05:39.445Z</time>
      </trkpt>
      <trkpt lat="46.88619" lon="8.5372">
        <ele>1796</ele>
        <time>2021-08-11T09:05:40.444Z</time>
      </trkpt>
      <trkpt lat="46.88619" lon="8.5372">
        <ele>1796</ele>
        <time>2021-08-11T09:05:41.445Z</time>
      </trkpt>
      <trkpt lat="46.88619" lon="8.53719">
        <ele>1797</ele>
        <time>2021-08-11T09:05:42.445Z</time>
      </trkpt>
      <trkpt lat="46.88619" lon="8.53719">
        <ele>1798</ele>
        <time>2021-08-11T09:05:43.445Z</time>
      </trkpt>
      <trkpt lat="46.88619" lon="8.53719">
        <ele>1798</ele>
        <time>2021-08-11T09:05:44.445Z</time>
      </trkpt>
      <trkpt lat="46.88619" lon="8.53716">
        <ele>1799</ele>
        <time>2021-08-11T09:05:45.444Z</time>
      </trkpt>
      <trkpt lat="46.88619" lon="8.53716">
        <ele>1798</ele>
        <time>2021-08-11T09:05:46.445Z</time>
      </trkpt>
      <trkpt lat="46.88619" lon="8.53716">
        <ele>1797</ele>
        <time>2021-08-11T09:05:47.444Z</time>
      </trkpt>
      <trkpt lat="46.88619" lon="8.53716">
        <ele>1796</ele>
        <time>2021-08-11T09:05:48.445Z</time>
      </trkpt>
      <trkpt lat="46.88619" lon="8.53716">
        <ele>1796</ele>
        <time>2021-08-11T09:05:49.445Z</time>
      </trkpt>
      <trkpt lat="46.88618" lon="8.53716">
        <ele>1795</ele>
        <time>2021-08-11T09:05:50.445Z</time>
      </trkpt>
      <trkpt lat="46.88618" lon="8.53716">
        <ele>1795</ele>
        <time>2021-08-11T09:05:51.445Z</time>
      </trkpt>
      <trkpt lat="46.88618" lon="8.53717">
        <ele>1794</ele>
        <time>2021-08-11T09:05:52.444Z</time>
      </trkpt>
      <trkpt lat="46.88618" lon="8.53717">
        <ele>1794</ele>
        <time>2021-08-11T09:05:53.445Z</time>
      </trkpt>
      <trkpt lat="46.88617" lon="8.53716">
        <ele>1793</ele>
        <time>2021-08-11T09:05:54.445Z</time>
      </trkpt>
      <trkpt lat="46.88617" lon="8.53717">
        <ele>1793</ele>
        <time>2021-08-11T09:05:55.445Z</time>
      </trkpt>
      <trkpt lat="46.88617" lon="8.53718">
        <ele>1793</ele>
        <time>2021-08-11T09:05:56.445Z</time>
      </trkpt>
      <trkpt lat="46.88617" lon="8.53718">
        <ele>1794</ele>
        <time>2021-08-11T09:05:57.445Z</time>
      </trkpt>
      <trkpt lat="46.88618" lon="8.53718">
        <ele>1795</ele>
        <time>2021-08-11T09:05:58.445Z</time>
      </trkpt>
      <trkpt lat="46.88618" lon="8.53717">
        <ele>1795</ele>
        <time>2021-08-11T09:05:59.444Z</time>
      </trkpt>
      <trkpt lat="46.88618" lon="8.53717">
        <ele>1796</ele>
        <time>2021-08-11T09:06:00.445Z</time>
      </trkpt>
      <trkpt lat="46.88618" lon="8.53717">
        <ele>1796</ele>
        <time>2021-08-11T09:06:01.445Z</time>
      </trkpt>
      <trkpt lat="46.88619" lon="8.53716">
        <ele>1796</ele>
        <time>2021-08-11T09:06:02.445Z</time>
      </trkpt>
      <trkpt lat="46.8862" lon="8.53716">
        <ele>1796</ele>
        <time>2021-08-11T09:06:03.445Z</time>
      </trkpt>
      <trkpt lat="46.8862" lon="8.53715">
        <ele>1796</ele>
        <time>2021-08-11T09:06:04.445Z</time>
      </trkpt>
      <trkpt lat="46.88621" lon="8.53715">
        <ele>1797</ele>
        <time>2021-08-11T09:06:05.444Z</time>
      </trkpt>
      <trkpt lat="46.88621" lon="8.53714">
        <ele>1798</ele>
        <time>2021-08-11T09:06:06.444Z</time>
      </trkpt>
      <trkpt lat="46.88621" lon="8.53713">
        <ele>1798</ele>
        <time>2021-08-11T09:06:07.445Z</time>
      </trkpt>
      <trkpt lat="46.88622" lon="8.53713">
        <ele>1798</ele>
        <time>2021-08-11T09:06:08.444Z</time>
      </trkpt>
      <trkpt lat="46.88622" lon="8.53712">
        <ele>1799</ele>
        <time>2021-08-11T09:06:09.444Z</time>
      </trkpt>
      <trkpt lat="46.88623" lon="8.53712">
        <ele>1799</ele>
        <time>2021-08-11T09:06:10.445Z</time>
      </trkpt>
      <trkpt lat="46.88623" lon="8.53712">
        <ele>1799</ele>
        <time>2021-08-11T09:06:11.445Z</time>
      </trkpt>
      <trkpt lat="46.88623" lon="8.53712">
        <ele>1799</ele>
        <time>2021-08-11T09:06:12.445Z</time>
      </trkpt>
      <trkpt lat="46.88623" lon="8.53712">
        <ele>1799</ele>
        <time>2021-08-11T09:06:13.444Z</time>
      </trkpt>
      <trkpt lat="46.88624" lon="8.53712">
        <ele>1799</ele>
        <time>2021-08-11T09:06:14.444Z</time>
      </trkpt>
      <trkpt lat="46.88625" lon="8.53711">
        <ele>1799</ele>
        <time>2021-08-11T09:06:15.444Z</time>
      </trkpt>
      <trkpt lat="46.88625" lon="8.5371">
        <ele>1800</ele>
        <time>2021-08-11T09:06:16.445Z</time>
      </trkpt>
      <trkpt lat="46.88626" lon="8.53709">
        <ele>1804</ele>
        <time>2021-08-11T09:06:17.445Z</time>
      </trkpt>
      <trkpt lat="46.88627" lon="8.53709">
        <ele>1804</ele>
        <time>2021-08-11T09:06:18.445Z</time>
      </trkpt>
      <trkpt lat="46.88627" lon="8.53708">
        <ele>1804</ele>
        <time>2021-08-11T09:06:19.445Z</time>
      </trkpt>
      <trkpt lat="46.88627" lon="8.53708">
        <ele>1803</ele>
        <time>2021-08-11T09:06:20.445Z</time>
      </trkpt>
      <trkpt lat="46.88628" lon="8.53707">
        <ele>1803</ele>
        <time>2021-08-11T09:06:21.444Z</time>
      </trkpt>
      <trkpt lat="46.88628" lon="8.53707">
        <ele>1803</ele>
        <time>2021-08-11T09:06:22.444Z</time>
      </trkpt>
      <trkpt lat="46.88628" lon="8.53707">
        <ele>1803</ele>
        <time>2021-08-11T09:06:23.444Z</time>
      </trkpt>
      <trkpt lat="46.88628" lon="8.53706">
        <ele>1802</ele>
        <time>2021-08-11T09:06:24.444Z</time>
      </trkpt>
      <trkpt lat="46.88628" lon="8.53706">
        <ele>1801</ele>
        <time>2021-08-11T09:06:25.445Z</time>
      </trkpt>
      <trkpt lat="46.88629" lon="8.53706">
        <ele>1801</ele>
        <time>2021-08-11T09:06:26.445Z</time>
      </trkpt>
      <trkpt lat="46.88629" lon="8.53706">
        <ele>1802</ele>
        <time>2021-08-11T09:06:27.445Z</time>
      </trkpt>
      <trkpt lat="46.88629" lon="8.53706">
        <ele>1802</ele>
        <time>2021-08-11T09:06:28.445Z</time>
      </trkpt>
      <trkpt lat="46.8863" lon="8.53705">
        <ele>1803</ele>
        <time>2021-08-11T09:06:29.444Z</time>
      </trkpt>
      <trkpt lat="46.8863" lon="8.53705">
        <ele>1803</ele>
        <time>2021-08-11T09:06:30.444Z</time>
      </trkpt>
      <trkpt lat="46.8863" lon="8.53704">
        <ele>1804</ele>
        <time>2021-08-11T09:06:31.444Z</time>
      </trkpt>
      <trkpt lat="46.88631" lon="8.53703">
        <ele>1805</ele>
        <time>2021-08-11T09:06:32.444Z</time>
      </trkpt>
      <trkpt lat="46.88631" lon="8.53703">
        <ele>1805</ele>
        <time>2021-08-11T09:06:33.444Z</time>
      </trkpt>
      <trkpt lat="46.88632" lon="8.53702">
        <ele>1806</ele>
        <time>2021-08-11T09:06:34.444Z</time>
      </trkpt>
      <trkpt lat="46.88633" lon="8.53702">
        <ele>1806</ele>
        <time>2021-08-11T09:06:35.444Z</time>
      </trkpt>
      <trkpt lat="46.88633" lon="8.53701">
        <ele>1807</ele>
        <time>2021-08-11T09:06:36.445Z</time>
      </trkpt>
      <trkpt lat="46.88633" lon="8.53701">
        <ele>1807</ele>
        <time>2021-08-11T09:06:37.445Z</time>
      </trkpt>
      <trkpt lat="46.88634" lon="8.537">
        <ele>1808</ele>
        <time>2021-08-11T09:06:38.444Z</time>
      </trkpt>
      <trkpt lat="46.88634" lon="8.53699">
        <ele>1808</ele>
        <time>2021-08-11T09:06:39.445Z</time>
      </trkpt>
      <trkpt lat="46.88634" lon="8.53699">
        <ele>1808</ele>
        <time>2021-08-11T09:06:40.444Z</time>
      </trkpt>
      <trkpt lat="46.88634" lon="8.53699">
        <ele>1808</ele>
        <time>2021-08-11T09:06:41.444Z</time>
      </trkpt>
      <trkpt lat="46.88635" lon="8.53699">
        <ele>1809</ele>
        <time>2021-08-11T09:06:42.444Z</time>
      </trkpt>
      <trkpt lat="46.88635" lon="8.53699">
        <ele>1808</ele>
        <time>2021-08-11T09:06:43.444Z</time>
      </trkpt>
      <trkpt lat="46.88634" lon="8.537">
        <ele>1808</ele>
        <time>2021-08-11T09:06:44.445Z</time>
      </trkpt>
      <trkpt lat="46.88634" lon="8.537">
        <ele>1808</ele>
        <time>2021-08-11T09:06:45.444Z</time>
      </trkpt>
      <trkpt lat="46.88635" lon="8.53699">
        <ele>1808</ele>
        <time>2021-08-11T09:06:46.445Z</time>
      </trkpt>
      <trkpt lat="46.88636" lon="8.53699">
        <ele>1809</ele>
        <time>2021-08-11T09:06:47.444Z</time>
      </trkpt>
      <trkpt lat="46.88636" lon="8.53698">
        <ele>1809</ele>
        <time>2021-08-11T09:06:48.445Z</time>
      </trkpt>
      <trkpt lat="46.88636" lon="8.53697">
        <ele>1809</ele>
        <time>2021-08-11T09:06:49.444Z</time>
      </trkpt>
      <trkpt lat="46.88637" lon="8.53697">
        <ele>1809</ele>
        <time>2021-08-11T09:06:50.444Z</time>
      </trkpt>
      <trkpt lat="46.88637" lon="8.53697">
        <ele>1809</ele>
        <time>2021-08-11T09:06:51.445Z</time>
      </trkpt>
      <trkpt lat="46.88637" lon="8.53696">
        <ele>1809</ele>
        <time>2021-08-11T09:06:52.444Z</time>
      </trkpt>
      <trkpt lat="46.88638" lon="8.53696">
        <ele>1809</ele>
        <time>2021-08-11T09:06:53.445Z</time>
      </trkpt>
      <trkpt lat="46.88638" lon="8.53696">
        <ele>1809</ele>
        <time>2021-08-11T09:06:54.445Z</time>
      </trkpt>
      <trkpt lat="46.88639" lon="8.53696">
        <ele>1808</ele>
        <time>2021-08-11T09:06:55.445Z</time>
      </trkpt>
      <trkpt lat="46.88639" lon="8.53695">
        <ele>1808</ele>
        <time>2021-08-11T09:06:56.445Z</time>
      </trkpt>
      <trkpt lat="46.88639" lon="8.53695">
        <ele>1808</ele>
        <time>2021-08-11T09:06:57.445Z</time>
      </trkpt>
      <trkpt lat="46.88639" lon="8.53694">
        <ele>1808</ele>
        <time>2021-08-11T09:06:58.445Z</time>
      </trkpt>
      <trkpt lat="46.8864" lon="8.53694">
        <ele>1808</ele>
        <time>2021-08-11T09:06:59.444Z</time>
      </trkpt>
      <trkpt lat="46.8864" lon="8.53694">
        <ele>1809</ele>
        <time>2021-08-11T09:07:00.445Z</time>
      </trkpt>
      <trkpt lat="46.8864" lon="8.53693">
        <ele>1809</ele>
        <time>2021-08-11T09:07:01.445Z</time>
      </trkpt>
      <trkpt lat="46.8864" lon="8.53693">
        <ele>1809</ele>
        <time>2021-08-11T09:07:02.444Z</time>
      </trkpt>
      <trkpt lat="46.8864" lon="8.53692">
        <ele>1809</ele>
        <time>2021-08-11T09:07:03.445Z</time>
      </trkpt>
      <trkpt lat="46.8864" lon="8.53692">
        <ele>1809</ele>
        <time>2021-08-11T09:07:04.445Z</time>
      </trkpt>
      <trkpt lat="46.88639" lon="8.5369">
        <ele>1812</ele>
        <time>2021-08-11T09:07:05.446Z</time>
      </trkpt>
      <trkpt lat="46.88638" lon="8.5369">
        <ele>1812</ele>
        <time>2021-08-11T09:07:06.446Z</time>
      </trkpt>
      <trkpt lat="46.88638" lon="8.5369">
        <ele>1812</ele>
        <time>2021-08-11T09:07:07.445Z</time>
      </trkpt>
      <trkpt lat="46.8864" lon="8.5369">
        <ele>1811</ele>
        <time>2021-08-11T09:07:08.446Z</time>
      </trkpt>
      <trkpt lat="46.8864" lon="8.5369">
        <ele>1811</ele>
        <time>2021-08-11T09:07:09.445Z</time>
      </trkpt>
      <trkpt lat="46.8864" lon="8.5369">
        <ele>1811</ele>
        <time>2021-08-11T09:07:10.446Z</time>
      </trkpt>
      <trkpt lat="46.8864" lon="8.5369">
        <ele>1811</ele>
        <time>2021-08-11T09:07:11.445Z</time>
      </trkpt>
      <trkpt lat="46.88641" lon="8.5369">
        <ele>1811</ele>
        <time>2021-08-11T09:07:12.445Z</time>
      </trkpt>
      <trkpt lat="46.88641" lon="8.5369">
        <ele>1810</ele>
        <time>2021-08-11T09:07:13.446Z</time>
      </trkpt>
      <trkpt lat="46.88641" lon="8.5369">
        <ele>1810</ele>
        <time>2021-08-11T09:07:14.446Z</time>
      </trkpt>
      <trkpt lat="46.88642" lon="8.53689">
        <ele>1810</ele>
        <time>2021-08-11T09:07:15.445Z</time>
      </trkpt>
      <trkpt lat="46.88642" lon="8.53689">
        <ele>1810</ele>
        <time>2021-08-11T09:07:16.445Z</time>
      </trkpt>
      <trkpt lat="46.88642" lon="8.53689">
        <ele>1810</ele>
        <time>2021-08-11T09:07:17.445Z</time>
      </trkpt>
      <trkpt lat="46.88643" lon="8.53689">
        <ele>1810</ele>
        <time>2021-08-11T09:07:18.445Z</time>
      </trkpt>
      <trkpt lat="46.88643" lon="8.53689">
        <ele>1810</ele>
        <time>2021-08-11T09:07:19.445Z</time>
      </trkpt>
      <trkpt lat="46.88643" lon="8.53689">
        <ele>1810</ele>
        <time>2021-08-11T09:07:20.446Z</time>
      </trkpt>
      <trkpt lat="46.88644" lon="8.53688">
        <ele>1811</ele>
        <time>2021-08-11T09:07:21.446Z</time>
      </trkpt>
      <trkpt lat="46.88644" lon="8.53688">
        <ele>1811</ele>
        <time>2021-08-11T09:07:22.446Z</time>
      </trkpt>
      <trkpt lat="46.88644" lon="8.53688">
        <ele>1812</ele>
        <time>2021-08-11T09:07:23.445Z</time>
      </trkpt>
      <trkpt lat="46.88644" lon="8.53689">
        <ele>1812</ele>
        <time>2021-08-11T09:07:24.445Z</time>
      </trkpt>
      <trkpt lat="46.88644" lon="8.53689">
        <ele>1812</ele>
        <time>2021-08-11T09:07:25.446Z</time>
      </trkpt>
      <trkpt lat="46.88645" lon="8.53689">
        <ele>1814</ele>
        <time>2021-08-11T09:07:26.447Z</time>
      </trkpt>
      <trkpt lat="46.88645" lon="8.53689">
        <ele>1815</ele>
        <time>2021-08-11T09:07:27.447Z</time>
      </trkpt>
      <trkpt lat="46.88646" lon="8.53688">
        <ele>1815</ele>
        <time>2021-08-11T09:07:28.446Z</time>
      </trkpt>
      <trkpt lat="46.88646" lon="8.53688">
        <ele>1816</ele>
        <time>2021-08-11T09:07:29.446Z</time>
      </trkpt>
      <trkpt lat="46.88647" lon="8.53688">
        <ele>1816</ele>
        <time>2021-08-11T09:07:30.446Z</time>
      </trkpt>
      <trkpt lat="46.88647" lon="8.53688">
        <ele>1817</ele>
        <time>2021-08-11T09:07:31.448Z</time>
      </trkpt>
      <trkpt lat="46.88648" lon="8.53688">
        <ele>1818</ele>
        <time>2021-08-11T09:07:32.447Z</time>
      </trkpt>
      <trkpt lat="46.88648" lon="8.53688">
        <ele>1818</ele>
        <time>2021-08-11T09:07:33.448Z</time>
      </trkpt>
      <trkpt lat="46.88649" lon="8.53688">
        <ele>1819</ele>
        <time>2021-08-11T09:07:34.447Z</time>
      </trkpt>
      <trkpt lat="46.8865" lon="8.53687">
        <ele>1819</ele>
        <time>2021-08-11T09:07:35.448Z</time>
      </trkpt>
      <trkpt lat="46.8865" lon="8.53687">
        <ele>1818</ele>
        <time>2021-08-11T09:07:36.448Z</time>
      </trkpt>
      <trkpt lat="46.88651" lon="8.53686">
        <ele>1818</ele>
        <time>2021-08-11T09:07:37.448Z</time>
      </trkpt>
      <trkpt lat="46.88651" lon="8.53686">
        <ele>1818</ele>
        <time>2021-08-11T09:07:38.447Z</time>
      </trkpt>
      <trkpt lat="46.88651" lon="8.53687">
        <ele>1817</ele>
        <time>2021-08-11T09:07:39.448Z</time>
      </trkpt>
      <trkpt lat="46.88651" lon="8.53687">
        <ele>1817</ele>
        <time>2021-08-11T09:07:40.449Z</time>
      </trkpt>
      <trkpt lat="46.88651" lon="8.53687">
        <ele>1817</ele>
        <time>2021-08-11T09:07:41.449Z</time>
      </trkpt>
      <trkpt lat="46.88651" lon="8.53686">
        <ele>1819</ele>
        <time>2021-08-11T09:07:42.448Z</time>
      </trkpt>
      <trkpt lat="46.88652" lon="8.53686">
        <ele>1819</ele>
        <time>2021-08-11T09:07:43.449Z</time>
      </trkpt>
      <trkpt lat="46.88652" lon="8.53686">
        <ele>1819</ele>
        <time>2021-08-11T09:07:44.448Z</time>
      </trkpt>
      <trkpt lat="46.88653" lon="8.53685">
        <ele>1820</ele>
        <time>2021-08-11T09:07:45.448Z</time>
      </trkpt>
      <trkpt lat="46.88654" lon="8.53685">
        <ele>1820</ele>
        <time>2021-08-11T09:07:46.449Z</time>
      </trkpt>
      <trkpt lat="46.88654" lon="8.53684">
        <ele>1821</ele>
        <time>2021-08-11T09:07:47.449Z</time>
      </trkpt>
      <trkpt lat="46.88655" lon="8.53684">
        <ele>1821</ele>
        <time>2021-08-11T09:07:48.449Z</time>
      </trkpt>
      <trkpt lat="46.88656" lon="8.53684">
        <ele>1822</ele>
        <time>2021-08-11T09:07:49.449Z</time>
      </trkpt>
      <trkpt lat="46.88657" lon="8.53683">
        <ele>1822</ele>
        <time>2021-08-11T09:07:50.449Z</time>
      </trkpt>
      <trkpt lat="46.88657" lon="8.53683">
        <ele>1822</ele>
        <time>2021-08-11T09:07:51.448Z</time>
      </trkpt>
      <trkpt lat="46.88658" lon="8.53683">
        <ele>1821</ele>
        <time>2021-08-11T09:07:52.449Z</time>
      </trkpt>
      <trkpt lat="46.88659" lon="8.53683">
        <ele>1821</ele>
        <time>2021-08-11T09:07:53.449Z</time>
      </trkpt>
      <trkpt lat="46.88659" lon="8.53683">
        <ele>1820</ele>
        <time>2021-08-11T09:07:54.449Z</time>
      </trkpt>
      <trkpt lat="46.88659" lon="8.53683">
        <ele>1820</ele>
        <time>2021-08-11T09:07:55.449Z</time>
      </trkpt>
      <trkpt lat="46.8866" lon="8.53682">
        <ele>1818</ele>
        <time>2021-08-11T09:07:56.449Z</time>
      </trkpt>
      <trkpt lat="46.8866" lon="8.53682">
        <ele>1818</ele>
        <time>2021-08-11T09:07:57.449Z</time>
      </trkpt>
      <trkpt lat="46.88661" lon="8.53682">
        <ele>1818</ele>
        <time>2021-08-11T09:07:58.448Z</time>
      </trkpt>
      <trkpt lat="46.88661" lon="8.53682">
        <ele>1818</ele>
        <time>2021-08-11T09:07:59.449Z</time>
      </trkpt>
      <trkpt lat="46.88662" lon="8.53682">
        <ele>1819</ele>
        <time>2021-08-11T09:08:00.448Z</time>
      </trkpt>
      <trkpt lat="46.88662" lon="8.53683">
        <ele>1819</ele>
        <time>2021-08-11T09:08:01.448Z</time>
      </trkpt>
      <trkpt lat="46.88662" lon="8.53683">
        <ele>1819</ele>
        <time>2021-08-11T09:08:02.449Z</time>
      </trkpt>
      <trkpt lat="46.88663" lon="8.53682">
        <ele>1820</ele>
        <time>2021-08-11T09:08:03.449Z</time>
      </trkpt>
      <trkpt lat="46.88663" lon="8.53681">
        <ele>1820</ele>
        <time>2021-08-11T09:08:04.448Z</time>
      </trkpt>
      <trkpt lat="46.88663" lon="8.53681">
        <ele>1820</ele>
        <time>2021-08-11T09:08:05.449Z</time>
      </trkpt>
      <trkpt lat="46.88663" lon="8.53681">
        <ele>1820</ele>
        <time>2021-08-11T09:08:06.448Z</time>
      </trkpt>
      <trkpt lat="46.88664" lon="8.5368">
        <ele>1820</ele>
        <time>2021-08-11T09:08:07.450Z</time>
      </trkpt>
      <trkpt lat="46.88664" lon="8.5368">
        <ele>1819</ele>
        <time>2021-08-11T09:08:08.449Z</time>
      </trkpt>
      <trkpt lat="46.88664" lon="8.5368">
        <ele>1819</ele>
        <time>2021-08-11T09:08:09.449Z</time>
      </trkpt>
      <trkpt lat="46.88665" lon="8.5368">
        <ele>1819</ele>
        <time>2021-08-11T09:08:10.449Z</time>
      </trkpt>
      <trkpt lat="46.88665" lon="8.5368">
        <ele>1819</ele>
        <time>2021-08-11T09:08:11.450Z</time>
      </trkpt>
      <trkpt lat="46.88665" lon="8.5368">
        <ele>1819</ele>
        <time>2021-08-11T09:08:12.450Z</time>
      </trkpt>
      <trkpt lat="46.88666" lon="8.5368">
        <ele>1819</ele>
        <time>2021-08-11T09:08:13.450Z</time>
      </trkpt>
      <trkpt lat="46.88666" lon="8.5368">
        <ele>1819</ele>
        <time>2021-08-11T09:08:14.450Z</time>
      </trkpt>
      <trkpt lat="46.88667" lon="8.5368">
        <ele>1820</ele>
        <time>2021-08-11T09:08:15.450Z</time>
      </trkpt>
      <trkpt lat="46.88667" lon="8.5368">
        <ele>1820</ele>
        <time>2021-08-11T09:08:16.450Z</time>
      </trkpt>
      <trkpt lat="46.88668" lon="8.53679">
        <ele>1820</ele>
        <time>2021-08-11T09:08:17.450Z</time>
      </trkpt>
      <trkpt lat="46.88668" lon="8.53679">
        <ele>1820</ele>
        <time>2021-08-11T09:08:18.450Z</time>
      </trkpt>
      <trkpt lat="46.88669" lon="8.53679">
        <ele>1820</ele>
        <time>2021-08-11T09:08:19.450Z</time>
      </trkpt>
      <trkpt lat="46.88669" lon="8.53678">
        <ele>1821</ele>
        <time>2021-08-11T09:08:20.450Z</time>
      </trkpt>
      <trkpt lat="46.88669" lon="8.53678">
        <ele>1821</ele>
        <time>2021-08-11T09:08:21.449Z</time>
      </trkpt>
      <trkpt lat="46.88669" lon="8.53679">
        <ele>1822</ele>
        <time>2021-08-11T09:08:22.450Z</time>
      </trkpt>
      <trkpt lat="46.88671" lon="8.53677">
        <ele>1823</ele>
        <time>2021-08-11T09:08:23.450Z</time>
      </trkpt>
      <trkpt lat="46.88671" lon="8.53677">
        <ele>1823</ele>
        <time>2021-08-11T09:08:24.451Z</time>
      </trkpt>
      <trkpt lat="46.88672" lon="8.53677">
        <ele>1825</ele>
        <time>2021-08-11T09:08:25.450Z</time>
      </trkpt>
      <trkpt lat="46.88673" lon="8.53677">
        <ele>1825</ele>
        <time>2021-08-11T09:08:26.450Z</time>
      </trkpt>
      <trkpt lat="46.88674" lon="8.53676">
        <ele>1826</ele>
        <time>2021-08-11T09:08:27.450Z</time>
      </trkpt>
      <trkpt lat="46.88674" lon="8.53676">
        <ele>1826</ele>
        <time>2021-08-11T09:08:28.450Z</time>
      </trkpt>
      <trkpt lat="46.88674" lon="8.53677">
        <ele>1826</ele>
        <time>2021-08-11T09:08:29.450Z</time>
      </trkpt>
      <trkpt lat="46.88674" lon="8.53677">
        <ele>1826</ele>
        <time>2021-08-11T09:08:30.450Z</time>
      </trkpt>
      <trkpt lat="46.88674" lon="8.53678">
        <ele>1826</ele>
        <time>2021-08-11T09:08:31.450Z</time>
      </trkpt>
      <trkpt lat="46.88675" lon="8.53678">
        <ele>1826</ele>
        <time>2021-08-11T09:08:32.451Z</time>
      </trkpt>
      <trkpt lat="46.88675" lon="8.53678">
        <ele>1826</ele>
        <time>2021-08-11T09:08:33.450Z</time>
      </trkpt>
      <trkpt lat="46.88676" lon="8.53679">
        <ele>1826</ele>
        <time>2021-08-11T09:08:34.450Z</time>
      </trkpt>
      <trkpt lat="46.88676" lon="8.53679">
        <ele>1826</ele>
        <time>2021-08-11T09:08:35.450Z</time>
      </trkpt>
      <trkpt lat="46.88677" lon="8.5368">
        <ele>1826</ele>
        <time>2021-08-11T09:08:36.451Z</time>
      </trkpt>
      <trkpt lat="46.88677" lon="8.5368">
        <ele>1826</ele>
        <time>2021-08-11T09:08:37.451Z</time>
      </trkpt>
      <trkpt lat="46.88677" lon="8.53681">
        <ele>1826</ele>
        <time>2021-08-11T09:08:38.450Z</time>
      </trkpt>
      <trkpt lat="46.88677" lon="8.53681">
        <ele>1825</ele>
        <time>2021-08-11T09:08:39.450Z</time>
      </trkpt>
      <trkpt lat="46.88678" lon="8.53682">
        <ele>1825</ele>
        <time>2021-08-11T09:08:40.450Z</time>
      </trkpt>
      <trkpt lat="46.88678" lon="8.53682">
        <ele>1825</ele>
        <time>2021-08-11T09:08:41.451Z</time>
      </trkpt>
      <trkpt lat="46.88678" lon="8.53682">
        <ele>1824</ele>
        <time>2021-08-11T09:08:42.451Z</time>
      </trkpt>
      <trkpt lat="46.88679" lon="8.53682">
        <ele>1824</ele>
        <time>2021-08-11T09:08:43.450Z</time>
      </trkpt>
      <trkpt lat="46.8868" lon="8.53682">
        <ele>1824</ele>
        <time>2021-08-11T09:08:44.450Z</time>
      </trkpt>
      <trkpt lat="46.8868" lon="8.53683">
        <ele>1823</ele>
        <time>2021-08-11T09:08:45.450Z</time>
      </trkpt>
      <trkpt lat="46.8868" lon="8.53683">
        <ele>1823</ele>
        <time>2021-08-11T09:08:46.451Z</time>
      </trkpt>
      <trkpt lat="46.8868" lon="8.53682">
        <ele>1823</ele>
        <time>2021-08-11T09:08:47.451Z</time>
      </trkpt>
      <trkpt lat="46.8868" lon="8.53682">
        <ele>1823</ele>
        <time>2021-08-11T09:08:48.450Z</time>
      </trkpt>
      <trkpt lat="46.88681" lon="8.53681">
        <ele>1823</ele>
        <time>2021-08-11T09:08:49.450Z</time>
      </trkpt>
      <trkpt lat="46.88681" lon="8.5368">
        <ele>1823</ele>
        <time>2021-08-11T09:08:50.451Z</time>
      </trkpt>
      <trkpt lat="46.88682" lon="8.5368">
        <ele>1823</ele>
        <time>2021-08-11T09:08:51.451Z</time>
      </trkpt>
      <trkpt lat="46.88682" lon="8.53679">
        <ele>1823</ele>
        <time>2021-08-11T09:08:52.451Z</time>
      </trkpt>
      <trkpt lat="46.88683" lon="8.53679">
        <ele>1824</ele>
        <time>2021-08-11T09:08:53.450Z</time>
      </trkpt>
      <trkpt lat="46.88683" lon="8.53679">
        <ele>1824</ele>
        <time>2021-08-11T09:08:54.450Z</time>
      </trkpt>
      <trkpt lat="46.88683" lon="8.53678">
        <ele>1825</ele>
        <time>2021-08-11T09:08:55.451Z</time>
      </trkpt>
      <trkpt lat="46.88683" lon="8.53678">
        <ele>1825</ele>
        <time>2021-08-11T09:08:56.451Z</time>
      </trkpt>
      <trkpt lat="46.88683" lon="8.53678">
        <ele>1825</ele>
        <time>2021-08-11T09:08:57.450Z</time>
      </trkpt>
      <trkpt lat="46.88684" lon="8.53678">
        <ele>1826</ele>
        <time>2021-08-11T09:08:58.450Z</time>
      </trkpt>
      <trkpt lat="46.88684" lon="8.53678">
        <ele>1827</ele>
        <time>2021-08-11T09:08:59.451Z</time>
      </trkpt>
      <trkpt lat="46.88684" lon="8.53677">
        <ele>1827</ele>
        <time>2021-08-11T09:09:00.451Z</time>
      </trkpt>
      <trkpt lat="46.88684" lon="8.53677">
        <ele>1827</ele>
        <time>2021-08-11T09:09:01.452Z</time>
      </trkpt>
      <trkpt lat="46.88685" lon="8.53677">
        <ele>1828</ele>
        <time>2021-08-11T09:09:02.452Z</time>
      </trkpt>
      <trkpt lat="46.88686" lon="8.53676">
        <ele>1828</ele>
        <time>2021-08-11T09:09:03.452Z</time>
      </trkpt>
      <trkpt lat="46.88686" lon="8.53676">
        <ele>1829</ele>
        <time>2021-08-11T09:09:04.452Z</time>
      </trkpt>
      <trkpt lat="46.88686" lon="8.53676">
        <ele>1829</ele>
        <time>2021-08-11T09:09:05.452Z</time>
      </trkpt>
      <trkpt lat="46.88686" lon="8.53676">
        <ele>1829</ele>
        <time>2021-08-11T09:09:06.452Z</time>
      </trkpt>
      <trkpt lat="46.88687" lon="8.53675">
        <ele>1829</ele>
        <time>2021-08-11T09:09:07.452Z</time>
      </trkpt>
      <trkpt lat="46.88688" lon="8.53675">
        <ele>1829</ele>
        <time>2021-08-11T09:09:08.452Z</time>
      </trkpt>
      <trkpt lat="46.88688" lon="8.53675">
        <ele>1829</ele>
        <time>2021-08-11T09:09:09.452Z</time>
      </trkpt>
      <trkpt lat="46.88688" lon="8.53676">
        <ele>1829</ele>
        <time>2021-08-11T09:09:10.451Z</time>
      </trkpt>
      <trkpt lat="46.88689" lon="8.53676">
        <ele>1829</ele>
        <time>2021-08-11T09:09:11.452Z</time>
      </trkpt>
      <trkpt lat="46.88689" lon="8.53676">
        <ele>1829</ele>
        <time>2021-08-11T09:09:12.452Z</time>
      </trkpt>
      <trkpt lat="46.8869" lon="8.53676">
        <ele>1829</ele>
        <time>2021-08-11T09:09:13.452Z</time>
      </trkpt>
      <trkpt lat="46.8869" lon="8.53676">
        <ele>1829</ele>
        <time>2021-08-11T09:09:14.452Z</time>
      </trkpt>
      <trkpt lat="46.8869" lon="8.53675">
        <ele>1829</ele>
        <time>2021-08-11T09:09:15.451Z</time>
      </trkpt>
      <trkpt lat="46.8869" lon="8.53675">
        <ele>1829</ele>
        <time>2021-08-11T09:09:16.451Z</time>
      </trkpt>
      <trkpt lat="46.8869" lon="8.53674">
        <ele>1829</ele>
        <time>2021-08-11T09:09:17.452Z</time>
      </trkpt>
      <trkpt lat="46.88689" lon="8.53673">
        <ele>1829</ele>
        <time>2021-08-11T09:09:18.452Z</time>
      </trkpt>
      <trkpt lat="46.88689" lon="8.53673">
        <ele>1830</ele>
        <time>2021-08-11T09:09:19.452Z</time>
      </trkpt>
      <trkpt lat="46.88688" lon="8.53672">
        <ele>1830</ele>
        <time>2021-08-11T09:09:20.452Z</time>
      </trkpt>
      <trkpt lat="46.88688" lon="8.53671">
        <ele>1830</ele>
        <time>2021-08-11T09:09:21.451Z</time>
      </trkpt>
      <trkpt lat="46.88687" lon="8.53671">
        <ele>1829</ele>
        <time>2021-08-11T09:09:22.452Z</time>
      </trkpt>
      <trkpt lat="46.88687" lon="8.5367">
        <ele>1829</ele>
        <time>2021-08-11T09:09:23.452Z</time>
      </trkpt>
      <trkpt lat="46.88687" lon="8.5367">
        <ele>1829</ele>
        <time>2021-08-11T09:09:24.452Z</time>
      </trkpt>
      <trkpt lat="46.88687" lon="8.5367">
        <ele>1829</ele>
        <time>2021-08-11T09:09:25.452Z</time>
      </trkpt>
      <trkpt lat="46.88686" lon="8.53669">
        <ele>1829</ele>
        <time>2021-08-11T09:09:26.451Z</time>
      </trkpt>
      <trkpt lat="46.88686" lon="8.53669">
        <ele>1829</ele>
        <time>2021-08-11T09:09:27.452Z</time>
      </trkpt>
      <trkpt lat="46.88686" lon="8.53668">
        <ele>1829</ele>
        <time>2021-08-11T09:09:28.452Z</time>
      </trkpt>
      <trkpt lat="46.88686" lon="8.53668">
        <ele>1829</ele>
        <time>2021-08-11T09:09:29.452Z</time>
      </trkpt>
      <trkpt lat="46.88686" lon="8.53668">
        <ele>1828</ele>
        <time>2021-08-11T09:09:30.452Z</time>
      </trkpt>
      <trkpt lat="46.88686" lon="8.53667">
        <ele>1828</ele>
        <time>2021-08-11T09:09:31.452Z</time>
      </trkpt>
      <trkpt lat="46.88686" lon="8.53667">
        <ele>1828</ele>
        <time>2021-08-11T09:09:32.451Z</time>
      </trkpt>
      <trkpt lat="46.88686" lon="8.53666">
        <ele>1828</ele>
        <time>2021-08-11T09:09:33.452Z</time>
      </trkpt>
      <trkpt lat="46.88687" lon="8.53666">
        <ele>1828</ele>
        <time>2021-08-11T09:09:34.451Z</time>
      </trkpt>
      <trkpt lat="46.88687" lon="8.53665">
        <ele>1828</ele>
        <time>2021-08-11T09:09:35.452Z</time>
      </trkpt>
      <trkpt lat="46.88686" lon="8.53664">
        <ele>1828</ele>
        <time>2021-08-11T09:09:36.452Z</time>
      </trkpt>
      <trkpt lat="46.88685" lon="8.53664">
        <ele>1828</ele>
        <time>2021-08-11T09:09:37.453Z</time>
      </trkpt>
      <trkpt lat="46.88685" lon="8.53662">
        <ele>1829</ele>
        <time>2021-08-11T09:09:38.453Z</time>
      </trkpt>
      <trkpt lat="46.88684" lon="8.53662">
        <ele>1829</ele>
        <time>2021-08-11T09:09:39.453Z</time>
      </trkpt>
      <trkpt lat="46.88684" lon="8.53661">
        <ele>1830</ele>
        <time>2021-08-11T09:09:40.453Z</time>
      </trkpt>
      <trkpt lat="46.88684" lon="8.53661">
        <ele>1831</ele>
        <time>2021-08-11T09:09:41.453Z</time>
      </trkpt>
      <trkpt lat="46.88685" lon="8.53659">
        <ele>1832</ele>
        <time>2021-08-11T09:09:42.452Z</time>
      </trkpt>
      <trkpt lat="46.88685" lon="8.53661">
        <ele>1832</ele>
        <time>2021-08-11T09:09:43.453Z</time>
      </trkpt>
      <trkpt lat="46.88684" lon="8.53663">
        <ele>1832</ele>
        <time>2021-08-11T09:09:44.453Z</time>
      </trkpt>
      <trkpt lat="46.88684" lon="8.53663">
        <ele>1832</ele>
        <time>2021-08-11T09:09:45.453Z</time>
      </trkpt>
      <trkpt lat="46.88684" lon="8.53664">
        <ele>1833</ele>
        <time>2021-08-11T09:09:46.452Z</time>
      </trkpt>
      <trkpt lat="46.88684" lon="8.53661">
        <ele>1832</ele>
        <time>2021-08-11T09:09:47.454Z</time>
      </trkpt>
      <trkpt lat="46.88684" lon="8.53661">
        <ele>1832</ele>
        <time>2021-08-11T09:09:48.454Z</time>
      </trkpt>
      <trkpt lat="46.88685" lon="8.53661">
        <ele>1832</ele>
        <time>2021-08-11T09:09:49.454Z</time>
      </trkpt>
      <trkpt lat="46.88685" lon="8.5366">
        <ele>1833</ele>
        <time>2021-08-11T09:09:50.454Z</time>
      </trkpt>
      <trkpt lat="46.88684" lon="8.53658">
        <ele>1833</ele>
        <time>2021-08-11T09:09:51.454Z</time>
      </trkpt>
      <trkpt lat="46.88684" lon="8.53657">
        <ele>1833</ele>
        <time>2021-08-11T09:09:52.454Z</time>
      </trkpt>
      <trkpt lat="46.88683" lon="8.53657">
        <ele>1833</ele>
        <time>2021-08-11T09:09:53.455Z</time>
      </trkpt>
      <trkpt lat="46.88683" lon="8.53656">
        <ele>1833</ele>
        <time>2021-08-11T09:09:54.455Z</time>
      </trkpt>
      <trkpt lat="46.88683" lon="8.53655">
        <ele>1833</ele>
        <time>2021-08-11T09:09:55.454Z</time>
      </trkpt>
      <trkpt lat="46.88684" lon="8.53652">
        <ele>1833</ele>
        <time>2021-08-11T09:09:56.454Z</time>
      </trkpt>
      <trkpt lat="46.88684" lon="8.5365">
        <ele>1833</ele>
        <time>2021-08-11T09:09:57.455Z</time>
      </trkpt>
      <trkpt lat="46.88683" lon="8.5365">
        <ele>1833</ele>
        <time>2021-08-11T09:09:58.454Z</time>
      </trkpt>
      <trkpt lat="46.88683" lon="8.53649">
        <ele>1832</ele>
        <time>2021-08-11T09:09:59.455Z</time>
      </trkpt>
      <trkpt lat="46.88682" lon="8.53649">
        <ele>1832</ele>
        <time>2021-08-11T09:10:00.455Z</time>
      </trkpt>
      <trkpt lat="46.88682" lon="8.53649">
        <ele>1831</ele>
        <time>2021-08-11T09:10:01.454Z</time>
      </trkpt>
      <trkpt lat="46.88682" lon="8.53648">
        <ele>1831</ele>
        <time>2021-08-11T09:10:02.455Z</time>
      </trkpt>
      <trkpt lat="46.88681" lon="8.53648">
        <ele>1830</ele>
        <time>2021-08-11T09:10:03.454Z</time>
      </trkpt>
      <trkpt lat="46.88681" lon="8.53648">
        <ele>1830</ele>
        <time>2021-08-11T09:10:04.455Z</time>
      </trkpt>
      <trkpt lat="46.88681" lon="8.53647">
        <ele>1830</ele>
        <time>2021-08-11T09:10:05.455Z</time>
      </trkpt>
      <trkpt lat="46.8868" lon="8.53647">
        <ele>1830</ele>
        <time>2021-08-11T09:10:06.455Z</time>
      </trkpt>
      <trkpt lat="46.88679" lon="8.53646">
        <ele>1829</ele>
        <time>2021-08-11T09:10:07.454Z</time>
      </trkpt>
      <trkpt lat="46.88679" lon="8.53646">
        <ele>1829</ele>
        <time>2021-08-11T09:10:08.455Z</time>
      </trkpt>
      <trkpt lat="46.88678" lon="8.53645">
        <ele>1829</ele>
        <time>2021-08-11T09:10:09.455Z</time>
      </trkpt>
      <trkpt lat="46.88678" lon="8.53644">
        <ele>1829</ele>
        <time>2021-08-11T09:10:10.454Z</time>
      </trkpt>
      <trkpt lat="46.88678" lon="8.53644">
        <ele>1829</ele>
        <time>2021-08-11T09:10:11.455Z</time>
      </trkpt>
      <trkpt lat="46.88678" lon="8.53643">
        <ele>1829</ele>
        <time>2021-08-11T09:10:12.454Z</time>
      </trkpt>
      <trkpt lat="46.88678" lon="8.53642">
        <ele>1830</ele>
        <time>2021-08-11T09:10:13.455Z</time>
      </trkpt>
      <trkpt lat="46.88678" lon="8.53642">
        <ele>1831</ele>
        <time>2021-08-11T09:10:14.455Z</time>
      </trkpt>
      <trkpt lat="46.88678" lon="8.53641">
        <ele>1831</ele>
        <time>2021-08-11T09:10:15.455Z</time>
      </trkpt>
      <trkpt lat="46.88677" lon="8.5364">
        <ele>1832</ele>
        <time>2021-08-11T09:10:16.454Z</time>
      </trkpt>
      <trkpt lat="46.88677" lon="8.53639">
        <ele>1833</ele>
        <time>2021-08-11T09:10:17.454Z</time>
      </trkpt>
      <trkpt lat="46.88677" lon="8.53639">
        <ele>1834</ele>
        <time>2021-08-11T09:10:18.455Z</time>
      </trkpt>
      <trkpt lat="46.88677" lon="8.53639">
        <ele>1834</ele>
        <time>2021-08-11T09:10:19.454Z</time>
      </trkpt>
      <trkpt lat="46.88677" lon="8.53638">
        <ele>1834</ele>
        <time>2021-08-11T09:10:20.455Z</time>
      </trkpt>
      <trkpt lat="46.88677" lon="8.53638">
        <ele>1834</ele>
        <time>2021-08-11T09:10:21.454Z</time>
      </trkpt>
      <trkpt lat="46.88676" lon="8.53638">
        <ele>1835</ele>
        <time>2021-08-11T09:10:22.455Z</time>
      </trkpt>
      <trkpt lat="46.88676" lon="8.53639">
        <ele>1836</ele>
        <time>2021-08-11T09:10:23.454Z</time>
      </trkpt>
      <trkpt lat="46.88675" lon="8.53639">
        <ele>1836</ele>
        <time>2021-08-11T09:10:24.455Z</time>
      </trkpt>
      <trkpt lat="46.88674" lon="8.5364">
        <ele>1837</ele>
        <time>2021-08-11T09:10:25.456Z</time>
      </trkpt>
      <trkpt lat="46.88674" lon="8.5364">
        <ele>1836</ele>
        <time>2021-08-11T09:10:26.455Z</time>
      </trkpt>
      <trkpt lat="46.88674" lon="8.53639">
        <ele>1836</ele>
        <time>2021-08-11T09:10:27.456Z</time>
      </trkpt>
      <trkpt lat="46.88673" lon="8.53639">
        <ele>1836</ele>
        <time>2021-08-11T09:10:28.457Z</time>
      </trkpt>
      <trkpt lat="46.88672" lon="8.53639">
        <ele>1836</ele>
        <time>2021-08-11T09:10:29.457Z</time>
      </trkpt>
      <trkpt lat="46.88672" lon="8.53639">
        <ele>1837</ele>
        <time>2021-08-11T09:10:30.456Z</time>
      </trkpt>
      <trkpt lat="46.88672" lon="8.5364">
        <ele>1837</ele>
        <time>2021-08-11T09:10:31.457Z</time>
      </trkpt>
      <trkpt lat="46.88671" lon="8.5364">
        <ele>1837</ele>
        <time>2021-08-11T09:10:32.456Z</time>
      </trkpt>
      <trkpt lat="46.88671" lon="8.5364">
        <ele>1837</ele>
        <time>2021-08-11T09:10:33.457Z</time>
      </trkpt>
      <trkpt lat="46.88671" lon="8.5364">
        <ele>1837</ele>
        <time>2021-08-11T09:10:34.457Z</time>
      </trkpt>
      <trkpt lat="46.88671" lon="8.53639">
        <ele>1837</ele>
        <time>2021-08-11T09:10:35.458Z</time>
      </trkpt>
      <trkpt lat="46.8867" lon="8.53639">
        <ele>1839</ele>
        <time>2021-08-11T09:10:36.457Z</time>
      </trkpt>
      <trkpt lat="46.8867" lon="8.53639">
        <ele>1840</ele>
        <time>2021-08-11T09:10:37.458Z</time>
      </trkpt>
      <trkpt lat="46.88671" lon="8.53638">
        <ele>1843</ele>
        <time>2021-08-11T09:10:38.458Z</time>
      </trkpt>
      <trkpt lat="46.88672" lon="8.53637">
        <ele>1843</ele>
        <time>2021-08-11T09:10:39.458Z</time>
      </trkpt>
      <trkpt lat="46.88672" lon="8.53637">
        <ele>1844</ele>
        <time>2021-08-11T09:10:40.458Z</time>
      </trkpt>
      <trkpt lat="46.88672" lon="8.53637">
        <ele>1845</ele>
        <time>2021-08-11T09:10:41.458Z</time>
      </trkpt>
      <trkpt lat="46.88673" lon="8.53636">
        <ele>1845</ele>
        <time>2021-08-11T09:10:42.459Z</time>
      </trkpt>
      <trkpt lat="46.88673" lon="8.53636">
        <ele>1846</ele>
        <time>2021-08-11T09:10:43.459Z</time>
      </trkpt>
      <trkpt lat="46.88673" lon="8.53635">
        <ele>1846</ele>
        <time>2021-08-11T09:10:44.459Z</time>
      </trkpt>
      <trkpt lat="46.88673" lon="8.53634">
        <ele>1847</ele>
        <time>2021-08-11T09:10:45.459Z</time>
      </trkpt>
      <trkpt lat="46.88673" lon="8.53634">
        <ele>1847</ele>
        <time>2021-08-11T09:10:46.459Z</time>
      </trkpt>
      <trkpt lat="46.88673" lon="8.53634">
        <ele>1847</ele>
        <time>2021-08-11T09:10:47.458Z</time>
      </trkpt>
      <trkpt lat="46.88672" lon="8.53634">
        <ele>1847</ele>
        <time>2021-08-11T09:10:48.459Z</time>
      </trkpt>
      <trkpt lat="46.88672" lon="8.53634">
        <ele>1847</ele>
        <time>2021-08-11T09:10:49.459Z</time>
      </trkpt>
      <trkpt lat="46.88672" lon="8.53634">
        <ele>1847</ele>
        <time>2021-08-11T09:10:50.459Z</time>
      </trkpt>
      <trkpt lat="46.8867" lon="8.53633">
        <ele>1848</ele>
        <time>2021-08-11T09:10:51.460Z</time>
      </trkpt>
      <trkpt lat="46.8867" lon="8.53633">
        <ele>1848</ele>
        <time>2021-08-11T09:10:52.460Z</time>
      </trkpt>
      <trkpt lat="46.88669" lon="8.53632">
        <ele>1849</ele>
        <time>2021-08-11T09:10:53.459Z</time>
      </trkpt>
      <trkpt lat="46.88669" lon="8.53632">
        <ele>1849</ele>
        <time>2021-08-11T09:10:54.460Z</time>
      </trkpt>
      <trkpt lat="46.88669" lon="8.53632">
        <ele>1849</ele>
        <time>2021-08-11T09:10:55.460Z</time>
      </trkpt>
      <trkpt lat="46.88668" lon="8.53631">
        <ele>1849</ele>
        <time>2021-08-11T09:10:56.459Z</time>
      </trkpt>
      <trkpt lat="46.88668" lon="8.53631">
        <ele>1849</ele>
        <time>2021-08-11T09:10:57.460Z</time>
      </trkpt>
      <trkpt lat="46.88668" lon="8.53631">
        <ele>1849</ele>
        <time>2021-08-11T09:10:58.460Z</time>
      </trkpt>
      <trkpt lat="46.88668" lon="8.53629">
        <ele>1849</ele>
        <time>2021-08-11T09:10:59.461Z</time>
      </trkpt>
      <trkpt lat="46.88669" lon="8.53628">
        <ele>1849</ele>
        <time>2021-08-11T09:11:00.461Z</time>
      </trkpt>
      <trkpt lat="46.88669" lon="8.53628">
        <ele>1849</ele>
        <time>2021-08-11T09:11:01.460Z</time>
      </trkpt>
      <trkpt lat="46.88669" lon="8.53628">
        <ele>1850</ele>
        <time>2021-08-11T09:11:02.461Z</time>
      </trkpt>
      <trkpt lat="46.88666" lon="8.53625">
        <ele>1847</ele>
        <time>2021-08-11T09:11:03.462Z</time>
      </trkpt>
      <trkpt lat="46.88666" lon="8.53624">
        <ele>1847</ele>
        <time>2021-08-11T09:11:04.462Z</time>
      </trkpt>
      <trkpt lat="46.88665" lon="8.53624">
        <ele>1847</ele>
        <time>2021-08-11T09:11:05.461Z</time>
      </trkpt>
      <trkpt lat="46.88665" lon="8.53623">
        <ele>1848</ele>
        <time>2021-08-11T09:11:06.462Z</time>
      </trkpt>
      <trkpt lat="46.88664" lon="8.53623">
        <ele>1848</ele>
        <time>2021-08-11T09:11:07.461Z</time>
      </trkpt>
      <trkpt lat="46.88664" lon="8.53623">
        <ele>1849</ele>
        <time>2021-08-11T09:11:08.461Z</time>
      </trkpt>
      <trkpt lat="46.88663" lon="8.53622">
        <ele>1849</ele>
        <time>2021-08-11T09:11:09.462Z</time>
      </trkpt>
      <trkpt lat="46.88663" lon="8.53622">
        <ele>1849</ele>
        <time>2021-08-11T09:11:10.462Z</time>
      </trkpt>
      <trkpt lat="46.88662" lon="8.53622">
        <ele>1849</ele>
        <time>2021-08-11T09:11:11.462Z</time>
      </trkpt>
      <trkpt lat="46.88662" lon="8.53621">
        <ele>1848</ele>
        <time>2021-08-11T09:11:12.461Z</time>
      </trkpt>
      <trkpt lat="46.88661" lon="8.5362">
        <ele>1848</ele>
        <time>2021-08-11T09:11:13.461Z</time>
      </trkpt>
      <trkpt lat="46.88661" lon="8.5362">
        <ele>1848</ele>
        <time>2021-08-11T09:11:14.462Z</time>
      </trkpt>
      <trkpt lat="46.8866" lon="8.53619">
        <ele>1848</ele>
        <time>2021-08-11T09:11:15.462Z</time>
      </trkpt>
      <trkpt lat="46.8866" lon="8.53619">
        <ele>1849</ele>
        <time>2021-08-11T09:11:16.462Z</time>
      </trkpt>
      <trkpt lat="46.8866" lon="8.53619">
        <ele>1849</ele>
        <time>2021-08-11T09:11:17.461Z</time>
      </trkpt>
      <trkpt lat="46.8866" lon="8.53618">
        <ele>1849</ele>
        <time>2021-08-11T09:11:18.462Z</time>
      </trkpt>
      <trkpt lat="46.8866" lon="8.53618">
        <ele>1849</ele>
        <time>2021-08-11T09:11:19.462Z</time>
      </trkpt>
      <trkpt lat="46.8866" lon="8.53618">
        <ele>1850</ele>
        <time>2021-08-11T09:11:20.462Z</time>
      </trkpt>
      <trkpt lat="46.88661" lon="8.53618">
        <ele>1851</ele>
        <time>2021-08-11T09:11:21.462Z</time>
      </trkpt>
      <trkpt lat="46.88662" lon="8.53617">
        <ele>1851</ele>
        <time>2021-08-11T09:11:22.461Z</time>
      </trkpt>
      <trkpt lat="46.88663" lon="8.53617">
        <ele>1851</ele>
        <time>2021-08-11T09:11:23.462Z</time>
      </trkpt>
      <trkpt lat="46.88663" lon="8.53618">
        <ele>1852</ele>
        <time>2021-08-11T09:11:24.461Z</time>
      </trkpt>
      <trkpt lat="46.88664" lon="8.53618">
        <ele>1852</ele>
        <time>2021-08-11T09:11:25.462Z</time>
      </trkpt>
      <trkpt lat="46.88664" lon="8.53618">
        <ele>1853</ele>
        <time>2021-08-11T09:11:26.462Z</time>
      </trkpt>
      <trkpt lat="46.88666" lon="8.53618">
        <ele>1853</ele>
        <time>2021-08-11T09:11:27.462Z</time>
      </trkpt>
      <trkpt lat="46.88666" lon="8.53617">
        <ele>1854</ele>
        <time>2021-08-11T09:11:28.462Z</time>
      </trkpt>
      <trkpt lat="46.88667" lon="8.53617">
        <ele>1854</ele>
        <time>2021-08-11T09:11:29.462Z</time>
      </trkpt>
      <trkpt lat="46.88667" lon="8.53617">
        <ele>1855</ele>
        <time>2021-08-11T09:11:30.462Z</time>
      </trkpt>
      <trkpt lat="46.88666" lon="8.53616">
        <ele>1854</ele>
        <time>2021-08-11T09:11:31.462Z</time>
      </trkpt>
      <trkpt lat="46.88666" lon="8.53616">
        <ele>1854</ele>
        <time>2021-08-11T09:11:32.462Z</time>
      </trkpt>
      <trkpt lat="46.88665" lon="8.53616">
        <ele>1853</ele>
        <time>2021-08-11T09:11:33.462Z</time>
      </trkpt>
      <trkpt lat="46.88663" lon="8.53615">
        <ele>1854</ele>
        <time>2021-08-11T09:11:34.464Z</time>
      </trkpt>
      <trkpt lat="46.88663" lon="8.53615">
        <ele>1854</ele>
        <time>2021-08-11T09:11:35.463Z</time>
      </trkpt>
      <trkpt lat="46.88662" lon="8.53614">
        <ele>1855</ele>
        <time>2021-08-11T09:11:36.463Z</time>
      </trkpt>
      <trkpt lat="46.88661" lon="8.53614">
        <ele>1855</ele>
        <time>2021-08-11T09:11:37.464Z</time>
      </trkpt>
      <trkpt lat="46.88661" lon="8.53615">
        <ele>1856</ele>
        <time>2021-08-11T09:11:38.463Z</time>
      </trkpt>
      <trkpt lat="46.88661" lon="8.53614">
        <ele>1856</ele>
        <time>2021-08-11T09:11:39.464Z</time>
      </trkpt>
      <trkpt lat="46.88661" lon="8.53614">
        <ele>1857</ele>
        <time>2021-08-11T09:11:40.464Z</time>
      </trkpt>
      <trkpt lat="46.8866" lon="8.53613">
        <ele>1857</ele>
        <time>2021-08-11T09:11:41.464Z</time>
      </trkpt>
      <trkpt lat="46.8866" lon="8.53613">
        <ele>1857</ele>
        <time>2021-08-11T09:11:42.463Z</time>
      </trkpt>
      <trkpt lat="46.88659" lon="8.53613">
        <ele>1857</ele>
        <time>2021-08-11T09:11:43.464Z</time>
      </trkpt>
      <trkpt lat="46.88658" lon="8.53612">
        <ele>1858</ele>
        <time>2021-08-11T09:11:44.464Z</time>
      </trkpt>
      <trkpt lat="46.88658" lon="8.53611">
        <ele>1858</ele>
        <time>2021-08-11T09:11:45.463Z</time>
      </trkpt>
      <trkpt lat="46.88658" lon="8.53611">
        <ele>1858</ele>
        <time>2021-08-11T09:11:46.464Z</time>
      </trkpt>
      <trkpt lat="46.88658" lon="8.53611">
        <ele>1859</ele>
        <time>2021-08-11T09:11:47.463Z</time>
      </trkpt>
      <trkpt lat="46.88657" lon="8.53611">
        <ele>1859</ele>
        <time>2021-08-11T09:11:48.464Z</time>
      </trkpt>
      <trkpt lat="46.88657" lon="8.53611">
        <ele>1859</ele>
        <time>2021-08-11T09:11:49.464Z</time>
      </trkpt>
      <trkpt lat="46.88658" lon="8.53611">
        <ele>1859</ele>
        <time>2021-08-11T09:11:50.463Z</time>
      </trkpt>
      <trkpt lat="46.88658" lon="8.53611">
        <ele>1859</ele>
        <time>2021-08-11T09:11:51.463Z</time>
      </trkpt>
      <trkpt lat="46.88658" lon="8.53611">
        <ele>1859</ele>
        <time>2021-08-11T09:11:52.463Z</time>
      </trkpt>
      <trkpt lat="46.88657" lon="8.53612">
        <ele>1859</ele>
        <time>2021-08-11T09:11:53.463Z</time>
      </trkpt>
      <trkpt lat="46.88656" lon="8.53611">
        <ele>1859</ele>
        <time>2021-08-11T09:11:54.464Z</time>
      </trkpt>
      <trkpt lat="46.88655" lon="8.53611">
        <ele>1859</ele>
        <time>2021-08-11T09:11:55.464Z</time>
      </trkpt>
      <trkpt lat="46.88657" lon="8.5361">
        <ele>1861</ele>
        <time>2021-08-11T09:11:56.464Z</time>
      </trkpt>
      <trkpt lat="46.88658" lon="8.5361">
        <ele>1862</ele>
        <time>2021-08-11T09:11:57.464Z</time>
      </trkpt>
      <trkpt lat="46.88658" lon="8.53611">
        <ele>1863</ele>
        <time>2021-08-11T09:11:58.464Z</time>
      </trkpt>
      <trkpt lat="46.88658" lon="8.53612">
        <ele>1864</ele>
        <time>2021-08-11T09:11:59.464Z</time>
      </trkpt>
      <trkpt lat="46.88659" lon="8.53612">
        <ele>1865</ele>
        <time>2021-08-11T09:12:00.464Z</time>
      </trkpt>
      <trkpt lat="46.8866" lon="8.53612">
        <ele>1866</ele>
        <time>2021-08-11T09:12:01.464Z</time>
      </trkpt>
      <trkpt lat="46.88661" lon="8.53612">
        <ele>1867</ele>
        <time>2021-08-11T09:12:02.464Z</time>
      </trkpt>
      <trkpt lat="46.88661" lon="8.53612">
        <ele>1869</ele>
        <time>2021-08-11T09:12:03.464Z</time>
      </trkpt>
      <trkpt lat="46.88661" lon="8.53613">
        <ele>1870</ele>
        <time>2021-08-11T09:12:04.464Z</time>
      </trkpt>
      <trkpt lat="46.88661" lon="8.53614">
        <ele>1870</ele>
        <time>2021-08-11T09:12:05.464Z</time>
      </trkpt>
      <trkpt lat="46.88661" lon="8.53613">
        <ele>1871</ele>
        <time>2021-08-11T09:12:06.464Z</time>
      </trkpt>
      <trkpt lat="46.88662" lon="8.53613">
        <ele>1872</ele>
        <time>2021-08-11T09:12:07.464Z</time>
      </trkpt>
      <trkpt lat="46.88663" lon="8.53613">
        <ele>1873</ele>
        <time>2021-08-11T09:12:08.464Z</time>
      </trkpt>
      <trkpt lat="46.88663" lon="8.53613">
        <ele>1874</ele>
        <time>2021-08-11T09:12:09.464Z</time>
      </trkpt>
      <trkpt lat="46.88663" lon="8.53611">
        <ele>1874</ele>
        <time>2021-08-11T09:12:10.463Z</time>
      </trkpt>
      <trkpt lat="46.88662" lon="8.53611">
        <ele>1874</ele>
        <time>2021-08-11T09:12:11.464Z</time>
      </trkpt>
      <trkpt lat="46.88661" lon="8.53609">
        <ele>1873</ele>
        <time>2021-08-11T09:12:12.464Z</time>
      </trkpt>
      <trkpt lat="46.8866" lon="8.53609">
        <ele>1873</ele>
        <time>2021-08-11T09:12:13.464Z</time>
      </trkpt>
      <trkpt lat="46.8866" lon="8.53608">
        <ele>1872</ele>
        <time>2021-08-11T09:12:14.464Z</time>
      </trkpt>
      <trkpt lat="46.88659" lon="8.53607">
        <ele>1871</ele>
        <time>2021-08-11T09:12:15.464Z</time>
      </trkpt>
      <trkpt lat="46.88659" lon="8.53607">
        <ele>1870</ele>
        <time>2021-08-11T09:12:16.464Z</time>
      </trkpt>
      <trkpt lat="46.88658" lon="8.53606">
        <ele>1869</ele>
        <time>2021-08-11T09:12:17.464Z</time>
      </trkpt>
      <trkpt lat="46.88657" lon="8.53606">
        <ele>1868</ele>
        <time>2021-08-11T09:12:18.464Z</time>
      </trkpt>
      <trkpt lat="46.88657" lon="8.53605">
        <ele>1867</ele>
        <time>2021-08-11T09:12:19.464Z</time>
      </trkpt>
      <trkpt lat="46.88657" lon="8.53605">
        <ele>1867</ele>
        <time>2021-08-11T09:12:20.464Z</time>
      </trkpt>
      <trkpt lat="46.88657" lon="8.53606">
        <ele>1867</ele>
        <time>2021-08-11T09:12:21.464Z</time>
      </trkpt>
      <trkpt lat="46.88656" lon="8.53606">
        <ele>1866</ele>
        <time>2021-08-11T09:12:22.464Z</time>
      </trkpt>
      <trkpt lat="46.88655" lon="8.53606">
        <ele>1866</ele>
        <time>2021-08-11T09:12:23.464Z</time>
      </trkpt>
      <trkpt lat="46.88655" lon="8.53606">
        <ele>1865</ele>
        <time>2021-08-11T09:12:24.464Z</time>
      </trkpt>
      <trkpt lat="46.88655" lon="8.53607">
        <ele>1864</ele>
        <time>2021-08-11T09:12:25.464Z</time>
      </trkpt>
      <trkpt lat="46.88655" lon="8.53607">
        <ele>1864</ele>
        <time>2021-08-11T09:12:26.463Z</time>
      </trkpt>
      <trkpt lat="46.88654" lon="8.53607">
        <ele>1863</ele>
        <time>2021-08-11T09:12:27.464Z</time>
      </trkpt>
      <trkpt lat="46.88654" lon="8.53607">
        <ele>1863</ele>
        <time>2021-08-11T09:12:28.463Z</time>
      </trkpt>
      <trkpt lat="46.88653" lon="8.53606">
        <ele>1862</ele>
        <time>2021-08-11T09:12:29.464Z</time>
      </trkpt>
      <trkpt lat="46.88653" lon="8.53606">
        <ele>1862</ele>
        <time>2021-08-11T09:12:30.464Z</time>
      </trkpt>
      <trkpt lat="46.88653" lon="8.53605">
        <ele>1861</ele>
        <time>2021-08-11T09:12:31.463Z</time>
      </trkpt>
      <trkpt lat="46.88653" lon="8.53604">
        <ele>1861</ele>
        <time>2021-08-11T09:12:32.464Z</time>
      </trkpt>
      <trkpt lat="46.88652" lon="8.53603">
        <ele>1861</ele>
        <time>2021-08-11T09:12:33.464Z</time>
      </trkpt>
      <trkpt lat="46.88652" lon="8.53603">
        <ele>1861</ele>
        <time>2021-08-11T09:12:34.463Z</time>
      </trkpt>
      <trkpt lat="46.88652" lon="8.53602">
        <ele>1861</ele>
        <time>2021-08-11T09:12:35.464Z</time>
      </trkpt>
      <trkpt lat="46.88651" lon="8.53601">
        <ele>1861</ele>
        <time>2021-08-11T09:12:36.463Z</time>
      </trkpt>
      <trkpt lat="46.88651" lon="8.53601">
        <ele>1862</ele>
        <time>2021-08-11T09:12:37.464Z</time>
      </trkpt>
      <trkpt lat="46.88651" lon="8.536">
        <ele>1862</ele>
        <time>2021-08-11T09:12:38.464Z</time>
      </trkpt>
      <trkpt lat="46.88652" lon="8.536">
        <ele>1862</ele>
        <time>2021-08-11T09:12:39.464Z</time>
      </trkpt>
      <trkpt lat="46.88652" lon="8.53599">
        <ele>1863</ele>
        <time>2021-08-11T09:12:40.464Z</time>
      </trkpt>
      <trkpt lat="46.88652" lon="8.53599">
        <ele>1864</ele>
        <time>2021-08-11T09:12:41.463Z</time>
      </trkpt>
      <trkpt lat="46.88653" lon="8.53598">
        <ele>1864</ele>
        <time>2021-08-11T09:12:42.464Z</time>
      </trkpt>
      <trkpt lat="46.88654" lon="8.53597">
        <ele>1867</ele>
        <time>2021-08-11T09:12:43.466Z</time>
      </trkpt>
      <trkpt lat="46.88653" lon="8.53598">
        <ele>1867</ele>
        <time>2021-08-11T09:12:44.465Z</time>
      </trkpt>
      <trkpt lat="46.88654" lon="8.53597">
        <ele>1867</ele>
        <time>2021-08-11T09:12:45.466Z</time>
      </trkpt>
      <trkpt lat="46.88654" lon="8.53596">
        <ele>1866</ele>
        <time>2021-08-11T09:12:46.466Z</time>
      </trkpt>
      <trkpt lat="46.88654" lon="8.53596">
        <ele>1865</ele>
        <time>2021-08-11T09:12:47.467Z</time>
      </trkpt>
      <trkpt lat="46.88654" lon="8.53596">
        <ele>1865</ele>
        <time>2021-08-11T09:12:48.466Z</time>
      </trkpt>
      <trkpt lat="46.88653" lon="8.53596">
        <ele>1869</ele>
        <time>2021-08-11T09:12:49.467Z</time>
      </trkpt>
      <trkpt lat="46.88653" lon="8.53595">
        <ele>1870</ele>
        <time>2021-08-11T09:12:50.467Z</time>
      </trkpt>
      <trkpt lat="46.88653" lon="8.53595">
        <ele>1870</ele>
        <time>2021-08-11T09:12:51.467Z</time>
      </trkpt>
      <trkpt lat="46.88654" lon="8.53595">
        <ele>1870</ele>
        <time>2021-08-11T09:12:52.466Z</time>
      </trkpt>
      <trkpt lat="46.88653" lon="8.53597">
        <ele>1866</ele>
        <time>2021-08-11T09:12:53.468Z</time>
      </trkpt>
      <trkpt lat="46.88653" lon="8.53597">
        <ele>1866</ele>
        <time>2021-08-11T09:12:54.467Z</time>
      </trkpt>
      <trkpt lat="46.88652" lon="8.53596">
        <ele>1868</ele>
        <time>2021-08-11T09:12:55.469Z</time>
      </trkpt>
      <trkpt lat="46.88652" lon="8.53596">
        <ele>1868</ele>
        <time>2021-08-11T09:12:56.470Z</time>
      </trkpt>
      <trkpt lat="46.88652" lon="8.53596">
        <ele>1868</ele>
        <time>2021-08-11T09:12:57.469Z</time>
      </trkpt>
      <trkpt lat="46.88649" lon="8.53594">
        <ele>1869</ele>
        <time>2021-08-11T09:12:58.470Z</time>
      </trkpt>
      <trkpt lat="46.8865" lon="8.53595">
        <ele>1869</ele>
        <time>2021-08-11T09:12:59.469Z</time>
      </trkpt>
      <trkpt lat="46.88646" lon="8.53591">
        <ele>1889</ele>
        <time>2021-08-11T09:13:00.470Z</time>
      </trkpt>
      <trkpt lat="46.88646" lon="8.53591">
        <ele>1889</ele>
        <time>2021-08-11T09:13:01.469Z</time>
      </trkpt>
      <trkpt lat="46.88647" lon="8.53588">
        <ele>1867</ele>
        <time>2021-08-11T09:13:02.470Z</time>
      </trkpt>
      <trkpt lat="46.88647" lon="8.53588">
        <ele>1867</ele>
        <time>2021-08-11T09:13:03.469Z</time>
      </trkpt>
      <trkpt lat="46.88647" lon="8.53588">
        <ele>1867</ele>
        <time>2021-08-11T09:13:04.470Z</time>
      </trkpt>
      <trkpt lat="46.8865" lon="8.53598">
        <ele>1861</ele>
        <time>2021-08-11T09:13:05.471Z</time>
      </trkpt>
      <trkpt lat="46.88651" lon="8.536">
        <ele>1864</ele>
        <time>2021-08-11T09:13:06.473Z</time>
      </trkpt>
      <trkpt lat="46.88652" lon="8.53599">
        <ele>1865</ele>
        <time>2021-08-11T09:13:07.472Z</time>
      </trkpt>
      <trkpt lat="46.88651" lon="8.53599">
        <ele>1866</ele>
        <time>2021-08-11T09:13:08.473Z</time>
      </trkpt>
      <trkpt lat="46.8865" lon="8.536">
        <ele>1866</ele>
        <time>2021-08-11T09:13:09.473Z</time>
      </trkpt>
      <trkpt lat="46.8865" lon="8.536">
        <ele>1866</ele>
        <time>2021-08-11T09:13:10.472Z</time>
      </trkpt>
      <trkpt lat="46.8865" lon="8.53601">
        <ele>1866</ele>
        <time>2021-08-11T09:13:11.472Z</time>
      </trkpt>
      <trkpt lat="46.8865" lon="8.53602">
        <ele>1864</ele>
        <time>2021-08-11T09:13:12.473Z</time>
      </trkpt>
      <trkpt lat="46.8865" lon="8.53602">
        <ele>1864</ele>
        <time>2021-08-11T09:13:13.472Z</time>
      </trkpt>
      <trkpt lat="46.88652" lon="8.53602">
        <ele>1874</ele>
        <time>2021-08-11T09:13:14.472Z</time>
      </trkpt>
      <trkpt lat="46.88653" lon="8.53601">
        <ele>1876</ele>
        <time>2021-08-11T09:13:15.473Z</time>
      </trkpt>
      <trkpt lat="46.88653" lon="8.536">
        <ele>1876</ele>
        <time>2021-08-11T09:13:16.473Z</time>
      </trkpt>
      <trkpt lat="46.88654" lon="8.53599">
        <ele>1873</ele>
        <time>2021-08-11T09:13:17.472Z</time>
      </trkpt>
      <trkpt lat="46.88653" lon="8.53599">
        <ele>1872</ele>
        <time>2021-08-11T09:13:18.473Z</time>
      </trkpt>
      <trkpt lat="46.88653" lon="8.53599">
        <ele>1872</ele>
        <time>2021-08-11T09:13:19.472Z</time>
      </trkpt>
      <trkpt lat="46.88654" lon="8.53598">
        <ele>1872</ele>
        <time>2021-08-11T09:13:20.473Z</time>
      </trkpt>
      <trkpt lat="46.88654" lon="8.53598">
        <ele>1872</ele>
        <time>2021-08-11T09:13:21.473Z</time>
      </trkpt>
      <trkpt lat="46.88656" lon="8.53597">
        <ele>1871</ele>
        <time>2021-08-11T09:13:22.472Z</time>
      </trkpt>
      <trkpt lat="46.88656" lon="8.53598">
        <ele>1871</ele>
        <time>2021-08-11T09:13:23.472Z</time>
      </trkpt>
      <trkpt lat="46.88656" lon="8.53598">
        <ele>1871</ele>
        <time>2021-08-11T09:13:24.473Z</time>
      </trkpt>
      <trkpt lat="46.88656" lon="8.53599">
        <ele>1869</ele>
        <time>2021-08-11T09:13:25.474Z</time>
      </trkpt>
      <trkpt lat="46.88656" lon="8.53599">
        <ele>1870</ele>
        <time>2021-08-11T09:13:26.473Z</time>
      </trkpt>
      <trkpt lat="46.88655" lon="8.536">
        <ele>1870</ele>
        <time>2021-08-11T09:13:27.473Z</time>
      </trkpt>
      <trkpt lat="46.88655" lon="8.536">
        <ele>1869</ele>
        <time>2021-08-11T09:13:28.474Z</time>
      </trkpt>
      <trkpt lat="46.88654" lon="8.536">
        <ele>1869</ele>
        <time>2021-08-11T09:13:29.474Z</time>
      </trkpt>
      <trkpt lat="46.88654" lon="8.53601">
        <ele>1869</ele>
        <time>2021-08-11T09:13:30.473Z</time>
      </trkpt>
      <trkpt lat="46.88654" lon="8.53601">
        <ele>1870</ele>
        <time>2021-08-11T09:13:31.473Z</time>
      </trkpt>
      <trkpt lat="46.88655" lon="8.53601">
        <ele>1870</ele>
        <time>2021-08-11T09:13:32.473Z</time>
      </trkpt>
      <trkpt lat="46.88655" lon="8.536">
        <ele>1871</ele>
        <time>2021-08-11T09:13:33.473Z</time>
      </trkpt>
      <trkpt lat="46.88651" lon="8.53599">
        <ele>1869</ele>
        <time>2021-08-11T09:13:34.474Z</time>
      </trkpt>
      <trkpt lat="46.88651" lon="8.53598">
        <ele>1869</ele>
        <time>2021-08-11T09:13:35.474Z</time>
      </trkpt>
      <trkpt lat="46.88651" lon="8.53595">
        <ele>1868</ele>
        <time>2021-08-11T09:13:36.474Z</time>
      </trkpt>
      <trkpt lat="46.88651" lon="8.53595">
        <ele>1868</ele>
        <time>2021-08-11T09:13:37.475Z</time>
      </trkpt>
      <trkpt lat="46.88651" lon="8.53596">
        <ele>1868</ele>
        <time>2021-08-11T09:13:38.475Z</time>
      </trkpt>
      <trkpt lat="46.88651" lon="8.53597">
        <ele>1868</ele>
        <time>2021-08-11T09:13:39.474Z</time>
      </trkpt>
      <trkpt lat="46.88651" lon="8.53597">
        <ele>1868</ele>
        <time>2021-08-11T09:13:40.474Z</time>
      </trkpt>
      <trkpt lat="46.8865" lon="8.53596">
        <ele>1868</ele>
        <time>2021-08-11T09:13:41.475Z</time>
      </trkpt>
      <trkpt lat="46.8865" lon="8.53596">
        <ele>1868</ele>
        <time>2021-08-11T09:13:42.474Z</time>
      </trkpt>
      <trkpt lat="46.8865" lon="8.53594">
        <ele>1868</ele>
        <time>2021-08-11T09:13:43.475Z</time>
      </trkpt>
      <trkpt lat="46.8865" lon="8.53594">
        <ele>1867</ele>
        <time>2021-08-11T09:13:44.475Z</time>
      </trkpt>
      <trkpt lat="46.8865" lon="8.53594">
        <ele>1866</ele>
        <time>2021-08-11T09:13:45.477Z</time>
      </trkpt>
      <trkpt lat="46.8865" lon="8.53594">
        <ele>1866</ele>
        <time>2021-08-11T09:13:46.476Z</time>
      </trkpt>
      <trkpt lat="46.88651" lon="8.53595">
        <ele>1865</ele>
        <time>2021-08-11T09:13:47.477Z</time>
      </trkpt>
      <trkpt lat="46.8865" lon="8.53595">
        <ele>1865</ele>
        <time>2021-08-11T09:13:48.477Z</time>
      </trkpt>
      <trkpt lat="46.8865" lon="8.53596">
        <ele>1866</ele>
        <time>2021-08-11T09:13:49.477Z</time>
      </trkpt>
      <trkpt lat="46.88649" lon="8.53596">
        <ele>1868</ele>
        <time>2021-08-11T09:13:50.476Z</time>
      </trkpt>
      <trkpt lat="46.88649" lon="8.53595">
        <ele>1869</ele>
        <time>2021-08-11T09:13:51.477Z</time>
      </trkpt>
      <trkpt lat="46.88651" lon="8.53593">
        <ele>1872</ele>
        <time>2021-08-11T09:13:52.476Z</time>
      </trkpt>
      <trkpt lat="46.88651" lon="8.53593">
        <ele>1873</ele>
        <time>2021-08-11T09:13:53.477Z</time>
      </trkpt>
      <trkpt lat="46.88652" lon="8.53594">
        <ele>1873</ele>
        <time>2021-08-11T09:13:54.477Z</time>
      </trkpt>
      <trkpt lat="46.88652" lon="8.53594">
        <ele>1873</ele>
        <time>2021-08-11T09:13:55.477Z</time>
      </trkpt>
      <trkpt lat="46.88652" lon="8.53594">
        <ele>1873</ele>
        <time>2021-08-11T09:13:56.477Z</time>
      </trkpt>
      <trkpt lat="46.88653" lon="8.53594">
        <ele>1873</ele>
        <time>2021-08-11T09:13:57.476Z</time>
      </trkpt>
      <trkpt lat="46.88653" lon="8.53594">
        <ele>1873</ele>
        <time>2021-08-11T09:13:58.476Z</time>
      </trkpt>
      <trkpt lat="46.88653" lon="8.53593">
        <ele>1873</ele>
        <time>2021-08-11T09:13:59.476Z</time>
      </trkpt>
      <trkpt lat="46.88652" lon="8.53593">
        <ele>1872</ele>
        <time>2021-08-11T09:14:00.476Z</time>
      </trkpt>
      <trkpt lat="46.88654" lon="8.5359">
        <ele>1869</ele>
        <time>2021-08-11T09:14:01.477Z</time>
      </trkpt>
      <trkpt lat="46.88654" lon="8.53589">
        <ele>1869</ele>
        <time>2021-08-11T09:14:02.477Z</time>
      </trkpt>
      <trkpt lat="46.88654" lon="8.53589">
        <ele>1868</ele>
        <time>2021-08-11T09:14:03.478Z</time>
      </trkpt>
      <trkpt lat="46.88653" lon="8.53588">
        <ele>1868</ele>
        <time>2021-08-11T09:14:04.477Z</time>
      </trkpt>
      <trkpt lat="46.88653" lon="8.53588">
        <ele>1868</ele>
        <time>2021-08-11T09:14:05.478Z</time>
      </trkpt>
      <trkpt lat="46.88652" lon="8.53588">
        <ele>1867</ele>
        <time>2021-08-11T09:14:06.478Z</time>
      </trkpt>
      <trkpt lat="46.88652" lon="8.53587">
        <ele>1867</ele>
        <time>2021-08-11T09:14:07.478Z</time>
      </trkpt>
      <trkpt lat="46.88652" lon="8.53587">
        <ele>1867</ele>
        <time>2021-08-11T09:14:08.478Z</time>
      </trkpt>
      <trkpt lat="46.88651" lon="8.53587">
        <ele>1867</ele>
        <time>2021-08-11T09:14:09.478Z</time>
      </trkpt>
      <trkpt lat="46.88651" lon="8.53586">
        <ele>1866</ele>
        <time>2021-08-11T09:14:10.477Z</time>
      </trkpt>
      <trkpt lat="46.88651" lon="8.53586">
        <ele>1866</ele>
        <time>2021-08-11T09:14:11.478Z</time>
      </trkpt>
      <trkpt lat="46.8865" lon="8.53587">
        <ele>1865</ele>
        <time>2021-08-11T09:14:12.478Z</time>
      </trkpt>
      <trkpt lat="46.8865" lon="8.53586">
        <ele>1865</ele>
        <time>2021-08-11T09:14:13.477Z</time>
      </trkpt>
      <trkpt lat="46.8865" lon="8.53586">
        <ele>1865</ele>
        <time>2021-08-11T09:14:14.478Z</time>
      </trkpt>
      <trkpt lat="46.8865" lon="8.53586">
        <ele>1865</ele>
        <time>2021-08-11T09:14:15.477Z</time>
      </trkpt>
      <trkpt lat="46.8865" lon="8.53586">
        <ele>1864</ele>
        <time>2021-08-11T09:14:16.478Z</time>
      </trkpt>
      <trkpt lat="46.88649" lon="8.53586">
        <ele>1863</ele>
        <time>2021-08-11T09:14:17.477Z</time>
      </trkpt>
      <trkpt lat="46.88648" lon="8.53586">
        <ele>1864</ele>
        <time>2021-08-11T09:14:18.478Z</time>
      </trkpt>
      <trkpt lat="46.88648" lon="8.53585">
        <ele>1864</ele>
        <time>2021-08-11T09:14:19.477Z</time>
      </trkpt>
      <trkpt lat="46.88648" lon="8.53584">
        <ele>1864</ele>
        <time>2021-08-11T09:14:20.478Z</time>
      </trkpt>
      <trkpt lat="46.88648" lon="8.53584">
        <ele>1864</ele>
        <time>2021-08-11T09:14:21.478Z</time>
      </trkpt>
      <trkpt lat="46.88647" lon="8.53583">
        <ele>1864</ele>
        <time>2021-08-11T09:14:22.478Z</time>
      </trkpt>
      <trkpt lat="46.88647" lon="8.53583">
        <ele>1864</ele>
        <time>2021-08-11T09:14:23.478Z</time>
      </trkpt>
      <trkpt lat="46.88647" lon="8.53583">
        <ele>1864</ele>
        <time>2021-08-11T09:14:24.478Z</time>
      </trkpt>
      <trkpt lat="46.88648" lon="8.53583">
        <ele>1864</ele>
        <time>2021-08-11T09:14:25.478Z</time>
      </trkpt>
      <trkpt lat="46.88649" lon="8.53582">
        <ele>1864</ele>
        <time>2021-08-11T09:14:26.478Z</time>
      </trkpt>
      <trkpt lat="46.88649" lon="8.53582">
        <ele>1864</ele>
        <time>2021-08-11T09:14:27.478Z</time>
      </trkpt>
      <trkpt lat="46.8865" lon="8.5358">
        <ele>1864</ele>
        <time>2021-08-11T09:14:28.478Z</time>
      </trkpt>
      <trkpt lat="46.88651" lon="8.5358">
        <ele>1864</ele>
        <time>2021-08-11T09:14:29.478Z</time>
      </trkpt>
      <trkpt lat="46.8865" lon="8.5358">
        <ele>1864</ele>
        <time>2021-08-11T09:14:30.477Z</time>
      </trkpt>
      <trkpt lat="46.8865" lon="8.5358">
        <ele>1864</ele>
        <time>2021-08-11T09:14:31.478Z</time>
      </trkpt>
      <trkpt lat="46.88648" lon="8.53579">
        <ele>1864</ele>
        <time>2021-08-11T09:14:32.478Z</time>
      </trkpt>
      <trkpt lat="46.88649" lon="8.53579">
        <ele>1864</ele>
        <time>2021-08-11T09:14:33.478Z</time>
      </trkpt>
      <trkpt lat="46.88648" lon="8.53578">
        <ele>1864</ele>
        <time>2021-08-11T09:14:34.478Z</time>
      </trkpt>
      <trkpt lat="46.88647" lon="8.53575">
        <ele>1865</ele>
        <time>2021-08-11T09:14:35.480Z</time>
      </trkpt>
      <trkpt lat="46.88648" lon="8.53574">
        <ele>1864</ele>
        <time>2021-08-11T09:14:36.480Z</time>
      </trkpt>
      <trkpt lat="46.88649" lon="8.53574">
        <ele>1864</ele>
        <time>2021-08-11T09:14:37.479Z</time>
      </trkpt>
      <trkpt lat="46.88646" lon="8.53573">
        <ele>1863</ele>
        <time>2021-08-11T09:14:38.479Z</time>
      </trkpt>
      <trkpt lat="46.88646" lon="8.53573">
        <ele>1864</ele>
        <time>2021-08-11T09:14:39.479Z</time>
      </trkpt>
      <trkpt lat="46.88645" lon="8.53573">
        <ele>1864</ele>
        <time>2021-08-11T09:14:40.479Z</time>
      </trkpt>
      <trkpt lat="46.88644" lon="8.53571">
        <ele>1865</ele>
        <time>2021-08-11T09:14:41.479Z</time>
      </trkpt>
      <trkpt lat="46.88643" lon="8.53571">
        <ele>1865</ele>
        <time>2021-08-11T09:14:42.479Z</time>
      </trkpt>
      <trkpt lat="46.88642" lon="8.53571">
        <ele>1865</ele>
        <time>2021-08-11T09:14:43.479Z</time>
      </trkpt>
      <trkpt lat="46.88641" lon="8.5357">
        <ele>1865</ele>
        <time>2021-08-11T09:14:44.479Z</time>
      </trkpt>
      <trkpt lat="46.88641" lon="8.53569">
        <ele>1865</ele>
        <time>2021-08-11T09:14:45.479Z</time>
      </trkpt>
      <trkpt lat="46.88641" lon="8.53569">
        <ele>1865</ele>
        <time>2021-08-11T09:14:46.479Z</time>
      </trkpt>
      <trkpt lat="46.8864" lon="8.53568">
        <ele>1865</ele>
        <time>2021-08-11T09:14:47.479Z</time>
      </trkpt>
      <trkpt lat="46.88639" lon="8.53568">
        <ele>1865</ele>
        <time>2021-08-11T09:14:48.479Z</time>
      </trkpt>
      <trkpt lat="46.88638" lon="8.53568">
        <ele>1865</ele>
        <time>2021-08-11T09:14:49.479Z</time>
      </trkpt>
      <trkpt lat="46.88637" lon="8.53568">
        <ele>1865</ele>
        <time>2021-08-11T09:14:50.479Z</time>
      </trkpt>
      <trkpt lat="46.88637" lon="8.53569">
        <ele>1864</ele>
        <time>2021-08-11T09:14:51.480Z</time>
      </trkpt>
      <trkpt lat="46.88636" lon="8.53569">
        <ele>1864</ele>
        <time>2021-08-11T09:14:52.479Z</time>
      </trkpt>
      <trkpt lat="46.88635" lon="8.53569">
        <ele>1863</ele>
        <time>2021-08-11T09:14:53.479Z</time>
      </trkpt>
      <trkpt lat="46.88635" lon="8.53569">
        <ele>1862</ele>
        <time>2021-08-11T09:14:54.480Z</time>
      </trkpt>
      <trkpt lat="46.88634" lon="8.53568">
        <ele>1861</ele>
        <time>2021-08-11T09:14:55.479Z</time>
      </trkpt>
      <trkpt lat="46.88634" lon="8.53568">
        <ele>1860</ele>
        <time>2021-08-11T09:14:56.479Z</time>
      </trkpt>
      <trkpt lat="46.88633" lon="8.53568">
        <ele>1860</ele>
        <time>2021-08-11T09:14:57.480Z</time>
      </trkpt>
      <trkpt lat="46.88633" lon="8.53568">
        <ele>1859</ele>
        <time>2021-08-11T09:14:58.479Z</time>
      </trkpt>
      <trkpt lat="46.88633" lon="8.53568">
        <ele>1859</ele>
        <time>2021-08-11T09:14:59.479Z</time>
      </trkpt>
      <trkpt lat="46.88634" lon="8.53567">
        <ele>1856</ele>
        <time>2021-08-11T09:15:00.481Z</time>
      </trkpt>
      <trkpt lat="46.88633" lon="8.53567">
        <ele>1856</ele>
        <time>2021-08-11T09:15:01.480Z</time>
      </trkpt>
      <trkpt lat="46.88633" lon="8.53567">
        <ele>1856</ele>
        <time>2021-08-11T09:15:02.480Z</time>
      </trkpt>
      <trkpt lat="46.88633" lon="8.53567">
        <ele>1854</ele>
        <time>2021-08-11T09:15:03.481Z</time>
      </trkpt>
      <trkpt lat="46.88632" lon="8.53567">
        <ele>1853</ele>
        <time>2021-08-11T09:15:04.480Z</time>
      </trkpt>
      <trkpt lat="46.88632" lon="8.53567">
        <ele>1853</ele>
        <time>2021-08-11T09:15:05.481Z</time>
      </trkpt>
      <trkpt lat="46.88632" lon="8.53567">
        <ele>1852</ele>
        <time>2021-08-11T09:15:06.481Z</time>
      </trkpt>
      <trkpt lat="46.88632" lon="8.53567">
        <ele>1852</ele>
        <time>2021-08-11T09:15:07.480Z</time>
      </trkpt>
      <trkpt lat="46.88632" lon="8.53567">
        <ele>1852</ele>
        <time>2021-08-11T09:15:08.481Z</time>
      </trkpt>
      <trkpt lat="46.88632" lon="8.53567">
        <ele>1852</ele>
        <time>2021-08-11T09:15:09.481Z</time>
      </trkpt>
      <trkpt lat="46.88632" lon="8.53568">
        <ele>1852</ele>
        <time>2021-08-11T09:15:10.481Z</time>
      </trkpt>
      <trkpt lat="46.88632" lon="8.53569">
        <ele>1851</ele>
        <time>2021-08-11T09:15:11.481Z</time>
      </trkpt>
      <trkpt lat="46.88632" lon="8.5357">
        <ele>1851</ele>
        <time>2021-08-11T09:15:12.480Z</time>
      </trkpt>
      <trkpt lat="46.88632" lon="8.5357">
        <ele>1851</ele>
        <time>2021-08-11T09:15:13.480Z</time>
      </trkpt>
      <trkpt lat="46.88632" lon="8.5357">
        <ele>1851</ele>
        <time>2021-08-11T09:15:14.481Z</time>
      </trkpt>
      <trkpt lat="46.88632" lon="8.5357">
        <ele>1851</ele>
        <time>2021-08-11T09:15:15.480Z</time>
      </trkpt>
      <trkpt lat="46.88636" lon="8.53568">
        <ele>1852</ele>
        <time>2021-08-11T09:15:16.481Z</time>
      </trkpt>
      <trkpt lat="46.88636" lon="8.53567">
        <ele>1852</ele>
        <time>2021-08-11T09:15:17.481Z</time>
      </trkpt>
      <trkpt lat="46.88639" lon="8.53562">
        <ele>1857</ele>
        <time>2021-08-11T09:15:18.482Z</time>
      </trkpt>
      <trkpt lat="46.88638" lon="8.53561">
        <ele>1857</ele>
        <time>2021-08-11T09:15:19.482Z</time>
      </trkpt>
      <trkpt lat="46.88638" lon="8.53559">
        <ele>1858</ele>
        <time>2021-08-11T09:15:20.484Z</time>
      </trkpt>
      <trkpt lat="46.88637" lon="8.53559">
        <ele>1859</ele>
        <time>2021-08-11T09:15:21.484Z</time>
      </trkpt>
      <trkpt lat="46.88637" lon="8.53558">
        <ele>1859</ele>
        <time>2021-08-11T09:15:22.483Z</time>
      </trkpt>
      <trkpt lat="46.88636" lon="8.53558">
        <ele>1860</ele>
        <time>2021-08-11T09:15:23.484Z</time>
      </trkpt>
      <trkpt lat="46.88636" lon="8.53558">
        <ele>1860</ele>
        <time>2021-08-11T09:15:24.483Z</time>
      </trkpt>
      <trkpt lat="46.88635" lon="8.53557">
        <ele>1860</ele>
        <time>2021-08-11T09:15:25.484Z</time>
      </trkpt>
      <trkpt lat="46.88635" lon="8.53556">
        <ele>1860</ele>
        <time>2021-08-11T09:15:26.484Z</time>
      </trkpt>
      <trkpt lat="46.88633" lon="8.53556">
        <ele>1860</ele>
        <time>2021-08-11T09:15:27.483Z</time>
      </trkpt>
      <trkpt lat="46.88632" lon="8.53556">
        <ele>1861</ele>
        <time>2021-08-11T09:15:28.484Z</time>
      </trkpt>
      <trkpt lat="46.88631" lon="8.53556">
        <ele>1861</ele>
        <time>2021-08-11T09:15:29.484Z</time>
      </trkpt>
      <trkpt lat="46.88631" lon="8.53556">
        <ele>1861</ele>
        <time>2021-08-11T09:15:30.484Z</time>
      </trkpt>
      <trkpt lat="46.8863" lon="8.53555">
        <ele>1862</ele>
        <time>2021-08-11T09:15:31.484Z</time>
      </trkpt>
      <trkpt lat="46.88629" lon="8.53555">
        <ele>1862</ele>
        <time>2021-08-11T09:15:32.483Z</time>
      </trkpt>
      <trkpt lat="46.88629" lon="8.53555">
        <ele>1862</ele>
        <time>2021-08-11T09:15:33.484Z</time>
      </trkpt>
      <trkpt lat="46.88628" lon="8.53555">
        <ele>1861</ele>
        <time>2021-08-11T09:15:34.484Z</time>
      </trkpt>
      <trkpt lat="46.88627" lon="8.53555">
        <ele>1861</ele>
        <time>2021-08-11T09:15:35.483Z</time>
      </trkpt>
      <trkpt lat="46.88627" lon="8.53555">
        <ele>1861</ele>
        <time>2021-08-11T09:15:36.483Z</time>
      </trkpt>
      <trkpt lat="46.88627" lon="8.53555">
        <ele>1861</ele>
        <time>2021-08-11T09:15:37.485Z</time>
      </trkpt>
      <trkpt lat="46.88625" lon="8.53555">
        <ele>1861</ele>
        <time>2021-08-11T09:15:38.485Z</time>
      </trkpt>
      <trkpt lat="46.88624" lon="8.53555">
        <ele>1861</ele>
        <time>2021-08-11T09:15:39.484Z</time>
      </trkpt>
      <trkpt lat="46.88622" lon="8.53555">
        <ele>1861</ele>
        <time>2021-08-11T09:15:40.485Z</time>
      </trkpt>
      <trkpt lat="46.88621" lon="8.53556">
        <ele>1861</ele>
        <time>2021-08-11T09:15:41.485Z</time>
      </trkpt>
      <trkpt lat="46.88621" lon="8.53556">
        <ele>1861</ele>
        <time>2021-08-11T09:15:42.485Z</time>
      </trkpt>
      <trkpt lat="46.8862" lon="8.53556">
        <ele>1860</ele>
        <time>2021-08-11T09:15:43.485Z</time>
      </trkpt>
      <trkpt lat="46.8862" lon="8.53555">
        <ele>1860</ele>
        <time>2021-08-11T09:15:44.484Z</time>
      </trkpt>
      <trkpt lat="46.88619" lon="8.53555">
        <ele>1859</ele>
        <time>2021-08-11T09:15:45.485Z</time>
      </trkpt>
      <trkpt lat="46.88619" lon="8.53555">
        <ele>1858</ele>
        <time>2021-08-11T09:15:46.485Z</time>
      </trkpt>
      <trkpt lat="46.88618" lon="8.53554">
        <ele>1858</ele>
        <time>2021-08-11T09:15:47.485Z</time>
      </trkpt>
      <trkpt lat="46.88617" lon="8.53553">
        <ele>1858</ele>
        <time>2021-08-11T09:15:48.485Z</time>
      </trkpt>
      <trkpt lat="46.88616" lon="8.53553">
        <ele>1857</ele>
        <time>2021-08-11T09:15:49.484Z</time>
      </trkpt>
      <trkpt lat="46.88616" lon="8.53553">
        <ele>1857</ele>
        <time>2021-08-11T09:15:50.484Z</time>
      </trkpt>
      <trkpt lat="46.88616" lon="8.53553">
        <ele>1856</ele>
        <time>2021-08-11T09:15:51.485Z</time>
      </trkpt>
      <trkpt lat="46.88616" lon="8.53553">
        <ele>1856</ele>
        <time>2021-08-11T09:15:52.485Z</time>
      </trkpt>
      <trkpt lat="46.88615" lon="8.53554">
        <ele>1855</ele>
        <time>2021-08-11T09:15:53.485Z</time>
      </trkpt>
      <trkpt lat="46.88615" lon="8.53553">
        <ele>1855</ele>
        <time>2021-08-11T09:15:54.485Z</time>
      </trkpt>
      <trkpt lat="46.88615" lon="8.53552">
        <ele>1855</ele>
        <time>2021-08-11T09:15:55.484Z</time>
      </trkpt>
      <trkpt lat="46.88612" lon="8.53551">
        <ele>1854</ele>
        <time>2021-08-11T09:15:56.485Z</time>
      </trkpt>
      <trkpt lat="46.88611" lon="8.5355">
        <ele>1854</ele>
        <time>2021-08-11T09:15:57.484Z</time>
      </trkpt>
      <trkpt lat="46.8861" lon="8.5355">
        <ele>1854</ele>
        <time>2021-08-11T09:15:58.484Z</time>
      </trkpt>
      <trkpt lat="46.88609" lon="8.5355">
        <ele>1854</ele>
        <time>2021-08-11T09:15:59.484Z</time>
      </trkpt>
      <trkpt lat="46.88608" lon="8.5355">
        <ele>1855</ele>
        <time>2021-08-11T09:16:00.484Z</time>
      </trkpt>
      <trkpt lat="46.88608" lon="8.5355">
        <ele>1855</ele>
        <time>2021-08-11T09:16:01.484Z</time>
      </trkpt>
      <trkpt lat="46.88607" lon="8.5355">
        <ele>1856</ele>
        <time>2021-08-11T09:16:02.485Z</time>
      </trkpt>
      <trkpt lat="46.88607" lon="8.53551">
        <ele>1856</ele>
        <time>2021-08-11T09:16:03.485Z</time>
      </trkpt>
      <trkpt lat="46.88607" lon="8.53551">
        <ele>1856</ele>
        <time>2021-08-11T09:16:04.485Z</time>
      </trkpt>
      <trkpt lat="46.88609" lon="8.53551">
        <ele>1858</ele>
        <time>2021-08-11T09:16:05.486Z</time>
      </trkpt>
      <trkpt lat="46.88609" lon="8.53551">
        <ele>1859</ele>
        <time>2021-08-11T09:16:06.486Z</time>
      </trkpt>
      <trkpt lat="46.8861" lon="8.53551">
        <ele>1859</ele>
        <time>2021-08-11T09:16:07.485Z</time>
      </trkpt>
      <trkpt lat="46.88611" lon="8.53552">
        <ele>1859</ele>
        <time>2021-08-11T09:16:08.486Z</time>
      </trkpt>
      <trkpt lat="46.88611" lon="8.53552">
        <ele>1859</ele>
        <time>2021-08-11T09:16:09.485Z</time>
      </trkpt>
      <trkpt lat="46.88611" lon="8.5355">
        <ele>1859</ele>
        <time>2021-08-11T09:16:10.485Z</time>
      </trkpt>
      <trkpt lat="46.88612" lon="8.53549">
        <ele>1859</ele>
        <time>2021-08-11T09:16:11.486Z</time>
      </trkpt>
      <trkpt lat="46.88612" lon="8.53548">
        <ele>1858</ele>
        <time>2021-08-11T09:16:12.486Z</time>
      </trkpt>
      <trkpt lat="46.88612" lon="8.53547">
        <ele>1857</ele>
        <time>2021-08-11T09:16:13.486Z</time>
      </trkpt>
      <trkpt lat="46.88614" lon="8.53546">
        <ele>1860</ele>
        <time>2021-08-11T09:16:14.486Z</time>
      </trkpt>
      <trkpt lat="46.88614" lon="8.53547">
        <ele>1860</ele>
        <time>2021-08-11T09:16:15.486Z</time>
      </trkpt>
      <trkpt lat="46.88615" lon="8.53548">
        <ele>1860</ele>
        <time>2021-08-11T09:16:16.487Z</time>
      </trkpt>
      <trkpt lat="46.88615" lon="8.53547">
        <ele>1860</ele>
        <time>2021-08-11T09:16:17.486Z</time>
      </trkpt>
      <trkpt lat="46.88616" lon="8.53547">
        <ele>1860</ele>
        <time>2021-08-11T09:16:18.487Z</time>
      </trkpt>
      <trkpt lat="46.88616" lon="8.53546">
        <ele>1860</ele>
        <time>2021-08-11T09:16:19.487Z</time>
      </trkpt>
      <trkpt lat="46.88616" lon="8.53546">
        <ele>1860</ele>
        <time>2021-08-11T09:16:20.487Z</time>
      </trkpt>
      <trkpt lat="46.88616" lon="8.53547">
        <ele>1861</ele>
        <time>2021-08-11T09:16:21.488Z</time>
      </trkpt>
      <trkpt lat="46.88615" lon="8.53548">
        <ele>1861</ele>
        <time>2021-08-11T09:16:22.488Z</time>
      </trkpt>
      <trkpt lat="46.88615" lon="8.53549">
        <ele>1861</ele>
        <time>2021-08-11T09:16:23.488Z</time>
      </trkpt>
      <trkpt lat="46.88614" lon="8.53548">
        <ele>1860</ele>
        <time>2021-08-11T09:16:24.487Z</time>
      </trkpt>
      <trkpt lat="46.88613" lon="8.53547">
        <ele>1859</ele>
        <time>2021-08-11T09:16:25.487Z</time>
      </trkpt>
      <trkpt lat="46.88612" lon="8.53548">
        <ele>1859</ele>
        <time>2021-08-11T09:16:26.488Z</time>
      </trkpt>
      <trkpt lat="46.88612" lon="8.53548">
        <ele>1858</ele>
        <time>2021-08-11T09:16:27.487Z</time>
      </trkpt>
      <trkpt lat="46.88611" lon="8.53548">
        <ele>1858</ele>
        <time>2021-08-11T09:16:28.488Z</time>
      </trkpt>
      <trkpt lat="46.88611" lon="8.53548">
        <ele>1858</ele>
        <time>2021-08-11T09:16:29.488Z</time>
      </trkpt>
      <trkpt lat="46.8861" lon="8.53547">
        <ele>1857</ele>
        <time>2021-08-11T09:16:30.490Z</time>
      </trkpt>
      <trkpt lat="46.8861" lon="8.53548">
        <ele>1856</ele>
        <time>2021-08-11T09:16:31.489Z</time>
      </trkpt>
      <trkpt lat="46.88607" lon="8.53546">
        <ele>1857</ele>
        <time>2021-08-11T09:16:32.490Z</time>
      </trkpt>
      <trkpt lat="46.88607" lon="8.53546">
        <ele>1857</ele>
        <time>2021-08-11T09:16:33.491Z</time>
      </trkpt>
      <trkpt lat="46.88607" lon="8.53546">
        <ele>1856</ele>
        <time>2021-08-11T09:16:34.491Z</time>
      </trkpt>
      <trkpt lat="46.88609" lon="8.5355">
        <ele>1854</ele>
        <time>2021-08-11T09:16:35.491Z</time>
      </trkpt>
      <trkpt lat="46.88609" lon="8.53551">
        <ele>1853</ele>
        <time>2021-08-11T09:16:36.492Z</time>
      </trkpt>
      <trkpt lat="46.88609" lon="8.53551">
        <ele>1853</ele>
        <time>2021-08-11T09:16:37.492Z</time>
      </trkpt>
      <trkpt lat="46.8861" lon="8.53552">
        <ele>1854</ele>
        <time>2021-08-11T09:16:38.493Z</time>
      </trkpt>
      <trkpt lat="46.88611" lon="8.53552">
        <ele>1855</ele>
        <time>2021-08-11T09:16:39.493Z</time>
      </trkpt>
      <trkpt lat="46.88612" lon="8.53552">
        <ele>1855</ele>
        <time>2021-08-11T09:16:40.492Z</time>
      </trkpt>
      <trkpt lat="46.88612" lon="8.53552">
        <ele>1855</ele>
        <time>2021-08-11T09:16:41.493Z</time>
      </trkpt>
      <trkpt lat="46.88613" lon="8.53551">
        <ele>1856</ele>
        <time>2021-08-11T09:16:42.493Z</time>
      </trkpt>
      <trkpt lat="46.88614" lon="8.53551">
        <ele>1856</ele>
        <time>2021-08-11T09:16:43.493Z</time>
      </trkpt>
      <trkpt lat="46.88615" lon="8.5355">
        <ele>1856</ele>
        <time>2021-08-11T09:16:44.492Z</time>
      </trkpt>
      <trkpt lat="46.88615" lon="8.53551">
        <ele>1856</ele>
        <time>2021-08-11T09:16:45.493Z</time>
      </trkpt>
      <trkpt lat="46.88615" lon="8.53551">
        <ele>1856</ele>
        <time>2021-08-11T09:16:46.493Z</time>
      </trkpt>
      <trkpt lat="46.88614" lon="8.53552">
        <ele>1856</ele>
        <time>2021-08-11T09:16:47.493Z</time>
      </trkpt>
      <trkpt lat="46.88613" lon="8.53552">
        <ele>1856</ele>
        <time>2021-08-11T09:16:48.493Z</time>
      </trkpt>
      <trkpt lat="46.88613" lon="8.53554">
        <ele>1857</ele>
        <time>2021-08-11T09:16:49.493Z</time>
      </trkpt>
      <trkpt lat="46.88613" lon="8.53554">
        <ele>1858</ele>
        <time>2021-08-11T09:16:50.494Z</time>
      </trkpt>
      <trkpt lat="46.88613" lon="8.53554">
        <ele>1858</ele>
        <time>2021-08-11T09:16:51.493Z</time>
      </trkpt>
      <trkpt lat="46.88613" lon="8.53554">
        <ele>1858</ele>
        <time>2021-08-11T09:16:52.493Z</time>
      </trkpt>
      <trkpt lat="46.88611" lon="8.53543">
        <ele>1860</ele>
        <time>2021-08-11T09:16:53.495Z</time>
      </trkpt>
      <trkpt lat="46.8861" lon="8.53543">
        <ele>1860</ele>
        <time>2021-08-11T09:16:54.495Z</time>
      </trkpt>
      <trkpt lat="46.88611" lon="8.53544">
        <ele>1860</ele>
        <time>2021-08-11T09:16:55.495Z</time>
      </trkpt>
      <trkpt lat="46.88611" lon="8.53545">
        <ele>1860</ele>
        <time>2021-08-11T09:16:56.495Z</time>
      </trkpt>
      <trkpt lat="46.88612" lon="8.53545">
        <ele>1860</ele>
        <time>2021-08-11T09:16:57.495Z</time>
      </trkpt>
      <trkpt lat="46.88613" lon="8.53545">
        <ele>1859</ele>
        <time>2021-08-11T09:16:58.494Z</time>
      </trkpt>
      <trkpt lat="46.88613" lon="8.53545">
        <ele>1859</ele>
        <time>2021-08-11T09:16:59.494Z</time>
      </trkpt>
      <trkpt lat="46.88613" lon="8.53545">
        <ele>1859</ele>
        <time>2021-08-11T09:17:00.494Z</time>
      </trkpt>
      <trkpt lat="46.88613" lon="8.53544">
        <ele>1858</ele>
        <time>2021-08-11T09:17:01.495Z</time>
      </trkpt>
      <trkpt lat="46.88612" lon="8.5354">
        <ele>1856</ele>
        <time>2021-08-11T09:17:02.495Z</time>
      </trkpt>
      <trkpt lat="46.88608" lon="8.53546">
        <ele>1856</ele>
        <time>2021-08-11T09:17:03.495Z</time>
      </trkpt>
      <trkpt lat="46.88615" lon="8.5355">
        <ele>1857</ele>
        <time>2021-08-11T09:17:04.496Z</time>
      </trkpt>
      <trkpt lat="46.88609" lon="8.5355">
        <ele>1851</ele>
        <time>2021-08-11T09:17:05.496Z</time>
      </trkpt>
      <trkpt lat="46.88609" lon="8.53551">
        <ele>1851</ele>
        <time>2021-08-11T09:17:06.495Z</time>
      </trkpt>
      <trkpt lat="46.88609" lon="8.53551">
        <ele>1852</ele>
        <time>2021-08-11T09:17:07.495Z</time>
      </trkpt>
      <trkpt lat="46.88609" lon="8.53551">
        <ele>1852</ele>
        <time>2021-08-11T09:17:08.495Z</time>
      </trkpt>
      <trkpt lat="46.88609" lon="8.5355">
        <ele>1852</ele>
        <time>2021-08-11T09:17:09.496Z</time>
      </trkpt>
      <trkpt lat="46.88609" lon="8.5355">
        <ele>1852</ele>
        <time>2021-08-11T09:17:10.496Z</time>
      </trkpt>
      <trkpt lat="46.88608" lon="8.5355">
        <ele>1852</ele>
        <time>2021-08-11T09:17:11.496Z</time>
      </trkpt>
      <trkpt lat="46.88605" lon="8.5355">
        <ele>1853</ele>
        <time>2021-08-11T09:17:12.497Z</time>
      </trkpt>
      <trkpt lat="46.88605" lon="8.5355">
        <ele>1853</ele>
        <time>2021-08-11T09:17:13.497Z</time>
      </trkpt>
      <trkpt lat="46.88605" lon="8.5355">
        <ele>1853</ele>
        <time>2021-08-11T09:17:14.497Z</time>
      </trkpt>
      <trkpt lat="46.88605" lon="8.53549">
        <ele>1853</ele>
        <time>2021-08-11T09:17:15.497Z</time>
      </trkpt>
      <trkpt lat="46.88606" lon="8.53548">
        <ele>1853</ele>
        <time>2021-08-11T09:17:16.496Z</time>
      </trkpt>
      <trkpt lat="46.88604" lon="8.53546">
        <ele>1854</ele>
        <time>2021-08-11T09:17:17.497Z</time>
      </trkpt>
      <trkpt lat="46.88604" lon="8.53545">
        <ele>1854</ele>
        <time>2021-08-11T09:17:18.496Z</time>
      </trkpt>
      <trkpt lat="46.88604" lon="8.53545">
        <ele>1854</ele>
        <time>2021-08-11T09:17:19.496Z</time>
      </trkpt>
      <trkpt lat="46.88604" lon="8.53544">
        <ele>1855</ele>
        <time>2021-08-11T09:17:20.497Z</time>
      </trkpt>
      <trkpt lat="46.88603" lon="8.53544">
        <ele>1855</ele>
        <time>2021-08-11T09:17:21.497Z</time>
      </trkpt>
      <trkpt lat="46.88603" lon="8.53544">
        <ele>1854</ele>
        <time>2021-08-11T09:17:22.497Z</time>
      </trkpt>
      <trkpt lat="46.88603" lon="8.53545">
        <ele>1853</ele>
        <time>2021-08-11T09:17:23.497Z</time>
      </trkpt>
      <trkpt lat="46.88602" lon="8.53544">
        <ele>1847</ele>
        <time>2021-08-11T09:17:24.498Z</time>
      </trkpt>
      <trkpt lat="46.88602" lon="8.53544">
        <ele>1847</ele>
        <time>2021-08-11T09:17:25.498Z</time>
      </trkpt>
      <trkpt lat="46.88601" lon="8.53543">
        <ele>1847</ele>
        <time>2021-08-11T09:17:26.497Z</time>
      </trkpt>
      <trkpt lat="46.88601" lon="8.53543">
        <ele>1846</ele>
        <time>2021-08-11T09:17:27.498Z</time>
      </trkpt>
      <trkpt lat="46.88601" lon="8.53543">
        <ele>1846</ele>
        <time>2021-08-11T09:17:28.499Z</time>
      </trkpt>
      <trkpt lat="46.88602" lon="8.53541">
        <ele>1848</ele>
        <time>2021-08-11T09:17:29.499Z</time>
      </trkpt>
      <trkpt lat="46.88602" lon="8.53541">
        <ele>1849</ele>
        <time>2021-08-11T09:17:30.499Z</time>
      </trkpt>
      <trkpt lat="46.88602" lon="8.5354">
        <ele>1849</ele>
        <time>2021-08-11T09:17:31.498Z</time>
      </trkpt>
      <trkpt lat="46.88602" lon="8.53539">
        <ele>1849</ele>
        <time>2021-08-11T09:17:32.499Z</time>
      </trkpt>
      <trkpt lat="46.88602" lon="8.53539">
        <ele>1849</ele>
        <time>2021-08-11T09:17:33.498Z</time>
      </trkpt>
      <trkpt lat="46.88602" lon="8.53539">
        <ele>1849</ele>
        <time>2021-08-11T09:17:34.498Z</time>
      </trkpt>
      <trkpt lat="46.88601" lon="8.5354">
        <ele>1847</ele>
        <time>2021-08-11T09:17:35.376Z</time>
      </trkpt>
      <trkpt lat="46.88601" lon="8.53539">
        <ele>1847</ele>
        <time>2021-08-11T09:17:36.376Z</time>
      </trkpt>
      <trkpt lat="46.886" lon="8.5354">
        <ele>1847</ele>
        <time>2021-08-11T09:17:37.500Z</time>
      </trkpt>
      <trkpt lat="46.88599" lon="8.53537">
        <ele>1849</ele>
        <time>2021-08-11T09:17:38.378Z</time>
      </trkpt>
      <trkpt lat="46.88599" lon="8.53537">
        <ele>1849</ele>
        <time>2021-08-11T09:17:39.377Z</time>
      </trkpt>
      <trkpt lat="46.88599" lon="8.53537">
        <ele>1849</ele>
        <time>2021-08-11T09:17:40.377Z</time>
      </trkpt>
      <trkpt lat="46.88599" lon="8.53536">
        <ele>1848</ele>
        <time>2021-08-11T09:17:41.378Z</time>
      </trkpt>
      <trkpt lat="46.88599" lon="8.53536">
        <ele>1848</ele>
        <time>2021-08-11T09:17:42.378Z</time>
      </trkpt>
      <trkpt lat="46.88598" lon="8.53535">
        <ele>1847</ele>
        <time>2021-08-11T09:17:43.378Z</time>
      </trkpt>
      <trkpt lat="46.88598" lon="8.53534">
        <ele>1847</ele>
        <time>2021-08-11T09:17:44.379Z</time>
      </trkpt>
      <trkpt lat="46.88598" lon="8.53534">
        <ele>1847</ele>
        <time>2021-08-11T09:17:45.378Z</time>
      </trkpt>
      <trkpt lat="46.88598" lon="8.53533">
        <ele>1847</ele>
        <time>2021-08-11T09:17:46.378Z</time>
      </trkpt>
      <trkpt lat="46.88598" lon="8.53532">
        <ele>1847</ele>
        <time>2021-08-11T09:17:47.379Z</time>
      </trkpt>
      <trkpt lat="46.88597" lon="8.53532">
        <ele>1847</ele>
        <time>2021-08-11T09:17:48.378Z</time>
      </trkpt>
      <trkpt lat="46.88597" lon="8.53532">
        <ele>1847</ele>
        <time>2021-08-11T09:17:49.378Z</time>
      </trkpt>
      <trkpt lat="46.88597" lon="8.53531">
        <ele>1847</ele>
        <time>2021-08-11T09:17:50.379Z</time>
      </trkpt>
      <trkpt lat="46.88597" lon="8.53531">
        <ele>1847</ele>
        <time>2021-08-11T09:17:51.379Z</time>
      </trkpt>
      <trkpt lat="46.88597" lon="8.53531">
        <ele>1847</ele>
        <time>2021-08-11T09:17:52.379Z</time>
      </trkpt>
      <trkpt lat="46.88596" lon="8.53531">
        <ele>1844</ele>
        <time>2021-08-11T09:17:53.380Z</time>
      </trkpt>
      <trkpt lat="46.88596" lon="8.53531">
        <ele>1844</ele>
        <time>2021-08-11T09:17:54.380Z</time>
      </trkpt>
      <trkpt lat="46.88596" lon="8.53531">
        <ele>1845</ele>
        <time>2021-08-11T09:17:55.379Z</time>
      </trkpt>
      <trkpt lat="46.88596" lon="8.53531">
        <ele>1845</ele>
        <time>2021-08-11T09:17:56.380Z</time>
      </trkpt>
      <trkpt lat="46.88595" lon="8.53531">
        <ele>1846</ele>
        <time>2021-08-11T09:17:57.380Z</time>
      </trkpt>
      <trkpt lat="46.88595" lon="8.5353">
        <ele>1846</ele>
        <time>2021-08-11T09:17:58.379Z</time>
      </trkpt>
      <trkpt lat="46.88595" lon="8.5353">
        <ele>1847</ele>
        <time>2021-08-11T09:17:59.379Z</time>
      </trkpt>
      <trkpt lat="46.88595" lon="8.53529">
        <ele>1847</ele>
        <time>2021-08-11T09:18:00.379Z</time>
      </trkpt>
      <trkpt lat="46.88593" lon="8.53527">
        <ele>1848</ele>
        <time>2021-08-11T09:18:01.381Z</time>
      </trkpt>
      <trkpt lat="46.88593" lon="8.53527">
        <ele>1848</ele>
        <time>2021-08-11T09:18:02.381Z</time>
      </trkpt>
      <trkpt lat="46.88592" lon="8.53526">
        <ele>1848</ele>
        <time>2021-08-11T09:18:03.382Z</time>
      </trkpt>
      <trkpt lat="46.88591" lon="8.53525">
        <ele>1848</ele>
        <time>2021-08-11T09:18:04.381Z</time>
      </trkpt>
      <trkpt lat="46.8859" lon="8.53524">
        <ele>1848</ele>
        <time>2021-08-11T09:18:05.382Z</time>
      </trkpt>
      <trkpt lat="46.88589" lon="8.53523">
        <ele>1848</ele>
        <time>2021-08-11T09:18:06.381Z</time>
      </trkpt>
      <trkpt lat="46.88588" lon="8.53522">
        <ele>1848</ele>
        <time>2021-08-11T09:18:07.381Z</time>
      </trkpt>
      <trkpt lat="46.88587" lon="8.53522">
        <ele>1847</ele>
        <time>2021-08-11T09:18:08.381Z</time>
      </trkpt>
      <trkpt lat="46.88587" lon="8.53521">
        <ele>1847</ele>
        <time>2021-08-11T09:18:09.381Z</time>
      </trkpt>
      <trkpt lat="46.88586" lon="8.53521">
        <ele>1847</ele>
        <time>2021-08-11T09:18:10.381Z</time>
      </trkpt>
      <trkpt lat="46.88589" lon="8.53525">
        <ele>1843</ele>
        <time>2021-08-11T09:18:11.383Z</time>
      </trkpt>
      <trkpt lat="46.88589" lon="8.53525">
        <ele>1843</ele>
        <time>2021-08-11T09:18:12.383Z</time>
      </trkpt>
      <trkpt lat="46.88589" lon="8.53525">
        <ele>1842</ele>
        <time>2021-08-11T09:18:13.383Z</time>
      </trkpt>
      <trkpt lat="46.88589" lon="8.53525">
        <ele>1842</ele>
        <time>2021-08-11T09:18:14.383Z</time>
      </trkpt>
      <trkpt lat="46.88588" lon="8.53525">
        <ele>1841</ele>
        <time>2021-08-11T09:18:15.383Z</time>
      </trkpt>
      <trkpt lat="46.88588" lon="8.53525">
        <ele>1841</ele>
        <time>2021-08-11T09:18:16.382Z</time>
      </trkpt>
      <trkpt lat="46.88587" lon="8.53525">
        <ele>1841</ele>
        <time>2021-08-11T09:18:17.382Z</time>
      </trkpt>
      <trkpt lat="46.88587" lon="8.53524">
        <ele>1841</ele>
        <time>2021-08-11T09:18:18.383Z</time>
      </trkpt>
      <trkpt lat="46.88586" lon="8.53524">
        <ele>1841</ele>
        <time>2021-08-11T09:18:19.383Z</time>
      </trkpt>
      <trkpt lat="46.88585" lon="8.53523">
        <ele>1841</ele>
        <time>2021-08-11T09:18:20.383Z</time>
      </trkpt>
      <trkpt lat="46.88584" lon="8.53522">
        <ele>1841</ele>
        <time>2021-08-11T09:18:21.383Z</time>
      </trkpt>
      <trkpt lat="46.88583" lon="8.53522">
        <ele>1841</ele>
        <time>2021-08-11T09:18:22.382Z</time>
      </trkpt>
      <trkpt lat="46.88582" lon="8.5352">
        <ele>1841</ele>
        <time>2021-08-11T09:18:23.382Z</time>
      </trkpt>
      <trkpt lat="46.88581" lon="8.5352">
        <ele>1841</ele>
        <time>2021-08-11T09:18:24.383Z</time>
      </trkpt>
      <trkpt lat="46.88581" lon="8.5352">
        <ele>1841</ele>
        <time>2021-08-11T09:18:25.382Z</time>
      </trkpt>
      <trkpt lat="46.8858" lon="8.5352">
        <ele>1841</ele>
        <time>2021-08-11T09:18:26.382Z</time>
      </trkpt>
      <trkpt lat="46.8858" lon="8.5352">
        <ele>1841</ele>
        <time>2021-08-11T09:18:27.383Z</time>
      </trkpt>
      <trkpt lat="46.88579" lon="8.5352">
        <ele>1841</ele>
        <time>2021-08-11T09:18:28.382Z</time>
      </trkpt>
      <trkpt lat="46.88579" lon="8.5352">
        <ele>1841</ele>
        <time>2021-08-11T09:18:29.383Z</time>
      </trkpt>
      <trkpt lat="46.88578" lon="8.53519">
        <ele>1841</ele>
        <time>2021-08-11T09:18:30.382Z</time>
      </trkpt>
      <trkpt lat="46.88578" lon="8.53519">
        <ele>1841</ele>
        <time>2021-08-11T09:18:31.383Z</time>
      </trkpt>
      <trkpt lat="46.88577" lon="8.53519">
        <ele>1841</ele>
        <time>2021-08-11T09:18:32.383Z</time>
      </trkpt>
      <trkpt lat="46.88577" lon="8.53519">
        <ele>1841</ele>
        <time>2021-08-11T09:18:33.383Z</time>
      </trkpt>
      <trkpt lat="46.88577" lon="8.53518">
        <ele>1840</ele>
        <time>2021-08-11T09:18:34.382Z</time>
      </trkpt>
      <trkpt lat="46.88577" lon="8.53517">
        <ele>1840</ele>
        <time>2021-08-11T09:18:35.383Z</time>
      </trkpt>
      <trkpt lat="46.88577" lon="8.53517">
        <ele>1840</ele>
        <time>2021-08-11T09:18:36.383Z</time>
      </trkpt>
      <trkpt lat="46.88577" lon="8.53516">
        <ele>1840</ele>
        <time>2021-08-11T09:18:37.383Z</time>
      </trkpt>
      <trkpt lat="46.88576" lon="8.53515">
        <ele>1840</ele>
        <time>2021-08-11T09:18:38.383Z</time>
      </trkpt>
      <trkpt lat="46.88576" lon="8.53514">
        <ele>1840</ele>
        <time>2021-08-11T09:18:39.382Z</time>
      </trkpt>
      <trkpt lat="46.88575" lon="8.53514">
        <ele>1840</ele>
        <time>2021-08-11T09:18:40.383Z</time>
      </trkpt>
      <trkpt lat="46.88575" lon="8.53513">
        <ele>1841</ele>
        <time>2021-08-11T09:18:41.383Z</time>
      </trkpt>
      <trkpt lat="46.88574" lon="8.53513">
        <ele>1841</ele>
        <time>2021-08-11T09:18:42.383Z</time>
      </trkpt>
      <trkpt lat="46.88574" lon="8.53512">
        <ele>1841</ele>
        <time>2021-08-11T09:18:43.383Z</time>
      </trkpt>
      <trkpt lat="46.88573" lon="8.53512">
        <ele>1841</ele>
        <time>2021-08-11T09:18:44.382Z</time>
      </trkpt>
      <trkpt lat="46.88573" lon="8.53511">
        <ele>1841</ele>
        <time>2021-08-11T09:18:45.382Z</time>
      </trkpt>
      <trkpt lat="46.88572" lon="8.53511">
        <ele>1841</ele>
        <time>2021-08-11T09:18:46.383Z</time>
      </trkpt>
      <trkpt lat="46.88572" lon="8.53511">
        <ele>1841</ele>
        <time>2021-08-11T09:18:47.383Z</time>
      </trkpt>
      <trkpt lat="46.88572" lon="8.5351">
        <ele>1841</ele>
        <time>2021-08-11T09:18:48.383Z</time>
      </trkpt>
      <trkpt lat="46.88572" lon="8.5351">
        <ele>1841</ele>
        <time>2021-08-11T09:18:49.382Z</time>
      </trkpt>
      <trkpt lat="46.88571" lon="8.5351">
        <ele>1841</ele>
        <time>2021-08-11T09:18:50.382Z</time>
      </trkpt>
      <trkpt lat="46.88571" lon="8.53509">
        <ele>1841</ele>
        <time>2021-08-11T09:18:51.382Z</time>
      </trkpt>
      <trkpt lat="46.88571" lon="8.53508">
        <ele>1841</ele>
        <time>2021-08-11T09:18:52.382Z</time>
      </trkpt>
      <trkpt lat="46.88571" lon="8.53508">
        <ele>1841</ele>
        <time>2021-08-11T09:18:53.382Z</time>
      </trkpt>
      <trkpt lat="46.8857" lon="8.53507">
        <ele>1841</ele>
        <time>2021-08-11T09:18:54.383Z</time>
      </trkpt>
      <trkpt lat="46.8857" lon="8.53506">
        <ele>1842</ele>
        <time>2021-08-11T09:18:55.383Z</time>
      </trkpt>
      <trkpt lat="46.88569" lon="8.53505">
        <ele>1842</ele>
        <time>2021-08-11T09:18:56.383Z</time>
      </trkpt>
      <trkpt lat="46.88568" lon="8.53504">
        <ele>1842</ele>
        <time>2021-08-11T09:18:57.383Z</time>
      </trkpt>
      <trkpt lat="46.88568" lon="8.53504">
        <ele>1841</ele>
        <time>2021-08-11T09:18:58.382Z</time>
      </trkpt>
      <trkpt lat="46.88567" lon="8.53503">
        <ele>1841</ele>
        <time>2021-08-11T09:18:59.382Z</time>
      </trkpt>
      <trkpt lat="46.88566" lon="8.53502">
        <ele>1841</ele>
        <time>2021-08-11T09:19:00.383Z</time>
      </trkpt>
      <trkpt lat="46.88565" lon="8.53502">
        <ele>1841</ele>
        <time>2021-08-11T09:19:01.383Z</time>
      </trkpt>
      <trkpt lat="46.88565" lon="8.53502">
        <ele>1840</ele>
        <time>2021-08-11T09:19:02.383Z</time>
      </trkpt>
      <trkpt lat="46.88565" lon="8.53502">
        <ele>1840</ele>
        <time>2021-08-11T09:19:03.382Z</time>
      </trkpt>
      <trkpt lat="46.88565" lon="8.53502">
        <ele>1839</ele>
        <time>2021-08-11T09:19:04.382Z</time>
      </trkpt>
      <trkpt lat="46.88565" lon="8.53505">
        <ele>1847</ele>
        <time>2021-08-11T09:19:05.383Z</time>
      </trkpt>
      <trkpt lat="46.88564" lon="8.53504">
        <ele>1847</ele>
        <time>2021-08-11T09:19:06.382Z</time>
      </trkpt>
      <trkpt lat="46.88564" lon="8.53503">
        <ele>1848</ele>
        <time>2021-08-11T09:19:07.383Z</time>
      </trkpt>
      <trkpt lat="46.88563" lon="8.53502">
        <ele>1848</ele>
        <time>2021-08-11T09:19:08.383Z</time>
      </trkpt>
      <trkpt lat="46.88558" lon="8.535">
        <ele>1855</ele>
        <time>2021-08-11T09:19:09.382Z</time>
      </trkpt>
      <trkpt lat="46.88558" lon="8.535">
        <ele>1854</ele>
        <time>2021-08-11T09:19:10.383Z</time>
      </trkpt>
      <trkpt lat="46.88558" lon="8.53499">
        <ele>1853</ele>
        <time>2021-08-11T09:19:11.382Z</time>
      </trkpt>
      <trkpt lat="46.88557" lon="8.53499">
        <ele>1851</ele>
        <time>2021-08-11T09:19:12.383Z</time>
      </trkpt>
      <trkpt lat="46.88557" lon="8.53498">
        <ele>1850</ele>
        <time>2021-08-11T09:19:13.383Z</time>
      </trkpt>
      <trkpt lat="46.88556" lon="8.53498">
        <ele>1850</ele>
        <time>2021-08-11T09:19:14.383Z</time>
      </trkpt>
      <trkpt lat="46.88555" lon="8.53498">
        <ele>1849</ele>
        <time>2021-08-11T09:19:15.382Z</time>
      </trkpt>
      <trkpt lat="46.88554" lon="8.53498">
        <ele>1849</ele>
        <time>2021-08-11T09:19:16.383Z</time>
      </trkpt>
      <trkpt lat="46.88554" lon="8.53497">
        <ele>1848</ele>
        <time>2021-08-11T09:19:17.383Z</time>
      </trkpt>
      <trkpt lat="46.88553" lon="8.53497">
        <ele>1848</ele>
        <time>2021-08-11T09:19:18.383Z</time>
      </trkpt>
      <trkpt lat="46.88553" lon="8.53497">
        <ele>1847</ele>
        <time>2021-08-11T09:19:19.383Z</time>
      </trkpt>
      <trkpt lat="46.88552" lon="8.53497">
        <ele>1847</ele>
        <time>2021-08-11T09:19:20.383Z</time>
      </trkpt>
      <trkpt lat="46.88552" lon="8.53497">
        <ele>1846</ele>
        <time>2021-08-11T09:19:21.383Z</time>
      </trkpt>
      <trkpt lat="46.88552" lon="8.53497">
        <ele>1846</ele>
        <time>2021-08-11T09:19:22.382Z</time>
      </trkpt>
      <trkpt lat="46.88552" lon="8.53497">
        <ele>1845</ele>
        <time>2021-08-11T09:19:23.382Z</time>
      </trkpt>
      <trkpt lat="46.88552" lon="8.53495">
        <ele>1839</ele>
        <time>2021-08-11T09:19:24.383Z</time>
      </trkpt>
      <trkpt lat="46.88551" lon="8.53495">
        <ele>1838</ele>
        <time>2021-08-11T09:19:25.384Z</time>
      </trkpt>
      <trkpt lat="46.88551" lon="8.53494">
        <ele>1838</ele>
        <time>2021-08-11T09:19:26.385Z</time>
      </trkpt>
      <trkpt lat="46.88551" lon="8.53494">
        <ele>1837</ele>
        <time>2021-08-11T09:19:27.384Z</time>
      </trkpt>
      <trkpt lat="46.8855" lon="8.53493">
        <ele>1836</ele>
        <time>2021-08-11T09:19:28.384Z</time>
      </trkpt>
      <trkpt lat="46.8855" lon="8.53493">
        <ele>1835</ele>
        <time>2021-08-11T09:19:29.384Z</time>
      </trkpt>
      <trkpt lat="46.88549" lon="8.53492">
        <ele>1835</ele>
        <time>2021-08-11T09:19:30.384Z</time>
      </trkpt>
      <trkpt lat="46.88549" lon="8.53492">
        <ele>1834</ele>
        <time>2021-08-11T09:19:31.384Z</time>
      </trkpt>
      <trkpt lat="46.88549" lon="8.53491">
        <ele>1834</ele>
        <time>2021-08-11T09:19:32.384Z</time>
      </trkpt>
      <trkpt lat="46.88548" lon="8.5349">
        <ele>1834</ele>
        <time>2021-08-11T09:19:33.384Z</time>
      </trkpt>
      <trkpt lat="46.88548" lon="8.5349">
        <ele>1834</ele>
        <time>2021-08-11T09:19:34.384Z</time>
      </trkpt>
      <trkpt lat="46.88547" lon="8.53489">
        <ele>1834</ele>
        <time>2021-08-11T09:19:35.384Z</time>
      </trkpt>
      <trkpt lat="46.88547" lon="8.53489">
        <ele>1833</ele>
        <time>2021-08-11T09:19:36.384Z</time>
      </trkpt>
      <trkpt lat="46.88548" lon="8.53489">
        <ele>1833</ele>
        <time>2021-08-11T09:19:37.384Z</time>
      </trkpt>
      <trkpt lat="46.88547" lon="8.53488">
        <ele>1833</ele>
        <time>2021-08-11T09:19:38.385Z</time>
      </trkpt>
      <trkpt lat="46.88547" lon="8.53488">
        <ele>1833</ele>
        <time>2021-08-11T09:19:39.385Z</time>
      </trkpt>
      <trkpt lat="46.88546" lon="8.53487">
        <ele>1832</ele>
        <time>2021-08-11T09:19:40.384Z</time>
      </trkpt>
      <trkpt lat="46.88546" lon="8.53486">
        <ele>1832</ele>
        <time>2021-08-11T09:19:41.385Z</time>
      </trkpt>
      <trkpt lat="46.88545" lon="8.53485">
        <ele>1832</ele>
        <time>2021-08-11T09:19:42.384Z</time>
      </trkpt>
      <trkpt lat="46.88547" lon="8.53484">
        <ele>1832</ele>
        <time>2021-08-11T09:19:43.385Z</time>
      </trkpt>
      <trkpt lat="46.88547" lon="8.53482">
        <ele>1832</ele>
        <time>2021-08-11T09:19:44.384Z</time>
      </trkpt>
      <trkpt lat="46.88546" lon="8.53481">
        <ele>1832</ele>
        <time>2021-08-11T09:19:45.385Z</time>
      </trkpt>
      <trkpt lat="46.88546" lon="8.5348">
        <ele>1832</ele>
        <time>2021-08-11T09:19:46.385Z</time>
      </trkpt>
      <trkpt lat="46.88544" lon="8.5348">
        <ele>1832</ele>
        <time>2021-08-11T09:19:47.385Z</time>
      </trkpt>
      <trkpt lat="46.88543" lon="8.5348">
        <ele>1831</ele>
        <time>2021-08-11T09:19:48.385Z</time>
      </trkpt>
      <trkpt lat="46.88541" lon="8.5348">
        <ele>1831</ele>
        <time>2021-08-11T09:19:49.384Z</time>
      </trkpt>
      <trkpt lat="46.8854" lon="8.53479">
        <ele>1831</ele>
        <time>2021-08-11T09:19:50.385Z</time>
      </trkpt>
      <trkpt lat="46.8854" lon="8.53478">
        <ele>1831</ele>
        <time>2021-08-11T09:19:51.385Z</time>
      </trkpt>
      <trkpt lat="46.88539" lon="8.53478">
        <ele>1830</ele>
        <time>2021-08-11T09:19:52.385Z</time>
      </trkpt>
      <trkpt lat="46.88538" lon="8.53478">
        <ele>1830</ele>
        <time>2021-08-11T09:19:53.384Z</time>
      </trkpt>
      <trkpt lat="46.88537" lon="8.53478">
        <ele>1829</ele>
        <time>2021-08-11T09:19:54.384Z</time>
      </trkpt>
      <trkpt lat="46.88537" lon="8.53479">
        <ele>1829</ele>
        <time>2021-08-11T09:19:55.384Z</time>
      </trkpt>
      <trkpt lat="46.88536" lon="8.53482">
        <ele>1828</ele>
        <time>2021-08-11T09:19:56.384Z</time>
      </trkpt>
      <trkpt lat="46.88535" lon="8.53481">
        <ele>1835</ele>
        <time>2021-08-11T09:19:57.384Z</time>
      </trkpt>
      <trkpt lat="46.88536" lon="8.5348">
        <ele>1836</ele>
        <time>2021-08-11T09:19:58.384Z</time>
      </trkpt>
      <trkpt lat="46.88535" lon="8.5348">
        <ele>1836</ele>
        <time>2021-08-11T09:19:59.384Z</time>
      </trkpt>
      <trkpt lat="46.88535" lon="8.5348">
        <ele>1837</ele>
        <time>2021-08-11T09:20:00.385Z</time>
      </trkpt>
      <trkpt lat="46.88536" lon="8.5348">
        <ele>1837</ele>
        <time>2021-08-11T09:20:01.385Z</time>
      </trkpt>
      <trkpt lat="46.88536" lon="8.53479">
        <ele>1837</ele>
        <time>2021-08-11T09:20:02.385Z</time>
      </trkpt>
      <trkpt lat="46.88535" lon="8.53479">
        <ele>1837</ele>
        <time>2021-08-11T09:20:03.385Z</time>
      </trkpt>
      <trkpt lat="46.88534" lon="8.53478">
        <ele>1837</ele>
        <time>2021-08-11T09:20:04.385Z</time>
      </trkpt>
      <trkpt lat="46.88534" lon="8.53477">
        <ele>1837</ele>
        <time>2021-08-11T09:20:05.385Z</time>
      </trkpt>
      <trkpt lat="46.88534" lon="8.53476">
        <ele>1837</ele>
        <time>2021-08-11T09:20:06.385Z</time>
      </trkpt>
      <trkpt lat="46.88534" lon="8.53475">
        <ele>1836</ele>
        <time>2021-08-11T09:20:07.385Z</time>
      </trkpt>
      <trkpt lat="46.88534" lon="8.53474">
        <ele>1836</ele>
        <time>2021-08-11T09:20:08.385Z</time>
      </trkpt>
      <trkpt lat="46.88534" lon="8.53474">
        <ele>1836</ele>
        <time>2021-08-11T09:20:09.385Z</time>
      </trkpt>
      <trkpt lat="46.88533" lon="8.53472">
        <ele>1836</ele>
        <time>2021-08-11T09:20:10.385Z</time>
      </trkpt>
      <trkpt lat="46.88533" lon="8.53471">
        <ele>1835</ele>
        <time>2021-08-11T09:20:11.385Z</time>
      </trkpt>
      <trkpt lat="46.88533" lon="8.5347">
        <ele>1835</ele>
        <time>2021-08-11T09:20:12.385Z</time>
      </trkpt>
      <trkpt lat="46.88533" lon="8.53469">
        <ele>1835</ele>
        <time>2021-08-11T09:20:13.385Z</time>
      </trkpt>
      <trkpt lat="46.88533" lon="8.53468">
        <ele>1834</ele>
        <time>2021-08-11T09:20:14.385Z</time>
      </trkpt>
      <trkpt lat="46.88533" lon="8.53468">
        <ele>1834</ele>
        <time>2021-08-11T09:20:15.385Z</time>
      </trkpt>
      <trkpt lat="46.88533" lon="8.53467">
        <ele>1833</ele>
        <time>2021-08-11T09:20:16.385Z</time>
      </trkpt>
      <trkpt lat="46.88532" lon="8.53466">
        <ele>1833</ele>
        <time>2021-08-11T09:20:17.385Z</time>
      </trkpt>
      <trkpt lat="46.88532" lon="8.53464">
        <ele>1832</ele>
        <time>2021-08-11T09:20:18.385Z</time>
      </trkpt>
      <trkpt lat="46.88532" lon="8.53463">
        <ele>1833</ele>
        <time>2021-08-11T09:20:19.385Z</time>
      </trkpt>
      <trkpt lat="46.88532" lon="8.53463">
        <ele>1833</ele>
        <time>2021-08-11T09:20:20.385Z</time>
      </trkpt>
      <trkpt lat="46.88531" lon="8.53463">
        <ele>1834</ele>
        <time>2021-08-11T09:20:21.385Z</time>
      </trkpt>
      <trkpt lat="46.88532" lon="8.53462">
        <ele>1835</ele>
        <time>2021-08-11T09:20:22.386Z</time>
      </trkpt>
      <trkpt lat="46.88532" lon="8.53461">
        <ele>1836</ele>
        <time>2021-08-11T09:20:23.386Z</time>
      </trkpt>
      <trkpt lat="46.88531" lon="8.53461">
        <ele>1836</ele>
        <time>2021-08-11T09:20:24.385Z</time>
      </trkpt>
      <trkpt lat="46.88532" lon="8.5346">
        <ele>1836</ele>
        <time>2021-08-11T09:20:25.386Z</time>
      </trkpt>
      <trkpt lat="46.88531" lon="8.53459">
        <ele>1836</ele>
        <time>2021-08-11T09:20:26.385Z</time>
      </trkpt>
      <trkpt lat="46.88531" lon="8.53458">
        <ele>1835</ele>
        <time>2021-08-11T09:20:27.386Z</time>
      </trkpt>
      <trkpt lat="46.8853" lon="8.53458">
        <ele>1835</ele>
        <time>2021-08-11T09:20:28.386Z</time>
      </trkpt>
      <trkpt lat="46.88529" lon="8.53457">
        <ele>1835</ele>
        <time>2021-08-11T09:20:29.386Z</time>
      </trkpt>
      <trkpt lat="46.88529" lon="8.53457">
        <ele>1834</ele>
        <time>2021-08-11T09:20:30.385Z</time>
      </trkpt>
      <trkpt lat="46.88528" lon="8.53457">
        <ele>1834</ele>
        <time>2021-08-11T09:20:31.386Z</time>
      </trkpt>
      <trkpt lat="46.88528" lon="8.53457">
        <ele>1833</ele>
        <time>2021-08-11T09:20:32.386Z</time>
      </trkpt>
      <trkpt lat="46.88527" lon="8.53458">
        <ele>1829</ele>
        <time>2021-08-11T09:20:33.386Z</time>
      </trkpt>
      <trkpt lat="46.88527" lon="8.53457">
        <ele>1828</ele>
        <time>2021-08-11T09:20:34.386Z</time>
      </trkpt>
      <trkpt lat="46.88527" lon="8.53457">
        <ele>1828</ele>
        <time>2021-08-11T09:20:35.385Z</time>
      </trkpt>
      <trkpt lat="46.88526" lon="8.53457">
        <ele>1828</ele>
        <time>2021-08-11T09:20:36.386Z</time>
      </trkpt>
      <trkpt lat="46.88525" lon="8.53457">
        <ele>1828</ele>
        <time>2021-08-11T09:20:37.386Z</time>
      </trkpt>
      <trkpt lat="46.88525" lon="8.53457">
        <ele>1828</ele>
        <time>2021-08-11T09:20:38.386Z</time>
      </trkpt>
      <trkpt lat="46.88524" lon="8.53457">
        <ele>1829</ele>
        <time>2021-08-11T09:20:39.385Z</time>
      </trkpt>
      <trkpt lat="46.88523" lon="8.53457">
        <ele>1830</ele>
        <time>2021-08-11T09:20:40.386Z</time>
      </trkpt>
      <trkpt lat="46.88523" lon="8.53456">
        <ele>1830</ele>
        <time>2021-08-11T09:20:41.386Z</time>
      </trkpt>
      <trkpt lat="46.88522" lon="8.53456">
        <ele>1831</ele>
        <time>2021-08-11T09:20:42.385Z</time>
      </trkpt>
      <trkpt lat="46.88522" lon="8.53456">
        <ele>1832</ele>
        <time>2021-08-11T09:20:43.385Z</time>
      </trkpt>
      <trkpt lat="46.88521" lon="8.53455">
        <ele>1832</ele>
        <time>2021-08-11T09:20:44.386Z</time>
      </trkpt>
      <trkpt lat="46.88521" lon="8.53455">
        <ele>1833</ele>
        <time>2021-08-11T09:20:45.386Z</time>
      </trkpt>
      <trkpt lat="46.88519" lon="8.53453">
        <ele>1834</ele>
        <time>2021-08-11T09:20:46.387Z</time>
      </trkpt>
      <trkpt lat="46.88519" lon="8.53452">
        <ele>1834</ele>
        <time>2021-08-11T09:20:47.387Z</time>
      </trkpt>
      <trkpt lat="46.88518" lon="8.53452">
        <ele>1834</ele>
        <time>2021-08-11T09:20:48.386Z</time>
      </trkpt>
      <trkpt lat="46.88518" lon="8.53452">
        <ele>1835</ele>
        <time>2021-08-11T09:20:49.387Z</time>
      </trkpt>
      <trkpt lat="46.88518" lon="8.53452">
        <ele>1835</ele>
        <time>2021-08-11T09:20:50.387Z</time>
      </trkpt>
      <trkpt lat="46.88517" lon="8.53452">
        <ele>1835</ele>
        <time>2021-08-11T09:20:51.386Z</time>
      </trkpt>
      <trkpt lat="46.88517" lon="8.53452">
        <ele>1835</ele>
        <time>2021-08-11T09:20:52.387Z</time>
      </trkpt>
      <trkpt lat="46.88517" lon="8.53452">
        <ele>1836</ele>
        <time>2021-08-11T09:20:53.386Z</time>
      </trkpt>
      <trkpt lat="46.88516" lon="8.53452">
        <ele>1836</ele>
        <time>2021-08-11T09:20:54.387Z</time>
      </trkpt>
      <trkpt lat="46.88516" lon="8.53452">
        <ele>1836</ele>
        <time>2021-08-11T09:20:55.386Z</time>
      </trkpt>
      <trkpt lat="46.88515" lon="8.53451">
        <ele>1836</ele>
        <time>2021-08-11T09:20:56.387Z</time>
      </trkpt>
      <trkpt lat="46.88514" lon="8.53451">
        <ele>1836</ele>
        <time>2021-08-11T09:20:57.386Z</time>
      </trkpt>
      <trkpt lat="46.88513" lon="8.5345">
        <ele>1836</ele>
        <time>2021-08-11T09:20:58.387Z</time>
      </trkpt>
      <trkpt lat="46.88512" lon="8.53451">
        <ele>1837</ele>
        <time>2021-08-11T09:20:59.387Z</time>
      </trkpt>
      <trkpt lat="46.88511" lon="8.53451">
        <ele>1837</ele>
        <time>2021-08-11T09:21:00.387Z</time>
      </trkpt>
      <trkpt lat="46.88511" lon="8.5345">
        <ele>1838</ele>
        <time>2021-08-11T09:21:01.387Z</time>
      </trkpt>
      <trkpt lat="46.88511" lon="8.53451">
        <ele>1838</ele>
        <time>2021-08-11T09:21:02.386Z</time>
      </trkpt>
      <trkpt lat="46.88511" lon="8.53451">
        <ele>1838</ele>
        <time>2021-08-11T09:21:03.386Z</time>
      </trkpt>
      <trkpt lat="46.88511" lon="8.53451">
        <ele>1835</ele>
        <time>2021-08-11T09:21:04.387Z</time>
      </trkpt>
      <trkpt lat="46.88512" lon="8.53452">
        <ele>1835</ele>
        <time>2021-08-11T09:21:05.386Z</time>
      </trkpt>
      <trkpt lat="46.88512" lon="8.53452">
        <ele>1834</ele>
        <time>2021-08-11T09:21:06.386Z</time>
      </trkpt>
      <trkpt lat="46.88511" lon="8.53451">
        <ele>1829</ele>
        <time>2021-08-11T09:21:07.387Z</time>
      </trkpt>
      <trkpt lat="46.8851" lon="8.5345">
        <ele>1829</ele>
        <time>2021-08-11T09:21:08.387Z</time>
      </trkpt>
      <trkpt lat="46.8851" lon="8.5345">
        <ele>1828</ele>
        <time>2021-08-11T09:21:09.387Z</time>
      </trkpt>
      <trkpt lat="46.8851" lon="8.5345">
        <ele>1828</ele>
        <time>2021-08-11T09:21:10.387Z</time>
      </trkpt>
      <trkpt lat="46.88509" lon="8.5345">
        <ele>1828</ele>
        <time>2021-08-11T09:21:11.388Z</time>
      </trkpt>
      <trkpt lat="46.88508" lon="8.5345">
        <ele>1827</ele>
        <time>2021-08-11T09:21:12.388Z</time>
      </trkpt>
      <trkpt lat="46.88508" lon="8.5345">
        <ele>1827</ele>
        <time>2021-08-11T09:21:13.388Z</time>
      </trkpt>
      <trkpt lat="46.88508" lon="8.53449">
        <ele>1827</ele>
        <time>2021-08-11T09:21:14.387Z</time>
      </trkpt>
      <trkpt lat="46.88508" lon="8.53449">
        <ele>1827</ele>
        <time>2021-08-11T09:21:15.387Z</time>
      </trkpt>
      <trkpt lat="46.88509" lon="8.53449">
        <ele>1827</ele>
        <time>2021-08-11T09:21:16.388Z</time>
      </trkpt>
      <trkpt lat="46.88508" lon="8.53449">
        <ele>1827</ele>
        <time>2021-08-11T09:21:17.388Z</time>
      </trkpt>
      <trkpt lat="46.88507" lon="8.53449">
        <ele>1827</ele>
        <time>2021-08-11T09:21:18.388Z</time>
      </trkpt>
      <trkpt lat="46.88507" lon="8.53449">
        <ele>1827</ele>
        <time>2021-08-11T09:21:19.388Z</time>
      </trkpt>
      <trkpt lat="46.88506" lon="8.5345">
        <ele>1825</ele>
        <time>2021-08-11T09:21:20.390Z</time>
      </trkpt>
      <trkpt lat="46.88506" lon="8.5345">
        <ele>1825</ele>
        <time>2021-08-11T09:21:21.389Z</time>
      </trkpt>
      <trkpt lat="46.88507" lon="8.5345">
        <ele>1827</ele>
        <time>2021-08-11T09:21:22.390Z</time>
      </trkpt>
      <trkpt lat="46.88507" lon="8.5345">
        <ele>1828</ele>
        <time>2021-08-11T09:21:23.390Z</time>
      </trkpt>
      <trkpt lat="46.88506" lon="8.5345">
        <ele>1828</ele>
        <time>2021-08-11T09:21:24.390Z</time>
      </trkpt>
      <trkpt lat="46.88503" lon="8.53449">
        <ele>1840</ele>
        <time>2021-08-11T09:21:25.391Z</time>
      </trkpt>
      <trkpt lat="46.88504" lon="8.5345">
        <ele>1841</ele>
        <time>2021-08-11T09:21:26.390Z</time>
      </trkpt>
      <trkpt lat="46.88504" lon="8.53451">
        <ele>1841</ele>
        <time>2021-08-11T09:21:27.391Z</time>
      </trkpt>
      <trkpt lat="46.88504" lon="8.53451">
        <ele>1842</ele>
        <time>2021-08-11T09:21:28.391Z</time>
      </trkpt>
      <trkpt lat="46.88504" lon="8.53451">
        <ele>1842</ele>
        <time>2021-08-11T09:21:29.391Z</time>
      </trkpt>
      <trkpt lat="46.88501" lon="8.53448">
        <ele>1843</ele>
        <time>2021-08-11T09:21:30.391Z</time>
      </trkpt>
      <trkpt lat="46.88501" lon="8.53447">
        <ele>1842</ele>
        <time>2021-08-11T09:21:31.390Z</time>
      </trkpt>
      <trkpt lat="46.88499" lon="8.53445">
        <ele>1840</ele>
        <time>2021-08-11T09:21:32.391Z</time>
      </trkpt>
      <trkpt lat="46.88499" lon="8.53444">
        <ele>1840</ele>
        <time>2021-08-11T09:21:33.390Z</time>
      </trkpt>
      <trkpt lat="46.88499" lon="8.53443">
        <ele>1839</ele>
        <time>2021-08-11T09:21:34.392Z</time>
      </trkpt>
      <trkpt lat="46.885" lon="8.53443">
        <ele>1839</ele>
        <time>2021-08-11T09:21:35.392Z</time>
      </trkpt>
      <trkpt lat="46.88499" lon="8.53442">
        <ele>1838</ele>
        <time>2021-08-11T09:21:36.391Z</time>
      </trkpt>
      <trkpt lat="46.88499" lon="8.53442">
        <ele>1838</ele>
        <time>2021-08-11T09:21:37.391Z</time>
      </trkpt>
      <trkpt lat="46.88494" lon="8.53445">
        <ele>1834</ele>
        <time>2021-08-11T09:21:38.393Z</time>
      </trkpt>
      <trkpt lat="46.88494" lon="8.53445">
        <ele>1834</ele>
        <time>2021-08-11T09:21:39.393Z</time>
      </trkpt>
      <trkpt lat="46.88495" lon="8.53445">
        <ele>1833</ele>
        <time>2021-08-11T09:21:40.392Z</time>
      </trkpt>
      <trkpt lat="46.88495" lon="8.53446">
        <ele>1831</ele>
        <time>2021-08-11T09:21:41.393Z</time>
      </trkpt>
      <trkpt lat="46.88495" lon="8.53445">
        <ele>1831</ele>
        <time>2021-08-11T09:21:42.394Z</time>
      </trkpt>
      <trkpt lat="46.88495" lon="8.53444">
        <ele>1832</ele>
        <time>2021-08-11T09:21:43.393Z</time>
      </trkpt>
      <trkpt lat="46.88495" lon="8.53443">
        <ele>1832</ele>
        <time>2021-08-11T09:21:44.394Z</time>
      </trkpt>
      <trkpt lat="46.88495" lon="8.53442">
        <ele>1833</ele>
        <time>2021-08-11T09:21:45.394Z</time>
      </trkpt>
      <trkpt lat="46.88502" lon="8.53439">
        <ele>1834</ele>
        <time>2021-08-11T09:21:46.394Z</time>
      </trkpt>
      <trkpt lat="46.88501" lon="8.53439">
        <ele>1834</ele>
        <time>2021-08-11T09:21:47.394Z</time>
      </trkpt>
      <trkpt lat="46.885" lon="8.53439">
        <ele>1834</ele>
        <time>2021-08-11T09:21:48.393Z</time>
      </trkpt>
      <trkpt lat="46.88498" lon="8.5344">
        <ele>1833</ele>
        <time>2021-08-11T09:21:49.393Z</time>
      </trkpt>
      <trkpt lat="46.88497" lon="8.5344">
        <ele>1833</ele>
        <time>2021-08-11T09:21:50.393Z</time>
      </trkpt>
      <trkpt lat="46.88497" lon="8.5344">
        <ele>1833</ele>
        <time>2021-08-11T09:21:51.394Z</time>
      </trkpt>
      <trkpt lat="46.88496" lon="8.5344">
        <ele>1833</ele>
        <time>2021-08-11T09:21:52.394Z</time>
      </trkpt>
      <trkpt lat="46.88496" lon="8.53439">
        <ele>1834</ele>
        <time>2021-08-11T09:21:53.394Z</time>
      </trkpt>
      <trkpt lat="46.88497" lon="8.53439">
        <ele>1834</ele>
        <time>2021-08-11T09:21:54.394Z</time>
      </trkpt>
      <trkpt lat="46.88497" lon="8.53439">
        <ele>1834</ele>
        <time>2021-08-11T09:21:55.393Z</time>
      </trkpt>
      <trkpt lat="46.88501" lon="8.53438">
        <ele>1833</ele>
        <time>2021-08-11T09:21:56.394Z</time>
      </trkpt>
      <trkpt lat="46.885" lon="8.53437">
        <ele>1833</ele>
        <time>2021-08-11T09:21:57.394Z</time>
      </trkpt>
      <trkpt lat="46.88499" lon="8.53437">
        <ele>1832</ele>
        <time>2021-08-11T09:21:58.394Z</time>
      </trkpt>
      <trkpt lat="46.88498" lon="8.53436">
        <ele>1832</ele>
        <time>2021-08-11T09:21:59.393Z</time>
      </trkpt>
      <trkpt lat="46.88497" lon="8.53436">
        <ele>1832</ele>
        <time>2021-08-11T09:22:00.394Z</time>
      </trkpt>
      <trkpt lat="46.88497" lon="8.53437">
        <ele>1832</ele>
        <time>2021-08-11T09:22:01.394Z</time>
      </trkpt>
      <trkpt lat="46.88496" lon="8.53436">
        <ele>1832</ele>
        <time>2021-08-11T09:22:02.394Z</time>
      </trkpt>
      <trkpt lat="46.88495" lon="8.53435">
        <ele>1832</ele>
        <time>2021-08-11T09:22:03.395Z</time>
      </trkpt>
      <trkpt lat="46.88494" lon="8.53435">
        <ele>1832</ele>
        <time>2021-08-11T09:22:04.394Z</time>
      </trkpt>
      <trkpt lat="46.88493" lon="8.53436">
        <ele>1832</ele>
        <time>2021-08-11T09:22:05.394Z</time>
      </trkpt>
      <trkpt lat="46.88493" lon="8.53436">
        <ele>1832</ele>
        <time>2021-08-11T09:22:06.394Z</time>
      </trkpt>
      <trkpt lat="46.88492" lon="8.53437">
        <ele>1831</ele>
        <time>2021-08-11T09:22:07.395Z</time>
      </trkpt>
      <trkpt lat="46.88492" lon="8.53437">
        <ele>1831</ele>
        <time>2021-08-11T09:22:08.395Z</time>
      </trkpt>
      <trkpt lat="46.88492" lon="8.53436">
        <ele>1831</ele>
        <time>2021-08-11T09:22:09.394Z</time>
      </trkpt>
      <trkpt lat="46.8849" lon="8.53435">
        <ele>1827</ele>
        <time>2021-08-11T09:22:10.396Z</time>
      </trkpt>
      <trkpt lat="46.8849" lon="8.53435">
        <ele>1826</ele>
        <time>2021-08-11T09:22:11.396Z</time>
      </trkpt>
      <trkpt lat="46.88489" lon="8.53434">
        <ele>1826</ele>
        <time>2021-08-11T09:22:12.395Z</time>
      </trkpt>
      <trkpt lat="46.88489" lon="8.53435">
        <ele>1826</ele>
        <time>2021-08-11T09:22:13.396Z</time>
      </trkpt>
      <trkpt lat="46.88489" lon="8.53435">
        <ele>1826</ele>
        <time>2021-08-11T09:22:14.396Z</time>
      </trkpt>
      <trkpt lat="46.88488" lon="8.53435">
        <ele>1826</ele>
        <time>2021-08-11T09:22:15.396Z</time>
      </trkpt>
      <trkpt lat="46.88488" lon="8.53435">
        <ele>1826</ele>
        <time>2021-08-11T09:22:16.396Z</time>
      </trkpt>
      <trkpt lat="46.88487" lon="8.53435">
        <ele>1826</ele>
        <time>2021-08-11T09:22:17.395Z</time>
      </trkpt>
      <trkpt lat="46.88487" lon="8.53436">
        <ele>1826</ele>
        <time>2021-08-11T09:22:18.396Z</time>
      </trkpt>
      <trkpt lat="46.88487" lon="8.53436">
        <ele>1826</ele>
        <time>2021-08-11T09:22:19.396Z</time>
      </trkpt>
      <trkpt lat="46.88487" lon="8.53436">
        <ele>1826</ele>
        <time>2021-08-11T09:22:20.396Z</time>
      </trkpt>
      <trkpt lat="46.88487" lon="8.53436">
        <ele>1826</ele>
        <time>2021-08-11T09:22:21.395Z</time>
      </trkpt>
      <trkpt lat="46.88487" lon="8.53435">
        <ele>1826</ele>
        <time>2021-08-11T09:22:22.396Z</time>
      </trkpt>
      <trkpt lat="46.88486" lon="8.53434">
        <ele>1826</ele>
        <time>2021-08-11T09:22:23.396Z</time>
      </trkpt>
      <trkpt lat="46.88486" lon="8.53434">
        <ele>1827</ele>
        <time>2021-08-11T09:22:24.396Z</time>
      </trkpt>
      <trkpt lat="46.88486" lon="8.53432">
        <ele>1829</ele>
        <time>2021-08-11T09:22:25.397Z</time>
      </trkpt>
      <trkpt lat="46.88485" lon="8.53432">
        <ele>1830</ele>
        <time>2021-08-11T09:22:26.397Z</time>
      </trkpt>
      <trkpt lat="46.88484" lon="8.53431">
        <ele>1830</ele>
        <time>2021-08-11T09:22:27.396Z</time>
      </trkpt>
      <trkpt lat="46.88483" lon="8.5343">
        <ele>1830</ele>
        <time>2021-08-11T09:22:28.397Z</time>
      </trkpt>
      <trkpt lat="46.88482" lon="8.5343">
        <ele>1830</ele>
        <time>2021-08-11T09:22:29.396Z</time>
      </trkpt>
      <trkpt lat="46.88481" lon="8.53431">
        <ele>1830</ele>
        <time>2021-08-11T09:22:30.397Z</time>
      </trkpt>
      <trkpt lat="46.88481" lon="8.53431">
        <ele>1830</ele>
        <time>2021-08-11T09:22:31.397Z</time>
      </trkpt>
      <trkpt lat="46.88481" lon="8.53431">
        <ele>1830</ele>
        <time>2021-08-11T09:22:32.396Z</time>
      </trkpt>
      <trkpt lat="46.88481" lon="8.5343">
        <ele>1831</ele>
        <time>2021-08-11T09:22:33.397Z</time>
      </trkpt>
      <trkpt lat="46.88481" lon="8.5343">
        <ele>1831</ele>
        <time>2021-08-11T09:22:34.396Z</time>
      </trkpt>
      <trkpt lat="46.88481" lon="8.53429">
        <ele>1831</ele>
        <time>2021-08-11T09:22:35.397Z</time>
      </trkpt>
      <trkpt lat="46.88481" lon="8.53429">
        <ele>1830</ele>
        <time>2021-08-11T09:22:36.397Z</time>
      </trkpt>
      <trkpt lat="46.88481" lon="8.53429">
        <ele>1830</ele>
        <time>2021-08-11T09:22:37.397Z</time>
      </trkpt>
      <trkpt lat="46.88481" lon="8.53429">
        <ele>1830</ele>
        <time>2021-08-11T09:22:38.397Z</time>
      </trkpt>
      <trkpt lat="46.88482" lon="8.53428">
        <ele>1829</ele>
        <time>2021-08-11T09:22:39.398Z</time>
      </trkpt>
      <trkpt lat="46.88481" lon="8.53427">
        <ele>1829</ele>
        <time>2021-08-11T09:22:40.398Z</time>
      </trkpt>
      <trkpt lat="46.88481" lon="8.53426">
        <ele>1829</ele>
        <time>2021-08-11T09:22:41.397Z</time>
      </trkpt>
      <trkpt lat="46.8848" lon="8.53425">
        <ele>1828</ele>
        <time>2021-08-11T09:22:42.397Z</time>
      </trkpt>
      <trkpt lat="46.8848" lon="8.53424">
        <ele>1828</ele>
        <time>2021-08-11T09:22:43.398Z</time>
      </trkpt>
      <trkpt lat="46.8848" lon="8.53423">
        <ele>1828</ele>
        <time>2021-08-11T09:22:44.398Z</time>
      </trkpt>
      <trkpt lat="46.8848" lon="8.53423">
        <ele>1828</ele>
        <time>2021-08-11T09:22:45.398Z</time>
      </trkpt>
      <trkpt lat="46.88481" lon="8.53425">
        <ele>1828</ele>
        <time>2021-08-11T09:22:46.398Z</time>
      </trkpt>
      <trkpt lat="46.88481" lon="8.53424">
        <ele>1828</ele>
        <time>2021-08-11T09:22:47.397Z</time>
      </trkpt>
      <trkpt lat="46.88482" lon="8.53422">
        <ele>1829</ele>
        <time>2021-08-11T09:22:48.398Z</time>
      </trkpt>
      <trkpt lat="46.88482" lon="8.53421">
        <ele>1829</ele>
        <time>2021-08-11T09:22:49.399Z</time>
      </trkpt>
      <trkpt lat="46.88482" lon="8.53421">
        <ele>1828</ele>
        <time>2021-08-11T09:22:50.398Z</time>
      </trkpt>
      <trkpt lat="46.88481" lon="8.5342">
        <ele>1828</ele>
        <time>2021-08-11T09:22:51.399Z</time>
      </trkpt>
      <trkpt lat="46.88481" lon="8.53419">
        <ele>1827</ele>
        <time>2021-08-11T09:22:52.399Z</time>
      </trkpt>
      <trkpt lat="46.8848" lon="8.53419">
        <ele>1827</ele>
        <time>2021-08-11T09:22:53.399Z</time>
      </trkpt>
      <trkpt lat="46.8848" lon="8.53418">
        <ele>1826</ele>
        <time>2021-08-11T09:22:54.399Z</time>
      </trkpt>
      <trkpt lat="46.88479" lon="8.53418">
        <ele>1825</ele>
        <time>2021-08-11T09:22:55.399Z</time>
      </trkpt>
      <trkpt lat="46.88478" lon="8.53417">
        <ele>1825</ele>
        <time>2021-08-11T09:22:56.398Z</time>
      </trkpt>
      <trkpt lat="46.88477" lon="8.53418">
        <ele>1824</ele>
        <time>2021-08-11T09:22:57.399Z</time>
      </trkpt>
      <trkpt lat="46.88476" lon="8.53418">
        <ele>1823</ele>
        <time>2021-08-11T09:22:58.399Z</time>
      </trkpt>
      <trkpt lat="46.88476" lon="8.53418">
        <ele>1823</ele>
        <time>2021-08-11T09:22:59.399Z</time>
      </trkpt>
      <trkpt lat="46.88477" lon="8.53417">
        <ele>1820</ele>
        <time>2021-08-11T09:23:00.401Z</time>
      </trkpt>
      <trkpt lat="46.88476" lon="8.53416">
        <ele>1820</ele>
        <time>2021-08-11T09:23:01.400Z</time>
      </trkpt>
      <trkpt lat="46.88476" lon="8.53416">
        <ele>1820</ele>
        <time>2021-08-11T09:23:02.400Z</time>
      </trkpt>
      <trkpt lat="46.88474" lon="8.53416">
        <ele>1820</ele>
        <time>2021-08-11T09:23:03.401Z</time>
      </trkpt>
      <trkpt lat="46.88473" lon="8.53416">
        <ele>1820</ele>
        <time>2021-08-11T09:23:04.401Z</time>
      </trkpt>
      <trkpt lat="46.88473" lon="8.53415">
        <ele>1820</ele>
        <time>2021-08-11T09:23:05.402Z</time>
      </trkpt>
      <trkpt lat="46.88473" lon="8.53415">
        <ele>1820</ele>
        <time>2021-08-11T09:23:06.402Z</time>
      </trkpt>
      <trkpt lat="46.88473" lon="8.53414">
        <ele>1820</ele>
        <time>2021-08-11T09:23:07.402Z</time>
      </trkpt>
      <trkpt lat="46.88472" lon="8.53413">
        <ele>1820</ele>
        <time>2021-08-11T09:23:08.402Z</time>
      </trkpt>
      <trkpt lat="46.88472" lon="8.53412">
        <ele>1820</ele>
        <time>2021-08-11T09:23:09.402Z</time>
      </trkpt>
      <trkpt lat="46.88472" lon="8.53412">
        <ele>1820</ele>
        <time>2021-08-11T09:23:10.402Z</time>
      </trkpt>
      <trkpt lat="46.88472" lon="8.53411">
        <ele>1820</ele>
        <time>2021-08-11T09:23:11.402Z</time>
      </trkpt>
      <trkpt lat="46.88468" lon="8.5341">
        <ele>1820</ele>
        <time>2021-08-11T09:23:12.401Z</time>
      </trkpt>
      <trkpt lat="46.88468" lon="8.5341">
        <ele>1820</ele>
        <time>2021-08-11T09:23:13.401Z</time>
      </trkpt>
      <trkpt lat="46.88467" lon="8.5341">
        <ele>1820</ele>
        <time>2021-08-11T09:23:14.402Z</time>
      </trkpt>
      <trkpt lat="46.88467" lon="8.5341">
        <ele>1820</ele>
        <time>2021-08-11T09:23:15.401Z</time>
      </trkpt>
      <trkpt lat="46.88467" lon="8.5341">
        <ele>1819</ele>
        <time>2021-08-11T09:23:16.402Z</time>
      </trkpt>
      <trkpt lat="46.88466" lon="8.53409">
        <ele>1819</ele>
        <time>2021-08-11T09:23:17.401Z</time>
      </trkpt>
      <trkpt lat="46.88466" lon="8.53409">
        <ele>1819</ele>
        <time>2021-08-11T09:23:18.402Z</time>
      </trkpt>
      <trkpt lat="46.88465" lon="8.53409">
        <ele>1819</ele>
        <time>2021-08-11T09:23:19.401Z</time>
      </trkpt>
      <trkpt lat="46.88465" lon="8.53408">
        <ele>1819</ele>
        <time>2021-08-11T09:23:20.402Z</time>
      </trkpt>
      <trkpt lat="46.88465" lon="8.53407">
        <ele>1818</ele>
        <time>2021-08-11T09:23:21.402Z</time>
      </trkpt>
      <trkpt lat="46.88465" lon="8.53407">
        <ele>1818</ele>
        <time>2021-08-11T09:23:22.402Z</time>
      </trkpt>
      <trkpt lat="46.88464" lon="8.53406">
        <ele>1818</ele>
        <time>2021-08-11T09:23:23.402Z</time>
      </trkpt>
      <trkpt lat="46.88463" lon="8.53405">
        <ele>1818</ele>
        <time>2021-08-11T09:23:24.401Z</time>
      </trkpt>
      <trkpt lat="46.88463" lon="8.53405">
        <ele>1817</ele>
        <time>2021-08-11T09:23:25.401Z</time>
      </trkpt>
      <trkpt lat="46.88463" lon="8.53404">
        <ele>1817</ele>
        <time>2021-08-11T09:23:26.402Z</time>
      </trkpt>
      <trkpt lat="46.88463" lon="8.53403">
        <ele>1816</ele>
        <time>2021-08-11T09:23:27.402Z</time>
      </trkpt>
      <trkpt lat="46.88464" lon="8.53403">
        <ele>1816</ele>
        <time>2021-08-11T09:23:28.401Z</time>
      </trkpt>
      <trkpt lat="46.88464" lon="8.53402">
        <ele>1816</ele>
        <time>2021-08-11T09:23:29.401Z</time>
      </trkpt>
      <trkpt lat="46.88465" lon="8.53402">
        <ele>1816</ele>
        <time>2021-08-11T09:23:30.402Z</time>
      </trkpt>
      <trkpt lat="46.88465" lon="8.53402">
        <ele>1816</ele>
        <time>2021-08-11T09:23:31.402Z</time>
      </trkpt>
      <trkpt lat="46.88464" lon="8.53401">
        <ele>1816</ele>
        <time>2021-08-11T09:23:32.402Z</time>
      </trkpt>
      <trkpt lat="46.88464" lon="8.53401">
        <ele>1816</ele>
        <time>2021-08-11T09:23:33.402Z</time>
      </trkpt>
      <trkpt lat="46.88465" lon="8.53401">
        <ele>1809</ele>
        <time>2021-08-11T09:23:34.402Z</time>
      </trkpt>
      <trkpt lat="46.88464" lon="8.53401">
        <ele>1809</ele>
        <time>2021-08-11T09:23:35.402Z</time>
      </trkpt>
      <trkpt lat="46.88463" lon="8.534">
        <ele>1809</ele>
        <time>2021-08-11T09:23:36.401Z</time>
      </trkpt>
      <trkpt lat="46.88462" lon="8.534">
        <ele>1809</ele>
        <time>2021-08-11T09:23:37.402Z</time>
      </trkpt>
      <trkpt lat="46.88462" lon="8.534">
        <ele>1809</ele>
        <time>2021-08-11T09:23:38.401Z</time>
      </trkpt>
      <trkpt lat="46.88461" lon="8.53399">
        <ele>1810</ele>
        <time>2021-08-11T09:23:39.402Z</time>
      </trkpt>
      <trkpt lat="46.8846" lon="8.53399">
        <ele>1810</ele>
        <time>2021-08-11T09:23:40.401Z</time>
      </trkpt>
      <trkpt lat="46.88459" lon="8.53399">
        <ele>1810</ele>
        <time>2021-08-11T09:23:41.401Z</time>
      </trkpt>
      <trkpt lat="46.88458" lon="8.53399">
        <ele>1810</ele>
        <time>2021-08-11T09:23:42.402Z</time>
      </trkpt>
      <trkpt lat="46.88457" lon="8.53398">
        <ele>1810</ele>
        <time>2021-08-11T09:23:43.401Z</time>
      </trkpt>
      <trkpt lat="46.88456" lon="8.53398">
        <ele>1809</ele>
        <time>2021-08-11T09:23:44.401Z</time>
      </trkpt>
      <trkpt lat="46.88455" lon="8.53398">
        <ele>1809</ele>
        <time>2021-08-11T09:23:45.401Z</time>
      </trkpt>
      <trkpt lat="46.88455" lon="8.53398">
        <ele>1808</ele>
        <time>2021-08-11T09:23:46.401Z</time>
      </trkpt>
      <trkpt lat="46.88452" lon="8.53395">
        <ele>1806</ele>
        <time>2021-08-11T09:23:47.401Z</time>
      </trkpt>
      <trkpt lat="46.8845" lon="8.53394">
        <ele>1806</ele>
        <time>2021-08-11T09:23:48.401Z</time>
      </trkpt>
      <trkpt lat="46.8845" lon="8.53394">
        <ele>1806</ele>
        <time>2021-08-11T09:23:49.402Z</time>
      </trkpt>
      <trkpt lat="46.88448" lon="8.53392">
        <ele>1807</ele>
        <time>2021-08-11T09:23:50.402Z</time>
      </trkpt>
      <trkpt lat="46.88448" lon="8.53391">
        <ele>1807</ele>
        <time>2021-08-11T09:23:51.401Z</time>
      </trkpt>
      <trkpt lat="46.88448" lon="8.53391">
        <ele>1807</ele>
        <time>2021-08-11T09:23:52.401Z</time>
      </trkpt>
      <trkpt lat="46.88448" lon="8.5339">
        <ele>1807</ele>
        <time>2021-08-11T09:23:53.402Z</time>
      </trkpt>
      <trkpt lat="46.88447" lon="8.53389">
        <ele>1807</ele>
        <time>2021-08-11T09:23:54.402Z</time>
      </trkpt>
      <trkpt lat="46.88447" lon="8.5339">
        <ele>1807</ele>
        <time>2021-08-11T09:23:55.402Z</time>
      </trkpt>
      <trkpt lat="46.88448" lon="8.53391">
        <ele>1806</ele>
        <time>2021-08-11T09:23:56.403Z</time>
      </trkpt>
      <trkpt lat="46.88448" lon="8.53391">
        <ele>1806</ele>
        <time>2021-08-11T09:23:57.403Z</time>
      </trkpt>
      <trkpt lat="46.88448" lon="8.53391">
        <ele>1806</ele>
        <time>2021-08-11T09:23:58.402Z</time>
      </trkpt>
      <trkpt lat="46.88446" lon="8.5339">
        <ele>1804</ele>
        <time>2021-08-11T09:23:59.404Z</time>
      </trkpt>
      <trkpt lat="46.88446" lon="8.5339">
        <ele>1804</ele>
        <time>2021-08-11T09:24:00.404Z</time>
      </trkpt>
      <trkpt lat="46.88446" lon="8.53389">
        <ele>1804</ele>
        <time>2021-08-11T09:24:01.404Z</time>
      </trkpt>
      <trkpt lat="46.88445" lon="8.53389">
        <ele>1804</ele>
        <time>2021-08-11T09:24:02.404Z</time>
      </trkpt>
      <trkpt lat="46.88445" lon="8.53388">
        <ele>1804</ele>
        <time>2021-08-11T09:24:03.403Z</time>
      </trkpt>
      <trkpt lat="46.88445" lon="8.53388">
        <ele>1804</ele>
        <time>2021-08-11T09:24:04.403Z</time>
      </trkpt>
      <trkpt lat="46.88445" lon="8.53388">
        <ele>1804</ele>
        <time>2021-08-11T09:24:05.404Z</time>
      </trkpt>
      <trkpt lat="46.88445" lon="8.53387">
        <ele>1804</ele>
        <time>2021-08-11T09:24:06.404Z</time>
      </trkpt>
      <trkpt lat="46.88445" lon="8.53386">
        <ele>1804</ele>
        <time>2021-08-11T09:24:07.405Z</time>
      </trkpt>
      <trkpt lat="46.88445" lon="8.53385">
        <ele>1804</ele>
        <time>2021-08-11T09:24:08.405Z</time>
      </trkpt>
      <trkpt lat="46.88445" lon="8.53385">
        <ele>1804</ele>
        <time>2021-08-11T09:24:09.404Z</time>
      </trkpt>
      <trkpt lat="46.88445" lon="8.53385">
        <ele>1804</ele>
        <time>2021-08-11T09:24:10.405Z</time>
      </trkpt>
      <trkpt lat="46.88445" lon="8.53384">
        <ele>1803</ele>
        <time>2021-08-11T09:24:11.405Z</time>
      </trkpt>
      <trkpt lat="46.88445" lon="8.53383">
        <ele>1803</ele>
        <time>2021-08-11T09:24:12.404Z</time>
      </trkpt>
      <trkpt lat="46.88445" lon="8.53383">
        <ele>1803</ele>
        <time>2021-08-11T09:24:13.405Z</time>
      </trkpt>
      <trkpt lat="46.88445" lon="8.53382">
        <ele>1803</ele>
        <time>2021-08-11T09:24:14.405Z</time>
      </trkpt>
      <trkpt lat="46.88445" lon="8.53382">
        <ele>1803</ele>
        <time>2021-08-11T09:24:15.404Z</time>
      </trkpt>
      <trkpt lat="46.88444" lon="8.53381">
        <ele>1804</ele>
        <time>2021-08-11T09:24:16.405Z</time>
      </trkpt>
      <trkpt lat="46.88444" lon="8.53381">
        <ele>1804</ele>
        <time>2021-08-11T09:24:17.405Z</time>
      </trkpt>
      <trkpt lat="46.88444" lon="8.53381">
        <ele>1804</ele>
        <time>2021-08-11T09:24:18.404Z</time>
      </trkpt>
      <trkpt lat="46.88445" lon="8.5338">
        <ele>1803</ele>
        <time>2021-08-11T09:24:19.405Z</time>
      </trkpt>
      <trkpt lat="46.88445" lon="8.5338">
        <ele>1803</ele>
        <time>2021-08-11T09:24:20.404Z</time>
      </trkpt>
      <trkpt lat="46.88445" lon="8.5338">
        <ele>1803</ele>
        <time>2021-08-11T09:24:21.404Z</time>
      </trkpt>
      <trkpt lat="46.88445" lon="8.53379">
        <ele>1803</ele>
        <time>2021-08-11T09:24:22.404Z</time>
      </trkpt>
      <trkpt lat="46.88445" lon="8.53379">
        <ele>1803</ele>
        <time>2021-08-11T09:24:23.404Z</time>
      </trkpt>
      <trkpt lat="46.88444" lon="8.53378">
        <ele>1803</ele>
        <time>2021-08-11T09:24:24.405Z</time>
      </trkpt>
      <trkpt lat="46.88443" lon="8.53377">
        <ele>1803</ele>
        <time>2021-08-11T09:24:25.405Z</time>
      </trkpt>
      <trkpt lat="46.88443" lon="8.53377">
        <ele>1803</ele>
        <time>2021-08-11T09:24:26.405Z</time>
      </trkpt>
      <trkpt lat="46.88443" lon="8.53376">
        <ele>1802</ele>
        <time>2021-08-11T09:24:27.405Z</time>
      </trkpt>
      <trkpt lat="46.88443" lon="8.53376">
        <ele>1802</ele>
        <time>2021-08-11T09:24:28.405Z</time>
      </trkpt>
      <trkpt lat="46.88442" lon="8.53375">
        <ele>1802</ele>
        <time>2021-08-11T09:24:29.404Z</time>
      </trkpt>
      <trkpt lat="46.88441" lon="8.53374">
        <ele>1801</ele>
        <time>2021-08-11T09:24:30.405Z</time>
      </trkpt>
      <trkpt lat="46.88441" lon="8.53374">
        <ele>1801</ele>
        <time>2021-08-11T09:24:31.405Z</time>
      </trkpt>
      <trkpt lat="46.8844" lon="8.53373">
        <ele>1800</ele>
        <time>2021-08-11T09:24:32.404Z</time>
      </trkpt>
      <trkpt lat="46.8844" lon="8.53372">
        <ele>1799</ele>
        <time>2021-08-11T09:24:33.405Z</time>
      </trkpt>
      <trkpt lat="46.88439" lon="8.53372">
        <ele>1798</ele>
        <time>2021-08-11T09:24:34.405Z</time>
      </trkpt>
      <trkpt lat="46.88439" lon="8.53372">
        <ele>1797</ele>
        <time>2021-08-11T09:24:35.404Z</time>
      </trkpt>
      <trkpt lat="46.8844" lon="8.53372">
        <ele>1796</ele>
        <time>2021-08-11T09:24:36.405Z</time>
      </trkpt>
      <trkpt lat="46.8844" lon="8.53372">
        <ele>1795</ele>
        <time>2021-08-11T09:24:37.405Z</time>
      </trkpt>
      <trkpt lat="46.88441" lon="8.53373">
        <ele>1794</ele>
        <time>2021-08-11T09:24:38.405Z</time>
      </trkpt>
      <trkpt lat="46.88442" lon="8.53374">
        <ele>1794</ele>
        <time>2021-08-11T09:24:39.406Z</time>
      </trkpt>
      <trkpt lat="46.88443" lon="8.53374">
        <ele>1794</ele>
        <time>2021-08-11T09:24:40.406Z</time>
      </trkpt>
      <trkpt lat="46.88443" lon="8.53374">
        <ele>1794</ele>
        <time>2021-08-11T09:24:41.405Z</time>
      </trkpt>
      <trkpt lat="46.88444" lon="8.53374">
        <ele>1793</ele>
        <time>2021-08-11T09:24:42.405Z</time>
      </trkpt>
      <trkpt lat="46.88445" lon="8.53373">
        <ele>1793</ele>
        <time>2021-08-11T09:24:43.406Z</time>
      </trkpt>
      <trkpt lat="46.88445" lon="8.53373">
        <ele>1793</ele>
        <time>2021-08-11T09:24:44.406Z</time>
      </trkpt>
      <trkpt lat="46.88445" lon="8.53373">
        <ele>1792</ele>
        <time>2021-08-11T09:24:45.406Z</time>
      </trkpt>
      <trkpt lat="46.88448" lon="8.53368">
        <ele>1794</ele>
        <time>2021-08-11T09:24:46.407Z</time>
      </trkpt>
      <trkpt lat="46.88448" lon="8.53367">
        <ele>1795</ele>
        <time>2021-08-11T09:24:47.406Z</time>
      </trkpt>
      <trkpt lat="46.88448" lon="8.53367">
        <ele>1795</ele>
        <time>2021-08-11T09:24:48.406Z</time>
      </trkpt>
      <trkpt lat="46.88447" lon="8.53367">
        <ele>1794</ele>
        <time>2021-08-11T09:24:49.407Z</time>
      </trkpt>
      <trkpt lat="46.88447" lon="8.53367">
        <ele>1794</ele>
        <time>2021-08-11T09:24:50.406Z</time>
      </trkpt>
      <trkpt lat="46.88442" lon="8.5337">
        <ele>1790</ele>
        <time>2021-08-11T09:24:51.406Z</time>
      </trkpt>
      <trkpt lat="46.88441" lon="8.5337">
        <ele>1790</ele>
        <time>2021-08-11T09:24:52.407Z</time>
      </trkpt>
      <trkpt lat="46.88442" lon="8.5337">
        <ele>1790</ele>
        <time>2021-08-11T09:24:53.407Z</time>
      </trkpt>
      <trkpt lat="46.88442" lon="8.5337">
        <ele>1789</ele>
        <time>2021-08-11T09:24:54.407Z</time>
      </trkpt>
      <trkpt lat="46.88442" lon="8.5337">
        <ele>1789</ele>
        <time>2021-08-11T09:24:55.406Z</time>
      </trkpt>
      <trkpt lat="46.88442" lon="8.5337">
        <ele>1789</ele>
        <time>2021-08-11T09:24:56.406Z</time>
      </trkpt>
      <trkpt lat="46.88443" lon="8.5337">
        <ele>1790</ele>
        <time>2021-08-11T09:24:57.407Z</time>
      </trkpt>
      <trkpt lat="46.88443" lon="8.5337">
        <ele>1790</ele>
        <time>2021-08-11T09:24:58.406Z</time>
      </trkpt>
      <trkpt lat="46.88442" lon="8.5337">
        <ele>1791</ele>
        <time>2021-08-11T09:24:59.407Z</time>
      </trkpt>
      <trkpt lat="46.88442" lon="8.5337">
        <ele>1791</ele>
        <time>2021-08-11T09:25:00.407Z</time>
      </trkpt>
      <trkpt lat="46.88442" lon="8.53371">
        <ele>1790</ele>
        <time>2021-08-11T09:25:01.407Z</time>
      </trkpt>
      <trkpt lat="46.88442" lon="8.5337">
        <ele>1789</ele>
        <time>2021-08-11T09:25:02.406Z</time>
      </trkpt>
      <trkpt lat="46.88442" lon="8.53369">
        <ele>1789</ele>
        <time>2021-08-11T09:25:03.407Z</time>
      </trkpt>
      <trkpt lat="46.88442" lon="8.53369">
        <ele>1789</ele>
        <time>2021-08-11T09:25:04.406Z</time>
      </trkpt>
      <trkpt lat="46.88442" lon="8.53368">
        <ele>1789</ele>
        <time>2021-08-11T09:25:05.406Z</time>
      </trkpt>
      <trkpt lat="46.88442" lon="8.53367">
        <ele>1789</ele>
        <time>2021-08-11T09:25:06.407Z</time>
      </trkpt>
      <trkpt lat="46.88441" lon="8.53364">
        <ele>1788</ele>
        <time>2021-08-11T09:25:07.407Z</time>
      </trkpt>
      <trkpt lat="46.88441" lon="8.53363">
        <ele>1788</ele>
        <time>2021-08-11T09:25:08.407Z</time>
      </trkpt>
      <trkpt lat="46.88441" lon="8.53363">
        <ele>1788</ele>
        <time>2021-08-11T09:25:09.406Z</time>
      </trkpt>
      <trkpt lat="46.8844" lon="8.53361">
        <ele>1788</ele>
        <time>2021-08-11T09:25:10.407Z</time>
      </trkpt>
      <trkpt lat="46.8844" lon="8.53361">
        <ele>1789</ele>
        <time>2021-08-11T09:25:11.407Z</time>
      </trkpt>
      <trkpt lat="46.88439" lon="8.5336">
        <ele>1789</ele>
        <time>2021-08-11T09:25:12.407Z</time>
      </trkpt>
      <trkpt lat="46.88438" lon="8.53359">
        <ele>1789</ele>
        <time>2021-08-11T09:25:13.407Z</time>
      </trkpt>
      <trkpt lat="46.88438" lon="8.53359">
        <ele>1789</ele>
        <time>2021-08-11T09:25:14.407Z</time>
      </trkpt>
      <trkpt lat="46.88437" lon="8.53358">
        <ele>1789</ele>
        <time>2021-08-11T09:25:15.407Z</time>
      </trkpt>
      <trkpt lat="46.88437" lon="8.53358">
        <ele>1789</ele>
        <time>2021-08-11T09:25:16.407Z</time>
      </trkpt>
      <trkpt lat="46.88437" lon="8.53357">
        <ele>1789</ele>
        <time>2021-08-11T09:25:17.406Z</time>
      </trkpt>
      <trkpt lat="46.88437" lon="8.53356">
        <ele>1789</ele>
        <time>2021-08-11T09:25:18.407Z</time>
      </trkpt>
      <trkpt lat="46.88437" lon="8.53355">
        <ele>1790</ele>
        <time>2021-08-11T09:25:19.407Z</time>
      </trkpt>
      <trkpt lat="46.88437" lon="8.53353">
        <ele>1790</ele>
        <time>2021-08-11T09:25:20.406Z</time>
      </trkpt>
      <trkpt lat="46.88436" lon="8.53352">
        <ele>1790</ele>
        <time>2021-08-11T09:25:21.407Z</time>
      </trkpt>
      <trkpt lat="46.88436" lon="8.53351">
        <ele>1790</ele>
        <time>2021-08-11T09:25:22.407Z</time>
      </trkpt>
      <trkpt lat="46.88435" lon="8.53351">
        <ele>1791</ele>
        <time>2021-08-11T09:25:23.407Z</time>
      </trkpt>
      <trkpt lat="46.88434" lon="8.5335">
        <ele>1791</ele>
        <time>2021-08-11T09:25:24.407Z</time>
      </trkpt>
      <trkpt lat="46.88434" lon="8.5335">
        <ele>1791</ele>
        <time>2021-08-11T09:25:25.407Z</time>
      </trkpt>
      <trkpt lat="46.88434" lon="8.5335">
        <ele>1791</ele>
        <time>2021-08-11T09:25:26.407Z</time>
      </trkpt>
      <trkpt lat="46.88433" lon="8.5335">
        <ele>1791</ele>
        <time>2021-08-11T09:25:27.407Z</time>
      </trkpt>
      <trkpt lat="46.88433" lon="8.53349">
        <ele>1791</ele>
        <time>2021-08-11T09:25:28.407Z</time>
      </trkpt>
      <trkpt lat="46.88432" lon="8.53349">
        <ele>1791</ele>
        <time>2021-08-11T09:25:29.406Z</time>
      </trkpt>
      <trkpt lat="46.88432" lon="8.53349">
        <ele>1791</ele>
        <time>2021-08-11T09:25:30.407Z</time>
      </trkpt>
      <trkpt lat="46.88432" lon="8.53348">
        <ele>1791</ele>
        <time>2021-08-11T09:25:31.407Z</time>
      </trkpt>
      <trkpt lat="46.88431" lon="8.53348">
        <ele>1791</ele>
        <time>2021-08-11T09:25:32.406Z</time>
      </trkpt>
      <trkpt lat="46.8843" lon="8.53348">
        <ele>1791</ele>
        <time>2021-08-11T09:25:33.406Z</time>
      </trkpt>
      <trkpt lat="46.8843" lon="8.53348">
        <ele>1791</ele>
        <time>2021-08-11T09:25:34.407Z</time>
      </trkpt>
      <trkpt lat="46.88429" lon="8.53348">
        <ele>1791</ele>
        <time>2021-08-11T09:25:35.406Z</time>
      </trkpt>
      <trkpt lat="46.88429" lon="8.53347">
        <ele>1790</ele>
        <time>2021-08-11T09:25:36.407Z</time>
      </trkpt>
      <trkpt lat="46.88428" lon="8.53347">
        <ele>1790</ele>
        <time>2021-08-11T09:25:37.407Z</time>
      </trkpt>
      <trkpt lat="46.88428" lon="8.53346">
        <ele>1789</ele>
        <time>2021-08-11T09:25:38.406Z</time>
      </trkpt>
      <trkpt lat="46.88428" lon="8.53346">
        <ele>1789</ele>
        <time>2021-08-11T09:25:39.407Z</time>
      </trkpt>
      <trkpt lat="46.88427" lon="8.53345">
        <ele>1788</ele>
        <time>2021-08-11T09:25:40.406Z</time>
      </trkpt>
      <trkpt lat="46.88427" lon="8.53344">
        <ele>1788</ele>
        <time>2021-08-11T09:25:41.406Z</time>
      </trkpt>
      <trkpt lat="46.88428" lon="8.53343">
        <ele>1788</ele>
        <time>2021-08-11T09:25:42.407Z</time>
      </trkpt>
      <trkpt lat="46.88428" lon="8.53341">
        <ele>1787</ele>
        <time>2021-08-11T09:25:43.407Z</time>
      </trkpt>
      <trkpt lat="46.88429" lon="8.5334">
        <ele>1787</ele>
        <time>2021-08-11T09:25:44.406Z</time>
      </trkpt>
      <trkpt lat="46.88429" lon="8.5334">
        <ele>1786</ele>
        <time>2021-08-11T09:25:45.406Z</time>
      </trkpt>
      <trkpt lat="46.88429" lon="8.53339">
        <ele>1786</ele>
        <time>2021-08-11T09:25:46.407Z</time>
      </trkpt>
      <trkpt lat="46.88429" lon="8.53338">
        <ele>1785</ele>
        <time>2021-08-11T09:25:47.407Z</time>
      </trkpt>
      <trkpt lat="46.88429" lon="8.53337">
        <ele>1784</ele>
        <time>2021-08-11T09:25:48.407Z</time>
      </trkpt>
      <trkpt lat="46.88429" lon="8.53336">
        <ele>1784</ele>
        <time>2021-08-11T09:25:49.406Z</time>
      </trkpt>
      <trkpt lat="46.88428" lon="8.53336">
        <ele>1784</ele>
        <time>2021-08-11T09:25:50.407Z</time>
      </trkpt>
      <trkpt lat="46.88428" lon="8.53335">
        <ele>1784</ele>
        <time>2021-08-11T09:25:51.407Z</time>
      </trkpt>
      <trkpt lat="46.88428" lon="8.53335">
        <ele>1784</ele>
        <time>2021-08-11T09:25:52.406Z</time>
      </trkpt>
      <trkpt lat="46.88427" lon="8.53334">
        <ele>1784</ele>
        <time>2021-08-11T09:25:53.407Z</time>
      </trkpt>
      <trkpt lat="46.88427" lon="8.53333">
        <ele>1784</ele>
        <time>2021-08-11T09:25:54.406Z</time>
      </trkpt>
      <trkpt lat="46.88427" lon="8.53332">
        <ele>1784</ele>
        <time>2021-08-11T09:25:55.407Z</time>
      </trkpt>
      <trkpt lat="46.88427" lon="8.53331">
        <ele>1784</ele>
        <time>2021-08-11T09:25:56.407Z</time>
      </trkpt>
      <trkpt lat="46.88428" lon="8.5333">
        <ele>1784</ele>
        <time>2021-08-11T09:25:57.407Z</time>
      </trkpt>
      <trkpt lat="46.88428" lon="8.53329">
        <ele>1784</ele>
        <time>2021-08-11T09:25:58.407Z</time>
      </trkpt>
      <trkpt lat="46.88427" lon="8.53328">
        <ele>1784</ele>
        <time>2021-08-11T09:25:59.406Z</time>
      </trkpt>
      <trkpt lat="46.88427" lon="8.53327">
        <ele>1784</ele>
        <time>2021-08-11T09:26:00.407Z</time>
      </trkpt>
      <trkpt lat="46.88427" lon="8.53326">
        <ele>1784</ele>
        <time>2021-08-11T09:26:01.406Z</time>
      </trkpt>
      <trkpt lat="46.88427" lon="8.53325">
        <ele>1784</ele>
        <time>2021-08-11T09:26:02.407Z</time>
      </trkpt>
      <trkpt lat="46.88427" lon="8.53325">
        <ele>1784</ele>
        <time>2021-08-11T09:26:03.407Z</time>
      </trkpt>
      <trkpt lat="46.88427" lon="8.53325">
        <ele>1784</ele>
        <time>2021-08-11T09:26:04.407Z</time>
      </trkpt>
      <trkpt lat="46.88427" lon="8.53324">
        <ele>1783</ele>
        <time>2021-08-11T09:26:05.407Z</time>
      </trkpt>
      <trkpt lat="46.88426" lon="8.53324">
        <ele>1783</ele>
        <time>2021-08-11T09:26:06.407Z</time>
      </trkpt>
      <trkpt lat="46.88426" lon="8.53323">
        <ele>1783</ele>
        <time>2021-08-11T09:26:07.407Z</time>
      </trkpt>
      <trkpt lat="46.88426" lon="8.53323">
        <ele>1783</ele>
        <time>2021-08-11T09:26:08.407Z</time>
      </trkpt>
      <trkpt lat="46.88426" lon="8.53322">
        <ele>1783</ele>
        <time>2021-08-11T09:26:09.407Z</time>
      </trkpt>
      <trkpt lat="46.88426" lon="8.53322">
        <ele>1782</ele>
        <time>2021-08-11T09:26:10.406Z</time>
      </trkpt>
      <trkpt lat="46.88426" lon="8.53321">
        <ele>1782</ele>
        <time>2021-08-11T09:26:11.406Z</time>
      </trkpt>
      <trkpt lat="46.88426" lon="8.5332">
        <ele>1781</ele>
        <time>2021-08-11T09:26:12.407Z</time>
      </trkpt>
      <trkpt lat="46.88425" lon="8.53319">
        <ele>1781</ele>
        <time>2021-08-11T09:26:13.407Z</time>
      </trkpt>
      <trkpt lat="46.88425" lon="8.53318">
        <ele>1781</ele>
        <time>2021-08-11T09:26:14.406Z</time>
      </trkpt>
      <trkpt lat="46.88425" lon="8.53318">
        <ele>1781</ele>
        <time>2021-08-11T09:26:15.407Z</time>
      </trkpt>
      <trkpt lat="46.88425" lon="8.53317">
        <ele>1780</ele>
        <time>2021-08-11T09:26:16.407Z</time>
      </trkpt>
      <trkpt lat="46.88424" lon="8.53316">
        <ele>1780</ele>
        <time>2021-08-11T09:26:17.407Z</time>
      </trkpt>
      <trkpt lat="46.88424" lon="8.53315">
        <ele>1780</ele>
        <time>2021-08-11T09:26:18.406Z</time>
      </trkpt>
      <trkpt lat="46.88424" lon="8.53315">
        <ele>1780</ele>
        <time>2021-08-11T09:26:19.406Z</time>
      </trkpt>
      <trkpt lat="46.88424" lon="8.53312">
        <ele>1780</ele>
        <time>2021-08-11T09:26:20.407Z</time>
      </trkpt>
      <trkpt lat="46.88424" lon="8.53312">
        <ele>1780</ele>
        <time>2021-08-11T09:26:21.407Z</time>
      </trkpt>
      <trkpt lat="46.88424" lon="8.53311">
        <ele>1780</ele>
        <time>2021-08-11T09:26:22.407Z</time>
      </trkpt>
      <trkpt lat="46.88424" lon="8.53311">
        <ele>1779</ele>
        <time>2021-08-11T09:26:23.407Z</time>
      </trkpt>
      <trkpt lat="46.88424" lon="8.53311">
        <ele>1779</ele>
        <time>2021-08-11T09:26:24.406Z</time>
      </trkpt>
      <trkpt lat="46.88424" lon="8.5331">
        <ele>1779</ele>
        <time>2021-08-11T09:26:25.406Z</time>
      </trkpt>
      <trkpt lat="46.88424" lon="8.53309">
        <ele>1779</ele>
        <time>2021-08-11T09:26:26.406Z</time>
      </trkpt>
      <trkpt lat="46.88423" lon="8.53308">
        <ele>1779</ele>
        <time>2021-08-11T09:26:27.406Z</time>
      </trkpt>
      <trkpt lat="46.88423" lon="8.53308">
        <ele>1779</ele>
        <time>2021-08-11T09:26:28.407Z</time>
      </trkpt>
      <trkpt lat="46.88422" lon="8.53308">
        <ele>1779</ele>
        <time>2021-08-11T09:26:29.407Z</time>
      </trkpt>
      <trkpt lat="46.88421" lon="8.53307">
        <ele>1780</ele>
        <time>2021-08-11T09:26:30.406Z</time>
      </trkpt>
      <trkpt lat="46.8842" lon="8.53307">
        <ele>1780</ele>
        <time>2021-08-11T09:26:31.407Z</time>
      </trkpt>
      <trkpt lat="46.8842" lon="8.53306">
        <ele>1780</ele>
        <time>2021-08-11T09:26:32.406Z</time>
      </trkpt>
      <trkpt lat="46.8842" lon="8.53306">
        <ele>1780</ele>
        <time>2021-08-11T09:26:33.407Z</time>
      </trkpt>
      <trkpt lat="46.8842" lon="8.53305">
        <ele>1780</ele>
        <time>2021-08-11T09:26:34.407Z</time>
      </trkpt>
      <trkpt lat="46.8842" lon="8.53305">
        <ele>1780</ele>
        <time>2021-08-11T09:26:35.407Z</time>
      </trkpt>
      <trkpt lat="46.8842" lon="8.53304">
        <ele>1780</ele>
        <time>2021-08-11T09:26:36.407Z</time>
      </trkpt>
      <trkpt lat="46.8842" lon="8.53304">
        <ele>1780</ele>
        <time>2021-08-11T09:26:37.407Z</time>
      </trkpt>
      <trkpt lat="46.88421" lon="8.53304">
        <ele>1779</ele>
        <time>2021-08-11T09:26:38.407Z</time>
      </trkpt>
      <trkpt lat="46.88419" lon="8.53302">
        <ele>1778</ele>
        <time>2021-08-11T09:26:39.408Z</time>
      </trkpt>
      <trkpt lat="46.88419" lon="8.53301">
        <ele>1778</ele>
        <time>2021-08-11T09:26:40.408Z</time>
      </trkpt>
      <trkpt lat="46.88419" lon="8.533">
        <ele>1778</ele>
        <time>2021-08-11T09:26:41.408Z</time>
      </trkpt>
      <trkpt lat="46.88418" lon="8.53299">
        <ele>1778</ele>
        <time>2021-08-11T09:26:42.408Z</time>
      </trkpt>
      <trkpt lat="46.88418" lon="8.53299">
        <ele>1778</ele>
        <time>2021-08-11T09:26:43.408Z</time>
      </trkpt>
      <trkpt lat="46.88418" lon="8.53298">
        <ele>1778</ele>
        <time>2021-08-11T09:26:44.409Z</time>
      </trkpt>
      <trkpt lat="46.88417" lon="8.53298">
        <ele>1777</ele>
        <time>2021-08-11T09:26:45.408Z</time>
      </trkpt>
      <trkpt lat="46.88417" lon="8.53297">
        <ele>1777</ele>
        <time>2021-08-11T09:26:46.408Z</time>
      </trkpt>
      <trkpt lat="46.88416" lon="8.53297">
        <ele>1777</ele>
        <time>2021-08-11T09:26:47.409Z</time>
      </trkpt>
      <trkpt lat="46.88416" lon="8.53296">
        <ele>1776</ele>
        <time>2021-08-11T09:26:48.408Z</time>
      </trkpt>
      <trkpt lat="46.88416" lon="8.53296">
        <ele>1776</ele>
        <time>2021-08-11T09:26:49.408Z</time>
      </trkpt>
      <trkpt lat="46.88416" lon="8.53295">
        <ele>1776</ele>
        <time>2021-08-11T09:26:50.408Z</time>
      </trkpt>
      <trkpt lat="46.88416" lon="8.53294">
        <ele>1775</ele>
        <time>2021-08-11T09:26:51.408Z</time>
      </trkpt>
      <trkpt lat="46.88416" lon="8.53294">
        <ele>1775</ele>
        <time>2021-08-11T09:26:52.408Z</time>
      </trkpt>
      <trkpt lat="46.88416" lon="8.53293">
        <ele>1774</ele>
        <time>2021-08-11T09:26:53.408Z</time>
      </trkpt>
      <trkpt lat="46.88416" lon="8.53292">
        <ele>1774</ele>
        <time>2021-08-11T09:26:54.409Z</time>
      </trkpt>
      <trkpt lat="46.88416" lon="8.53291">
        <ele>1773</ele>
        <time>2021-08-11T09:26:55.409Z</time>
      </trkpt>
      <trkpt lat="46.88417" lon="8.5329">
        <ele>1773</ele>
        <time>2021-08-11T09:26:56.408Z</time>
      </trkpt>
      <trkpt lat="46.88417" lon="8.5329">
        <ele>1773</ele>
        <time>2021-08-11T09:26:57.409Z</time>
      </trkpt>
      <trkpt lat="46.88416" lon="8.53289">
        <ele>1773</ele>
        <time>2021-08-11T09:26:58.408Z</time>
      </trkpt>
      <trkpt lat="46.88416" lon="8.53288">
        <ele>1773</ele>
        <time>2021-08-11T09:26:59.409Z</time>
      </trkpt>
      <trkpt lat="46.88415" lon="8.53287">
        <ele>1773</ele>
        <time>2021-08-11T09:27:00.408Z</time>
      </trkpt>
      <trkpt lat="46.88415" lon="8.53286">
        <ele>1773</ele>
        <time>2021-08-11T09:27:01.408Z</time>
      </trkpt>
      <trkpt lat="46.88415" lon="8.53285">
        <ele>1773</ele>
        <time>2021-08-11T09:27:02.408Z</time>
      </trkpt>
      <trkpt lat="46.88414" lon="8.53284">
        <ele>1773</ele>
        <time>2021-08-11T09:27:03.408Z</time>
      </trkpt>
      <trkpt lat="46.88414" lon="8.53284">
        <ele>1772</ele>
        <time>2021-08-11T09:27:04.408Z</time>
      </trkpt>
      <trkpt lat="46.88414" lon="8.53283">
        <ele>1772</ele>
        <time>2021-08-11T09:27:05.408Z</time>
      </trkpt>
      <trkpt lat="46.88414" lon="8.53283">
        <ele>1771</ele>
        <time>2021-08-11T09:27:06.408Z</time>
      </trkpt>
      <trkpt lat="46.88414" lon="8.53282">
        <ele>1771</ele>
        <time>2021-08-11T09:27:07.408Z</time>
      </trkpt>
      <trkpt lat="46.88414" lon="8.53282">
        <ele>1771</ele>
        <time>2021-08-11T09:27:08.408Z</time>
      </trkpt>
      <trkpt lat="46.88413" lon="8.53281">
        <ele>1771</ele>
        <time>2021-08-11T09:27:09.410Z</time>
      </trkpt>
      <trkpt lat="46.88413" lon="8.5328">
        <ele>1771</ele>
        <time>2021-08-11T09:27:10.409Z</time>
      </trkpt>
      <trkpt lat="46.88413" lon="8.53279">
        <ele>1771</ele>
        <time>2021-08-11T09:27:11.409Z</time>
      </trkpt>
      <trkpt lat="46.88413" lon="8.53279">
        <ele>1770</ele>
        <time>2021-08-11T09:27:12.409Z</time>
      </trkpt>
      <trkpt lat="46.88412" lon="8.53279">
        <ele>1769</ele>
        <time>2021-08-11T09:27:13.410Z</time>
      </trkpt>
      <trkpt lat="46.88411" lon="8.53279">
        <ele>1769</ele>
        <time>2021-08-11T09:27:14.410Z</time>
      </trkpt>
      <trkpt lat="46.88411" lon="8.53279">
        <ele>1769</ele>
        <time>2021-08-11T09:27:15.410Z</time>
      </trkpt>
      <trkpt lat="46.88412" lon="8.53278">
        <ele>1768</ele>
        <time>2021-08-11T09:27:16.410Z</time>
      </trkpt>
      <trkpt lat="46.88413" lon="8.53278">
        <ele>1768</ele>
        <time>2021-08-11T09:27:17.409Z</time>
      </trkpt>
      <trkpt lat="46.88413" lon="8.53277">
        <ele>1768</ele>
        <time>2021-08-11T09:27:18.410Z</time>
      </trkpt>
      <trkpt lat="46.88412" lon="8.53277">
        <ele>1767</ele>
        <time>2021-08-11T09:27:19.412Z</time>
      </trkpt>
      <trkpt lat="46.88412" lon="8.53277">
        <ele>1767</ele>
        <time>2021-08-11T09:27:20.412Z</time>
      </trkpt>
      <trkpt lat="46.88412" lon="8.53277">
        <ele>1766</ele>
        <time>2021-08-11T09:27:21.411Z</time>
      </trkpt>
      <trkpt lat="46.88411" lon="8.53276">
        <ele>1766</ele>
        <time>2021-08-11T09:27:22.411Z</time>
      </trkpt>
      <trkpt lat="46.88411" lon="8.53276">
        <ele>1766</ele>
        <time>2021-08-11T09:27:23.411Z</time>
      </trkpt>
      <trkpt lat="46.88411" lon="8.53274">
        <ele>1765</ele>
        <time>2021-08-11T09:27:24.412Z</time>
      </trkpt>
      <trkpt lat="46.88411" lon="8.53273">
        <ele>1765</ele>
        <time>2021-08-11T09:27:25.413Z</time>
      </trkpt>
      <trkpt lat="46.88411" lon="8.53272">
        <ele>1766</ele>
        <time>2021-08-11T09:27:26.413Z</time>
      </trkpt>
      <trkpt lat="46.88411" lon="8.53271">
        <ele>1766</ele>
        <time>2021-08-11T09:27:27.413Z</time>
      </trkpt>
      <trkpt lat="46.88411" lon="8.5327">
        <ele>1766</ele>
        <time>2021-08-11T09:27:28.412Z</time>
      </trkpt>
      <trkpt lat="46.88411" lon="8.5327">
        <ele>1766</ele>
        <time>2021-08-11T09:27:29.413Z</time>
      </trkpt>
      <trkpt lat="46.88412" lon="8.5327">
        <ele>1766</ele>
        <time>2021-08-11T09:27:30.413Z</time>
      </trkpt>
      <trkpt lat="46.88412" lon="8.53269">
        <ele>1766</ele>
        <time>2021-08-11T09:27:31.414Z</time>
      </trkpt>
      <trkpt lat="46.88412" lon="8.53268">
        <ele>1765</ele>
        <time>2021-08-11T09:27:32.414Z</time>
      </trkpt>
      <trkpt lat="46.88412" lon="8.53267">
        <ele>1765</ele>
        <time>2021-08-11T09:27:33.413Z</time>
      </trkpt>
      <trkpt lat="46.88412" lon="8.53266">
        <ele>1765</ele>
        <time>2021-08-11T09:27:34.413Z</time>
      </trkpt>
      <trkpt lat="46.88412" lon="8.53266">
        <ele>1765</ele>
        <time>2021-08-11T09:27:35.414Z</time>
      </trkpt>
      <trkpt lat="46.88412" lon="8.53265">
        <ele>1764</ele>
        <time>2021-08-11T09:27:36.413Z</time>
      </trkpt>
      <trkpt lat="46.88412" lon="8.53265">
        <ele>1764</ele>
        <time>2021-08-11T09:27:37.413Z</time>
      </trkpt>
      <trkpt lat="46.88412" lon="8.53265">
        <ele>1764</ele>
        <time>2021-08-11T09:27:38.414Z</time>
      </trkpt>
      <trkpt lat="46.88413" lon="8.53264">
        <ele>1764</ele>
        <time>2021-08-11T09:27:39.414Z</time>
      </trkpt>
      <trkpt lat="46.88413" lon="8.53263">
        <ele>1764</ele>
        <time>2021-08-11T09:27:40.413Z</time>
      </trkpt>
      <trkpt lat="46.88413" lon="8.53263">
        <ele>1764</ele>
        <time>2021-08-11T09:27:41.414Z</time>
      </trkpt>
      <trkpt lat="46.88412" lon="8.53261">
        <ele>1763</ele>
        <time>2021-08-11T09:27:42.414Z</time>
      </trkpt>
      <trkpt lat="46.88412" lon="8.53261">
        <ele>1762</ele>
        <time>2021-08-11T09:27:43.414Z</time>
      </trkpt>
      <trkpt lat="46.88412" lon="8.5326">
        <ele>1762</ele>
        <time>2021-08-11T09:27:44.414Z</time>
      </trkpt>
      <trkpt lat="46.88412" lon="8.5326">
        <ele>1762</ele>
        <time>2021-08-11T09:27:45.415Z</time>
      </trkpt>
      <trkpt lat="46.88411" lon="8.53258">
        <ele>1762</ele>
        <time>2021-08-11T09:27:46.416Z</time>
      </trkpt>
      <trkpt lat="46.88411" lon="8.53258">
        <ele>1762</ele>
        <time>2021-08-11T09:27:47.415Z</time>
      </trkpt>
      <trkpt lat="46.88411" lon="8.53257">
        <ele>1762</ele>
        <time>2021-08-11T09:27:48.415Z</time>
      </trkpt>
      <trkpt lat="46.8841" lon="8.53257">
        <ele>1762</ele>
        <time>2021-08-11T09:27:49.416Z</time>
      </trkpt>
      <trkpt lat="46.8841" lon="8.53256">
        <ele>1761</ele>
        <time>2021-08-11T09:27:50.416Z</time>
      </trkpt>
      <trkpt lat="46.8841" lon="8.53256">
        <ele>1761</ele>
        <time>2021-08-11T09:27:51.416Z</time>
      </trkpt>
      <trkpt lat="46.8841" lon="8.53255">
        <ele>1760</ele>
        <time>2021-08-11T09:27:52.416Z</time>
      </trkpt>
      <trkpt lat="46.8841" lon="8.53254">
        <ele>1760</ele>
        <time>2021-08-11T09:27:53.416Z</time>
      </trkpt>
      <trkpt lat="46.8841" lon="8.53254">
        <ele>1759</ele>
        <time>2021-08-11T09:27:54.416Z</time>
      </trkpt>
      <trkpt lat="46.88409" lon="8.53253">
        <ele>1759</ele>
        <time>2021-08-11T09:27:55.416Z</time>
      </trkpt>
      <trkpt lat="46.8841" lon="8.53252">
        <ele>1759</ele>
        <time>2021-08-11T09:27:56.416Z</time>
      </trkpt>
      <trkpt lat="46.88409" lon="8.53251">
        <ele>1759</ele>
        <time>2021-08-11T09:27:57.416Z</time>
      </trkpt>
      <trkpt lat="46.88409" lon="8.53251">
        <ele>1759</ele>
        <time>2021-08-11T09:27:58.416Z</time>
      </trkpt>
      <trkpt lat="46.88409" lon="8.5325">
        <ele>1759</ele>
        <time>2021-08-11T09:27:59.415Z</time>
      </trkpt>
      <trkpt lat="46.88409" lon="8.53249">
        <ele>1758</ele>
        <time>2021-08-11T09:28:00.416Z</time>
      </trkpt>
      <trkpt lat="46.88409" lon="8.53248">
        <ele>1758</ele>
        <time>2021-08-11T09:28:01.415Z</time>
      </trkpt>
      <trkpt lat="46.88409" lon="8.53246">
        <ele>1758</ele>
        <time>2021-08-11T09:28:02.416Z</time>
      </trkpt>
      <trkpt lat="46.88408" lon="8.53244">
        <ele>1757</ele>
        <time>2021-08-11T09:28:03.415Z</time>
      </trkpt>
      <trkpt lat="46.88408" lon="8.53243">
        <ele>1757</ele>
        <time>2021-08-11T09:28:04.416Z</time>
      </trkpt>
      <trkpt lat="46.88408" lon="8.53242">
        <ele>1758</ele>
        <time>2021-08-11T09:28:05.416Z</time>
      </trkpt>
      <trkpt lat="46.88408" lon="8.53241">
        <ele>1758</ele>
        <time>2021-08-11T09:28:06.415Z</time>
      </trkpt>
      <trkpt lat="46.88408" lon="8.5324">
        <ele>1758</ele>
        <time>2021-08-11T09:28:07.415Z</time>
      </trkpt>
      <trkpt lat="46.88407" lon="8.53239">
        <ele>1759</ele>
        <time>2021-08-11T09:28:08.416Z</time>
      </trkpt>
      <trkpt lat="46.88407" lon="8.53239">
        <ele>1759</ele>
        <time>2021-08-11T09:28:09.416Z</time>
      </trkpt>
      <trkpt lat="46.88406" lon="8.53239">
        <ele>1759</ele>
        <time>2021-08-11T09:28:10.415Z</time>
      </trkpt>
      <trkpt lat="46.88405" lon="8.53238">
        <ele>1760</ele>
        <time>2021-08-11T09:28:11.416Z</time>
      </trkpt>
      <trkpt lat="46.88404" lon="8.53238">
        <ele>1760</ele>
        <time>2021-08-11T09:28:12.415Z</time>
      </trkpt>
      <trkpt lat="46.88403" lon="8.53238">
        <ele>1761</ele>
        <time>2021-08-11T09:28:13.416Z</time>
      </trkpt>
      <trkpt lat="46.88403" lon="8.53237">
        <ele>1761</ele>
        <time>2021-08-11T09:28:14.416Z</time>
      </trkpt>
      <trkpt lat="46.88403" lon="8.53237">
        <ele>1762</ele>
        <time>2021-08-11T09:28:15.416Z</time>
      </trkpt>
      <trkpt lat="46.88402" lon="8.53236">
        <ele>1762</ele>
        <time>2021-08-11T09:28:16.416Z</time>
      </trkpt>
      <trkpt lat="46.88402" lon="8.53236">
        <ele>1763</ele>
        <time>2021-08-11T09:28:17.416Z</time>
      </trkpt>
      <trkpt lat="46.88401" lon="8.53235">
        <ele>1763</ele>
        <time>2021-08-11T09:28:18.416Z</time>
      </trkpt>
      <trkpt lat="46.884" lon="8.53235">
        <ele>1763</ele>
        <time>2021-08-11T09:28:19.415Z</time>
      </trkpt>
      <trkpt lat="46.88399" lon="8.53234">
        <ele>1763</ele>
        <time>2021-08-11T09:28:20.416Z</time>
      </trkpt>
      <trkpt lat="46.88399" lon="8.53234">
        <ele>1763</ele>
        <time>2021-08-11T09:28:21.416Z</time>
      </trkpt>
      <trkpt lat="46.88398" lon="8.53234">
        <ele>1763</ele>
        <time>2021-08-11T09:28:22.416Z</time>
      </trkpt>
      <trkpt lat="46.88397" lon="8.53233">
        <ele>1763</ele>
        <time>2021-08-11T09:28:23.416Z</time>
      </trkpt>
      <trkpt lat="46.88396" lon="8.53234">
        <ele>1762</ele>
        <time>2021-08-11T09:28:24.416Z</time>
      </trkpt>
      <trkpt lat="46.88395" lon="8.53234">
        <ele>1762</ele>
        <time>2021-08-11T09:28:25.416Z</time>
      </trkpt>
      <trkpt lat="46.88395" lon="8.53234">
        <ele>1762</ele>
        <time>2021-08-11T09:28:26.416Z</time>
      </trkpt>
      <trkpt lat="46.88395" lon="8.53234">
        <ele>1762</ele>
        <time>2021-08-11T09:28:27.416Z</time>
      </trkpt>
      <trkpt lat="46.88394" lon="8.53233">
        <ele>1762</ele>
        <time>2021-08-11T09:28:28.415Z</time>
      </trkpt>
      <trkpt lat="46.88394" lon="8.53232">
        <ele>1762</ele>
        <time>2021-08-11T09:28:29.415Z</time>
      </trkpt>
      <trkpt lat="46.88393" lon="8.53232">
        <ele>1762</ele>
        <time>2021-08-11T09:28:30.416Z</time>
      </trkpt>
      <trkpt lat="46.88393" lon="8.53231">
        <ele>1762</ele>
        <time>2021-08-11T09:28:31.416Z</time>
      </trkpt>
      <trkpt lat="46.88392" lon="8.53231">
        <ele>1762</ele>
        <time>2021-08-11T09:28:32.416Z</time>
      </trkpt>
      <trkpt lat="46.88392" lon="8.53231">
        <ele>1762</ele>
        <time>2021-08-11T09:28:33.416Z</time>
      </trkpt>
      <trkpt lat="46.88391" lon="8.5323">
        <ele>1762</ele>
        <time>2021-08-11T09:28:34.415Z</time>
      </trkpt>
      <trkpt lat="46.8839" lon="8.53229">
        <ele>1762</ele>
        <time>2021-08-11T09:28:35.416Z</time>
      </trkpt>
      <trkpt lat="46.88389" lon="8.53229">
        <ele>1762</ele>
        <time>2021-08-11T09:28:36.416Z</time>
      </trkpt>
      <trkpt lat="46.88388" lon="8.53229">
        <ele>1762</ele>
        <time>2021-08-11T09:28:37.416Z</time>
      </trkpt>
      <trkpt lat="46.88386" lon="8.53229">
        <ele>1762</ele>
        <time>2021-08-11T09:28:38.416Z</time>
      </trkpt>
      <trkpt lat="46.88385" lon="8.53228">
        <ele>1762</ele>
        <time>2021-08-11T09:28:39.415Z</time>
      </trkpt>
      <trkpt lat="46.88384" lon="8.53228">
        <ele>1762</ele>
        <time>2021-08-11T09:28:40.415Z</time>
      </trkpt>
      <trkpt lat="46.88383" lon="8.53228">
        <ele>1762</ele>
        <time>2021-08-11T09:28:41.416Z</time>
      </trkpt>
      <trkpt lat="46.88382" lon="8.53227">
        <ele>1762</ele>
        <time>2021-08-11T09:28:42.415Z</time>
      </trkpt>
      <trkpt lat="46.88382" lon="8.53227">
        <ele>1762</ele>
        <time>2021-08-11T09:28:43.415Z</time>
      </trkpt>
      <trkpt lat="46.88382" lon="8.53227">
        <ele>1762</ele>
        <time>2021-08-11T09:28:44.416Z</time>
      </trkpt>
      <trkpt lat="46.88381" lon="8.53227">
        <ele>1762</ele>
        <time>2021-08-11T09:28:45.416Z</time>
      </trkpt>
      <trkpt lat="46.8838" lon="8.53227">
        <ele>1762</ele>
        <time>2021-08-11T09:28:46.416Z</time>
      </trkpt>
      <trkpt lat="46.88379" lon="8.53227">
        <ele>1762</ele>
        <time>2021-08-11T09:28:47.416Z</time>
      </trkpt>
      <trkpt lat="46.88378" lon="8.53228">
        <ele>1762</ele>
        <time>2021-08-11T09:28:48.415Z</time>
      </trkpt>
      <trkpt lat="46.88378" lon="8.53228">
        <ele>1762</ele>
        <time>2021-08-11T09:28:49.416Z</time>
      </trkpt>
      <trkpt lat="46.88379" lon="8.53229">
        <ele>1762</ele>
        <time>2021-08-11T09:28:50.416Z</time>
      </trkpt>
      <trkpt lat="46.88378" lon="8.53229">
        <ele>1762</ele>
        <time>2021-08-11T09:28:51.416Z</time>
      </trkpt>
      <trkpt lat="46.88378" lon="8.53229">
        <ele>1763</ele>
        <time>2021-08-11T09:28:52.416Z</time>
      </trkpt>
      <trkpt lat="46.88377" lon="8.53228">
        <ele>1763</ele>
        <time>2021-08-11T09:28:53.415Z</time>
      </trkpt>
      <trkpt lat="46.88377" lon="8.53228">
        <ele>1763</ele>
        <time>2021-08-11T09:28:54.416Z</time>
      </trkpt>
      <trkpt lat="46.88377" lon="8.53228">
        <ele>1763</ele>
        <time>2021-08-11T09:28:55.416Z</time>
      </trkpt>
      <trkpt lat="46.88376" lon="8.53229">
        <ele>1763</ele>
        <time>2021-08-11T09:28:56.415Z</time>
      </trkpt>
      <trkpt lat="46.88376" lon="8.53229">
        <ele>1763</ele>
        <time>2021-08-11T09:28:57.416Z</time>
      </trkpt>
      <trkpt lat="46.88375" lon="8.53228">
        <ele>1763</ele>
        <time>2021-08-11T09:28:58.416Z</time>
      </trkpt>
      <trkpt lat="46.88374" lon="8.53228">
        <ele>1762</ele>
        <time>2021-08-11T09:28:59.415Z</time>
      </trkpt>
      <trkpt lat="46.88374" lon="8.53228">
        <ele>1762</ele>
        <time>2021-08-11T09:29:00.416Z</time>
      </trkpt>
      <trkpt lat="46.88373" lon="8.53229">
        <ele>1762</ele>
        <time>2021-08-11T09:29:01.415Z</time>
      </trkpt>
      <trkpt lat="46.88372" lon="8.53229">
        <ele>1761</ele>
        <time>2021-08-11T09:29:02.416Z</time>
      </trkpt>
      <trkpt lat="46.88372" lon="8.53229">
        <ele>1760</ele>
        <time>2021-08-11T09:29:03.416Z</time>
      </trkpt>
      <trkpt lat="46.88371" lon="8.53229">
        <ele>1760</ele>
        <time>2021-08-11T09:29:04.416Z</time>
      </trkpt>
      <trkpt lat="46.8837" lon="8.53228">
        <ele>1759</ele>
        <time>2021-08-11T09:29:05.416Z</time>
      </trkpt>
      <trkpt lat="46.88368" lon="8.53228">
        <ele>1758</ele>
        <time>2021-08-11T09:29:06.415Z</time>
      </trkpt>
      <trkpt lat="46.88368" lon="8.53228">
        <ele>1758</ele>
        <time>2021-08-11T09:29:07.416Z</time>
      </trkpt>
      <trkpt lat="46.88367" lon="8.53228">
        <ele>1757</ele>
        <time>2021-08-11T09:29:08.416Z</time>
      </trkpt>
      <trkpt lat="46.88366" lon="8.53227">
        <ele>1756</ele>
        <time>2021-08-11T09:29:09.415Z</time>
      </trkpt>
      <trkpt lat="46.88365" lon="8.53227">
        <ele>1755</ele>
        <time>2021-08-11T09:29:10.416Z</time>
      </trkpt>
      <trkpt lat="46.88365" lon="8.53227">
        <ele>1755</ele>
        <time>2021-08-11T09:29:11.416Z</time>
      </trkpt>
      <trkpt lat="46.88365" lon="8.53227">
        <ele>1754</ele>
        <time>2021-08-11T09:29:12.416Z</time>
      </trkpt>
      <trkpt lat="46.88364" lon="8.53227">
        <ele>1753</ele>
        <time>2021-08-11T09:29:13.415Z</time>
      </trkpt>
      <trkpt lat="46.88364" lon="8.53227">
        <ele>1752</ele>
        <time>2021-08-11T09:29:14.416Z</time>
      </trkpt>
      <trkpt lat="46.88363" lon="8.53225">
        <ele>1752</ele>
        <time>2021-08-11T09:29:15.416Z</time>
      </trkpt>
      <trkpt lat="46.88362" lon="8.53225">
        <ele>1751</ele>
        <time>2021-08-11T09:29:16.416Z</time>
      </trkpt>
      <trkpt lat="46.88361" lon="8.53224">
        <ele>1751</ele>
        <time>2021-08-11T09:29:17.416Z</time>
      </trkpt>
      <trkpt lat="46.88361" lon="8.53223">
        <ele>1750</ele>
        <time>2021-08-11T09:29:18.415Z</time>
      </trkpt>
      <trkpt lat="46.88361" lon="8.53222">
        <ele>1750</ele>
        <time>2021-08-11T09:29:19.416Z</time>
      </trkpt>
      <trkpt lat="46.88361" lon="8.53222">
        <ele>1750</ele>
        <time>2021-08-11T09:29:20.415Z</time>
      </trkpt>
      <trkpt lat="46.88361" lon="8.53221">
        <ele>1750</ele>
        <time>2021-08-11T09:29:21.415Z</time>
      </trkpt>
      <trkpt lat="46.88361" lon="8.53219">
        <ele>1747</ele>
        <time>2021-08-11T09:29:22.416Z</time>
      </trkpt>
      <trkpt lat="46.88353" lon="8.53219">
        <ele>1741</ele>
        <time>2021-08-11T09:29:23.415Z</time>
      </trkpt>
      <trkpt lat="46.88353" lon="8.53219">
        <ele>1740</ele>
        <time>2021-08-11T09:29:24.416Z</time>
      </trkpt>
      <trkpt lat="46.88352" lon="8.53219">
        <ele>1740</ele>
        <time>2021-08-11T09:29:25.415Z</time>
      </trkpt>
      <trkpt lat="46.88352" lon="8.53217">
        <ele>1740</ele>
        <time>2021-08-11T09:29:26.415Z</time>
      </trkpt>
      <trkpt lat="46.88351" lon="8.53217">
        <ele>1740</ele>
        <time>2021-08-11T09:29:27.416Z</time>
      </trkpt>
      <trkpt lat="46.88352" lon="8.53217">
        <ele>1741</ele>
        <time>2021-08-11T09:29:28.416Z</time>
      </trkpt>
      <trkpt lat="46.88351" lon="8.53217">
        <ele>1741</ele>
        <time>2021-08-11T09:29:29.417Z</time>
      </trkpt>
      <trkpt lat="46.88351" lon="8.53217">
        <ele>1741</ele>
        <time>2021-08-11T09:29:30.417Z</time>
      </trkpt>
      <trkpt lat="46.88356" lon="8.53213">
        <ele>1752</ele>
        <time>2021-08-11T09:29:31.417Z</time>
      </trkpt>
      <trkpt lat="46.88355" lon="8.53213">
        <ele>1752</ele>
        <time>2021-08-11T09:29:32.416Z</time>
      </trkpt>
      <trkpt lat="46.88354" lon="8.53213">
        <ele>1752</ele>
        <time>2021-08-11T09:29:33.417Z</time>
      </trkpt>
      <trkpt lat="46.88354" lon="8.53212">
        <ele>1752</ele>
        <time>2021-08-11T09:29:34.416Z</time>
      </trkpt>
      <trkpt lat="46.88354" lon="8.53213">
        <ele>1750</ele>
        <time>2021-08-11T09:29:35.417Z</time>
      </trkpt>
      <trkpt lat="46.88354" lon="8.53213">
        <ele>1749</ele>
        <time>2021-08-11T09:29:36.417Z</time>
      </trkpt>
      <trkpt lat="46.88354" lon="8.53213">
        <ele>1749</ele>
        <time>2021-08-11T09:29:37.417Z</time>
      </trkpt>
      <trkpt lat="46.88354" lon="8.53214">
        <ele>1748</ele>
        <time>2021-08-11T09:29:38.417Z</time>
      </trkpt>
      <trkpt lat="46.88353" lon="8.53214">
        <ele>1747</ele>
        <time>2021-08-11T09:29:39.417Z</time>
      </trkpt>
      <trkpt lat="46.88353" lon="8.53214">
        <ele>1746</ele>
        <time>2021-08-11T09:29:40.416Z</time>
      </trkpt>
      <trkpt lat="46.88352" lon="8.53214">
        <ele>1746</ele>
        <time>2021-08-11T09:29:41.417Z</time>
      </trkpt>
      <trkpt lat="46.88352" lon="8.53214">
        <ele>1745</ele>
        <time>2021-08-11T09:29:42.417Z</time>
      </trkpt>
      <trkpt lat="46.88351" lon="8.53213">
        <ele>1745</ele>
        <time>2021-08-11T09:29:43.417Z</time>
      </trkpt>
      <trkpt lat="46.88351" lon="8.53212">
        <ele>1745</ele>
        <time>2021-08-11T09:29:44.416Z</time>
      </trkpt>
      <trkpt lat="46.8835" lon="8.53212">
        <ele>1744</ele>
        <time>2021-08-11T09:29:45.417Z</time>
      </trkpt>
      <trkpt lat="46.8835" lon="8.53212">
        <ele>1744</ele>
        <time>2021-08-11T09:29:46.417Z</time>
      </trkpt>
      <trkpt lat="46.8835" lon="8.53212">
        <ele>1743</ele>
        <time>2021-08-11T09:29:47.417Z</time>
      </trkpt>
      <trkpt lat="46.88349" lon="8.53212">
        <ele>1743</ele>
        <time>2021-08-11T09:29:48.417Z</time>
      </trkpt>
      <trkpt lat="46.88349" lon="8.53212">
        <ele>1742</ele>
        <time>2021-08-11T09:29:49.416Z</time>
      </trkpt>
      <trkpt lat="46.88349" lon="8.53212">
        <ele>1742</ele>
        <time>2021-08-11T09:29:50.417Z</time>
      </trkpt>
      <trkpt lat="46.88348" lon="8.53211">
        <ele>1741</ele>
        <time>2021-08-11T09:29:51.417Z</time>
      </trkpt>
      <trkpt lat="46.88348" lon="8.53211">
        <ele>1741</ele>
        <time>2021-08-11T09:29:52.417Z</time>
      </trkpt>
      <trkpt lat="46.88348" lon="8.53211">
        <ele>1741</ele>
        <time>2021-08-11T09:29:53.416Z</time>
      </trkpt>
      <trkpt lat="46.88347" lon="8.5321">
        <ele>1741</ele>
        <time>2021-08-11T09:29:54.417Z</time>
      </trkpt>
      <trkpt lat="46.88347" lon="8.53209">
        <ele>1741</ele>
        <time>2021-08-11T09:29:55.417Z</time>
      </trkpt>
      <trkpt lat="46.88346" lon="8.53209">
        <ele>1741</ele>
        <time>2021-08-11T09:29:56.417Z</time>
      </trkpt>
      <trkpt lat="46.88345" lon="8.53208">
        <ele>1742</ele>
        <time>2021-08-11T09:29:57.417Z</time>
      </trkpt>
      <trkpt lat="46.88345" lon="8.53207">
        <ele>1742</ele>
        <time>2021-08-11T09:29:58.416Z</time>
      </trkpt>
      <trkpt lat="46.88344" lon="8.53207">
        <ele>1743</ele>
        <time>2021-08-11T09:29:59.417Z</time>
      </trkpt>
      <trkpt lat="46.88344" lon="8.53205">
        <ele>1743</ele>
        <time>2021-08-11T09:30:00.417Z</time>
      </trkpt>
      <trkpt lat="46.88343" lon="8.53204">
        <ele>1743</ele>
        <time>2021-08-11T09:30:01.417Z</time>
      </trkpt>
      <trkpt lat="46.88342" lon="8.53203">
        <ele>1744</ele>
        <time>2021-08-11T09:30:02.416Z</time>
      </trkpt>
      <trkpt lat="46.88342" lon="8.53203">
        <ele>1744</ele>
        <time>2021-08-11T09:30:03.417Z</time>
      </trkpt>
      <trkpt lat="46.88341" lon="8.53203">
        <ele>1744</ele>
        <time>2021-08-11T09:30:04.416Z</time>
      </trkpt>
      <trkpt lat="46.88341" lon="8.53204">
        <ele>1745</ele>
        <time>2021-08-11T09:30:05.416Z</time>
      </trkpt>
      <trkpt lat="46.88341" lon="8.53203">
        <ele>1745</ele>
        <time>2021-08-11T09:30:06.417Z</time>
      </trkpt>
      <trkpt lat="46.88341" lon="8.53203">
        <ele>1745</ele>
        <time>2021-08-11T09:30:07.416Z</time>
      </trkpt>
      <trkpt lat="46.88342" lon="8.53203">
        <ele>1745</ele>
        <time>2021-08-11T09:30:08.417Z</time>
      </trkpt>
      <trkpt lat="46.88344" lon="8.53204">
        <ele>1745</ele>
        <time>2021-08-11T09:30:09.416Z</time>
      </trkpt>
      <trkpt lat="46.88345" lon="8.53205">
        <ele>1745</ele>
        <time>2021-08-11T09:30:10.416Z</time>
      </trkpt>
      <trkpt lat="46.88345" lon="8.53206">
        <ele>1745</ele>
        <time>2021-08-11T09:30:11.416Z</time>
      </trkpt>
      <trkpt lat="46.88345" lon="8.53206">
        <ele>1745</ele>
        <time>2021-08-11T09:30:12.416Z</time>
      </trkpt>
      <trkpt lat="46.88345" lon="8.53205">
        <ele>1745</ele>
        <time>2021-08-11T09:30:13.418Z</time>
      </trkpt>
      <trkpt lat="46.88344" lon="8.53205">
        <ele>1745</ele>
        <time>2021-08-11T09:30:14.419Z</time>
      </trkpt>
      <trkpt lat="46.88343" lon="8.53204">
        <ele>1744</ele>
        <time>2021-08-11T09:30:15.418Z</time>
      </trkpt>
      <trkpt lat="46.88342" lon="8.53203">
        <ele>1744</ele>
        <time>2021-08-11T09:30:16.419Z</time>
      </trkpt>
      <trkpt lat="46.88341" lon="8.53203">
        <ele>1744</ele>
        <time>2021-08-11T09:30:17.419Z</time>
      </trkpt>
      <trkpt lat="46.88339" lon="8.53202">
        <ele>1744</ele>
        <time>2021-08-11T09:30:18.418Z</time>
      </trkpt>
      <trkpt lat="46.88338" lon="8.53201">
        <ele>1744</ele>
        <time>2021-08-11T09:30:19.419Z</time>
      </trkpt>
      <trkpt lat="46.88337" lon="8.53201">
        <ele>1744</ele>
        <time>2021-08-11T09:30:20.419Z</time>
      </trkpt>
      <trkpt lat="46.88337" lon="8.532">
        <ele>1744</ele>
        <time>2021-08-11T09:30:21.418Z</time>
      </trkpt>
      <trkpt lat="46.88336" lon="8.53199">
        <ele>1743</ele>
        <time>2021-08-11T09:30:22.419Z</time>
      </trkpt>
      <trkpt lat="46.88335" lon="8.53199">
        <ele>1742</ele>
        <time>2021-08-11T09:30:23.418Z</time>
      </trkpt>
      <trkpt lat="46.88335" lon="8.53198">
        <ele>1742</ele>
        <time>2021-08-11T09:30:24.419Z</time>
      </trkpt>
      <trkpt lat="46.88334" lon="8.53197">
        <ele>1741</ele>
        <time>2021-08-11T09:30:25.419Z</time>
      </trkpt>
      <trkpt lat="46.88333" lon="8.53196">
        <ele>1741</ele>
        <time>2021-08-11T09:30:26.418Z</time>
      </trkpt>
      <trkpt lat="46.88333" lon="8.53196">
        <ele>1741</ele>
        <time>2021-08-11T09:30:27.418Z</time>
      </trkpt>
      <trkpt lat="46.88332" lon="8.53195">
        <ele>1740</ele>
        <time>2021-08-11T09:30:28.418Z</time>
      </trkpt>
      <trkpt lat="46.88331" lon="8.53195">
        <ele>1740</ele>
        <time>2021-08-11T09:30:29.419Z</time>
      </trkpt>
      <trkpt lat="46.8833" lon="8.53194">
        <ele>1740</ele>
        <time>2021-08-11T09:30:30.419Z</time>
      </trkpt>
      <trkpt lat="46.88329" lon="8.53194">
        <ele>1739</ele>
        <time>2021-08-11T09:30:31.419Z</time>
      </trkpt>
      <trkpt lat="46.88328" lon="8.53193">
        <ele>1739</ele>
        <time>2021-08-11T09:30:32.419Z</time>
      </trkpt>
      <trkpt lat="46.88327" lon="8.53192">
        <ele>1739</ele>
        <time>2021-08-11T09:30:33.418Z</time>
      </trkpt>
      <trkpt lat="46.88326" lon="8.53192">
        <ele>1739</ele>
        <time>2021-08-11T09:30:34.418Z</time>
      </trkpt>
      <trkpt lat="46.88325" lon="8.53191">
        <ele>1739</ele>
        <time>2021-08-11T09:30:35.419Z</time>
      </trkpt>
      <trkpt lat="46.88324" lon="8.5319">
        <ele>1739</ele>
        <time>2021-08-11T09:30:36.418Z</time>
      </trkpt>
      <trkpt lat="46.88324" lon="8.53189">
        <ele>1739</ele>
        <time>2021-08-11T09:30:37.419Z</time>
      </trkpt>
      <trkpt lat="46.88323" lon="8.53188">
        <ele>1739</ele>
        <time>2021-08-11T09:30:38.419Z</time>
      </trkpt>
      <trkpt lat="46.88322" lon="8.53187">
        <ele>1739</ele>
        <time>2021-08-11T09:30:39.419Z</time>
      </trkpt>
      <trkpt lat="46.88321" lon="8.53186">
        <ele>1739</ele>
        <time>2021-08-11T09:30:40.419Z</time>
      </trkpt>
      <trkpt lat="46.8832" lon="8.53185">
        <ele>1738</ele>
        <time>2021-08-11T09:30:41.418Z</time>
      </trkpt>
      <trkpt lat="46.88319" lon="8.53184">
        <ele>1739</ele>
        <time>2021-08-11T09:30:42.419Z</time>
      </trkpt>
      <trkpt lat="46.88318" lon="8.53183">
        <ele>1739</ele>
        <time>2021-08-11T09:30:43.419Z</time>
      </trkpt>
      <trkpt lat="46.88317" lon="8.53181">
        <ele>1739</ele>
        <time>2021-08-11T09:30:44.419Z</time>
      </trkpt>
      <trkpt lat="46.88316" lon="8.5318">
        <ele>1739</ele>
        <time>2021-08-11T09:30:45.419Z</time>
      </trkpt>
      <trkpt lat="46.88315" lon="8.53179">
        <ele>1738</ele>
        <time>2021-08-11T09:30:46.418Z</time>
      </trkpt>
      <trkpt lat="46.88314" lon="8.53179">
        <ele>1738</ele>
        <time>2021-08-11T09:30:47.419Z</time>
      </trkpt>
      <trkpt lat="46.88313" lon="8.53178">
        <ele>1738</ele>
        <time>2021-08-11T09:30:48.419Z</time>
      </trkpt>
      <trkpt lat="46.88313" lon="8.53178">
        <ele>1738</ele>
        <time>2021-08-11T09:30:49.418Z</time>
      </trkpt>
      <trkpt lat="46.88312" lon="8.53177">
        <ele>1737</ele>
        <time>2021-08-11T09:30:50.419Z</time>
      </trkpt>
      <trkpt lat="46.88311" lon="8.53175">
        <ele>1737</ele>
        <time>2021-08-11T09:30:51.418Z</time>
      </trkpt>
      <trkpt lat="46.8831" lon="8.53174">
        <ele>1737</ele>
        <time>2021-08-11T09:30:52.418Z</time>
      </trkpt>
      <trkpt lat="46.8831" lon="8.53172">
        <ele>1737</ele>
        <time>2021-08-11T09:30:53.418Z</time>
      </trkpt>
      <trkpt lat="46.88309" lon="8.53171">
        <ele>1737</ele>
        <time>2021-08-11T09:30:54.419Z</time>
      </trkpt>
      <trkpt lat="46.88308" lon="8.5317">
        <ele>1737</ele>
        <time>2021-08-11T09:30:55.419Z</time>
      </trkpt>
      <trkpt lat="46.88307" lon="8.53169">
        <ele>1737</ele>
        <time>2021-08-11T09:30:56.418Z</time>
      </trkpt>
      <trkpt lat="46.88306" lon="8.53168">
        <ele>1737</ele>
        <time>2021-08-11T09:30:57.418Z</time>
      </trkpt>
      <trkpt lat="46.88305" lon="8.53168">
        <ele>1736</ele>
        <time>2021-08-11T09:30:58.419Z</time>
      </trkpt>
      <trkpt lat="46.88305" lon="8.53167">
        <ele>1736</ele>
        <time>2021-08-11T09:30:59.419Z</time>
      </trkpt>
      <trkpt lat="46.88305" lon="8.53167">
        <ele>1735</ele>
        <time>2021-08-11T09:31:00.419Z</time>
      </trkpt>
      <trkpt lat="46.88304" lon="8.53167">
        <ele>1735</ele>
        <time>2021-08-11T09:31:01.419Z</time>
      </trkpt>
      <trkpt lat="46.88303" lon="8.53168">
        <ele>1736</ele>
        <time>2021-08-11T09:31:02.419Z</time>
      </trkpt>
      <trkpt lat="46.88303" lon="8.53168">
        <ele>1736</ele>
        <time>2021-08-11T09:31:03.419Z</time>
      </trkpt>
      <trkpt lat="46.88303" lon="8.53167">
        <ele>1735</ele>
        <time>2021-08-11T09:31:04.418Z</time>
      </trkpt>
      <trkpt lat="46.88302" lon="8.53167">
        <ele>1734</ele>
        <time>2021-08-11T09:31:05.418Z</time>
      </trkpt>
      <trkpt lat="46.88301" lon="8.53166">
        <ele>1734</ele>
        <time>2021-08-11T09:31:06.418Z</time>
      </trkpt>
      <trkpt lat="46.883" lon="8.53165">
        <ele>1734</ele>
        <time>2021-08-11T09:31:07.419Z</time>
      </trkpt>
      <trkpt lat="46.88299" lon="8.53164">
        <ele>1735</ele>
        <time>2021-08-11T09:31:08.419Z</time>
      </trkpt>
      <trkpt lat="46.88298" lon="8.53164">
        <ele>1735</ele>
        <time>2021-08-11T09:31:09.418Z</time>
      </trkpt>
      <trkpt lat="46.88297" lon="8.53163">
        <ele>1735</ele>
        <time>2021-08-11T09:31:10.418Z</time>
      </trkpt>
      <trkpt lat="46.88296" lon="8.53162">
        <ele>1735</ele>
        <time>2021-08-11T09:31:11.418Z</time>
      </trkpt>
      <trkpt lat="46.88295" lon="8.53161">
        <ele>1735</ele>
        <time>2021-08-11T09:31:12.418Z</time>
      </trkpt>
      <trkpt lat="46.88294" lon="8.53161">
        <ele>1735</ele>
        <time>2021-08-11T09:31:13.418Z</time>
      </trkpt>
      <trkpt lat="46.88293" lon="8.5316">
        <ele>1735</ele>
        <time>2021-08-11T09:31:14.419Z</time>
      </trkpt>
      <trkpt lat="46.88292" lon="8.53159">
        <ele>1735</ele>
        <time>2021-08-11T09:31:15.419Z</time>
      </trkpt>
      <trkpt lat="46.88291" lon="8.53158">
        <ele>1736</ele>
        <time>2021-08-11T09:31:16.419Z</time>
      </trkpt>
      <trkpt lat="46.8829" lon="8.53157">
        <ele>1736</ele>
        <time>2021-08-11T09:31:17.418Z</time>
      </trkpt>
      <trkpt lat="46.8829" lon="8.53156">
        <ele>1736</ele>
        <time>2021-08-11T09:31:18.419Z</time>
      </trkpt>
      <trkpt lat="46.88289" lon="8.53155">
        <ele>1737</ele>
        <time>2021-08-11T09:31:19.418Z</time>
      </trkpt>
      <trkpt lat="46.88288" lon="8.53154">
        <ele>1737</ele>
        <time>2021-08-11T09:31:20.418Z</time>
      </trkpt>
      <trkpt lat="46.88287" lon="8.53153">
        <ele>1737</ele>
        <time>2021-08-11T09:31:21.419Z</time>
      </trkpt>
      <trkpt lat="46.88286" lon="8.53152">
        <ele>1737</ele>
        <time>2021-08-11T09:31:22.418Z</time>
      </trkpt>
      <trkpt lat="46.88285" lon="8.53151">
        <ele>1738</ele>
        <time>2021-08-11T09:31:23.419Z</time>
      </trkpt>
      <trkpt lat="46.88284" lon="8.5315">
        <ele>1737</ele>
        <time>2021-08-11T09:31:24.418Z</time>
      </trkpt>
      <trkpt lat="46.88283" lon="8.53149">
        <ele>1737</ele>
        <time>2021-08-11T09:31:25.418Z</time>
      </trkpt>
      <trkpt lat="46.88282" lon="8.53147">
        <ele>1737</ele>
        <time>2021-08-11T09:31:26.419Z</time>
      </trkpt>
      <trkpt lat="46.88281" lon="8.53147">
        <ele>1737</ele>
        <time>2021-08-11T09:31:27.419Z</time>
      </trkpt>
      <trkpt lat="46.8828" lon="8.53146">
        <ele>1736</ele>
        <time>2021-08-11T09:31:28.419Z</time>
      </trkpt>
      <trkpt lat="46.88279" lon="8.53146">
        <ele>1736</ele>
        <time>2021-08-11T09:31:29.418Z</time>
      </trkpt>
      <trkpt lat="46.88278" lon="8.53145">
        <ele>1735</ele>
        <time>2021-08-11T09:31:30.418Z</time>
      </trkpt>
      <trkpt lat="46.88278" lon="8.53145">
        <ele>1734</ele>
        <time>2021-08-11T09:31:31.419Z</time>
      </trkpt>
      <trkpt lat="46.88277" lon="8.53144">
        <ele>1732</ele>
        <time>2021-08-11T09:31:32.419Z</time>
      </trkpt>
      <trkpt lat="46.88276" lon="8.53144">
        <ele>1731</ele>
        <time>2021-08-11T09:31:33.419Z</time>
      </trkpt>
      <trkpt lat="46.88276" lon="8.53144">
        <ele>1730</ele>
        <time>2021-08-11T09:31:34.418Z</time>
      </trkpt>
      <trkpt lat="46.88276" lon="8.53144">
        <ele>1730</ele>
        <time>2021-08-11T09:31:35.418Z</time>
      </trkpt>
      <trkpt lat="46.88275" lon="8.53143">
        <ele>1729</ele>
        <time>2021-08-11T09:31:36.419Z</time>
      </trkpt>
      <trkpt lat="46.88274" lon="8.53143">
        <ele>1728</ele>
        <time>2021-08-11T09:31:37.418Z</time>
      </trkpt>
      <trkpt lat="46.88274" lon="8.53143">
        <ele>1728</ele>
        <time>2021-08-11T09:31:38.418Z</time>
      </trkpt>
      <trkpt lat="46.88273" lon="8.53143">
        <ele>1728</ele>
        <time>2021-08-11T09:31:39.418Z</time>
      </trkpt>
      <trkpt lat="46.88272" lon="8.53142">
        <ele>1727</ele>
        <time>2021-08-11T09:31:40.418Z</time>
      </trkpt>
      <trkpt lat="46.88271" lon="8.53141">
        <ele>1727</ele>
        <time>2021-08-11T09:31:41.418Z</time>
      </trkpt>
      <trkpt lat="46.8827" lon="8.5314">
        <ele>1727</ele>
        <time>2021-08-11T09:31:42.419Z</time>
      </trkpt>
      <trkpt lat="46.8827" lon="8.5314">
        <ele>1727</ele>
        <time>2021-08-11T09:31:43.419Z</time>
      </trkpt>
      <trkpt lat="46.88269" lon="8.53139">
        <ele>1727</ele>
        <time>2021-08-11T09:31:44.419Z</time>
      </trkpt>
      <trkpt lat="46.88268" lon="8.53138">
        <ele>1727</ele>
        <time>2021-08-11T09:31:45.418Z</time>
      </trkpt>
      <trkpt lat="46.88267" lon="8.53137">
        <ele>1727</ele>
        <time>2021-08-11T09:31:46.419Z</time>
      </trkpt>
      <trkpt lat="46.88266" lon="8.53136">
        <ele>1727</ele>
        <time>2021-08-11T09:31:47.419Z</time>
      </trkpt>
      <trkpt lat="46.88265" lon="8.53136">
        <ele>1726</ele>
        <time>2021-08-11T09:31:48.419Z</time>
      </trkpt>
      <trkpt lat="46.88264" lon="8.53135">
        <ele>1726</ele>
        <time>2021-08-11T09:31:49.418Z</time>
      </trkpt>
      <trkpt lat="46.88264" lon="8.53134">
        <ele>1726</ele>
        <time>2021-08-11T09:31:50.418Z</time>
      </trkpt>
      <trkpt lat="46.88263" lon="8.53132">
        <ele>1725</ele>
        <time>2021-08-11T09:31:51.418Z</time>
      </trkpt>
      <trkpt lat="46.88262" lon="8.53131">
        <ele>1725</ele>
        <time>2021-08-11T09:31:52.419Z</time>
      </trkpt>
      <trkpt lat="46.88261" lon="8.53129">
        <ele>1725</ele>
        <time>2021-08-11T09:31:53.419Z</time>
      </trkpt>
      <trkpt lat="46.88261" lon="8.53128">
        <ele>1724</ele>
        <time>2021-08-11T09:31:54.418Z</time>
      </trkpt>
      <trkpt lat="46.8826" lon="8.53127">
        <ele>1724</ele>
        <time>2021-08-11T09:31:55.418Z</time>
      </trkpt>
      <trkpt lat="46.8826" lon="8.53126">
        <ele>1725</ele>
        <time>2021-08-11T09:31:56.418Z</time>
      </trkpt>
      <trkpt lat="46.88259" lon="8.53125">
        <ele>1725</ele>
        <time>2021-08-11T09:31:57.419Z</time>
      </trkpt>
      <trkpt lat="46.88259" lon="8.53124">
        <ele>1725</ele>
        <time>2021-08-11T09:31:58.419Z</time>
      </trkpt>
      <trkpt lat="46.88259" lon="8.53123">
        <ele>1725</ele>
        <time>2021-08-11T09:31:59.418Z</time>
      </trkpt>
      <trkpt lat="46.88258" lon="8.53122">
        <ele>1725</ele>
        <time>2021-08-11T09:32:00.418Z</time>
      </trkpt>
      <trkpt lat="46.88257" lon="8.53121">
        <ele>1725</ele>
        <time>2021-08-11T09:32:01.418Z</time>
      </trkpt>
      <trkpt lat="46.88256" lon="8.5312">
        <ele>1725</ele>
        <time>2021-08-11T09:32:02.419Z</time>
      </trkpt>
      <trkpt lat="46.88255" lon="8.53119">
        <ele>1725</ele>
        <time>2021-08-11T09:32:03.418Z</time>
      </trkpt>
      <trkpt lat="46.88254" lon="8.53118">
        <ele>1725</ele>
        <time>2021-08-11T09:32:04.418Z</time>
      </trkpt>
      <trkpt lat="46.88253" lon="8.53117">
        <ele>1725</ele>
        <time>2021-08-11T09:32:05.418Z</time>
      </trkpt>
      <trkpt lat="46.88252" lon="8.53116">
        <ele>1724</ele>
        <time>2021-08-11T09:32:06.419Z</time>
      </trkpt>
      <trkpt lat="46.88251" lon="8.53114">
        <ele>1725</ele>
        <time>2021-08-11T09:32:07.418Z</time>
      </trkpt>
      <trkpt lat="46.8825" lon="8.53113">
        <ele>1725</ele>
        <time>2021-08-11T09:32:08.419Z</time>
      </trkpt>
      <trkpt lat="46.88249" lon="8.53112">
        <ele>1724</ele>
        <time>2021-08-11T09:32:09.418Z</time>
      </trkpt>
      <trkpt lat="46.88249" lon="8.5311">
        <ele>1724</ele>
        <time>2021-08-11T09:32:10.419Z</time>
      </trkpt>
      <trkpt lat="46.88248" lon="8.5311">
        <ele>1724</ele>
        <time>2021-08-11T09:32:11.418Z</time>
      </trkpt>
      <trkpt lat="46.88247" lon="8.53109">
        <ele>1724</ele>
        <time>2021-08-11T09:32:12.418Z</time>
      </trkpt>
      <trkpt lat="46.88246" lon="8.53108">
        <ele>1723</ele>
        <time>2021-08-11T09:32:13.418Z</time>
      </trkpt>
      <trkpt lat="46.88245" lon="8.53107">
        <ele>1723</ele>
        <time>2021-08-11T09:32:14.418Z</time>
      </trkpt>
      <trkpt lat="46.88244" lon="8.53107">
        <ele>1723</ele>
        <time>2021-08-11T09:32:15.419Z</time>
      </trkpt>
      <trkpt lat="46.88243" lon="8.53106">
        <ele>1723</ele>
        <time>2021-08-11T09:32:16.418Z</time>
      </trkpt>
      <trkpt lat="46.88242" lon="8.53106">
        <ele>1723</ele>
        <time>2021-08-11T09:32:17.418Z</time>
      </trkpt>
      <trkpt lat="46.88241" lon="8.53106">
        <ele>1723</ele>
        <time>2021-08-11T09:32:18.418Z</time>
      </trkpt>
      <trkpt lat="46.8824" lon="8.53106">
        <ele>1723</ele>
        <time>2021-08-11T09:32:19.418Z</time>
      </trkpt>
      <trkpt lat="46.88239" lon="8.53106">
        <ele>1723</ele>
        <time>2021-08-11T09:32:20.419Z</time>
      </trkpt>
      <trkpt lat="46.88238" lon="8.53106">
        <ele>1723</ele>
        <time>2021-08-11T09:32:21.419Z</time>
      </trkpt>
      <trkpt lat="46.88237" lon="8.53106">
        <ele>1723</ele>
        <time>2021-08-11T09:32:22.419Z</time>
      </trkpt>
      <trkpt lat="46.88236" lon="8.53105">
        <ele>1723</ele>
        <time>2021-08-11T09:32:23.419Z</time>
      </trkpt>
      <trkpt lat="46.88236" lon="8.53104">
        <ele>1723</ele>
        <time>2021-08-11T09:32:24.419Z</time>
      </trkpt>
      <trkpt lat="46.88235" lon="8.53103">
        <ele>1723</ele>
        <time>2021-08-11T09:32:25.419Z</time>
      </trkpt>
      <trkpt lat="46.88234" lon="8.53102">
        <ele>1723</ele>
        <time>2021-08-11T09:32:26.419Z</time>
      </trkpt>
      <trkpt lat="46.88233" lon="8.53101">
        <ele>1723</ele>
        <time>2021-08-11T09:32:27.418Z</time>
      </trkpt>
      <trkpt lat="46.88231" lon="8.53099">
        <ele>1723</ele>
        <time>2021-08-11T09:32:28.419Z</time>
      </trkpt>
      <trkpt lat="46.8823" lon="8.53098">
        <ele>1723</ele>
        <time>2021-08-11T09:32:29.419Z</time>
      </trkpt>
      <trkpt lat="46.88229" lon="8.53096">
        <ele>1723</ele>
        <time>2021-08-11T09:32:30.419Z</time>
      </trkpt>
      <trkpt lat="46.88228" lon="8.53095">
        <ele>1723</ele>
        <time>2021-08-11T09:32:31.418Z</time>
      </trkpt>
      <trkpt lat="46.88228" lon="8.53095">
        <ele>1723</ele>
        <time>2021-08-11T09:32:32.419Z</time>
      </trkpt>
      <trkpt lat="46.88227" lon="8.53094">
        <ele>1723</ele>
        <time>2021-08-11T09:32:33.419Z</time>
      </trkpt>
      <trkpt lat="46.88227" lon="8.53092">
        <ele>1722</ele>
        <time>2021-08-11T09:32:34.419Z</time>
      </trkpt>
      <trkpt lat="46.88226" lon="8.53091">
        <ele>1722</ele>
        <time>2021-08-11T09:32:35.419Z</time>
      </trkpt>
      <trkpt lat="46.88226" lon="8.5309">
        <ele>1722</ele>
        <time>2021-08-11T09:32:36.418Z</time>
      </trkpt>
      <trkpt lat="46.88226" lon="8.53088">
        <ele>1721</ele>
        <time>2021-08-11T09:32:37.418Z</time>
      </trkpt>
      <trkpt lat="46.88226" lon="8.53087">
        <ele>1721</ele>
        <time>2021-08-11T09:32:38.418Z</time>
      </trkpt>
      <trkpt lat="46.88226" lon="8.53085">
        <ele>1721</ele>
        <time>2021-08-11T09:32:39.418Z</time>
      </trkpt>
      <trkpt lat="46.88225" lon="8.53083">
        <ele>1721</ele>
        <time>2021-08-11T09:32:40.418Z</time>
      </trkpt>
      <trkpt lat="46.88224" lon="8.53082">
        <ele>1721</ele>
        <time>2021-08-11T09:32:41.418Z</time>
      </trkpt>
      <trkpt lat="46.88224" lon="8.53082">
        <ele>1720</ele>
        <time>2021-08-11T09:32:42.418Z</time>
      </trkpt>
      <trkpt lat="46.88224" lon="8.53081">
        <ele>1719</ele>
        <time>2021-08-11T09:32:43.418Z</time>
      </trkpt>
      <trkpt lat="46.88223" lon="8.5308">
        <ele>1719</ele>
        <time>2021-08-11T09:32:44.418Z</time>
      </trkpt>
      <trkpt lat="46.88223" lon="8.53079">
        <ele>1719</ele>
        <time>2021-08-11T09:32:45.419Z</time>
      </trkpt>
      <trkpt lat="46.88222" lon="8.53078">
        <ele>1719</ele>
        <time>2021-08-11T09:32:46.419Z</time>
      </trkpt>
      <trkpt lat="46.88222" lon="8.53077">
        <ele>1718</ele>
        <time>2021-08-11T09:32:47.419Z</time>
      </trkpt>
      <trkpt lat="46.88222" lon="8.53076">
        <ele>1718</ele>
        <time>2021-08-11T09:32:48.419Z</time>
      </trkpt>
      <trkpt lat="46.88221" lon="8.53074">
        <ele>1719</ele>
        <time>2021-08-11T09:32:49.418Z</time>
      </trkpt>
      <trkpt lat="46.88221" lon="8.53073">
        <ele>1719</ele>
        <time>2021-08-11T09:32:50.419Z</time>
      </trkpt>
      <trkpt lat="46.8822" lon="8.53071">
        <ele>1719</ele>
        <time>2021-08-11T09:32:51.419Z</time>
      </trkpt>
      <trkpt lat="46.88219" lon="8.5307">
        <ele>1719</ele>
        <time>2021-08-11T09:32:52.419Z</time>
      </trkpt>
      <trkpt lat="46.88219" lon="8.53068">
        <ele>1719</ele>
        <time>2021-08-11T09:32:53.419Z</time>
      </trkpt>
      <trkpt lat="46.88219" lon="8.53067">
        <ele>1719</ele>
        <time>2021-08-11T09:32:54.418Z</time>
      </trkpt>
      <trkpt lat="46.88219" lon="8.53066">
        <ele>1719</ele>
        <time>2021-08-11T09:32:55.419Z</time>
      </trkpt>
      <trkpt lat="46.88218" lon="8.53065">
        <ele>1719</ele>
        <time>2021-08-11T09:32:56.419Z</time>
      </trkpt>
      <trkpt lat="46.88218" lon="8.53064">
        <ele>1719</ele>
        <time>2021-08-11T09:32:57.419Z</time>
      </trkpt>
      <trkpt lat="46.88218" lon="8.53063">
        <ele>1719</ele>
        <time>2021-08-11T09:32:58.419Z</time>
      </trkpt>
      <trkpt lat="46.88218" lon="8.53062">
        <ele>1718</ele>
        <time>2021-08-11T09:32:59.418Z</time>
      </trkpt>
      <trkpt lat="46.88218" lon="8.53061">
        <ele>1718</ele>
        <time>2021-08-11T09:33:00.418Z</time>
      </trkpt>
      <trkpt lat="46.88218" lon="8.5306">
        <ele>1717</ele>
        <time>2021-08-11T09:33:01.418Z</time>
      </trkpt>
      <trkpt lat="46.88218" lon="8.5306">
        <ele>1717</ele>
        <time>2021-08-11T09:33:02.418Z</time>
      </trkpt>
      <trkpt lat="46.88217" lon="8.53059">
        <ele>1716</ele>
        <time>2021-08-11T09:33:03.419Z</time>
      </trkpt>
      <trkpt lat="46.88216" lon="8.53058">
        <ele>1716</ele>
        <time>2021-08-11T09:33:04.419Z</time>
      </trkpt>
      <trkpt lat="46.88216" lon="8.53056">
        <ele>1715</ele>
        <time>2021-08-11T09:33:05.418Z</time>
      </trkpt>
      <trkpt lat="46.88215" lon="8.53055">
        <ele>1715</ele>
        <time>2021-08-11T09:33:06.419Z</time>
      </trkpt>
      <trkpt lat="46.88214" lon="8.53053">
        <ele>1715</ele>
        <time>2021-08-11T09:33:07.419Z</time>
      </trkpt>
      <trkpt lat="46.88214" lon="8.53051">
        <ele>1715</ele>
        <time>2021-08-11T09:33:08.419Z</time>
      </trkpt>
      <trkpt lat="46.88214" lon="8.5305">
        <ele>1715</ele>
        <time>2021-08-11T09:33:09.418Z</time>
      </trkpt>
      <trkpt lat="46.88213" lon="8.53048">
        <ele>1715</ele>
        <time>2021-08-11T09:33:10.419Z</time>
      </trkpt>
      <trkpt lat="46.88213" lon="8.53046">
        <ele>1715</ele>
        <time>2021-08-11T09:33:11.419Z</time>
      </trkpt>
      <trkpt lat="46.88212" lon="8.53045">
        <ele>1716</ele>
        <time>2021-08-11T09:33:12.419Z</time>
      </trkpt>
      <trkpt lat="46.88212" lon="8.53044">
        <ele>1716</ele>
        <time>2021-08-11T09:33:13.419Z</time>
      </trkpt>
      <trkpt lat="46.88211" lon="8.53043">
        <ele>1716</ele>
        <time>2021-08-11T09:33:14.418Z</time>
      </trkpt>
      <trkpt lat="46.88211" lon="8.53042">
        <ele>1717</ele>
        <time>2021-08-11T09:33:15.419Z</time>
      </trkpt>
      <trkpt lat="46.8821" lon="8.53041">
        <ele>1717</ele>
        <time>2021-08-11T09:33:16.419Z</time>
      </trkpt>
      <trkpt lat="46.88209" lon="8.5304">
        <ele>1717</ele>
        <time>2021-08-11T09:33:17.419Z</time>
      </trkpt>
      <trkpt lat="46.88209" lon="8.53039">
        <ele>1718</ele>
        <time>2021-08-11T09:33:18.418Z</time>
      </trkpt>
      <trkpt lat="46.88208" lon="8.53038">
        <ele>1718</ele>
        <time>2021-08-11T09:33:19.419Z</time>
      </trkpt>
      <trkpt lat="46.88208" lon="8.53037">
        <ele>1719</ele>
        <time>2021-08-11T09:33:20.419Z</time>
      </trkpt>
      <trkpt lat="46.88207" lon="8.53036">
        <ele>1719</ele>
        <time>2021-08-11T09:33:21.419Z</time>
      </trkpt>
      <trkpt lat="46.88206" lon="8.53035">
        <ele>1719</ele>
        <time>2021-08-11T09:33:22.419Z</time>
      </trkpt>
      <trkpt lat="46.88206" lon="8.53033">
        <ele>1719</ele>
        <time>2021-08-11T09:33:23.418Z</time>
      </trkpt>
      <trkpt lat="46.88205" lon="8.53032">
        <ele>1719</ele>
        <time>2021-08-11T09:33:24.419Z</time>
      </trkpt>
      <trkpt lat="46.88204" lon="8.53031">
        <ele>1718</ele>
        <time>2021-08-11T09:33:25.419Z</time>
      </trkpt>
      <trkpt lat="46.88203" lon="8.5303">
        <ele>1718</ele>
        <time>2021-08-11T09:33:26.419Z</time>
      </trkpt>
      <trkpt lat="46.88202" lon="8.53029">
        <ele>1718</ele>
        <time>2021-08-11T09:33:27.418Z</time>
      </trkpt>
      <trkpt lat="46.88202" lon="8.53028">
        <ele>1717</ele>
        <time>2021-08-11T09:33:28.418Z</time>
      </trkpt>
      <trkpt lat="46.88202" lon="8.53027">
        <ele>1717</ele>
        <time>2021-08-11T09:33:29.419Z</time>
      </trkpt>
      <trkpt lat="46.88201" lon="8.53026">
        <ele>1716</ele>
        <time>2021-08-11T09:33:30.419Z</time>
      </trkpt>
      <trkpt lat="46.88201" lon="8.53025">
        <ele>1716</ele>
        <time>2021-08-11T09:33:31.419Z</time>
      </trkpt>
      <trkpt lat="46.882" lon="8.53025">
        <ele>1716</ele>
        <time>2021-08-11T09:33:32.418Z</time>
      </trkpt>
      <trkpt lat="46.882" lon="8.53024">
        <ele>1716</ele>
        <time>2021-08-11T09:33:33.419Z</time>
      </trkpt>
      <trkpt lat="46.88199" lon="8.53023">
        <ele>1716</ele>
        <time>2021-08-11T09:33:34.419Z</time>
      </trkpt>
      <trkpt lat="46.88198" lon="8.53022">
        <ele>1716</ele>
        <time>2021-08-11T09:33:35.419Z</time>
      </trkpt>
      <trkpt lat="46.88198" lon="8.5302">
        <ele>1716</ele>
        <time>2021-08-11T09:33:36.419Z</time>
      </trkpt>
      <trkpt lat="46.88197" lon="8.53019">
        <ele>1716</ele>
        <time>2021-08-11T09:33:37.418Z</time>
      </trkpt>
      <trkpt lat="46.88196" lon="8.53018">
        <ele>1716</ele>
        <time>2021-08-11T09:33:38.419Z</time>
      </trkpt>
      <trkpt lat="46.88195" lon="8.53017">
        <ele>1717</ele>
        <time>2021-08-11T09:33:39.419Z</time>
      </trkpt>
      <trkpt lat="46.88195" lon="8.53016">
        <ele>1717</ele>
        <time>2021-08-11T09:33:40.419Z</time>
      </trkpt>
      <trkpt lat="46.88194" lon="8.53015">
        <ele>1717</ele>
        <time>2021-08-11T09:33:41.418Z</time>
      </trkpt>
      <trkpt lat="46.88193" lon="8.53014">
        <ele>1717</ele>
        <time>2021-08-11T09:33:42.419Z</time>
      </trkpt>
      <trkpt lat="46.88192" lon="8.53013">
        <ele>1717</ele>
        <time>2021-08-11T09:33:43.419Z</time>
      </trkpt>
      <trkpt lat="46.88191" lon="8.53012">
        <ele>1718</ele>
        <time>2021-08-11T09:33:44.419Z</time>
      </trkpt>
      <trkpt lat="46.88191" lon="8.53011">
        <ele>1718</ele>
        <time>2021-08-11T09:33:45.419Z</time>
      </trkpt>
      <trkpt lat="46.8819" lon="8.5301">
        <ele>1718</ele>
        <time>2021-08-11T09:33:46.418Z</time>
      </trkpt>
      <trkpt lat="46.8819" lon="8.5301">
        <ele>1719</ele>
        <time>2021-08-11T09:33:47.419Z</time>
      </trkpt>
      <trkpt lat="46.88189" lon="8.5301">
        <ele>1719</ele>
        <time>2021-08-11T09:33:48.419Z</time>
      </trkpt>
      <trkpt lat="46.88188" lon="8.53009">
        <ele>1720</ele>
        <time>2021-08-11T09:33:49.419Z</time>
      </trkpt>
      <trkpt lat="46.88187" lon="8.53008">
        <ele>1720</ele>
        <time>2021-08-11T09:33:50.418Z</time>
      </trkpt>
      <trkpt lat="46.88187" lon="8.53007">
        <ele>1720</ele>
        <time>2021-08-11T09:33:51.419Z</time>
      </trkpt>
      <trkpt lat="46.88186" lon="8.53006">
        <ele>1720</ele>
        <time>2021-08-11T09:33:52.419Z</time>
      </trkpt>
      <trkpt lat="46.88185" lon="8.53006">
        <ele>1720</ele>
        <time>2021-08-11T09:33:53.419Z</time>
      </trkpt>
      <trkpt lat="46.88185" lon="8.53005">
        <ele>1719</ele>
        <time>2021-08-11T09:33:54.419Z</time>
      </trkpt>
      <trkpt lat="46.88184" lon="8.53004">
        <ele>1719</ele>
        <time>2021-08-11T09:33:55.418Z</time>
      </trkpt>
      <trkpt lat="46.88184" lon="8.53004">
        <ele>1718</ele>
        <time>2021-08-11T09:33:56.419Z</time>
      </trkpt>
      <trkpt lat="46.88183" lon="8.53003">
        <ele>1718</ele>
        <time>2021-08-11T09:33:57.419Z</time>
      </trkpt>
      <trkpt lat="46.88182" lon="8.53001">
        <ele>1718</ele>
        <time>2021-08-11T09:33:58.419Z</time>
      </trkpt>
      <trkpt lat="46.88182" lon="8.53">
        <ele>1717</ele>
        <time>2021-08-11T09:33:59.418Z</time>
      </trkpt>
      <trkpt lat="46.88181" lon="8.52999">
        <ele>1716</ele>
        <time>2021-08-11T09:34:00.419Z</time>
      </trkpt>
      <trkpt lat="46.88181" lon="8.52998">
        <ele>1716</ele>
        <time>2021-08-11T09:34:01.419Z</time>
      </trkpt>
      <trkpt lat="46.8818" lon="8.52996">
        <ele>1716</ele>
        <time>2021-08-11T09:34:02.419Z</time>
      </trkpt>
      <trkpt lat="46.88179" lon="8.52995">
        <ele>1715</ele>
        <time>2021-08-11T09:34:03.419Z</time>
      </trkpt>
      <trkpt lat="46.88178" lon="8.52994">
        <ele>1714</ele>
        <time>2021-08-11T09:34:04.418Z</time>
      </trkpt>
      <trkpt lat="46.88177" lon="8.52993">
        <ele>1714</ele>
        <time>2021-08-11T09:34:05.419Z</time>
      </trkpt>
      <trkpt lat="46.88176" lon="8.52992">
        <ele>1713</ele>
        <time>2021-08-11T09:34:06.419Z</time>
      </trkpt>
      <trkpt lat="46.88176" lon="8.52991">
        <ele>1713</ele>
        <time>2021-08-11T09:34:07.418Z</time>
      </trkpt>
      <trkpt lat="46.88175" lon="8.5299">
        <ele>1713</ele>
        <time>2021-08-11T09:34:08.418Z</time>
      </trkpt>
      <trkpt lat="46.88174" lon="8.52989">
        <ele>1713</ele>
        <time>2021-08-11T09:34:09.419Z</time>
      </trkpt>
      <trkpt lat="46.88173" lon="8.52989">
        <ele>1713</ele>
        <time>2021-08-11T09:34:10.419Z</time>
      </trkpt>
      <trkpt lat="46.88172" lon="8.52988">
        <ele>1713</ele>
        <time>2021-08-11T09:34:11.418Z</time>
      </trkpt>
      <trkpt lat="46.88171" lon="8.52987">
        <ele>1713</ele>
        <time>2021-08-11T09:34:12.419Z</time>
      </trkpt>
      <trkpt lat="46.8817" lon="8.52986">
        <ele>1713</ele>
        <time>2021-08-11T09:34:13.418Z</time>
      </trkpt>
      <trkpt lat="46.8817" lon="8.52985">
        <ele>1713</ele>
        <time>2021-08-11T09:34:14.419Z</time>
      </trkpt>
      <trkpt lat="46.88169" lon="8.52984">
        <ele>1713</ele>
        <time>2021-08-11T09:34:15.419Z</time>
      </trkpt>
      <trkpt lat="46.88168" lon="8.52983">
        <ele>1713</ele>
        <time>2021-08-11T09:34:16.418Z</time>
      </trkpt>
      <trkpt lat="46.88167" lon="8.52982">
        <ele>1713</ele>
        <time>2021-08-11T09:34:17.419Z</time>
      </trkpt>
      <trkpt lat="46.88166" lon="8.52982">
        <ele>1713</ele>
        <time>2021-08-11T09:34:18.419Z</time>
      </trkpt>
      <trkpt lat="46.88165" lon="8.5298">
        <ele>1713</ele>
        <time>2021-08-11T09:34:19.419Z</time>
      </trkpt>
      <trkpt lat="46.88165" lon="8.52979">
        <ele>1713</ele>
        <time>2021-08-11T09:34:20.418Z</time>
      </trkpt>
      <trkpt lat="46.88164" lon="8.52978">
        <ele>1713</ele>
        <time>2021-08-11T09:34:21.419Z</time>
      </trkpt>
      <trkpt lat="46.88163" lon="8.52977">
        <ele>1712</ele>
        <time>2021-08-11T09:34:22.419Z</time>
      </trkpt>
      <trkpt lat="46.88162" lon="8.52977">
        <ele>1712</ele>
        <time>2021-08-11T09:34:23.418Z</time>
      </trkpt>
      <trkpt lat="46.88161" lon="8.52976">
        <ele>1712</ele>
        <time>2021-08-11T09:34:24.419Z</time>
      </trkpt>
      <trkpt lat="46.8816" lon="8.52975">
        <ele>1712</ele>
        <time>2021-08-11T09:34:25.419Z</time>
      </trkpt>
      <trkpt lat="46.88159" lon="8.52973">
        <ele>1713</ele>
        <time>2021-08-11T09:34:26.418Z</time>
      </trkpt>
      <trkpt lat="46.88158" lon="8.52972">
        <ele>1713</ele>
        <time>2021-08-11T09:34:27.419Z</time>
      </trkpt>
      <trkpt lat="46.88157" lon="8.52971">
        <ele>1713</ele>
        <time>2021-08-11T09:34:28.419Z</time>
      </trkpt>
      <trkpt lat="46.88156" lon="8.5297">
        <ele>1714</ele>
        <time>2021-08-11T09:34:29.419Z</time>
      </trkpt>
      <trkpt lat="46.88155" lon="8.52969">
        <ele>1714</ele>
        <time>2021-08-11T09:34:30.418Z</time>
      </trkpt>
      <trkpt lat="46.88154" lon="8.52968">
        <ele>1714</ele>
        <time>2021-08-11T09:34:31.418Z</time>
      </trkpt>
      <trkpt lat="46.88153" lon="8.52967">
        <ele>1714</ele>
        <time>2021-08-11T09:34:32.418Z</time>
      </trkpt>
      <trkpt lat="46.88152" lon="8.52966">
        <ele>1714</ele>
        <time>2021-08-11T09:34:33.418Z</time>
      </trkpt>
      <trkpt lat="46.88151" lon="8.52965">
        <ele>1714</ele>
        <time>2021-08-11T09:34:34.419Z</time>
      </trkpt>
      <trkpt lat="46.88151" lon="8.52963">
        <ele>1714</ele>
        <time>2021-08-11T09:34:35.419Z</time>
      </trkpt>
      <trkpt lat="46.8815" lon="8.52962">
        <ele>1714</ele>
        <time>2021-08-11T09:34:36.419Z</time>
      </trkpt>
      <trkpt lat="46.88149" lon="8.5296">
        <ele>1714</ele>
        <time>2021-08-11T09:34:37.419Z</time>
      </trkpt>
      <trkpt lat="46.88149" lon="8.52959">
        <ele>1714</ele>
        <time>2021-08-11T09:34:38.418Z</time>
      </trkpt>
      <trkpt lat="46.88149" lon="8.52957">
        <ele>1714</ele>
        <time>2021-08-11T09:34:39.419Z</time>
      </trkpt>
      <trkpt lat="46.88148" lon="8.52955">
        <ele>1715</ele>
        <time>2021-08-11T09:34:40.419Z</time>
      </trkpt>
      <trkpt lat="46.88147" lon="8.52953">
        <ele>1714</ele>
        <time>2021-08-11T09:34:41.419Z</time>
      </trkpt>
      <trkpt lat="46.88147" lon="8.52952">
        <ele>1714</ele>
        <time>2021-08-11T09:34:42.419Z</time>
      </trkpt>
      <trkpt lat="46.88146" lon="8.52951">
        <ele>1714</ele>
        <time>2021-08-11T09:34:43.419Z</time>
      </trkpt>
      <trkpt lat="46.88146" lon="8.5295">
        <ele>1713</ele>
        <time>2021-08-11T09:34:44.419Z</time>
      </trkpt>
      <trkpt lat="46.88145" lon="8.52949">
        <ele>1713</ele>
        <time>2021-08-11T09:34:45.419Z</time>
      </trkpt>
      <trkpt lat="46.88145" lon="8.52947">
        <ele>1713</ele>
        <time>2021-08-11T09:34:46.419Z</time>
      </trkpt>
      <trkpt lat="46.88144" lon="8.52946">
        <ele>1713</ele>
        <time>2021-08-11T09:34:47.418Z</time>
      </trkpt>
      <trkpt lat="46.88143" lon="8.52945">
        <ele>1713</ele>
        <time>2021-08-11T09:34:48.419Z</time>
      </trkpt>
      <trkpt lat="46.88143" lon="8.52944">
        <ele>1714</ele>
        <time>2021-08-11T09:34:49.418Z</time>
      </trkpt>
      <trkpt lat="46.88142" lon="8.52943">
        <ele>1714</ele>
        <time>2021-08-11T09:34:50.419Z</time>
      </trkpt>
      <trkpt lat="46.88141" lon="8.52942">
        <ele>1714</ele>
        <time>2021-08-11T09:34:51.418Z</time>
      </trkpt>
      <trkpt lat="46.8814" lon="8.52941">
        <ele>1714</ele>
        <time>2021-08-11T09:34:52.419Z</time>
      </trkpt>
      <trkpt lat="46.8814" lon="8.5294">
        <ele>1714</ele>
        <time>2021-08-11T09:34:53.419Z</time>
      </trkpt>
      <trkpt lat="46.88139" lon="8.52939">
        <ele>1715</ele>
        <time>2021-08-11T09:34:54.419Z</time>
      </trkpt>
      <trkpt lat="46.88139" lon="8.52938">
        <ele>1715</ele>
        <time>2021-08-11T09:34:55.419Z</time>
      </trkpt>
      <trkpt lat="46.88139" lon="8.52937">
        <ele>1715</ele>
        <time>2021-08-11T09:34:56.418Z</time>
      </trkpt>
      <trkpt lat="46.88138" lon="8.52936">
        <ele>1715</ele>
        <time>2021-08-11T09:34:57.419Z</time>
      </trkpt>
      <trkpt lat="46.88137" lon="8.52935">
        <ele>1715</ele>
        <time>2021-08-11T09:34:58.419Z</time>
      </trkpt>
      <trkpt lat="46.88136" lon="8.52933">
        <ele>1715</ele>
        <time>2021-08-11T09:34:59.419Z</time>
      </trkpt>
      <trkpt lat="46.88135" lon="8.52932">
        <ele>1715</ele>
        <time>2021-08-11T09:35:00.419Z</time>
      </trkpt>
      <trkpt lat="46.88135" lon="8.5293">
        <ele>1715</ele>
        <time>2021-08-11T09:35:01.419Z</time>
      </trkpt>
      <trkpt lat="46.88134" lon="8.5293">
        <ele>1716</ele>
        <time>2021-08-11T09:35:02.418Z</time>
      </trkpt>
      <trkpt lat="46.88133" lon="8.52929">
        <ele>1716</ele>
        <time>2021-08-11T09:35:03.419Z</time>
      </trkpt>
      <trkpt lat="46.88132" lon="8.52929">
        <ele>1716</ele>
        <time>2021-08-11T09:35:04.419Z</time>
      </trkpt>
      <trkpt lat="46.88131" lon="8.52928">
        <ele>1716</ele>
        <time>2021-08-11T09:35:05.419Z</time>
      </trkpt>
      <trkpt lat="46.8813" lon="8.52928">
        <ele>1716</ele>
        <time>2021-08-11T09:35:06.418Z</time>
      </trkpt>
      <trkpt lat="46.88129" lon="8.52928">
        <ele>1716</ele>
        <time>2021-08-11T09:35:07.418Z</time>
      </trkpt>
      <trkpt lat="46.88128" lon="8.52928">
        <ele>1715</ele>
        <time>2021-08-11T09:35:08.419Z</time>
      </trkpt>
      <trkpt lat="46.88127" lon="8.52927">
        <ele>1715</ele>
        <time>2021-08-11T09:35:09.418Z</time>
      </trkpt>
      <trkpt lat="46.88125" lon="8.52926">
        <ele>1715</ele>
        <time>2021-08-11T09:35:10.419Z</time>
      </trkpt>
      <trkpt lat="46.88125" lon="8.52925">
        <ele>1715</ele>
        <time>2021-08-11T09:35:11.419Z</time>
      </trkpt>
      <trkpt lat="46.88124" lon="8.52925">
        <ele>1715</ele>
        <time>2021-08-11T09:35:12.419Z</time>
      </trkpt>
      <trkpt lat="46.88122" lon="8.52925">
        <ele>1715</ele>
        <time>2021-08-11T09:35:13.419Z</time>
      </trkpt>
      <trkpt lat="46.88121" lon="8.52924">
        <ele>1715</ele>
        <time>2021-08-11T09:35:14.418Z</time>
      </trkpt>
      <trkpt lat="46.8812" lon="8.52923">
        <ele>1715</ele>
        <time>2021-08-11T09:35:15.419Z</time>
      </trkpt>
      <trkpt lat="46.88119" lon="8.52923">
        <ele>1716</ele>
        <time>2021-08-11T09:35:16.419Z</time>
      </trkpt>
      <trkpt lat="46.88117" lon="8.52922">
        <ele>1716</ele>
        <time>2021-08-11T09:35:17.418Z</time>
      </trkpt>
      <trkpt lat="46.88116" lon="8.52921">
        <ele>1716</ele>
        <time>2021-08-11T09:35:18.419Z</time>
      </trkpt>
      <trkpt lat="46.88115" lon="8.5292">
        <ele>1716</ele>
        <time>2021-08-11T09:35:19.418Z</time>
      </trkpt>
      <trkpt lat="46.88115" lon="8.52919">
        <ele>1717</ele>
        <time>2021-08-11T09:35:20.419Z</time>
      </trkpt>
      <trkpt lat="46.88114" lon="8.52918">
        <ele>1717</ele>
        <time>2021-08-11T09:35:21.419Z</time>
      </trkpt>
      <trkpt lat="46.88112" lon="8.52917">
        <ele>1717</ele>
        <time>2021-08-11T09:35:22.419Z</time>
      </trkpt>
      <trkpt lat="46.88111" lon="8.52917">
        <ele>1718</ele>
        <time>2021-08-11T09:35:23.418Z</time>
      </trkpt>
      <trkpt lat="46.8811" lon="8.52916">
        <ele>1718</ele>
        <time>2021-08-11T09:35:24.418Z</time>
      </trkpt>
      <trkpt lat="46.88109" lon="8.52915">
        <ele>1718</ele>
        <time>2021-08-11T09:35:25.419Z</time>
      </trkpt>
      <trkpt lat="46.88108" lon="8.52915">
        <ele>1717</ele>
        <time>2021-08-11T09:35:26.419Z</time>
      </trkpt>
      <trkpt lat="46.88106" lon="8.52915">
        <ele>1717</ele>
        <time>2021-08-11T09:35:27.419Z</time>
      </trkpt>
      <trkpt lat="46.88106" lon="8.52914">
        <ele>1716</ele>
        <time>2021-08-11T09:35:28.419Z</time>
      </trkpt>
      <trkpt lat="46.88105" lon="8.52914">
        <ele>1715</ele>
        <time>2021-08-11T09:35:29.419Z</time>
      </trkpt>
      <trkpt lat="46.88105" lon="8.52913">
        <ele>1714</ele>
        <time>2021-08-11T09:35:30.419Z</time>
      </trkpt>
      <trkpt lat="46.88105" lon="8.52911">
        <ele>1713</ele>
        <time>2021-08-11T09:35:31.419Z</time>
      </trkpt>
      <trkpt lat="46.88104" lon="8.5291">
        <ele>1713</ele>
        <time>2021-08-11T09:35:32.419Z</time>
      </trkpt>
      <trkpt lat="46.88105" lon="8.52909">
        <ele>1713</ele>
        <time>2021-08-11T09:35:33.418Z</time>
      </trkpt>
      <trkpt lat="46.88104" lon="8.52907">
        <ele>1712</ele>
        <time>2021-08-11T09:35:34.419Z</time>
      </trkpt>
      <trkpt lat="46.88103" lon="8.52906">
        <ele>1712</ele>
        <time>2021-08-11T09:35:35.418Z</time>
      </trkpt>
      <trkpt lat="46.88103" lon="8.52906">
        <ele>1712</ele>
        <time>2021-08-11T09:35:36.419Z</time>
      </trkpt>
      <trkpt lat="46.88102" lon="8.52906">
        <ele>1712</ele>
        <time>2021-08-11T09:35:37.419Z</time>
      </trkpt>
      <trkpt lat="46.88101" lon="8.52905">
        <ele>1711</ele>
        <time>2021-08-11T09:35:38.419Z</time>
      </trkpt>
      <trkpt lat="46.881" lon="8.52904">
        <ele>1711</ele>
        <time>2021-08-11T09:35:39.418Z</time>
      </trkpt>
      <trkpt lat="46.88099" lon="8.52903">
        <ele>1712</ele>
        <time>2021-08-11T09:35:40.419Z</time>
      </trkpt>
      <trkpt lat="46.88098" lon="8.52902">
        <ele>1712</ele>
        <time>2021-08-11T09:35:41.419Z</time>
      </trkpt>
      <trkpt lat="46.88097" lon="8.52901">
        <ele>1712</ele>
        <time>2021-08-11T09:35:42.419Z</time>
      </trkpt>
      <trkpt lat="46.88096" lon="8.529">
        <ele>1712</ele>
        <time>2021-08-11T09:35:43.419Z</time>
      </trkpt>
      <trkpt lat="46.88095" lon="8.52899">
        <ele>1713</ele>
        <time>2021-08-11T09:35:44.418Z</time>
      </trkpt>
      <trkpt lat="46.88094" lon="8.52899">
        <ele>1713</ele>
        <time>2021-08-11T09:35:45.419Z</time>
      </trkpt>
      <trkpt lat="46.88093" lon="8.52898">
        <ele>1714</ele>
        <time>2021-08-11T09:35:46.419Z</time>
      </trkpt>
      <trkpt lat="46.88092" lon="8.52897">
        <ele>1714</ele>
        <time>2021-08-11T09:35:47.419Z</time>
      </trkpt>
      <trkpt lat="46.88091" lon="8.52896">
        <ele>1715</ele>
        <time>2021-08-11T09:35:48.419Z</time>
      </trkpt>
      <trkpt lat="46.8809" lon="8.52896">
        <ele>1715</ele>
        <time>2021-08-11T09:35:49.419Z</time>
      </trkpt>
      <trkpt lat="46.88089" lon="8.52895">
        <ele>1716</ele>
        <time>2021-08-11T09:35:50.419Z</time>
      </trkpt>
      <trkpt lat="46.88088" lon="8.52894">
        <ele>1716</ele>
        <time>2021-08-11T09:35:51.419Z</time>
      </trkpt>
      <trkpt lat="46.88087" lon="8.52894">
        <ele>1717</ele>
        <time>2021-08-11T09:35:52.419Z</time>
      </trkpt>
      <trkpt lat="46.88086" lon="8.52893">
        <ele>1717</ele>
        <time>2021-08-11T09:35:53.419Z</time>
      </trkpt>
      <trkpt lat="46.88085" lon="8.52892">
        <ele>1717</ele>
        <time>2021-08-11T09:35:54.418Z</time>
      </trkpt>
      <trkpt lat="46.88085" lon="8.52892">
        <ele>1717</ele>
        <time>2021-08-11T09:35:55.418Z</time>
      </trkpt>
      <trkpt lat="46.88084" lon="8.52891">
        <ele>1717</ele>
        <time>2021-08-11T09:35:56.419Z</time>
      </trkpt>
      <trkpt lat="46.88083" lon="8.52891">
        <ele>1716</ele>
        <time>2021-08-11T09:35:57.419Z</time>
      </trkpt>
      <trkpt lat="46.88082" lon="8.5289">
        <ele>1716</ele>
        <time>2021-08-11T09:35:58.419Z</time>
      </trkpt>
      <trkpt lat="46.88082" lon="8.52889">
        <ele>1715</ele>
        <time>2021-08-11T09:35:59.418Z</time>
      </trkpt>
      <trkpt lat="46.88081" lon="8.52889">
        <ele>1715</ele>
        <time>2021-08-11T09:36:00.419Z</time>
      </trkpt>
      <trkpt lat="46.8808" lon="8.52888">
        <ele>1714</ele>
        <time>2021-08-11T09:36:01.419Z</time>
      </trkpt>
      <trkpt lat="46.8808" lon="8.52887">
        <ele>1714</ele>
        <time>2021-08-11T09:36:02.419Z</time>
      </trkpt>
      <trkpt lat="46.88079" lon="8.52887">
        <ele>1713</ele>
        <time>2021-08-11T09:36:03.419Z</time>
      </trkpt>
      <trkpt lat="46.88079" lon="8.52887">
        <ele>1713</ele>
        <time>2021-08-11T09:36:04.419Z</time>
      </trkpt>
      <trkpt lat="46.88078" lon="8.52887">
        <ele>1712</ele>
        <time>2021-08-11T09:36:05.419Z</time>
      </trkpt>
      <trkpt lat="46.88078" lon="8.52887">
        <ele>1712</ele>
        <time>2021-08-11T09:36:06.419Z</time>
      </trkpt>
      <trkpt lat="46.88078" lon="8.52886">
        <ele>1712</ele>
        <time>2021-08-11T09:36:07.418Z</time>
      </trkpt>
      <trkpt lat="46.88078" lon="8.52886">
        <ele>1711</ele>
        <time>2021-08-11T09:36:08.419Z</time>
      </trkpt>
      <trkpt lat="46.88078" lon="8.52886">
        <ele>1711</ele>
        <time>2021-08-11T09:36:09.419Z</time>
      </trkpt>
      <trkpt lat="46.88078" lon="8.52885">
        <ele>1711</ele>
        <time>2021-08-11T09:36:10.421Z</time>
      </trkpt>
      <trkpt lat="46.88078" lon="8.52884">
        <ele>1710</ele>
        <time>2021-08-11T09:36:11.420Z</time>
      </trkpt>
      <trkpt lat="46.88078" lon="8.52884">
        <ele>1710</ele>
        <time>2021-08-11T09:36:12.420Z</time>
      </trkpt>
      <trkpt lat="46.88077" lon="8.52883">
        <ele>1709</ele>
        <time>2021-08-11T09:36:13.420Z</time>
      </trkpt>
      <trkpt lat="46.88077" lon="8.52883">
        <ele>1709</ele>
        <time>2021-08-11T09:36:14.421Z</time>
      </trkpt>
      <trkpt lat="46.88076" lon="8.52882">
        <ele>1708</ele>
        <time>2021-08-11T09:36:15.421Z</time>
      </trkpt>
      <trkpt lat="46.88076" lon="8.52881">
        <ele>1708</ele>
        <time>2021-08-11T09:36:16.420Z</time>
      </trkpt>
      <trkpt lat="46.88075" lon="8.52881">
        <ele>1709</ele>
        <time>2021-08-11T09:36:17.420Z</time>
      </trkpt>
      <trkpt lat="46.88075" lon="8.5288">
        <ele>1709</ele>
        <time>2021-08-11T09:36:18.420Z</time>
      </trkpt>
      <trkpt lat="46.88075" lon="8.52878">
        <ele>1709</ele>
        <time>2021-08-11T09:36:19.421Z</time>
      </trkpt>
      <trkpt lat="46.88074" lon="8.52877">
        <ele>1709</ele>
        <time>2021-08-11T09:36:20.420Z</time>
      </trkpt>
      <trkpt lat="46.88075" lon="8.52877">
        <ele>1709</ele>
        <time>2021-08-11T09:36:21.420Z</time>
      </trkpt>
      <trkpt lat="46.88074" lon="8.52878">
        <ele>1709</ele>
        <time>2021-08-11T09:36:22.420Z</time>
      </trkpt>
      <trkpt lat="46.88073" lon="8.52878">
        <ele>1709</ele>
        <time>2021-08-11T09:36:23.421Z</time>
      </trkpt>
      <trkpt lat="46.88073" lon="8.52879">
        <ele>1708</ele>
        <time>2021-08-11T09:36:24.420Z</time>
      </trkpt>
      <trkpt lat="46.88073" lon="8.52879">
        <ele>1708</ele>
        <time>2021-08-11T09:36:25.420Z</time>
      </trkpt>
      <trkpt lat="46.88073" lon="8.52878">
        <ele>1707</ele>
        <time>2021-08-11T09:36:26.421Z</time>
      </trkpt>
      <trkpt lat="46.88072" lon="8.52877">
        <ele>1706</ele>
        <time>2021-08-11T09:36:27.421Z</time>
      </trkpt>
      <trkpt lat="46.88072" lon="8.52875">
        <ele>1706</ele>
        <time>2021-08-11T09:36:28.420Z</time>
      </trkpt>
      <trkpt lat="46.88069" lon="8.52874">
        <ele>1705</ele>
        <time>2021-08-11T09:36:29.420Z</time>
      </trkpt>
      <trkpt lat="46.88069" lon="8.52873">
        <ele>1704</ele>
        <time>2021-08-11T09:36:30.420Z</time>
      </trkpt>
      <trkpt lat="46.88068" lon="8.52872">
        <ele>1704</ele>
        <time>2021-08-11T09:36:31.421Z</time>
      </trkpt>
      <trkpt lat="46.88068" lon="8.52871">
        <ele>1704</ele>
        <time>2021-08-11T09:36:32.420Z</time>
      </trkpt>
      <trkpt lat="46.88067" lon="8.5287">
        <ele>1703</ele>
        <time>2021-08-11T09:36:33.420Z</time>
      </trkpt>
      <trkpt lat="46.88067" lon="8.52869">
        <ele>1703</ele>
        <time>2021-08-11T09:36:34.421Z</time>
      </trkpt>
      <trkpt lat="46.88066" lon="8.52868">
        <ele>1703</ele>
        <time>2021-08-11T09:36:35.420Z</time>
      </trkpt>
      <trkpt lat="46.88065" lon="8.52868">
        <ele>1703</ele>
        <time>2021-08-11T09:36:36.420Z</time>
      </trkpt>
      <trkpt lat="46.88064" lon="8.52867">
        <ele>1703</ele>
        <time>2021-08-11T09:36:37.421Z</time>
      </trkpt>
      <trkpt lat="46.88063" lon="8.52867">
        <ele>1703</ele>
        <time>2021-08-11T09:36:38.421Z</time>
      </trkpt>
      <trkpt lat="46.88063" lon="8.52867">
        <ele>1703</ele>
        <time>2021-08-11T09:36:39.420Z</time>
      </trkpt>
      <trkpt lat="46.88061" lon="8.52866">
        <ele>1703</ele>
        <time>2021-08-11T09:36:40.420Z</time>
      </trkpt>
      <trkpt lat="46.88061" lon="8.52865">
        <ele>1703</ele>
        <time>2021-08-11T09:36:41.420Z</time>
      </trkpt>
      <trkpt lat="46.8806" lon="8.52863">
        <ele>1703</ele>
        <time>2021-08-11T09:36:42.421Z</time>
      </trkpt>
      <trkpt lat="46.88059" lon="8.52862">
        <ele>1702</ele>
        <time>2021-08-11T09:36:43.420Z</time>
      </trkpt>
      <trkpt lat="46.88058" lon="8.52862">
        <ele>1702</ele>
        <time>2021-08-11T09:36:44.420Z</time>
      </trkpt>
      <trkpt lat="46.88057" lon="8.52861">
        <ele>1702</ele>
        <time>2021-08-11T09:36:45.420Z</time>
      </trkpt>
      <trkpt lat="46.88057" lon="8.5286">
        <ele>1702</ele>
        <time>2021-08-11T09:36:46.420Z</time>
      </trkpt>
      <trkpt lat="46.88056" lon="8.52859">
        <ele>1702</ele>
        <time>2021-08-11T09:36:47.420Z</time>
      </trkpt>
      <trkpt lat="46.88055" lon="8.52858">
        <ele>1702</ele>
        <time>2021-08-11T09:36:48.420Z</time>
      </trkpt>
      <trkpt lat="46.88054" lon="8.52857">
        <ele>1702</ele>
        <time>2021-08-11T09:36:49.420Z</time>
      </trkpt>
      <trkpt lat="46.88054" lon="8.52856">
        <ele>1703</ele>
        <time>2021-08-11T09:36:50.420Z</time>
      </trkpt>
      <trkpt lat="46.88053" lon="8.52855">
        <ele>1703</ele>
        <time>2021-08-11T09:36:51.420Z</time>
      </trkpt>
      <trkpt lat="46.88052" lon="8.52854">
        <ele>1703</ele>
        <time>2021-08-11T09:36:52.421Z</time>
      </trkpt>
      <trkpt lat="46.88052" lon="8.52853">
        <ele>1703</ele>
        <time>2021-08-11T09:36:53.420Z</time>
      </trkpt>
      <trkpt lat="46.88051" lon="8.52852">
        <ele>1704</ele>
        <time>2021-08-11T09:36:54.420Z</time>
      </trkpt>
      <trkpt lat="46.8805" lon="8.52851">
        <ele>1704</ele>
        <time>2021-08-11T09:36:55.420Z</time>
      </trkpt>
      <trkpt lat="46.88049" lon="8.52849">
        <ele>1704</ele>
        <time>2021-08-11T09:36:56.421Z</time>
      </trkpt>
      <trkpt lat="46.88048" lon="8.52848">
        <ele>1704</ele>
        <time>2021-08-11T09:36:57.420Z</time>
      </trkpt>
      <trkpt lat="46.88047" lon="8.52847">
        <ele>1704</ele>
        <time>2021-08-11T09:36:58.421Z</time>
      </trkpt>
      <trkpt lat="46.88047" lon="8.52845">
        <ele>1704</ele>
        <time>2021-08-11T09:36:59.420Z</time>
      </trkpt>
      <trkpt lat="46.88046" lon="8.52844">
        <ele>1705</ele>
        <time>2021-08-11T09:37:00.420Z</time>
      </trkpt>
      <trkpt lat="46.88046" lon="8.52843">
        <ele>1705</ele>
        <time>2021-08-11T09:37:01.420Z</time>
      </trkpt>
      <trkpt lat="46.88045" lon="8.52841">
        <ele>1704</ele>
        <time>2021-08-11T09:37:02.420Z</time>
      </trkpt>
      <trkpt lat="46.88044" lon="8.52841">
        <ele>1704</ele>
        <time>2021-08-11T09:37:03.421Z</time>
      </trkpt>
      <trkpt lat="46.88043" lon="8.52839">
        <ele>1704</ele>
        <time>2021-08-11T09:37:04.420Z</time>
      </trkpt>
      <trkpt lat="46.88043" lon="8.52838">
        <ele>1703</ele>
        <time>2021-08-11T09:37:05.421Z</time>
      </trkpt>
      <trkpt lat="46.88041" lon="8.52837">
        <ele>1703</ele>
        <time>2021-08-11T09:37:06.420Z</time>
      </trkpt>
      <trkpt lat="46.88041" lon="8.52837">
        <ele>1703</ele>
        <time>2021-08-11T09:37:07.421Z</time>
      </trkpt>
      <trkpt lat="46.88039" lon="8.52835">
        <ele>1704</ele>
        <time>2021-08-11T09:37:08.421Z</time>
      </trkpt>
      <trkpt lat="46.88038" lon="8.52834">
        <ele>1704</ele>
        <time>2021-08-11T09:37:09.420Z</time>
      </trkpt>
      <trkpt lat="46.88037" lon="8.52833">
        <ele>1704</ele>
        <time>2021-08-11T09:37:10.421Z</time>
      </trkpt>
      <trkpt lat="46.88037" lon="8.52832">
        <ele>1704</ele>
        <time>2021-08-11T09:37:11.421Z</time>
      </trkpt>
      <trkpt lat="46.88036" lon="8.52831">
        <ele>1704</ele>
        <time>2021-08-11T09:37:12.421Z</time>
      </trkpt>
      <trkpt lat="46.88035" lon="8.52831">
        <ele>1704</ele>
        <time>2021-08-11T09:37:13.420Z</time>
      </trkpt>
      <trkpt lat="46.88034" lon="8.52831">
        <ele>1704</ele>
        <time>2021-08-11T09:37:14.421Z</time>
      </trkpt>
      <trkpt lat="46.88034" lon="8.5283">
        <ele>1704</ele>
        <time>2021-08-11T09:37:15.421Z</time>
      </trkpt>
      <trkpt lat="46.88033" lon="8.52829">
        <ele>1705</ele>
        <time>2021-08-11T09:37:16.421Z</time>
      </trkpt>
      <trkpt lat="46.88033" lon="8.52829">
        <ele>1705</ele>
        <time>2021-08-11T09:37:17.421Z</time>
      </trkpt>
      <trkpt lat="46.88032" lon="8.52829">
        <ele>1705</ele>
        <time>2021-08-11T09:37:18.421Z</time>
      </trkpt>
      <trkpt lat="46.88031" lon="8.52829">
        <ele>1705</ele>
        <time>2021-08-11T09:37:19.421Z</time>
      </trkpt>
      <trkpt lat="46.88031" lon="8.52829">
        <ele>1705</ele>
        <time>2021-08-11T09:37:20.421Z</time>
      </trkpt>
      <trkpt lat="46.8803" lon="8.52829">
        <ele>1705</ele>
        <time>2021-08-11T09:37:21.421Z</time>
      </trkpt>
      <trkpt lat="46.8803" lon="8.52829">
        <ele>1705</ele>
        <time>2021-08-11T09:37:22.420Z</time>
      </trkpt>
      <trkpt lat="46.88029" lon="8.52828">
        <ele>1705</ele>
        <time>2021-08-11T09:37:23.421Z</time>
      </trkpt>
      <trkpt lat="46.88029" lon="8.52828">
        <ele>1705</ele>
        <time>2021-08-11T09:37:24.421Z</time>
      </trkpt>
      <trkpt lat="46.88028" lon="8.52828">
        <ele>1705</ele>
        <time>2021-08-11T09:37:25.421Z</time>
      </trkpt>
      <trkpt lat="46.88028" lon="8.52828">
        <ele>1705</ele>
        <time>2021-08-11T09:37:26.420Z</time>
      </trkpt>
      <trkpt lat="46.88027" lon="8.52828">
        <ele>1705</ele>
        <time>2021-08-11T09:37:27.420Z</time>
      </trkpt>
      <trkpt lat="46.88026" lon="8.52828">
        <ele>1705</ele>
        <time>2021-08-11T09:37:28.421Z</time>
      </trkpt>
      <trkpt lat="46.88026" lon="8.52828">
        <ele>1705</ele>
        <time>2021-08-11T09:37:29.421Z</time>
      </trkpt>
      <trkpt lat="46.88026" lon="8.52828">
        <ele>1705</ele>
        <time>2021-08-11T09:37:30.421Z</time>
      </trkpt>
      <trkpt lat="46.88027" lon="8.52828">
        <ele>1704</ele>
        <time>2021-08-11T09:37:31.420Z</time>
      </trkpt>
      <trkpt lat="46.88026" lon="8.52828">
        <ele>1704</ele>
        <time>2021-08-11T09:37:32.421Z</time>
      </trkpt>
      <trkpt lat="46.88026" lon="8.52829">
        <ele>1703</ele>
        <time>2021-08-11T09:37:33.421Z</time>
      </trkpt>
      <trkpt lat="46.88025" lon="8.52829">
        <ele>1702</ele>
        <time>2021-08-11T09:37:34.421Z</time>
      </trkpt>
      <trkpt lat="46.88025" lon="8.52829">
        <ele>1702</ele>
        <time>2021-08-11T09:37:35.421Z</time>
      </trkpt>
      <trkpt lat="46.88025" lon="8.52828">
        <ele>1701</ele>
        <time>2021-08-11T09:37:36.420Z</time>
      </trkpt>
      <trkpt lat="46.88024" lon="8.52828">
        <ele>1701</ele>
        <time>2021-08-11T09:37:37.421Z</time>
      </trkpt>
      <trkpt lat="46.88023" lon="8.52827">
        <ele>1700</ele>
        <time>2021-08-11T09:37:38.421Z</time>
      </trkpt>
      <trkpt lat="46.88021" lon="8.52826">
        <ele>1700</ele>
        <time>2021-08-11T09:37:39.421Z</time>
      </trkpt>
      <trkpt lat="46.8802" lon="8.52825">
        <ele>1700</ele>
        <time>2021-08-11T09:37:40.421Z</time>
      </trkpt>
      <trkpt lat="46.88019" lon="8.52824">
        <ele>1700</ele>
        <time>2021-08-11T09:37:41.420Z</time>
      </trkpt>
      <trkpt lat="46.88019" lon="8.52824">
        <ele>1700</ele>
        <time>2021-08-11T09:37:42.420Z</time>
      </trkpt>
      <trkpt lat="46.88018" lon="8.52824">
        <ele>1699</ele>
        <time>2021-08-11T09:37:43.421Z</time>
      </trkpt>
      <trkpt lat="46.88017" lon="8.52824">
        <ele>1699</ele>
        <time>2021-08-11T09:37:44.421Z</time>
      </trkpt>
      <trkpt lat="46.88017" lon="8.52823">
        <ele>1699</ele>
        <time>2021-08-11T09:37:45.420Z</time>
      </trkpt>
      <trkpt lat="46.88016" lon="8.52822">
        <ele>1700</ele>
        <time>2021-08-11T09:37:46.420Z</time>
      </trkpt>
      <trkpt lat="46.88016" lon="8.52822">
        <ele>1700</ele>
        <time>2021-08-11T09:37:47.420Z</time>
      </trkpt>
      <trkpt lat="46.88015" lon="8.52821">
        <ele>1700</ele>
        <time>2021-08-11T09:37:48.421Z</time>
      </trkpt>
      <trkpt lat="46.88015" lon="8.52821">
        <ele>1700</ele>
        <time>2021-08-11T09:37:49.421Z</time>
      </trkpt>
      <trkpt lat="46.88014" lon="8.52822">
        <ele>1700</ele>
        <time>2021-08-11T09:37:50.420Z</time>
      </trkpt>
      <trkpt lat="46.88014" lon="8.52822">
        <ele>1696</ele>
        <time>2021-08-11T09:37:51.422Z</time>
      </trkpt>
      <trkpt lat="46.88012" lon="8.52823">
        <ele>1700</ele>
        <time>2021-08-11T09:37:52.422Z</time>
      </trkpt>
      <trkpt lat="46.88012" lon="8.52823">
        <ele>1701</ele>
        <time>2021-08-11T09:37:53.423Z</time>
      </trkpt>
      <trkpt lat="46.88014" lon="8.52824">
        <ele>1700</ele>
        <time>2021-08-11T09:37:54.422Z</time>
      </trkpt>
      <trkpt lat="46.88014" lon="8.52825">
        <ele>1700</ele>
        <time>2021-08-11T09:37:55.423Z</time>
      </trkpt>
      <trkpt lat="46.88014" lon="8.52825">
        <ele>1700</ele>
        <time>2021-08-11T09:37:56.422Z</time>
      </trkpt>
      <trkpt lat="46.88015" lon="8.52823">
        <ele>1702</ele>
        <time>2021-08-11T09:37:57.422Z</time>
      </trkpt>
      <trkpt lat="46.88014" lon="8.52823">
        <ele>1702</ele>
        <time>2021-08-11T09:37:58.422Z</time>
      </trkpt>
      <trkpt lat="46.88014" lon="8.52823">
        <ele>1702</ele>
        <time>2021-08-11T09:37:59.422Z</time>
      </trkpt>
      <trkpt lat="46.88014" lon="8.52823">
        <ele>1703</ele>
        <time>2021-08-11T09:38:00.422Z</time>
      </trkpt>
      <trkpt lat="46.88012" lon="8.52821">
        <ele>1706</ele>
        <time>2021-08-11T09:38:01.424Z</time>
      </trkpt>
      <trkpt lat="46.88012" lon="8.52821">
        <ele>1706</ele>
        <time>2021-08-11T09:38:02.423Z</time>
      </trkpt>
      <trkpt lat="46.88011" lon="8.52821">
        <ele>1706</ele>
        <time>2021-08-11T09:38:03.425Z</time>
      </trkpt>
      <trkpt lat="46.88011" lon="8.5282">
        <ele>1706</ele>
        <time>2021-08-11T09:38:04.425Z</time>
      </trkpt>
      <trkpt lat="46.8801" lon="8.52819">
        <ele>1706</ele>
        <time>2021-08-11T09:38:05.424Z</time>
      </trkpt>
      <trkpt lat="46.8801" lon="8.52819">
        <ele>1706</ele>
        <time>2021-08-11T09:38:06.425Z</time>
      </trkpt>
      <trkpt lat="46.8801" lon="8.52818">
        <ele>1706</ele>
        <time>2021-08-11T09:38:07.425Z</time>
      </trkpt>
      <trkpt lat="46.8801" lon="8.52817">
        <ele>1706</ele>
        <time>2021-08-11T09:38:08.424Z</time>
      </trkpt>
      <trkpt lat="46.88011" lon="8.52816">
        <ele>1706</ele>
        <time>2021-08-11T09:38:09.425Z</time>
      </trkpt>
      <trkpt lat="46.88013" lon="8.52814">
        <ele>1706</ele>
        <time>2021-08-11T09:38:10.425Z</time>
      </trkpt>
      <trkpt lat="46.88014" lon="8.52813">
        <ele>1706</ele>
        <time>2021-08-11T09:38:11.424Z</time>
      </trkpt>
      <trkpt lat="46.88015" lon="8.52812">
        <ele>1706</ele>
        <time>2021-08-11T09:38:12.425Z</time>
      </trkpt>
      <trkpt lat="46.88015" lon="8.52811">
        <ele>1706</ele>
        <time>2021-08-11T09:38:13.425Z</time>
      </trkpt>
      <trkpt lat="46.88015" lon="8.52811">
        <ele>1706</ele>
        <time>2021-08-11T09:38:14.425Z</time>
      </trkpt>
      <trkpt lat="46.88015" lon="8.52809">
        <ele>1706</ele>
        <time>2021-08-11T09:38:15.425Z</time>
      </trkpt>
      <trkpt lat="46.88015" lon="8.52809">
        <ele>1706</ele>
        <time>2021-08-11T09:38:16.424Z</time>
      </trkpt>
      <trkpt lat="46.88014" lon="8.52807">
        <ele>1706</ele>
        <time>2021-08-11T09:38:17.425Z</time>
      </trkpt>
      <trkpt lat="46.88014" lon="8.52806">
        <ele>1706</ele>
        <time>2021-08-11T09:38:18.425Z</time>
      </trkpt>
      <trkpt lat="46.88013" lon="8.52806">
        <ele>1706</ele>
        <time>2021-08-11T09:38:19.424Z</time>
      </trkpt>
      <trkpt lat="46.88013" lon="8.52806">
        <ele>1705</ele>
        <time>2021-08-11T09:38:20.425Z</time>
      </trkpt>
      <trkpt lat="46.88012" lon="8.52806">
        <ele>1705</ele>
        <time>2021-08-11T09:38:21.424Z</time>
      </trkpt>
      <trkpt lat="46.88012" lon="8.52806">
        <ele>1704</ele>
        <time>2021-08-11T09:38:22.425Z</time>
      </trkpt>
      <trkpt lat="46.88011" lon="8.52807">
        <ele>1704</ele>
        <time>2021-08-11T09:38:23.425Z</time>
      </trkpt>
      <trkpt lat="46.8801" lon="8.52807">
        <ele>1703</ele>
        <time>2021-08-11T09:38:24.425Z</time>
      </trkpt>
      <trkpt lat="46.88009" lon="8.52806">
        <ele>1702</ele>
        <time>2021-08-11T09:38:25.425Z</time>
      </trkpt>
      <trkpt lat="46.88009" lon="8.52805">
        <ele>1702</ele>
        <time>2021-08-11T09:38:26.425Z</time>
      </trkpt>
      <trkpt lat="46.88009" lon="8.52805">
        <ele>1702</ele>
        <time>2021-08-11T09:38:27.425Z</time>
      </trkpt>
      <trkpt lat="46.88007" lon="8.52805">
        <ele>1698</ele>
        <time>2021-08-11T09:38:28.425Z</time>
      </trkpt>
      <trkpt lat="46.88007" lon="8.52805">
        <ele>1697</ele>
        <time>2021-08-11T09:38:29.425Z</time>
      </trkpt>
      <trkpt lat="46.88007" lon="8.52804">
        <ele>1697</ele>
        <time>2021-08-11T09:38:30.424Z</time>
      </trkpt>
      <trkpt lat="46.88006" lon="8.52804">
        <ele>1697</ele>
        <time>2021-08-11T09:38:31.424Z</time>
      </trkpt>
      <trkpt lat="46.88005" lon="8.52803">
        <ele>1697</ele>
        <time>2021-08-11T09:38:32.424Z</time>
      </trkpt>
      <trkpt lat="46.88005" lon="8.52803">
        <ele>1697</ele>
        <time>2021-08-11T09:38:33.425Z</time>
      </trkpt>
      <trkpt lat="46.88005" lon="8.52803">
        <ele>1697</ele>
        <time>2021-08-11T09:38:34.424Z</time>
      </trkpt>
      <trkpt lat="46.88005" lon="8.52804">
        <ele>1697</ele>
        <time>2021-08-11T09:38:35.425Z</time>
      </trkpt>
      <trkpt lat="46.88005" lon="8.52804">
        <ele>1697</ele>
        <time>2021-08-11T09:38:36.424Z</time>
      </trkpt>
      <trkpt lat="46.88005" lon="8.52805">
        <ele>1697</ele>
        <time>2021-08-11T09:38:37.424Z</time>
      </trkpt>
      <trkpt lat="46.88005" lon="8.52805">
        <ele>1697</ele>
        <time>2021-08-11T09:38:38.425Z</time>
      </trkpt>
      <trkpt lat="46.88005" lon="8.52805">
        <ele>1697</ele>
        <time>2021-08-11T09:38:39.424Z</time>
      </trkpt>
      <trkpt lat="46.88006" lon="8.52806">
        <ele>1697</ele>
        <time>2021-08-11T09:38:40.425Z</time>
      </trkpt>
      <trkpt lat="46.88006" lon="8.52806">
        <ele>1697</ele>
        <time>2021-08-11T09:38:41.424Z</time>
      </trkpt>
      <trkpt lat="46.88006" lon="8.52807">
        <ele>1696</ele>
        <time>2021-08-11T09:38:42.424Z</time>
      </trkpt>
      <trkpt lat="46.88005" lon="8.52806">
        <ele>1696</ele>
        <time>2021-08-11T09:38:43.426Z</time>
      </trkpt>
      <trkpt lat="46.88007" lon="8.52806">
        <ele>1696</ele>
        <time>2021-08-11T09:38:44.427Z</time>
      </trkpt>
      <trkpt lat="46.88007" lon="8.52806">
        <ele>1697</ele>
        <time>2021-08-11T09:38:45.427Z</time>
      </trkpt>
      <trkpt lat="46.88007" lon="8.52806">
        <ele>1697</ele>
        <time>2021-08-11T09:38:46.426Z</time>
      </trkpt>
      <trkpt lat="46.88007" lon="8.52805">
        <ele>1697</ele>
        <time>2021-08-11T09:38:47.427Z</time>
      </trkpt>
      <trkpt lat="46.88007" lon="8.52805">
        <ele>1698</ele>
        <time>2021-08-11T09:38:48.426Z</time>
      </trkpt>
      <trkpt lat="46.88007" lon="8.52805">
        <ele>1698</ele>
        <time>2021-08-11T09:38:49.427Z</time>
      </trkpt>
      <trkpt lat="46.88012" lon="8.52799">
        <ele>1709</ele>
        <time>2021-08-11T09:38:50.429Z</time>
      </trkpt>
      <trkpt lat="46.88012" lon="8.52798">
        <ele>1709</ele>
        <time>2021-08-11T09:38:51.429Z</time>
      </trkpt>
      <trkpt lat="46.88012" lon="8.52797">
        <ele>1709</ele>
        <time>2021-08-11T09:38:52.428Z</time>
      </trkpt>
      <trkpt lat="46.8801" lon="8.52797">
        <ele>1709</ele>
        <time>2021-08-11T09:38:53.428Z</time>
      </trkpt>
      <trkpt lat="46.88009" lon="8.52797">
        <ele>1709</ele>
        <time>2021-08-11T09:38:54.428Z</time>
      </trkpt>
      <trkpt lat="46.88009" lon="8.52797">
        <ele>1708</ele>
        <time>2021-08-11T09:38:55.428Z</time>
      </trkpt>
      <trkpt lat="46.88007" lon="8.52799">
        <ele>1707</ele>
        <time>2021-08-11T09:38:56.429Z</time>
      </trkpt>
      <trkpt lat="46.88007" lon="8.52799">
        <ele>1706</ele>
        <time>2021-08-11T09:38:57.429Z</time>
      </trkpt>
      <trkpt lat="46.88007" lon="8.528">
        <ele>1706</ele>
        <time>2021-08-11T09:38:58.428Z</time>
      </trkpt>
      <trkpt lat="46.88002" lon="8.52807">
        <ele>1699</ele>
        <time>2021-08-11T09:38:59.430Z</time>
      </trkpt>
      <trkpt lat="46.88002" lon="8.52807">
        <ele>1699</ele>
        <time>2021-08-11T09:39:00.430Z</time>
      </trkpt>
      <trkpt lat="46.88002" lon="8.52808">
        <ele>1699</ele>
        <time>2021-08-11T09:39:01.429Z</time>
      </trkpt>
      <trkpt lat="46.88002" lon="8.52808">
        <ele>1699</ele>
        <time>2021-08-11T09:39:02.429Z</time>
      </trkpt>
      <trkpt lat="46.88002" lon="8.52808">
        <ele>1700</ele>
        <time>2021-08-11T09:39:03.429Z</time>
      </trkpt>
      <trkpt lat="46.88001" lon="8.52808">
        <ele>1697</ele>
        <time>2021-08-11T09:39:04.430Z</time>
      </trkpt>
      <trkpt lat="46.88001" lon="8.52808">
        <ele>1697</ele>
        <time>2021-08-11T09:39:05.430Z</time>
      </trkpt>
      <trkpt lat="46.88" lon="8.52808">
        <ele>1696</ele>
        <time>2021-08-11T09:39:06.429Z</time>
      </trkpt>
      <trkpt lat="46.88002" lon="8.52809">
        <ele>1698</ele>
        <time>2021-08-11T09:39:07.431Z</time>
      </trkpt>
      <trkpt lat="46.88005" lon="8.52812">
        <ele>1697</ele>
        <time>2021-08-11T09:39:08.430Z</time>
      </trkpt>
      <trkpt lat="46.88005" lon="8.52811">
        <ele>1697</ele>
        <time>2021-08-11T09:39:09.430Z</time>
      </trkpt>
      <trkpt lat="46.88005" lon="8.52812">
        <ele>1697</ele>
        <time>2021-08-11T09:39:10.431Z</time>
      </trkpt>
      <trkpt lat="46.88004" lon="8.52809">
        <ele>1697</ele>
        <time>2021-08-11T09:39:11.431Z</time>
      </trkpt>
      <trkpt lat="46.88003" lon="8.52809">
        <ele>1697</ele>
        <time>2021-08-11T09:39:12.432Z</time>
      </trkpt>
      <trkpt lat="46.88003" lon="8.52808">
        <ele>1697</ele>
        <time>2021-08-11T09:39:13.431Z</time>
      </trkpt>
      <trkpt lat="46.88003" lon="8.52808">
        <ele>1698</ele>
        <time>2021-08-11T09:39:14.432Z</time>
      </trkpt>
      <trkpt lat="46.88003" lon="8.52806">
        <ele>1695</ele>
        <time>2021-08-11T09:39:15.433Z</time>
      </trkpt>
      <trkpt lat="46.88002" lon="8.52807">
        <ele>1695</ele>
        <time>2021-08-11T09:39:16.433Z</time>
      </trkpt>
      <trkpt lat="46.88001" lon="8.52808">
        <ele>1695</ele>
        <time>2021-08-11T09:39:17.432Z</time>
      </trkpt>
      <trkpt lat="46.88001" lon="8.52808">
        <ele>1696</ele>
        <time>2021-08-11T09:39:18.433Z</time>
      </trkpt>
      <trkpt lat="46.88001" lon="8.52809">
        <ele>1696</ele>
        <time>2021-08-11T09:39:19.432Z</time>
      </trkpt>
      <trkpt lat="46.88005" lon="8.52812">
        <ele>1696</ele>
        <time>2021-08-11T09:39:20.432Z</time>
      </trkpt>
      <trkpt lat="46.88004" lon="8.52812">
        <ele>1697</ele>
        <time>2021-08-11T09:39:21.432Z</time>
      </trkpt>
      <trkpt lat="46.88004" lon="8.52811">
        <ele>1697</ele>
        <time>2021-08-11T09:39:22.432Z</time>
      </trkpt>
      <trkpt lat="46.88" lon="8.52808">
        <ele>1701</ele>
        <time>2021-08-11T09:39:23.434Z</time>
      </trkpt>
      <trkpt lat="46.87999" lon="8.52808">
        <ele>1701</ele>
        <time>2021-08-11T09:39:24.434Z</time>
      </trkpt>
      <trkpt lat="46.87999" lon="8.52809">
        <ele>1701</ele>
        <time>2021-08-11T09:39:25.434Z</time>
      </trkpt>
      <trkpt lat="46.87999" lon="8.52809">
        <ele>1702</ele>
        <time>2021-08-11T09:39:26.433Z</time>
      </trkpt>
      <trkpt lat="46.87999" lon="8.52809">
        <ele>1702</ele>
        <time>2021-08-11T09:39:27.433Z</time>
      </trkpt>
      <trkpt lat="46.88" lon="8.5281">
        <ele>1703</ele>
        <time>2021-08-11T09:39:28.434Z</time>
      </trkpt>
      <trkpt lat="46.88001" lon="8.52811">
        <ele>1703</ele>
        <time>2021-08-11T09:39:29.434Z</time>
      </trkpt>
      <trkpt lat="46.88001" lon="8.52811">
        <ele>1703</ele>
        <time>2021-08-11T09:39:30.434Z</time>
      </trkpt>
      <trkpt lat="46.88002" lon="8.52811">
        <ele>1703</ele>
        <time>2021-08-11T09:39:31.433Z</time>
      </trkpt>
      <trkpt lat="46.88002" lon="8.52811">
        <ele>1703</ele>
        <time>2021-08-11T09:39:32.434Z</time>
      </trkpt>
      <trkpt lat="46.88001" lon="8.52811">
        <ele>1703</ele>
        <time>2021-08-11T09:39:33.434Z</time>
      </trkpt>
      <trkpt lat="46.88001" lon="8.5281">
        <ele>1704</ele>
        <time>2021-08-11T09:39:34.434Z</time>
      </trkpt>
      <trkpt lat="46.88002" lon="8.52809">
        <ele>1704</ele>
        <time>2021-08-11T09:39:35.434Z</time>
      </trkpt>
      <trkpt lat="46.88002" lon="8.52809">
        <ele>1704</ele>
        <time>2021-08-11T09:39:36.434Z</time>
      </trkpt>
      <trkpt lat="46.88002" lon="8.52809">
        <ele>1705</ele>
        <time>2021-08-11T09:39:37.435Z</time>
      </trkpt>
      <trkpt lat="46.88002" lon="8.52808">
        <ele>1705</ele>
        <time>2021-08-11T09:39:38.435Z</time>
      </trkpt>
      <trkpt lat="46.88001" lon="8.52807">
        <ele>1705</ele>
        <time>2021-08-11T09:39:39.435Z</time>
      </trkpt>
      <trkpt lat="46.88001" lon="8.52807">
        <ele>1705</ele>
        <time>2021-08-11T09:39:40.434Z</time>
      </trkpt>
      <trkpt lat="46.88" lon="8.52806">
        <ele>1705</ele>
        <time>2021-08-11T09:39:41.435Z</time>
      </trkpt>
      <trkpt lat="46.88" lon="8.52805">
        <ele>1705</ele>
        <time>2021-08-11T09:39:42.435Z</time>
      </trkpt>
      <trkpt lat="46.87999" lon="8.52804">
        <ele>1704</ele>
        <time>2021-08-11T09:39:43.435Z</time>
      </trkpt>
      <trkpt lat="46.87998" lon="8.52804">
        <ele>1705</ele>
        <time>2021-08-11T09:39:44.435Z</time>
      </trkpt>
      <trkpt lat="46.87998" lon="8.52803">
        <ele>1705</ele>
        <time>2021-08-11T09:39:45.434Z</time>
      </trkpt>
      <trkpt lat="46.87997" lon="8.52802">
        <ele>1705</ele>
        <time>2021-08-11T09:39:46.435Z</time>
      </trkpt>
      <trkpt lat="46.87997" lon="8.52803">
        <ele>1705</ele>
        <time>2021-08-11T09:39:47.436Z</time>
      </trkpt>
      <trkpt lat="46.87996" lon="8.52804">
        <ele>1704</ele>
        <time>2021-08-11T09:39:48.436Z</time>
      </trkpt>
      <trkpt lat="46.87996" lon="8.52804">
        <ele>1704</ele>
        <time>2021-08-11T09:39:49.435Z</time>
      </trkpt>
      <trkpt lat="46.87995" lon="8.52803">
        <ele>1704</ele>
        <time>2021-08-11T09:39:50.436Z</time>
      </trkpt>
      <trkpt lat="46.87995" lon="8.52803">
        <ele>1703</ele>
        <time>2021-08-11T09:39:51.436Z</time>
      </trkpt>
      <trkpt lat="46.87994" lon="8.52803">
        <ele>1703</ele>
        <time>2021-08-11T09:39:52.436Z</time>
      </trkpt>
      <trkpt lat="46.87993" lon="8.52802">
        <ele>1703</ele>
        <time>2021-08-11T09:39:53.435Z</time>
      </trkpt>
      <trkpt lat="46.87992" lon="8.52802">
        <ele>1703</ele>
        <time>2021-08-11T09:39:54.436Z</time>
      </trkpt>
      <trkpt lat="46.87991" lon="8.52802">
        <ele>1703</ele>
        <time>2021-08-11T09:39:55.436Z</time>
      </trkpt>
      <trkpt lat="46.8799" lon="8.52801">
        <ele>1703</ele>
        <time>2021-08-11T09:39:56.436Z</time>
      </trkpt>
      <trkpt lat="46.87989" lon="8.528">
        <ele>1703</ele>
        <time>2021-08-11T09:39:57.436Z</time>
      </trkpt>
      <trkpt lat="46.87988" lon="8.52799">
        <ele>1703</ele>
        <time>2021-08-11T09:39:58.435Z</time>
      </trkpt>
      <trkpt lat="46.87987" lon="8.52799">
        <ele>1703</ele>
        <time>2021-08-11T09:39:59.436Z</time>
      </trkpt>
      <trkpt lat="46.87986" lon="8.52799">
        <ele>1702</ele>
        <time>2021-08-11T09:40:00.436Z</time>
      </trkpt>
      <trkpt lat="46.87985" lon="8.52799">
        <ele>1701</ele>
        <time>2021-08-11T09:40:01.435Z</time>
      </trkpt>
      <trkpt lat="46.87984" lon="8.52799">
        <ele>1701</ele>
        <time>2021-08-11T09:40:02.436Z</time>
      </trkpt>
      <trkpt lat="46.87984" lon="8.52799">
        <ele>1701</ele>
        <time>2021-08-11T09:40:03.436Z</time>
      </trkpt>
      <trkpt lat="46.87983" lon="8.52799">
        <ele>1701</ele>
        <time>2021-08-11T09:40:04.436Z</time>
      </trkpt>
      <trkpt lat="46.87982" lon="8.52799">
        <ele>1701</ele>
        <time>2021-08-11T09:40:05.435Z</time>
      </trkpt>
      <trkpt lat="46.87981" lon="8.528">
        <ele>1701</ele>
        <time>2021-08-11T09:40:06.436Z</time>
      </trkpt>
      <trkpt lat="46.8798" lon="8.52801">
        <ele>1701</ele>
        <time>2021-08-11T09:40:07.435Z</time>
      </trkpt>
      <trkpt lat="46.8798" lon="8.52801">
        <ele>1700</ele>
        <time>2021-08-11T09:40:08.435Z</time>
      </trkpt>
      <trkpt lat="46.87979" lon="8.52802">
        <ele>1700</ele>
        <time>2021-08-11T09:40:09.436Z</time>
      </trkpt>
      <trkpt lat="46.87979" lon="8.52803">
        <ele>1700</ele>
        <time>2021-08-11T09:40:10.436Z</time>
      </trkpt>
      <trkpt lat="46.87978" lon="8.52803">
        <ele>1701</ele>
        <time>2021-08-11T09:40:11.436Z</time>
      </trkpt>
      <trkpt lat="46.87978" lon="8.52804">
        <ele>1701</ele>
        <time>2021-08-11T09:40:12.436Z</time>
      </trkpt>
      <trkpt lat="46.87978" lon="8.52805">
        <ele>1700</ele>
        <time>2021-08-11T09:40:13.436Z</time>
      </trkpt>
      <trkpt lat="46.8798" lon="8.52807">
        <ele>1699</ele>
        <time>2021-08-11T09:40:14.436Z</time>
      </trkpt>
      <trkpt lat="46.87981" lon="8.52807">
        <ele>1699</ele>
        <time>2021-08-11T09:40:15.436Z</time>
      </trkpt>
      <trkpt lat="46.87982" lon="8.52804">
        <ele>1699</ele>
        <time>2021-08-11T09:40:16.436Z</time>
      </trkpt>
      <trkpt lat="46.87982" lon="8.52804">
        <ele>1699</ele>
        <time>2021-08-11T09:40:17.436Z</time>
      </trkpt>
      <trkpt lat="46.87982" lon="8.52804">
        <ele>1700</ele>
        <time>2021-08-11T09:40:18.435Z</time>
      </trkpt>
      <trkpt lat="46.87982" lon="8.52805">
        <ele>1700</ele>
        <time>2021-08-11T09:40:19.436Z</time>
      </trkpt>
      <trkpt lat="46.87982" lon="8.52808">
        <ele>1689</ele>
        <time>2021-08-11T09:40:20.437Z</time>
      </trkpt>
      <trkpt lat="46.87981" lon="8.52809">
        <ele>1688</ele>
        <time>2021-08-11T09:40:21.437Z</time>
      </trkpt>
      <trkpt lat="46.87981" lon="8.52809">
        <ele>1688</ele>
        <time>2021-08-11T09:40:22.436Z</time>
      </trkpt>
      <trkpt lat="46.8798" lon="8.52809">
        <ele>1688</ele>
        <time>2021-08-11T09:40:23.437Z</time>
      </trkpt>
      <trkpt lat="46.87979" lon="8.52809">
        <ele>1689</ele>
        <time>2021-08-11T09:40:24.437Z</time>
      </trkpt>
      <trkpt lat="46.87978" lon="8.52809">
        <ele>1690</ele>
        <time>2021-08-11T09:40:25.436Z</time>
      </trkpt>
      <trkpt lat="46.87977" lon="8.52808">
        <ele>1690</ele>
        <time>2021-08-11T09:40:26.436Z</time>
      </trkpt>
      <trkpt lat="46.87976" lon="8.52808">
        <ele>1691</ele>
        <time>2021-08-11T09:40:27.437Z</time>
      </trkpt>
      <trkpt lat="46.87975" lon="8.52808">
        <ele>1691</ele>
        <time>2021-08-11T09:40:28.437Z</time>
      </trkpt>
      <trkpt lat="46.87974" lon="8.52808">
        <ele>1691</ele>
        <time>2021-08-11T09:40:29.436Z</time>
      </trkpt>
      <trkpt lat="46.87973" lon="8.52808">
        <ele>1692</ele>
        <time>2021-08-11T09:40:30.437Z</time>
      </trkpt>
      <trkpt lat="46.87972" lon="8.52807">
        <ele>1692</ele>
        <time>2021-08-11T09:40:31.436Z</time>
      </trkpt>
      <trkpt lat="46.87971" lon="8.52807">
        <ele>1692</ele>
        <time>2021-08-11T09:40:32.436Z</time>
      </trkpt>
      <trkpt lat="46.8797" lon="8.52806">
        <ele>1692</ele>
        <time>2021-08-11T09:40:33.436Z</time>
      </trkpt>
      <trkpt lat="46.87969" lon="8.52806">
        <ele>1692</ele>
        <time>2021-08-11T09:40:34.436Z</time>
      </trkpt>
      <trkpt lat="46.87968" lon="8.52806">
        <ele>1692</ele>
        <time>2021-08-11T09:40:35.436Z</time>
      </trkpt>
      <trkpt lat="46.87967" lon="8.52806">
        <ele>1692</ele>
        <time>2021-08-11T09:40:36.436Z</time>
      </trkpt>
      <trkpt lat="46.87967" lon="8.52805">
        <ele>1692</ele>
        <time>2021-08-11T09:40:37.436Z</time>
      </trkpt>
      <trkpt lat="46.87966" lon="8.52805">
        <ele>1692</ele>
        <time>2021-08-11T09:40:38.437Z</time>
      </trkpt>
      <trkpt lat="46.87965" lon="8.52804">
        <ele>1692</ele>
        <time>2021-08-11T09:40:39.436Z</time>
      </trkpt>
      <trkpt lat="46.87964" lon="8.52804">
        <ele>1693</ele>
        <time>2021-08-11T09:40:40.437Z</time>
      </trkpt>
      <trkpt lat="46.87963" lon="8.52803">
        <ele>1693</ele>
        <time>2021-08-11T09:40:41.436Z</time>
      </trkpt>
      <trkpt lat="46.87962" lon="8.52802">
        <ele>1693</ele>
        <time>2021-08-11T09:40:42.436Z</time>
      </trkpt>
      <trkpt lat="46.87961" lon="8.52802">
        <ele>1693</ele>
        <time>2021-08-11T09:40:43.436Z</time>
      </trkpt>
      <trkpt lat="46.8796" lon="8.52802">
        <ele>1693</ele>
        <time>2021-08-11T09:40:44.437Z</time>
      </trkpt>
      <trkpt lat="46.87959" lon="8.52801">
        <ele>1693</ele>
        <time>2021-08-11T09:40:45.437Z</time>
      </trkpt>
      <trkpt lat="46.87959" lon="8.52801">
        <ele>1693</ele>
        <time>2021-08-11T09:40:46.437Z</time>
      </trkpt>
      <trkpt lat="46.87958" lon="8.528">
        <ele>1694</ele>
        <time>2021-08-11T09:40:47.437Z</time>
      </trkpt>
      <trkpt lat="46.87957" lon="8.528">
        <ele>1694</ele>
        <time>2021-08-11T09:40:48.437Z</time>
      </trkpt>
      <trkpt lat="46.87956" lon="8.52799">
        <ele>1694</ele>
        <time>2021-08-11T09:40:49.436Z</time>
      </trkpt>
      <trkpt lat="46.87956" lon="8.52799">
        <ele>1695</ele>
        <time>2021-08-11T09:40:50.437Z</time>
      </trkpt>
      <trkpt lat="46.87955" lon="8.52798">
        <ele>1695</ele>
        <time>2021-08-11T09:40:51.437Z</time>
      </trkpt>
      <trkpt lat="46.87954" lon="8.52798">
        <ele>1695</ele>
        <time>2021-08-11T09:40:52.437Z</time>
      </trkpt>
      <trkpt lat="46.87953" lon="8.52797">
        <ele>1695</ele>
        <time>2021-08-11T09:40:53.437Z</time>
      </trkpt>
      <trkpt lat="46.87952" lon="8.52797">
        <ele>1696</ele>
        <time>2021-08-11T09:40:54.436Z</time>
      </trkpt>
      <trkpt lat="46.87951" lon="8.52796">
        <ele>1696</ele>
        <time>2021-08-11T09:40:55.437Z</time>
      </trkpt>
      <trkpt lat="46.8795" lon="8.52795">
        <ele>1697</ele>
        <time>2021-08-11T09:40:56.437Z</time>
      </trkpt>
      <trkpt lat="46.87948" lon="8.52794">
        <ele>1697</ele>
        <time>2021-08-11T09:40:57.437Z</time>
      </trkpt>
      <trkpt lat="46.87947" lon="8.52793">
        <ele>1698</ele>
        <time>2021-08-11T09:40:58.437Z</time>
      </trkpt>
      <trkpt lat="46.87945" lon="8.52791">
        <ele>1699</ele>
        <time>2021-08-11T09:40:59.436Z</time>
      </trkpt>
      <trkpt lat="46.87944" lon="8.52789">
        <ele>1700</ele>
        <time>2021-08-11T09:41:00.437Z</time>
      </trkpt>
      <trkpt lat="46.87943" lon="8.52788">
        <ele>1701</ele>
        <time>2021-08-11T09:41:01.437Z</time>
      </trkpt>
      <trkpt lat="46.87942" lon="8.52787">
        <ele>1701</ele>
        <time>2021-08-11T09:41:02.437Z</time>
      </trkpt>
      <trkpt lat="46.87941" lon="8.52785">
        <ele>1701</ele>
        <time>2021-08-11T09:41:03.436Z</time>
      </trkpt>
      <trkpt lat="46.8794" lon="8.52784">
        <ele>1701</ele>
        <time>2021-08-11T09:41:04.436Z</time>
      </trkpt>
      <trkpt lat="46.87939" lon="8.52784">
        <ele>1701</ele>
        <time>2021-08-11T09:41:05.437Z</time>
      </trkpt>
      <trkpt lat="46.87938" lon="8.52783">
        <ele>1700</ele>
        <time>2021-08-11T09:41:06.436Z</time>
      </trkpt>
      <trkpt lat="46.87937" lon="8.52783">
        <ele>1700</ele>
        <time>2021-08-11T09:41:07.436Z</time>
      </trkpt>
      <trkpt lat="46.87936" lon="8.52783">
        <ele>1699</ele>
        <time>2021-08-11T09:41:08.436Z</time>
      </trkpt>
      <trkpt lat="46.87936" lon="8.52783">
        <ele>1699</ele>
        <time>2021-08-11T09:41:09.436Z</time>
      </trkpt>
      <trkpt lat="46.87935" lon="8.52783">
        <ele>1698</ele>
        <time>2021-08-11T09:41:10.437Z</time>
      </trkpt>
      <trkpt lat="46.87934" lon="8.52783">
        <ele>1697</ele>
        <time>2021-08-11T09:41:11.437Z</time>
      </trkpt>
      <trkpt lat="46.87933" lon="8.52782">
        <ele>1697</ele>
        <time>2021-08-11T09:41:12.437Z</time>
      </trkpt>
      <trkpt lat="46.87932" lon="8.52782">
        <ele>1696</ele>
        <time>2021-08-11T09:41:13.436Z</time>
      </trkpt>
      <trkpt lat="46.87931" lon="8.52782">
        <ele>1696</ele>
        <time>2021-08-11T09:41:14.436Z</time>
      </trkpt>
      <trkpt lat="46.87931" lon="8.52782">
        <ele>1697</ele>
        <time>2021-08-11T09:41:15.437Z</time>
      </trkpt>
      <trkpt lat="46.8793" lon="8.52783">
        <ele>1697</ele>
        <time>2021-08-11T09:41:16.437Z</time>
      </trkpt>
      <trkpt lat="46.87929" lon="8.52783">
        <ele>1697</ele>
        <time>2021-08-11T09:41:17.437Z</time>
      </trkpt>
      <trkpt lat="46.87927" lon="8.52782">
        <ele>1697</ele>
        <time>2021-08-11T09:41:18.437Z</time>
      </trkpt>
      <trkpt lat="46.87926" lon="8.52782">
        <ele>1696</ele>
        <time>2021-08-11T09:41:19.436Z</time>
      </trkpt>
      <trkpt lat="46.87925" lon="8.52782">
        <ele>1696</ele>
        <time>2021-08-11T09:41:20.437Z</time>
      </trkpt>
      <trkpt lat="46.87925" lon="8.52782">
        <ele>1696</ele>
        <time>2021-08-11T09:41:21.437Z</time>
      </trkpt>
      <trkpt lat="46.87924" lon="8.52782">
        <ele>1696</ele>
        <time>2021-08-11T09:41:22.437Z</time>
      </trkpt>
      <trkpt lat="46.87922" lon="8.52781">
        <ele>1696</ele>
        <time>2021-08-11T09:41:23.437Z</time>
      </trkpt>
      <trkpt lat="46.87922" lon="8.5278">
        <ele>1695</ele>
        <time>2021-08-11T09:41:24.436Z</time>
      </trkpt>
      <trkpt lat="46.87921" lon="8.52779">
        <ele>1695</ele>
        <time>2021-08-11T09:41:25.437Z</time>
      </trkpt>
      <trkpt lat="46.8792" lon="8.52778">
        <ele>1695</ele>
        <time>2021-08-11T09:41:26.437Z</time>
      </trkpt>
      <trkpt lat="46.8792" lon="8.52777">
        <ele>1695</ele>
        <time>2021-08-11T09:41:27.436Z</time>
      </trkpt>
      <trkpt lat="46.87919" lon="8.52776">
        <ele>1695</ele>
        <time>2021-08-11T09:41:28.437Z</time>
      </trkpt>
      <trkpt lat="46.87918" lon="8.52775">
        <ele>1695</ele>
        <time>2021-08-11T09:41:29.437Z</time>
      </trkpt>
      <trkpt lat="46.87917" lon="8.52775">
        <ele>1695</ele>
        <time>2021-08-11T09:41:30.436Z</time>
      </trkpt>
      <trkpt lat="46.87916" lon="8.52774">
        <ele>1696</ele>
        <time>2021-08-11T09:41:31.436Z</time>
      </trkpt>
      <trkpt lat="46.87915" lon="8.52773">
        <ele>1696</ele>
        <time>2021-08-11T09:41:32.436Z</time>
      </trkpt>
      <trkpt lat="46.87915" lon="8.52772">
        <ele>1696</ele>
        <time>2021-08-11T09:41:33.437Z</time>
      </trkpt>
      <trkpt lat="46.87914" lon="8.52772">
        <ele>1696</ele>
        <time>2021-08-11T09:41:34.437Z</time>
      </trkpt>
      <trkpt lat="46.87913" lon="8.52771">
        <ele>1696</ele>
        <time>2021-08-11T09:41:35.437Z</time>
      </trkpt>
      <trkpt lat="46.87912" lon="8.5277">
        <ele>1696</ele>
        <time>2021-08-11T09:41:36.437Z</time>
      </trkpt>
      <trkpt lat="46.87912" lon="8.5277">
        <ele>1696</ele>
        <time>2021-08-11T09:41:37.437Z</time>
      </trkpt>
      <trkpt lat="46.8791" lon="8.52769">
        <ele>1696</ele>
        <time>2021-08-11T09:41:38.437Z</time>
      </trkpt>
      <trkpt lat="46.8791" lon="8.52769">
        <ele>1696</ele>
        <time>2021-08-11T09:41:39.437Z</time>
      </trkpt>
      <trkpt lat="46.87909" lon="8.52769">
        <ele>1696</ele>
        <time>2021-08-11T09:41:40.437Z</time>
      </trkpt>
      <trkpt lat="46.87908" lon="8.52769">
        <ele>1696</ele>
        <time>2021-08-11T09:41:41.437Z</time>
      </trkpt>
      <trkpt lat="46.87907" lon="8.52769">
        <ele>1696</ele>
        <time>2021-08-11T09:41:42.436Z</time>
      </trkpt>
      <trkpt lat="46.87906" lon="8.52769">
        <ele>1696</ele>
        <time>2021-08-11T09:41:43.436Z</time>
      </trkpt>
      <trkpt lat="46.87905" lon="8.52769">
        <ele>1696</ele>
        <time>2021-08-11T09:41:44.437Z</time>
      </trkpt>
      <trkpt lat="46.87904" lon="8.52769">
        <ele>1696</ele>
        <time>2021-08-11T09:41:45.437Z</time>
      </trkpt>
      <trkpt lat="46.87903" lon="8.52769">
        <ele>1696</ele>
        <time>2021-08-11T09:41:46.437Z</time>
      </trkpt>
      <trkpt lat="46.87902" lon="8.52769">
        <ele>1695</ele>
        <time>2021-08-11T09:41:47.436Z</time>
      </trkpt>
      <trkpt lat="46.87901" lon="8.52769">
        <ele>1695</ele>
        <time>2021-08-11T09:41:48.436Z</time>
      </trkpt>
      <trkpt lat="46.87901" lon="8.52769">
        <ele>1695</ele>
        <time>2021-08-11T09:41:49.437Z</time>
      </trkpt>
      <trkpt lat="46.879" lon="8.52769">
        <ele>1695</ele>
        <time>2021-08-11T09:41:50.437Z</time>
      </trkpt>
      <trkpt lat="46.879" lon="8.52768">
        <ele>1695</ele>
        <time>2021-08-11T09:41:51.437Z</time>
      </trkpt>
      <trkpt lat="46.87899" lon="8.52768">
        <ele>1695</ele>
        <time>2021-08-11T09:41:52.437Z</time>
      </trkpt>
      <trkpt lat="46.87898" lon="8.52767">
        <ele>1695</ele>
        <time>2021-08-11T09:41:53.436Z</time>
      </trkpt>
      <trkpt lat="46.87897" lon="8.52766">
        <ele>1695</ele>
        <time>2021-08-11T09:41:54.437Z</time>
      </trkpt>
      <trkpt lat="46.87897" lon="8.52766">
        <ele>1695</ele>
        <time>2021-08-11T09:41:55.437Z</time>
      </trkpt>
      <trkpt lat="46.87896" lon="8.52765">
        <ele>1695</ele>
        <time>2021-08-11T09:41:56.437Z</time>
      </trkpt>
      <trkpt lat="46.87895" lon="8.52765">
        <ele>1695</ele>
        <time>2021-08-11T09:41:57.437Z</time>
      </trkpt>
      <trkpt lat="46.87894" lon="8.52765">
        <ele>1695</ele>
        <time>2021-08-11T09:41:58.436Z</time>
      </trkpt>
      <trkpt lat="46.87894" lon="8.52764">
        <ele>1695</ele>
        <time>2021-08-11T09:41:59.436Z</time>
      </trkpt>
      <trkpt lat="46.87893" lon="8.52763">
        <ele>1696</ele>
        <time>2021-08-11T09:42:00.436Z</time>
      </trkpt>
      <trkpt lat="46.87892" lon="8.52763">
        <ele>1695</ele>
        <time>2021-08-11T09:42:01.437Z</time>
      </trkpt>
      <trkpt lat="46.87892" lon="8.52762">
        <ele>1695</ele>
        <time>2021-08-11T09:42:02.436Z</time>
      </trkpt>
      <trkpt lat="46.87892" lon="8.52762">
        <ele>1695</ele>
        <time>2021-08-11T09:42:03.437Z</time>
      </trkpt>
      <trkpt lat="46.87891" lon="8.52761">
        <ele>1695</ele>
        <time>2021-08-11T09:42:04.437Z</time>
      </trkpt>
      <trkpt lat="46.87891" lon="8.5276">
        <ele>1695</ele>
        <time>2021-08-11T09:42:05.437Z</time>
      </trkpt>
      <trkpt lat="46.8789" lon="8.52759">
        <ele>1694</ele>
        <time>2021-08-11T09:42:06.437Z</time>
      </trkpt>
      <trkpt lat="46.8789" lon="8.52758">
        <ele>1694</ele>
        <time>2021-08-11T09:42:07.436Z</time>
      </trkpt>
      <trkpt lat="46.8789" lon="8.52757">
        <ele>1693</ele>
        <time>2021-08-11T09:42:08.436Z</time>
      </trkpt>
      <trkpt lat="46.87889" lon="8.52756">
        <ele>1693</ele>
        <time>2021-08-11T09:42:09.437Z</time>
      </trkpt>
      <trkpt lat="46.87889" lon="8.52755">
        <ele>1692</ele>
        <time>2021-08-11T09:42:10.437Z</time>
      </trkpt>
      <trkpt lat="46.87888" lon="8.52754">
        <ele>1692</ele>
        <time>2021-08-11T09:42:11.437Z</time>
      </trkpt>
      <trkpt lat="46.87888" lon="8.52753">
        <ele>1692</ele>
        <time>2021-08-11T09:42:12.437Z</time>
      </trkpt>
      <trkpt lat="46.87887" lon="8.52753">
        <ele>1692</ele>
        <time>2021-08-11T09:42:13.436Z</time>
      </trkpt>
      <trkpt lat="46.87886" lon="8.52752">
        <ele>1692</ele>
        <time>2021-08-11T09:42:14.437Z</time>
      </trkpt>
      <trkpt lat="46.87886" lon="8.52751">
        <ele>1692</ele>
        <time>2021-08-11T09:42:15.437Z</time>
      </trkpt>
      <trkpt lat="46.87885" lon="8.5275">
        <ele>1692</ele>
        <time>2021-08-11T09:42:16.437Z</time>
      </trkpt>
      <trkpt lat="46.87884" lon="8.5275">
        <ele>1693</ele>
        <time>2021-08-11T09:42:17.437Z</time>
      </trkpt>
      <trkpt lat="46.87883" lon="8.5275">
        <ele>1693</ele>
        <time>2021-08-11T09:42:18.436Z</time>
      </trkpt>
      <trkpt lat="46.87882" lon="8.52749">
        <ele>1693</ele>
        <time>2021-08-11T09:42:19.437Z</time>
      </trkpt>
      <trkpt lat="46.87881" lon="8.52749">
        <ele>1694</ele>
        <time>2021-08-11T09:42:20.437Z</time>
      </trkpt>
      <trkpt lat="46.8788" lon="8.52749">
        <ele>1694</ele>
        <time>2021-08-11T09:42:21.437Z</time>
      </trkpt>
      <trkpt lat="46.87879" lon="8.52748">
        <ele>1694</ele>
        <time>2021-08-11T09:42:22.437Z</time>
      </trkpt>
      <trkpt lat="46.87878" lon="8.52748">
        <ele>1694</ele>
        <time>2021-08-11T09:42:23.437Z</time>
      </trkpt>
      <trkpt lat="46.87878" lon="8.52747">
        <ele>1694</ele>
        <time>2021-08-11T09:42:24.436Z</time>
      </trkpt>
      <trkpt lat="46.87877" lon="8.52746">
        <ele>1694</ele>
        <time>2021-08-11T09:42:25.437Z</time>
      </trkpt>
      <trkpt lat="46.87876" lon="8.52746">
        <ele>1695</ele>
        <time>2021-08-11T09:42:26.436Z</time>
      </trkpt>
      <trkpt lat="46.87876" lon="8.52745">
        <ele>1695</ele>
        <time>2021-08-11T09:42:27.436Z</time>
      </trkpt>
      <trkpt lat="46.87875" lon="8.52745">
        <ele>1695</ele>
        <time>2021-08-11T09:42:28.436Z</time>
      </trkpt>
      <trkpt lat="46.87874" lon="8.52744">
        <ele>1696</ele>
        <time>2021-08-11T09:42:29.437Z</time>
      </trkpt>
      <trkpt lat="46.87873" lon="8.52744">
        <ele>1696</ele>
        <time>2021-08-11T09:42:30.436Z</time>
      </trkpt>
      <trkpt lat="46.87873" lon="8.52743">
        <ele>1696</ele>
        <time>2021-08-11T09:42:31.437Z</time>
      </trkpt>
      <trkpt lat="46.87872" lon="8.52743">
        <ele>1697</ele>
        <time>2021-08-11T09:42:32.437Z</time>
      </trkpt>
      <trkpt lat="46.87871" lon="8.52742">
        <ele>1697</ele>
        <time>2021-08-11T09:42:33.437Z</time>
      </trkpt>
      <trkpt lat="46.8787" lon="8.52742">
        <ele>1697</ele>
        <time>2021-08-11T09:42:34.437Z</time>
      </trkpt>
      <trkpt lat="46.87869" lon="8.52741">
        <ele>1698</ele>
        <time>2021-08-11T09:42:35.437Z</time>
      </trkpt>
      <trkpt lat="46.87867" lon="8.5274">
        <ele>1698</ele>
        <time>2021-08-11T09:42:36.436Z</time>
      </trkpt>
      <trkpt lat="46.87867" lon="8.52739">
        <ele>1699</ele>
        <time>2021-08-11T09:42:37.437Z</time>
      </trkpt>
      <trkpt lat="46.87866" lon="8.52738">
        <ele>1699</ele>
        <time>2021-08-11T09:42:38.437Z</time>
      </trkpt>
      <trkpt lat="46.87865" lon="8.52737">
        <ele>1699</ele>
        <time>2021-08-11T09:42:39.437Z</time>
      </trkpt>
      <trkpt lat="46.87865" lon="8.52736">
        <ele>1699</ele>
        <time>2021-08-11T09:42:40.436Z</time>
      </trkpt>
      <trkpt lat="46.87864" lon="8.52736">
        <ele>1699</ele>
        <time>2021-08-11T09:42:41.436Z</time>
      </trkpt>
      <trkpt lat="46.87864" lon="8.52735">
        <ele>1699</ele>
        <time>2021-08-11T09:42:42.437Z</time>
      </trkpt>
      <trkpt lat="46.87863" lon="8.52735">
        <ele>1699</ele>
        <time>2021-08-11T09:42:43.436Z</time>
      </trkpt>
      <trkpt lat="46.87862" lon="8.52734">
        <ele>1699</ele>
        <time>2021-08-11T09:42:44.437Z</time>
      </trkpt>
      <trkpt lat="46.87862" lon="8.52734">
        <ele>1699</ele>
        <time>2021-08-11T09:42:45.436Z</time>
      </trkpt>
      <trkpt lat="46.87861" lon="8.52732">
        <ele>1699</ele>
        <time>2021-08-11T09:42:46.437Z</time>
      </trkpt>
      <trkpt lat="46.8786" lon="8.52731">
        <ele>1698</ele>
        <time>2021-08-11T09:42:47.436Z</time>
      </trkpt>
      <trkpt lat="46.87859" lon="8.52731">
        <ele>1698</ele>
        <time>2021-08-11T09:42:48.437Z</time>
      </trkpt>
      <trkpt lat="46.87859" lon="8.52731">
        <ele>1698</ele>
        <time>2021-08-11T09:42:49.436Z</time>
      </trkpt>
      <trkpt lat="46.87858" lon="8.52731">
        <ele>1698</ele>
        <time>2021-08-11T09:42:50.437Z</time>
      </trkpt>
      <trkpt lat="46.87857" lon="8.5273">
        <ele>1697</ele>
        <time>2021-08-11T09:42:51.437Z</time>
      </trkpt>
      <trkpt lat="46.87856" lon="8.52729">
        <ele>1697</ele>
        <time>2021-08-11T09:42:52.437Z</time>
      </trkpt>
      <trkpt lat="46.87855" lon="8.52729">
        <ele>1697</ele>
        <time>2021-08-11T09:42:53.436Z</time>
      </trkpt>
      <trkpt lat="46.87855" lon="8.52729">
        <ele>1697</ele>
        <time>2021-08-11T09:42:54.436Z</time>
      </trkpt>
      <trkpt lat="46.87854" lon="8.52729">
        <ele>1697</ele>
        <time>2021-08-11T09:42:55.437Z</time>
      </trkpt>
      <trkpt lat="46.87853" lon="8.52729">
        <ele>1697</ele>
        <time>2021-08-11T09:42:56.437Z</time>
      </trkpt>
      <trkpt lat="46.87852" lon="8.52729">
        <ele>1697</ele>
        <time>2021-08-11T09:42:57.436Z</time>
      </trkpt>
      <trkpt lat="46.87852" lon="8.52729">
        <ele>1697</ele>
        <time>2021-08-11T09:42:58.437Z</time>
      </trkpt>
      <trkpt lat="46.87851" lon="8.52728">
        <ele>1696</ele>
        <time>2021-08-11T09:42:59.436Z</time>
      </trkpt>
      <trkpt lat="46.8785" lon="8.52727">
        <ele>1696</ele>
        <time>2021-08-11T09:43:00.437Z</time>
      </trkpt>
      <trkpt lat="46.8785" lon="8.52727">
        <ele>1697</ele>
        <time>2021-08-11T09:43:01.437Z</time>
      </trkpt>
      <trkpt lat="46.87849" lon="8.52726">
        <ele>1697</ele>
        <time>2021-08-11T09:43:02.437Z</time>
      </trkpt>
      <trkpt lat="46.87848" lon="8.52726">
        <ele>1697</ele>
        <time>2021-08-11T09:43:03.437Z</time>
      </trkpt>
      <trkpt lat="46.87848" lon="8.52726">
        <ele>1697</ele>
        <time>2021-08-11T09:43:04.437Z</time>
      </trkpt>
      <trkpt lat="46.87847" lon="8.52726">
        <ele>1698</ele>
        <time>2021-08-11T09:43:05.436Z</time>
      </trkpt>
      <trkpt lat="46.87847" lon="8.52725">
        <ele>1698</ele>
        <time>2021-08-11T09:43:06.437Z</time>
      </trkpt>
      <trkpt lat="46.87846" lon="8.52724">
        <ele>1698</ele>
        <time>2021-08-11T09:43:07.437Z</time>
      </trkpt>
      <trkpt lat="46.87846" lon="8.52722">
        <ele>1698</ele>
        <time>2021-08-11T09:43:08.436Z</time>
      </trkpt>
      <trkpt lat="46.87845" lon="8.52721">
        <ele>1698</ele>
        <time>2021-08-11T09:43:09.437Z</time>
      </trkpt>
      <trkpt lat="46.87845" lon="8.5272">
        <ele>1698</ele>
        <time>2021-08-11T09:43:10.437Z</time>
      </trkpt>
      <trkpt lat="46.87844" lon="8.52719">
        <ele>1698</ele>
        <time>2021-08-11T09:43:11.437Z</time>
      </trkpt>
      <trkpt lat="46.87843" lon="8.52718">
        <ele>1698</ele>
        <time>2021-08-11T09:43:12.436Z</time>
      </trkpt>
      <trkpt lat="46.87843" lon="8.52718">
        <ele>1697</ele>
        <time>2021-08-11T09:43:13.436Z</time>
      </trkpt>
      <trkpt lat="46.87843" lon="8.52718">
        <ele>1697</ele>
        <time>2021-08-11T09:43:14.437Z</time>
      </trkpt>
      <trkpt lat="46.87843" lon="8.52718">
        <ele>1697</ele>
        <time>2021-08-11T09:43:15.437Z</time>
      </trkpt>
      <trkpt lat="46.87843" lon="8.52717">
        <ele>1697</ele>
        <time>2021-08-11T09:43:16.437Z</time>
      </trkpt>
      <trkpt lat="46.87843" lon="8.52717">
        <ele>1697</ele>
        <time>2021-08-11T09:43:17.437Z</time>
      </trkpt>
      <trkpt lat="46.87842" lon="8.52716">
        <ele>1697</ele>
        <time>2021-08-11T09:43:18.437Z</time>
      </trkpt>
      <trkpt lat="46.87842" lon="8.52715">
        <ele>1697</ele>
        <time>2021-08-11T09:43:19.437Z</time>
      </trkpt>
      <trkpt lat="46.87841" lon="8.52714">
        <ele>1697</ele>
        <time>2021-08-11T09:43:20.436Z</time>
      </trkpt>
      <trkpt lat="46.8784" lon="8.52713">
        <ele>1697</ele>
        <time>2021-08-11T09:43:21.436Z</time>
      </trkpt>
      <trkpt lat="46.8784" lon="8.52712">
        <ele>1697</ele>
        <time>2021-08-11T09:43:22.437Z</time>
      </trkpt>
      <trkpt lat="46.87839" lon="8.52711">
        <ele>1697</ele>
        <time>2021-08-11T09:43:23.437Z</time>
      </trkpt>
      <trkpt lat="46.87838" lon="8.5271">
        <ele>1696</ele>
        <time>2021-08-11T09:43:24.437Z</time>
      </trkpt>
      <trkpt lat="46.87838" lon="8.52709">
        <ele>1696</ele>
        <time>2021-08-11T09:43:25.437Z</time>
      </trkpt>
      <trkpt lat="46.87837" lon="8.52708">
        <ele>1696</ele>
        <time>2021-08-11T09:43:26.437Z</time>
      </trkpt>
      <trkpt lat="46.87836" lon="8.52707">
        <ele>1696</ele>
        <time>2021-08-11T09:43:27.437Z</time>
      </trkpt>
      <trkpt lat="46.87835" lon="8.52706">
        <ele>1696</ele>
        <time>2021-08-11T09:43:28.437Z</time>
      </trkpt>
      <trkpt lat="46.87835" lon="8.52705">
        <ele>1696</ele>
        <time>2021-08-11T09:43:29.436Z</time>
      </trkpt>
      <trkpt lat="46.87834" lon="8.52704">
        <ele>1696</ele>
        <time>2021-08-11T09:43:30.436Z</time>
      </trkpt>
      <trkpt lat="46.87833" lon="8.52703">
        <ele>1695</ele>
        <time>2021-08-11T09:43:31.437Z</time>
      </trkpt>
      <trkpt lat="46.87832" lon="8.52702">
        <ele>1695</ele>
        <time>2021-08-11T09:43:32.437Z</time>
      </trkpt>
      <trkpt lat="46.87831" lon="8.52702">
        <ele>1695</ele>
        <time>2021-08-11T09:43:33.436Z</time>
      </trkpt>
      <trkpt lat="46.87831" lon="8.52701">
        <ele>1694</ele>
        <time>2021-08-11T09:43:34.437Z</time>
      </trkpt>
      <trkpt lat="46.8783" lon="8.527">
        <ele>1694</ele>
        <time>2021-08-11T09:43:35.437Z</time>
      </trkpt>
      <trkpt lat="46.87829" lon="8.52699">
        <ele>1694</ele>
        <time>2021-08-11T09:43:36.437Z</time>
      </trkpt>
      <trkpt lat="46.87828" lon="8.52698">
        <ele>1694</ele>
        <time>2021-08-11T09:43:37.437Z</time>
      </trkpt>
      <trkpt lat="46.87828" lon="8.52697">
        <ele>1694</ele>
        <time>2021-08-11T09:43:38.437Z</time>
      </trkpt>
      <trkpt lat="46.87827" lon="8.52696">
        <ele>1694</ele>
        <time>2021-08-11T09:43:39.437Z</time>
      </trkpt>
      <trkpt lat="46.87826" lon="8.52695">
        <ele>1694</ele>
        <time>2021-08-11T09:43:40.436Z</time>
      </trkpt>
      <trkpt lat="46.87826" lon="8.52694">
        <ele>1694</ele>
        <time>2021-08-11T09:43:41.437Z</time>
      </trkpt>
      <trkpt lat="46.87825" lon="8.52693">
        <ele>1694</ele>
        <time>2021-08-11T09:43:42.437Z</time>
      </trkpt>
      <trkpt lat="46.87825" lon="8.52692">
        <ele>1693</ele>
        <time>2021-08-11T09:43:43.437Z</time>
      </trkpt>
      <trkpt lat="46.87825" lon="8.52691">
        <ele>1693</ele>
        <time>2021-08-11T09:43:44.436Z</time>
      </trkpt>
      <trkpt lat="46.87824" lon="8.52691">
        <ele>1693</ele>
        <time>2021-08-11T09:43:45.437Z</time>
      </trkpt>
      <trkpt lat="46.87824" lon="8.5269">
        <ele>1693</ele>
        <time>2021-08-11T09:43:46.436Z</time>
      </trkpt>
      <trkpt lat="46.87824" lon="8.5269">
        <ele>1694</ele>
        <time>2021-08-11T09:43:47.437Z</time>
      </trkpt>
      <trkpt lat="46.87824" lon="8.5269">
        <ele>1694</ele>
        <time>2021-08-11T09:43:48.437Z</time>
      </trkpt>
      <trkpt lat="46.87823" lon="8.5269">
        <ele>1694</ele>
        <time>2021-08-11T09:43:49.436Z</time>
      </trkpt>
      <trkpt lat="46.87823" lon="8.5269">
        <ele>1694</ele>
        <time>2021-08-11T09:43:50.438Z</time>
      </trkpt>
      <trkpt lat="46.87823" lon="8.52691">
        <ele>1695</ele>
        <time>2021-08-11T09:43:51.437Z</time>
      </trkpt>
      <trkpt lat="46.87823" lon="8.52692">
        <ele>1694</ele>
        <time>2021-08-11T09:43:52.439Z</time>
      </trkpt>
      <trkpt lat="46.87823" lon="8.52692">
        <ele>1694</ele>
        <time>2021-08-11T09:43:53.438Z</time>
      </trkpt>
      <trkpt lat="46.87822" lon="8.52691">
        <ele>1692</ele>
        <time>2021-08-11T09:43:54.438Z</time>
      </trkpt>
      <trkpt lat="46.87821" lon="8.52691">
        <ele>1692</ele>
        <time>2021-08-11T09:43:55.438Z</time>
      </trkpt>
      <trkpt lat="46.87821" lon="8.5269">
        <ele>1693</ele>
        <time>2021-08-11T09:43:56.438Z</time>
      </trkpt>
      <trkpt lat="46.87821" lon="8.5269">
        <ele>1693</ele>
        <time>2021-08-11T09:43:57.438Z</time>
      </trkpt>
      <trkpt lat="46.8782" lon="8.52689">
        <ele>1693</ele>
        <time>2021-08-11T09:43:58.439Z</time>
      </trkpt>
      <trkpt lat="46.8782" lon="8.52688">
        <ele>1694</ele>
        <time>2021-08-11T09:43:59.439Z</time>
      </trkpt>
      <trkpt lat="46.87819" lon="8.52688">
        <ele>1695</ele>
        <time>2021-08-11T09:44:00.438Z</time>
      </trkpt>
      <trkpt lat="46.87818" lon="8.52687">
        <ele>1695</ele>
        <time>2021-08-11T09:44:01.438Z</time>
      </trkpt>
      <trkpt lat="46.87817" lon="8.52687">
        <ele>1696</ele>
        <time>2021-08-11T09:44:02.438Z</time>
      </trkpt>
      <trkpt lat="46.87817" lon="8.52686">
        <ele>1696</ele>
        <time>2021-08-11T09:44:03.438Z</time>
      </trkpt>
      <trkpt lat="46.87816" lon="8.52686">
        <ele>1697</ele>
        <time>2021-08-11T09:44:04.438Z</time>
      </trkpt>
      <trkpt lat="46.87815" lon="8.52685">
        <ele>1698</ele>
        <time>2021-08-11T09:44:05.438Z</time>
      </trkpt>
      <trkpt lat="46.87814" lon="8.52684">
        <ele>1698</ele>
        <time>2021-08-11T09:44:06.438Z</time>
      </trkpt>
      <trkpt lat="46.87813" lon="8.52684">
        <ele>1698</ele>
        <time>2021-08-11T09:44:07.438Z</time>
      </trkpt>
      <trkpt lat="46.87813" lon="8.52683">
        <ele>1699</ele>
        <time>2021-08-11T09:44:08.439Z</time>
      </trkpt>
      <trkpt lat="46.87812" lon="8.52683">
        <ele>1699</ele>
        <time>2021-08-11T09:44:09.438Z</time>
      </trkpt>
      <trkpt lat="46.87811" lon="8.52682">
        <ele>1698</ele>
        <time>2021-08-11T09:44:10.438Z</time>
      </trkpt>
      <trkpt lat="46.8781" lon="8.52681">
        <ele>1699</ele>
        <time>2021-08-11T09:44:11.438Z</time>
      </trkpt>
      <trkpt lat="46.8781" lon="8.52681">
        <ele>1699</ele>
        <time>2021-08-11T09:44:12.438Z</time>
      </trkpt>
      <trkpt lat="46.87809" lon="8.5268">
        <ele>1699</ele>
        <time>2021-08-11T09:44:13.439Z</time>
      </trkpt>
      <trkpt lat="46.87809" lon="8.5268">
        <ele>1699</ele>
        <time>2021-08-11T09:44:14.438Z</time>
      </trkpt>
      <trkpt lat="46.87809" lon="8.5268">
        <ele>1699</ele>
        <time>2021-08-11T09:44:15.439Z</time>
      </trkpt>
      <trkpt lat="46.87808" lon="8.52679">
        <ele>1699</ele>
        <time>2021-08-11T09:44:16.438Z</time>
      </trkpt>
      <trkpt lat="46.87808" lon="8.52679">
        <ele>1699</ele>
        <time>2021-08-11T09:44:17.438Z</time>
      </trkpt>
      <trkpt lat="46.87808" lon="8.52679">
        <ele>1699</ele>
        <time>2021-08-11T09:44:18.439Z</time>
      </trkpt>
      <trkpt lat="46.87807" lon="8.52679">
        <ele>1699</ele>
        <time>2021-08-11T09:44:19.439Z</time>
      </trkpt>
      <trkpt lat="46.87806" lon="8.52678">
        <ele>1699</ele>
        <time>2021-08-11T09:44:20.438Z</time>
      </trkpt>
      <trkpt lat="46.87805" lon="8.52678">
        <ele>1699</ele>
        <time>2021-08-11T09:44:21.438Z</time>
      </trkpt>
      <trkpt lat="46.87805" lon="8.52678">
        <ele>1699</ele>
        <time>2021-08-11T09:44:22.438Z</time>
      </trkpt>
      <trkpt lat="46.87804" lon="8.52677">
        <ele>1699</ele>
        <time>2021-08-11T09:44:23.438Z</time>
      </trkpt>
      <trkpt lat="46.87804" lon="8.52676">
        <ele>1699</ele>
        <time>2021-08-11T09:44:24.438Z</time>
      </trkpt>
      <trkpt lat="46.87804" lon="8.52675">
        <ele>1699</ele>
        <time>2021-08-11T09:44:25.438Z</time>
      </trkpt>
      <trkpt lat="46.87804" lon="8.52675">
        <ele>1699</ele>
        <time>2021-08-11T09:44:26.439Z</time>
      </trkpt>
      <trkpt lat="46.87803" lon="8.52674">
        <ele>1699</ele>
        <time>2021-08-11T09:44:27.439Z</time>
      </trkpt>
      <trkpt lat="46.87802" lon="8.52674">
        <ele>1699</ele>
        <time>2021-08-11T09:44:28.438Z</time>
      </trkpt>
      <trkpt lat="46.87801" lon="8.52674">
        <ele>1700</ele>
        <time>2021-08-11T09:44:29.439Z</time>
      </trkpt>
      <trkpt lat="46.87801" lon="8.52674">
        <ele>1699</ele>
        <time>2021-08-11T09:44:30.438Z</time>
      </trkpt>
      <trkpt lat="46.878" lon="8.52674">
        <ele>1699</ele>
        <time>2021-08-11T09:44:31.438Z</time>
      </trkpt>
      <trkpt lat="46.878" lon="8.52673">
        <ele>1699</ele>
        <time>2021-08-11T09:44:32.439Z</time>
      </trkpt>
      <trkpt lat="46.87799" lon="8.52673">
        <ele>1699</ele>
        <time>2021-08-11T09:44:33.438Z</time>
      </trkpt>
      <trkpt lat="46.87799" lon="8.52673">
        <ele>1699</ele>
        <time>2021-08-11T09:44:34.438Z</time>
      </trkpt>
      <trkpt lat="46.87799" lon="8.52673">
        <ele>1700</ele>
        <time>2021-08-11T09:44:35.438Z</time>
      </trkpt>
      <trkpt lat="46.87798" lon="8.52672">
        <ele>1701</ele>
        <time>2021-08-11T09:44:36.438Z</time>
      </trkpt>
      <trkpt lat="46.87798" lon="8.52673">
        <ele>1701</ele>
        <time>2021-08-11T09:44:37.438Z</time>
      </trkpt>
      <trkpt lat="46.87798" lon="8.52674">
        <ele>1702</ele>
        <time>2021-08-11T09:44:38.439Z</time>
      </trkpt>
      <trkpt lat="46.87798" lon="8.52675">
        <ele>1702</ele>
        <time>2021-08-11T09:44:39.438Z</time>
      </trkpt>
      <trkpt lat="46.87798" lon="8.52675">
        <ele>1702</ele>
        <time>2021-08-11T09:44:40.439Z</time>
      </trkpt>
      <trkpt lat="46.87797" lon="8.52673">
        <ele>1703</ele>
        <time>2021-08-11T09:44:41.440Z</time>
      </trkpt>
      <trkpt lat="46.87797" lon="8.52673">
        <ele>1703</ele>
        <time>2021-08-11T09:44:42.439Z</time>
      </trkpt>
      <trkpt lat="46.87796" lon="8.52671">
        <ele>1705</ele>
        <time>2021-08-11T09:44:43.439Z</time>
      </trkpt>
      <trkpt lat="46.87795" lon="8.5267">
        <ele>1705</ele>
        <time>2021-08-11T09:44:44.440Z</time>
      </trkpt>
      <trkpt lat="46.87794" lon="8.5267">
        <ele>1706</ele>
        <time>2021-08-11T09:44:45.439Z</time>
      </trkpt>
      <trkpt lat="46.87793" lon="8.52668">
        <ele>1706</ele>
        <time>2021-08-11T09:44:46.440Z</time>
      </trkpt>
      <trkpt lat="46.87792" lon="8.52668">
        <ele>1706</ele>
        <time>2021-08-11T09:44:47.439Z</time>
      </trkpt>
      <trkpt lat="46.87792" lon="8.52667">
        <ele>1706</ele>
        <time>2021-08-11T09:44:48.439Z</time>
      </trkpt>
      <trkpt lat="46.87792" lon="8.52667">
        <ele>1706</ele>
        <time>2021-08-11T09:44:49.440Z</time>
      </trkpt>
      <trkpt lat="46.87791" lon="8.52666">
        <ele>1707</ele>
        <time>2021-08-11T09:44:50.439Z</time>
      </trkpt>
      <trkpt lat="46.87791" lon="8.52666">
        <ele>1706</ele>
        <time>2021-08-11T09:44:51.440Z</time>
      </trkpt>
      <trkpt lat="46.8779" lon="8.52666">
        <ele>1706</ele>
        <time>2021-08-11T09:44:52.440Z</time>
      </trkpt>
      <trkpt lat="46.8779" lon="8.52665">
        <ele>1706</ele>
        <time>2021-08-11T09:44:53.439Z</time>
      </trkpt>
      <trkpt lat="46.8779" lon="8.52665">
        <ele>1705</ele>
        <time>2021-08-11T09:44:54.440Z</time>
      </trkpt>
      <trkpt lat="46.8779" lon="8.52665">
        <ele>1705</ele>
        <time>2021-08-11T09:44:55.440Z</time>
      </trkpt>
      <trkpt lat="46.87789" lon="8.52666">
        <ele>1705</ele>
        <time>2021-08-11T09:44:56.439Z</time>
      </trkpt>
      <trkpt lat="46.87789" lon="8.52665">
        <ele>1705</ele>
        <time>2021-08-11T09:44:57.440Z</time>
      </trkpt>
      <trkpt lat="46.87788" lon="8.52665">
        <ele>1705</ele>
        <time>2021-08-11T09:44:58.440Z</time>
      </trkpt>
      <trkpt lat="46.87787" lon="8.52664">
        <ele>1706</ele>
        <time>2021-08-11T09:44:59.440Z</time>
      </trkpt>
      <trkpt lat="46.87786" lon="8.52663">
        <ele>1706</ele>
        <time>2021-08-11T09:45:00.440Z</time>
      </trkpt>
      <trkpt lat="46.87786" lon="8.52663">
        <ele>1706</ele>
        <time>2021-08-11T09:45:01.440Z</time>
      </trkpt>
      <trkpt lat="46.87785" lon="8.52663">
        <ele>1706</ele>
        <time>2021-08-11T09:45:02.439Z</time>
      </trkpt>
      <trkpt lat="46.87785" lon="8.52662">
        <ele>1707</ele>
        <time>2021-08-11T09:45:03.440Z</time>
      </trkpt>
      <trkpt lat="46.87784" lon="8.52661">
        <ele>1707</ele>
        <time>2021-08-11T09:45:04.440Z</time>
      </trkpt>
      <trkpt lat="46.87784" lon="8.52661">
        <ele>1706</ele>
        <time>2021-08-11T09:45:05.439Z</time>
      </trkpt>
      <trkpt lat="46.87783" lon="8.52661">
        <ele>1706</ele>
        <time>2021-08-11T09:45:06.440Z</time>
      </trkpt>
      <trkpt lat="46.87783" lon="8.5266">
        <ele>1706</ele>
        <time>2021-08-11T09:45:07.440Z</time>
      </trkpt>
      <trkpt lat="46.87783" lon="8.52659">
        <ele>1706</ele>
        <time>2021-08-11T09:45:08.440Z</time>
      </trkpt>
      <trkpt lat="46.87782" lon="8.52658">
        <ele>1706</ele>
        <time>2021-08-11T09:45:09.440Z</time>
      </trkpt>
      <trkpt lat="46.87782" lon="8.52659">
        <ele>1706</ele>
        <time>2021-08-11T09:45:10.440Z</time>
      </trkpt>
      <trkpt lat="46.87782" lon="8.52658">
        <ele>1706</ele>
        <time>2021-08-11T09:45:11.440Z</time>
      </trkpt>
      <trkpt lat="46.87781" lon="8.52658">
        <ele>1706</ele>
        <time>2021-08-11T09:45:12.440Z</time>
      </trkpt>
      <trkpt lat="46.87781" lon="8.52658">
        <ele>1707</ele>
        <time>2021-08-11T09:45:13.440Z</time>
      </trkpt>
      <trkpt lat="46.87781" lon="8.52658">
        <ele>1707</ele>
        <time>2021-08-11T09:45:14.440Z</time>
      </trkpt>
      <trkpt lat="46.8778" lon="8.52658">
        <ele>1708</ele>
        <time>2021-08-11T09:45:15.440Z</time>
      </trkpt>
      <trkpt lat="46.8778" lon="8.52658">
        <ele>1708</ele>
        <time>2021-08-11T09:45:16.440Z</time>
      </trkpt>
      <trkpt lat="46.8778" lon="8.52658">
        <ele>1709</ele>
        <time>2021-08-11T09:45:17.439Z</time>
      </trkpt>
      <trkpt lat="46.87779" lon="8.52657">
        <ele>1708</ele>
        <time>2021-08-11T09:45:18.440Z</time>
      </trkpt>
      <trkpt lat="46.87779" lon="8.52656">
        <ele>1708</ele>
        <time>2021-08-11T09:45:19.439Z</time>
      </trkpt>
      <trkpt lat="46.87779" lon="8.52656">
        <ele>1707</ele>
        <time>2021-08-11T09:45:20.439Z</time>
      </trkpt>
      <trkpt lat="46.87778" lon="8.52656">
        <ele>1707</ele>
        <time>2021-08-11T09:45:21.440Z</time>
      </trkpt>
      <trkpt lat="46.87778" lon="8.52655">
        <ele>1707</ele>
        <time>2021-08-11T09:45:22.439Z</time>
      </trkpt>
      <trkpt lat="46.87777" lon="8.52655">
        <ele>1707</ele>
        <time>2021-08-11T09:45:23.440Z</time>
      </trkpt>
      <trkpt lat="46.87777" lon="8.52655">
        <ele>1706</ele>
        <time>2021-08-11T09:45:24.440Z</time>
      </trkpt>
      <trkpt lat="46.87776" lon="8.52655">
        <ele>1706</ele>
        <time>2021-08-11T09:45:25.439Z</time>
      </trkpt>
      <trkpt lat="46.87776" lon="8.52655">
        <ele>1706</ele>
        <time>2021-08-11T09:45:26.440Z</time>
      </trkpt>
      <trkpt lat="46.87775" lon="8.52655">
        <ele>1706</ele>
        <time>2021-08-11T09:45:27.440Z</time>
      </trkpt>
      <trkpt lat="46.87775" lon="8.52654">
        <ele>1706</ele>
        <time>2021-08-11T09:45:28.439Z</time>
      </trkpt>
      <trkpt lat="46.87775" lon="8.52654">
        <ele>1706</ele>
        <time>2021-08-11T09:45:29.440Z</time>
      </trkpt>
      <trkpt lat="46.87774" lon="8.52654">
        <ele>1707</ele>
        <time>2021-08-11T09:45:30.440Z</time>
      </trkpt>
      <trkpt lat="46.87774" lon="8.52654">
        <ele>1707</ele>
        <time>2021-08-11T09:45:31.440Z</time>
      </trkpt>
      <trkpt lat="46.87773" lon="8.52654">
        <ele>1708</ele>
        <time>2021-08-11T09:45:32.439Z</time>
      </trkpt>
      <trkpt lat="46.87772" lon="8.52654">
        <ele>1708</ele>
        <time>2021-08-11T09:45:33.440Z</time>
      </trkpt>
      <trkpt lat="46.87772" lon="8.52654">
        <ele>1708</ele>
        <time>2021-08-11T09:45:34.440Z</time>
      </trkpt>
      <trkpt lat="46.87771" lon="8.52654">
        <ele>1708</ele>
        <time>2021-08-11T09:45:35.439Z</time>
      </trkpt>
      <trkpt lat="46.87771" lon="8.52654">
        <ele>1708</ele>
        <time>2021-08-11T09:45:36.440Z</time>
      </trkpt>
      <trkpt lat="46.87771" lon="8.52653">
        <ele>1709</ele>
        <time>2021-08-11T09:45:37.440Z</time>
      </trkpt>
      <trkpt lat="46.8777" lon="8.52653">
        <ele>1709</ele>
        <time>2021-08-11T09:45:38.439Z</time>
      </trkpt>
      <trkpt lat="46.8777" lon="8.52652">
        <ele>1710</ele>
        <time>2021-08-11T09:45:39.440Z</time>
      </trkpt>
      <trkpt lat="46.87769" lon="8.52652">
        <ele>1711</ele>
        <time>2021-08-11T09:45:40.440Z</time>
      </trkpt>
      <trkpt lat="46.87769" lon="8.52652">
        <ele>1711</ele>
        <time>2021-08-11T09:45:41.439Z</time>
      </trkpt>
      <trkpt lat="46.87768" lon="8.52652">
        <ele>1711</ele>
        <time>2021-08-11T09:45:42.440Z</time>
      </trkpt>
      <trkpt lat="46.87768" lon="8.52651">
        <ele>1711</ele>
        <time>2021-08-11T09:45:43.440Z</time>
      </trkpt>
      <trkpt lat="46.87767" lon="8.5265">
        <ele>1711</ele>
        <time>2021-08-11T09:45:44.440Z</time>
      </trkpt>
      <trkpt lat="46.87766" lon="8.52649">
        <ele>1711</ele>
        <time>2021-08-11T09:45:45.439Z</time>
      </trkpt>
      <trkpt lat="46.87765" lon="8.52649">
        <ele>1712</ele>
        <time>2021-08-11T09:45:46.439Z</time>
      </trkpt>
      <trkpt lat="46.87764" lon="8.52648">
        <ele>1712</ele>
        <time>2021-08-11T09:45:47.439Z</time>
      </trkpt>
      <trkpt lat="46.87763" lon="8.52647">
        <ele>1712</ele>
        <time>2021-08-11T09:45:48.439Z</time>
      </trkpt>
      <trkpt lat="46.87763" lon="8.52646">
        <ele>1712</ele>
        <time>2021-08-11T09:45:49.439Z</time>
      </trkpt>
      <trkpt lat="46.87762" lon="8.52645">
        <ele>1712</ele>
        <time>2021-08-11T09:45:50.440Z</time>
      </trkpt>
      <trkpt lat="46.87761" lon="8.52644">
        <ele>1712</ele>
        <time>2021-08-11T09:45:51.439Z</time>
      </trkpt>
      <trkpt lat="46.8776" lon="8.52644">
        <ele>1712</ele>
        <time>2021-08-11T09:45:52.440Z</time>
      </trkpt>
      <trkpt lat="46.8776" lon="8.52644">
        <ele>1712</ele>
        <time>2021-08-11T09:45:53.440Z</time>
      </trkpt>
      <trkpt lat="46.87759" lon="8.52645">
        <ele>1712</ele>
        <time>2021-08-11T09:45:54.440Z</time>
      </trkpt>
      <trkpt lat="46.87759" lon="8.52645">
        <ele>1712</ele>
        <time>2021-08-11T09:45:55.440Z</time>
      </trkpt>
      <trkpt lat="46.87758" lon="8.52645">
        <ele>1712</ele>
        <time>2021-08-11T09:45:56.440Z</time>
      </trkpt>
      <trkpt lat="46.87758" lon="8.52645">
        <ele>1713</ele>
        <time>2021-08-11T09:45:57.440Z</time>
      </trkpt>
      <trkpt lat="46.87758" lon="8.52646">
        <ele>1713</ele>
        <time>2021-08-11T09:45:58.440Z</time>
      </trkpt>
      <trkpt lat="46.87757" lon="8.52645">
        <ele>1714</ele>
        <time>2021-08-11T09:45:59.439Z</time>
      </trkpt>
      <trkpt lat="46.87757" lon="8.52645">
        <ele>1715</ele>
        <time>2021-08-11T09:46:00.440Z</time>
      </trkpt>
      <trkpt lat="46.87757" lon="8.52645">
        <ele>1715</ele>
        <time>2021-08-11T09:46:01.439Z</time>
      </trkpt>
      <trkpt lat="46.87756" lon="8.52645">
        <ele>1716</ele>
        <time>2021-08-11T09:46:02.440Z</time>
      </trkpt>
      <trkpt lat="46.87756" lon="8.52645">
        <ele>1716</ele>
        <time>2021-08-11T09:46:03.439Z</time>
      </trkpt>
      <trkpt lat="46.87756" lon="8.52645">
        <ele>1715</ele>
        <time>2021-08-11T09:46:04.440Z</time>
      </trkpt>
      <trkpt lat="46.87755" lon="8.52645">
        <ele>1715</ele>
        <time>2021-08-11T09:46:05.440Z</time>
      </trkpt>
      <trkpt lat="46.87755" lon="8.52645">
        <ele>1715</ele>
        <time>2021-08-11T09:46:06.440Z</time>
      </trkpt>
      <trkpt lat="46.87754" lon="8.52644">
        <ele>1715</ele>
        <time>2021-08-11T09:46:07.440Z</time>
      </trkpt>
      <trkpt lat="46.87754" lon="8.52644">
        <ele>1715</ele>
        <time>2021-08-11T09:46:08.440Z</time>
      </trkpt>
      <trkpt lat="46.87753" lon="8.52644">
        <ele>1716</ele>
        <time>2021-08-11T09:46:09.440Z</time>
      </trkpt>
      <trkpt lat="46.87753" lon="8.52643">
        <ele>1717</ele>
        <time>2021-08-11T09:46:10.439Z</time>
      </trkpt>
      <trkpt lat="46.87752" lon="8.52643">
        <ele>1717</ele>
        <time>2021-08-11T09:46:11.440Z</time>
      </trkpt>
      <trkpt lat="46.87751" lon="8.52642">
        <ele>1717</ele>
        <time>2021-08-11T09:46:12.440Z</time>
      </trkpt>
      <trkpt lat="46.87751" lon="8.52642">
        <ele>1717</ele>
        <time>2021-08-11T09:46:13.440Z</time>
      </trkpt>
      <trkpt lat="46.8775" lon="8.52641">
        <ele>1717</ele>
        <time>2021-08-11T09:46:14.440Z</time>
      </trkpt>
      <trkpt lat="46.8775" lon="8.52641">
        <ele>1717</ele>
        <time>2021-08-11T09:46:15.440Z</time>
      </trkpt>
      <trkpt lat="46.87749" lon="8.52641">
        <ele>1717</ele>
        <time>2021-08-11T09:46:16.440Z</time>
      </trkpt>
      <trkpt lat="46.87749" lon="8.52642">
        <ele>1717</ele>
        <time>2021-08-11T09:46:17.440Z</time>
      </trkpt>
      <trkpt lat="46.87748" lon="8.52642">
        <ele>1718</ele>
        <time>2021-08-11T09:46:18.439Z</time>
      </trkpt>
      <trkpt lat="46.87748" lon="8.52642">
        <ele>1718</ele>
        <time>2021-08-11T09:46:19.439Z</time>
      </trkpt>
      <trkpt lat="46.87748" lon="8.52642">
        <ele>1718</ele>
        <time>2021-08-11T09:46:20.439Z</time>
      </trkpt>
      <trkpt lat="46.87747" lon="8.52642">
        <ele>1719</ele>
        <time>2021-08-11T09:46:21.440Z</time>
      </trkpt>
      <trkpt lat="46.87747" lon="8.52642">
        <ele>1718</ele>
        <time>2021-08-11T09:46:22.440Z</time>
      </trkpt>
      <trkpt lat="46.87746" lon="8.52642">
        <ele>1718</ele>
        <time>2021-08-11T09:46:23.440Z</time>
      </trkpt>
      <trkpt lat="46.87746" lon="8.52642">
        <ele>1718</ele>
        <time>2021-08-11T09:46:24.439Z</time>
      </trkpt>
      <trkpt lat="46.87745" lon="8.52642">
        <ele>1718</ele>
        <time>2021-08-11T09:46:25.440Z</time>
      </trkpt>
      <trkpt lat="46.87745" lon="8.52642">
        <ele>1718</ele>
        <time>2021-08-11T09:46:26.440Z</time>
      </trkpt>
      <trkpt lat="46.87744" lon="8.52642">
        <ele>1718</ele>
        <time>2021-08-11T09:46:27.440Z</time>
      </trkpt>
      <trkpt lat="46.87744" lon="8.52642">
        <ele>1718</ele>
        <time>2021-08-11T09:46:28.439Z</time>
      </trkpt>
      <trkpt lat="46.87743" lon="8.52642">
        <ele>1718</ele>
        <time>2021-08-11T09:46:29.440Z</time>
      </trkpt>
      <trkpt lat="46.87742" lon="8.52642">
        <ele>1719</ele>
        <time>2021-08-11T09:46:30.440Z</time>
      </trkpt>
      <trkpt lat="46.8774" lon="8.52643">
        <ele>1719</ele>
        <time>2021-08-11T09:46:31.440Z</time>
      </trkpt>
      <trkpt lat="46.87739" lon="8.52643">
        <ele>1720</ele>
        <time>2021-08-11T09:46:32.440Z</time>
      </trkpt>
      <trkpt lat="46.87739" lon="8.52644">
        <ele>1721</ele>
        <time>2021-08-11T09:46:33.439Z</time>
      </trkpt>
      <trkpt lat="46.87738" lon="8.52644">
        <ele>1721</ele>
        <time>2021-08-11T09:46:34.440Z</time>
      </trkpt>
      <trkpt lat="46.87737" lon="8.52646">
        <ele>1722</ele>
        <time>2021-08-11T09:46:35.440Z</time>
      </trkpt>
      <trkpt lat="46.87737" lon="8.52647">
        <ele>1723</ele>
        <time>2021-08-11T09:46:36.440Z</time>
      </trkpt>
      <trkpt lat="46.87736" lon="8.52648">
        <ele>1723</ele>
        <time>2021-08-11T09:46:37.439Z</time>
      </trkpt>
      <trkpt lat="46.87735" lon="8.52649">
        <ele>1723</ele>
        <time>2021-08-11T09:46:38.440Z</time>
      </trkpt>
      <trkpt lat="46.87735" lon="8.5265">
        <ele>1722</ele>
        <time>2021-08-11T09:46:39.439Z</time>
      </trkpt>
      <trkpt lat="46.87734" lon="8.52651">
        <ele>1722</ele>
        <time>2021-08-11T09:46:40.439Z</time>
      </trkpt>
      <trkpt lat="46.87733" lon="8.52652">
        <ele>1722</ele>
        <time>2021-08-11T09:46:41.440Z</time>
      </trkpt>
      <trkpt lat="46.87732" lon="8.52653">
        <ele>1722</ele>
        <time>2021-08-11T09:46:42.439Z</time>
      </trkpt>
      <trkpt lat="46.87731" lon="8.52653">
        <ele>1722</ele>
        <time>2021-08-11T09:46:43.440Z</time>
      </trkpt>
      <trkpt lat="46.8773" lon="8.52654">
        <ele>1722</ele>
        <time>2021-08-11T09:46:44.439Z</time>
      </trkpt>
      <trkpt lat="46.87729" lon="8.52654">
        <ele>1722</ele>
        <time>2021-08-11T09:46:45.440Z</time>
      </trkpt>
      <trkpt lat="46.87729" lon="8.52655">
        <ele>1722</ele>
        <time>2021-08-11T09:46:46.440Z</time>
      </trkpt>
      <trkpt lat="46.87728" lon="8.52655">
        <ele>1723</ele>
        <time>2021-08-11T09:46:47.440Z</time>
      </trkpt>
      <trkpt lat="46.87727" lon="8.52656">
        <ele>1723</ele>
        <time>2021-08-11T09:46:48.440Z</time>
      </trkpt>
      <trkpt lat="46.87726" lon="8.52656">
        <ele>1723</ele>
        <time>2021-08-11T09:46:49.439Z</time>
      </trkpt>
      <trkpt lat="46.87725" lon="8.52657">
        <ele>1723</ele>
        <time>2021-08-11T09:46:50.440Z</time>
      </trkpt>
      <trkpt lat="46.87725" lon="8.52658">
        <ele>1722</ele>
        <time>2021-08-11T09:46:51.439Z</time>
      </trkpt>
      <trkpt lat="46.87725" lon="8.52659">
        <ele>1722</ele>
        <time>2021-08-11T09:46:52.440Z</time>
      </trkpt>
      <trkpt lat="46.87724" lon="8.5266">
        <ele>1721</ele>
        <time>2021-08-11T09:46:53.440Z</time>
      </trkpt>
      <trkpt lat="46.87724" lon="8.5266">
        <ele>1720</ele>
        <time>2021-08-11T09:46:54.440Z</time>
      </trkpt>
      <trkpt lat="46.87723" lon="8.5266">
        <ele>1720</ele>
        <time>2021-08-11T09:46:55.439Z</time>
      </trkpt>
      <trkpt lat="46.87722" lon="8.5266">
        <ele>1720</ele>
        <time>2021-08-11T09:46:56.440Z</time>
      </trkpt>
      <trkpt lat="46.87722" lon="8.52659">
        <ele>1721</ele>
        <time>2021-08-11T09:46:57.440Z</time>
      </trkpt>
      <trkpt lat="46.87721" lon="8.52659">
        <ele>1721</ele>
        <time>2021-08-11T09:46:58.440Z</time>
      </trkpt>
      <trkpt lat="46.8772" lon="8.52658">
        <ele>1720</ele>
        <time>2021-08-11T09:46:59.439Z</time>
      </trkpt>
      <trkpt lat="46.8772" lon="8.52657">
        <ele>1720</ele>
        <time>2021-08-11T09:47:00.439Z</time>
      </trkpt>
      <trkpt lat="46.87719" lon="8.52656">
        <ele>1720</ele>
        <time>2021-08-11T09:47:01.440Z</time>
      </trkpt>
      <trkpt lat="46.87718" lon="8.52656">
        <ele>1719</ele>
        <time>2021-08-11T09:47:02.440Z</time>
      </trkpt>
      <trkpt lat="46.87718" lon="8.52655">
        <ele>1719</ele>
        <time>2021-08-11T09:47:03.440Z</time>
      </trkpt>
      <trkpt lat="46.87717" lon="8.52654">
        <ele>1719</ele>
        <time>2021-08-11T09:47:04.439Z</time>
      </trkpt>
      <trkpt lat="46.87717" lon="8.52654">
        <ele>1718</ele>
        <time>2021-08-11T09:47:05.440Z</time>
      </trkpt>
      <trkpt lat="46.87717" lon="8.52654">
        <ele>1718</ele>
        <time>2021-08-11T09:47:06.440Z</time>
      </trkpt>
      <trkpt lat="46.87716" lon="8.52653">
        <ele>1718</ele>
        <time>2021-08-11T09:47:07.440Z</time>
      </trkpt>
      <trkpt lat="46.87716" lon="8.52652">
        <ele>1718</ele>
        <time>2021-08-11T09:47:08.440Z</time>
      </trkpt>
      <trkpt lat="46.87716" lon="8.52652">
        <ele>1719</ele>
        <time>2021-08-11T09:47:09.440Z</time>
      </trkpt>
      <trkpt lat="46.87715" lon="8.52651">
        <ele>1719</ele>
        <time>2021-08-11T09:47:10.439Z</time>
      </trkpt>
      <trkpt lat="46.87715" lon="8.52651">
        <ele>1719</ele>
        <time>2021-08-11T09:47:11.439Z</time>
      </trkpt>
      <trkpt lat="46.87715" lon="8.5265">
        <ele>1719</ele>
        <time>2021-08-11T09:47:12.440Z</time>
      </trkpt>
      <trkpt lat="46.87714" lon="8.5265">
        <ele>1719</ele>
        <time>2021-08-11T09:47:13.439Z</time>
      </trkpt>
      <trkpt lat="46.87714" lon="8.5265">
        <ele>1719</ele>
        <time>2021-08-11T09:47:14.440Z</time>
      </trkpt>
      <trkpt lat="46.87713" lon="8.52649">
        <ele>1720</ele>
        <time>2021-08-11T09:47:15.440Z</time>
      </trkpt>
      <trkpt lat="46.87713" lon="8.52649">
        <ele>1720</ele>
        <time>2021-08-11T09:47:16.440Z</time>
      </trkpt>
      <trkpt lat="46.87712" lon="8.52648">
        <ele>1721</ele>
        <time>2021-08-11T09:47:17.440Z</time>
      </trkpt>
      <trkpt lat="46.87712" lon="8.52647">
        <ele>1721</ele>
        <time>2021-08-11T09:47:18.440Z</time>
      </trkpt>
      <trkpt lat="46.87711" lon="8.52647">
        <ele>1721</ele>
        <time>2021-08-11T09:47:19.439Z</time>
      </trkpt>
      <trkpt lat="46.87711" lon="8.52646">
        <ele>1720</ele>
        <time>2021-08-11T09:47:20.440Z</time>
      </trkpt>
      <trkpt lat="46.8771" lon="8.52646">
        <ele>1720</ele>
        <time>2021-08-11T09:47:21.439Z</time>
      </trkpt>
      <trkpt lat="46.8771" lon="8.52645">
        <ele>1720</ele>
        <time>2021-08-11T09:47:22.440Z</time>
      </trkpt>
      <trkpt lat="46.87709" lon="8.52644">
        <ele>1720</ele>
        <time>2021-08-11T09:47:23.440Z</time>
      </trkpt>
      <trkpt lat="46.87709" lon="8.52642">
        <ele>1721</ele>
        <time>2021-08-11T09:47:24.440Z</time>
      </trkpt>
      <trkpt lat="46.87708" lon="8.52642">
        <ele>1721</ele>
        <time>2021-08-11T09:47:25.440Z</time>
      </trkpt>
      <trkpt lat="46.87708" lon="8.5264">
        <ele>1721</ele>
        <time>2021-08-11T09:47:26.439Z</time>
      </trkpt>
      <trkpt lat="46.87707" lon="8.52639">
        <ele>1721</ele>
        <time>2021-08-11T09:47:27.440Z</time>
      </trkpt>
      <trkpt lat="46.87707" lon="8.52638">
        <ele>1721</ele>
        <time>2021-08-11T09:47:28.440Z</time>
      </trkpt>
      <trkpt lat="46.87707" lon="8.52637">
        <ele>1721</ele>
        <time>2021-08-11T09:47:29.440Z</time>
      </trkpt>
      <trkpt lat="46.87707" lon="8.52636">
        <ele>1721</ele>
        <time>2021-08-11T09:47:30.440Z</time>
      </trkpt>
      <trkpt lat="46.87706" lon="8.52635">
        <ele>1720</ele>
        <time>2021-08-11T09:47:31.440Z</time>
      </trkpt>
      <trkpt lat="46.87706" lon="8.52634">
        <ele>1720</ele>
        <time>2021-08-11T09:47:32.439Z</time>
      </trkpt>
      <trkpt lat="46.87706" lon="8.52634">
        <ele>1720</ele>
        <time>2021-08-11T09:47:33.440Z</time>
      </trkpt>
      <trkpt lat="46.87706" lon="8.52633">
        <ele>1720</ele>
        <time>2021-08-11T09:47:34.440Z</time>
      </trkpt>
      <trkpt lat="46.87706" lon="8.52632">
        <ele>1720</ele>
        <time>2021-08-11T09:47:35.439Z</time>
      </trkpt>
      <trkpt lat="46.87706" lon="8.52632">
        <ele>1720</ele>
        <time>2021-08-11T09:47:36.440Z</time>
      </trkpt>
      <trkpt lat="46.87706" lon="8.52631">
        <ele>1720</ele>
        <time>2021-08-11T09:47:37.440Z</time>
      </trkpt>
      <trkpt lat="46.87706" lon="8.5263">
        <ele>1720</ele>
        <time>2021-08-11T09:47:38.440Z</time>
      </trkpt>
      <trkpt lat="46.87707" lon="8.5263">
        <ele>1720</ele>
        <time>2021-08-11T09:47:39.439Z</time>
      </trkpt>
      <trkpt lat="46.87707" lon="8.52629">
        <ele>1720</ele>
        <time>2021-08-11T09:47:40.439Z</time>
      </trkpt>
      <trkpt lat="46.87707" lon="8.52628">
        <ele>1720</ele>
        <time>2021-08-11T09:47:41.439Z</time>
      </trkpt>
      <trkpt lat="46.87707" lon="8.52627">
        <ele>1720</ele>
        <time>2021-08-11T09:47:42.439Z</time>
      </trkpt>
      <trkpt lat="46.87707" lon="8.52626">
        <ele>1719</ele>
        <time>2021-08-11T09:47:43.440Z</time>
      </trkpt>
      <trkpt lat="46.87707" lon="8.52625">
        <ele>1719</ele>
        <time>2021-08-11T09:47:44.439Z</time>
      </trkpt>
      <trkpt lat="46.87707" lon="8.52624">
        <ele>1719</ele>
        <time>2021-08-11T09:47:45.439Z</time>
      </trkpt>
      <trkpt lat="46.87707" lon="8.52623">
        <ele>1719</ele>
        <time>2021-08-11T09:47:46.439Z</time>
      </trkpt>
      <trkpt lat="46.87707" lon="8.52622">
        <ele>1719</ele>
        <time>2021-08-11T09:47:47.440Z</time>
      </trkpt>
      <trkpt lat="46.87706" lon="8.52621">
        <ele>1719</ele>
        <time>2021-08-11T09:47:48.440Z</time>
      </trkpt>
      <trkpt lat="46.87706" lon="8.5262">
        <ele>1719</ele>
        <time>2021-08-11T09:47:49.439Z</time>
      </trkpt>
      <trkpt lat="46.87706" lon="8.52619">
        <ele>1720</ele>
        <time>2021-08-11T09:47:50.439Z</time>
      </trkpt>
      <trkpt lat="46.87706" lon="8.52617">
        <ele>1720</ele>
        <time>2021-08-11T09:47:51.440Z</time>
      </trkpt>
      <trkpt lat="46.87706" lon="8.52615">
        <ele>1721</ele>
        <time>2021-08-11T09:47:52.440Z</time>
      </trkpt>
      <trkpt lat="46.87706" lon="8.52614">
        <ele>1721</ele>
        <time>2021-08-11T09:47:53.440Z</time>
      </trkpt>
      <trkpt lat="46.87705" lon="8.52612">
        <ele>1721</ele>
        <time>2021-08-11T09:47:54.440Z</time>
      </trkpt>
      <trkpt lat="46.87705" lon="8.52611">
        <ele>1721</ele>
        <time>2021-08-11T09:47:55.439Z</time>
      </trkpt>
      <trkpt lat="46.87705" lon="8.5261">
        <ele>1721</ele>
        <time>2021-08-11T09:47:56.440Z</time>
      </trkpt>
      <trkpt lat="46.87704" lon="8.52609">
        <ele>1722</ele>
        <time>2021-08-11T09:47:57.440Z</time>
      </trkpt>
      <trkpt lat="46.87704" lon="8.52607">
        <ele>1722</ele>
        <time>2021-08-11T09:47:58.440Z</time>
      </trkpt>
      <trkpt lat="46.87704" lon="8.52606">
        <ele>1722</ele>
        <time>2021-08-11T09:47:59.439Z</time>
      </trkpt>
      <trkpt lat="46.87703" lon="8.52604">
        <ele>1722</ele>
        <time>2021-08-11T09:48:00.440Z</time>
      </trkpt>
      <trkpt lat="46.87703" lon="8.52603">
        <ele>1722</ele>
        <time>2021-08-11T09:48:01.440Z</time>
      </trkpt>
      <trkpt lat="46.87703" lon="8.52601">
        <ele>1722</ele>
        <time>2021-08-11T09:48:02.440Z</time>
      </trkpt>
      <trkpt lat="46.87702" lon="8.526">
        <ele>1722</ele>
        <time>2021-08-11T09:48:03.440Z</time>
      </trkpt>
      <trkpt lat="46.87702" lon="8.52599">
        <ele>1722</ele>
        <time>2021-08-11T09:48:04.439Z</time>
      </trkpt>
      <trkpt lat="46.87701" lon="8.52599">
        <ele>1722</ele>
        <time>2021-08-11T09:48:05.439Z</time>
      </trkpt>
      <trkpt lat="46.87701" lon="8.52599">
        <ele>1722</ele>
        <time>2021-08-11T09:48:06.439Z</time>
      </trkpt>
      <trkpt lat="46.877" lon="8.52598">
        <ele>1722</ele>
        <time>2021-08-11T09:48:07.440Z</time>
      </trkpt>
      <trkpt lat="46.877" lon="8.52596">
        <ele>1722</ele>
        <time>2021-08-11T09:48:08.440Z</time>
      </trkpt>
      <trkpt lat="46.87699" lon="8.52595">
        <ele>1722</ele>
        <time>2021-08-11T09:48:09.439Z</time>
      </trkpt>
      <trkpt lat="46.87698" lon="8.52594">
        <ele>1722</ele>
        <time>2021-08-11T09:48:10.439Z</time>
      </trkpt>
      <trkpt lat="46.87698" lon="8.52593">
        <ele>1721</ele>
        <time>2021-08-11T09:48:11.440Z</time>
      </trkpt>
      <trkpt lat="46.87697" lon="8.52592">
        <ele>1721</ele>
        <time>2021-08-11T09:48:12.439Z</time>
      </trkpt>
      <trkpt lat="46.87697" lon="8.5259">
        <ele>1721</ele>
        <time>2021-08-11T09:48:13.440Z</time>
      </trkpt>
      <trkpt lat="46.87697" lon="8.52589">
        <ele>1721</ele>
        <time>2021-08-11T09:48:14.439Z</time>
      </trkpt>
      <trkpt lat="46.87697" lon="8.52588">
        <ele>1721</ele>
        <time>2021-08-11T09:48:15.440Z</time>
      </trkpt>
      <trkpt lat="46.87697" lon="8.52586">
        <ele>1721</ele>
        <time>2021-08-11T09:48:16.440Z</time>
      </trkpt>
      <trkpt lat="46.87696" lon="8.52585">
        <ele>1721</ele>
        <time>2021-08-11T09:48:17.440Z</time>
      </trkpt>
      <trkpt lat="46.87696" lon="8.52584">
        <ele>1721</ele>
        <time>2021-08-11T09:48:18.440Z</time>
      </trkpt>
      <trkpt lat="46.87695" lon="8.52583">
        <ele>1721</ele>
        <time>2021-08-11T09:48:19.440Z</time>
      </trkpt>
      <trkpt lat="46.87695" lon="8.52582">
        <ele>1721</ele>
        <time>2021-08-11T09:48:20.439Z</time>
      </trkpt>
      <trkpt lat="46.87694" lon="8.52581">
        <ele>1721</ele>
        <time>2021-08-11T09:48:21.439Z</time>
      </trkpt>
      <trkpt lat="46.87694" lon="8.5258">
        <ele>1722</ele>
        <time>2021-08-11T09:48:22.440Z</time>
      </trkpt>
      <trkpt lat="46.87693" lon="8.52579">
        <ele>1722</ele>
        <time>2021-08-11T09:48:23.440Z</time>
      </trkpt>
      <trkpt lat="46.87693" lon="8.52578">
        <ele>1722</ele>
        <time>2021-08-11T09:48:24.440Z</time>
      </trkpt>
      <trkpt lat="46.87693" lon="8.52576">
        <ele>1722</ele>
        <time>2021-08-11T09:48:25.439Z</time>
      </trkpt>
      <trkpt lat="46.87694" lon="8.52575">
        <ele>1721</ele>
        <time>2021-08-11T09:48:26.440Z</time>
      </trkpt>
      <trkpt lat="46.87694" lon="8.52574">
        <ele>1721</ele>
        <time>2021-08-11T09:48:27.439Z</time>
      </trkpt>
      <trkpt lat="46.87694" lon="8.52573">
        <ele>1721</ele>
        <time>2021-08-11T09:48:28.440Z</time>
      </trkpt>
      <trkpt lat="46.87694" lon="8.52572">
        <ele>1721</ele>
        <time>2021-08-11T09:48:29.439Z</time>
      </trkpt>
      <trkpt lat="46.87694" lon="8.52571">
        <ele>1721</ele>
        <time>2021-08-11T09:48:30.440Z</time>
      </trkpt>
      <trkpt lat="46.87695" lon="8.52569">
        <ele>1720</ele>
        <time>2021-08-11T09:48:31.440Z</time>
      </trkpt>
      <trkpt lat="46.87695" lon="8.52568">
        <ele>1720</ele>
        <time>2021-08-11T09:48:32.440Z</time>
      </trkpt>
      <trkpt lat="46.87695" lon="8.52567">
        <ele>1719</ele>
        <time>2021-08-11T09:48:33.440Z</time>
      </trkpt>
      <trkpt lat="46.87695" lon="8.52565">
        <ele>1719</ele>
        <time>2021-08-11T09:48:34.440Z</time>
      </trkpt>
      <trkpt lat="46.87695" lon="8.52563">
        <ele>1718</ele>
        <time>2021-08-11T09:48:35.440Z</time>
      </trkpt>
      <trkpt lat="46.87695" lon="8.52562">
        <ele>1717</ele>
        <time>2021-08-11T09:48:36.440Z</time>
      </trkpt>
      <trkpt lat="46.87695" lon="8.5256">
        <ele>1717</ele>
        <time>2021-08-11T09:48:37.439Z</time>
      </trkpt>
      <trkpt lat="46.87694" lon="8.52559">
        <ele>1716</ele>
        <time>2021-08-11T09:48:38.439Z</time>
      </trkpt>
      <trkpt lat="46.87694" lon="8.52557">
        <ele>1716</ele>
        <time>2021-08-11T09:48:39.439Z</time>
      </trkpt>
      <trkpt lat="46.87693" lon="8.52555">
        <ele>1716</ele>
        <time>2021-08-11T09:48:40.439Z</time>
      </trkpt>
      <trkpt lat="46.87693" lon="8.52554">
        <ele>1715</ele>
        <time>2021-08-11T09:48:41.440Z</time>
      </trkpt>
      <trkpt lat="46.87693" lon="8.52552">
        <ele>1715</ele>
        <time>2021-08-11T09:48:42.440Z</time>
      </trkpt>
      <trkpt lat="46.87693" lon="8.52551">
        <ele>1715</ele>
        <time>2021-08-11T09:48:43.440Z</time>
      </trkpt>
      <trkpt lat="46.87692" lon="8.5255">
        <ele>1715</ele>
        <time>2021-08-11T09:48:44.439Z</time>
      </trkpt>
      <trkpt lat="46.87692" lon="8.52549">
        <ele>1714</ele>
        <time>2021-08-11T09:48:45.440Z</time>
      </trkpt>
      <trkpt lat="46.87691" lon="8.52547">
        <ele>1714</ele>
        <time>2021-08-11T09:48:46.440Z</time>
      </trkpt>
      <trkpt lat="46.87691" lon="8.52546">
        <ele>1714</ele>
        <time>2021-08-11T09:48:47.440Z</time>
      </trkpt>
      <trkpt lat="46.87691" lon="8.52545">
        <ele>1713</ele>
        <time>2021-08-11T09:48:48.440Z</time>
      </trkpt>
      <trkpt lat="46.8769" lon="8.52543">
        <ele>1713</ele>
        <time>2021-08-11T09:48:49.439Z</time>
      </trkpt>
      <trkpt lat="46.8769" lon="8.52542">
        <ele>1713</ele>
        <time>2021-08-11T09:48:50.439Z</time>
      </trkpt>
      <trkpt lat="46.87689" lon="8.52541">
        <ele>1712</ele>
        <time>2021-08-11T09:48:51.440Z</time>
      </trkpt>
      <trkpt lat="46.87688" lon="8.5254">
        <ele>1712</ele>
        <time>2021-08-11T09:48:52.440Z</time>
      </trkpt>
      <trkpt lat="46.87688" lon="8.5254">
        <ele>1712</ele>
        <time>2021-08-11T09:48:53.440Z</time>
      </trkpt>
      <trkpt lat="46.87687" lon="8.52539">
        <ele>1712</ele>
        <time>2021-08-11T09:48:54.440Z</time>
      </trkpt>
      <trkpt lat="46.87686" lon="8.52538">
        <ele>1713</ele>
        <time>2021-08-11T09:48:55.440Z</time>
      </trkpt>
      <trkpt lat="46.87686" lon="8.52537">
        <ele>1713</ele>
        <time>2021-08-11T09:48:56.440Z</time>
      </trkpt>
      <trkpt lat="46.87685" lon="8.52537">
        <ele>1714</ele>
        <time>2021-08-11T09:48:57.439Z</time>
      </trkpt>
      <trkpt lat="46.87684" lon="8.52536">
        <ele>1714</ele>
        <time>2021-08-11T09:48:58.440Z</time>
      </trkpt>
      <trkpt lat="46.87684" lon="8.52535">
        <ele>1714</ele>
        <time>2021-08-11T09:48:59.440Z</time>
      </trkpt>
      <trkpt lat="46.87683" lon="8.52534">
        <ele>1714</ele>
        <time>2021-08-11T09:49:00.440Z</time>
      </trkpt>
      <trkpt lat="46.87683" lon="8.52533">
        <ele>1713</ele>
        <time>2021-08-11T09:49:01.440Z</time>
      </trkpt>
      <trkpt lat="46.87683" lon="8.52532">
        <ele>1713</ele>
        <time>2021-08-11T09:49:02.440Z</time>
      </trkpt>
      <trkpt lat="46.87682" lon="8.5253">
        <ele>1713</ele>
        <time>2021-08-11T09:49:03.440Z</time>
      </trkpt>
      <trkpt lat="46.87682" lon="8.5253">
        <ele>1713</ele>
        <time>2021-08-11T09:49:04.440Z</time>
      </trkpt>
      <trkpt lat="46.87682" lon="8.52529">
        <ele>1713</ele>
        <time>2021-08-11T09:49:05.440Z</time>
      </trkpt>
      <trkpt lat="46.87681" lon="8.52527">
        <ele>1713</ele>
        <time>2021-08-11T09:49:06.439Z</time>
      </trkpt>
      <trkpt lat="46.8768" lon="8.52526">
        <ele>1713</ele>
        <time>2021-08-11T09:49:07.439Z</time>
      </trkpt>
      <trkpt lat="46.8768" lon="8.52525">
        <ele>1713</ele>
        <time>2021-08-11T09:49:08.440Z</time>
      </trkpt>
      <trkpt lat="46.87679" lon="8.52524">
        <ele>1713</ele>
        <time>2021-08-11T09:49:09.440Z</time>
      </trkpt>
      <trkpt lat="46.87679" lon="8.52523">
        <ele>1714</ele>
        <time>2021-08-11T09:49:10.439Z</time>
      </trkpt>
      <trkpt lat="46.87678" lon="8.52522">
        <ele>1713</ele>
        <time>2021-08-11T09:49:11.440Z</time>
      </trkpt>
      <trkpt lat="46.87678" lon="8.5252">
        <ele>1713</ele>
        <time>2021-08-11T09:49:12.439Z</time>
      </trkpt>
      <trkpt lat="46.87677" lon="8.52519">
        <ele>1713</ele>
        <time>2021-08-11T09:49:13.440Z</time>
      </trkpt>
      <trkpt lat="46.87677" lon="8.52519">
        <ele>1713</ele>
        <time>2021-08-11T09:49:14.439Z</time>
      </trkpt>
      <trkpt lat="46.87676" lon="8.52518">
        <ele>1713</ele>
        <time>2021-08-11T09:49:15.439Z</time>
      </trkpt>
      <trkpt lat="46.87676" lon="8.52517">
        <ele>1714</ele>
        <time>2021-08-11T09:49:16.440Z</time>
      </trkpt>
      <trkpt lat="46.87676" lon="8.52517">
        <ele>1713</ele>
        <time>2021-08-11T09:49:17.440Z</time>
      </trkpt>
      <trkpt lat="46.87675" lon="8.52516">
        <ele>1713</ele>
        <time>2021-08-11T09:49:18.440Z</time>
      </trkpt>
      <trkpt lat="46.87674" lon="8.52516">
        <ele>1713</ele>
        <time>2021-08-11T09:49:19.440Z</time>
      </trkpt>
      <trkpt lat="46.87674" lon="8.52515">
        <ele>1713</ele>
        <time>2021-08-11T09:49:20.439Z</time>
      </trkpt>
      <trkpt lat="46.87674" lon="8.52514">
        <ele>1712</ele>
        <time>2021-08-11T09:49:21.440Z</time>
      </trkpt>
      <trkpt lat="46.87673" lon="8.52514">
        <ele>1712</ele>
        <time>2021-08-11T09:49:22.440Z</time>
      </trkpt>
      <trkpt lat="46.87672" lon="8.52513">
        <ele>1712</ele>
        <time>2021-08-11T09:49:23.439Z</time>
      </trkpt>
      <trkpt lat="46.87672" lon="8.52512">
        <ele>1712</ele>
        <time>2021-08-11T09:49:24.439Z</time>
      </trkpt>
      <trkpt lat="46.87671" lon="8.52512">
        <ele>1712</ele>
        <time>2021-08-11T09:49:25.439Z</time>
      </trkpt>
      <trkpt lat="46.87671" lon="8.52511">
        <ele>1712</ele>
        <time>2021-08-11T09:49:26.440Z</time>
      </trkpt>
      <trkpt lat="46.87671" lon="8.5251">
        <ele>1712</ele>
        <time>2021-08-11T09:49:27.440Z</time>
      </trkpt>
      <trkpt lat="46.8767" lon="8.52509">
        <ele>1713</ele>
        <time>2021-08-11T09:49:28.439Z</time>
      </trkpt>
      <trkpt lat="46.8767" lon="8.52508">
        <ele>1714</ele>
        <time>2021-08-11T09:49:29.440Z</time>
      </trkpt>
      <trkpt lat="46.87669" lon="8.52507">
        <ele>1714</ele>
        <time>2021-08-11T09:49:30.440Z</time>
      </trkpt>
      <trkpt lat="46.87669" lon="8.52507">
        <ele>1715</ele>
        <time>2021-08-11T09:49:31.439Z</time>
      </trkpt>
      <trkpt lat="46.87668" lon="8.52506">
        <ele>1715</ele>
        <time>2021-08-11T09:49:32.440Z</time>
      </trkpt>
      <trkpt lat="46.87668" lon="8.52506">
        <ele>1715</ele>
        <time>2021-08-11T09:49:33.440Z</time>
      </trkpt>
      <trkpt lat="46.87668" lon="8.52505">
        <ele>1715</ele>
        <time>2021-08-11T09:49:34.440Z</time>
      </trkpt>
      <trkpt lat="46.87667" lon="8.52504">
        <ele>1716</ele>
        <time>2021-08-11T09:49:35.440Z</time>
      </trkpt>
      <trkpt lat="46.87667" lon="8.52503">
        <ele>1715</ele>
        <time>2021-08-11T09:49:36.439Z</time>
      </trkpt>
      <trkpt lat="46.87666" lon="8.52502">
        <ele>1715</ele>
        <time>2021-08-11T09:49:37.440Z</time>
      </trkpt>
      <trkpt lat="46.87665" lon="8.52501">
        <ele>1715</ele>
        <time>2021-08-11T09:49:38.440Z</time>
      </trkpt>
      <trkpt lat="46.87665" lon="8.52499">
        <ele>1715</ele>
        <time>2021-08-11T09:49:39.440Z</time>
      </trkpt>
      <trkpt lat="46.87665" lon="8.52498">
        <ele>1715</ele>
        <time>2021-08-11T09:49:40.439Z</time>
      </trkpt>
      <trkpt lat="46.87664" lon="8.52497">
        <ele>1716</ele>
        <time>2021-08-11T09:49:41.439Z</time>
      </trkpt>
      <trkpt lat="46.87663" lon="8.52496">
        <ele>1716</ele>
        <time>2021-08-11T09:49:42.440Z</time>
      </trkpt>
      <trkpt lat="46.87662" lon="8.52494">
        <ele>1716</ele>
        <time>2021-08-11T09:49:43.440Z</time>
      </trkpt>
      <trkpt lat="46.87662" lon="8.52493">
        <ele>1717</ele>
        <time>2021-08-11T09:49:44.440Z</time>
      </trkpt>
      <trkpt lat="46.87661" lon="8.52492">
        <ele>1716</ele>
        <time>2021-08-11T09:49:45.439Z</time>
      </trkpt>
      <trkpt lat="46.87661" lon="8.52491">
        <ele>1716</ele>
        <time>2021-08-11T09:49:46.440Z</time>
      </trkpt>
      <trkpt lat="46.8766" lon="8.5249">
        <ele>1715</ele>
        <time>2021-08-11T09:49:47.440Z</time>
      </trkpt>
      <trkpt lat="46.87659" lon="8.52489">
        <ele>1715</ele>
        <time>2021-08-11T09:49:48.440Z</time>
      </trkpt>
      <trkpt lat="46.87658" lon="8.52488">
        <ele>1715</ele>
        <time>2021-08-11T09:49:49.439Z</time>
      </trkpt>
      <trkpt lat="46.87658" lon="8.52487">
        <ele>1714</ele>
        <time>2021-08-11T09:49:50.440Z</time>
      </trkpt>
      <trkpt lat="46.87657" lon="8.52486">
        <ele>1714</ele>
        <time>2021-08-11T09:49:51.439Z</time>
      </trkpt>
      <trkpt lat="46.87657" lon="8.52485">
        <ele>1715</ele>
        <time>2021-08-11T09:49:52.440Z</time>
      </trkpt>
      <trkpt lat="46.87656" lon="8.52485">
        <ele>1715</ele>
        <time>2021-08-11T09:49:53.440Z</time>
      </trkpt>
      <trkpt lat="46.87655" lon="8.52484">
        <ele>1716</ele>
        <time>2021-08-11T09:49:54.440Z</time>
      </trkpt>
      <trkpt lat="46.87654" lon="8.52483">
        <ele>1716</ele>
        <time>2021-08-11T09:49:55.440Z</time>
      </trkpt>
      <trkpt lat="46.87654" lon="8.52483">
        <ele>1717</ele>
        <time>2021-08-11T09:49:56.439Z</time>
      </trkpt>
      <trkpt lat="46.87653" lon="8.52482">
        <ele>1717</ele>
        <time>2021-08-11T09:49:57.440Z</time>
      </trkpt>
      <trkpt lat="46.87652" lon="8.52481">
        <ele>1717</ele>
        <time>2021-08-11T09:49:58.440Z</time>
      </trkpt>
      <trkpt lat="46.87651" lon="8.52481">
        <ele>1717</ele>
        <time>2021-08-11T09:49:59.440Z</time>
      </trkpt>
      <trkpt lat="46.87651" lon="8.5248">
        <ele>1717</ele>
        <time>2021-08-11T09:50:00.440Z</time>
      </trkpt>
      <trkpt lat="46.8765" lon="8.52479">
        <ele>1716</ele>
        <time>2021-08-11T09:50:01.439Z</time>
      </trkpt>
      <trkpt lat="46.87649" lon="8.52479">
        <ele>1716</ele>
        <time>2021-08-11T09:50:02.440Z</time>
      </trkpt>
      <trkpt lat="46.87649" lon="8.52478">
        <ele>1716</ele>
        <time>2021-08-11T09:50:03.440Z</time>
      </trkpt>
      <trkpt lat="46.87648" lon="8.52477">
        <ele>1716</ele>
        <time>2021-08-11T09:50:04.440Z</time>
      </trkpt>
      <trkpt lat="46.87647" lon="8.52476">
        <ele>1716</ele>
        <time>2021-08-11T09:50:05.440Z</time>
      </trkpt>
      <trkpt lat="46.87646" lon="8.52476">
        <ele>1717</ele>
        <time>2021-08-11T09:50:06.439Z</time>
      </trkpt>
      <trkpt lat="46.87645" lon="8.52475">
        <ele>1716</ele>
        <time>2021-08-11T09:50:07.439Z</time>
      </trkpt>
      <trkpt lat="46.87645" lon="8.52475">
        <ele>1716</ele>
        <time>2021-08-11T09:50:08.439Z</time>
      </trkpt>
      <trkpt lat="46.87644" lon="8.52475">
        <ele>1716</ele>
        <time>2021-08-11T09:50:09.440Z</time>
      </trkpt>
      <trkpt lat="46.87643" lon="8.52474">
        <ele>1716</ele>
        <time>2021-08-11T09:50:10.440Z</time>
      </trkpt>
      <trkpt lat="46.87642" lon="8.52473">
        <ele>1715</ele>
        <time>2021-08-11T09:50:11.440Z</time>
      </trkpt>
      <trkpt lat="46.87641" lon="8.52473">
        <ele>1715</ele>
        <time>2021-08-11T09:50:12.440Z</time>
      </trkpt>
      <trkpt lat="46.8764" lon="8.52473">
        <ele>1715</ele>
        <time>2021-08-11T09:50:13.439Z</time>
      </trkpt>
      <trkpt lat="46.8764" lon="8.52472">
        <ele>1714</ele>
        <time>2021-08-11T09:50:14.440Z</time>
      </trkpt>
      <trkpt lat="46.87639" lon="8.52471">
        <ele>1714</ele>
        <time>2021-08-11T09:50:15.440Z</time>
      </trkpt>
      <trkpt lat="46.87638" lon="8.52471">
        <ele>1714</ele>
        <time>2021-08-11T09:50:16.440Z</time>
      </trkpt>
      <trkpt lat="46.87637" lon="8.5247">
        <ele>1714</ele>
        <time>2021-08-11T09:50:17.440Z</time>
      </trkpt>
      <trkpt lat="46.87636" lon="8.5247">
        <ele>1714</ele>
        <time>2021-08-11T09:50:18.440Z</time>
      </trkpt>
      <trkpt lat="46.87636" lon="8.5247">
        <ele>1715</ele>
        <time>2021-08-11T09:50:19.439Z</time>
      </trkpt>
      <trkpt lat="46.87635" lon="8.52469">
        <ele>1716</ele>
        <time>2021-08-11T09:50:20.440Z</time>
      </trkpt>
      <trkpt lat="46.87634" lon="8.52469">
        <ele>1716</ele>
        <time>2021-08-11T09:50:21.439Z</time>
      </trkpt>
      <trkpt lat="46.87633" lon="8.52468">
        <ele>1717</ele>
        <time>2021-08-11T09:50:22.440Z</time>
      </trkpt>
      <trkpt lat="46.87633" lon="8.52468">
        <ele>1717</ele>
        <time>2021-08-11T09:50:23.439Z</time>
      </trkpt>
      <trkpt lat="46.87633" lon="8.52468">
        <ele>1717</ele>
        <time>2021-08-11T09:50:24.439Z</time>
      </trkpt>
      <trkpt lat="46.87633" lon="8.52469">
        <ele>1717</ele>
        <time>2021-08-11T09:50:25.440Z</time>
      </trkpt>
      <trkpt lat="46.87634" lon="8.52469">
        <ele>1717</ele>
        <time>2021-08-11T09:50:26.440Z</time>
      </trkpt>
      <trkpt lat="46.87633" lon="8.52468">
        <ele>1717</ele>
        <time>2021-08-11T09:50:27.441Z</time>
      </trkpt>
      <trkpt lat="46.87632" lon="8.52468">
        <ele>1718</ele>
        <time>2021-08-11T09:50:28.440Z</time>
      </trkpt>
      <trkpt lat="46.87631" lon="8.52467">
        <ele>1718</ele>
        <time>2021-08-11T09:50:29.440Z</time>
      </trkpt>
      <trkpt lat="46.8763" lon="8.52468">
        <ele>1718</ele>
        <time>2021-08-11T09:50:30.441Z</time>
      </trkpt>
      <trkpt lat="46.87629" lon="8.52467">
        <ele>1718</ele>
        <time>2021-08-11T09:50:31.440Z</time>
      </trkpt>
      <trkpt lat="46.87628" lon="8.52466">
        <ele>1718</ele>
        <time>2021-08-11T09:50:32.441Z</time>
      </trkpt>
      <trkpt lat="46.87627" lon="8.52466">
        <ele>1718</ele>
        <time>2021-08-11T09:50:33.441Z</time>
      </trkpt>
      <trkpt lat="46.87626" lon="8.52465">
        <ele>1718</ele>
        <time>2021-08-11T09:50:34.440Z</time>
      </trkpt>
      <trkpt lat="46.87624" lon="8.52465">
        <ele>1718</ele>
        <time>2021-08-11T09:50:35.441Z</time>
      </trkpt>
      <trkpt lat="46.87623" lon="8.52466">
        <ele>1717</ele>
        <time>2021-08-11T09:50:36.441Z</time>
      </trkpt>
      <trkpt lat="46.87622" lon="8.52466">
        <ele>1717</ele>
        <time>2021-08-11T09:50:37.441Z</time>
      </trkpt>
      <trkpt lat="46.87621" lon="8.52466">
        <ele>1717</ele>
        <time>2021-08-11T09:50:38.441Z</time>
      </trkpt>
      <trkpt lat="46.8762" lon="8.52466">
        <ele>1717</ele>
        <time>2021-08-11T09:50:39.440Z</time>
      </trkpt>
      <trkpt lat="46.87619" lon="8.52467">
        <ele>1716</ele>
        <time>2021-08-11T09:50:40.441Z</time>
      </trkpt>
      <trkpt lat="46.87618" lon="8.52467">
        <ele>1716</ele>
        <time>2021-08-11T09:50:41.441Z</time>
      </trkpt>
      <trkpt lat="46.87617" lon="8.52467">
        <ele>1715</ele>
        <time>2021-08-11T09:50:42.441Z</time>
      </trkpt>
      <trkpt lat="46.87616" lon="8.52467">
        <ele>1715</ele>
        <time>2021-08-11T09:50:43.440Z</time>
      </trkpt>
      <trkpt lat="46.87616" lon="8.52468">
        <ele>1715</ele>
        <time>2021-08-11T09:50:44.441Z</time>
      </trkpt>
      <trkpt lat="46.87615" lon="8.52468">
        <ele>1715</ele>
        <time>2021-08-11T09:50:45.441Z</time>
      </trkpt>
      <trkpt lat="46.87614" lon="8.52469">
        <ele>1714</ele>
        <time>2021-08-11T09:50:46.441Z</time>
      </trkpt>
      <trkpt lat="46.87614" lon="8.5247">
        <ele>1714</ele>
        <time>2021-08-11T09:50:47.441Z</time>
      </trkpt>
      <trkpt lat="46.87613" lon="8.52471">
        <ele>1713</ele>
        <time>2021-08-11T09:50:48.440Z</time>
      </trkpt>
      <trkpt lat="46.87612" lon="8.52472">
        <ele>1713</ele>
        <time>2021-08-11T09:50:49.441Z</time>
      </trkpt>
      <trkpt lat="46.87612" lon="8.52473">
        <ele>1713</ele>
        <time>2021-08-11T09:50:50.441Z</time>
      </trkpt>
      <trkpt lat="46.87611" lon="8.52474">
        <ele>1713</ele>
        <time>2021-08-11T09:50:51.440Z</time>
      </trkpt>
      <trkpt lat="46.87611" lon="8.52475">
        <ele>1713</ele>
        <time>2021-08-11T09:50:52.441Z</time>
      </trkpt>
      <trkpt lat="46.8761" lon="8.52476">
        <ele>1713</ele>
        <time>2021-08-11T09:50:53.441Z</time>
      </trkpt>
      <trkpt lat="46.87609" lon="8.52476">
        <ele>1713</ele>
        <time>2021-08-11T09:50:54.441Z</time>
      </trkpt>
      <trkpt lat="46.87609" lon="8.52475">
        <ele>1713</ele>
        <time>2021-08-11T09:50:55.441Z</time>
      </trkpt>
      <trkpt lat="46.87609" lon="8.52475">
        <ele>1713</ele>
        <time>2021-08-11T09:50:56.440Z</time>
      </trkpt>
      <trkpt lat="46.87609" lon="8.52475">
        <ele>1713</ele>
        <time>2021-08-11T09:50:57.441Z</time>
      </trkpt>
      <trkpt lat="46.87608" lon="8.52475">
        <ele>1713</ele>
        <time>2021-08-11T09:50:58.441Z</time>
      </trkpt>
      <trkpt lat="46.87608" lon="8.52475">
        <ele>1713</ele>
        <time>2021-08-11T09:50:59.441Z</time>
      </trkpt>
      <trkpt lat="46.87608" lon="8.52475">
        <ele>1713</ele>
        <time>2021-08-11T09:51:00.441Z</time>
      </trkpt>
      <trkpt lat="46.87607" lon="8.52476">
        <ele>1712</ele>
        <time>2021-08-11T09:51:01.441Z</time>
      </trkpt>
      <trkpt lat="46.87607" lon="8.52475">
        <ele>1711</ele>
        <time>2021-08-11T09:51:02.440Z</time>
      </trkpt>
      <trkpt lat="46.87606" lon="8.52475">
        <ele>1711</ele>
        <time>2021-08-11T09:51:03.441Z</time>
      </trkpt>
      <trkpt lat="46.87606" lon="8.52475">
        <ele>1711</ele>
        <time>2021-08-11T09:51:04.441Z</time>
      </trkpt>
      <trkpt lat="46.87606" lon="8.52474">
        <ele>1711</ele>
        <time>2021-08-11T09:51:05.440Z</time>
      </trkpt>
      <trkpt lat="46.87606" lon="8.52473">
        <ele>1710</ele>
        <time>2021-08-11T09:51:06.441Z</time>
      </trkpt>
      <trkpt lat="46.87606" lon="8.52472">
        <ele>1710</ele>
        <time>2021-08-11T09:51:07.441Z</time>
      </trkpt>
      <trkpt lat="46.87606" lon="8.52471">
        <ele>1710</ele>
        <time>2021-08-11T09:51:08.441Z</time>
      </trkpt>
      <trkpt lat="46.87606" lon="8.5247">
        <ele>1710</ele>
        <time>2021-08-11T09:51:09.441Z</time>
      </trkpt>
      <trkpt lat="46.87605" lon="8.52469">
        <ele>1711</ele>
        <time>2021-08-11T09:51:10.440Z</time>
      </trkpt>
      <trkpt lat="46.87605" lon="8.52467">
        <ele>1711</ele>
        <time>2021-08-11T09:51:11.440Z</time>
      </trkpt>
      <trkpt lat="46.87605" lon="8.52466">
        <ele>1711</ele>
        <time>2021-08-11T09:51:12.441Z</time>
      </trkpt>
      <trkpt lat="46.87605" lon="8.52465">
        <ele>1710</ele>
        <time>2021-08-11T09:51:13.441Z</time>
      </trkpt>
      <trkpt lat="46.87604" lon="8.52464">
        <ele>1710</ele>
        <time>2021-08-11T09:51:14.441Z</time>
      </trkpt>
      <trkpt lat="46.87604" lon="8.52464">
        <ele>1710</ele>
        <time>2021-08-11T09:51:15.441Z</time>
      </trkpt>
      <trkpt lat="46.87603" lon="8.52463">
        <ele>1710</ele>
        <time>2021-08-11T09:51:16.441Z</time>
      </trkpt>
      <trkpt lat="46.87603" lon="8.52463">
        <ele>1709</ele>
        <time>2021-08-11T09:51:17.441Z</time>
      </trkpt>
      <trkpt lat="46.87603" lon="8.52462">
        <ele>1709</ele>
        <time>2021-08-11T09:51:18.441Z</time>
      </trkpt>
      <trkpt lat="46.87602" lon="8.52461">
        <ele>1709</ele>
        <time>2021-08-11T09:51:19.441Z</time>
      </trkpt>
      <trkpt lat="46.87601" lon="8.5246">
        <ele>1710</ele>
        <time>2021-08-11T09:51:20.441Z</time>
      </trkpt>
      <trkpt lat="46.87601" lon="8.52459">
        <ele>1710</ele>
        <time>2021-08-11T09:51:21.441Z</time>
      </trkpt>
      <trkpt lat="46.876" lon="8.52458">
        <ele>1711</ele>
        <time>2021-08-11T09:51:22.441Z</time>
      </trkpt>
      <trkpt lat="46.876" lon="8.52457">
        <ele>1711</ele>
        <time>2021-08-11T09:51:23.440Z</time>
      </trkpt>
      <trkpt lat="46.87599" lon="8.52456">
        <ele>1711</ele>
        <time>2021-08-11T09:51:24.441Z</time>
      </trkpt>
      <trkpt lat="46.87599" lon="8.52455">
        <ele>1711</ele>
        <time>2021-08-11T09:51:25.441Z</time>
      </trkpt>
      <trkpt lat="46.87599" lon="8.52454">
        <ele>1711</ele>
        <time>2021-08-11T09:51:26.440Z</time>
      </trkpt>
      <trkpt lat="46.87598" lon="8.52452">
        <ele>1710</ele>
        <time>2021-08-11T09:51:27.441Z</time>
      </trkpt>
      <trkpt lat="46.87598" lon="8.52451">
        <ele>1710</ele>
        <time>2021-08-11T09:51:28.440Z</time>
      </trkpt>
      <trkpt lat="46.87598" lon="8.5245">
        <ele>1710</ele>
        <time>2021-08-11T09:51:29.441Z</time>
      </trkpt>
      <trkpt lat="46.87598" lon="8.52449">
        <ele>1709</ele>
        <time>2021-08-11T09:51:30.440Z</time>
      </trkpt>
      <trkpt lat="46.87597" lon="8.52448">
        <ele>1709</ele>
        <time>2021-08-11T09:51:31.441Z</time>
      </trkpt>
      <trkpt lat="46.87597" lon="8.52447">
        <ele>1709</ele>
        <time>2021-08-11T09:51:32.441Z</time>
      </trkpt>
      <trkpt lat="46.87597" lon="8.52445">
        <ele>1709</ele>
        <time>2021-08-11T09:51:33.440Z</time>
      </trkpt>
      <trkpt lat="46.87596" lon="8.52444">
        <ele>1709</ele>
        <time>2021-08-11T09:51:34.440Z</time>
      </trkpt>
      <trkpt lat="46.87596" lon="8.52443">
        <ele>1709</ele>
        <time>2021-08-11T09:51:35.441Z</time>
      </trkpt>
      <trkpt lat="46.87596" lon="8.52441">
        <ele>1709</ele>
        <time>2021-08-11T09:51:36.441Z</time>
      </trkpt>
      <trkpt lat="46.87595" lon="8.52439">
        <ele>1709</ele>
        <time>2021-08-11T09:51:37.441Z</time>
      </trkpt>
      <trkpt lat="46.87595" lon="8.52438">
        <ele>1710</ele>
        <time>2021-08-11T09:51:38.441Z</time>
      </trkpt>
      <trkpt lat="46.87595" lon="8.52436">
        <ele>1710</ele>
        <time>2021-08-11T09:51:39.440Z</time>
      </trkpt>
      <trkpt lat="46.87595" lon="8.52434">
        <ele>1709</ele>
        <time>2021-08-11T09:51:40.441Z</time>
      </trkpt>
      <trkpt lat="46.87595" lon="8.52433">
        <ele>1709</ele>
        <time>2021-08-11T09:51:41.441Z</time>
      </trkpt>
      <trkpt lat="46.87596" lon="8.52432">
        <ele>1709</ele>
        <time>2021-08-11T09:51:42.441Z</time>
      </trkpt>
      <trkpt lat="46.87596" lon="8.5243">
        <ele>1709</ele>
        <time>2021-08-11T09:51:43.441Z</time>
      </trkpt>
      <trkpt lat="46.87597" lon="8.52429">
        <ele>1709</ele>
        <time>2021-08-11T09:51:44.441Z</time>
      </trkpt>
      <trkpt lat="46.87597" lon="8.52428">
        <ele>1709</ele>
        <time>2021-08-11T09:51:45.440Z</time>
      </trkpt>
      <trkpt lat="46.87598" lon="8.52427">
        <ele>1709</ele>
        <time>2021-08-11T09:51:46.441Z</time>
      </trkpt>
      <trkpt lat="46.87598" lon="8.52425">
        <ele>1709</ele>
        <time>2021-08-11T09:51:47.440Z</time>
      </trkpt>
      <trkpt lat="46.87599" lon="8.52424">
        <ele>1709</ele>
        <time>2021-08-11T09:51:48.441Z</time>
      </trkpt>
      <trkpt lat="46.876" lon="8.52424">
        <ele>1709</ele>
        <time>2021-08-11T09:51:49.441Z</time>
      </trkpt>
      <trkpt lat="46.876" lon="8.52423">
        <ele>1709</ele>
        <time>2021-08-11T09:51:50.441Z</time>
      </trkpt>
      <trkpt lat="46.87601" lon="8.52422">
        <ele>1709</ele>
        <time>2021-08-11T09:51:51.441Z</time>
      </trkpt>
      <trkpt lat="46.87602" lon="8.52421">
        <ele>1709</ele>
        <time>2021-08-11T09:51:52.441Z</time>
      </trkpt>
      <trkpt lat="46.87602" lon="8.52421">
        <ele>1709</ele>
        <time>2021-08-11T09:51:53.441Z</time>
      </trkpt>
      <trkpt lat="46.87602" lon="8.5242">
        <ele>1708</ele>
        <time>2021-08-11T09:51:54.441Z</time>
      </trkpt>
      <trkpt lat="46.87603" lon="8.5242">
        <ele>1708</ele>
        <time>2021-08-11T09:51:55.440Z</time>
      </trkpt>
      <trkpt lat="46.87604" lon="8.52419">
        <ele>1707</ele>
        <time>2021-08-11T09:51:56.441Z</time>
      </trkpt>
      <trkpt lat="46.87605" lon="8.52419">
        <ele>1707</ele>
        <time>2021-08-11T09:51:57.440Z</time>
      </trkpt>
      <trkpt lat="46.87606" lon="8.52418">
        <ele>1706</ele>
        <time>2021-08-11T09:51:58.440Z</time>
      </trkpt>
      <trkpt lat="46.87606" lon="8.52417">
        <ele>1705</ele>
        <time>2021-08-11T09:51:59.441Z</time>
      </trkpt>
      <trkpt lat="46.87607" lon="8.52416">
        <ele>1704</ele>
        <time>2021-08-11T09:52:00.441Z</time>
      </trkpt>
      <trkpt lat="46.87607" lon="8.52415">
        <ele>1704</ele>
        <time>2021-08-11T09:52:01.441Z</time>
      </trkpt>
      <trkpt lat="46.87608" lon="8.52414">
        <ele>1703</ele>
        <time>2021-08-11T09:52:02.441Z</time>
      </trkpt>
      <trkpt lat="46.87608" lon="8.52412">
        <ele>1702</ele>
        <time>2021-08-11T09:52:03.441Z</time>
      </trkpt>
      <trkpt lat="46.87609" lon="8.52411">
        <ele>1701</ele>
        <time>2021-08-11T09:52:04.441Z</time>
      </trkpt>
      <trkpt lat="46.87609" lon="8.5241">
        <ele>1701</ele>
        <time>2021-08-11T09:52:05.440Z</time>
      </trkpt>
      <trkpt lat="46.87609" lon="8.52407">
        <ele>1700</ele>
        <time>2021-08-11T09:52:06.440Z</time>
      </trkpt>
      <trkpt lat="46.87609" lon="8.52406">
        <ele>1700</ele>
        <time>2021-08-11T09:52:07.440Z</time>
      </trkpt>
      <trkpt lat="46.87609" lon="8.52405">
        <ele>1699</ele>
        <time>2021-08-11T09:52:08.441Z</time>
      </trkpt>
      <trkpt lat="46.8761" lon="8.52403">
        <ele>1699</ele>
        <time>2021-08-11T09:52:09.441Z</time>
      </trkpt>
      <trkpt lat="46.87611" lon="8.52402">
        <ele>1699</ele>
        <time>2021-08-11T09:52:10.441Z</time>
      </trkpt>
      <trkpt lat="46.87611" lon="8.524">
        <ele>1699</ele>
        <time>2021-08-11T09:52:11.441Z</time>
      </trkpt>
      <trkpt lat="46.87612" lon="8.52399">
        <ele>1699</ele>
        <time>2021-08-11T09:52:12.440Z</time>
      </trkpt>
      <trkpt lat="46.87612" lon="8.52398">
        <ele>1699</ele>
        <time>2021-08-11T09:52:13.441Z</time>
      </trkpt>
      <trkpt lat="46.87612" lon="8.52397">
        <ele>1699</ele>
        <time>2021-08-11T09:52:14.441Z</time>
      </trkpt>
      <trkpt lat="46.87613" lon="8.52396">
        <ele>1700</ele>
        <time>2021-08-11T09:52:15.441Z</time>
      </trkpt>
      <trkpt lat="46.87613" lon="8.52395">
        <ele>1700</ele>
        <time>2021-08-11T09:52:16.441Z</time>
      </trkpt>
      <trkpt lat="46.87613" lon="8.52394">
        <ele>1700</ele>
        <time>2021-08-11T09:52:17.440Z</time>
      </trkpt>
      <trkpt lat="46.87613" lon="8.52393">
        <ele>1699</ele>
        <time>2021-08-11T09:52:18.440Z</time>
      </trkpt>
      <trkpt lat="46.87613" lon="8.52392">
        <ele>1699</ele>
        <time>2021-08-11T09:52:19.441Z</time>
      </trkpt>
      <trkpt lat="46.87613" lon="8.52391">
        <ele>1699</ele>
        <time>2021-08-11T09:52:20.441Z</time>
      </trkpt>
      <trkpt lat="46.87613" lon="8.52389">
        <ele>1700</ele>
        <time>2021-08-11T09:52:21.441Z</time>
      </trkpt>
      <trkpt lat="46.87613" lon="8.52389">
        <ele>1699</ele>
        <time>2021-08-11T09:52:22.441Z</time>
      </trkpt>
      <trkpt lat="46.87613" lon="8.52388">
        <ele>1699</ele>
        <time>2021-08-11T09:52:23.440Z</time>
      </trkpt>
      <trkpt lat="46.87613" lon="8.52387">
        <ele>1699</ele>
        <time>2021-08-11T09:52:24.441Z</time>
      </trkpt>
      <trkpt lat="46.87613" lon="8.52386">
        <ele>1699</ele>
        <time>2021-08-11T09:52:25.441Z</time>
      </trkpt>
      <trkpt lat="46.87613" lon="8.52385">
        <ele>1699</ele>
        <time>2021-08-11T09:52:26.441Z</time>
      </trkpt>
      <trkpt lat="46.87613" lon="8.52385">
        <ele>1700</ele>
        <time>2021-08-11T09:52:27.441Z</time>
      </trkpt>
      <trkpt lat="46.87613" lon="8.52384">
        <ele>1700</ele>
        <time>2021-08-11T09:52:28.441Z</time>
      </trkpt>
      <trkpt lat="46.87613" lon="8.52383">
        <ele>1699</ele>
        <time>2021-08-11T09:52:29.441Z</time>
      </trkpt>
      <trkpt lat="46.87613" lon="8.52382">
        <ele>1698</ele>
        <time>2021-08-11T09:52:30.441Z</time>
      </trkpt>
      <trkpt lat="46.87613" lon="8.52381">
        <ele>1698</ele>
        <time>2021-08-11T09:52:31.441Z</time>
      </trkpt>
      <trkpt lat="46.87613" lon="8.5238">
        <ele>1697</ele>
        <time>2021-08-11T09:52:32.441Z</time>
      </trkpt>
      <trkpt lat="46.87613" lon="8.52379">
        <ele>1696</ele>
        <time>2021-08-11T09:52:33.442Z</time>
      </trkpt>
      <trkpt lat="46.87613" lon="8.52378">
        <ele>1696</ele>
        <time>2021-08-11T09:52:34.442Z</time>
      </trkpt>
      <trkpt lat="46.87613" lon="8.52377">
        <ele>1696</ele>
        <time>2021-08-11T09:52:35.442Z</time>
      </trkpt>
      <trkpt lat="46.87612" lon="8.52376">
        <ele>1696</ele>
        <time>2021-08-11T09:52:36.442Z</time>
      </trkpt>
      <trkpt lat="46.87612" lon="8.52375">
        <ele>1696</ele>
        <time>2021-08-11T09:52:37.442Z</time>
      </trkpt>
      <trkpt lat="46.87612" lon="8.52374">
        <ele>1696</ele>
        <time>2021-08-11T09:52:38.441Z</time>
      </trkpt>
      <trkpt lat="46.87613" lon="8.52373">
        <ele>1696</ele>
        <time>2021-08-11T09:52:39.442Z</time>
      </trkpt>
      <trkpt lat="46.87613" lon="8.52372">
        <ele>1696</ele>
        <time>2021-08-11T09:52:40.441Z</time>
      </trkpt>
      <trkpt lat="46.87612" lon="8.52371">
        <ele>1696</ele>
        <time>2021-08-11T09:52:41.442Z</time>
      </trkpt>
      <trkpt lat="46.87612" lon="8.5237">
        <ele>1696</ele>
        <time>2021-08-11T09:52:42.442Z</time>
      </trkpt>
      <trkpt lat="46.87611" lon="8.52369">
        <ele>1696</ele>
        <time>2021-08-11T09:52:43.442Z</time>
      </trkpt>
      <trkpt lat="46.87612" lon="8.52368">
        <ele>1696</ele>
        <time>2021-08-11T09:52:44.442Z</time>
      </trkpt>
      <trkpt lat="46.87612" lon="8.52367">
        <ele>1696</ele>
        <time>2021-08-11T09:52:45.441Z</time>
      </trkpt>
      <trkpt lat="46.87612" lon="8.52366">
        <ele>1696</ele>
        <time>2021-08-11T09:52:46.442Z</time>
      </trkpt>
      <trkpt lat="46.87612" lon="8.52365">
        <ele>1696</ele>
        <time>2021-08-11T09:52:47.441Z</time>
      </trkpt>
      <trkpt lat="46.87613" lon="8.52364">
        <ele>1696</ele>
        <time>2021-08-11T09:52:48.441Z</time>
      </trkpt>
      <trkpt lat="46.87613" lon="8.52363">
        <ele>1696</ele>
        <time>2021-08-11T09:52:49.442Z</time>
      </trkpt>
      <trkpt lat="46.87614" lon="8.52362">
        <ele>1696</ele>
        <time>2021-08-11T09:52:50.442Z</time>
      </trkpt>
      <trkpt lat="46.87614" lon="8.52361">
        <ele>1696</ele>
        <time>2021-08-11T09:52:51.441Z</time>
      </trkpt>
      <trkpt lat="46.87614" lon="8.52359">
        <ele>1695</ele>
        <time>2021-08-11T09:52:52.442Z</time>
      </trkpt>
      <trkpt lat="46.87615" lon="8.52358">
        <ele>1695</ele>
        <time>2021-08-11T09:52:53.441Z</time>
      </trkpt>
      <trkpt lat="46.87615" lon="8.52357">
        <ele>1694</ele>
        <time>2021-08-11T09:52:54.442Z</time>
      </trkpt>
      <trkpt lat="46.87616" lon="8.52356">
        <ele>1694</ele>
        <time>2021-08-11T09:52:55.442Z</time>
      </trkpt>
      <trkpt lat="46.87616" lon="8.52355">
        <ele>1694</ele>
        <time>2021-08-11T09:52:56.442Z</time>
      </trkpt>
      <trkpt lat="46.87616" lon="8.52354">
        <ele>1693</ele>
        <time>2021-08-11T09:52:57.442Z</time>
      </trkpt>
      <trkpt lat="46.87616" lon="8.52353">
        <ele>1693</ele>
        <time>2021-08-11T09:52:58.441Z</time>
      </trkpt>
      <trkpt lat="46.87617" lon="8.52353">
        <ele>1693</ele>
        <time>2021-08-11T09:52:59.442Z</time>
      </trkpt>
      <trkpt lat="46.87617" lon="8.52352">
        <ele>1692</ele>
        <time>2021-08-11T09:53:00.442Z</time>
      </trkpt>
      <trkpt lat="46.87617" lon="8.52351">
        <ele>1692</ele>
        <time>2021-08-11T09:53:01.442Z</time>
      </trkpt>
      <trkpt lat="46.87617" lon="8.52351">
        <ele>1691</ele>
        <time>2021-08-11T09:53:02.442Z</time>
      </trkpt>
      <trkpt lat="46.87618" lon="8.52351">
        <ele>1691</ele>
        <time>2021-08-11T09:53:03.441Z</time>
      </trkpt>
      <trkpt lat="46.87618" lon="8.52351">
        <ele>1691</ele>
        <time>2021-08-11T09:53:04.441Z</time>
      </trkpt>
      <trkpt lat="46.87623" lon="8.52351">
        <ele>1691</ele>
        <time>2021-08-11T09:53:05.442Z</time>
      </trkpt>
      <trkpt lat="46.87622" lon="8.52351">
        <ele>1691</ele>
        <time>2021-08-11T09:53:06.443Z</time>
      </trkpt>
      <trkpt lat="46.87622" lon="8.52351">
        <ele>1692</ele>
        <time>2021-08-11T09:53:07.442Z</time>
      </trkpt>
      <trkpt lat="46.87621" lon="8.52351">
        <ele>1696</ele>
        <time>2021-08-11T09:53:08.443Z</time>
      </trkpt>
      <trkpt lat="46.87621" lon="8.5235">
        <ele>1696</ele>
        <time>2021-08-11T09:53:09.442Z</time>
      </trkpt>
      <trkpt lat="46.8762" lon="8.5235">
        <ele>1696</ele>
        <time>2021-08-11T09:53:10.443Z</time>
      </trkpt>
      <trkpt lat="46.87619" lon="8.5235">
        <ele>1696</ele>
        <time>2021-08-11T09:53:11.442Z</time>
      </trkpt>
      <trkpt lat="46.87619" lon="8.5235">
        <ele>1696</ele>
        <time>2021-08-11T09:53:12.442Z</time>
      </trkpt>
      <trkpt lat="46.87618" lon="8.52349">
        <ele>1696</ele>
        <time>2021-08-11T09:53:13.442Z</time>
      </trkpt>
      <trkpt lat="46.87618" lon="8.52348">
        <ele>1696</ele>
        <time>2021-08-11T09:53:14.442Z</time>
      </trkpt>
      <trkpt lat="46.87617" lon="8.52348">
        <ele>1696</ele>
        <time>2021-08-11T09:53:15.442Z</time>
      </trkpt>
      <trkpt lat="46.87617" lon="8.52347">
        <ele>1696</ele>
        <time>2021-08-11T09:53:16.443Z</time>
      </trkpt>
      <trkpt lat="46.87617" lon="8.52346">
        <ele>1695</ele>
        <time>2021-08-11T09:53:17.443Z</time>
      </trkpt>
      <trkpt lat="46.87617" lon="8.52345">
        <ele>1695</ele>
        <time>2021-08-11T09:53:18.443Z</time>
      </trkpt>
      <trkpt lat="46.87616" lon="8.52344">
        <ele>1695</ele>
        <time>2021-08-11T09:53:19.443Z</time>
      </trkpt>
      <trkpt lat="46.87616" lon="8.52343">
        <ele>1694</ele>
        <time>2021-08-11T09:53:20.443Z</time>
      </trkpt>
      <trkpt lat="46.87615" lon="8.52342">
        <ele>1694</ele>
        <time>2021-08-11T09:53:21.442Z</time>
      </trkpt>
      <trkpt lat="46.87615" lon="8.52341">
        <ele>1693</ele>
        <time>2021-08-11T09:53:22.442Z</time>
      </trkpt>
      <trkpt lat="46.87614" lon="8.5234">
        <ele>1693</ele>
        <time>2021-08-11T09:53:23.443Z</time>
      </trkpt>
      <trkpt lat="46.87614" lon="8.52339">
        <ele>1692</ele>
        <time>2021-08-11T09:53:24.442Z</time>
      </trkpt>
      <trkpt lat="46.87614" lon="8.52338">
        <ele>1691</ele>
        <time>2021-08-11T09:53:25.443Z</time>
      </trkpt>
      <trkpt lat="46.87614" lon="8.52337">
        <ele>1691</ele>
        <time>2021-08-11T09:53:26.442Z</time>
      </trkpt>
      <trkpt lat="46.87613" lon="8.52336">
        <ele>1691</ele>
        <time>2021-08-11T09:53:27.442Z</time>
      </trkpt>
      <trkpt lat="46.87613" lon="8.52335">
        <ele>1690</ele>
        <time>2021-08-11T09:53:28.442Z</time>
      </trkpt>
      <trkpt lat="46.87612" lon="8.52334">
        <ele>1690</ele>
        <time>2021-08-11T09:53:29.442Z</time>
      </trkpt>
      <trkpt lat="46.87612" lon="8.52333">
        <ele>1689</ele>
        <time>2021-08-11T09:53:30.442Z</time>
      </trkpt>
      <trkpt lat="46.87613" lon="8.52331">
        <ele>1688</ele>
        <time>2021-08-11T09:53:31.442Z</time>
      </trkpt>
      <trkpt lat="46.87613" lon="8.52329">
        <ele>1688</ele>
        <time>2021-08-11T09:53:32.442Z</time>
      </trkpt>
      <trkpt lat="46.87613" lon="8.52328">
        <ele>1689</ele>
        <time>2021-08-11T09:53:33.442Z</time>
      </trkpt>
      <trkpt lat="46.87612" lon="8.52327">
        <ele>1689</ele>
        <time>2021-08-11T09:53:34.442Z</time>
      </trkpt>
      <trkpt lat="46.87611" lon="8.52326">
        <ele>1690</ele>
        <time>2021-08-11T09:53:35.442Z</time>
      </trkpt>
      <trkpt lat="46.87611" lon="8.52325">
        <ele>1690</ele>
        <time>2021-08-11T09:53:36.443Z</time>
      </trkpt>
      <trkpt lat="46.8761" lon="8.52325">
        <ele>1691</ele>
        <time>2021-08-11T09:53:37.442Z</time>
      </trkpt>
      <trkpt lat="46.8761" lon="8.52324">
        <ele>1691</ele>
        <time>2021-08-11T09:53:38.442Z</time>
      </trkpt>
      <trkpt lat="46.87609" lon="8.52323">
        <ele>1691</ele>
        <time>2021-08-11T09:53:39.442Z</time>
      </trkpt>
      <trkpt lat="46.87609" lon="8.52321">
        <ele>1691</ele>
        <time>2021-08-11T09:53:40.442Z</time>
      </trkpt>
      <trkpt lat="46.87608" lon="8.52321">
        <ele>1690</ele>
        <time>2021-08-11T09:53:41.443Z</time>
      </trkpt>
      <trkpt lat="46.87607" lon="8.5232">
        <ele>1690</ele>
        <time>2021-08-11T09:53:42.442Z</time>
      </trkpt>
      <trkpt lat="46.87607" lon="8.5232">
        <ele>1690</ele>
        <time>2021-08-11T09:53:43.442Z</time>
      </trkpt>
      <trkpt lat="46.87608" lon="8.52321">
        <ele>1690</ele>
        <time>2021-08-11T09:53:44.442Z</time>
      </trkpt>
      <trkpt lat="46.87607" lon="8.52323">
        <ele>1686</ele>
        <time>2021-08-11T09:53:45.444Z</time>
      </trkpt>
      <trkpt lat="46.87607" lon="8.52323">
        <ele>1686</ele>
        <time>2021-08-11T09:53:46.444Z</time>
      </trkpt>
      <trkpt lat="46.87606" lon="8.52321">
        <ele>1686</ele>
        <time>2021-08-11T09:53:47.445Z</time>
      </trkpt>
      <trkpt lat="46.87606" lon="8.5232">
        <ele>1686</ele>
        <time>2021-08-11T09:53:48.444Z</time>
      </trkpt>
      <trkpt lat="46.87605" lon="8.52319">
        <ele>1685</ele>
        <time>2021-08-11T09:53:49.445Z</time>
      </trkpt>
      <trkpt lat="46.87604" lon="8.52318">
        <ele>1685</ele>
        <time>2021-08-11T09:53:50.444Z</time>
      </trkpt>
      <trkpt lat="46.87604" lon="8.52318">
        <ele>1685</ele>
        <time>2021-08-11T09:53:51.445Z</time>
      </trkpt>
      <trkpt lat="46.87603" lon="8.52318">
        <ele>1686</ele>
        <time>2021-08-11T09:53:52.444Z</time>
      </trkpt>
      <trkpt lat="46.87602" lon="8.52318">
        <ele>1686</ele>
        <time>2021-08-11T09:53:53.445Z</time>
      </trkpt>
      <trkpt lat="46.87602" lon="8.52317">
        <ele>1686</ele>
        <time>2021-08-11T09:53:54.445Z</time>
      </trkpt>
      <trkpt lat="46.87601" lon="8.52317">
        <ele>1686</ele>
        <time>2021-08-11T09:53:55.444Z</time>
      </trkpt>
      <trkpt lat="46.876" lon="8.52316">
        <ele>1686</ele>
        <time>2021-08-11T09:53:56.445Z</time>
      </trkpt>
      <trkpt lat="46.876" lon="8.52316">
        <ele>1686</ele>
        <time>2021-08-11T09:53:57.445Z</time>
      </trkpt>
      <trkpt lat="46.876" lon="8.52317">
        <ele>1685</ele>
        <time>2021-08-11T09:53:58.444Z</time>
      </trkpt>
      <trkpt lat="46.876" lon="8.52317">
        <ele>1685</ele>
        <time>2021-08-11T09:53:59.445Z</time>
      </trkpt>
      <trkpt lat="46.87597" lon="8.52316">
        <ele>1682</ele>
        <time>2021-08-11T09:54:00.447Z</time>
      </trkpt>
      <trkpt lat="46.87597" lon="8.52315">
        <ele>1682</ele>
        <time>2021-08-11T09:54:01.446Z</time>
      </trkpt>
      <trkpt lat="46.87596" lon="8.52313">
        <ele>1683</ele>
        <time>2021-08-11T09:54:02.446Z</time>
      </trkpt>
      <trkpt lat="46.87596" lon="8.52312">
        <ele>1683</ele>
        <time>2021-08-11T09:54:03.446Z</time>
      </trkpt>
      <trkpt lat="46.87595" lon="8.5231">
        <ele>1684</ele>
        <time>2021-08-11T09:54:04.447Z</time>
      </trkpt>
      <trkpt lat="46.87594" lon="8.52309">
        <ele>1684</ele>
        <time>2021-08-11T09:54:05.446Z</time>
      </trkpt>
      <trkpt lat="46.87594" lon="8.52307">
        <ele>1684</ele>
        <time>2021-08-11T09:54:06.447Z</time>
      </trkpt>
      <trkpt lat="46.87594" lon="8.52306">
        <ele>1684</ele>
        <time>2021-08-11T09:54:07.446Z</time>
      </trkpt>
      <trkpt lat="46.87593" lon="8.52305">
        <ele>1684</ele>
        <time>2021-08-11T09:54:08.446Z</time>
      </trkpt>
      <trkpt lat="46.87593" lon="8.52303">
        <ele>1685</ele>
        <time>2021-08-11T09:54:09.446Z</time>
      </trkpt>
      <trkpt lat="46.87592" lon="8.52301">
        <ele>1685</ele>
        <time>2021-08-11T09:54:10.447Z</time>
      </trkpt>
      <trkpt lat="46.87592" lon="8.523">
        <ele>1685</ele>
        <time>2021-08-11T09:54:11.446Z</time>
      </trkpt>
      <trkpt lat="46.87591" lon="8.52299">
        <ele>1684</ele>
        <time>2021-08-11T09:54:12.446Z</time>
      </trkpt>
      <trkpt lat="46.87591" lon="8.52299">
        <ele>1684</ele>
        <time>2021-08-11T09:54:13.446Z</time>
      </trkpt>
      <trkpt lat="46.8759" lon="8.52298">
        <ele>1684</ele>
        <time>2021-08-11T09:54:14.446Z</time>
      </trkpt>
      <trkpt lat="46.8759" lon="8.52297">
        <ele>1684</ele>
        <time>2021-08-11T09:54:15.446Z</time>
      </trkpt>
      <trkpt lat="46.87589" lon="8.52296">
        <ele>1685</ele>
        <time>2021-08-11T09:54:16.446Z</time>
      </trkpt>
      <trkpt lat="46.87589" lon="8.52295">
        <ele>1685</ele>
        <time>2021-08-11T09:54:17.447Z</time>
      </trkpt>
      <trkpt lat="46.87588" lon="8.52293">
        <ele>1686</ele>
        <time>2021-08-11T09:54:18.447Z</time>
      </trkpt>
      <trkpt lat="46.87588" lon="8.52291">
        <ele>1686</ele>
        <time>2021-08-11T09:54:19.447Z</time>
      </trkpt>
      <trkpt lat="46.87588" lon="8.5229">
        <ele>1686</ele>
        <time>2021-08-11T09:54:20.447Z</time>
      </trkpt>
      <trkpt lat="46.87587" lon="8.52289">
        <ele>1686</ele>
        <time>2021-08-11T09:54:21.447Z</time>
      </trkpt>
      <trkpt lat="46.87587" lon="8.52288">
        <ele>1687</ele>
        <time>2021-08-11T09:54:22.447Z</time>
      </trkpt>
      <trkpt lat="46.87586" lon="8.52286">
        <ele>1687</ele>
        <time>2021-08-11T09:54:23.446Z</time>
      </trkpt>
      <trkpt lat="46.87586" lon="8.52285">
        <ele>1687</ele>
        <time>2021-08-11T09:54:24.447Z</time>
      </trkpt>
      <trkpt lat="46.87586" lon="8.52284">
        <ele>1686</ele>
        <time>2021-08-11T09:54:25.447Z</time>
      </trkpt>
      <trkpt lat="46.87586" lon="8.52283">
        <ele>1686</ele>
        <time>2021-08-11T09:54:26.447Z</time>
      </trkpt>
      <trkpt lat="46.87585" lon="8.52281">
        <ele>1686</ele>
        <time>2021-08-11T09:54:27.447Z</time>
      </trkpt>
      <trkpt lat="46.87585" lon="8.5228">
        <ele>1685</ele>
        <time>2021-08-11T09:54:28.446Z</time>
      </trkpt>
      <trkpt lat="46.87584" lon="8.52279">
        <ele>1684</ele>
        <time>2021-08-11T09:54:29.447Z</time>
      </trkpt>
      <trkpt lat="46.87583" lon="8.52278">
        <ele>1684</ele>
        <time>2021-08-11T09:54:30.447Z</time>
      </trkpt>
      <trkpt lat="46.87583" lon="8.52278">
        <ele>1684</ele>
        <time>2021-08-11T09:54:31.447Z</time>
      </trkpt>
      <trkpt lat="46.87582" lon="8.52277">
        <ele>1684</ele>
        <time>2021-08-11T09:54:32.447Z</time>
      </trkpt>
      <trkpt lat="46.87581" lon="8.52276">
        <ele>1684</ele>
        <time>2021-08-11T09:54:33.446Z</time>
      </trkpt>
      <trkpt lat="46.87581" lon="8.52275">
        <ele>1684</ele>
        <time>2021-08-11T09:54:34.447Z</time>
      </trkpt>
      <trkpt lat="46.87581" lon="8.52274">
        <ele>1684</ele>
        <time>2021-08-11T09:54:35.447Z</time>
      </trkpt>
      <trkpt lat="46.8758" lon="8.52273">
        <ele>1684</ele>
        <time>2021-08-11T09:54:36.447Z</time>
      </trkpt>
      <trkpt lat="46.8758" lon="8.52271">
        <ele>1684</ele>
        <time>2021-08-11T09:54:37.446Z</time>
      </trkpt>
      <trkpt lat="46.87579" lon="8.5227">
        <ele>1685</ele>
        <time>2021-08-11T09:54:38.446Z</time>
      </trkpt>
      <trkpt lat="46.87579" lon="8.52269">
        <ele>1685</ele>
        <time>2021-08-11T09:54:39.447Z</time>
      </trkpt>
      <trkpt lat="46.87578" lon="8.52268">
        <ele>1685</ele>
        <time>2021-08-11T09:54:40.446Z</time>
      </trkpt>
      <trkpt lat="46.87578" lon="8.52266">
        <ele>1684</ele>
        <time>2021-08-11T09:54:41.446Z</time>
      </trkpt>
      <trkpt lat="46.87578" lon="8.52265">
        <ele>1684</ele>
        <time>2021-08-11T09:54:42.447Z</time>
      </trkpt>
      <trkpt lat="46.87578" lon="8.52264">
        <ele>1685</ele>
        <time>2021-08-11T09:54:43.447Z</time>
      </trkpt>
      <trkpt lat="46.87577" lon="8.52263">
        <ele>1685</ele>
        <time>2021-08-11T09:54:44.447Z</time>
      </trkpt>
      <trkpt lat="46.87577" lon="8.52261">
        <ele>1685</ele>
        <time>2021-08-11T09:54:45.447Z</time>
      </trkpt>
      <trkpt lat="46.87577" lon="8.5226">
        <ele>1684</ele>
        <time>2021-08-11T09:54:46.447Z</time>
      </trkpt>
      <trkpt lat="46.87577" lon="8.52258">
        <ele>1684</ele>
        <time>2021-08-11T09:54:47.447Z</time>
      </trkpt>
      <trkpt lat="46.87576" lon="8.52257">
        <ele>1683</ele>
        <time>2021-08-11T09:54:48.446Z</time>
      </trkpt>
      <trkpt lat="46.87575" lon="8.52255">
        <ele>1683</ele>
        <time>2021-08-11T09:54:49.447Z</time>
      </trkpt>
      <trkpt lat="46.87575" lon="8.52254">
        <ele>1683</ele>
        <time>2021-08-11T09:54:50.447Z</time>
      </trkpt>
      <trkpt lat="46.87575" lon="8.52252">
        <ele>1683</ele>
        <time>2021-08-11T09:54:51.447Z</time>
      </trkpt>
      <trkpt lat="46.87574" lon="8.52251">
        <ele>1683</ele>
        <time>2021-08-11T09:54:52.447Z</time>
      </trkpt>
      <trkpt lat="46.87574" lon="8.5225">
        <ele>1683</ele>
        <time>2021-08-11T09:54:53.447Z</time>
      </trkpt>
      <trkpt lat="46.87574" lon="8.52249">
        <ele>1682</ele>
        <time>2021-08-11T09:54:54.447Z</time>
      </trkpt>
      <trkpt lat="46.87573" lon="8.52247">
        <ele>1682</ele>
        <time>2021-08-11T09:54:55.447Z</time>
      </trkpt>
      <trkpt lat="46.87573" lon="8.52246">
        <ele>1681</ele>
        <time>2021-08-11T09:54:56.447Z</time>
      </trkpt>
      <trkpt lat="46.87572" lon="8.52245">
        <ele>1681</ele>
        <time>2021-08-11T09:54:57.447Z</time>
      </trkpt>
      <trkpt lat="46.87572" lon="8.52244">
        <ele>1680</ele>
        <time>2021-08-11T09:54:58.446Z</time>
      </trkpt>
      <trkpt lat="46.87572" lon="8.52242">
        <ele>1679</ele>
        <time>2021-08-11T09:54:59.446Z</time>
      </trkpt>
      <trkpt lat="46.87571" lon="8.52241">
        <ele>1679</ele>
        <time>2021-08-11T09:55:00.446Z</time>
      </trkpt>
      <trkpt lat="46.8757" lon="8.52239">
        <ele>1678</ele>
        <time>2021-08-11T09:55:01.446Z</time>
      </trkpt>
      <trkpt lat="46.8757" lon="8.52238">
        <ele>1678</ele>
        <time>2021-08-11T09:55:02.447Z</time>
      </trkpt>
      <trkpt lat="46.87569" lon="8.52236">
        <ele>1677</ele>
        <time>2021-08-11T09:55:03.447Z</time>
      </trkpt>
      <trkpt lat="46.87569" lon="8.52235">
        <ele>1677</ele>
        <time>2021-08-11T09:55:04.447Z</time>
      </trkpt>
      <trkpt lat="46.87568" lon="8.52234">
        <ele>1677</ele>
        <time>2021-08-11T09:55:05.447Z</time>
      </trkpt>
      <trkpt lat="46.87568" lon="8.52233">
        <ele>1677</ele>
        <time>2021-08-11T09:55:06.447Z</time>
      </trkpt>
      <trkpt lat="46.87567" lon="8.52231">
        <ele>1676</ele>
        <time>2021-08-11T09:55:07.447Z</time>
      </trkpt>
      <trkpt lat="46.87567" lon="8.5223">
        <ele>1676</ele>
        <time>2021-08-11T09:55:08.446Z</time>
      </trkpt>
      <trkpt lat="46.87566" lon="8.52229">
        <ele>1676</ele>
        <time>2021-08-11T09:55:09.447Z</time>
      </trkpt>
      <trkpt lat="46.87566" lon="8.52228">
        <ele>1676</ele>
        <time>2021-08-11T09:55:10.446Z</time>
      </trkpt>
      <trkpt lat="46.87565" lon="8.52227">
        <ele>1676</ele>
        <time>2021-08-11T09:55:11.446Z</time>
      </trkpt>
      <trkpt lat="46.87565" lon="8.52226">
        <ele>1675</ele>
        <time>2021-08-11T09:55:12.447Z</time>
      </trkpt>
      <trkpt lat="46.87564" lon="8.52225">
        <ele>1675</ele>
        <time>2021-08-11T09:55:13.446Z</time>
      </trkpt>
      <trkpt lat="46.87564" lon="8.52225">
        <ele>1675</ele>
        <time>2021-08-11T09:55:14.447Z</time>
      </trkpt>
      <trkpt lat="46.87563" lon="8.52224">
        <ele>1675</ele>
        <time>2021-08-11T09:55:15.447Z</time>
      </trkpt>
      <trkpt lat="46.87562" lon="8.52222">
        <ele>1675</ele>
        <time>2021-08-11T09:55:16.447Z</time>
      </trkpt>
      <trkpt lat="46.87562" lon="8.52221">
        <ele>1675</ele>
        <time>2021-08-11T09:55:17.447Z</time>
      </trkpt>
      <trkpt lat="46.87561" lon="8.5222">
        <ele>1675</ele>
        <time>2021-08-11T09:55:18.446Z</time>
      </trkpt>
      <trkpt lat="46.87561" lon="8.52218">
        <ele>1675</ele>
        <time>2021-08-11T09:55:19.447Z</time>
      </trkpt>
      <trkpt lat="46.8756" lon="8.52217">
        <ele>1675</ele>
        <time>2021-08-11T09:55:20.447Z</time>
      </trkpt>
      <trkpt lat="46.87559" lon="8.52215">
        <ele>1676</ele>
        <time>2021-08-11T09:55:21.447Z</time>
      </trkpt>
      <trkpt lat="46.87559" lon="8.52214">
        <ele>1676</ele>
        <time>2021-08-11T09:55:22.447Z</time>
      </trkpt>
      <trkpt lat="46.87558" lon="8.52212">
        <ele>1676</ele>
        <time>2021-08-11T09:55:23.446Z</time>
      </trkpt>
      <trkpt lat="46.87558" lon="8.52211">
        <ele>1676</ele>
        <time>2021-08-11T09:55:24.446Z</time>
      </trkpt>
      <trkpt lat="46.87557" lon="8.5221">
        <ele>1676</ele>
        <time>2021-08-11T09:55:25.447Z</time>
      </trkpt>
      <trkpt lat="46.87557" lon="8.52209">
        <ele>1676</ele>
        <time>2021-08-11T09:55:26.446Z</time>
      </trkpt>
      <trkpt lat="46.87556" lon="8.52207">
        <ele>1676</ele>
        <time>2021-08-11T09:55:27.447Z</time>
      </trkpt>
      <trkpt lat="46.87555" lon="8.52206">
        <ele>1676</ele>
        <time>2021-08-11T09:55:28.446Z</time>
      </trkpt>
      <trkpt lat="46.87554" lon="8.52204">
        <ele>1676</ele>
        <time>2021-08-11T09:55:29.447Z</time>
      </trkpt>
      <trkpt lat="46.87553" lon="8.52203">
        <ele>1676</ele>
        <time>2021-08-11T09:55:30.446Z</time>
      </trkpt>
      <trkpt lat="46.87553" lon="8.52202">
        <ele>1676</ele>
        <time>2021-08-11T09:55:31.447Z</time>
      </trkpt>
      <trkpt lat="46.87553" lon="8.52201">
        <ele>1676</ele>
        <time>2021-08-11T09:55:32.447Z</time>
      </trkpt>
      <trkpt lat="46.87552" lon="8.52199">
        <ele>1676</ele>
        <time>2021-08-11T09:55:33.447Z</time>
      </trkpt>
      <trkpt lat="46.87552" lon="8.52199">
        <ele>1676</ele>
        <time>2021-08-11T09:55:34.447Z</time>
      </trkpt>
      <trkpt lat="46.87551" lon="8.52198">
        <ele>1676</ele>
        <time>2021-08-11T09:55:35.447Z</time>
      </trkpt>
      <trkpt lat="46.8755" lon="8.52196">
        <ele>1676</ele>
        <time>2021-08-11T09:55:36.447Z</time>
      </trkpt>
      <trkpt lat="46.87549" lon="8.52195">
        <ele>1676</ele>
        <time>2021-08-11T09:55:37.447Z</time>
      </trkpt>
      <trkpt lat="46.87548" lon="8.52194">
        <ele>1677</ele>
        <time>2021-08-11T09:55:38.446Z</time>
      </trkpt>
      <trkpt lat="46.87547" lon="8.52192">
        <ele>1677</ele>
        <time>2021-08-11T09:55:39.447Z</time>
      </trkpt>
      <trkpt lat="46.87546" lon="8.52191">
        <ele>1677</ele>
        <time>2021-08-11T09:55:40.446Z</time>
      </trkpt>
      <trkpt lat="46.87546" lon="8.5219">
        <ele>1678</ele>
        <time>2021-08-11T09:55:41.446Z</time>
      </trkpt>
      <trkpt lat="46.87547" lon="8.52191">
        <ele>1678</ele>
        <time>2021-08-11T09:55:42.447Z</time>
      </trkpt>
      <trkpt lat="46.87547" lon="8.52192">
        <ele>1678</ele>
        <time>2021-08-11T09:55:43.446Z</time>
      </trkpt>
      <trkpt lat="46.87548" lon="8.52192">
        <ele>1677</ele>
        <time>2021-08-11T09:55:44.447Z</time>
      </trkpt>
      <trkpt lat="46.87548" lon="8.52192">
        <ele>1676</ele>
        <time>2021-08-11T09:55:45.447Z</time>
      </trkpt>
      <trkpt lat="46.87548" lon="8.52193">
        <ele>1675</ele>
        <time>2021-08-11T09:55:46.447Z</time>
      </trkpt>
      <trkpt lat="46.87549" lon="8.52193">
        <ele>1674</ele>
        <time>2021-08-11T09:55:47.446Z</time>
      </trkpt>
      <trkpt lat="46.87549" lon="8.52192">
        <ele>1674</ele>
        <time>2021-08-11T09:55:48.448Z</time>
      </trkpt>
      <trkpt lat="46.87549" lon="8.52191">
        <ele>1674</ele>
        <time>2021-08-11T09:55:49.447Z</time>
      </trkpt>
      <trkpt lat="46.8755" lon="8.52193">
        <ele>1676</ele>
        <time>2021-08-11T09:55:50.448Z</time>
      </trkpt>
      <trkpt lat="46.8755" lon="8.52194">
        <ele>1676</ele>
        <time>2021-08-11T09:55:51.447Z</time>
      </trkpt>
      <trkpt lat="46.8755" lon="8.52194">
        <ele>1677</ele>
        <time>2021-08-11T09:55:52.447Z</time>
      </trkpt>
      <trkpt lat="46.8755" lon="8.52194">
        <ele>1678</ele>
        <time>2021-08-11T09:55:53.449Z</time>
      </trkpt>
      <trkpt lat="46.8755" lon="8.52194">
        <ele>1679</ele>
        <time>2021-08-11T09:55:54.448Z</time>
      </trkpt>
      <trkpt lat="46.87551" lon="8.52195">
        <ele>1682</ele>
        <time>2021-08-11T09:55:55.448Z</time>
      </trkpt>
      <trkpt lat="46.87552" lon="8.52195">
        <ele>1683</ele>
        <time>2021-08-11T09:55:56.449Z</time>
      </trkpt>
      <trkpt lat="46.87549" lon="8.52192">
        <ele>1671</ele>
        <time>2021-08-11T09:55:57.449Z</time>
      </trkpt>
      <trkpt lat="46.87548" lon="8.52191">
        <ele>1671</ele>
        <time>2021-08-11T09:55:58.449Z</time>
      </trkpt>
      <trkpt lat="46.87547" lon="8.52191">
        <ele>1671</ele>
        <time>2021-08-11T09:55:59.448Z</time>
      </trkpt>
      <trkpt lat="46.87546" lon="8.52191">
        <ele>1671</ele>
        <time>2021-08-11T09:56:00.449Z</time>
      </trkpt>
      <trkpt lat="46.87545" lon="8.5219">
        <ele>1671</ele>
        <time>2021-08-11T09:56:01.448Z</time>
      </trkpt>
      <trkpt lat="46.87544" lon="8.5219">
        <ele>1672</ele>
        <time>2021-08-11T09:56:02.449Z</time>
      </trkpt>
      <trkpt lat="46.87543" lon="8.52188">
        <ele>1672</ele>
        <time>2021-08-11T09:56:03.449Z</time>
      </trkpt>
      <trkpt lat="46.87542" lon="8.52188">
        <ele>1672</ele>
        <time>2021-08-11T09:56:04.449Z</time>
      </trkpt>
      <trkpt lat="46.87541" lon="8.52187">
        <ele>1671</ele>
        <time>2021-08-11T09:56:05.448Z</time>
      </trkpt>
      <trkpt lat="46.8754" lon="8.52187">
        <ele>1671</ele>
        <time>2021-08-11T09:56:06.448Z</time>
      </trkpt>
      <trkpt lat="46.87539" lon="8.52186">
        <ele>1671</ele>
        <time>2021-08-11T09:56:07.449Z</time>
      </trkpt>
      <trkpt lat="46.87537" lon="8.52185">
        <ele>1671</ele>
        <time>2021-08-11T09:56:08.448Z</time>
      </trkpt>
      <trkpt lat="46.87536" lon="8.52183">
        <ele>1671</ele>
        <time>2021-08-11T09:56:09.449Z</time>
      </trkpt>
      <trkpt lat="46.87534" lon="8.52183">
        <ele>1671</ele>
        <time>2021-08-11T09:56:10.449Z</time>
      </trkpt>
      <trkpt lat="46.87533" lon="8.52183">
        <ele>1671</ele>
        <time>2021-08-11T09:56:11.449Z</time>
      </trkpt>
      <trkpt lat="46.87532" lon="8.52182">
        <ele>1671</ele>
        <time>2021-08-11T09:56:12.448Z</time>
      </trkpt>
      <trkpt lat="46.87531" lon="8.52182">
        <ele>1671</ele>
        <time>2021-08-11T09:56:13.449Z</time>
      </trkpt>
      <trkpt lat="46.8753" lon="8.52182">
        <ele>1671</ele>
        <time>2021-08-11T09:56:14.449Z</time>
      </trkpt>
      <trkpt lat="46.87529" lon="8.52181">
        <ele>1671</ele>
        <time>2021-08-11T09:56:15.449Z</time>
      </trkpt>
      <trkpt lat="46.87528" lon="8.5218">
        <ele>1670</ele>
        <time>2021-08-11T09:56:16.448Z</time>
      </trkpt>
      <trkpt lat="46.87527" lon="8.5218">
        <ele>1670</ele>
        <time>2021-08-11T09:56:17.448Z</time>
      </trkpt>
      <trkpt lat="46.87527" lon="8.5218">
        <ele>1670</ele>
        <time>2021-08-11T09:56:18.449Z</time>
      </trkpt>
      <trkpt lat="46.87526" lon="8.5218">
        <ele>1670</ele>
        <time>2021-08-11T09:56:19.449Z</time>
      </trkpt>
      <trkpt lat="46.87525" lon="8.52179">
        <ele>1670</ele>
        <time>2021-08-11T09:56:20.448Z</time>
      </trkpt>
      <trkpt lat="46.87524" lon="8.52179">
        <ele>1670</ele>
        <time>2021-08-11T09:56:21.449Z</time>
      </trkpt>
      <trkpt lat="46.87524" lon="8.52178">
        <ele>1670</ele>
        <time>2021-08-11T09:56:22.449Z</time>
      </trkpt>
      <trkpt lat="46.87523" lon="8.52177">
        <ele>1670</ele>
        <time>2021-08-11T09:56:23.449Z</time>
      </trkpt>
      <trkpt lat="46.87522" lon="8.52176">
        <ele>1670</ele>
        <time>2021-08-11T09:56:24.449Z</time>
      </trkpt>
      <trkpt lat="46.87521" lon="8.52175">
        <ele>1670</ele>
        <time>2021-08-11T09:56:25.448Z</time>
      </trkpt>
      <trkpt lat="46.87521" lon="8.52174">
        <ele>1670</ele>
        <time>2021-08-11T09:56:26.449Z</time>
      </trkpt>
      <trkpt lat="46.8752" lon="8.52174">
        <ele>1670</ele>
        <time>2021-08-11T09:56:27.449Z</time>
      </trkpt>
      <trkpt lat="46.87519" lon="8.52174">
        <ele>1670</ele>
        <time>2021-08-11T09:56:28.449Z</time>
      </trkpt>
      <trkpt lat="46.87518" lon="8.52173">
        <ele>1669</ele>
        <time>2021-08-11T09:56:29.448Z</time>
      </trkpt>
      <trkpt lat="46.87517" lon="8.52173">
        <ele>1669</ele>
        <time>2021-08-11T09:56:30.448Z</time>
      </trkpt>
      <trkpt lat="46.87516" lon="8.52172">
        <ele>1670</ele>
        <time>2021-08-11T09:56:31.449Z</time>
      </trkpt>
      <trkpt lat="46.87516" lon="8.52172">
        <ele>1670</ele>
        <time>2021-08-11T09:56:32.448Z</time>
      </trkpt>
      <trkpt lat="46.87515" lon="8.52172">
        <ele>1670</ele>
        <time>2021-08-11T09:56:33.449Z</time>
      </trkpt>
      <trkpt lat="46.87514" lon="8.52172">
        <ele>1669</ele>
        <time>2021-08-11T09:56:34.449Z</time>
      </trkpt>
      <trkpt lat="46.87513" lon="8.52171">
        <ele>1669</ele>
        <time>2021-08-11T09:56:35.449Z</time>
      </trkpt>
      <trkpt lat="46.87512" lon="8.52171">
        <ele>1669</ele>
        <time>2021-08-11T09:56:36.449Z</time>
      </trkpt>
      <trkpt lat="46.87511" lon="8.52171">
        <ele>1668</ele>
        <time>2021-08-11T09:56:37.449Z</time>
      </trkpt>
      <trkpt lat="46.8751" lon="8.5217">
        <ele>1667</ele>
        <time>2021-08-11T09:56:38.449Z</time>
      </trkpt>
      <trkpt lat="46.8751" lon="8.5217">
        <ele>1667</ele>
        <time>2021-08-11T09:56:39.448Z</time>
      </trkpt>
      <trkpt lat="46.87509" lon="8.5217">
        <ele>1667</ele>
        <time>2021-08-11T09:56:40.448Z</time>
      </trkpt>
      <trkpt lat="46.87509" lon="8.5217">
        <ele>1666</ele>
        <time>2021-08-11T09:56:41.449Z</time>
      </trkpt>
      <trkpt lat="46.87508" lon="8.52169">
        <ele>1666</ele>
        <time>2021-08-11T09:56:42.449Z</time>
      </trkpt>
      <trkpt lat="46.87507" lon="8.52169">
        <ele>1666</ele>
        <time>2021-08-11T09:56:43.449Z</time>
      </trkpt>
      <trkpt lat="46.87507" lon="8.52168">
        <ele>1665</ele>
        <time>2021-08-11T09:56:44.449Z</time>
      </trkpt>
      <trkpt lat="46.87506" lon="8.52167">
        <ele>1665</ele>
        <time>2021-08-11T09:56:45.448Z</time>
      </trkpt>
      <trkpt lat="46.87505" lon="8.52167">
        <ele>1665</ele>
        <time>2021-08-11T09:56:46.449Z</time>
      </trkpt>
      <trkpt lat="46.87505" lon="8.52166">
        <ele>1665</ele>
        <time>2021-08-11T09:56:47.448Z</time>
      </trkpt>
      <trkpt lat="46.87504" lon="8.52165">
        <ele>1665</ele>
        <time>2021-08-11T09:56:48.449Z</time>
      </trkpt>
      <trkpt lat="46.87504" lon="8.52164">
        <ele>1665</ele>
        <time>2021-08-11T09:56:49.448Z</time>
      </trkpt>
      <trkpt lat="46.87503" lon="8.52163">
        <ele>1665</ele>
        <time>2021-08-11T09:56:50.448Z</time>
      </trkpt>
      <trkpt lat="46.87503" lon="8.52162">
        <ele>1665</ele>
        <time>2021-08-11T09:56:51.449Z</time>
      </trkpt>
      <trkpt lat="46.87502" lon="8.52161">
        <ele>1665</ele>
        <time>2021-08-11T09:56:52.448Z</time>
      </trkpt>
      <trkpt lat="46.87501" lon="8.52161">
        <ele>1665</ele>
        <time>2021-08-11T09:56:53.449Z</time>
      </trkpt>
      <trkpt lat="46.87501" lon="8.5216">
        <ele>1665</ele>
        <time>2021-08-11T09:56:54.448Z</time>
      </trkpt>
      <trkpt lat="46.875" lon="8.52159">
        <ele>1665</ele>
        <time>2021-08-11T09:56:55.448Z</time>
      </trkpt>
      <trkpt lat="46.87499" lon="8.52159">
        <ele>1665</ele>
        <time>2021-08-11T09:56:56.449Z</time>
      </trkpt>
      <trkpt lat="46.87499" lon="8.52158">
        <ele>1665</ele>
        <time>2021-08-11T09:56:57.449Z</time>
      </trkpt>
      <trkpt lat="46.87499" lon="8.52157">
        <ele>1665</ele>
        <time>2021-08-11T09:56:58.449Z</time>
      </trkpt>
      <trkpt lat="46.87498" lon="8.52156">
        <ele>1665</ele>
        <time>2021-08-11T09:56:59.449Z</time>
      </trkpt>
      <trkpt lat="46.87497" lon="8.52154">
        <ele>1665</ele>
        <time>2021-08-11T09:57:00.448Z</time>
      </trkpt>
      <trkpt lat="46.87497" lon="8.52153">
        <ele>1665</ele>
        <time>2021-08-11T09:57:01.449Z</time>
      </trkpt>
      <trkpt lat="46.87497" lon="8.52152">
        <ele>1665</ele>
        <time>2021-08-11T09:57:02.448Z</time>
      </trkpt>
      <trkpt lat="46.87496" lon="8.52151">
        <ele>1665</ele>
        <time>2021-08-11T09:57:03.449Z</time>
      </trkpt>
      <trkpt lat="46.87496" lon="8.5215">
        <ele>1666</ele>
        <time>2021-08-11T09:57:04.449Z</time>
      </trkpt>
      <trkpt lat="46.87495" lon="8.52148">
        <ele>1666</ele>
        <time>2021-08-11T09:57:05.449Z</time>
      </trkpt>
      <trkpt lat="46.87495" lon="8.52147">
        <ele>1666</ele>
        <time>2021-08-11T09:57:06.449Z</time>
      </trkpt>
      <trkpt lat="46.87494" lon="8.52146">
        <ele>1666</ele>
        <time>2021-08-11T09:57:07.449Z</time>
      </trkpt>
      <trkpt lat="46.87493" lon="8.52145">
        <ele>1666</ele>
        <time>2021-08-11T09:57:08.448Z</time>
      </trkpt>
      <trkpt lat="46.87493" lon="8.52144">
        <ele>1667</ele>
        <time>2021-08-11T09:57:09.449Z</time>
      </trkpt>
      <trkpt lat="46.87492" lon="8.52143">
        <ele>1667</ele>
        <time>2021-08-11T09:57:10.449Z</time>
      </trkpt>
      <trkpt lat="46.87491" lon="8.52142">
        <ele>1667</ele>
        <time>2021-08-11T09:57:11.449Z</time>
      </trkpt>
      <trkpt lat="46.87491" lon="8.52141">
        <ele>1667</ele>
        <time>2021-08-11T09:57:12.449Z</time>
      </trkpt>
      <trkpt lat="46.8749" lon="8.52139">
        <ele>1667</ele>
        <time>2021-08-11T09:57:13.448Z</time>
      </trkpt>
      <trkpt lat="46.8749" lon="8.52138">
        <ele>1667</ele>
        <time>2021-08-11T09:57:14.449Z</time>
      </trkpt>
      <trkpt lat="46.87489" lon="8.52137">
        <ele>1667</ele>
        <time>2021-08-11T09:57:15.449Z</time>
      </trkpt>
      <trkpt lat="46.87489" lon="8.52136">
        <ele>1667</ele>
        <time>2021-08-11T09:57:16.449Z</time>
      </trkpt>
      <trkpt lat="46.87488" lon="8.52135">
        <ele>1667</ele>
        <time>2021-08-11T09:57:17.449Z</time>
      </trkpt>
      <trkpt lat="46.87487" lon="8.52134">
        <ele>1667</ele>
        <time>2021-08-11T09:57:18.449Z</time>
      </trkpt>
      <trkpt lat="46.87486" lon="8.52132">
        <ele>1668</ele>
        <time>2021-08-11T09:57:19.449Z</time>
      </trkpt>
      <trkpt lat="46.87486" lon="8.52131">
        <ele>1668</ele>
        <time>2021-08-11T09:57:20.449Z</time>
      </trkpt>
      <trkpt lat="46.87485" lon="8.5213">
        <ele>1668</ele>
        <time>2021-08-11T09:57:21.449Z</time>
      </trkpt>
      <trkpt lat="46.87484" lon="8.52129">
        <ele>1669</ele>
        <time>2021-08-11T09:57:22.449Z</time>
      </trkpt>
      <trkpt lat="46.87483" lon="8.52128">
        <ele>1668</ele>
        <time>2021-08-11T09:57:23.448Z</time>
      </trkpt>
      <trkpt lat="46.87482" lon="8.52127">
        <ele>1668</ele>
        <time>2021-08-11T09:57:24.449Z</time>
      </trkpt>
      <trkpt lat="46.87482" lon="8.52127">
        <ele>1667</ele>
        <time>2021-08-11T09:57:25.449Z</time>
      </trkpt>
      <trkpt lat="46.87481" lon="8.52126">
        <ele>1667</ele>
        <time>2021-08-11T09:57:26.448Z</time>
      </trkpt>
      <trkpt lat="46.87481" lon="8.52125">
        <ele>1666</ele>
        <time>2021-08-11T09:57:27.448Z</time>
      </trkpt>
      <trkpt lat="46.87481" lon="8.52125">
        <ele>1665</ele>
        <time>2021-08-11T09:57:28.449Z</time>
      </trkpt>
      <trkpt lat="46.87481" lon="8.52125">
        <ele>1665</ele>
        <time>2021-08-11T09:57:29.449Z</time>
      </trkpt>
      <trkpt lat="46.8748" lon="8.52124">
        <ele>1665</ele>
        <time>2021-08-11T09:57:30.449Z</time>
      </trkpt>
      <trkpt lat="46.87479" lon="8.52122">
        <ele>1665</ele>
        <time>2021-08-11T09:57:31.449Z</time>
      </trkpt>
      <trkpt lat="46.87479" lon="8.52122">
        <ele>1665</ele>
        <time>2021-08-11T09:57:32.448Z</time>
      </trkpt>
      <trkpt lat="46.87477" lon="8.52121">
        <ele>1664</ele>
        <time>2021-08-11T09:57:33.449Z</time>
      </trkpt>
      <trkpt lat="46.87476" lon="8.52121">
        <ele>1664</ele>
        <time>2021-08-11T09:57:34.448Z</time>
      </trkpt>
      <trkpt lat="46.87475" lon="8.5212">
        <ele>1664</ele>
        <time>2021-08-11T09:57:35.448Z</time>
      </trkpt>
      <trkpt lat="46.87474" lon="8.52118">
        <ele>1663</ele>
        <time>2021-08-11T09:57:36.449Z</time>
      </trkpt>
      <trkpt lat="46.87473" lon="8.52117">
        <ele>1663</ele>
        <time>2021-08-11T09:57:37.448Z</time>
      </trkpt>
      <trkpt lat="46.87473" lon="8.52116">
        <ele>1663</ele>
        <time>2021-08-11T09:57:38.449Z</time>
      </trkpt>
      <trkpt lat="46.87472" lon="8.52115">
        <ele>1663</ele>
        <time>2021-08-11T09:57:39.449Z</time>
      </trkpt>
      <trkpt lat="46.87472" lon="8.52114">
        <ele>1664</ele>
        <time>2021-08-11T09:57:40.449Z</time>
      </trkpt>
      <trkpt lat="46.87471" lon="8.52114">
        <ele>1663</ele>
        <time>2021-08-11T09:57:41.449Z</time>
      </trkpt>
      <trkpt lat="46.8747" lon="8.52114">
        <ele>1663</ele>
        <time>2021-08-11T09:57:42.449Z</time>
      </trkpt>
      <trkpt lat="46.87469" lon="8.52114">
        <ele>1663</ele>
        <time>2021-08-11T09:57:43.449Z</time>
      </trkpt>
      <trkpt lat="46.87469" lon="8.52113">
        <ele>1662</ele>
        <time>2021-08-11T09:57:44.448Z</time>
      </trkpt>
      <trkpt lat="46.87468" lon="8.52112">
        <ele>1662</ele>
        <time>2021-08-11T09:57:45.449Z</time>
      </trkpt>
      <trkpt lat="46.87467" lon="8.52111">
        <ele>1662</ele>
        <time>2021-08-11T09:57:46.449Z</time>
      </trkpt>
      <trkpt lat="46.87465" lon="8.52109">
        <ele>1662</ele>
        <time>2021-08-11T09:57:47.449Z</time>
      </trkpt>
      <trkpt lat="46.87465" lon="8.52107">
        <ele>1662</ele>
        <time>2021-08-11T09:57:48.449Z</time>
      </trkpt>
      <trkpt lat="46.87464" lon="8.52106">
        <ele>1662</ele>
        <time>2021-08-11T09:57:49.449Z</time>
      </trkpt>
      <trkpt lat="46.87463" lon="8.52105">
        <ele>1662</ele>
        <time>2021-08-11T09:57:50.449Z</time>
      </trkpt>
      <trkpt lat="46.87463" lon="8.52103">
        <ele>1662</ele>
        <time>2021-08-11T09:57:51.448Z</time>
      </trkpt>
      <trkpt lat="46.87462" lon="8.52102">
        <ele>1661</ele>
        <time>2021-08-11T09:57:52.449Z</time>
      </trkpt>
      <trkpt lat="46.87462" lon="8.52101">
        <ele>1661</ele>
        <time>2021-08-11T09:57:53.448Z</time>
      </trkpt>
      <trkpt lat="46.87461" lon="8.52099">
        <ele>1661</ele>
        <time>2021-08-11T09:57:54.449Z</time>
      </trkpt>
      <trkpt lat="46.8746" lon="8.52098">
        <ele>1662</ele>
        <time>2021-08-11T09:57:55.448Z</time>
      </trkpt>
      <trkpt lat="46.8746" lon="8.52097">
        <ele>1662</ele>
        <time>2021-08-11T09:57:56.448Z</time>
      </trkpt>
      <trkpt lat="46.87459" lon="8.52096">
        <ele>1661</ele>
        <time>2021-08-11T09:57:57.449Z</time>
      </trkpt>
      <trkpt lat="46.87459" lon="8.52094">
        <ele>1661</ele>
        <time>2021-08-11T09:57:58.448Z</time>
      </trkpt>
      <trkpt lat="46.87458" lon="8.52093">
        <ele>1661</ele>
        <time>2021-08-11T09:57:59.449Z</time>
      </trkpt>
      <trkpt lat="46.87457" lon="8.52091">
        <ele>1660</ele>
        <time>2021-08-11T09:58:00.449Z</time>
      </trkpt>
      <trkpt lat="46.87457" lon="8.52089">
        <ele>1660</ele>
        <time>2021-08-11T09:58:01.449Z</time>
      </trkpt>
      <trkpt lat="46.87456" lon="8.52088">
        <ele>1660</ele>
        <time>2021-08-11T09:58:02.449Z</time>
      </trkpt>
      <trkpt lat="46.87455" lon="8.52086">
        <ele>1660</ele>
        <time>2021-08-11T09:58:03.448Z</time>
      </trkpt>
      <trkpt lat="46.87454" lon="8.52085">
        <ele>1660</ele>
        <time>2021-08-11T09:58:04.449Z</time>
      </trkpt>
      <trkpt lat="46.87453" lon="8.52083">
        <ele>1661</ele>
        <time>2021-08-11T09:58:05.449Z</time>
      </trkpt>
      <trkpt lat="46.87452" lon="8.52081">
        <ele>1660</ele>
        <time>2021-08-11T09:58:06.448Z</time>
      </trkpt>
      <trkpt lat="46.87451" lon="8.5208">
        <ele>1660</ele>
        <time>2021-08-11T09:58:07.449Z</time>
      </trkpt>
      <trkpt lat="46.87451" lon="8.52079">
        <ele>1660</ele>
        <time>2021-08-11T09:58:08.449Z</time>
      </trkpt>
      <trkpt lat="46.8745" lon="8.52077">
        <ele>1659</ele>
        <time>2021-08-11T09:58:09.449Z</time>
      </trkpt>
      <trkpt lat="46.87449" lon="8.52075">
        <ele>1659</ele>
        <time>2021-08-11T09:58:10.449Z</time>
      </trkpt>
      <trkpt lat="46.87448" lon="8.52074">
        <ele>1660</ele>
        <time>2021-08-11T09:58:11.448Z</time>
      </trkpt>
      <trkpt lat="46.87447" lon="8.52072">
        <ele>1660</ele>
        <time>2021-08-11T09:58:12.449Z</time>
      </trkpt>
      <trkpt lat="46.87447" lon="8.52071">
        <ele>1659</ele>
        <time>2021-08-11T09:58:13.449Z</time>
      </trkpt>
      <trkpt lat="46.87446" lon="8.52069">
        <ele>1659</ele>
        <time>2021-08-11T09:58:14.449Z</time>
      </trkpt>
      <trkpt lat="46.87445" lon="8.52068">
        <ele>1659</ele>
        <time>2021-08-11T09:58:15.448Z</time>
      </trkpt>
      <trkpt lat="46.87444" lon="8.52066">
        <ele>1659</ele>
        <time>2021-08-11T09:58:16.449Z</time>
      </trkpt>
      <trkpt lat="46.87444" lon="8.52065">
        <ele>1658</ele>
        <time>2021-08-11T09:58:17.448Z</time>
      </trkpt>
      <trkpt lat="46.87443" lon="8.52064">
        <ele>1658</ele>
        <time>2021-08-11T09:58:18.449Z</time>
      </trkpt>
      <trkpt lat="46.87442" lon="8.52063">
        <ele>1658</ele>
        <time>2021-08-11T09:58:19.448Z</time>
      </trkpt>
      <trkpt lat="46.87441" lon="8.52062">
        <ele>1658</ele>
        <time>2021-08-11T09:58:20.449Z</time>
      </trkpt>
      <trkpt lat="46.8744" lon="8.52062">
        <ele>1658</ele>
        <time>2021-08-11T09:58:21.449Z</time>
      </trkpt>
      <trkpt lat="46.87439" lon="8.52061">
        <ele>1658</ele>
        <time>2021-08-11T09:58:22.449Z</time>
      </trkpt>
      <trkpt lat="46.87438" lon="8.52059">
        <ele>1657</ele>
        <time>2021-08-11T09:58:23.448Z</time>
      </trkpt>
      <trkpt lat="46.87437" lon="8.52058">
        <ele>1658</ele>
        <time>2021-08-11T09:58:24.449Z</time>
      </trkpt>
      <trkpt lat="46.87436" lon="8.52056">
        <ele>1658</ele>
        <time>2021-08-11T09:58:25.449Z</time>
      </trkpt>
      <trkpt lat="46.87435" lon="8.52054">
        <ele>1659</ele>
        <time>2021-08-11T09:58:26.449Z</time>
      </trkpt>
      <trkpt lat="46.87435" lon="8.52052">
        <ele>1659</ele>
        <time>2021-08-11T09:58:27.449Z</time>
      </trkpt>
      <trkpt lat="46.87434" lon="8.5205">
        <ele>1659</ele>
        <time>2021-08-11T09:58:28.449Z</time>
      </trkpt>
      <trkpt lat="46.87433" lon="8.52048">
        <ele>1658</ele>
        <time>2021-08-11T09:58:29.449Z</time>
      </trkpt>
      <trkpt lat="46.87432" lon="8.52046">
        <ele>1658</ele>
        <time>2021-08-11T09:58:30.449Z</time>
      </trkpt>
      <trkpt lat="46.87431" lon="8.52044">
        <ele>1657</ele>
        <time>2021-08-11T09:58:31.448Z</time>
      </trkpt>
      <trkpt lat="46.8743" lon="8.52043">
        <ele>1657</ele>
        <time>2021-08-11T09:58:32.449Z</time>
      </trkpt>
      <trkpt lat="46.87429" lon="8.52042">
        <ele>1656</ele>
        <time>2021-08-11T09:58:33.449Z</time>
      </trkpt>
      <trkpt lat="46.87428" lon="8.52041">
        <ele>1656</ele>
        <time>2021-08-11T09:58:34.449Z</time>
      </trkpt>
      <trkpt lat="46.87427" lon="8.52039">
        <ele>1656</ele>
        <time>2021-08-11T09:58:35.448Z</time>
      </trkpt>
      <trkpt lat="46.87426" lon="8.52038">
        <ele>1656</ele>
        <time>2021-08-11T09:58:36.449Z</time>
      </trkpt>
      <trkpt lat="46.87425" lon="8.52036">
        <ele>1656</ele>
        <time>2021-08-11T09:58:37.448Z</time>
      </trkpt>
      <trkpt lat="46.87424" lon="8.52035">
        <ele>1656</ele>
        <time>2021-08-11T09:58:38.449Z</time>
      </trkpt>
      <trkpt lat="46.87423" lon="8.52033">
        <ele>1656</ele>
        <time>2021-08-11T09:58:39.449Z</time>
      </trkpt>
      <trkpt lat="46.87422" lon="8.52032">
        <ele>1656</ele>
        <time>2021-08-11T09:58:40.449Z</time>
      </trkpt>
      <trkpt lat="46.87421" lon="8.52031">
        <ele>1656</ele>
        <time>2021-08-11T09:58:41.449Z</time>
      </trkpt>
      <trkpt lat="46.87421" lon="8.52029">
        <ele>1655</ele>
        <time>2021-08-11T09:58:42.449Z</time>
      </trkpt>
      <trkpt lat="46.8742" lon="8.52028">
        <ele>1655</ele>
        <time>2021-08-11T09:58:43.449Z</time>
      </trkpt>
      <trkpt lat="46.87419" lon="8.52027">
        <ele>1655</ele>
        <time>2021-08-11T09:58:44.449Z</time>
      </trkpt>
      <trkpt lat="46.87418" lon="8.52026">
        <ele>1655</ele>
        <time>2021-08-11T09:58:45.449Z</time>
      </trkpt>
      <trkpt lat="46.87417" lon="8.52024">
        <ele>1654</ele>
        <time>2021-08-11T09:58:46.449Z</time>
      </trkpt>
      <trkpt lat="46.87417" lon="8.52023">
        <ele>1655</ele>
        <time>2021-08-11T09:58:47.448Z</time>
      </trkpt>
      <trkpt lat="46.87416" lon="8.52022">
        <ele>1655</ele>
        <time>2021-08-11T09:58:48.449Z</time>
      </trkpt>
      <trkpt lat="46.87415" lon="8.5202">
        <ele>1655</ele>
        <time>2021-08-11T09:58:49.448Z</time>
      </trkpt>
      <trkpt lat="46.87415" lon="8.52019">
        <ele>1655</ele>
        <time>2021-08-11T09:58:50.448Z</time>
      </trkpt>
      <trkpt lat="46.87414" lon="8.52017">
        <ele>1655</ele>
        <time>2021-08-11T09:58:51.449Z</time>
      </trkpt>
      <trkpt lat="46.87413" lon="8.52017">
        <ele>1655</ele>
        <time>2021-08-11T09:58:52.448Z</time>
      </trkpt>
      <trkpt lat="46.87412" lon="8.52015">
        <ele>1655</ele>
        <time>2021-08-11T09:58:53.449Z</time>
      </trkpt>
      <trkpt lat="46.87411" lon="8.52014">
        <ele>1655</ele>
        <time>2021-08-11T09:58:54.448Z</time>
      </trkpt>
      <trkpt lat="46.8741" lon="8.52013">
        <ele>1655</ele>
        <time>2021-08-11T09:58:55.449Z</time>
      </trkpt>
      <trkpt lat="46.87409" lon="8.52012">
        <ele>1655</ele>
        <time>2021-08-11T09:58:56.449Z</time>
      </trkpt>
      <trkpt lat="46.87408" lon="8.52011">
        <ele>1655</ele>
        <time>2021-08-11T09:58:57.449Z</time>
      </trkpt>
      <trkpt lat="46.87408" lon="8.5201">
        <ele>1655</ele>
        <time>2021-08-11T09:58:58.449Z</time>
      </trkpt>
      <trkpt lat="46.87407" lon="8.52009">
        <ele>1655</ele>
        <time>2021-08-11T09:58:59.448Z</time>
      </trkpt>
      <trkpt lat="46.87406" lon="8.52008">
        <ele>1654</ele>
        <time>2021-08-11T09:59:00.448Z</time>
      </trkpt>
      <trkpt lat="46.87405" lon="8.52008">
        <ele>1654</ele>
        <time>2021-08-11T09:59:01.448Z</time>
      </trkpt>
      <trkpt lat="46.87405" lon="8.52007">
        <ele>1654</ele>
        <time>2021-08-11T09:59:02.449Z</time>
      </trkpt>
      <trkpt lat="46.87404" lon="8.52006">
        <ele>1653</ele>
        <time>2021-08-11T09:59:03.449Z</time>
      </trkpt>
      <trkpt lat="46.87404" lon="8.52005">
        <ele>1653</ele>
        <time>2021-08-11T09:59:04.448Z</time>
      </trkpt>
      <trkpt lat="46.87404" lon="8.52004">
        <ele>1652</ele>
        <time>2021-08-11T09:59:05.448Z</time>
      </trkpt>
      <trkpt lat="46.87404" lon="8.52003">
        <ele>1652</ele>
        <time>2021-08-11T09:59:06.448Z</time>
      </trkpt>
      <trkpt lat="46.87403" lon="8.52001">
        <ele>1651</ele>
        <time>2021-08-11T09:59:07.448Z</time>
      </trkpt>
      <trkpt lat="46.87402" lon="8.52">
        <ele>1651</ele>
        <time>2021-08-11T09:59:08.448Z</time>
      </trkpt>
      <trkpt lat="46.87401" lon="8.51998">
        <ele>1650</ele>
        <time>2021-08-11T09:59:09.449Z</time>
      </trkpt>
      <trkpt lat="46.874" lon="8.51997">
        <ele>1650</ele>
        <time>2021-08-11T09:59:10.448Z</time>
      </trkpt>
      <trkpt lat="46.87399" lon="8.51996">
        <ele>1650</ele>
        <time>2021-08-11T09:59:11.448Z</time>
      </trkpt>
      <trkpt lat="46.87398" lon="8.51995">
        <ele>1650</ele>
        <time>2021-08-11T09:59:12.449Z</time>
      </trkpt>
      <trkpt lat="46.87397" lon="8.51993">
        <ele>1650</ele>
        <time>2021-08-11T09:59:13.448Z</time>
      </trkpt>
      <trkpt lat="46.87395" lon="8.51992">
        <ele>1650</ele>
        <time>2021-08-11T09:59:14.449Z</time>
      </trkpt>
      <trkpt lat="46.87395" lon="8.51991">
        <ele>1650</ele>
        <time>2021-08-11T09:59:15.448Z</time>
      </trkpt>
      <trkpt lat="46.87394" lon="8.5199">
        <ele>1650</ele>
        <time>2021-08-11T09:59:16.449Z</time>
      </trkpt>
      <trkpt lat="46.87393" lon="8.51989">
        <ele>1650</ele>
        <time>2021-08-11T09:59:17.449Z</time>
      </trkpt>
      <trkpt lat="46.87392" lon="8.51987">
        <ele>1650</ele>
        <time>2021-08-11T09:59:18.448Z</time>
      </trkpt>
      <trkpt lat="46.87391" lon="8.51986">
        <ele>1649</ele>
        <time>2021-08-11T09:59:19.449Z</time>
      </trkpt>
      <trkpt lat="46.87391" lon="8.51985">
        <ele>1649</ele>
        <time>2021-08-11T09:59:20.449Z</time>
      </trkpt>
      <trkpt lat="46.8739" lon="8.51984">
        <ele>1649</ele>
        <time>2021-08-11T09:59:21.449Z</time>
      </trkpt>
      <trkpt lat="46.8739" lon="8.51983">
        <ele>1649</ele>
        <time>2021-08-11T09:59:22.449Z</time>
      </trkpt>
      <trkpt lat="46.87389" lon="8.51982">
        <ele>1648</ele>
        <time>2021-08-11T09:59:23.449Z</time>
      </trkpt>
      <trkpt lat="46.87388" lon="8.5198">
        <ele>1647</ele>
        <time>2021-08-11T09:59:24.448Z</time>
      </trkpt>
      <trkpt lat="46.87387" lon="8.51979">
        <ele>1647</ele>
        <time>2021-08-11T09:59:25.449Z</time>
      </trkpt>
      <trkpt lat="46.87386" lon="8.51977">
        <ele>1646</ele>
        <time>2021-08-11T09:59:26.449Z</time>
      </trkpt>
      <trkpt lat="46.87385" lon="8.51976">
        <ele>1645</ele>
        <time>2021-08-11T09:59:27.448Z</time>
      </trkpt>
      <trkpt lat="46.87384" lon="8.51975">
        <ele>1645</ele>
        <time>2021-08-11T09:59:28.449Z</time>
      </trkpt>
      <trkpt lat="46.87384" lon="8.51974">
        <ele>1644</ele>
        <time>2021-08-11T09:59:29.448Z</time>
      </trkpt>
      <trkpt lat="46.87382" lon="8.51973">
        <ele>1643</ele>
        <time>2021-08-11T09:59:30.449Z</time>
      </trkpt>
      <trkpt lat="46.87381" lon="8.51972">
        <ele>1643</ele>
        <time>2021-08-11T09:59:31.449Z</time>
      </trkpt>
      <trkpt lat="46.8738" lon="8.51971">
        <ele>1643</ele>
        <time>2021-08-11T09:59:32.449Z</time>
      </trkpt>
      <trkpt lat="46.87378" lon="8.5197">
        <ele>1643</ele>
        <time>2021-08-11T09:59:33.448Z</time>
      </trkpt>
      <trkpt lat="46.87378" lon="8.51968">
        <ele>1643</ele>
        <time>2021-08-11T09:59:34.449Z</time>
      </trkpt>
      <trkpt lat="46.87377" lon="8.51967">
        <ele>1643</ele>
        <time>2021-08-11T09:59:35.448Z</time>
      </trkpt>
      <trkpt lat="46.87376" lon="8.51965">
        <ele>1643</ele>
        <time>2021-08-11T09:59:36.448Z</time>
      </trkpt>
      <trkpt lat="46.87375" lon="8.51964">
        <ele>1643</ele>
        <time>2021-08-11T09:59:37.449Z</time>
      </trkpt>
      <trkpt lat="46.87375" lon="8.51962">
        <ele>1643</ele>
        <time>2021-08-11T09:59:38.449Z</time>
      </trkpt>
      <trkpt lat="46.87374" lon="8.51961">
        <ele>1643</ele>
        <time>2021-08-11T09:59:39.449Z</time>
      </trkpt>
      <trkpt lat="46.87373" lon="8.5196">
        <ele>1643</ele>
        <time>2021-08-11T09:59:40.448Z</time>
      </trkpt>
      <trkpt lat="46.87372" lon="8.51959">
        <ele>1643</ele>
        <time>2021-08-11T09:59:41.448Z</time>
      </trkpt>
      <trkpt lat="46.87372" lon="8.51958">
        <ele>1643</ele>
        <time>2021-08-11T09:59:42.449Z</time>
      </trkpt>
      <trkpt lat="46.87371" lon="8.51956">
        <ele>1643</ele>
        <time>2021-08-11T09:59:43.449Z</time>
      </trkpt>
      <trkpt lat="46.87371" lon="8.51955">
        <ele>1643</ele>
        <time>2021-08-11T09:59:44.449Z</time>
      </trkpt>
      <trkpt lat="46.8737" lon="8.51953">
        <ele>1643</ele>
        <time>2021-08-11T09:59:45.448Z</time>
      </trkpt>
      <trkpt lat="46.87369" lon="8.51952">
        <ele>1643</ele>
        <time>2021-08-11T09:59:46.448Z</time>
      </trkpt>
      <trkpt lat="46.87368" lon="8.5195">
        <ele>1643</ele>
        <time>2021-08-11T09:59:47.449Z</time>
      </trkpt>
      <trkpt lat="46.87367" lon="8.51948">
        <ele>1642</ele>
        <time>2021-08-11T09:59:48.448Z</time>
      </trkpt>
      <trkpt lat="46.87366" lon="8.51946">
        <ele>1642</ele>
        <time>2021-08-11T09:59:49.449Z</time>
      </trkpt>
      <trkpt lat="46.87366" lon="8.51945">
        <ele>1641</ele>
        <time>2021-08-11T09:59:50.448Z</time>
      </trkpt>
      <trkpt lat="46.87365" lon="8.51943">
        <ele>1641</ele>
        <time>2021-08-11T09:59:51.448Z</time>
      </trkpt>
      <trkpt lat="46.87364" lon="8.51941">
        <ele>1641</ele>
        <time>2021-08-11T09:59:52.449Z</time>
      </trkpt>
      <trkpt lat="46.87363" lon="8.51939">
        <ele>1641</ele>
        <time>2021-08-11T09:59:53.449Z</time>
      </trkpt>
      <trkpt lat="46.87363" lon="8.51938">
        <ele>1641</ele>
        <time>2021-08-11T09:59:54.448Z</time>
      </trkpt>
      <trkpt lat="46.87362" lon="8.51936">
        <ele>1641</ele>
        <time>2021-08-11T09:59:55.449Z</time>
      </trkpt>
      <trkpt lat="46.87361" lon="8.51934">
        <ele>1641</ele>
        <time>2021-08-11T09:59:56.448Z</time>
      </trkpt>
      <trkpt lat="46.8736" lon="8.51933">
        <ele>1641</ele>
        <time>2021-08-11T09:59:57.448Z</time>
      </trkpt>
      <trkpt lat="46.87359" lon="8.51931">
        <ele>1641</ele>
        <time>2021-08-11T09:59:58.448Z</time>
      </trkpt>
      <trkpt lat="46.87359" lon="8.5193">
        <ele>1641</ele>
        <time>2021-08-11T09:59:59.449Z</time>
      </trkpt>
      <trkpt lat="46.87358" lon="8.51929">
        <ele>1641</ele>
        <time>2021-08-11T10:00:00.448Z</time>
      </trkpt>
      <trkpt lat="46.87357" lon="8.51928">
        <ele>1641</ele>
        <time>2021-08-11T10:00:01.448Z</time>
      </trkpt>
      <trkpt lat="46.87357" lon="8.51926">
        <ele>1641</ele>
        <time>2021-08-11T10:00:02.448Z</time>
      </trkpt>
      <trkpt lat="46.87356" lon="8.51925">
        <ele>1642</ele>
        <time>2021-08-11T10:00:03.449Z</time>
      </trkpt>
      <trkpt lat="46.87355" lon="8.51924">
        <ele>1642</ele>
        <time>2021-08-11T10:00:04.448Z</time>
      </trkpt>
      <trkpt lat="46.87354" lon="8.51922">
        <ele>1642</ele>
        <time>2021-08-11T10:00:05.448Z</time>
      </trkpt>
      <trkpt lat="46.87353" lon="8.51919">
        <ele>1642</ele>
        <time>2021-08-11T10:00:06.448Z</time>
      </trkpt>
      <trkpt lat="46.87352" lon="8.51918">
        <ele>1643</ele>
        <time>2021-08-11T10:00:07.448Z</time>
      </trkpt>
      <trkpt lat="46.87351" lon="8.51916">
        <ele>1643</ele>
        <time>2021-08-11T10:00:08.449Z</time>
      </trkpt>
      <trkpt lat="46.8735" lon="8.51915">
        <ele>1643</ele>
        <time>2021-08-11T10:00:09.448Z</time>
      </trkpt>
      <trkpt lat="46.87349" lon="8.51913">
        <ele>1643</ele>
        <time>2021-08-11T10:00:10.448Z</time>
      </trkpt>
      <trkpt lat="46.87349" lon="8.51911">
        <ele>1643</ele>
        <time>2021-08-11T10:00:11.448Z</time>
      </trkpt>
      <trkpt lat="46.87348" lon="8.5191">
        <ele>1642</ele>
        <time>2021-08-11T10:00:12.448Z</time>
      </trkpt>
      <trkpt lat="46.87347" lon="8.51908">
        <ele>1641</ele>
        <time>2021-08-11T10:00:13.449Z</time>
      </trkpt>
      <trkpt lat="46.87346" lon="8.51907">
        <ele>1641</ele>
        <time>2021-08-11T10:00:14.448Z</time>
      </trkpt>
      <trkpt lat="46.87346" lon="8.51905">
        <ele>1640</ele>
        <time>2021-08-11T10:00:15.449Z</time>
      </trkpt>
      <trkpt lat="46.87345" lon="8.51903">
        <ele>1640</ele>
        <time>2021-08-11T10:00:16.448Z</time>
      </trkpt>
      <trkpt lat="46.87344" lon="8.51902">
        <ele>1639</ele>
        <time>2021-08-11T10:00:17.448Z</time>
      </trkpt>
      <trkpt lat="46.87343" lon="8.519">
        <ele>1640</ele>
        <time>2021-08-11T10:00:18.449Z</time>
      </trkpt>
      <trkpt lat="46.87343" lon="8.51899">
        <ele>1640</ele>
        <time>2021-08-11T10:00:19.448Z</time>
      </trkpt>
      <trkpt lat="46.87341" lon="8.51897">
        <ele>1640</ele>
        <time>2021-08-11T10:00:20.448Z</time>
      </trkpt>
      <trkpt lat="46.87341" lon="8.51895">
        <ele>1639</ele>
        <time>2021-08-11T10:00:21.449Z</time>
      </trkpt>
      <trkpt lat="46.8734" lon="8.51893">
        <ele>1640</ele>
        <time>2021-08-11T10:00:22.449Z</time>
      </trkpt>
      <trkpt lat="46.87338" lon="8.51891">
        <ele>1640</ele>
        <time>2021-08-11T10:00:23.449Z</time>
      </trkpt>
      <trkpt lat="46.87337" lon="8.51888">
        <ele>1640</ele>
        <time>2021-08-11T10:00:24.448Z</time>
      </trkpt>
      <trkpt lat="46.87336" lon="8.51887">
        <ele>1641</ele>
        <time>2021-08-11T10:00:25.448Z</time>
      </trkpt>
      <trkpt lat="46.87335" lon="8.51885">
        <ele>1641</ele>
        <time>2021-08-11T10:00:26.448Z</time>
      </trkpt>
      <trkpt lat="46.87334" lon="8.51884">
        <ele>1641</ele>
        <time>2021-08-11T10:00:27.449Z</time>
      </trkpt>
      <trkpt lat="46.87334" lon="8.51883">
        <ele>1641</ele>
        <time>2021-08-11T10:00:28.448Z</time>
      </trkpt>
      <trkpt lat="46.87333" lon="8.51883">
        <ele>1641</ele>
        <time>2021-08-11T10:00:29.448Z</time>
      </trkpt>
      <trkpt lat="46.87332" lon="8.51881">
        <ele>1641</ele>
        <time>2021-08-11T10:00:30.448Z</time>
      </trkpt>
      <trkpt lat="46.87332" lon="8.5188">
        <ele>1641</ele>
        <time>2021-08-11T10:00:31.448Z</time>
      </trkpt>
      <trkpt lat="46.87331" lon="8.51878">
        <ele>1641</ele>
        <time>2021-08-11T10:00:32.449Z</time>
      </trkpt>
      <trkpt lat="46.87331" lon="8.51877">
        <ele>1641</ele>
        <time>2021-08-11T10:00:33.449Z</time>
      </trkpt>
      <trkpt lat="46.8733" lon="8.51875">
        <ele>1641</ele>
        <time>2021-08-11T10:00:34.448Z</time>
      </trkpt>
      <trkpt lat="46.87329" lon="8.51874">
        <ele>1641</ele>
        <time>2021-08-11T10:00:35.448Z</time>
      </trkpt>
      <trkpt lat="46.87328" lon="8.51872">
        <ele>1641</ele>
        <time>2021-08-11T10:00:36.448Z</time>
      </trkpt>
      <trkpt lat="46.87327" lon="8.51871">
        <ele>1641</ele>
        <time>2021-08-11T10:00:37.449Z</time>
      </trkpt>
      <trkpt lat="46.87326" lon="8.5187">
        <ele>1640</ele>
        <time>2021-08-11T10:00:38.449Z</time>
      </trkpt>
      <trkpt lat="46.87325" lon="8.51868">
        <ele>1640</ele>
        <time>2021-08-11T10:00:39.448Z</time>
      </trkpt>
      <trkpt lat="46.87325" lon="8.51866">
        <ele>1640</ele>
        <time>2021-08-11T10:00:40.449Z</time>
      </trkpt>
      <trkpt lat="46.87324" lon="8.51865">
        <ele>1640</ele>
        <time>2021-08-11T10:00:41.448Z</time>
      </trkpt>
      <trkpt lat="46.87323" lon="8.51864">
        <ele>1640</ele>
        <time>2021-08-11T10:00:42.449Z</time>
      </trkpt>
      <trkpt lat="46.87323" lon="8.51863">
        <ele>1640</ele>
        <time>2021-08-11T10:00:43.448Z</time>
      </trkpt>
      <trkpt lat="46.87322" lon="8.51861">
        <ele>1639</ele>
        <time>2021-08-11T10:00:44.448Z</time>
      </trkpt>
      <trkpt lat="46.87321" lon="8.5186">
        <ele>1639</ele>
        <time>2021-08-11T10:00:45.449Z</time>
      </trkpt>
      <trkpt lat="46.8732" lon="8.51858">
        <ele>1638</ele>
        <time>2021-08-11T10:00:46.448Z</time>
      </trkpt>
      <trkpt lat="46.87319" lon="8.51857">
        <ele>1638</ele>
        <time>2021-08-11T10:00:47.449Z</time>
      </trkpt>
      <trkpt lat="46.87319" lon="8.51855">
        <ele>1637</ele>
        <time>2021-08-11T10:00:48.448Z</time>
      </trkpt>
      <trkpt lat="46.87318" lon="8.51854">
        <ele>1637</ele>
        <time>2021-08-11T10:00:49.448Z</time>
      </trkpt>
      <trkpt lat="46.87317" lon="8.51852">
        <ele>1636</ele>
        <time>2021-08-11T10:00:50.448Z</time>
      </trkpt>
      <trkpt lat="46.87316" lon="8.51851">
        <ele>1636</ele>
        <time>2021-08-11T10:00:51.448Z</time>
      </trkpt>
      <trkpt lat="46.87315" lon="8.5185">
        <ele>1637</ele>
        <time>2021-08-11T10:00:52.449Z</time>
      </trkpt>
      <trkpt lat="46.87314" lon="8.51849">
        <ele>1637</ele>
        <time>2021-08-11T10:00:53.449Z</time>
      </trkpt>
      <trkpt lat="46.87314" lon="8.51848">
        <ele>1637</ele>
        <time>2021-08-11T10:00:54.448Z</time>
      </trkpt>
      <trkpt lat="46.87313" lon="8.51847">
        <ele>1637</ele>
        <time>2021-08-11T10:00:55.448Z</time>
      </trkpt>
      <trkpt lat="46.87313" lon="8.51846">
        <ele>1637</ele>
        <time>2021-08-11T10:00:56.448Z</time>
      </trkpt>
      <trkpt lat="46.87313" lon="8.51845">
        <ele>1637</ele>
        <time>2021-08-11T10:00:57.449Z</time>
      </trkpt>
      <trkpt lat="46.87313" lon="8.51844">
        <ele>1637</ele>
        <time>2021-08-11T10:00:58.449Z</time>
      </trkpt>
      <trkpt lat="46.87312" lon="8.51842">
        <ele>1637</ele>
        <time>2021-08-11T10:00:59.448Z</time>
      </trkpt>
      <trkpt lat="46.87312" lon="8.5184">
        <ele>1637</ele>
        <time>2021-08-11T10:01:00.448Z</time>
      </trkpt>
      <trkpt lat="46.87311" lon="8.51839">
        <ele>1637</ele>
        <time>2021-08-11T10:01:01.448Z</time>
      </trkpt>
      <trkpt lat="46.87311" lon="8.51837">
        <ele>1636</ele>
        <time>2021-08-11T10:01:02.448Z</time>
      </trkpt>
      <trkpt lat="46.8731" lon="8.51836">
        <ele>1636</ele>
        <time>2021-08-11T10:01:03.448Z</time>
      </trkpt>
      <trkpt lat="46.8731" lon="8.51835">
        <ele>1636</ele>
        <time>2021-08-11T10:01:04.448Z</time>
      </trkpt>
      <trkpt lat="46.87309" lon="8.51834">
        <ele>1636</ele>
        <time>2021-08-11T10:01:05.448Z</time>
      </trkpt>
      <trkpt lat="46.87309" lon="8.51832">
        <ele>1636</ele>
        <time>2021-08-11T10:01:06.448Z</time>
      </trkpt>
      <trkpt lat="46.87308" lon="8.51831">
        <ele>1636</ele>
        <time>2021-08-11T10:01:07.448Z</time>
      </trkpt>
      <trkpt lat="46.87308" lon="8.51829">
        <ele>1636</ele>
        <time>2021-08-11T10:01:08.448Z</time>
      </trkpt>
      <trkpt lat="46.87307" lon="8.51828">
        <ele>1636</ele>
        <time>2021-08-11T10:01:09.449Z</time>
      </trkpt>
      <trkpt lat="46.87306" lon="8.51826">
        <ele>1636</ele>
        <time>2021-08-11T10:01:10.448Z</time>
      </trkpt>
      <trkpt lat="46.87306" lon="8.51824">
        <ele>1636</ele>
        <time>2021-08-11T10:01:11.449Z</time>
      </trkpt>
      <trkpt lat="46.87305" lon="8.51823">
        <ele>1636</ele>
        <time>2021-08-11T10:01:12.449Z</time>
      </trkpt>
      <trkpt lat="46.87304" lon="8.51821">
        <ele>1637</ele>
        <time>2021-08-11T10:01:13.449Z</time>
      </trkpt>
      <trkpt lat="46.87303" lon="8.5182">
        <ele>1637</ele>
        <time>2021-08-11T10:01:14.448Z</time>
      </trkpt>
      <trkpt lat="46.87303" lon="8.51818">
        <ele>1638</ele>
        <time>2021-08-11T10:01:15.449Z</time>
      </trkpt>
      <trkpt lat="46.87302" lon="8.51817">
        <ele>1638</ele>
        <time>2021-08-11T10:01:16.449Z</time>
      </trkpt>
      <trkpt lat="46.87301" lon="8.51815">
        <ele>1639</ele>
        <time>2021-08-11T10:01:17.448Z</time>
      </trkpt>
      <trkpt lat="46.87301" lon="8.51813">
        <ele>1639</ele>
        <time>2021-08-11T10:01:18.449Z</time>
      </trkpt>
      <trkpt lat="46.873" lon="8.51812">
        <ele>1640</ele>
        <time>2021-08-11T10:01:19.449Z</time>
      </trkpt>
      <trkpt lat="46.873" lon="8.5181">
        <ele>1640</ele>
        <time>2021-08-11T10:01:20.449Z</time>
      </trkpt>
      <trkpt lat="46.873" lon="8.51809">
        <ele>1640</ele>
        <time>2021-08-11T10:01:21.449Z</time>
      </trkpt>
      <trkpt lat="46.873" lon="8.51808">
        <ele>1640</ele>
        <time>2021-08-11T10:01:22.449Z</time>
      </trkpt>
      <trkpt lat="46.873" lon="8.51806">
        <ele>1641</ele>
        <time>2021-08-11T10:01:23.449Z</time>
      </trkpt>
      <trkpt lat="46.873" lon="8.51804">
        <ele>1641</ele>
        <time>2021-08-11T10:01:24.449Z</time>
      </trkpt>
      <trkpt lat="46.873" lon="8.51802">
        <ele>1641</ele>
        <time>2021-08-11T10:01:25.449Z</time>
      </trkpt>
      <trkpt lat="46.87301" lon="8.518">
        <ele>1642</ele>
        <time>2021-08-11T10:01:26.448Z</time>
      </trkpt>
      <trkpt lat="46.87301" lon="8.51799">
        <ele>1642</ele>
        <time>2021-08-11T10:01:27.449Z</time>
      </trkpt>
      <trkpt lat="46.87301" lon="8.51797">
        <ele>1642</ele>
        <time>2021-08-11T10:01:28.448Z</time>
      </trkpt>
      <trkpt lat="46.873" lon="8.51796">
        <ele>1642</ele>
        <time>2021-08-11T10:01:29.449Z</time>
      </trkpt>
      <trkpt lat="46.873" lon="8.51795">
        <ele>1642</ele>
        <time>2021-08-11T10:01:30.449Z</time>
      </trkpt>
      <trkpt lat="46.87299" lon="8.51794">
        <ele>1641</ele>
        <time>2021-08-11T10:01:31.448Z</time>
      </trkpt>
      <trkpt lat="46.87298" lon="8.51794">
        <ele>1641</ele>
        <time>2021-08-11T10:01:32.449Z</time>
      </trkpt>
      <trkpt lat="46.87298" lon="8.51792">
        <ele>1640</ele>
        <time>2021-08-11T10:01:33.448Z</time>
      </trkpt>
      <trkpt lat="46.87297" lon="8.51791">
        <ele>1639</ele>
        <time>2021-08-11T10:01:34.449Z</time>
      </trkpt>
      <trkpt lat="46.87297" lon="8.51791">
        <ele>1639</ele>
        <time>2021-08-11T10:01:35.448Z</time>
      </trkpt>
      <trkpt lat="46.87296" lon="8.5179">
        <ele>1639</ele>
        <time>2021-08-11T10:01:36.449Z</time>
      </trkpt>
      <trkpt lat="46.87296" lon="8.51789">
        <ele>1639</ele>
        <time>2021-08-11T10:01:37.449Z</time>
      </trkpt>
      <trkpt lat="46.87295" lon="8.51788">
        <ele>1638</ele>
        <time>2021-08-11T10:01:38.449Z</time>
      </trkpt>
      <trkpt lat="46.87295" lon="8.51788">
        <ele>1637</ele>
        <time>2021-08-11T10:01:39.449Z</time>
      </trkpt>
      <trkpt lat="46.87295" lon="8.51787">
        <ele>1637</ele>
        <time>2021-08-11T10:01:40.448Z</time>
      </trkpt>
      <trkpt lat="46.87295" lon="8.51786">
        <ele>1637</ele>
        <time>2021-08-11T10:01:41.449Z</time>
      </trkpt>
      <trkpt lat="46.87295" lon="8.51785">
        <ele>1637</ele>
        <time>2021-08-11T10:01:42.449Z</time>
      </trkpt>
      <trkpt lat="46.87296" lon="8.51783">
        <ele>1637</ele>
        <time>2021-08-11T10:01:43.449Z</time>
      </trkpt>
      <trkpt lat="46.87296" lon="8.51782">
        <ele>1637</ele>
        <time>2021-08-11T10:01:44.448Z</time>
      </trkpt>
      <trkpt lat="46.87295" lon="8.51781">
        <ele>1637</ele>
        <time>2021-08-11T10:01:45.448Z</time>
      </trkpt>
      <trkpt lat="46.87294" lon="8.51781">
        <ele>1637</ele>
        <time>2021-08-11T10:01:46.449Z</time>
      </trkpt>
      <trkpt lat="46.87293" lon="8.51781">
        <ele>1637</ele>
        <time>2021-08-11T10:01:47.449Z</time>
      </trkpt>
      <trkpt lat="46.87293" lon="8.5178">
        <ele>1638</ele>
        <time>2021-08-11T10:01:48.449Z</time>
      </trkpt>
      <trkpt lat="46.87293" lon="8.51779">
        <ele>1638</ele>
        <time>2021-08-11T10:01:49.448Z</time>
      </trkpt>
      <trkpt lat="46.87293" lon="8.51778">
        <ele>1638</ele>
        <time>2021-08-11T10:01:50.449Z</time>
      </trkpt>
      <trkpt lat="46.87293" lon="8.51777">
        <ele>1639</ele>
        <time>2021-08-11T10:01:51.448Z</time>
      </trkpt>
      <trkpt lat="46.87292" lon="8.51776">
        <ele>1639</ele>
        <time>2021-08-11T10:01:52.448Z</time>
      </trkpt>
      <trkpt lat="46.87291" lon="8.51775">
        <ele>1639</ele>
        <time>2021-08-11T10:01:53.449Z</time>
      </trkpt>
      <trkpt lat="46.87291" lon="8.51775">
        <ele>1639</ele>
        <time>2021-08-11T10:01:54.449Z</time>
      </trkpt>
      <trkpt lat="46.87291" lon="8.51774">
        <ele>1639</ele>
        <time>2021-08-11T10:01:55.448Z</time>
      </trkpt>
      <trkpt lat="46.87291" lon="8.51772">
        <ele>1640</ele>
        <time>2021-08-11T10:01:56.449Z</time>
      </trkpt>
      <trkpt lat="46.87291" lon="8.5177">
        <ele>1640</ele>
        <time>2021-08-11T10:01:57.448Z</time>
      </trkpt>
      <trkpt lat="46.8729" lon="8.51769">
        <ele>1640</ele>
        <time>2021-08-11T10:01:58.449Z</time>
      </trkpt>
      <trkpt lat="46.87289" lon="8.51767">
        <ele>1640</ele>
        <time>2021-08-11T10:01:59.448Z</time>
      </trkpt>
      <trkpt lat="46.87288" lon="8.51766">
        <ele>1640</ele>
        <time>2021-08-11T10:02:00.448Z</time>
      </trkpt>
      <trkpt lat="46.87287" lon="8.51766">
        <ele>1639</ele>
        <time>2021-08-11T10:02:01.449Z</time>
      </trkpt>
      <trkpt lat="46.87286" lon="8.51766">
        <ele>1639</ele>
        <time>2021-08-11T10:02:02.449Z</time>
      </trkpt>
      <trkpt lat="46.87285" lon="8.51766">
        <ele>1638</ele>
        <time>2021-08-11T10:02:03.449Z</time>
      </trkpt>
      <trkpt lat="46.87285" lon="8.51765">
        <ele>1638</ele>
        <time>2021-08-11T10:02:04.448Z</time>
      </trkpt>
      <trkpt lat="46.87285" lon="8.51764">
        <ele>1638</ele>
        <time>2021-08-11T10:02:05.449Z</time>
      </trkpt>
      <trkpt lat="46.87285" lon="8.51763">
        <ele>1638</ele>
        <time>2021-08-11T10:02:06.449Z</time>
      </trkpt>
      <trkpt lat="46.87284" lon="8.51762">
        <ele>1638</ele>
        <time>2021-08-11T10:02:07.449Z</time>
      </trkpt>
      <trkpt lat="46.87284" lon="8.51761">
        <ele>1638</ele>
        <time>2021-08-11T10:02:08.449Z</time>
      </trkpt>
      <trkpt lat="46.87284" lon="8.5176">
        <ele>1638</ele>
        <time>2021-08-11T10:02:09.448Z</time>
      </trkpt>
      <trkpt lat="46.87284" lon="8.5176">
        <ele>1639</ele>
        <time>2021-08-11T10:02:10.449Z</time>
      </trkpt>
      <trkpt lat="46.87284" lon="8.51759">
        <ele>1639</ele>
        <time>2021-08-11T10:02:11.449Z</time>
      </trkpt>
      <trkpt lat="46.87284" lon="8.51758">
        <ele>1639</ele>
        <time>2021-08-11T10:02:12.449Z</time>
      </trkpt>
      <trkpt lat="46.87284" lon="8.51758">
        <ele>1639</ele>
        <time>2021-08-11T10:02:13.448Z</time>
      </trkpt>
      <trkpt lat="46.87284" lon="8.51757">
        <ele>1640</ele>
        <time>2021-08-11T10:02:14.449Z</time>
      </trkpt>
      <trkpt lat="46.87283" lon="8.51757">
        <ele>1640</ele>
        <time>2021-08-11T10:02:15.449Z</time>
      </trkpt>
      <trkpt lat="46.87281" lon="8.51758">
        <ele>1641</ele>
        <time>2021-08-11T10:02:16.450Z</time>
      </trkpt>
      <trkpt lat="46.87281" lon="8.51756">
        <ele>1641</ele>
        <time>2021-08-11T10:02:17.449Z</time>
      </trkpt>
      <trkpt lat="46.87281" lon="8.51756">
        <ele>1642</ele>
        <time>2021-08-11T10:02:18.449Z</time>
      </trkpt>
      <trkpt lat="46.87281" lon="8.51747">
        <ele>1649</ele>
        <time>2021-08-11T10:02:19.450Z</time>
      </trkpt>
      <trkpt lat="46.87281" lon="8.51747">
        <ele>1649</ele>
        <time>2021-08-11T10:02:20.451Z</time>
      </trkpt>
      <trkpt lat="46.87277" lon="8.51758">
        <ele>1649</ele>
        <time>2021-08-11T10:02:21.451Z</time>
      </trkpt>
      <trkpt lat="46.8728" lon="8.51758">
        <ele>1646</ele>
        <time>2021-08-11T10:02:22.451Z</time>
      </trkpt>
      <trkpt lat="46.87278" lon="8.51758">
        <ele>1645</ele>
        <time>2021-08-11T10:02:23.450Z</time>
      </trkpt>
      <trkpt lat="46.87277" lon="8.51759">
        <ele>1643</ele>
        <time>2021-08-11T10:02:24.450Z</time>
      </trkpt>
      <trkpt lat="46.87276" lon="8.51759">
        <ele>1643</ele>
        <time>2021-08-11T10:02:25.451Z</time>
      </trkpt>
      <trkpt lat="46.87277" lon="8.51759">
        <ele>1642</ele>
        <time>2021-08-11T10:02:26.450Z</time>
      </trkpt>
      <trkpt lat="46.87279" lon="8.51756">
        <ele>1642</ele>
        <time>2021-08-11T10:02:27.451Z</time>
      </trkpt>
      <trkpt lat="46.87279" lon="8.51755">
        <ele>1642</ele>
        <time>2021-08-11T10:02:28.451Z</time>
      </trkpt>
      <trkpt lat="46.87279" lon="8.51755">
        <ele>1641</ele>
        <time>2021-08-11T10:02:29.451Z</time>
      </trkpt>
      <trkpt lat="46.87279" lon="8.51755">
        <ele>1641</ele>
        <time>2021-08-11T10:02:30.451Z</time>
      </trkpt>
      <trkpt lat="46.87281" lon="8.51754">
        <ele>1639</ele>
        <time>2021-08-11T10:02:31.452Z</time>
      </trkpt>
      <trkpt lat="46.87281" lon="8.51754">
        <ele>1639</ele>
        <time>2021-08-11T10:02:32.451Z</time>
      </trkpt>
      <trkpt lat="46.87281" lon="8.51753">
        <ele>1640</ele>
        <time>2021-08-11T10:02:33.451Z</time>
      </trkpt>
      <trkpt lat="46.87282" lon="8.51752">
        <ele>1640</ele>
        <time>2021-08-11T10:02:34.451Z</time>
      </trkpt>
      <trkpt lat="46.87282" lon="8.51751">
        <ele>1640</ele>
        <time>2021-08-11T10:02:35.451Z</time>
      </trkpt>
      <trkpt lat="46.87282" lon="8.5175">
        <ele>1640</ele>
        <time>2021-08-11T10:02:36.452Z</time>
      </trkpt>
      <trkpt lat="46.87282" lon="8.51749">
        <ele>1640</ele>
        <time>2021-08-11T10:02:37.451Z</time>
      </trkpt>
      <trkpt lat="46.87282" lon="8.51748">
        <ele>1640</ele>
        <time>2021-08-11T10:02:38.451Z</time>
      </trkpt>
      <trkpt lat="46.87282" lon="8.51747">
        <ele>1640</ele>
        <time>2021-08-11T10:02:39.451Z</time>
      </trkpt>
      <trkpt lat="46.87282" lon="8.51746">
        <ele>1640</ele>
        <time>2021-08-11T10:02:40.452Z</time>
      </trkpt>
      <trkpt lat="46.87281" lon="8.51744">
        <ele>1640</ele>
        <time>2021-08-11T10:02:41.451Z</time>
      </trkpt>
      <trkpt lat="46.87281" lon="8.51743">
        <ele>1640</ele>
        <time>2021-08-11T10:02:42.451Z</time>
      </trkpt>
      <trkpt lat="46.8728" lon="8.51741">
        <ele>1641</ele>
        <time>2021-08-11T10:02:43.451Z</time>
      </trkpt>
      <trkpt lat="46.8728" lon="8.5174">
        <ele>1642</ele>
        <time>2021-08-11T10:02:44.451Z</time>
      </trkpt>
      <trkpt lat="46.87279" lon="8.51738">
        <ele>1642</ele>
        <time>2021-08-11T10:02:45.451Z</time>
      </trkpt>
      <trkpt lat="46.87278" lon="8.51737">
        <ele>1643</ele>
        <time>2021-08-11T10:02:46.451Z</time>
      </trkpt>
      <trkpt lat="46.87278" lon="8.51737">
        <ele>1643</ele>
        <time>2021-08-11T10:02:47.451Z</time>
      </trkpt>
      <trkpt lat="46.87277" lon="8.51735">
        <ele>1644</ele>
        <time>2021-08-11T10:02:48.451Z</time>
      </trkpt>
      <trkpt lat="46.87276" lon="8.51734">
        <ele>1644</ele>
        <time>2021-08-11T10:02:49.452Z</time>
      </trkpt>
      <trkpt lat="46.87276" lon="8.51733">
        <ele>1644</ele>
        <time>2021-08-11T10:02:50.452Z</time>
      </trkpt>
      <trkpt lat="46.87275" lon="8.51732">
        <ele>1644</ele>
        <time>2021-08-11T10:02:51.452Z</time>
      </trkpt>
      <trkpt lat="46.87275" lon="8.51731">
        <ele>1644</ele>
        <time>2021-08-11T10:02:52.451Z</time>
      </trkpt>
      <trkpt lat="46.87274" lon="8.5173">
        <ele>1644</ele>
        <time>2021-08-11T10:02:53.451Z</time>
      </trkpt>
      <trkpt lat="46.87274" lon="8.51729">
        <ele>1644</ele>
        <time>2021-08-11T10:02:54.451Z</time>
      </trkpt>
      <trkpt lat="46.87273" lon="8.51729">
        <ele>1643</ele>
        <time>2021-08-11T10:02:55.451Z</time>
      </trkpt>
      <trkpt lat="46.87272" lon="8.51728">
        <ele>1643</ele>
        <time>2021-08-11T10:02:56.451Z</time>
      </trkpt>
      <trkpt lat="46.87272" lon="8.51727">
        <ele>1643</ele>
        <time>2021-08-11T10:02:57.451Z</time>
      </trkpt>
      <trkpt lat="46.87271" lon="8.51727">
        <ele>1643</ele>
        <time>2021-08-11T10:02:58.452Z</time>
      </trkpt>
      <trkpt lat="46.87271" lon="8.51727">
        <ele>1643</ele>
        <time>2021-08-11T10:02:59.452Z</time>
      </trkpt>
      <trkpt lat="46.87271" lon="8.51727">
        <ele>1643</ele>
        <time>2021-08-11T10:03:00.452Z</time>
      </trkpt>
      <trkpt lat="46.8727" lon="8.51727">
        <ele>1643</ele>
        <time>2021-08-11T10:03:01.451Z</time>
      </trkpt>
      <trkpt lat="46.8727" lon="8.51728">
        <ele>1643</ele>
        <time>2021-08-11T10:03:02.452Z</time>
      </trkpt>
      <trkpt lat="46.87269" lon="8.51728">
        <ele>1643</ele>
        <time>2021-08-11T10:03:03.452Z</time>
      </trkpt>
      <trkpt lat="46.87269" lon="8.51729">
        <ele>1643</ele>
        <time>2021-08-11T10:03:04.451Z</time>
      </trkpt>
      <trkpt lat="46.87269" lon="8.5173">
        <ele>1643</ele>
        <time>2021-08-11T10:03:05.451Z</time>
      </trkpt>
      <trkpt lat="46.87271" lon="8.51727">
        <ele>1644</ele>
        <time>2021-08-11T10:03:06.452Z</time>
      </trkpt>
      <trkpt lat="46.87271" lon="8.51726">
        <ele>1644</ele>
        <time>2021-08-11T10:03:07.451Z</time>
      </trkpt>
      <trkpt lat="46.87271" lon="8.51725">
        <ele>1644</ele>
        <time>2021-08-11T10:03:08.452Z</time>
      </trkpt>
      <trkpt lat="46.8727" lon="8.51724">
        <ele>1644</ele>
        <time>2021-08-11T10:03:09.452Z</time>
      </trkpt>
      <trkpt lat="46.8727" lon="8.51723">
        <ele>1643</ele>
        <time>2021-08-11T10:03:10.451Z</time>
      </trkpt>
      <trkpt lat="46.8727" lon="8.51722">
        <ele>1643</ele>
        <time>2021-08-11T10:03:11.452Z</time>
      </trkpt>
      <trkpt lat="46.8727" lon="8.51722">
        <ele>1642</ele>
        <time>2021-08-11T10:03:12.452Z</time>
      </trkpt>
      <trkpt lat="46.8727" lon="8.51721">
        <ele>1642</ele>
        <time>2021-08-11T10:03:13.451Z</time>
      </trkpt>
      <trkpt lat="46.8727" lon="8.5172">
        <ele>1641</ele>
        <time>2021-08-11T10:03:14.452Z</time>
      </trkpt>
      <trkpt lat="46.8727" lon="8.51719">
        <ele>1641</ele>
        <time>2021-08-11T10:03:15.451Z</time>
      </trkpt>
      <trkpt lat="46.8727" lon="8.51718">
        <ele>1640</ele>
        <time>2021-08-11T10:03:16.452Z</time>
      </trkpt>
      <trkpt lat="46.87269" lon="8.51717">
        <ele>1640</ele>
        <time>2021-08-11T10:03:17.452Z</time>
      </trkpt>
      <trkpt lat="46.87269" lon="8.51716">
        <ele>1639</ele>
        <time>2021-08-11T10:03:18.452Z</time>
      </trkpt>
      <trkpt lat="46.87269" lon="8.51715">
        <ele>1639</ele>
        <time>2021-08-11T10:03:19.452Z</time>
      </trkpt>
      <trkpt lat="46.87269" lon="8.51714">
        <ele>1639</ele>
        <time>2021-08-11T10:03:20.452Z</time>
      </trkpt>
      <trkpt lat="46.87268" lon="8.51714">
        <ele>1639</ele>
        <time>2021-08-11T10:03:21.452Z</time>
      </trkpt>
      <trkpt lat="46.87267" lon="8.51711">
        <ele>1642</ele>
        <time>2021-08-11T10:03:22.453Z</time>
      </trkpt>
      <trkpt lat="46.87267" lon="8.51711">
        <ele>1643</ele>
        <time>2021-08-11T10:03:23.453Z</time>
      </trkpt>
      <trkpt lat="46.87267" lon="8.5171">
        <ele>1643</ele>
        <time>2021-08-11T10:03:24.452Z</time>
      </trkpt>
      <trkpt lat="46.87266" lon="8.51709">
        <ele>1646</ele>
        <time>2021-08-11T10:03:25.454Z</time>
      </trkpt>
      <trkpt lat="46.87266" lon="8.51708">
        <ele>1646</ele>
        <time>2021-08-11T10:03:26.454Z</time>
      </trkpt>
      <trkpt lat="46.87265" lon="8.51707">
        <ele>1646</ele>
        <time>2021-08-11T10:03:27.453Z</time>
      </trkpt>
      <trkpt lat="46.87264" lon="8.51706">
        <ele>1645</ele>
        <time>2021-08-11T10:03:28.454Z</time>
      </trkpt>
      <trkpt lat="46.87264" lon="8.51705">
        <ele>1645</ele>
        <time>2021-08-11T10:03:29.454Z</time>
      </trkpt>
      <trkpt lat="46.87263" lon="8.51705">
        <ele>1645</ele>
        <time>2021-08-11T10:03:30.454Z</time>
      </trkpt>
      <trkpt lat="46.87263" lon="8.51703">
        <ele>1645</ele>
        <time>2021-08-11T10:03:31.453Z</time>
      </trkpt>
      <trkpt lat="46.87262" lon="8.51702">
        <ele>1645</ele>
        <time>2021-08-11T10:03:32.453Z</time>
      </trkpt>
      <trkpt lat="46.87261" lon="8.51701">
        <ele>1645</ele>
        <time>2021-08-11T10:03:33.454Z</time>
      </trkpt>
      <trkpt lat="46.8726" lon="8.517">
        <ele>1644</ele>
        <time>2021-08-11T10:03:34.454Z</time>
      </trkpt>
      <trkpt lat="46.8726" lon="8.51699">
        <ele>1644</ele>
        <time>2021-08-11T10:03:35.454Z</time>
      </trkpt>
      <trkpt lat="46.87259" lon="8.51697">
        <ele>1643</ele>
        <time>2021-08-11T10:03:36.453Z</time>
      </trkpt>
      <trkpt lat="46.87258" lon="8.51696">
        <ele>1643</ele>
        <time>2021-08-11T10:03:37.454Z</time>
      </trkpt>
      <trkpt lat="46.87258" lon="8.51695">
        <ele>1643</ele>
        <time>2021-08-11T10:03:38.453Z</time>
      </trkpt>
      <trkpt lat="46.87257" lon="8.51695">
        <ele>1643</ele>
        <time>2021-08-11T10:03:39.454Z</time>
      </trkpt>
      <trkpt lat="46.87256" lon="8.51694">
        <ele>1642</ele>
        <time>2021-08-11T10:03:40.454Z</time>
      </trkpt>
      <trkpt lat="46.87255" lon="8.51693">
        <ele>1642</ele>
        <time>2021-08-11T10:03:41.454Z</time>
      </trkpt>
      <trkpt lat="46.87255" lon="8.51692">
        <ele>1641</ele>
        <time>2021-08-11T10:03:42.454Z</time>
      </trkpt>
      <trkpt lat="46.87254" lon="8.51692">
        <ele>1640</ele>
        <time>2021-08-11T10:03:43.453Z</time>
      </trkpt>
      <trkpt lat="46.87253" lon="8.51691">
        <ele>1639</ele>
        <time>2021-08-11T10:03:44.454Z</time>
      </trkpt>
      <trkpt lat="46.87252" lon="8.5169">
        <ele>1638</ele>
        <time>2021-08-11T10:03:45.454Z</time>
      </trkpt>
      <trkpt lat="46.87252" lon="8.51689">
        <ele>1638</ele>
        <time>2021-08-11T10:03:46.454Z</time>
      </trkpt>
      <trkpt lat="46.87251" lon="8.51689">
        <ele>1637</ele>
        <time>2021-08-11T10:03:47.454Z</time>
      </trkpt>
      <trkpt lat="46.87251" lon="8.5169">
        <ele>1637</ele>
        <time>2021-08-11T10:03:48.453Z</time>
      </trkpt>
      <trkpt lat="46.8725" lon="8.5169">
        <ele>1637</ele>
        <time>2021-08-11T10:03:49.454Z</time>
      </trkpt>
      <trkpt lat="46.8725" lon="8.51689">
        <ele>1637</ele>
        <time>2021-08-11T10:03:50.454Z</time>
      </trkpt>
      <trkpt lat="46.87249" lon="8.51688">
        <ele>1637</ele>
        <time>2021-08-11T10:03:51.453Z</time>
      </trkpt>
      <trkpt lat="46.87248" lon="8.51686">
        <ele>1637</ele>
        <time>2021-08-11T10:03:52.454Z</time>
      </trkpt>
      <trkpt lat="46.87247" lon="8.51686">
        <ele>1638</ele>
        <time>2021-08-11T10:03:53.454Z</time>
      </trkpt>
      <trkpt lat="46.87247" lon="8.51685">
        <ele>1638</ele>
        <time>2021-08-11T10:03:54.453Z</time>
      </trkpt>
      <trkpt lat="46.87246" lon="8.51683">
        <ele>1638</ele>
        <time>2021-08-11T10:03:55.454Z</time>
      </trkpt>
      <trkpt lat="46.87246" lon="8.51683">
        <ele>1639</ele>
        <time>2021-08-11T10:03:56.454Z</time>
      </trkpt>
      <trkpt lat="46.87245" lon="8.51683">
        <ele>1639</ele>
        <time>2021-08-11T10:03:57.454Z</time>
      </trkpt>
      <trkpt lat="46.87244" lon="8.51683">
        <ele>1639</ele>
        <time>2021-08-11T10:03:58.454Z</time>
      </trkpt>
      <trkpt lat="46.87243" lon="8.51682">
        <ele>1640</ele>
        <time>2021-08-11T10:03:59.454Z</time>
      </trkpt>
      <trkpt lat="46.87243" lon="8.51681">
        <ele>1640</ele>
        <time>2021-08-11T10:04:00.454Z</time>
      </trkpt>
      <trkpt lat="46.87241" lon="8.5168">
        <ele>1640</ele>
        <time>2021-08-11T10:04:01.454Z</time>
      </trkpt>
      <trkpt lat="46.87241" lon="8.5168">
        <ele>1640</ele>
        <time>2021-08-11T10:04:02.454Z</time>
      </trkpt>
      <trkpt lat="46.87239" lon="8.5168">
        <ele>1641</ele>
        <time>2021-08-11T10:04:03.454Z</time>
      </trkpt>
      <trkpt lat="46.87238" lon="8.51679">
        <ele>1641</ele>
        <time>2021-08-11T10:04:04.454Z</time>
      </trkpt>
      <trkpt lat="46.87237" lon="8.5168">
        <ele>1641</ele>
        <time>2021-08-11T10:04:05.454Z</time>
      </trkpt>
      <trkpt lat="46.87236" lon="8.5168">
        <ele>1640</ele>
        <time>2021-08-11T10:04:06.454Z</time>
      </trkpt>
      <trkpt lat="46.87234" lon="8.51679">
        <ele>1640</ele>
        <time>2021-08-11T10:04:07.454Z</time>
      </trkpt>
      <trkpt lat="46.87233" lon="8.51679">
        <ele>1640</ele>
        <time>2021-08-11T10:04:08.453Z</time>
      </trkpt>
      <trkpt lat="46.87233" lon="8.51678">
        <ele>1640</ele>
        <time>2021-08-11T10:04:09.454Z</time>
      </trkpt>
      <trkpt lat="46.87232" lon="8.51678">
        <ele>1640</ele>
        <time>2021-08-11T10:04:10.454Z</time>
      </trkpt>
      <trkpt lat="46.87232" lon="8.51677">
        <ele>1640</ele>
        <time>2021-08-11T10:04:11.454Z</time>
      </trkpt>
      <trkpt lat="46.87232" lon="8.51677">
        <ele>1640</ele>
        <time>2021-08-11T10:04:12.453Z</time>
      </trkpt>
      <trkpt lat="46.87232" lon="8.51677">
        <ele>1640</ele>
        <time>2021-08-11T10:04:13.454Z</time>
      </trkpt>
      <trkpt lat="46.87231" lon="8.51678">
        <ele>1643</ele>
        <time>2021-08-11T10:04:14.454Z</time>
      </trkpt>
      <trkpt lat="46.87231" lon="8.51677">
        <ele>1643</ele>
        <time>2021-08-11T10:04:15.454Z</time>
      </trkpt>
      <trkpt lat="46.87231" lon="8.51677">
        <ele>1642</ele>
        <time>2021-08-11T10:04:16.453Z</time>
      </trkpt>
      <trkpt lat="46.8723" lon="8.51676">
        <ele>1642</ele>
        <time>2021-08-11T10:04:17.454Z</time>
      </trkpt>
      <trkpt lat="46.87229" lon="8.51676">
        <ele>1642</ele>
        <time>2021-08-11T10:04:18.454Z</time>
      </trkpt>
      <trkpt lat="46.87228" lon="8.51675">
        <ele>1641</ele>
        <time>2021-08-11T10:04:19.453Z</time>
      </trkpt>
      <trkpt lat="46.87227" lon="8.51676">
        <ele>1640</ele>
        <time>2021-08-11T10:04:20.453Z</time>
      </trkpt>
      <trkpt lat="46.87226" lon="8.51676">
        <ele>1640</ele>
        <time>2021-08-11T10:04:21.453Z</time>
      </trkpt>
      <trkpt lat="46.87225" lon="8.51675">
        <ele>1639</ele>
        <time>2021-08-11T10:04:22.453Z</time>
      </trkpt>
      <trkpt lat="46.87225" lon="8.51674">
        <ele>1639</ele>
        <time>2021-08-11T10:04:23.454Z</time>
      </trkpt>
      <trkpt lat="46.87224" lon="8.51673">
        <ele>1638</ele>
        <time>2021-08-11T10:04:24.454Z</time>
      </trkpt>
      <trkpt lat="46.87224" lon="8.51672">
        <ele>1638</ele>
        <time>2021-08-11T10:04:25.454Z</time>
      </trkpt>
      <trkpt lat="46.87223" lon="8.51671">
        <ele>1637</ele>
        <time>2021-08-11T10:04:26.453Z</time>
      </trkpt>
      <trkpt lat="46.87222" lon="8.5167">
        <ele>1637</ele>
        <time>2021-08-11T10:04:27.454Z</time>
      </trkpt>
      <trkpt lat="46.87221" lon="8.5167">
        <ele>1636</ele>
        <time>2021-08-11T10:04:28.454Z</time>
      </trkpt>
      <trkpt lat="46.87221" lon="8.5167">
        <ele>1635</ele>
        <time>2021-08-11T10:04:29.454Z</time>
      </trkpt>
      <trkpt lat="46.87221" lon="8.51669">
        <ele>1634</ele>
        <time>2021-08-11T10:04:30.453Z</time>
      </trkpt>
      <trkpt lat="46.8722" lon="8.51668">
        <ele>1633</ele>
        <time>2021-08-11T10:04:31.453Z</time>
      </trkpt>
      <trkpt lat="46.8722" lon="8.51667">
        <ele>1632</ele>
        <time>2021-08-11T10:04:32.453Z</time>
      </trkpt>
      <trkpt lat="46.8722" lon="8.51667">
        <ele>1632</ele>
        <time>2021-08-11T10:04:33.454Z</time>
      </trkpt>
      <trkpt lat="46.87219" lon="8.51665">
        <ele>1631</ele>
        <time>2021-08-11T10:04:34.454Z</time>
      </trkpt>
      <trkpt lat="46.87219" lon="8.51664">
        <ele>1631</ele>
        <time>2021-08-11T10:04:35.454Z</time>
      </trkpt>
      <trkpt lat="46.87218" lon="8.51663">
        <ele>1630</ele>
        <time>2021-08-11T10:04:36.454Z</time>
      </trkpt>
      <trkpt lat="46.87218" lon="8.51661">
        <ele>1630</ele>
        <time>2021-08-11T10:04:37.453Z</time>
      </trkpt>
      <trkpt lat="46.87218" lon="8.5166">
        <ele>1630</ele>
        <time>2021-08-11T10:04:38.454Z</time>
      </trkpt>
      <trkpt lat="46.87217" lon="8.51659">
        <ele>1630</ele>
        <time>2021-08-11T10:04:39.454Z</time>
      </trkpt>
      <trkpt lat="46.87217" lon="8.51658">
        <ele>1630</ele>
        <time>2021-08-11T10:04:40.454Z</time>
      </trkpt>
      <trkpt lat="46.87216" lon="8.51657">
        <ele>1630</ele>
        <time>2021-08-11T10:04:41.454Z</time>
      </trkpt>
      <trkpt lat="46.87216" lon="8.51656">
        <ele>1630</ele>
        <time>2021-08-11T10:04:42.453Z</time>
      </trkpt>
      <trkpt lat="46.87215" lon="8.51655">
        <ele>1629</ele>
        <time>2021-08-11T10:04:43.453Z</time>
      </trkpt>
      <trkpt lat="46.87215" lon="8.51654">
        <ele>1629</ele>
        <time>2021-08-11T10:04:44.454Z</time>
      </trkpt>
      <trkpt lat="46.87214" lon="8.51653">
        <ele>1630</ele>
        <time>2021-08-11T10:04:45.454Z</time>
      </trkpt>
      <trkpt lat="46.87212" lon="8.51652">
        <ele>1629</ele>
        <time>2021-08-11T10:04:46.454Z</time>
      </trkpt>
      <trkpt lat="46.87211" lon="8.51651">
        <ele>1630</ele>
        <time>2021-08-11T10:04:47.454Z</time>
      </trkpt>
      <trkpt lat="46.87211" lon="8.5165">
        <ele>1630</ele>
        <time>2021-08-11T10:04:48.453Z</time>
      </trkpt>
      <trkpt lat="46.8721" lon="8.51648">
        <ele>1630</ele>
        <time>2021-08-11T10:04:49.454Z</time>
      </trkpt>
      <trkpt lat="46.8721" lon="8.51648">
        <ele>1631</ele>
        <time>2021-08-11T10:04:50.454Z</time>
      </trkpt>
      <trkpt lat="46.87209" lon="8.51647">
        <ele>1631</ele>
        <time>2021-08-11T10:04:51.454Z</time>
      </trkpt>
      <trkpt lat="46.87208" lon="8.51646">
        <ele>1631</ele>
        <time>2021-08-11T10:04:52.454Z</time>
      </trkpt>
      <trkpt lat="46.87208" lon="8.51644">
        <ele>1631</ele>
        <time>2021-08-11T10:04:53.453Z</time>
      </trkpt>
      <trkpt lat="46.87207" lon="8.51643">
        <ele>1631</ele>
        <time>2021-08-11T10:04:54.454Z</time>
      </trkpt>
      <trkpt lat="46.87207" lon="8.51642">
        <ele>1630</ele>
        <time>2021-08-11T10:04:55.454Z</time>
      </trkpt>
      <trkpt lat="46.87206" lon="8.51642">
        <ele>1630</ele>
        <time>2021-08-11T10:04:56.454Z</time>
      </trkpt>
      <trkpt lat="46.87206" lon="8.5164">
        <ele>1630</ele>
        <time>2021-08-11T10:04:57.454Z</time>
      </trkpt>
      <trkpt lat="46.87205" lon="8.51639">
        <ele>1630</ele>
        <time>2021-08-11T10:04:58.453Z</time>
      </trkpt>
      <trkpt lat="46.87205" lon="8.51638">
        <ele>1630</ele>
        <time>2021-08-11T10:04:59.453Z</time>
      </trkpt>
      <trkpt lat="46.87204" lon="8.51637">
        <ele>1629</ele>
        <time>2021-08-11T10:05:00.453Z</time>
      </trkpt>
      <trkpt lat="46.87203" lon="8.51636">
        <ele>1629</ele>
        <time>2021-08-11T10:05:01.453Z</time>
      </trkpt>
      <trkpt lat="46.87203" lon="8.51635">
        <ele>1629</ele>
        <time>2021-08-11T10:05:02.454Z</time>
      </trkpt>
      <trkpt lat="46.87203" lon="8.51634">
        <ele>1629</ele>
        <time>2021-08-11T10:05:03.454Z</time>
      </trkpt>
      <trkpt lat="46.87202" lon="8.51633">
        <ele>1629</ele>
        <time>2021-08-11T10:05:04.454Z</time>
      </trkpt>
      <trkpt lat="46.87202" lon="8.51632">
        <ele>1628</ele>
        <time>2021-08-11T10:05:05.454Z</time>
      </trkpt>
      <trkpt lat="46.87201" lon="8.51632">
        <ele>1628</ele>
        <time>2021-08-11T10:05:06.453Z</time>
      </trkpt>
      <trkpt lat="46.872" lon="8.51631">
        <ele>1628</ele>
        <time>2021-08-11T10:05:07.454Z</time>
      </trkpt>
      <trkpt lat="46.87199" lon="8.5163">
        <ele>1628</ele>
        <time>2021-08-11T10:05:08.454Z</time>
      </trkpt>
      <trkpt lat="46.87199" lon="8.51629">
        <ele>1628</ele>
        <time>2021-08-11T10:05:09.454Z</time>
      </trkpt>
      <trkpt lat="46.87198" lon="8.51628">
        <ele>1628</ele>
        <time>2021-08-11T10:05:10.454Z</time>
      </trkpt>
      <trkpt lat="46.87197" lon="8.51626">
        <ele>1628</ele>
        <time>2021-08-11T10:05:11.453Z</time>
      </trkpt>
      <trkpt lat="46.87197" lon="8.51624">
        <ele>1628</ele>
        <time>2021-08-11T10:05:12.454Z</time>
      </trkpt>
      <trkpt lat="46.87197" lon="8.51622">
        <ele>1628</ele>
        <time>2021-08-11T10:05:13.454Z</time>
      </trkpt>
      <trkpt lat="46.87196" lon="8.51621">
        <ele>1628</ele>
        <time>2021-08-11T10:05:14.454Z</time>
      </trkpt>
      <trkpt lat="46.87195" lon="8.51621">
        <ele>1628</ele>
        <time>2021-08-11T10:05:15.454Z</time>
      </trkpt>
      <trkpt lat="46.87195" lon="8.51621">
        <ele>1628</ele>
        <time>2021-08-11T10:05:16.454Z</time>
      </trkpt>
      <trkpt lat="46.87194" lon="8.51619">
        <ele>1628</ele>
        <time>2021-08-11T10:05:17.454Z</time>
      </trkpt>
      <trkpt lat="46.87193" lon="8.51618">
        <ele>1628</ele>
        <time>2021-08-11T10:05:18.454Z</time>
      </trkpt>
      <trkpt lat="46.87191" lon="8.51617">
        <ele>1627</ele>
        <time>2021-08-11T10:05:19.453Z</time>
      </trkpt>
      <trkpt lat="46.8719" lon="8.51616">
        <ele>1627</ele>
        <time>2021-08-11T10:05:20.454Z</time>
      </trkpt>
      <trkpt lat="46.87189" lon="8.51615">
        <ele>1626</ele>
        <time>2021-08-11T10:05:21.454Z</time>
      </trkpt>
      <trkpt lat="46.87189" lon="8.51615">
        <ele>1626</ele>
        <time>2021-08-11T10:05:22.453Z</time>
      </trkpt>
      <trkpt lat="46.87188" lon="8.51615">
        <ele>1626</ele>
        <time>2021-08-11T10:05:23.454Z</time>
      </trkpt>
      <trkpt lat="46.87187" lon="8.51616">
        <ele>1625</ele>
        <time>2021-08-11T10:05:24.454Z</time>
      </trkpt>
      <trkpt lat="46.87186" lon="8.51615">
        <ele>1625</ele>
        <time>2021-08-11T10:05:25.454Z</time>
      </trkpt>
      <trkpt lat="46.87185" lon="8.51615">
        <ele>1625</ele>
        <time>2021-08-11T10:05:26.454Z</time>
      </trkpt>
      <trkpt lat="46.87184" lon="8.51614">
        <ele>1625</ele>
        <time>2021-08-11T10:05:27.453Z</time>
      </trkpt>
      <trkpt lat="46.87183" lon="8.51614">
        <ele>1625</ele>
        <time>2021-08-11T10:05:28.454Z</time>
      </trkpt>
      <trkpt lat="46.87182" lon="8.51613">
        <ele>1625</ele>
        <time>2021-08-11T10:05:29.454Z</time>
      </trkpt>
      <trkpt lat="46.87181" lon="8.51612">
        <ele>1625</ele>
        <time>2021-08-11T10:05:30.454Z</time>
      </trkpt>
      <trkpt lat="46.8718" lon="8.51611">
        <ele>1626</ele>
        <time>2021-08-11T10:05:31.454Z</time>
      </trkpt>
      <trkpt lat="46.87179" lon="8.5161">
        <ele>1626</ele>
        <time>2021-08-11T10:05:32.453Z</time>
      </trkpt>
      <trkpt lat="46.87178" lon="8.51609">
        <ele>1626</ele>
        <time>2021-08-11T10:05:33.454Z</time>
      </trkpt>
      <trkpt lat="46.87177" lon="8.51608">
        <ele>1626</ele>
        <time>2021-08-11T10:05:34.454Z</time>
      </trkpt>
      <trkpt lat="46.87176" lon="8.51607">
        <ele>1626</ele>
        <time>2021-08-11T10:05:35.454Z</time>
      </trkpt>
      <trkpt lat="46.87175" lon="8.51605">
        <ele>1626</ele>
        <time>2021-08-11T10:05:36.454Z</time>
      </trkpt>
      <trkpt lat="46.87174" lon="8.51604">
        <ele>1626</ele>
        <time>2021-08-11T10:05:37.453Z</time>
      </trkpt>
      <trkpt lat="46.87173" lon="8.51603">
        <ele>1625</ele>
        <time>2021-08-11T10:05:38.454Z</time>
      </trkpt>
      <trkpt lat="46.87172" lon="8.51601">
        <ele>1625</ele>
        <time>2021-08-11T10:05:39.454Z</time>
      </trkpt>
      <trkpt lat="46.87171" lon="8.516">
        <ele>1625</ele>
        <time>2021-08-11T10:05:40.454Z</time>
      </trkpt>
      <trkpt lat="46.8717" lon="8.51599">
        <ele>1625</ele>
        <time>2021-08-11T10:05:41.453Z</time>
      </trkpt>
      <trkpt lat="46.87169" lon="8.51597">
        <ele>1625</ele>
        <time>2021-08-11T10:05:42.454Z</time>
      </trkpt>
      <trkpt lat="46.87168" lon="8.51596">
        <ele>1625</ele>
        <time>2021-08-11T10:05:43.454Z</time>
      </trkpt>
      <trkpt lat="46.87167" lon="8.51595">
        <ele>1625</ele>
        <time>2021-08-11T10:05:44.454Z</time>
      </trkpt>
      <trkpt lat="46.87166" lon="8.51593">
        <ele>1624</ele>
        <time>2021-08-11T10:05:45.454Z</time>
      </trkpt>
      <trkpt lat="46.87165" lon="8.51592">
        <ele>1624</ele>
        <time>2021-08-11T10:05:46.453Z</time>
      </trkpt>
      <trkpt lat="46.87165" lon="8.51591">
        <ele>1624</ele>
        <time>2021-08-11T10:05:47.454Z</time>
      </trkpt>
      <trkpt lat="46.87164" lon="8.51591">
        <ele>1624</ele>
        <time>2021-08-11T10:05:48.454Z</time>
      </trkpt>
      <trkpt lat="46.87163" lon="8.5159">
        <ele>1625</ele>
        <time>2021-08-11T10:05:49.454Z</time>
      </trkpt>
      <trkpt lat="46.87162" lon="8.51589">
        <ele>1625</ele>
        <time>2021-08-11T10:05:50.453Z</time>
      </trkpt>
      <trkpt lat="46.87161" lon="8.51588">
        <ele>1625</ele>
        <time>2021-08-11T10:05:51.454Z</time>
      </trkpt>
      <trkpt lat="46.87161" lon="8.51587">
        <ele>1625</ele>
        <time>2021-08-11T10:05:52.454Z</time>
      </trkpt>
      <trkpt lat="46.8716" lon="8.51586">
        <ele>1625</ele>
        <time>2021-08-11T10:05:53.454Z</time>
      </trkpt>
      <trkpt lat="46.87159" lon="8.51585">
        <ele>1625</ele>
        <time>2021-08-11T10:05:54.454Z</time>
      </trkpt>
      <trkpt lat="46.87158" lon="8.51584">
        <ele>1624</ele>
        <time>2021-08-11T10:05:55.453Z</time>
      </trkpt>
      <trkpt lat="46.87158" lon="8.51584">
        <ele>1623</ele>
        <time>2021-08-11T10:05:56.454Z</time>
      </trkpt>
      <trkpt lat="46.87157" lon="8.51583">
        <ele>1622</ele>
        <time>2021-08-11T10:05:57.454Z</time>
      </trkpt>
      <trkpt lat="46.87156" lon="8.51583">
        <ele>1621</ele>
        <time>2021-08-11T10:05:58.454Z</time>
      </trkpt>
      <trkpt lat="46.87155" lon="8.51582">
        <ele>1620</ele>
        <time>2021-08-11T10:05:59.453Z</time>
      </trkpt>
      <trkpt lat="46.87154" lon="8.51581">
        <ele>1619</ele>
        <time>2021-08-11T10:06:00.454Z</time>
      </trkpt>
      <trkpt lat="46.87154" lon="8.5158">
        <ele>1618</ele>
        <time>2021-08-11T10:06:01.454Z</time>
      </trkpt>
      <trkpt lat="46.87153" lon="8.51578">
        <ele>1617</ele>
        <time>2021-08-11T10:06:02.454Z</time>
      </trkpt>
      <trkpt lat="46.87152" lon="8.51577">
        <ele>1616</ele>
        <time>2021-08-11T10:06:03.454Z</time>
      </trkpt>
      <trkpt lat="46.87151" lon="8.51576">
        <ele>1615</ele>
        <time>2021-08-11T10:06:04.453Z</time>
      </trkpt>
      <trkpt lat="46.87151" lon="8.51575">
        <ele>1615</ele>
        <time>2021-08-11T10:06:05.454Z</time>
      </trkpt>
      <trkpt lat="46.8715" lon="8.51574">
        <ele>1614</ele>
        <time>2021-08-11T10:06:06.454Z</time>
      </trkpt>
      <trkpt lat="46.87149" lon="8.51572">
        <ele>1614</ele>
        <time>2021-08-11T10:06:07.454Z</time>
      </trkpt>
      <trkpt lat="46.87148" lon="8.5157">
        <ele>1613</ele>
        <time>2021-08-11T10:06:08.453Z</time>
      </trkpt>
      <trkpt lat="46.87147" lon="8.51569">
        <ele>1612</ele>
        <time>2021-08-11T10:06:09.454Z</time>
      </trkpt>
      <trkpt lat="46.87146" lon="8.51568">
        <ele>1612</ele>
        <time>2021-08-11T10:06:10.454Z</time>
      </trkpt>
      <trkpt lat="46.87145" lon="8.51567">
        <ele>1612</ele>
        <time>2021-08-11T10:06:11.454Z</time>
      </trkpt>
      <trkpt lat="46.87144" lon="8.51565">
        <ele>1612</ele>
        <time>2021-08-11T10:06:12.454Z</time>
      </trkpt>
      <trkpt lat="46.87143" lon="8.51564">
        <ele>1612</ele>
        <time>2021-08-11T10:06:13.453Z</time>
      </trkpt>
      <trkpt lat="46.87142" lon="8.51563">
        <ele>1612</ele>
        <time>2021-08-11T10:06:14.453Z</time>
      </trkpt>
      <trkpt lat="46.87141" lon="8.51562">
        <ele>1612</ele>
        <time>2021-08-11T10:06:15.454Z</time>
      </trkpt>
      <trkpt lat="46.8714" lon="8.51561">
        <ele>1612</ele>
        <time>2021-08-11T10:06:16.454Z</time>
      </trkpt>
      <trkpt lat="46.87139" lon="8.51561">
        <ele>1612</ele>
        <time>2021-08-11T10:06:17.454Z</time>
      </trkpt>
      <trkpt lat="46.87138" lon="8.5156">
        <ele>1611</ele>
        <time>2021-08-11T10:06:18.453Z</time>
      </trkpt>
      <trkpt lat="46.87137" lon="8.51559">
        <ele>1611</ele>
        <time>2021-08-11T10:06:19.453Z</time>
      </trkpt>
      <trkpt lat="46.87136" lon="8.51558">
        <ele>1611</ele>
        <time>2021-08-11T10:06:20.453Z</time>
      </trkpt>
      <trkpt lat="46.87134" lon="8.51557">
        <ele>1611</ele>
        <time>2021-08-11T10:06:21.453Z</time>
      </trkpt>
      <trkpt lat="46.87133" lon="8.51556">
        <ele>1611</ele>
        <time>2021-08-11T10:06:22.453Z</time>
      </trkpt>
      <trkpt lat="46.87132" lon="8.51554">
        <ele>1611</ele>
        <time>2021-08-11T10:06:23.453Z</time>
      </trkpt>
      <trkpt lat="46.87131" lon="8.51552">
        <ele>1611</ele>
        <time>2021-08-11T10:06:24.453Z</time>
      </trkpt>
      <trkpt lat="46.8713" lon="8.51552">
        <ele>1610</ele>
        <time>2021-08-11T10:06:25.454Z</time>
      </trkpt>
      <trkpt lat="46.87128" lon="8.51551">
        <ele>1609</ele>
        <time>2021-08-11T10:06:26.454Z</time>
      </trkpt>
      <trkpt lat="46.87127" lon="8.51549">
        <ele>1609</ele>
        <time>2021-08-11T10:06:27.454Z</time>
      </trkpt>
      <trkpt lat="46.87126" lon="8.51549">
        <ele>1608</ele>
        <time>2021-08-11T10:06:28.453Z</time>
      </trkpt>
      <trkpt lat="46.87126" lon="8.51548">
        <ele>1607</ele>
        <time>2021-08-11T10:06:29.454Z</time>
      </trkpt>
      <trkpt lat="46.87125" lon="8.51548">
        <ele>1607</ele>
        <time>2021-08-11T10:06:30.454Z</time>
      </trkpt>
      <trkpt lat="46.87125" lon="8.51547">
        <ele>1607</ele>
        <time>2021-08-11T10:06:31.454Z</time>
      </trkpt>
      <trkpt lat="46.87123" lon="8.51545">
        <ele>1606</ele>
        <time>2021-08-11T10:06:32.454Z</time>
      </trkpt>
      <trkpt lat="46.87122" lon="8.51544">
        <ele>1606</ele>
        <time>2021-08-11T10:06:33.453Z</time>
      </trkpt>
      <trkpt lat="46.87122" lon="8.51544">
        <ele>1606</ele>
        <time>2021-08-11T10:06:34.454Z</time>
      </trkpt>
      <trkpt lat="46.8712" lon="8.51543">
        <ele>1606</ele>
        <time>2021-08-11T10:06:35.454Z</time>
      </trkpt>
      <trkpt lat="46.8712" lon="8.51543">
        <ele>1605</ele>
        <time>2021-08-11T10:06:36.454Z</time>
      </trkpt>
      <trkpt lat="46.87118" lon="8.51544">
        <ele>1605</ele>
        <time>2021-08-11T10:06:37.453Z</time>
      </trkpt>
      <trkpt lat="46.87117" lon="8.51544">
        <ele>1606</ele>
        <time>2021-08-11T10:06:38.453Z</time>
      </trkpt>
      <trkpt lat="46.87116" lon="8.51544">
        <ele>1606</ele>
        <time>2021-08-11T10:06:39.454Z</time>
      </trkpt>
      <trkpt lat="46.87115" lon="8.51543">
        <ele>1606</ele>
        <time>2021-08-11T10:06:40.454Z</time>
      </trkpt>
      <trkpt lat="46.87113" lon="8.51543">
        <ele>1606</ele>
        <time>2021-08-11T10:06:41.454Z</time>
      </trkpt>
      <trkpt lat="46.87113" lon="8.51543">
        <ele>1606</ele>
        <time>2021-08-11T10:06:42.453Z</time>
      </trkpt>
      <trkpt lat="46.87112" lon="8.51543">
        <ele>1606</ele>
        <time>2021-08-11T10:06:43.454Z</time>
      </trkpt>
      <trkpt lat="46.87111" lon="8.51542">
        <ele>1606</ele>
        <time>2021-08-11T10:06:44.454Z</time>
      </trkpt>
      <trkpt lat="46.8711" lon="8.51541">
        <ele>1606</ele>
        <time>2021-08-11T10:06:45.454Z</time>
      </trkpt>
      <trkpt lat="46.8711" lon="8.51541">
        <ele>1606</ele>
        <time>2021-08-11T10:06:46.453Z</time>
      </trkpt>
      <trkpt lat="46.87109" lon="8.5154">
        <ele>1606</ele>
        <time>2021-08-11T10:06:47.453Z</time>
      </trkpt>
      <trkpt lat="46.87108" lon="8.5154">
        <ele>1606</ele>
        <time>2021-08-11T10:06:48.454Z</time>
      </trkpt>
      <trkpt lat="46.87108" lon="8.51539">
        <ele>1606</ele>
        <time>2021-08-11T10:06:49.454Z</time>
      </trkpt>
      <trkpt lat="46.87107" lon="8.51538">
        <ele>1605</ele>
        <time>2021-08-11T10:06:50.454Z</time>
      </trkpt>
      <trkpt lat="46.87105" lon="8.51537">
        <ele>1605</ele>
        <time>2021-08-11T10:06:51.453Z</time>
      </trkpt>
      <trkpt lat="46.87105" lon="8.51536">
        <ele>1605</ele>
        <time>2021-08-11T10:06:52.454Z</time>
      </trkpt>
      <trkpt lat="46.87104" lon="8.51534">
        <ele>1604</ele>
        <time>2021-08-11T10:06:53.454Z</time>
      </trkpt>
      <trkpt lat="46.87104" lon="8.51533">
        <ele>1604</ele>
        <time>2021-08-11T10:06:54.454Z</time>
      </trkpt>
      <trkpt lat="46.87103" lon="8.51532">
        <ele>1603</ele>
        <time>2021-08-11T10:06:55.453Z</time>
      </trkpt>
      <trkpt lat="46.87104" lon="8.51531">
        <ele>1603</ele>
        <time>2021-08-11T10:06:56.453Z</time>
      </trkpt>
      <trkpt lat="46.87104" lon="8.51531">
        <ele>1603</ele>
        <time>2021-08-11T10:06:57.454Z</time>
      </trkpt>
      <trkpt lat="46.87103" lon="8.51531">
        <ele>1602</ele>
        <time>2021-08-11T10:06:58.454Z</time>
      </trkpt>
      <trkpt lat="46.87102" lon="8.5153">
        <ele>1602</ele>
        <time>2021-08-11T10:06:59.454Z</time>
      </trkpt>
      <trkpt lat="46.87102" lon="8.51528">
        <ele>1601</ele>
        <time>2021-08-11T10:07:00.453Z</time>
      </trkpt>
      <trkpt lat="46.87102" lon="8.51526">
        <ele>1601</ele>
        <time>2021-08-11T10:07:01.454Z</time>
      </trkpt>
      <trkpt lat="46.87101" lon="8.51525">
        <ele>1601</ele>
        <time>2021-08-11T10:07:02.454Z</time>
      </trkpt>
      <trkpt lat="46.87101" lon="8.51524">
        <ele>1600</ele>
        <time>2021-08-11T10:07:03.454Z</time>
      </trkpt>
      <trkpt lat="46.871" lon="8.51523">
        <ele>1600</ele>
        <time>2021-08-11T10:07:04.453Z</time>
      </trkpt>
      <trkpt lat="46.871" lon="8.51521">
        <ele>1599</ele>
        <time>2021-08-11T10:07:05.453Z</time>
      </trkpt>
      <trkpt lat="46.871" lon="8.51521">
        <ele>1599</ele>
        <time>2021-08-11T10:07:06.454Z</time>
      </trkpt>
      <trkpt lat="46.871" lon="8.51521">
        <ele>1599</ele>
        <time>2021-08-11T10:07:07.454Z</time>
      </trkpt>
      <trkpt lat="46.87099" lon="8.5152">
        <ele>1599</ele>
        <time>2021-08-11T10:07:08.454Z</time>
      </trkpt>
      <trkpt lat="46.87098" lon="8.51519">
        <ele>1599</ele>
        <time>2021-08-11T10:07:09.453Z</time>
      </trkpt>
      <trkpt lat="46.87098" lon="8.51518">
        <ele>1599</ele>
        <time>2021-08-11T10:07:10.454Z</time>
      </trkpt>
      <trkpt lat="46.87097" lon="8.51518">
        <ele>1598</ele>
        <time>2021-08-11T10:07:11.454Z</time>
      </trkpt>
      <trkpt lat="46.87097" lon="8.51516">
        <ele>1598</ele>
        <time>2021-08-11T10:07:12.454Z</time>
      </trkpt>
      <trkpt lat="46.87096" lon="8.51516">
        <ele>1598</ele>
        <time>2021-08-11T10:07:13.454Z</time>
      </trkpt>
      <trkpt lat="46.87096" lon="8.51515">
        <ele>1598</ele>
        <time>2021-08-11T10:07:14.453Z</time>
      </trkpt>
      <trkpt lat="46.87095" lon="8.51514">
        <ele>1598</ele>
        <time>2021-08-11T10:07:15.454Z</time>
      </trkpt>
      <trkpt lat="46.87095" lon="8.51514">
        <ele>1598</ele>
        <time>2021-08-11T10:07:16.454Z</time>
      </trkpt>
      <trkpt lat="46.87094" lon="8.51513">
        <ele>1598</ele>
        <time>2021-08-11T10:07:17.454Z</time>
      </trkpt>
      <trkpt lat="46.87093" lon="8.51511">
        <ele>1598</ele>
        <time>2021-08-11T10:07:18.453Z</time>
      </trkpt>
      <trkpt lat="46.87092" lon="8.5151">
        <ele>1597</ele>
        <time>2021-08-11T10:07:19.454Z</time>
      </trkpt>
      <trkpt lat="46.87091" lon="8.51509">
        <ele>1597</ele>
        <time>2021-08-11T10:07:20.454Z</time>
      </trkpt>
      <trkpt lat="46.87091" lon="8.51509">
        <ele>1596</ele>
        <time>2021-08-11T10:07:21.454Z</time>
      </trkpt>
      <trkpt lat="46.8709" lon="8.5151">
        <ele>1596</ele>
        <time>2021-08-11T10:07:22.454Z</time>
      </trkpt>
      <trkpt lat="46.87088" lon="8.51508">
        <ele>1596</ele>
        <time>2021-08-11T10:07:23.453Z</time>
      </trkpt>
      <trkpt lat="46.87087" lon="8.51507">
        <ele>1596</ele>
        <time>2021-08-11T10:07:24.454Z</time>
      </trkpt>
      <trkpt lat="46.87086" lon="8.51505">
        <ele>1596</ele>
        <time>2021-08-11T10:07:25.454Z</time>
      </trkpt>
      <trkpt lat="46.87084" lon="8.51504">
        <ele>1596</ele>
        <time>2021-08-11T10:07:26.454Z</time>
      </trkpt>
      <trkpt lat="46.87083" lon="8.51503">
        <ele>1595</ele>
        <time>2021-08-11T10:07:27.453Z</time>
      </trkpt>
      <trkpt lat="46.87082" lon="8.51502">
        <ele>1595</ele>
        <time>2021-08-11T10:07:28.454Z</time>
      </trkpt>
      <trkpt lat="46.87081" lon="8.51501">
        <ele>1595</ele>
        <time>2021-08-11T10:07:29.454Z</time>
      </trkpt>
      <trkpt lat="46.8708" lon="8.515">
        <ele>1595</ele>
        <time>2021-08-11T10:07:30.454Z</time>
      </trkpt>
      <trkpt lat="46.87079" lon="8.515">
        <ele>1594</ele>
        <time>2021-08-11T10:07:31.454Z</time>
      </trkpt>
      <trkpt lat="46.87079" lon="8.51499">
        <ele>1593</ele>
        <time>2021-08-11T10:07:32.453Z</time>
      </trkpt>
      <trkpt lat="46.87078" lon="8.51498">
        <ele>1592</ele>
        <time>2021-08-11T10:07:33.454Z</time>
      </trkpt>
      <trkpt lat="46.87078" lon="8.51498">
        <ele>1590</ele>
        <time>2021-08-11T10:07:34.454Z</time>
      </trkpt>
      <trkpt lat="46.87077" lon="8.51497">
        <ele>1589</ele>
        <time>2021-08-11T10:07:35.454Z</time>
      </trkpt>
      <trkpt lat="46.87076" lon="8.51496">
        <ele>1588</ele>
        <time>2021-08-11T10:07:36.454Z</time>
      </trkpt>
      <trkpt lat="46.87076" lon="8.51495">
        <ele>1587</ele>
        <time>2021-08-11T10:07:37.454Z</time>
      </trkpt>
      <trkpt lat="46.87075" lon="8.51494">
        <ele>1587</ele>
        <time>2021-08-11T10:07:38.454Z</time>
      </trkpt>
      <trkpt lat="46.87075" lon="8.51493">
        <ele>1586</ele>
        <time>2021-08-11T10:07:39.454Z</time>
      </trkpt>
      <trkpt lat="46.87075" lon="8.51492">
        <ele>1586</ele>
        <time>2021-08-11T10:07:40.453Z</time>
      </trkpt>
      <trkpt lat="46.87075" lon="8.51491">
        <ele>1586</ele>
        <time>2021-08-11T10:07:41.454Z</time>
      </trkpt>
      <trkpt lat="46.87075" lon="8.5149">
        <ele>1585</ele>
        <time>2021-08-11T10:07:42.454Z</time>
      </trkpt>
      <trkpt lat="46.87075" lon="8.51489">
        <ele>1585</ele>
        <time>2021-08-11T10:07:43.453Z</time>
      </trkpt>
      <trkpt lat="46.87076" lon="8.51487">
        <ele>1584</ele>
        <time>2021-08-11T10:07:44.454Z</time>
      </trkpt>
      <trkpt lat="46.87075" lon="8.51486">
        <ele>1584</ele>
        <time>2021-08-11T10:07:45.453Z</time>
      </trkpt>
      <trkpt lat="46.87075" lon="8.51485">
        <ele>1584</ele>
        <time>2021-08-11T10:07:46.453Z</time>
      </trkpt>
      <trkpt lat="46.87074" lon="8.51484">
        <ele>1583</ele>
        <time>2021-08-11T10:07:47.454Z</time>
      </trkpt>
      <trkpt lat="46.87073" lon="8.51483">
        <ele>1583</ele>
        <time>2021-08-11T10:07:48.454Z</time>
      </trkpt>
      <trkpt lat="46.87072" lon="8.51482">
        <ele>1583</ele>
        <time>2021-08-11T10:07:49.454Z</time>
      </trkpt>
      <trkpt lat="46.87072" lon="8.51482">
        <ele>1583</ele>
        <time>2021-08-11T10:07:50.453Z</time>
      </trkpt>
      <trkpt lat="46.87071" lon="8.51481">
        <ele>1583</ele>
        <time>2021-08-11T10:07:51.453Z</time>
      </trkpt>
      <trkpt lat="46.8707" lon="8.5148">
        <ele>1582</ele>
        <time>2021-08-11T10:07:52.453Z</time>
      </trkpt>
      <trkpt lat="46.8707" lon="8.51479">
        <ele>1582</ele>
        <time>2021-08-11T10:07:53.453Z</time>
      </trkpt>
      <trkpt lat="46.87069" lon="8.51479">
        <ele>1581</ele>
        <time>2021-08-11T10:07:54.454Z</time>
      </trkpt>
      <trkpt lat="46.87068" lon="8.51478">
        <ele>1581</ele>
        <time>2021-08-11T10:07:55.454Z</time>
      </trkpt>
      <trkpt lat="46.87067" lon="8.51477">
        <ele>1580</ele>
        <time>2021-08-11T10:07:56.454Z</time>
      </trkpt>
      <trkpt lat="46.87066" lon="8.51477">
        <ele>1580</ele>
        <time>2021-08-11T10:07:57.454Z</time>
      </trkpt>
      <trkpt lat="46.87066" lon="8.51475">
        <ele>1579</ele>
        <time>2021-08-11T10:07:58.454Z</time>
      </trkpt>
      <trkpt lat="46.87065" lon="8.51474">
        <ele>1578</ele>
        <time>2021-08-11T10:07:59.453Z</time>
      </trkpt>
      <trkpt lat="46.87064" lon="8.51472">
        <ele>1578</ele>
        <time>2021-08-11T10:08:00.454Z</time>
      </trkpt>
      <trkpt lat="46.87063" lon="8.51471">
        <ele>1577</ele>
        <time>2021-08-11T10:08:01.454Z</time>
      </trkpt>
      <trkpt lat="46.87062" lon="8.5147">
        <ele>1577</ele>
        <time>2021-08-11T10:08:02.454Z</time>
      </trkpt>
      <trkpt lat="46.87061" lon="8.51469">
        <ele>1577</ele>
        <time>2021-08-11T10:08:03.453Z</time>
      </trkpt>
      <trkpt lat="46.8706" lon="8.51468">
        <ele>1576</ele>
        <time>2021-08-11T10:08:04.454Z</time>
      </trkpt>
      <trkpt lat="46.87059" lon="8.51467">
        <ele>1575</ele>
        <time>2021-08-11T10:08:05.454Z</time>
      </trkpt>
      <trkpt lat="46.87058" lon="8.51467">
        <ele>1575</ele>
        <time>2021-08-11T10:08:06.453Z</time>
      </trkpt>
      <trkpt lat="46.87057" lon="8.51466">
        <ele>1575</ele>
        <time>2021-08-11T10:08:07.454Z</time>
      </trkpt>
      <trkpt lat="46.87057" lon="8.51466">
        <ele>1575</ele>
        <time>2021-08-11T10:08:08.454Z</time>
      </trkpt>
      <trkpt lat="46.87055" lon="8.51465">
        <ele>1575</ele>
        <time>2021-08-11T10:08:09.454Z</time>
      </trkpt>
      <trkpt lat="46.87054" lon="8.51464">
        <ele>1575</ele>
        <time>2021-08-11T10:08:10.454Z</time>
      </trkpt>
      <trkpt lat="46.87053" lon="8.51463">
        <ele>1576</ele>
        <time>2021-08-11T10:08:11.454Z</time>
      </trkpt>
      <trkpt lat="46.87052" lon="8.51462">
        <ele>1577</ele>
        <time>2021-08-11T10:08:12.453Z</time>
      </trkpt>
      <trkpt lat="46.87052" lon="8.51461">
        <ele>1577</ele>
        <time>2021-08-11T10:08:13.454Z</time>
      </trkpt>
      <trkpt lat="46.87051" lon="8.5146">
        <ele>1577</ele>
        <time>2021-08-11T10:08:14.454Z</time>
      </trkpt>
      <trkpt lat="46.8705" lon="8.51459">
        <ele>1577</ele>
        <time>2021-08-11T10:08:15.453Z</time>
      </trkpt>
      <trkpt lat="46.87049" lon="8.51459">
        <ele>1578</ele>
        <time>2021-08-11T10:08:16.454Z</time>
      </trkpt>
      <trkpt lat="46.87048" lon="8.51458">
        <ele>1578</ele>
        <time>2021-08-11T10:08:17.454Z</time>
      </trkpt>
      <trkpt lat="46.87047" lon="8.51457">
        <ele>1578</ele>
        <time>2021-08-11T10:08:18.454Z</time>
      </trkpt>
      <trkpt lat="46.87046" lon="8.51456">
        <ele>1578</ele>
        <time>2021-08-11T10:08:19.453Z</time>
      </trkpt>
      <trkpt lat="46.87045" lon="8.51455">
        <ele>1578</ele>
        <time>2021-08-11T10:08:20.454Z</time>
      </trkpt>
      <trkpt lat="46.87044" lon="8.51455">
        <ele>1578</ele>
        <time>2021-08-11T10:08:21.454Z</time>
      </trkpt>
      <trkpt lat="46.87043" lon="8.51454">
        <ele>1578</ele>
        <time>2021-08-11T10:08:22.453Z</time>
      </trkpt>
      <trkpt lat="46.87042" lon="8.51453">
        <ele>1578</ele>
        <time>2021-08-11T10:08:23.453Z</time>
      </trkpt>
      <trkpt lat="46.87041" lon="8.51453">
        <ele>1578</ele>
        <time>2021-08-11T10:08:24.454Z</time>
      </trkpt>
      <trkpt lat="46.8704" lon="8.51452">
        <ele>1578</ele>
        <time>2021-08-11T10:08:25.454Z</time>
      </trkpt>
      <trkpt lat="46.87039" lon="8.51451">
        <ele>1577</ele>
        <time>2021-08-11T10:08:26.454Z</time>
      </trkpt>
      <trkpt lat="46.87038" lon="8.5145">
        <ele>1577</ele>
        <time>2021-08-11T10:08:27.454Z</time>
      </trkpt>
      <trkpt lat="46.87037" lon="8.51449">
        <ele>1577</ele>
        <time>2021-08-11T10:08:28.454Z</time>
      </trkpt>
      <trkpt lat="46.87035" lon="8.51447">
        <ele>1577</ele>
        <time>2021-08-11T10:08:29.453Z</time>
      </trkpt>
      <trkpt lat="46.87033" lon="8.51446">
        <ele>1577</ele>
        <time>2021-08-11T10:08:30.454Z</time>
      </trkpt>
      <trkpt lat="46.87031" lon="8.51444">
        <ele>1577</ele>
        <time>2021-08-11T10:08:31.454Z</time>
      </trkpt>
      <trkpt lat="46.8703" lon="8.51442">
        <ele>1578</ele>
        <time>2021-08-11T10:08:32.453Z</time>
      </trkpt>
      <trkpt lat="46.87029" lon="8.5144">
        <ele>1578</ele>
        <time>2021-08-11T10:08:33.454Z</time>
      </trkpt>
      <trkpt lat="46.87028" lon="8.51438">
        <ele>1578</ele>
        <time>2021-08-11T10:08:34.454Z</time>
      </trkpt>
      <trkpt lat="46.87027" lon="8.51435">
        <ele>1578</ele>
        <time>2021-08-11T10:08:35.454Z</time>
      </trkpt>
      <trkpt lat="46.87026" lon="8.51433">
        <ele>1578</ele>
        <time>2021-08-11T10:08:36.453Z</time>
      </trkpt>
      <trkpt lat="46.87025" lon="8.51432">
        <ele>1578</ele>
        <time>2021-08-11T10:08:37.454Z</time>
      </trkpt>
      <trkpt lat="46.87024" lon="8.5143">
        <ele>1578</ele>
        <time>2021-08-11T10:08:38.454Z</time>
      </trkpt>
      <trkpt lat="46.87022" lon="8.51427">
        <ele>1578</ele>
        <time>2021-08-11T10:08:39.453Z</time>
      </trkpt>
      <trkpt lat="46.87022" lon="8.51427">
        <ele>1578</ele>
        <time>2021-08-11T10:08:40.454Z</time>
      </trkpt>
      <trkpt lat="46.87021" lon="8.51426">
        <ele>1578</ele>
        <time>2021-08-11T10:08:41.454Z</time>
      </trkpt>
      <trkpt lat="46.8702" lon="8.51426">
        <ele>1578</ele>
        <time>2021-08-11T10:08:42.453Z</time>
      </trkpt>
      <trkpt lat="46.87019" lon="8.51426">
        <ele>1578</ele>
        <time>2021-08-11T10:08:43.454Z</time>
      </trkpt>
      <trkpt lat="46.87017" lon="8.51426">
        <ele>1577</ele>
        <time>2021-08-11T10:08:44.454Z</time>
      </trkpt>
      <trkpt lat="46.87016" lon="8.51425">
        <ele>1577</ele>
        <time>2021-08-11T10:08:45.454Z</time>
      </trkpt>
      <trkpt lat="46.87015" lon="8.51425">
        <ele>1577</ele>
        <time>2021-08-11T10:08:46.453Z</time>
      </trkpt>
      <trkpt lat="46.87014" lon="8.51425">
        <ele>1577</ele>
        <time>2021-08-11T10:08:47.453Z</time>
      </trkpt>
      <trkpt lat="46.87013" lon="8.51426">
        <ele>1577</ele>
        <time>2021-08-11T10:08:48.454Z</time>
      </trkpt>
      <trkpt lat="46.87013" lon="8.51426">
        <ele>1577</ele>
        <time>2021-08-11T10:08:49.453Z</time>
      </trkpt>
      <trkpt lat="46.87013" lon="8.51426">
        <ele>1577</ele>
        <time>2021-08-11T10:08:50.454Z</time>
      </trkpt>
      <trkpt lat="46.87012" lon="8.51426">
        <ele>1577</ele>
        <time>2021-08-11T10:08:51.455Z</time>
      </trkpt>
      <trkpt lat="46.87011" lon="8.51426">
        <ele>1577</ele>
        <time>2021-08-11T10:08:52.454Z</time>
      </trkpt>
      <trkpt lat="46.8701" lon="8.51425">
        <ele>1577</ele>
        <time>2021-08-11T10:08:53.455Z</time>
      </trkpt>
      <trkpt lat="46.87009" lon="8.51423">
        <ele>1577</ele>
        <time>2021-08-11T10:08:54.455Z</time>
      </trkpt>
      <trkpt lat="46.87008" lon="8.51423">
        <ele>1577</ele>
        <time>2021-08-11T10:08:55.455Z</time>
      </trkpt>
      <trkpt lat="46.87007" lon="8.51423">
        <ele>1577</ele>
        <time>2021-08-11T10:08:56.455Z</time>
      </trkpt>
      <trkpt lat="46.87006" lon="8.51422">
        <ele>1577</ele>
        <time>2021-08-11T10:08:57.455Z</time>
      </trkpt>
      <trkpt lat="46.87005" lon="8.51422">
        <ele>1577</ele>
        <time>2021-08-11T10:08:58.455Z</time>
      </trkpt>
      <trkpt lat="46.87005" lon="8.51422">
        <ele>1578</ele>
        <time>2021-08-11T10:08:59.455Z</time>
      </trkpt>
      <trkpt lat="46.87004" lon="8.51421">
        <ele>1577</ele>
        <time>2021-08-11T10:09:00.456Z</time>
      </trkpt>
      <trkpt lat="46.87004" lon="8.51422">
        <ele>1576</ele>
        <time>2021-08-11T10:09:01.456Z</time>
      </trkpt>
      <trkpt lat="46.87004" lon="8.51422">
        <ele>1576</ele>
        <time>2021-08-11T10:09:02.455Z</time>
      </trkpt>
      <trkpt lat="46.87004" lon="8.51421">
        <ele>1575</ele>
        <time>2021-08-11T10:09:03.456Z</time>
      </trkpt>
      <trkpt lat="46.87003" lon="8.51421">
        <ele>1575</ele>
        <time>2021-08-11T10:09:04.456Z</time>
      </trkpt>
      <trkpt lat="46.87003" lon="8.51421">
        <ele>1574</ele>
        <time>2021-08-11T10:09:05.455Z</time>
      </trkpt>
      <trkpt lat="46.87003" lon="8.51421">
        <ele>1573</ele>
        <time>2021-08-11T10:09:06.456Z</time>
      </trkpt>
      <trkpt lat="46.87007" lon="8.51425">
        <ele>1567</ele>
        <time>2021-08-11T10:09:07.457Z</time>
      </trkpt>
      <trkpt lat="46.87007" lon="8.51425">
        <ele>1567</ele>
        <time>2021-08-11T10:09:08.457Z</time>
      </trkpt>
      <trkpt lat="46.87007" lon="8.51425">
        <ele>1567</ele>
        <time>2021-08-11T10:09:09.456Z</time>
      </trkpt>
      <trkpt lat="46.87007" lon="8.51426">
        <ele>1568</ele>
        <time>2021-08-11T10:09:10.458Z</time>
      </trkpt>
      <trkpt lat="46.87006" lon="8.51426">
        <ele>1568</ele>
        <time>2021-08-11T10:09:11.457Z</time>
      </trkpt>
      <trkpt lat="46.87006" lon="8.51426">
        <ele>1568</ele>
        <time>2021-08-11T10:09:12.457Z</time>
      </trkpt>
      <trkpt lat="46.87005" lon="8.51427">
        <ele>1568</ele>
        <time>2021-08-11T10:09:13.458Z</time>
      </trkpt>
      <trkpt lat="46.87003" lon="8.51431">
        <ele>1567</ele>
        <time>2021-08-11T10:09:14.458Z</time>
      </trkpt>
      <trkpt lat="46.87003" lon="8.51431">
        <ele>1568</ele>
        <time>2021-08-11T10:09:15.458Z</time>
      </trkpt>
      <trkpt lat="46.87004" lon="8.51432">
        <ele>1568</ele>
        <time>2021-08-11T10:09:16.457Z</time>
      </trkpt>
      <trkpt lat="46.87004" lon="8.51432">
        <ele>1589</ele>
        <time>2021-08-11T10:09:17.457Z</time>
      </trkpt>
      <trkpt lat="46.87004" lon="8.51432">
        <ele>1589</ele>
        <time>2021-08-11T10:09:18.458Z</time>
      </trkpt>
      <trkpt lat="46.87005" lon="8.51435">
        <ele>1588</ele>
        <time>2021-08-11T10:09:19.458Z</time>
      </trkpt>
      <trkpt lat="46.87006" lon="8.51435">
        <ele>1587</ele>
        <time>2021-08-11T10:09:20.457Z</time>
      </trkpt>
      <trkpt lat="46.87006" lon="8.51434">
        <ele>1585</ele>
        <time>2021-08-11T10:09:21.457Z</time>
      </trkpt>
      <trkpt lat="46.87005" lon="8.51433">
        <ele>1584</ele>
        <time>2021-08-11T10:09:22.457Z</time>
      </trkpt>
      <trkpt lat="46.87005" lon="8.51432">
        <ele>1583</ele>
        <time>2021-08-11T10:09:23.457Z</time>
      </trkpt>
      <trkpt lat="46.87004" lon="8.51431">
        <ele>1581</ele>
        <time>2021-08-11T10:09:24.457Z</time>
      </trkpt>
      <trkpt lat="46.87003" lon="8.51431">
        <ele>1580</ele>
        <time>2021-08-11T10:09:25.457Z</time>
      </trkpt>
      <trkpt lat="46.87002" lon="8.51429">
        <ele>1579</ele>
        <time>2021-08-11T10:09:26.458Z</time>
      </trkpt>
      <trkpt lat="46.87002" lon="8.51428">
        <ele>1577</ele>
        <time>2021-08-11T10:09:27.457Z</time>
      </trkpt>
      <trkpt lat="46.87001" lon="8.51427">
        <ele>1576</ele>
        <time>2021-08-11T10:09:28.458Z</time>
      </trkpt>
      <trkpt lat="46.87001" lon="8.51426">
        <ele>1575</ele>
        <time>2021-08-11T10:09:29.458Z</time>
      </trkpt>
      <trkpt lat="46.87" lon="8.51425">
        <ele>1575</ele>
        <time>2021-08-11T10:09:30.458Z</time>
      </trkpt>
      <trkpt lat="46.87" lon="8.51425">
        <ele>1575</ele>
        <time>2021-08-11T10:09:31.457Z</time>
      </trkpt>
      <trkpt lat="46.86999" lon="8.51425">
        <ele>1575</ele>
        <time>2021-08-11T10:09:32.458Z</time>
      </trkpt>
      <trkpt lat="46.86998" lon="8.51424">
        <ele>1575</ele>
        <time>2021-08-11T10:09:33.457Z</time>
      </trkpt>
      <trkpt lat="46.86998" lon="8.51423">
        <ele>1574</ele>
        <time>2021-08-11T10:09:34.457Z</time>
      </trkpt>
      <trkpt lat="46.86997" lon="8.51421">
        <ele>1574</ele>
        <time>2021-08-11T10:09:35.457Z</time>
      </trkpt>
      <trkpt lat="46.86997" lon="8.5142">
        <ele>1574</ele>
        <time>2021-08-11T10:09:36.458Z</time>
      </trkpt>
      <trkpt lat="46.86997" lon="8.51419">
        <ele>1573</ele>
        <time>2021-08-11T10:09:37.458Z</time>
      </trkpt>
      <trkpt lat="46.86996" lon="8.51418">
        <ele>1573</ele>
        <time>2021-08-11T10:09:38.458Z</time>
      </trkpt>
      <trkpt lat="46.86996" lon="8.51417">
        <ele>1573</ele>
        <time>2021-08-11T10:09:39.457Z</time>
      </trkpt>
      <trkpt lat="46.86996" lon="8.51416">
        <ele>1572</ele>
        <time>2021-08-11T10:09:40.457Z</time>
      </trkpt>
      <trkpt lat="46.86995" lon="8.51415">
        <ele>1572</ele>
        <time>2021-08-11T10:09:41.458Z</time>
      </trkpt>
      <trkpt lat="46.86994" lon="8.51415">
        <ele>1572</ele>
        <time>2021-08-11T10:09:42.457Z</time>
      </trkpt>
      <trkpt lat="46.86994" lon="8.51415">
        <ele>1572</ele>
        <time>2021-08-11T10:09:43.458Z</time>
      </trkpt>
      <trkpt lat="46.86992" lon="8.51416">
        <ele>1572</ele>
        <time>2021-08-11T10:09:44.458Z</time>
      </trkpt>
      <trkpt lat="46.86993" lon="8.51416">
        <ele>1573</ele>
        <time>2021-08-11T10:09:45.458Z</time>
      </trkpt>
      <trkpt lat="46.86993" lon="8.51417">
        <ele>1574</ele>
        <time>2021-08-11T10:09:46.457Z</time>
      </trkpt>
      <trkpt lat="46.86992" lon="8.51417">
        <ele>1579</ele>
        <time>2021-08-11T10:09:47.459Z</time>
      </trkpt>
      <trkpt lat="46.86991" lon="8.51418">
        <ele>1580</ele>
        <time>2021-08-11T10:09:48.459Z</time>
      </trkpt>
      <trkpt lat="46.86991" lon="8.51419">
        <ele>1580</ele>
        <time>2021-08-11T10:09:49.458Z</time>
      </trkpt>
      <trkpt lat="46.86991" lon="8.51419">
        <ele>1580</ele>
        <time>2021-08-11T10:09:50.459Z</time>
      </trkpt>
      <trkpt lat="46.86991" lon="8.5142">
        <ele>1579</ele>
        <time>2021-08-11T10:09:51.459Z</time>
      </trkpt>
      <trkpt lat="46.8699" lon="8.51419">
        <ele>1579</ele>
        <time>2021-08-11T10:09:52.459Z</time>
      </trkpt>
      <trkpt lat="46.8699" lon="8.51418">
        <ele>1578</ele>
        <time>2021-08-11T10:09:53.459Z</time>
      </trkpt>
      <trkpt lat="46.8699" lon="8.51416">
        <ele>1578</ele>
        <time>2021-08-11T10:09:54.459Z</time>
      </trkpt>
      <trkpt lat="46.8699" lon="8.51415">
        <ele>1577</ele>
        <time>2021-08-11T10:09:55.459Z</time>
      </trkpt>
      <trkpt lat="46.8699" lon="8.51414">
        <ele>1576</ele>
        <time>2021-08-11T10:09:56.459Z</time>
      </trkpt>
      <trkpt lat="46.86989" lon="8.51413">
        <ele>1576</ele>
        <time>2021-08-11T10:09:57.459Z</time>
      </trkpt>
      <trkpt lat="46.86988" lon="8.51412">
        <ele>1575</ele>
        <time>2021-08-11T10:09:58.459Z</time>
      </trkpt>
      <trkpt lat="46.86988" lon="8.51411">
        <ele>1574</ele>
        <time>2021-08-11T10:09:59.458Z</time>
      </trkpt>
      <trkpt lat="46.86987" lon="8.51411">
        <ele>1574</ele>
        <time>2021-08-11T10:10:00.459Z</time>
      </trkpt>
      <trkpt lat="46.86986" lon="8.5141">
        <ele>1573</ele>
        <time>2021-08-11T10:10:01.459Z</time>
      </trkpt>
      <trkpt lat="46.86986" lon="8.5141">
        <ele>1573</ele>
        <time>2021-08-11T10:10:02.459Z</time>
      </trkpt>
      <trkpt lat="46.86985" lon="8.51409">
        <ele>1572</ele>
        <time>2021-08-11T10:10:03.459Z</time>
      </trkpt>
      <trkpt lat="46.86984" lon="8.51408">
        <ele>1572</ele>
        <time>2021-08-11T10:10:04.459Z</time>
      </trkpt>
      <trkpt lat="46.86983" lon="8.51408">
        <ele>1572</ele>
        <time>2021-08-11T10:10:05.459Z</time>
      </trkpt>
      <trkpt lat="46.86983" lon="8.51407">
        <ele>1572</ele>
        <time>2021-08-11T10:10:06.458Z</time>
      </trkpt>
      <trkpt lat="46.86982" lon="8.51405">
        <ele>1572</ele>
        <time>2021-08-11T10:10:07.459Z</time>
      </trkpt>
      <trkpt lat="46.86981" lon="8.51405">
        <ele>1572</ele>
        <time>2021-08-11T10:10:08.458Z</time>
      </trkpt>
      <trkpt lat="46.86981" lon="8.51404">
        <ele>1572</ele>
        <time>2021-08-11T10:10:09.459Z</time>
      </trkpt>
      <trkpt lat="46.8698" lon="8.51402">
        <ele>1573</ele>
        <time>2021-08-11T10:10:10.459Z</time>
      </trkpt>
      <trkpt lat="46.8698" lon="8.51401">
        <ele>1573</ele>
        <time>2021-08-11T10:10:11.459Z</time>
      </trkpt>
      <trkpt lat="46.86979" lon="8.514">
        <ele>1573</ele>
        <time>2021-08-11T10:10:12.459Z</time>
      </trkpt>
      <trkpt lat="46.86979" lon="8.51399">
        <ele>1573</ele>
        <time>2021-08-11T10:10:13.458Z</time>
      </trkpt>
      <trkpt lat="46.86977" lon="8.51398">
        <ele>1574</ele>
        <time>2021-08-11T10:10:14.458Z</time>
      </trkpt>
      <trkpt lat="46.86976" lon="8.51396">
        <ele>1574</ele>
        <time>2021-08-11T10:10:15.458Z</time>
      </trkpt>
      <trkpt lat="46.86976" lon="8.51393">
        <ele>1574</ele>
        <time>2021-08-11T10:10:16.459Z</time>
      </trkpt>
      <trkpt lat="46.86975" lon="8.51391">
        <ele>1574</ele>
        <time>2021-08-11T10:10:17.459Z</time>
      </trkpt>
      <trkpt lat="46.86975" lon="8.5139">
        <ele>1575</ele>
        <time>2021-08-11T10:10:18.458Z</time>
      </trkpt>
      <trkpt lat="46.86974" lon="8.51387">
        <ele>1575</ele>
        <time>2021-08-11T10:10:19.459Z</time>
      </trkpt>
      <trkpt lat="46.86973" lon="8.51384">
        <ele>1575</ele>
        <time>2021-08-11T10:10:20.459Z</time>
      </trkpt>
      <trkpt lat="46.86972" lon="8.51382">
        <ele>1575</ele>
        <time>2021-08-11T10:10:21.459Z</time>
      </trkpt>
      <trkpt lat="46.86971" lon="8.51381">
        <ele>1576</ele>
        <time>2021-08-11T10:10:22.458Z</time>
      </trkpt>
      <trkpt lat="46.86971" lon="8.51378">
        <ele>1576</ele>
        <time>2021-08-11T10:10:23.459Z</time>
      </trkpt>
      <trkpt lat="46.8697" lon="8.51376">
        <ele>1576</ele>
        <time>2021-08-11T10:10:24.459Z</time>
      </trkpt>
      <trkpt lat="46.86969" lon="8.51375">
        <ele>1577</ele>
        <time>2021-08-11T10:10:25.459Z</time>
      </trkpt>
      <trkpt lat="46.86969" lon="8.51374">
        <ele>1577</ele>
        <time>2021-08-11T10:10:26.458Z</time>
      </trkpt>
      <trkpt lat="46.86969" lon="8.51371">
        <ele>1577</ele>
        <time>2021-08-11T10:10:27.459Z</time>
      </trkpt>
      <trkpt lat="46.86968" lon="8.5137">
        <ele>1577</ele>
        <time>2021-08-11T10:10:28.459Z</time>
      </trkpt>
      <trkpt lat="46.86967" lon="8.51369">
        <ele>1576</ele>
        <time>2021-08-11T10:10:29.459Z</time>
      </trkpt>
      <trkpt lat="46.86966" lon="8.51368">
        <ele>1576</ele>
        <time>2021-08-11T10:10:30.459Z</time>
      </trkpt>
      <trkpt lat="46.86966" lon="8.51368">
        <ele>1575</ele>
        <time>2021-08-11T10:10:31.459Z</time>
      </trkpt>
      <trkpt lat="46.86965" lon="8.51367">
        <ele>1574</ele>
        <time>2021-08-11T10:10:32.458Z</time>
      </trkpt>
      <trkpt lat="46.86964" lon="8.51367">
        <ele>1574</ele>
        <time>2021-08-11T10:10:33.459Z</time>
      </trkpt>
      <trkpt lat="46.86964" lon="8.51366">
        <ele>1573</ele>
        <time>2021-08-11T10:10:34.459Z</time>
      </trkpt>
      <trkpt lat="46.86963" lon="8.51366">
        <ele>1572</ele>
        <time>2021-08-11T10:10:35.459Z</time>
      </trkpt>
      <trkpt lat="46.86962" lon="8.51365">
        <ele>1572</ele>
        <time>2021-08-11T10:10:36.459Z</time>
      </trkpt>
      <trkpt lat="46.86961" lon="8.51365">
        <ele>1571</ele>
        <time>2021-08-11T10:10:37.459Z</time>
      </trkpt>
      <trkpt lat="46.86961" lon="8.51365">
        <ele>1571</ele>
        <time>2021-08-11T10:10:38.458Z</time>
      </trkpt>
      <trkpt lat="46.8696" lon="8.51364">
        <ele>1570</ele>
        <time>2021-08-11T10:10:39.459Z</time>
      </trkpt>
      <trkpt lat="46.86959" lon="8.51364">
        <ele>1570</ele>
        <time>2021-08-11T10:10:40.459Z</time>
      </trkpt>
      <trkpt lat="46.86958" lon="8.51363">
        <ele>1569</ele>
        <time>2021-08-11T10:10:41.459Z</time>
      </trkpt>
      <trkpt lat="46.86958" lon="8.51362">
        <ele>1568</ele>
        <time>2021-08-11T10:10:42.459Z</time>
      </trkpt>
      <trkpt lat="46.86957" lon="8.51362">
        <ele>1567</ele>
        <time>2021-08-11T10:10:43.459Z</time>
      </trkpt>
      <trkpt lat="46.86956" lon="8.51361">
        <ele>1566</ele>
        <time>2021-08-11T10:10:44.458Z</time>
      </trkpt>
      <trkpt lat="46.86955" lon="8.51361">
        <ele>1565</ele>
        <time>2021-08-11T10:10:45.458Z</time>
      </trkpt>
      <trkpt lat="46.86955" lon="8.5136">
        <ele>1563</ele>
        <time>2021-08-11T10:10:46.459Z</time>
      </trkpt>
      <trkpt lat="46.86954" lon="8.51359">
        <ele>1562</ele>
        <time>2021-08-11T10:10:47.459Z</time>
      </trkpt>
      <trkpt lat="46.86954" lon="8.51358">
        <ele>1562</ele>
        <time>2021-08-11T10:10:48.459Z</time>
      </trkpt>
      <trkpt lat="46.86953" lon="8.51358">
        <ele>1561</ele>
        <time>2021-08-11T10:10:49.459Z</time>
      </trkpt>
      <trkpt lat="46.86952" lon="8.51357">
        <ele>1561</ele>
        <time>2021-08-11T10:10:50.458Z</time>
      </trkpt>
      <trkpt lat="46.86952" lon="8.51355">
        <ele>1561</ele>
        <time>2021-08-11T10:10:51.459Z</time>
      </trkpt>
      <trkpt lat="46.86951" lon="8.51354">
        <ele>1560</ele>
        <time>2021-08-11T10:10:52.458Z</time>
      </trkpt>
      <trkpt lat="46.86951" lon="8.51353">
        <ele>1560</ele>
        <time>2021-08-11T10:10:53.459Z</time>
      </trkpt>
      <trkpt lat="46.8695" lon="8.51352">
        <ele>1560</ele>
        <time>2021-08-11T10:10:54.458Z</time>
      </trkpt>
      <trkpt lat="46.86949" lon="8.51351">
        <ele>1560</ele>
        <time>2021-08-11T10:10:55.459Z</time>
      </trkpt>
      <trkpt lat="46.86949" lon="8.5135">
        <ele>1559</ele>
        <time>2021-08-11T10:10:56.459Z</time>
      </trkpt>
      <trkpt lat="46.86949" lon="8.51348">
        <ele>1559</ele>
        <time>2021-08-11T10:10:57.459Z</time>
      </trkpt>
      <trkpt lat="46.86948" lon="8.51347">
        <ele>1558</ele>
        <time>2021-08-11T10:10:58.459Z</time>
      </trkpt>
      <trkpt lat="46.86947" lon="8.51346">
        <ele>1558</ele>
        <time>2021-08-11T10:10:59.459Z</time>
      </trkpt>
      <trkpt lat="46.86946" lon="8.51346">
        <ele>1557</ele>
        <time>2021-08-11T10:11:00.459Z</time>
      </trkpt>
      <trkpt lat="46.86945" lon="8.51345">
        <ele>1557</ele>
        <time>2021-08-11T10:11:01.458Z</time>
      </trkpt>
      <trkpt lat="46.86944" lon="8.51344">
        <ele>1557</ele>
        <time>2021-08-11T10:11:02.459Z</time>
      </trkpt>
      <trkpt lat="46.86944" lon="8.51343">
        <ele>1556</ele>
        <time>2021-08-11T10:11:03.459Z</time>
      </trkpt>
      <trkpt lat="46.86944" lon="8.51342">
        <ele>1555</ele>
        <time>2021-08-11T10:11:04.459Z</time>
      </trkpt>
      <trkpt lat="46.86944" lon="8.51341">
        <ele>1555</ele>
        <time>2021-08-11T10:11:05.459Z</time>
      </trkpt>
      <trkpt lat="46.86944" lon="8.5134">
        <ele>1555</ele>
        <time>2021-08-11T10:11:06.459Z</time>
      </trkpt>
      <trkpt lat="46.86943" lon="8.51338">
        <ele>1555</ele>
        <time>2021-08-11T10:11:07.459Z</time>
      </trkpt>
      <trkpt lat="46.86942" lon="8.51336">
        <ele>1555</ele>
        <time>2021-08-11T10:11:08.459Z</time>
      </trkpt>
      <trkpt lat="46.86941" lon="8.51335">
        <ele>1555</ele>
        <time>2021-08-11T10:11:09.458Z</time>
      </trkpt>
      <trkpt lat="46.8694" lon="8.51333">
        <ele>1555</ele>
        <time>2021-08-11T10:11:10.459Z</time>
      </trkpt>
      <trkpt lat="46.86939" lon="8.51332">
        <ele>1555</ele>
        <time>2021-08-11T10:11:11.459Z</time>
      </trkpt>
      <trkpt lat="46.86938" lon="8.5133">
        <ele>1555</ele>
        <time>2021-08-11T10:11:12.459Z</time>
      </trkpt>
      <trkpt lat="46.86937" lon="8.51329">
        <ele>1555</ele>
        <time>2021-08-11T10:11:13.459Z</time>
      </trkpt>
      <trkpt lat="46.86936" lon="8.51326">
        <ele>1554</ele>
        <time>2021-08-11T10:11:14.459Z</time>
      </trkpt>
      <trkpt lat="46.86935" lon="8.51324">
        <ele>1553</ele>
        <time>2021-08-11T10:11:15.459Z</time>
      </trkpt>
      <trkpt lat="46.86935" lon="8.51323">
        <ele>1552</ele>
        <time>2021-08-11T10:11:16.458Z</time>
      </trkpt>
      <trkpt lat="46.86934" lon="8.51321">
        <ele>1552</ele>
        <time>2021-08-11T10:11:17.458Z</time>
      </trkpt>
      <trkpt lat="46.86933" lon="8.5132">
        <ele>1551</ele>
        <time>2021-08-11T10:11:18.459Z</time>
      </trkpt>
      <trkpt lat="46.86932" lon="8.51319">
        <ele>1551</ele>
        <time>2021-08-11T10:11:19.459Z</time>
      </trkpt>
      <trkpt lat="46.86931" lon="8.51317">
        <ele>1550</ele>
        <time>2021-08-11T10:11:20.458Z</time>
      </trkpt>
      <trkpt lat="46.8693" lon="8.51316">
        <ele>1550</ele>
        <time>2021-08-11T10:11:21.459Z</time>
      </trkpt>
      <trkpt lat="46.8693" lon="8.51315">
        <ele>1550</ele>
        <time>2021-08-11T10:11:22.459Z</time>
      </trkpt>
      <trkpt lat="46.86928" lon="8.51313">
        <ele>1550</ele>
        <time>2021-08-11T10:11:23.458Z</time>
      </trkpt>
      <trkpt lat="46.86928" lon="8.51313">
        <ele>1551</ele>
        <time>2021-08-11T10:11:24.459Z</time>
      </trkpt>
      <trkpt lat="46.86927" lon="8.51312">
        <ele>1551</ele>
        <time>2021-08-11T10:11:25.458Z</time>
      </trkpt>
      <trkpt lat="46.86925" lon="8.51311">
        <ele>1551</ele>
        <time>2021-08-11T10:11:26.458Z</time>
      </trkpt>
      <trkpt lat="46.86924" lon="8.51311">
        <ele>1551</ele>
        <time>2021-08-11T10:11:27.458Z</time>
      </trkpt>
      <trkpt lat="46.86923" lon="8.51311">
        <ele>1551</ele>
        <time>2021-08-11T10:11:28.458Z</time>
      </trkpt>
      <trkpt lat="46.86922" lon="8.5131">
        <ele>1551</ele>
        <time>2021-08-11T10:11:29.459Z</time>
      </trkpt>
      <trkpt lat="46.8692" lon="8.51308">
        <ele>1552</ele>
        <time>2021-08-11T10:11:30.459Z</time>
      </trkpt>
      <trkpt lat="46.8692" lon="8.51307">
        <ele>1552</ele>
        <time>2021-08-11T10:11:31.459Z</time>
      </trkpt>
      <trkpt lat="46.86919" lon="8.51306">
        <ele>1552</ele>
        <time>2021-08-11T10:11:32.459Z</time>
      </trkpt>
      <trkpt lat="46.86917" lon="8.51305">
        <ele>1553</ele>
        <time>2021-08-11T10:11:33.458Z</time>
      </trkpt>
      <trkpt lat="46.86915" lon="8.51304">
        <ele>1553</ele>
        <time>2021-08-11T10:11:34.459Z</time>
      </trkpt>
      <trkpt lat="46.86913" lon="8.51303">
        <ele>1553</ele>
        <time>2021-08-11T10:11:35.459Z</time>
      </trkpt>
      <trkpt lat="46.86912" lon="8.51303">
        <ele>1553</ele>
        <time>2021-08-11T10:11:36.459Z</time>
      </trkpt>
      <trkpt lat="46.86911" lon="8.51302">
        <ele>1554</ele>
        <time>2021-08-11T10:11:37.459Z</time>
      </trkpt>
      <trkpt lat="46.8691" lon="8.513">
        <ele>1554</ele>
        <time>2021-08-11T10:11:38.458Z</time>
      </trkpt>
      <trkpt lat="46.86908" lon="8.51299">
        <ele>1555</ele>
        <time>2021-08-11T10:11:39.458Z</time>
      </trkpt>
      <trkpt lat="46.86907" lon="8.51298">
        <ele>1555</ele>
        <time>2021-08-11T10:11:40.459Z</time>
      </trkpt>
      <trkpt lat="46.86905" lon="8.51297">
        <ele>1555</ele>
        <time>2021-08-11T10:11:41.459Z</time>
      </trkpt>
      <trkpt lat="46.86904" lon="8.51297">
        <ele>1555</ele>
        <time>2021-08-11T10:11:42.459Z</time>
      </trkpt>
      <trkpt lat="46.86902" lon="8.51297">
        <ele>1554</ele>
        <time>2021-08-11T10:11:43.459Z</time>
      </trkpt>
      <trkpt lat="46.86901" lon="8.51297">
        <ele>1554</ele>
        <time>2021-08-11T10:11:44.459Z</time>
      </trkpt>
      <trkpt lat="46.869" lon="8.51297">
        <ele>1553</ele>
        <time>2021-08-11T10:11:45.458Z</time>
      </trkpt>
      <trkpt lat="46.86899" lon="8.51297">
        <ele>1553</ele>
        <time>2021-08-11T10:11:46.459Z</time>
      </trkpt>
      <trkpt lat="46.86898" lon="8.51296">
        <ele>1552</ele>
        <time>2021-08-11T10:11:47.459Z</time>
      </trkpt>
      <trkpt lat="46.86898" lon="8.51296">
        <ele>1552</ele>
        <time>2021-08-11T10:11:48.459Z</time>
      </trkpt>
      <trkpt lat="46.86897" lon="8.51296">
        <ele>1551</ele>
        <time>2021-08-11T10:11:49.459Z</time>
      </trkpt>
      <trkpt lat="46.86896" lon="8.51296">
        <ele>1551</ele>
        <time>2021-08-11T10:11:50.458Z</time>
      </trkpt>
      <trkpt lat="46.86895" lon="8.51295">
        <ele>1550</ele>
        <time>2021-08-11T10:11:51.459Z</time>
      </trkpt>
      <trkpt lat="46.86894" lon="8.51295">
        <ele>1550</ele>
        <time>2021-08-11T10:11:52.459Z</time>
      </trkpt>
      <trkpt lat="46.86893" lon="8.51295">
        <ele>1550</ele>
        <time>2021-08-11T10:11:53.459Z</time>
      </trkpt>
      <trkpt lat="46.86893" lon="8.51295">
        <ele>1549</ele>
        <time>2021-08-11T10:11:54.458Z</time>
      </trkpt>
      <trkpt lat="46.86892" lon="8.51294">
        <ele>1549</ele>
        <time>2021-08-11T10:11:55.459Z</time>
      </trkpt>
      <trkpt lat="46.8689" lon="8.51294">
        <ele>1549</ele>
        <time>2021-08-11T10:11:56.459Z</time>
      </trkpt>
      <trkpt lat="46.8689" lon="8.51294">
        <ele>1549</ele>
        <time>2021-08-11T10:11:57.458Z</time>
      </trkpt>
      <trkpt lat="46.86889" lon="8.51293">
        <ele>1548</ele>
        <time>2021-08-11T10:11:58.458Z</time>
      </trkpt>
      <trkpt lat="46.86887" lon="8.51292">
        <ele>1548</ele>
        <time>2021-08-11T10:11:59.459Z</time>
      </trkpt>
      <trkpt lat="46.86886" lon="8.51291">
        <ele>1548</ele>
        <time>2021-08-11T10:12:00.459Z</time>
      </trkpt>
      <trkpt lat="46.86885" lon="8.51291">
        <ele>1548</ele>
        <time>2021-08-11T10:12:01.458Z</time>
      </trkpt>
      <trkpt lat="46.86885" lon="8.5129">
        <ele>1548</ele>
        <time>2021-08-11T10:12:02.459Z</time>
      </trkpt>
      <trkpt lat="46.86883" lon="8.5129">
        <ele>1549</ele>
        <time>2021-08-11T10:12:03.458Z</time>
      </trkpt>
      <trkpt lat="46.86882" lon="8.5129">
        <ele>1549</ele>
        <time>2021-08-11T10:12:04.459Z</time>
      </trkpt>
      <trkpt lat="46.86881" lon="8.51289">
        <ele>1549</ele>
        <time>2021-08-11T10:12:05.459Z</time>
      </trkpt>
      <trkpt lat="46.8688" lon="8.51289">
        <ele>1549</ele>
        <time>2021-08-11T10:12:06.459Z</time>
      </trkpt>
      <trkpt lat="46.86879" lon="8.51289">
        <ele>1549</ele>
        <time>2021-08-11T10:12:07.459Z</time>
      </trkpt>
      <trkpt lat="46.86878" lon="8.51289">
        <ele>1549</ele>
        <time>2021-08-11T10:12:08.458Z</time>
      </trkpt>
      <trkpt lat="46.86877" lon="8.51289">
        <ele>1548</ele>
        <time>2021-08-11T10:12:09.459Z</time>
      </trkpt>
      <trkpt lat="46.86876" lon="8.51289">
        <ele>1548</ele>
        <time>2021-08-11T10:12:10.459Z</time>
      </trkpt>
      <trkpt lat="46.86876" lon="8.51289">
        <ele>1547</ele>
        <time>2021-08-11T10:12:11.459Z</time>
      </trkpt>
      <trkpt lat="46.86875" lon="8.51288">
        <ele>1547</ele>
        <time>2021-08-11T10:12:12.459Z</time>
      </trkpt>
      <trkpt lat="46.86874" lon="8.51288">
        <ele>1547</ele>
        <time>2021-08-11T10:12:13.459Z</time>
      </trkpt>
      <trkpt lat="46.86873" lon="8.51288">
        <ele>1547</ele>
        <time>2021-08-11T10:12:14.458Z</time>
      </trkpt>
      <trkpt lat="46.86872" lon="8.51289">
        <ele>1546</ele>
        <time>2021-08-11T10:12:15.459Z</time>
      </trkpt>
      <trkpt lat="46.86871" lon="8.51289">
        <ele>1546</ele>
        <time>2021-08-11T10:12:16.459Z</time>
      </trkpt>
      <trkpt lat="46.8687" lon="8.51288">
        <ele>1546</ele>
        <time>2021-08-11T10:12:17.459Z</time>
      </trkpt>
      <trkpt lat="46.86869" lon="8.51289">
        <ele>1546</ele>
        <time>2021-08-11T10:12:18.458Z</time>
      </trkpt>
      <trkpt lat="46.86868" lon="8.51289">
        <ele>1546</ele>
        <time>2021-08-11T10:12:19.458Z</time>
      </trkpt>
      <trkpt lat="46.86866" lon="8.51289">
        <ele>1546</ele>
        <time>2021-08-11T10:12:20.459Z</time>
      </trkpt>
      <trkpt lat="46.86865" lon="8.51288">
        <ele>1546</ele>
        <time>2021-08-11T10:12:21.459Z</time>
      </trkpt>
      <trkpt lat="46.86864" lon="8.51288">
        <ele>1546</ele>
        <time>2021-08-11T10:12:22.459Z</time>
      </trkpt>
      <trkpt lat="46.86863" lon="8.51287">
        <ele>1546</ele>
        <time>2021-08-11T10:12:23.459Z</time>
      </trkpt>
      <trkpt lat="46.86862" lon="8.51287">
        <ele>1546</ele>
        <time>2021-08-11T10:12:24.458Z</time>
      </trkpt>
      <trkpt lat="46.8686" lon="8.51287">
        <ele>1546</ele>
        <time>2021-08-11T10:12:25.458Z</time>
      </trkpt>
      <trkpt lat="46.86859" lon="8.51286">
        <ele>1546</ele>
        <time>2021-08-11T10:12:26.459Z</time>
      </trkpt>
      <trkpt lat="46.86858" lon="8.51286">
        <ele>1546</ele>
        <time>2021-08-11T10:12:27.459Z</time>
      </trkpt>
      <trkpt lat="46.86857" lon="8.51286">
        <ele>1545</ele>
        <time>2021-08-11T10:12:28.459Z</time>
      </trkpt>
      <trkpt lat="46.86856" lon="8.51285">
        <ele>1545</ele>
        <time>2021-08-11T10:12:29.459Z</time>
      </trkpt>
      <trkpt lat="46.86855" lon="8.51284">
        <ele>1544</ele>
        <time>2021-08-11T10:12:30.458Z</time>
      </trkpt>
      <trkpt lat="46.86854" lon="8.51283">
        <ele>1543</ele>
        <time>2021-08-11T10:12:31.459Z</time>
      </trkpt>
      <trkpt lat="46.86853" lon="8.51282">
        <ele>1543</ele>
        <time>2021-08-11T10:12:32.458Z</time>
      </trkpt>
      <trkpt lat="46.86852" lon="8.51282">
        <ele>1542</ele>
        <time>2021-08-11T10:12:33.458Z</time>
      </trkpt>
      <trkpt lat="46.86851" lon="8.51281">
        <ele>1542</ele>
        <time>2021-08-11T10:12:34.458Z</time>
      </trkpt>
      <trkpt lat="46.8685" lon="8.5128">
        <ele>1542</ele>
        <time>2021-08-11T10:12:35.458Z</time>
      </trkpt>
      <trkpt lat="46.86849" lon="8.51279">
        <ele>1541</ele>
        <time>2021-08-11T10:12:36.458Z</time>
      </trkpt>
      <trkpt lat="46.86847" lon="8.51278">
        <ele>1541</ele>
        <time>2021-08-11T10:12:37.459Z</time>
      </trkpt>
      <trkpt lat="46.86846" lon="8.51278">
        <ele>1541</ele>
        <time>2021-08-11T10:12:38.459Z</time>
      </trkpt>
      <trkpt lat="46.86845" lon="8.51277">
        <ele>1541</ele>
        <time>2021-08-11T10:12:39.458Z</time>
      </trkpt>
      <trkpt lat="46.86845" lon="8.51277">
        <ele>1541</ele>
        <time>2021-08-11T10:12:40.458Z</time>
      </trkpt>
      <trkpt lat="46.86844" lon="8.51276">
        <ele>1541</ele>
        <time>2021-08-11T10:12:41.459Z</time>
      </trkpt>
      <trkpt lat="46.86842" lon="8.51276">
        <ele>1541</ele>
        <time>2021-08-11T10:12:42.458Z</time>
      </trkpt>
      <trkpt lat="46.86841" lon="8.51275">
        <ele>1541</ele>
        <time>2021-08-11T10:12:43.459Z</time>
      </trkpt>
      <trkpt lat="46.8684" lon="8.51274">
        <ele>1541</ele>
        <time>2021-08-11T10:12:44.458Z</time>
      </trkpt>
      <trkpt lat="46.86839" lon="8.51272">
        <ele>1541</ele>
        <time>2021-08-11T10:12:45.458Z</time>
      </trkpt>
      <trkpt lat="46.86838" lon="8.51272">
        <ele>1541</ele>
        <time>2021-08-11T10:12:46.459Z</time>
      </trkpt>
      <trkpt lat="46.86837" lon="8.51272">
        <ele>1541</ele>
        <time>2021-08-11T10:12:47.458Z</time>
      </trkpt>
      <trkpt lat="46.86836" lon="8.51273">
        <ele>1541</ele>
        <time>2021-08-11T10:12:48.459Z</time>
      </trkpt>
      <trkpt lat="46.86834" lon="8.5127">
        <ele>1541</ele>
        <time>2021-08-11T10:12:49.459Z</time>
      </trkpt>
      <trkpt lat="46.86833" lon="8.5127">
        <ele>1541</ele>
        <time>2021-08-11T10:12:50.458Z</time>
      </trkpt>
      <trkpt lat="46.86832" lon="8.51269">
        <ele>1540</ele>
        <time>2021-08-11T10:12:51.459Z</time>
      </trkpt>
      <trkpt lat="46.8683" lon="8.51269">
        <ele>1540</ele>
        <time>2021-08-11T10:12:52.459Z</time>
      </trkpt>
      <trkpt lat="46.86829" lon="8.51268">
        <ele>1540</ele>
        <time>2021-08-11T10:12:53.459Z</time>
      </trkpt>
      <trkpt lat="46.86828" lon="8.51267">
        <ele>1540</ele>
        <time>2021-08-11T10:12:54.459Z</time>
      </trkpt>
      <trkpt lat="46.86826" lon="8.51267">
        <ele>1540</ele>
        <time>2021-08-11T10:12:55.458Z</time>
      </trkpt>
      <trkpt lat="46.86825" lon="8.51266">
        <ele>1540</ele>
        <time>2021-08-11T10:12:56.459Z</time>
      </trkpt>
      <trkpt lat="46.86823" lon="8.51265">
        <ele>1540</ele>
        <time>2021-08-11T10:12:57.459Z</time>
      </trkpt>
      <trkpt lat="46.86822" lon="8.51264">
        <ele>1540</ele>
        <time>2021-08-11T10:12:58.459Z</time>
      </trkpt>
      <trkpt lat="46.86821" lon="8.51263">
        <ele>1541</ele>
        <time>2021-08-11T10:12:59.459Z</time>
      </trkpt>
      <trkpt lat="46.86819" lon="8.51263">
        <ele>1541</ele>
        <time>2021-08-11T10:13:00.459Z</time>
      </trkpt>
      <trkpt lat="46.86819" lon="8.51263">
        <ele>1541</ele>
        <time>2021-08-11T10:13:01.458Z</time>
      </trkpt>
      <trkpt lat="46.86818" lon="8.51262">
        <ele>1542</ele>
        <time>2021-08-11T10:13:02.459Z</time>
      </trkpt>
      <trkpt lat="46.86817" lon="8.51261">
        <ele>1542</ele>
        <time>2021-08-11T10:13:03.458Z</time>
      </trkpt>
      <trkpt lat="46.86817" lon="8.51259">
        <ele>1542</ele>
        <time>2021-08-11T10:13:04.459Z</time>
      </trkpt>
      <trkpt lat="46.86816" lon="8.51259">
        <ele>1542</ele>
        <time>2021-08-11T10:13:05.459Z</time>
      </trkpt>
      <trkpt lat="46.86815" lon="8.51257">
        <ele>1542</ele>
        <time>2021-08-11T10:13:06.459Z</time>
      </trkpt>
      <trkpt lat="46.86814" lon="8.51257">
        <ele>1542</ele>
        <time>2021-08-11T10:13:07.458Z</time>
      </trkpt>
      <trkpt lat="46.86813" lon="8.51256">
        <ele>1543</ele>
        <time>2021-08-11T10:13:08.458Z</time>
      </trkpt>
      <trkpt lat="46.86812" lon="8.51255">
        <ele>1543</ele>
        <time>2021-08-11T10:13:09.459Z</time>
      </trkpt>
      <trkpt lat="46.86811" lon="8.51253">
        <ele>1543</ele>
        <time>2021-08-11T10:13:10.459Z</time>
      </trkpt>
      <trkpt lat="46.86809" lon="8.51252">
        <ele>1543</ele>
        <time>2021-08-11T10:13:11.459Z</time>
      </trkpt>
      <trkpt lat="46.86808" lon="8.51252">
        <ele>1543</ele>
        <time>2021-08-11T10:13:12.459Z</time>
      </trkpt>
      <trkpt lat="46.86807" lon="8.51251">
        <ele>1544</ele>
        <time>2021-08-11T10:13:13.459Z</time>
      </trkpt>
      <trkpt lat="46.86806" lon="8.51251">
        <ele>1544</ele>
        <time>2021-08-11T10:13:14.458Z</time>
      </trkpt>
      <trkpt lat="46.86805" lon="8.5125">
        <ele>1545</ele>
        <time>2021-08-11T10:13:15.459Z</time>
      </trkpt>
      <trkpt lat="46.86804" lon="8.51249">
        <ele>1545</ele>
        <time>2021-08-11T10:13:16.458Z</time>
      </trkpt>
      <trkpt lat="46.86802" lon="8.51249">
        <ele>1545</ele>
        <time>2021-08-11T10:13:17.458Z</time>
      </trkpt>
      <trkpt lat="46.86802" lon="8.51248">
        <ele>1545</ele>
        <time>2021-08-11T10:13:18.459Z</time>
      </trkpt>
      <trkpt lat="46.86801" lon="8.51248">
        <ele>1545</ele>
        <time>2021-08-11T10:13:19.458Z</time>
      </trkpt>
      <trkpt lat="46.868" lon="8.51247">
        <ele>1545</ele>
        <time>2021-08-11T10:13:20.459Z</time>
      </trkpt>
      <trkpt lat="46.86798" lon="8.51247">
        <ele>1545</ele>
        <time>2021-08-11T10:13:21.459Z</time>
      </trkpt>
      <trkpt lat="46.86797" lon="8.51246">
        <ele>1545</ele>
        <time>2021-08-11T10:13:22.458Z</time>
      </trkpt>
      <trkpt lat="46.86796" lon="8.51246">
        <ele>1545</ele>
        <time>2021-08-11T10:13:23.459Z</time>
      </trkpt>
      <trkpt lat="46.86796" lon="8.51245">
        <ele>1544</ele>
        <time>2021-08-11T10:13:24.458Z</time>
      </trkpt>
      <trkpt lat="46.86795" lon="8.51245">
        <ele>1544</ele>
        <time>2021-08-11T10:13:25.459Z</time>
      </trkpt>
      <trkpt lat="46.86794" lon="8.51244">
        <ele>1543</ele>
        <time>2021-08-11T10:13:26.459Z</time>
      </trkpt>
      <trkpt lat="46.86792" lon="8.51242">
        <ele>1543</ele>
        <time>2021-08-11T10:13:27.458Z</time>
      </trkpt>
      <trkpt lat="46.86791" lon="8.51242">
        <ele>1542</ele>
        <time>2021-08-11T10:13:28.459Z</time>
      </trkpt>
      <trkpt lat="46.8679" lon="8.51241">
        <ele>1542</ele>
        <time>2021-08-11T10:13:29.459Z</time>
      </trkpt>
      <trkpt lat="46.86789" lon="8.5124">
        <ele>1541</ele>
        <time>2021-08-11T10:13:30.459Z</time>
      </trkpt>
      <trkpt lat="46.86787" lon="8.51238">
        <ele>1541</ele>
        <time>2021-08-11T10:13:31.459Z</time>
      </trkpt>
      <trkpt lat="46.86786" lon="8.51238">
        <ele>1540</ele>
        <time>2021-08-11T10:13:32.459Z</time>
      </trkpt>
      <trkpt lat="46.86786" lon="8.51237">
        <ele>1539</ele>
        <time>2021-08-11T10:13:33.458Z</time>
      </trkpt>
      <trkpt lat="46.86785" lon="8.51238">
        <ele>1538</ele>
        <time>2021-08-11T10:13:34.459Z</time>
      </trkpt>
      <trkpt lat="46.86785" lon="8.51238">
        <ele>1537</ele>
        <time>2021-08-11T10:13:35.458Z</time>
      </trkpt>
      <trkpt lat="46.86783" lon="8.51237">
        <ele>1536</ele>
        <time>2021-08-11T10:13:36.459Z</time>
      </trkpt>
      <trkpt lat="46.86781" lon="8.51235">
        <ele>1535</ele>
        <time>2021-08-11T10:13:37.459Z</time>
      </trkpt>
      <trkpt lat="46.8678" lon="8.51233">
        <ele>1534</ele>
        <time>2021-08-11T10:13:38.459Z</time>
      </trkpt>
      <trkpt lat="46.86779" lon="8.51231">
        <ele>1533</ele>
        <time>2021-08-11T10:13:39.459Z</time>
      </trkpt>
      <trkpt lat="46.86777" lon="8.51229">
        <ele>1533</ele>
        <time>2021-08-11T10:13:40.459Z</time>
      </trkpt>
      <trkpt lat="46.86776" lon="8.51228">
        <ele>1532</ele>
        <time>2021-08-11T10:13:41.459Z</time>
      </trkpt>
      <trkpt lat="46.86775" lon="8.51227">
        <ele>1531</ele>
        <time>2021-08-11T10:13:42.459Z</time>
      </trkpt>
      <trkpt lat="46.86774" lon="8.51227">
        <ele>1531</ele>
        <time>2021-08-11T10:13:43.458Z</time>
      </trkpt>
      <trkpt lat="46.86773" lon="8.51226">
        <ele>1531</ele>
        <time>2021-08-11T10:13:44.458Z</time>
      </trkpt>
      <trkpt lat="46.86773" lon="8.51226">
        <ele>1530</ele>
        <time>2021-08-11T10:13:45.459Z</time>
      </trkpt>
      <trkpt lat="46.86772" lon="8.51226">
        <ele>1530</ele>
        <time>2021-08-11T10:13:46.459Z</time>
      </trkpt>
      <trkpt lat="46.86771" lon="8.51226">
        <ele>1530</ele>
        <time>2021-08-11T10:13:47.459Z</time>
      </trkpt>
      <trkpt lat="46.8677" lon="8.51226">
        <ele>1530</ele>
        <time>2021-08-11T10:13:48.459Z</time>
      </trkpt>
      <trkpt lat="46.86769" lon="8.51226">
        <ele>1530</ele>
        <time>2021-08-11T10:13:49.459Z</time>
      </trkpt>
      <trkpt lat="46.86769" lon="8.51226">
        <ele>1530</ele>
        <time>2021-08-11T10:13:50.459Z</time>
      </trkpt>
      <trkpt lat="46.86768" lon="8.51226">
        <ele>1530</ele>
        <time>2021-08-11T10:13:51.459Z</time>
      </trkpt>
      <trkpt lat="46.86767" lon="8.51226">
        <ele>1531</ele>
        <time>2021-08-11T10:13:52.459Z</time>
      </trkpt>
      <trkpt lat="46.86766" lon="8.51225">
        <ele>1531</ele>
        <time>2021-08-11T10:13:53.459Z</time>
      </trkpt>
      <trkpt lat="46.86765" lon="8.51224">
        <ele>1530</ele>
        <time>2021-08-11T10:13:54.459Z</time>
      </trkpt>
      <trkpt lat="46.86764" lon="8.51224">
        <ele>1530</ele>
        <time>2021-08-11T10:13:55.459Z</time>
      </trkpt>
      <trkpt lat="46.86763" lon="8.51223">
        <ele>1529</ele>
        <time>2021-08-11T10:13:56.458Z</time>
      </trkpt>
      <trkpt lat="46.86761" lon="8.51221">
        <ele>1529</ele>
        <time>2021-08-11T10:13:57.459Z</time>
      </trkpt>
      <trkpt lat="46.8676" lon="8.5122">
        <ele>1528</ele>
        <time>2021-08-11T10:13:58.458Z</time>
      </trkpt>
      <trkpt lat="46.86759" lon="8.5122">
        <ele>1528</ele>
        <time>2021-08-11T10:13:59.459Z</time>
      </trkpt>
      <trkpt lat="46.86757" lon="8.5122">
        <ele>1527</ele>
        <time>2021-08-11T10:14:00.458Z</time>
      </trkpt>
      <trkpt lat="46.86756" lon="8.51219">
        <ele>1526</ele>
        <time>2021-08-11T10:14:01.459Z</time>
      </trkpt>
      <trkpt lat="46.86755" lon="8.51219">
        <ele>1525</ele>
        <time>2021-08-11T10:14:02.459Z</time>
      </trkpt>
      <trkpt lat="46.86754" lon="8.51219">
        <ele>1524</ele>
        <time>2021-08-11T10:14:03.459Z</time>
      </trkpt>
      <trkpt lat="46.86753" lon="8.51217">
        <ele>1524</ele>
        <time>2021-08-11T10:14:04.458Z</time>
      </trkpt>
      <trkpt lat="46.86752" lon="8.51216">
        <ele>1524</ele>
        <time>2021-08-11T10:14:05.458Z</time>
      </trkpt>
      <trkpt lat="46.86751" lon="8.51216">
        <ele>1523</ele>
        <time>2021-08-11T10:14:06.459Z</time>
      </trkpt>
      <trkpt lat="46.86749" lon="8.51214">
        <ele>1523</ele>
        <time>2021-08-11T10:14:07.459Z</time>
      </trkpt>
      <trkpt lat="46.86748" lon="8.51213">
        <ele>1523</ele>
        <time>2021-08-11T10:14:08.459Z</time>
      </trkpt>
      <trkpt lat="46.86747" lon="8.51212">
        <ele>1523</ele>
        <time>2021-08-11T10:14:09.459Z</time>
      </trkpt>
      <trkpt lat="46.86746" lon="8.51211">
        <ele>1524</ele>
        <time>2021-08-11T10:14:10.458Z</time>
      </trkpt>
      <trkpt lat="46.86745" lon="8.51211">
        <ele>1524</ele>
        <time>2021-08-11T10:14:11.459Z</time>
      </trkpt>
      <trkpt lat="46.86744" lon="8.51211">
        <ele>1523</ele>
        <time>2021-08-11T10:14:12.459Z</time>
      </trkpt>
      <trkpt lat="46.86743" lon="8.51212">
        <ele>1522</ele>
        <time>2021-08-11T10:14:13.458Z</time>
      </trkpt>
      <trkpt lat="46.86743" lon="8.51212">
        <ele>1521</ele>
        <time>2021-08-11T10:14:14.459Z</time>
      </trkpt>
      <trkpt lat="46.86742" lon="8.51212">
        <ele>1520</ele>
        <time>2021-08-11T10:14:15.459Z</time>
      </trkpt>
      <trkpt lat="46.86741" lon="8.51212">
        <ele>1520</ele>
        <time>2021-08-11T10:14:16.459Z</time>
      </trkpt>
      <trkpt lat="46.8674" lon="8.51212">
        <ele>1519</ele>
        <time>2021-08-11T10:14:17.459Z</time>
      </trkpt>
      <trkpt lat="46.86739" lon="8.51212">
        <ele>1518</ele>
        <time>2021-08-11T10:14:18.458Z</time>
      </trkpt>
      <trkpt lat="46.86738" lon="8.51211">
        <ele>1517</ele>
        <time>2021-08-11T10:14:19.459Z</time>
      </trkpt>
      <trkpt lat="46.86737" lon="8.5121">
        <ele>1517</ele>
        <time>2021-08-11T10:14:20.459Z</time>
      </trkpt>
      <trkpt lat="46.86736" lon="8.51209">
        <ele>1516</ele>
        <time>2021-08-11T10:14:21.459Z</time>
      </trkpt>
      <trkpt lat="46.86736" lon="8.5121">
        <ele>1515</ele>
        <time>2021-08-11T10:14:22.459Z</time>
      </trkpt>
      <trkpt lat="46.86735" lon="8.51209">
        <ele>1514</ele>
        <time>2021-08-11T10:14:23.459Z</time>
      </trkpt>
      <trkpt lat="46.86735" lon="8.51208">
        <ele>1512</ele>
        <time>2021-08-11T10:14:24.459Z</time>
      </trkpt>
      <trkpt lat="46.86734" lon="8.51206">
        <ele>1511</ele>
        <time>2021-08-11T10:14:25.458Z</time>
      </trkpt>
      <trkpt lat="46.86733" lon="8.51205">
        <ele>1510</ele>
        <time>2021-08-11T10:14:26.459Z</time>
      </trkpt>
      <trkpt lat="46.86732" lon="8.51202">
        <ele>1509</ele>
        <time>2021-08-11T10:14:27.458Z</time>
      </trkpt>
      <trkpt lat="46.86732" lon="8.512">
        <ele>1508</ele>
        <time>2021-08-11T10:14:28.459Z</time>
      </trkpt>
      <trkpt lat="46.86731" lon="8.51199">
        <ele>1507</ele>
        <time>2021-08-11T10:14:29.458Z</time>
      </trkpt>
      <trkpt lat="46.86731" lon="8.51197">
        <ele>1507</ele>
        <time>2021-08-11T10:14:30.459Z</time>
      </trkpt>
      <trkpt lat="46.86731" lon="8.51195">
        <ele>1506</ele>
        <time>2021-08-11T10:14:31.459Z</time>
      </trkpt>
      <trkpt lat="46.86731" lon="8.51194">
        <ele>1506</ele>
        <time>2021-08-11T10:14:32.459Z</time>
      </trkpt>
      <trkpt lat="46.86732" lon="8.51192">
        <ele>1505</ele>
        <time>2021-08-11T10:14:33.459Z</time>
      </trkpt>
      <trkpt lat="46.86732" lon="8.51191">
        <ele>1505</ele>
        <time>2021-08-11T10:14:34.459Z</time>
      </trkpt>
      <trkpt lat="46.86733" lon="8.51191">
        <ele>1505</ele>
        <time>2021-08-11T10:14:35.459Z</time>
      </trkpt>
      <trkpt lat="46.86734" lon="8.51191">
        <ele>1504</ele>
        <time>2021-08-11T10:14:36.459Z</time>
      </trkpt>
      <trkpt lat="46.86735" lon="8.5119">
        <ele>1503</ele>
        <time>2021-08-11T10:14:37.459Z</time>
      </trkpt>
      <trkpt lat="46.86736" lon="8.51189">
        <ele>1503</ele>
        <time>2021-08-11T10:14:38.458Z</time>
      </trkpt>
      <trkpt lat="46.86736" lon="8.51187">
        <ele>1502</ele>
        <time>2021-08-11T10:14:39.459Z</time>
      </trkpt>
      <trkpt lat="46.86737" lon="8.51186">
        <ele>1502</ele>
        <time>2021-08-11T10:14:40.459Z</time>
      </trkpt>
      <trkpt lat="46.86737" lon="8.51184">
        <ele>1501</ele>
        <time>2021-08-11T10:14:41.459Z</time>
      </trkpt>
      <trkpt lat="46.86737" lon="8.51181">
        <ele>1501</ele>
        <time>2021-08-11T10:14:42.459Z</time>
      </trkpt>
      <trkpt lat="46.86737" lon="8.51179">
        <ele>1500</ele>
        <time>2021-08-11T10:14:43.459Z</time>
      </trkpt>
      <trkpt lat="46.86737" lon="8.51177">
        <ele>1500</ele>
        <time>2021-08-11T10:14:44.459Z</time>
      </trkpt>
      <trkpt lat="46.86738" lon="8.51175">
        <ele>1500</ele>
        <time>2021-08-11T10:14:45.459Z</time>
      </trkpt>
      <trkpt lat="46.86738" lon="8.51173">
        <ele>1500</ele>
        <time>2021-08-11T10:14:46.458Z</time>
      </trkpt>
      <trkpt lat="46.86739" lon="8.51172">
        <ele>1500</ele>
        <time>2021-08-11T10:14:47.458Z</time>
      </trkpt>
      <trkpt lat="46.86739" lon="8.5117">
        <ele>1500</ele>
        <time>2021-08-11T10:14:48.458Z</time>
      </trkpt>
      <trkpt lat="46.86739" lon="8.51168">
        <ele>1499</ele>
        <time>2021-08-11T10:14:49.458Z</time>
      </trkpt>
      <trkpt lat="46.8674" lon="8.51167">
        <ele>1499</ele>
        <time>2021-08-11T10:14:50.459Z</time>
      </trkpt>
      <trkpt lat="46.8674" lon="8.51165">
        <ele>1499</ele>
        <time>2021-08-11T10:14:51.459Z</time>
      </trkpt>
      <trkpt lat="46.8674" lon="8.51164">
        <ele>1499</ele>
        <time>2021-08-11T10:14:52.459Z</time>
      </trkpt>
      <trkpt lat="46.86741" lon="8.51163">
        <ele>1498</ele>
        <time>2021-08-11T10:14:53.459Z</time>
      </trkpt>
      <trkpt lat="46.86742" lon="8.51161">
        <ele>1498</ele>
        <time>2021-08-11T10:14:54.459Z</time>
      </trkpt>
      <trkpt lat="46.86742" lon="8.5116">
        <ele>1498</ele>
        <time>2021-08-11T10:14:55.459Z</time>
      </trkpt>
      <trkpt lat="46.86743" lon="8.51158">
        <ele>1498</ele>
        <time>2021-08-11T10:14:56.459Z</time>
      </trkpt>
      <trkpt lat="46.86743" lon="8.51156">
        <ele>1498</ele>
        <time>2021-08-11T10:14:57.458Z</time>
      </trkpt>
      <trkpt lat="46.86743" lon="8.51155">
        <ele>1498</ele>
        <time>2021-08-11T10:14:58.459Z</time>
      </trkpt>
      <trkpt lat="46.86743" lon="8.51153">
        <ele>1498</ele>
        <time>2021-08-11T10:14:59.458Z</time>
      </trkpt>
      <trkpt lat="46.86743" lon="8.51151">
        <ele>1498</ele>
        <time>2021-08-11T10:15:00.459Z</time>
      </trkpt>
      <trkpt lat="46.86743" lon="8.5115">
        <ele>1499</ele>
        <time>2021-08-11T10:15:01.459Z</time>
      </trkpt>
      <trkpt lat="46.86743" lon="8.51149">
        <ele>1499</ele>
        <time>2021-08-11T10:15:02.458Z</time>
      </trkpt>
      <trkpt lat="46.86744" lon="8.51148">
        <ele>1500</ele>
        <time>2021-08-11T10:15:03.458Z</time>
      </trkpt>
      <trkpt lat="46.86744" lon="8.51147">
        <ele>1500</ele>
        <time>2021-08-11T10:15:04.458Z</time>
      </trkpt>
      <trkpt lat="46.86745" lon="8.51145">
        <ele>1499</ele>
        <time>2021-08-11T10:15:05.459Z</time>
      </trkpt>
      <trkpt lat="46.86745" lon="8.51145">
        <ele>1498</ele>
        <time>2021-08-11T10:15:06.459Z</time>
      </trkpt>
      <trkpt lat="46.86746" lon="8.51144">
        <ele>1498</ele>
        <time>2021-08-11T10:15:07.459Z</time>
      </trkpt>
      <trkpt lat="46.86747" lon="8.51143">
        <ele>1497</ele>
        <time>2021-08-11T10:15:08.459Z</time>
      </trkpt>
      <trkpt lat="46.86748" lon="8.51142">
        <ele>1497</ele>
        <time>2021-08-11T10:15:09.459Z</time>
      </trkpt>
      <trkpt lat="46.86749" lon="8.51142">
        <ele>1496</ele>
        <time>2021-08-11T10:15:10.458Z</time>
      </trkpt>
      <trkpt lat="46.8675" lon="8.51141">
        <ele>1495</ele>
        <time>2021-08-11T10:15:11.459Z</time>
      </trkpt>
      <trkpt lat="46.8675" lon="8.5114">
        <ele>1494</ele>
        <time>2021-08-11T10:15:12.459Z</time>
      </trkpt>
      <trkpt lat="46.86751" lon="8.5114">
        <ele>1493</ele>
        <time>2021-08-11T10:15:13.458Z</time>
      </trkpt>
      <trkpt lat="46.86752" lon="8.51138">
        <ele>1493</ele>
        <time>2021-08-11T10:15:14.459Z</time>
      </trkpt>
      <trkpt lat="46.86752" lon="8.51137">
        <ele>1493</ele>
        <time>2021-08-11T10:15:15.458Z</time>
      </trkpt>
      <trkpt lat="46.86752" lon="8.51136">
        <ele>1492</ele>
        <time>2021-08-11T10:15:16.459Z</time>
      </trkpt>
      <trkpt lat="46.86752" lon="8.51134">
        <ele>1492</ele>
        <time>2021-08-11T10:15:17.459Z</time>
      </trkpt>
      <trkpt lat="46.86753" lon="8.51132">
        <ele>1492</ele>
        <time>2021-08-11T10:15:18.459Z</time>
      </trkpt>
      <trkpt lat="46.86753" lon="8.51131">
        <ele>1492</ele>
        <time>2021-08-11T10:15:19.458Z</time>
      </trkpt>
      <trkpt lat="46.86752" lon="8.51129">
        <ele>1492</ele>
        <time>2021-08-11T10:15:20.459Z</time>
      </trkpt>
      <trkpt lat="46.86753" lon="8.51128">
        <ele>1491</ele>
        <time>2021-08-11T10:15:21.458Z</time>
      </trkpt>
      <trkpt lat="46.86752" lon="8.51126">
        <ele>1491</ele>
        <time>2021-08-11T10:15:22.459Z</time>
      </trkpt>
      <trkpt lat="46.86752" lon="8.51124">
        <ele>1491</ele>
        <time>2021-08-11T10:15:23.458Z</time>
      </trkpt>
      <trkpt lat="46.86752" lon="8.51122">
        <ele>1491</ele>
        <time>2021-08-11T10:15:24.459Z</time>
      </trkpt>
      <trkpt lat="46.86751" lon="8.5112">
        <ele>1491</ele>
        <time>2021-08-11T10:15:25.458Z</time>
      </trkpt>
      <trkpt lat="46.86751" lon="8.51119">
        <ele>1491</ele>
        <time>2021-08-11T10:15:26.458Z</time>
      </trkpt>
      <trkpt lat="46.8675" lon="8.51117">
        <ele>1491</ele>
        <time>2021-08-11T10:15:27.459Z</time>
      </trkpt>
      <trkpt lat="46.86749" lon="8.51116">
        <ele>1491</ele>
        <time>2021-08-11T10:15:28.459Z</time>
      </trkpt>
      <trkpt lat="46.86748" lon="8.51114">
        <ele>1491</ele>
        <time>2021-08-11T10:15:29.459Z</time>
      </trkpt>
      <trkpt lat="46.86747" lon="8.51112">
        <ele>1491</ele>
        <time>2021-08-11T10:15:30.459Z</time>
      </trkpt>
      <trkpt lat="46.86747" lon="8.51111">
        <ele>1491</ele>
        <time>2021-08-11T10:15:31.459Z</time>
      </trkpt>
      <trkpt lat="46.86746" lon="8.5111">
        <ele>1491</ele>
        <time>2021-08-11T10:15:32.459Z</time>
      </trkpt>
      <trkpt lat="46.86745" lon="8.51108">
        <ele>1492</ele>
        <time>2021-08-11T10:15:33.459Z</time>
      </trkpt>
      <trkpt lat="46.86744" lon="8.51107">
        <ele>1492</ele>
        <time>2021-08-11T10:15:34.458Z</time>
      </trkpt>
      <trkpt lat="46.86743" lon="8.51107">
        <ele>1492</ele>
        <time>2021-08-11T10:15:35.459Z</time>
      </trkpt>
      <trkpt lat="46.86743" lon="8.51106">
        <ele>1492</ele>
        <time>2021-08-11T10:15:36.459Z</time>
      </trkpt>
      <trkpt lat="46.86742" lon="8.51106">
        <ele>1491</ele>
        <time>2021-08-11T10:15:37.459Z</time>
      </trkpt>
      <trkpt lat="46.86741" lon="8.51105">
        <ele>1491</ele>
        <time>2021-08-11T10:15:38.459Z</time>
      </trkpt>
      <trkpt lat="46.8674" lon="8.51104">
        <ele>1491</ele>
        <time>2021-08-11T10:15:39.459Z</time>
      </trkpt>
      <trkpt lat="46.8674" lon="8.51103">
        <ele>1491</ele>
        <time>2021-08-11T10:15:40.459Z</time>
      </trkpt>
      <trkpt lat="46.86739" lon="8.51102">
        <ele>1491</ele>
        <time>2021-08-11T10:15:41.459Z</time>
      </trkpt>
      <trkpt lat="46.86739" lon="8.51101">
        <ele>1491</ele>
        <time>2021-08-11T10:15:42.458Z</time>
      </trkpt>
      <trkpt lat="46.86738" lon="8.51099">
        <ele>1491</ele>
        <time>2021-08-11T10:15:43.458Z</time>
      </trkpt>
      <trkpt lat="46.86738" lon="8.51098">
        <ele>1490</ele>
        <time>2021-08-11T10:15:44.458Z</time>
      </trkpt>
      <trkpt lat="46.86738" lon="8.51096">
        <ele>1490</ele>
        <time>2021-08-11T10:15:45.459Z</time>
      </trkpt>
      <trkpt lat="46.86738" lon="8.51095">
        <ele>1490</ele>
        <time>2021-08-11T10:15:46.459Z</time>
      </trkpt>
      <trkpt lat="46.86738" lon="8.51093">
        <ele>1489</ele>
        <time>2021-08-11T10:15:47.459Z</time>
      </trkpt>
      <trkpt lat="46.86739" lon="8.51093">
        <ele>1489</ele>
        <time>2021-08-11T10:15:48.458Z</time>
      </trkpt>
      <trkpt lat="46.8674" lon="8.51092">
        <ele>1489</ele>
        <time>2021-08-11T10:15:49.458Z</time>
      </trkpt>
      <trkpt lat="46.8674" lon="8.5109">
        <ele>1489</ele>
        <time>2021-08-11T10:15:50.459Z</time>
      </trkpt>
      <trkpt lat="46.86739" lon="8.51088">
        <ele>1489</ele>
        <time>2021-08-11T10:15:51.458Z</time>
      </trkpt>
      <trkpt lat="46.86739" lon="8.51087">
        <ele>1489</ele>
        <time>2021-08-11T10:15:52.459Z</time>
      </trkpt>
      <trkpt lat="46.86739" lon="8.51085">
        <ele>1489</ele>
        <time>2021-08-11T10:15:53.458Z</time>
      </trkpt>
      <trkpt lat="46.86739" lon="8.51083">
        <ele>1489</ele>
        <time>2021-08-11T10:15:54.458Z</time>
      </trkpt>
      <trkpt lat="46.86739" lon="8.51082">
        <ele>1489</ele>
        <time>2021-08-11T10:15:55.459Z</time>
      </trkpt>
      <trkpt lat="46.86739" lon="8.5108">
        <ele>1489</ele>
        <time>2021-08-11T10:15:56.459Z</time>
      </trkpt>
      <trkpt lat="46.86739" lon="8.51079">
        <ele>1489</ele>
        <time>2021-08-11T10:15:57.458Z</time>
      </trkpt>
      <trkpt lat="46.8674" lon="8.51077">
        <ele>1488</ele>
        <time>2021-08-11T10:15:58.458Z</time>
      </trkpt>
      <trkpt lat="46.8674" lon="8.51075">
        <ele>1488</ele>
        <time>2021-08-11T10:15:59.458Z</time>
      </trkpt>
      <trkpt lat="46.86741" lon="8.51074">
        <ele>1488</ele>
        <time>2021-08-11T10:16:00.459Z</time>
      </trkpt>
      <trkpt lat="46.86741" lon="8.51072">
        <ele>1488</ele>
        <time>2021-08-11T10:16:01.459Z</time>
      </trkpt>
      <trkpt lat="46.86741" lon="8.51071">
        <ele>1487</ele>
        <time>2021-08-11T10:16:02.459Z</time>
      </trkpt>
      <trkpt lat="46.86741" lon="8.51069">
        <ele>1487</ele>
        <time>2021-08-11T10:16:03.458Z</time>
      </trkpt>
      <trkpt lat="46.86741" lon="8.51068">
        <ele>1487</ele>
        <time>2021-08-11T10:16:04.458Z</time>
      </trkpt>
      <trkpt lat="46.86742" lon="8.51067">
        <ele>1486</ele>
        <time>2021-08-11T10:16:05.459Z</time>
      </trkpt>
      <trkpt lat="46.86742" lon="8.51065">
        <ele>1486</ele>
        <time>2021-08-11T10:16:06.458Z</time>
      </trkpt>
      <trkpt lat="46.86743" lon="8.51065">
        <ele>1485</ele>
        <time>2021-08-11T10:16:07.458Z</time>
      </trkpt>
      <trkpt lat="46.86743" lon="8.51065">
        <ele>1485</ele>
        <time>2021-08-11T10:16:08.458Z</time>
      </trkpt>
      <trkpt lat="46.86743" lon="8.51064">
        <ele>1484</ele>
        <time>2021-08-11T10:16:09.458Z</time>
      </trkpt>
      <trkpt lat="46.86743" lon="8.51063">
        <ele>1484</ele>
        <time>2021-08-11T10:16:10.458Z</time>
      </trkpt>
      <trkpt lat="46.86743" lon="8.51062">
        <ele>1483</ele>
        <time>2021-08-11T10:16:11.458Z</time>
      </trkpt>
      <trkpt lat="46.86744" lon="8.5106">
        <ele>1482</ele>
        <time>2021-08-11T10:16:12.458Z</time>
      </trkpt>
      <trkpt lat="46.86744" lon="8.51059">
        <ele>1481</ele>
        <time>2021-08-11T10:16:13.458Z</time>
      </trkpt>
      <trkpt lat="46.86745" lon="8.51058">
        <ele>1480</ele>
        <time>2021-08-11T10:16:14.458Z</time>
      </trkpt>
      <trkpt lat="46.86745" lon="8.51056">
        <ele>1479</ele>
        <time>2021-08-11T10:16:15.459Z</time>
      </trkpt>
      <trkpt lat="46.86746" lon="8.51054">
        <ele>1479</ele>
        <time>2021-08-11T10:16:16.459Z</time>
      </trkpt>
      <trkpt lat="46.86746" lon="8.51052">
        <ele>1479</ele>
        <time>2021-08-11T10:16:17.458Z</time>
      </trkpt>
      <trkpt lat="46.86746" lon="8.51051">
        <ele>1478</ele>
        <time>2021-08-11T10:16:18.458Z</time>
      </trkpt>
      <trkpt lat="46.86746" lon="8.5105">
        <ele>1478</ele>
        <time>2021-08-11T10:16:19.458Z</time>
      </trkpt>
      <trkpt lat="46.86746" lon="8.51048">
        <ele>1478</ele>
        <time>2021-08-11T10:16:20.458Z</time>
      </trkpt>
      <trkpt lat="46.86745" lon="8.51047">
        <ele>1478</ele>
        <time>2021-08-11T10:16:21.458Z</time>
      </trkpt>
      <trkpt lat="46.86745" lon="8.51046">
        <ele>1478</ele>
        <time>2021-08-11T10:16:22.458Z</time>
      </trkpt>
      <trkpt lat="46.86745" lon="8.51045">
        <ele>1478</ele>
        <time>2021-08-11T10:16:23.458Z</time>
      </trkpt>
      <trkpt lat="46.86746" lon="8.51044">
        <ele>1478</ele>
        <time>2021-08-11T10:16:24.459Z</time>
      </trkpt>
      <trkpt lat="46.86746" lon="8.51043">
        <ele>1478</ele>
        <time>2021-08-11T10:16:25.458Z</time>
      </trkpt>
      <trkpt lat="46.86747" lon="8.51041">
        <ele>1478</ele>
        <time>2021-08-11T10:16:26.458Z</time>
      </trkpt>
      <trkpt lat="46.86748" lon="8.5104">
        <ele>1478</ele>
        <time>2021-08-11T10:16:27.458Z</time>
      </trkpt>
      <trkpt lat="46.86749" lon="8.51038">
        <ele>1478</ele>
        <time>2021-08-11T10:16:28.459Z</time>
      </trkpt>
      <trkpt lat="46.86749" lon="8.51037">
        <ele>1479</ele>
        <time>2021-08-11T10:16:29.459Z</time>
      </trkpt>
      <trkpt lat="46.8675" lon="8.51035">
        <ele>1479</ele>
        <time>2021-08-11T10:16:30.459Z</time>
      </trkpt>
      <trkpt lat="46.8675" lon="8.51033">
        <ele>1479</ele>
        <time>2021-08-11T10:16:31.459Z</time>
      </trkpt>
      <trkpt lat="46.86751" lon="8.51032">
        <ele>1479</ele>
        <time>2021-08-11T10:16:32.458Z</time>
      </trkpt>
      <trkpt lat="46.86751" lon="8.5103">
        <ele>1479</ele>
        <time>2021-08-11T10:16:33.459Z</time>
      </trkpt>
      <trkpt lat="46.86751" lon="8.51029">
        <ele>1479</ele>
        <time>2021-08-11T10:16:34.459Z</time>
      </trkpt>
      <trkpt lat="46.86751" lon="8.51027">
        <ele>1479</ele>
        <time>2021-08-11T10:16:35.459Z</time>
      </trkpt>
      <trkpt lat="46.86751" lon="8.51025">
        <ele>1480</ele>
        <time>2021-08-11T10:16:36.458Z</time>
      </trkpt>
      <trkpt lat="46.86751" lon="8.51024">
        <ele>1480</ele>
        <time>2021-08-11T10:16:37.459Z</time>
      </trkpt>
      <trkpt lat="46.86751" lon="8.51023">
        <ele>1480</ele>
        <time>2021-08-11T10:16:38.459Z</time>
      </trkpt>
      <trkpt lat="46.86749" lon="8.51025">
        <ele>1481</ele>
        <time>2021-08-11T10:16:39.459Z</time>
      </trkpt>
      <trkpt lat="46.86749" lon="8.51025">
        <ele>1481</ele>
        <time>2021-08-11T10:16:40.459Z</time>
      </trkpt>
      <trkpt lat="46.86749" lon="8.51026">
        <ele>1481</ele>
        <time>2021-08-11T10:16:41.459Z</time>
      </trkpt>
      <trkpt lat="46.86748" lon="8.51027">
        <ele>1481</ele>
        <time>2021-08-11T10:16:42.460Z</time>
      </trkpt>
      <trkpt lat="46.86748" lon="8.51027">
        <ele>1487</ele>
        <time>2021-08-11T10:16:43.460Z</time>
      </trkpt>
      <trkpt lat="46.86747" lon="8.51027">
        <ele>1487</ele>
        <time>2021-08-11T10:16:44.460Z</time>
      </trkpt>
      <trkpt lat="46.86748" lon="8.51027">
        <ele>1487</ele>
        <time>2021-08-11T10:16:45.459Z</time>
      </trkpt>
      <trkpt lat="46.86748" lon="8.51027">
        <ele>1487</ele>
        <time>2021-08-11T10:16:46.459Z</time>
      </trkpt>
      <trkpt lat="46.86748" lon="8.51027">
        <ele>1487</ele>
        <time>2021-08-11T10:16:47.460Z</time>
      </trkpt>
      <trkpt lat="46.86748" lon="8.51028">
        <ele>1487</ele>
        <time>2021-08-11T10:16:48.459Z</time>
      </trkpt>
      <trkpt lat="46.86748" lon="8.51029">
        <ele>1488</ele>
        <time>2021-08-11T10:16:49.460Z</time>
      </trkpt>
      <trkpt lat="46.86749" lon="8.51026">
        <ele>1486</ele>
        <time>2021-08-11T10:16:50.461Z</time>
      </trkpt>
      <trkpt lat="46.86749" lon="8.51026">
        <ele>1486</ele>
        <time>2021-08-11T10:16:51.460Z</time>
      </trkpt>
      <trkpt lat="46.8675" lon="8.51026">
        <ele>1486</ele>
        <time>2021-08-11T10:16:52.460Z</time>
      </trkpt>
      <trkpt lat="46.86751" lon="8.51026">
        <ele>1485</ele>
        <time>2021-08-11T10:16:53.461Z</time>
      </trkpt>
      <trkpt lat="46.86751" lon="8.51025">
        <ele>1486</ele>
        <time>2021-08-11T10:16:54.461Z</time>
      </trkpt>
      <trkpt lat="46.86752" lon="8.51024">
        <ele>1486</ele>
        <time>2021-08-11T10:16:55.460Z</time>
      </trkpt>
      <trkpt lat="46.86752" lon="8.51022">
        <ele>1486</ele>
        <time>2021-08-11T10:16:56.460Z</time>
      </trkpt>
      <trkpt lat="46.86753" lon="8.5102">
        <ele>1485</ele>
        <time>2021-08-11T10:16:57.460Z</time>
      </trkpt>
      <trkpt lat="46.86754" lon="8.51019">
        <ele>1485</ele>
        <time>2021-08-11T10:16:58.461Z</time>
      </trkpt>
      <trkpt lat="46.86754" lon="8.51018">
        <ele>1485</ele>
        <time>2021-08-11T10:16:59.460Z</time>
      </trkpt>
      <trkpt lat="46.86754" lon="8.51016">
        <ele>1485</ele>
        <time>2021-08-11T10:17:00.460Z</time>
      </trkpt>
      <trkpt lat="46.86754" lon="8.51015">
        <ele>1485</ele>
        <time>2021-08-11T10:17:01.460Z</time>
      </trkpt>
      <trkpt lat="46.86754" lon="8.51014">
        <ele>1486</ele>
        <time>2021-08-11T10:17:02.461Z</time>
      </trkpt>
      <trkpt lat="46.86755" lon="8.51014">
        <ele>1486</ele>
        <time>2021-08-11T10:17:03.461Z</time>
      </trkpt>
      <trkpt lat="46.86755" lon="8.51014">
        <ele>1486</ele>
        <time>2021-08-11T10:17:04.461Z</time>
      </trkpt>
      <trkpt lat="46.86755" lon="8.51014">
        <ele>1486</ele>
        <time>2021-08-11T10:17:05.460Z</time>
      </trkpt>
      <trkpt lat="46.86755" lon="8.51015">
        <ele>1486</ele>
        <time>2021-08-11T10:17:06.461Z</time>
      </trkpt>
      <trkpt lat="46.86755" lon="8.51016">
        <ele>1486</ele>
        <time>2021-08-11T10:17:07.460Z</time>
      </trkpt>
      <trkpt lat="46.86754" lon="8.51015">
        <ele>1487</ele>
        <time>2021-08-11T10:17:08.461Z</time>
      </trkpt>
      <trkpt lat="46.86754" lon="8.51015">
        <ele>1488</ele>
        <time>2021-08-11T10:17:09.460Z</time>
      </trkpt>
      <trkpt lat="46.86754" lon="8.51015">
        <ele>1488</ele>
        <time>2021-08-11T10:17:10.460Z</time>
      </trkpt>
      <trkpt lat="46.86754" lon="8.51015">
        <ele>1488</ele>
        <time>2021-08-11T10:17:11.460Z</time>
      </trkpt>
      <trkpt lat="46.86754" lon="8.51015">
        <ele>1488</ele>
        <time>2021-08-11T10:17:12.460Z</time>
      </trkpt>
      <trkpt lat="46.86755" lon="8.51016">
        <ele>1488</ele>
        <time>2021-08-11T10:17:13.460Z</time>
      </trkpt>
      <trkpt lat="46.86756" lon="8.51012">
        <ele>1486</ele>
        <time>2021-08-11T10:17:14.461Z</time>
      </trkpt>
      <trkpt lat="46.86756" lon="8.5101">
        <ele>1485</ele>
        <time>2021-08-11T10:17:15.460Z</time>
      </trkpt>
      <trkpt lat="46.86756" lon="8.5101">
        <ele>1484</ele>
        <time>2021-08-11T10:17:16.460Z</time>
      </trkpt>
      <trkpt lat="46.86756" lon="8.5101">
        <ele>1484</ele>
        <time>2021-08-11T10:17:17.461Z</time>
      </trkpt>
      <trkpt lat="46.86757" lon="8.5101">
        <ele>1483</ele>
        <time>2021-08-11T10:17:18.460Z</time>
      </trkpt>
      <trkpt lat="46.86757" lon="8.5101">
        <ele>1483</ele>
        <time>2021-08-11T10:17:19.460Z</time>
      </trkpt>
      <trkpt lat="46.86757" lon="8.51009">
        <ele>1482</ele>
        <time>2021-08-11T10:17:20.460Z</time>
      </trkpt>
      <trkpt lat="46.86758" lon="8.51009">
        <ele>1482</ele>
        <time>2021-08-11T10:17:21.461Z</time>
      </trkpt>
      <trkpt lat="46.86758" lon="8.51009">
        <ele>1482</ele>
        <time>2021-08-11T10:17:22.461Z</time>
      </trkpt>
      <trkpt lat="46.86758" lon="8.5101">
        <ele>1482</ele>
        <time>2021-08-11T10:17:23.460Z</time>
      </trkpt>
      <trkpt lat="46.86758" lon="8.5101">
        <ele>1482</ele>
        <time>2021-08-11T10:17:24.460Z</time>
      </trkpt>
      <trkpt lat="46.86758" lon="8.5101">
        <ele>1483</ele>
        <time>2021-08-11T10:17:25.460Z</time>
      </trkpt>
      <trkpt lat="46.86758" lon="8.51009">
        <ele>1483</ele>
        <time>2021-08-11T10:17:26.461Z</time>
      </trkpt>
      <trkpt lat="46.86758" lon="8.51008">
        <ele>1483</ele>
        <time>2021-08-11T10:17:27.461Z</time>
      </trkpt>
      <trkpt lat="46.86758" lon="8.51007">
        <ele>1484</ele>
        <time>2021-08-11T10:17:28.461Z</time>
      </trkpt>
      <trkpt lat="46.86758" lon="8.51007">
        <ele>1484</ele>
        <time>2021-08-11T10:17:29.461Z</time>
      </trkpt>
      <trkpt lat="46.86759" lon="8.51006">
        <ele>1484</ele>
        <time>2021-08-11T10:17:30.460Z</time>
      </trkpt>
      <trkpt lat="46.8676" lon="8.51005">
        <ele>1484</ele>
        <time>2021-08-11T10:17:31.461Z</time>
      </trkpt>
      <trkpt lat="46.8676" lon="8.51004">
        <ele>1484</ele>
        <time>2021-08-11T10:17:32.461Z</time>
      </trkpt>
      <trkpt lat="46.86761" lon="8.51004">
        <ele>1483</ele>
        <time>2021-08-11T10:17:33.461Z</time>
      </trkpt>
      <trkpt lat="46.86761" lon="8.51003">
        <ele>1483</ele>
        <time>2021-08-11T10:17:34.460Z</time>
      </trkpt>
      <trkpt lat="46.86762" lon="8.51003">
        <ele>1483</ele>
        <time>2021-08-11T10:17:35.460Z</time>
      </trkpt>
      <trkpt lat="46.86763" lon="8.51003">
        <ele>1482</ele>
        <time>2021-08-11T10:17:36.461Z</time>
      </trkpt>
      <trkpt lat="46.86763" lon="8.51002">
        <ele>1482</ele>
        <time>2021-08-11T10:17:37.461Z</time>
      </trkpt>
      <trkpt lat="46.86764" lon="8.51002">
        <ele>1482</ele>
        <time>2021-08-11T10:17:38.461Z</time>
      </trkpt>
      <trkpt lat="46.86765" lon="8.51002">
        <ele>1483</ele>
        <time>2021-08-11T10:17:39.460Z</time>
      </trkpt>
      <trkpt lat="46.86765" lon="8.51003">
        <ele>1483</ele>
        <time>2021-08-11T10:17:40.460Z</time>
      </trkpt>
      <trkpt lat="46.86766" lon="8.51002">
        <ele>1483</ele>
        <time>2021-08-11T10:17:41.460Z</time>
      </trkpt>
      <trkpt lat="46.86767" lon="8.51002">
        <ele>1483</ele>
        <time>2021-08-11T10:17:42.461Z</time>
      </trkpt>
      <trkpt lat="46.86768" lon="8.51002">
        <ele>1483</ele>
        <time>2021-08-11T10:17:43.461Z</time>
      </trkpt>
      <trkpt lat="46.86769" lon="8.51001">
        <ele>1483</ele>
        <time>2021-08-11T10:17:44.460Z</time>
      </trkpt>
      <trkpt lat="46.8677" lon="8.51001">
        <ele>1483</ele>
        <time>2021-08-11T10:17:45.460Z</time>
      </trkpt>
      <trkpt lat="46.86771" lon="8.51">
        <ele>1483</ele>
        <time>2021-08-11T10:17:46.461Z</time>
      </trkpt>
      <trkpt lat="46.86771" lon="8.50998">
        <ele>1483</ele>
        <time>2021-08-11T10:17:47.461Z</time>
      </trkpt>
      <trkpt lat="46.86772" lon="8.50997">
        <ele>1482</ele>
        <time>2021-08-11T10:17:48.460Z</time>
      </trkpt>
      <trkpt lat="46.86772" lon="8.50996">
        <ele>1482</ele>
        <time>2021-08-11T10:17:49.460Z</time>
      </trkpt>
      <trkpt lat="46.86773" lon="8.50995">
        <ele>1482</ele>
        <time>2021-08-11T10:17:50.461Z</time>
      </trkpt>
      <trkpt lat="46.86773" lon="8.50994">
        <ele>1481</ele>
        <time>2021-08-11T10:17:51.461Z</time>
      </trkpt>
      <trkpt lat="46.86773" lon="8.50993">
        <ele>1481</ele>
        <time>2021-08-11T10:17:52.461Z</time>
      </trkpt>
      <trkpt lat="46.86773" lon="8.50992">
        <ele>1481</ele>
        <time>2021-08-11T10:17:53.460Z</time>
      </trkpt>
      <trkpt lat="46.86774" lon="8.50991">
        <ele>1480</ele>
        <time>2021-08-11T10:17:54.460Z</time>
      </trkpt>
      <trkpt lat="46.86774" lon="8.50989">
        <ele>1480</ele>
        <time>2021-08-11T10:17:55.461Z</time>
      </trkpt>
      <trkpt lat="46.86775" lon="8.50988">
        <ele>1479</ele>
        <time>2021-08-11T10:17:56.461Z</time>
      </trkpt>
      <trkpt lat="46.86776" lon="8.50986">
        <ele>1479</ele>
        <time>2021-08-11T10:17:57.461Z</time>
      </trkpt>
      <trkpt lat="46.86776" lon="8.50986">
        <ele>1479</ele>
        <time>2021-08-11T10:17:58.461Z</time>
      </trkpt>
      <trkpt lat="46.86776" lon="8.50984">
        <ele>1479</ele>
        <time>2021-08-11T10:17:59.460Z</time>
      </trkpt>
      <trkpt lat="46.86777" lon="8.50983">
        <ele>1479</ele>
        <time>2021-08-11T10:18:00.460Z</time>
      </trkpt>
      <trkpt lat="46.86778" lon="8.50981">
        <ele>1478</ele>
        <time>2021-08-11T10:18:01.460Z</time>
      </trkpt>
      <trkpt lat="46.86778" lon="8.5098">
        <ele>1478</ele>
        <time>2021-08-11T10:18:02.460Z</time>
      </trkpt>
      <trkpt lat="46.86779" lon="8.50979">
        <ele>1478</ele>
        <time>2021-08-11T10:18:03.461Z</time>
      </trkpt>
      <trkpt lat="46.86779" lon="8.50978">
        <ele>1478</ele>
        <time>2021-08-11T10:18:04.460Z</time>
      </trkpt>
      <trkpt lat="46.86779" lon="8.50976">
        <ele>1478</ele>
        <time>2021-08-11T10:18:05.460Z</time>
      </trkpt>
      <trkpt lat="46.8678" lon="8.50975">
        <ele>1478</ele>
        <time>2021-08-11T10:18:06.460Z</time>
      </trkpt>
      <trkpt lat="46.86781" lon="8.50974">
        <ele>1479</ele>
        <time>2021-08-11T10:18:07.461Z</time>
      </trkpt>
      <trkpt lat="46.86781" lon="8.50972">
        <ele>1480</ele>
        <time>2021-08-11T10:18:08.460Z</time>
      </trkpt>
      <trkpt lat="46.86782" lon="8.5097">
        <ele>1480</ele>
        <time>2021-08-11T10:18:09.460Z</time>
      </trkpt>
      <trkpt lat="46.86782" lon="8.50968">
        <ele>1481</ele>
        <time>2021-08-11T10:18:10.460Z</time>
      </trkpt>
      <trkpt lat="46.86783" lon="8.50967">
        <ele>1481</ele>
        <time>2021-08-11T10:18:11.460Z</time>
      </trkpt>
      <trkpt lat="46.86784" lon="8.50965">
        <ele>1482</ele>
        <time>2021-08-11T10:18:12.461Z</time>
      </trkpt>
      <trkpt lat="46.86784" lon="8.50964">
        <ele>1483</ele>
        <time>2021-08-11T10:18:13.460Z</time>
      </trkpt>
      <trkpt lat="46.86785" lon="8.50961">
        <ele>1483</ele>
        <time>2021-08-11T10:18:14.460Z</time>
      </trkpt>
      <trkpt lat="46.86785" lon="8.5096">
        <ele>1483</ele>
        <time>2021-08-11T10:18:15.460Z</time>
      </trkpt>
      <trkpt lat="46.86785" lon="8.50958">
        <ele>1483</ele>
        <time>2021-08-11T10:18:16.461Z</time>
      </trkpt>
      <trkpt lat="46.86785" lon="8.50957">
        <ele>1484</ele>
        <time>2021-08-11T10:18:17.460Z</time>
      </trkpt>
      <trkpt lat="46.86785" lon="8.50955">
        <ele>1483</ele>
        <time>2021-08-11T10:18:18.460Z</time>
      </trkpt>
      <trkpt lat="46.86786" lon="8.50953">
        <ele>1483</ele>
        <time>2021-08-11T10:18:19.460Z</time>
      </trkpt>
      <trkpt lat="46.86787" lon="8.50951">
        <ele>1483</ele>
        <time>2021-08-11T10:18:20.460Z</time>
      </trkpt>
      <trkpt lat="46.86788" lon="8.50949">
        <ele>1483</ele>
        <time>2021-08-11T10:18:21.460Z</time>
      </trkpt>
      <trkpt lat="46.86789" lon="8.50947">
        <ele>1482</ele>
        <time>2021-08-11T10:18:22.460Z</time>
      </trkpt>
      <trkpt lat="46.8679" lon="8.50945">
        <ele>1482</ele>
        <time>2021-08-11T10:18:23.460Z</time>
      </trkpt>
      <trkpt lat="46.8679" lon="8.50944">
        <ele>1482</ele>
        <time>2021-08-11T10:18:24.460Z</time>
      </trkpt>
      <trkpt lat="46.86791" lon="8.50943">
        <ele>1482</ele>
        <time>2021-08-11T10:18:25.460Z</time>
      </trkpt>
      <trkpt lat="46.86791" lon="8.50942">
        <ele>1482</ele>
        <time>2021-08-11T10:18:26.460Z</time>
      </trkpt>
      <trkpt lat="46.86792" lon="8.50941">
        <ele>1481</ele>
        <time>2021-08-11T10:18:27.460Z</time>
      </trkpt>
      <trkpt lat="46.86793" lon="8.5094">
        <ele>1481</ele>
        <time>2021-08-11T10:18:28.460Z</time>
      </trkpt>
      <trkpt lat="46.86793" lon="8.5094">
        <ele>1481</ele>
        <time>2021-08-11T10:18:29.460Z</time>
      </trkpt>
      <trkpt lat="46.86794" lon="8.50939">
        <ele>1482</ele>
        <time>2021-08-11T10:18:30.460Z</time>
      </trkpt>
      <trkpt lat="46.86795" lon="8.50937">
        <ele>1482</ele>
        <time>2021-08-11T10:18:31.460Z</time>
      </trkpt>
      <trkpt lat="46.86796" lon="8.50936">
        <ele>1482</ele>
        <time>2021-08-11T10:18:32.460Z</time>
      </trkpt>
      <trkpt lat="46.86797" lon="8.50935">
        <ele>1481</ele>
        <time>2021-08-11T10:18:33.460Z</time>
      </trkpt>
      <trkpt lat="46.86798" lon="8.50934">
        <ele>1482</ele>
        <time>2021-08-11T10:18:34.460Z</time>
      </trkpt>
      <trkpt lat="46.86799" lon="8.50933">
        <ele>1482</ele>
        <time>2021-08-11T10:18:35.460Z</time>
      </trkpt>
      <trkpt lat="46.86799" lon="8.50932">
        <ele>1482</ele>
        <time>2021-08-11T10:18:36.461Z</time>
      </trkpt>
      <trkpt lat="46.868" lon="8.50931">
        <ele>1482</ele>
        <time>2021-08-11T10:18:37.460Z</time>
      </trkpt>
      <trkpt lat="46.868" lon="8.50929">
        <ele>1483</ele>
        <time>2021-08-11T10:18:38.461Z</time>
      </trkpt>
      <trkpt lat="46.868" lon="8.50927">
        <ele>1483</ele>
        <time>2021-08-11T10:18:39.460Z</time>
      </trkpt>
      <trkpt lat="46.868" lon="8.50926">
        <ele>1482</ele>
        <time>2021-08-11T10:18:40.460Z</time>
      </trkpt>
      <trkpt lat="46.86801" lon="8.50925">
        <ele>1482</ele>
        <time>2021-08-11T10:18:41.460Z</time>
      </trkpt>
      <trkpt lat="46.86802" lon="8.50923">
        <ele>1482</ele>
        <time>2021-08-11T10:18:42.460Z</time>
      </trkpt>
      <trkpt lat="46.86802" lon="8.50922">
        <ele>1481</ele>
        <time>2021-08-11T10:18:43.461Z</time>
      </trkpt>
      <trkpt lat="46.86803" lon="8.5092">
        <ele>1481</ele>
        <time>2021-08-11T10:18:44.460Z</time>
      </trkpt>
      <trkpt lat="46.86803" lon="8.50919">
        <ele>1480</ele>
        <time>2021-08-11T10:18:45.461Z</time>
      </trkpt>
      <trkpt lat="46.86804" lon="8.50917">
        <ele>1480</ele>
        <time>2021-08-11T10:18:46.460Z</time>
      </trkpt>
      <trkpt lat="46.86805" lon="8.50916">
        <ele>1480</ele>
        <time>2021-08-11T10:18:47.460Z</time>
      </trkpt>
      <trkpt lat="46.86806" lon="8.50915">
        <ele>1480</ele>
        <time>2021-08-11T10:18:48.461Z</time>
      </trkpt>
      <trkpt lat="46.86807" lon="8.50914">
        <ele>1480</ele>
        <time>2021-08-11T10:18:49.460Z</time>
      </trkpt>
      <trkpt lat="46.86807" lon="8.50913">
        <ele>1480</ele>
        <time>2021-08-11T10:18:50.461Z</time>
      </trkpt>
      <trkpt lat="46.86807" lon="8.50912">
        <ele>1480</ele>
        <time>2021-08-11T10:18:51.460Z</time>
      </trkpt>
      <trkpt lat="46.86808" lon="8.5091">
        <ele>1481</ele>
        <time>2021-08-11T10:18:52.461Z</time>
      </trkpt>
      <trkpt lat="46.86809" lon="8.50909">
        <ele>1481</ele>
        <time>2021-08-11T10:18:53.461Z</time>
      </trkpt>
      <trkpt lat="46.8681" lon="8.50908">
        <ele>1481</ele>
        <time>2021-08-11T10:18:54.461Z</time>
      </trkpt>
      <trkpt lat="46.8681" lon="8.50906">
        <ele>1481</ele>
        <time>2021-08-11T10:18:55.461Z</time>
      </trkpt>
      <trkpt lat="46.86812" lon="8.50906">
        <ele>1481</ele>
        <time>2021-08-11T10:18:56.461Z</time>
      </trkpt>
      <trkpt lat="46.86813" lon="8.50905">
        <ele>1481</ele>
        <time>2021-08-11T10:18:57.461Z</time>
      </trkpt>
      <trkpt lat="46.86814" lon="8.50904">
        <ele>1482</ele>
        <time>2021-08-11T10:18:58.460Z</time>
      </trkpt>
      <trkpt lat="46.86814" lon="8.50904">
        <ele>1483</ele>
        <time>2021-08-11T10:18:59.461Z</time>
      </trkpt>
      <trkpt lat="46.86816" lon="8.50903">
        <ele>1483</ele>
        <time>2021-08-11T10:19:00.461Z</time>
      </trkpt>
      <trkpt lat="46.86817" lon="8.50901">
        <ele>1484</ele>
        <time>2021-08-11T10:19:01.461Z</time>
      </trkpt>
      <trkpt lat="46.86818" lon="8.50899">
        <ele>1483</ele>
        <time>2021-08-11T10:19:02.460Z</time>
      </trkpt>
      <trkpt lat="46.86819" lon="8.50898">
        <ele>1484</ele>
        <time>2021-08-11T10:19:03.461Z</time>
      </trkpt>
      <trkpt lat="46.8682" lon="8.50897">
        <ele>1484</ele>
        <time>2021-08-11T10:19:04.461Z</time>
      </trkpt>
      <trkpt lat="46.86821" lon="8.50896">
        <ele>1484</ele>
        <time>2021-08-11T10:19:05.461Z</time>
      </trkpt>
      <trkpt lat="46.86822" lon="8.50894">
        <ele>1484</ele>
        <time>2021-08-11T10:19:06.460Z</time>
      </trkpt>
      <trkpt lat="46.86823" lon="8.50893">
        <ele>1484</ele>
        <time>2021-08-11T10:19:07.460Z</time>
      </trkpt>
      <trkpt lat="46.86824" lon="8.50892">
        <ele>1484</ele>
        <time>2021-08-11T10:19:08.461Z</time>
      </trkpt>
      <trkpt lat="46.86825" lon="8.50892">
        <ele>1483</ele>
        <time>2021-08-11T10:19:09.461Z</time>
      </trkpt>
      <trkpt lat="46.86825" lon="8.50891">
        <ele>1482</ele>
        <time>2021-08-11T10:19:10.461Z</time>
      </trkpt>
      <trkpt lat="46.86827" lon="8.5089">
        <ele>1482</ele>
        <time>2021-08-11T10:19:11.460Z</time>
      </trkpt>
      <trkpt lat="46.86827" lon="8.5089">
        <ele>1482</ele>
        <time>2021-08-11T10:19:12.460Z</time>
      </trkpt>
      <trkpt lat="46.86828" lon="8.5089">
        <ele>1481</ele>
        <time>2021-08-11T10:19:13.461Z</time>
      </trkpt>
      <trkpt lat="46.8683" lon="8.50889">
        <ele>1481</ele>
        <time>2021-08-11T10:19:14.460Z</time>
      </trkpt>
      <trkpt lat="46.8683" lon="8.50888">
        <ele>1481</ele>
        <time>2021-08-11T10:19:15.461Z</time>
      </trkpt>
      <trkpt lat="46.86832" lon="8.50888">
        <ele>1481</ele>
        <time>2021-08-11T10:19:16.460Z</time>
      </trkpt>
      <trkpt lat="46.86833" lon="8.50887">
        <ele>1481</ele>
        <time>2021-08-11T10:19:17.461Z</time>
      </trkpt>
      <trkpt lat="46.86833" lon="8.50887">
        <ele>1481</ele>
        <time>2021-08-11T10:19:18.461Z</time>
      </trkpt>
      <trkpt lat="46.86834" lon="8.50886">
        <ele>1481</ele>
        <time>2021-08-11T10:19:19.461Z</time>
      </trkpt>
      <trkpt lat="46.86835" lon="8.50886">
        <ele>1481</ele>
        <time>2021-08-11T10:19:20.461Z</time>
      </trkpt>
      <trkpt lat="46.86836" lon="8.50885">
        <ele>1481</ele>
        <time>2021-08-11T10:19:21.460Z</time>
      </trkpt>
      <trkpt lat="46.86837" lon="8.50884">
        <ele>1481</ele>
        <time>2021-08-11T10:19:22.460Z</time>
      </trkpt>
      <trkpt lat="46.86837" lon="8.50883">
        <ele>1481</ele>
        <time>2021-08-11T10:19:23.461Z</time>
      </trkpt>
      <trkpt lat="46.86839" lon="8.50883">
        <ele>1481</ele>
        <time>2021-08-11T10:19:24.460Z</time>
      </trkpt>
      <trkpt lat="46.8684" lon="8.50882">
        <ele>1481</ele>
        <time>2021-08-11T10:19:25.461Z</time>
      </trkpt>
      <trkpt lat="46.86841" lon="8.50882">
        <ele>1481</ele>
        <time>2021-08-11T10:19:26.461Z</time>
      </trkpt>
      <trkpt lat="46.86842" lon="8.50881">
        <ele>1482</ele>
        <time>2021-08-11T10:19:27.460Z</time>
      </trkpt>
      <trkpt lat="46.86843" lon="8.50881">
        <ele>1482</ele>
        <time>2021-08-11T10:19:28.461Z</time>
      </trkpt>
      <trkpt lat="46.86844" lon="8.5088">
        <ele>1482</ele>
        <time>2021-08-11T10:19:29.460Z</time>
      </trkpt>
      <trkpt lat="46.86846" lon="8.50879">
        <ele>1482</ele>
        <time>2021-08-11T10:19:30.461Z</time>
      </trkpt>
      <trkpt lat="46.86848" lon="8.50878">
        <ele>1481</ele>
        <time>2021-08-11T10:19:31.460Z</time>
      </trkpt>
      <trkpt lat="46.86849" lon="8.50877">
        <ele>1482</ele>
        <time>2021-08-11T10:19:32.460Z</time>
      </trkpt>
      <trkpt lat="46.8685" lon="8.50877">
        <ele>1482</ele>
        <time>2021-08-11T10:19:33.460Z</time>
      </trkpt>
      <trkpt lat="46.86852" lon="8.50876">
        <ele>1482</ele>
        <time>2021-08-11T10:19:34.461Z</time>
      </trkpt>
      <trkpt lat="46.86853" lon="8.50875">
        <ele>1482</ele>
        <time>2021-08-11T10:19:35.461Z</time>
      </trkpt>
      <trkpt lat="46.86853" lon="8.50875">
        <ele>1482</ele>
        <time>2021-08-11T10:19:36.460Z</time>
      </trkpt>
      <trkpt lat="46.86854" lon="8.50874">
        <ele>1482</ele>
        <time>2021-08-11T10:19:37.461Z</time>
      </trkpt>
      <trkpt lat="46.86854" lon="8.50874">
        <ele>1482</ele>
        <time>2021-08-11T10:19:38.461Z</time>
      </trkpt>
      <trkpt lat="46.86854" lon="8.50874">
        <ele>1481</ele>
        <time>2021-08-11T10:19:39.461Z</time>
      </trkpt>
      <trkpt lat="46.86854" lon="8.50873">
        <ele>1481</ele>
        <time>2021-08-11T10:19:40.461Z</time>
      </trkpt>
      <trkpt lat="46.86854" lon="8.50873">
        <ele>1481</ele>
        <time>2021-08-11T10:19:41.460Z</time>
      </trkpt>
      <trkpt lat="46.86854" lon="8.50873">
        <ele>1480</ele>
        <time>2021-08-11T10:19:42.461Z</time>
      </trkpt>
      <trkpt lat="46.86854" lon="8.50873">
        <ele>1480</ele>
        <time>2021-08-11T10:19:43.460Z</time>
      </trkpt>
      <trkpt lat="46.86851" lon="8.50869">
        <ele>1477</ele>
        <time>2021-08-11T10:19:44.460Z</time>
      </trkpt>
      <trkpt lat="46.86852" lon="8.50869">
        <ele>1476</ele>
        <time>2021-08-11T10:19:45.461Z</time>
      </trkpt>
      <trkpt lat="46.86853" lon="8.50869">
        <ele>1475</ele>
        <time>2021-08-11T10:19:46.460Z</time>
      </trkpt>
      <trkpt lat="46.86854" lon="8.50869">
        <ele>1474</ele>
        <time>2021-08-11T10:19:47.461Z</time>
      </trkpt>
      <trkpt lat="46.86854" lon="8.50868">
        <ele>1473</ele>
        <time>2021-08-11T10:19:48.460Z</time>
      </trkpt>
      <trkpt lat="46.86854" lon="8.50869">
        <ele>1473</ele>
        <time>2021-08-11T10:19:49.460Z</time>
      </trkpt>
      <trkpt lat="46.86854" lon="8.50869">
        <ele>1472</ele>
        <time>2021-08-11T10:19:50.462Z</time>
      </trkpt>
      <trkpt lat="46.86853" lon="8.5087">
        <ele>1470</ele>
        <time>2021-08-11T10:19:51.462Z</time>
      </trkpt>
      <trkpt lat="46.86854" lon="8.5087">
        <ele>1470</ele>
        <time>2021-08-11T10:19:52.462Z</time>
      </trkpt>
      <trkpt lat="46.86848" lon="8.50879">
        <ele>1474</ele>
        <time>2021-08-11T10:19:53.462Z</time>
      </trkpt>
      <trkpt lat="46.86848" lon="8.50879">
        <ele>1474</ele>
        <time>2021-08-11T10:19:54.461Z</time>
      </trkpt>
      <trkpt lat="46.86848" lon="8.50881">
        <ele>1474</ele>
        <time>2021-08-11T10:19:55.462Z</time>
      </trkpt>
      <trkpt lat="46.86848" lon="8.50881">
        <ele>1474</ele>
        <time>2021-08-11T10:19:56.461Z</time>
      </trkpt>
      <trkpt lat="46.86848" lon="8.50882">
        <ele>1475</ele>
        <time>2021-08-11T10:19:57.461Z</time>
      </trkpt>
      <trkpt lat="46.86847" lon="8.50882">
        <ele>1475</ele>
        <time>2021-08-11T10:19:58.462Z</time>
      </trkpt>
      <trkpt lat="46.86847" lon="8.50882">
        <ele>1475</ele>
        <time>2021-08-11T10:19:59.462Z</time>
      </trkpt>
      <trkpt lat="46.86847" lon="8.50882">
        <ele>1475</ele>
        <time>2021-08-11T10:20:00.462Z</time>
      </trkpt>
      <trkpt lat="46.86847" lon="8.50882">
        <ele>1475</ele>
        <time>2021-08-11T10:20:01.461Z</time>
      </trkpt>
      <trkpt lat="46.86848" lon="8.50882">
        <ele>1475</ele>
        <time>2021-08-11T10:20:02.463Z</time>
      </trkpt>
      <trkpt lat="46.86848" lon="8.50883">
        <ele>1475</ele>
        <time>2021-08-11T10:20:03.462Z</time>
      </trkpt>
      <trkpt lat="46.86852" lon="8.50877">
        <ele>1484</ele>
        <time>2021-08-11T10:20:04.462Z</time>
      </trkpt>
      <trkpt lat="46.86853" lon="8.50878">
        <ele>1485</ele>
        <time>2021-08-11T10:20:05.463Z</time>
      </trkpt>
      <trkpt lat="46.86853" lon="8.5088">
        <ele>1486</ele>
        <time>2021-08-11T10:20:06.462Z</time>
      </trkpt>
      <trkpt lat="46.86853" lon="8.50881">
        <ele>1486</ele>
        <time>2021-08-11T10:20:07.463Z</time>
      </trkpt>
      <trkpt lat="46.86853" lon="8.50881">
        <ele>1487</ele>
        <time>2021-08-11T10:20:08.463Z</time>
      </trkpt>
      <trkpt lat="46.86854" lon="8.5088">
        <ele>1488</ele>
        <time>2021-08-11T10:20:09.463Z</time>
      </trkpt>
      <trkpt lat="46.86853" lon="8.50877">
        <ele>1491</ele>
        <time>2021-08-11T10:20:10.462Z</time>
      </trkpt>
      <trkpt lat="46.86853" lon="8.50876">
        <ele>1491</ele>
        <time>2021-08-11T10:20:11.463Z</time>
      </trkpt>
      <trkpt lat="46.86853" lon="8.50874">
        <ele>1491</ele>
        <time>2021-08-11T10:20:12.463Z</time>
      </trkpt>
      <trkpt lat="46.86853" lon="8.50873">
        <ele>1494</ele>
        <time>2021-08-11T10:20:13.463Z</time>
      </trkpt>
      <trkpt lat="46.86851" lon="8.50877">
        <ele>1496</ele>
        <time>2021-08-11T10:20:14.463Z</time>
      </trkpt>
      <trkpt lat="46.86853" lon="8.50877">
        <ele>1487</ele>
        <time>2021-08-11T10:20:15.462Z</time>
      </trkpt>
      <trkpt lat="46.86853" lon="8.50878">
        <ele>1487</ele>
        <time>2021-08-11T10:20:16.462Z</time>
      </trkpt>
      <trkpt lat="46.86855" lon="8.50875">
        <ele>1484</ele>
        <time>2021-08-11T10:20:17.462Z</time>
      </trkpt>
      <trkpt lat="46.86852" lon="8.50872">
        <ele>1480</ele>
        <time>2021-08-11T10:20:18.463Z</time>
      </trkpt>
      <trkpt lat="46.86852" lon="8.50872">
        <ele>1481</ele>
        <time>2021-08-11T10:20:19.462Z</time>
      </trkpt>
      <trkpt lat="46.86852" lon="8.50872">
        <ele>1481</ele>
        <time>2021-08-11T10:20:20.462Z</time>
      </trkpt>
      <trkpt lat="46.86852" lon="8.50872">
        <ele>1481</ele>
        <time>2021-08-11T10:20:21.463Z</time>
      </trkpt>
      <trkpt lat="46.86852" lon="8.50872">
        <ele>1481</ele>
        <time>2021-08-11T10:20:22.463Z</time>
      </trkpt>
      <trkpt lat="46.86852" lon="8.50872">
        <ele>1482</ele>
        <time>2021-08-11T10:20:23.464Z</time>
      </trkpt>
      <trkpt lat="46.86853" lon="8.50872">
        <ele>1481</ele>
        <time>2021-08-11T10:20:24.464Z</time>
      </trkpt>
      <trkpt lat="46.86853" lon="8.50873">
        <ele>1481</ele>
        <time>2021-08-11T10:20:25.463Z</time>
      </trkpt>
      <trkpt lat="46.86853" lon="8.50873">
        <ele>1481</ele>
        <time>2021-08-11T10:20:26.463Z</time>
      </trkpt>
      <trkpt lat="46.86852" lon="8.50871">
        <ele>1481</ele>
        <time>2021-08-11T10:20:27.464Z</time>
      </trkpt>
      <trkpt lat="46.86852" lon="8.50871">
        <ele>1482</ele>
        <time>2021-08-11T10:20:28.463Z</time>
      </trkpt>
      <trkpt lat="46.86851" lon="8.50871">
        <ele>1482</ele>
        <time>2021-08-11T10:20:29.463Z</time>
      </trkpt>
      <trkpt lat="46.86851" lon="8.50871">
        <ele>1483</ele>
        <time>2021-08-11T10:20:30.464Z</time>
      </trkpt>
      <trkpt lat="46.86851" lon="8.50871">
        <ele>1483</ele>
        <time>2021-08-11T10:20:31.464Z</time>
      </trkpt>
      <trkpt lat="46.86851" lon="8.5087">
        <ele>1483</ele>
        <time>2021-08-11T10:20:32.464Z</time>
      </trkpt>
      <trkpt lat="46.86851" lon="8.5087">
        <ele>1483</ele>
        <time>2021-08-11T10:20:33.463Z</time>
      </trkpt>
      <trkpt lat="46.8685" lon="8.5087">
        <ele>1483</ele>
        <time>2021-08-11T10:20:34.464Z</time>
      </trkpt>
      <trkpt lat="46.8685" lon="8.50873">
        <ele>1481</ele>
        <time>2021-08-11T10:20:35.465Z</time>
      </trkpt>
      <trkpt lat="46.8685" lon="8.50873">
        <ele>1481</ele>
        <time>2021-08-11T10:20:36.464Z</time>
      </trkpt>
      <trkpt lat="46.86849" lon="8.50873">
        <ele>1481</ele>
        <time>2021-08-11T10:20:37.464Z</time>
      </trkpt>
      <trkpt lat="46.8685" lon="8.50873">
        <ele>1483</ele>
        <time>2021-08-11T10:20:38.466Z</time>
      </trkpt>
      <trkpt lat="46.8685" lon="8.50873">
        <ele>1483</ele>
        <time>2021-08-11T10:20:39.465Z</time>
      </trkpt>
      <trkpt lat="46.86851" lon="8.50873">
        <ele>1483</ele>
        <time>2021-08-11T10:20:40.465Z</time>
      </trkpt>
      <trkpt lat="46.86852" lon="8.50873">
        <ele>1483</ele>
        <time>2021-08-11T10:20:41.465Z</time>
      </trkpt>
      <trkpt lat="46.86852" lon="8.50872">
        <ele>1483</ele>
        <time>2021-08-11T10:20:42.466Z</time>
      </trkpt>
      <trkpt lat="46.86853" lon="8.50873">
        <ele>1483</ele>
        <time>2021-08-11T10:20:43.466Z</time>
      </trkpt>
      <trkpt lat="46.86854" lon="8.50872">
        <ele>1483</ele>
        <time>2021-08-11T10:20:44.465Z</time>
      </trkpt>
      <trkpt lat="46.86854" lon="8.50871">
        <ele>1483</ele>
        <time>2021-08-11T10:20:45.466Z</time>
      </trkpt>
      <trkpt lat="46.86855" lon="8.5087">
        <ele>1483</ele>
        <time>2021-08-11T10:20:46.466Z</time>
      </trkpt>
      <trkpt lat="46.86856" lon="8.50868">
        <ele>1483</ele>
        <time>2021-08-11T10:20:47.466Z</time>
      </trkpt>
      <trkpt lat="46.86856" lon="8.50867">
        <ele>1483</ele>
        <time>2021-08-11T10:20:48.466Z</time>
      </trkpt>
      <trkpt lat="46.86856" lon="8.50865">
        <ele>1483</ele>
        <time>2021-08-11T10:20:49.466Z</time>
      </trkpt>
      <trkpt lat="46.86855" lon="8.50864">
        <ele>1483</ele>
        <time>2021-08-11T10:20:50.466Z</time>
      </trkpt>
      <trkpt lat="46.86854" lon="8.50864">
        <ele>1483</ele>
        <time>2021-08-11T10:20:51.466Z</time>
      </trkpt>
      <trkpt lat="46.86853" lon="8.50863">
        <ele>1483</ele>
        <time>2021-08-11T10:20:52.465Z</time>
      </trkpt>
      <trkpt lat="46.86852" lon="8.50863">
        <ele>1483</ele>
        <time>2021-08-11T10:20:53.466Z</time>
      </trkpt>
      <trkpt lat="46.86852" lon="8.50863">
        <ele>1483</ele>
        <time>2021-08-11T10:20:54.465Z</time>
      </trkpt>
      <trkpt lat="46.86852" lon="8.50863">
        <ele>1482</ele>
        <time>2021-08-11T10:20:55.465Z</time>
      </trkpt>
      <trkpt lat="46.86852" lon="8.50862">
        <ele>1482</ele>
        <time>2021-08-11T10:20:56.466Z</time>
      </trkpt>
      <trkpt lat="46.86851" lon="8.50863">
        <ele>1482</ele>
        <time>2021-08-11T10:20:57.466Z</time>
      </trkpt>
      <trkpt lat="46.8685" lon="8.50863">
        <ele>1481</ele>
        <time>2021-08-11T10:20:58.466Z</time>
      </trkpt>
      <trkpt lat="46.8685" lon="8.50863">
        <ele>1481</ele>
        <time>2021-08-11T10:20:59.466Z</time>
      </trkpt>
      <trkpt lat="46.86849" lon="8.50863">
        <ele>1480</ele>
        <time>2021-08-11T10:21:00.465Z</time>
      </trkpt>
      <trkpt lat="46.86849" lon="8.50863">
        <ele>1479</ele>
        <time>2021-08-11T10:21:01.466Z</time>
      </trkpt>
      <trkpt lat="46.86848" lon="8.50862">
        <ele>1479</ele>
        <time>2021-08-11T10:21:02.466Z</time>
      </trkpt>
      <trkpt lat="46.86848" lon="8.50863">
        <ele>1478</ele>
        <time>2021-08-11T10:21:03.466Z</time>
      </trkpt>
      <trkpt lat="46.86849" lon="8.50863">
        <ele>1478</ele>
        <time>2021-08-11T10:21:04.465Z</time>
      </trkpt>
      <trkpt lat="46.86848" lon="8.50862">
        <ele>1479</ele>
        <time>2021-08-11T10:21:05.466Z</time>
      </trkpt>
      <trkpt lat="46.86847" lon="8.50862">
        <ele>1479</ele>
        <time>2021-08-11T10:21:06.466Z</time>
      </trkpt>
      <trkpt lat="46.86847" lon="8.50863">
        <ele>1479</ele>
        <time>2021-08-11T10:21:07.466Z</time>
      </trkpt>
      <trkpt lat="46.86847" lon="8.50864">
        <ele>1478</ele>
        <time>2021-08-11T10:21:08.467Z</time>
      </trkpt>
      <trkpt lat="46.86847" lon="8.50865">
        <ele>1478</ele>
        <time>2021-08-11T10:21:09.466Z</time>
      </trkpt>
      <trkpt lat="46.86847" lon="8.50869">
        <ele>1473</ele>
        <time>2021-08-11T10:21:10.468Z</time>
      </trkpt>
      <trkpt lat="46.86847" lon="8.5087">
        <ele>1472</ele>
        <time>2021-08-11T10:21:11.468Z</time>
      </trkpt>
      <trkpt lat="46.86847" lon="8.5087">
        <ele>1472</ele>
        <time>2021-08-11T10:21:12.467Z</time>
      </trkpt>
      <trkpt lat="46.86846" lon="8.50868">
        <ele>1472</ele>
        <time>2021-08-11T10:21:13.469Z</time>
      </trkpt>
      <trkpt lat="46.86846" lon="8.50868">
        <ele>1472</ele>
        <time>2021-08-11T10:21:14.468Z</time>
      </trkpt>
      <trkpt lat="46.86845" lon="8.50867">
        <ele>1472</ele>
        <time>2021-08-11T10:21:15.468Z</time>
      </trkpt>
      <trkpt lat="46.86844" lon="8.50867">
        <ele>1472</ele>
        <time>2021-08-11T10:21:16.469Z</time>
      </trkpt>
      <trkpt lat="46.86844" lon="8.50866">
        <ele>1472</ele>
        <time>2021-08-11T10:21:17.468Z</time>
      </trkpt>
      <trkpt lat="46.86843" lon="8.50866">
        <ele>1473</ele>
        <time>2021-08-11T10:21:18.468Z</time>
      </trkpt>
      <trkpt lat="46.86842" lon="8.50866">
        <ele>1473</ele>
        <time>2021-08-11T10:21:19.468Z</time>
      </trkpt>
      <trkpt lat="46.86842" lon="8.50866">
        <ele>1474</ele>
        <time>2021-08-11T10:21:20.468Z</time>
      </trkpt>
      <trkpt lat="46.86841" lon="8.50865">
        <ele>1474</ele>
        <time>2021-08-11T10:21:21.468Z</time>
      </trkpt>
      <trkpt lat="46.86841" lon="8.50865">
        <ele>1475</ele>
        <time>2021-08-11T10:21:22.469Z</time>
      </trkpt>
      <trkpt lat="46.86841" lon="8.50865">
        <ele>1475</ele>
        <time>2021-08-11T10:21:23.468Z</time>
      </trkpt>
      <trkpt lat="46.86841" lon="8.50865">
        <ele>1476</ele>
        <time>2021-08-11T10:21:24.469Z</time>
      </trkpt>
      <trkpt lat="46.86842" lon="8.50866">
        <ele>1479</ele>
        <time>2021-08-11T10:21:25.470Z</time>
      </trkpt>
      <trkpt lat="46.86843" lon="8.50866">
        <ele>1480</ele>
        <time>2021-08-11T10:21:26.471Z</time>
      </trkpt>
      <trkpt lat="46.86843" lon="8.50866">
        <ele>1480</ele>
        <time>2021-08-11T10:21:27.470Z</time>
      </trkpt>
      <trkpt lat="46.86841" lon="8.50864">
        <ele>1482</ele>
        <time>2021-08-11T10:21:28.471Z</time>
      </trkpt>
      <trkpt lat="46.86841" lon="8.50864">
        <ele>1482</ele>
        <time>2021-08-11T10:21:29.472Z</time>
      </trkpt>
      <trkpt lat="46.8684" lon="8.50863">
        <ele>1483</ele>
        <time>2021-08-11T10:21:30.472Z</time>
      </trkpt>
      <trkpt lat="46.8684" lon="8.50862">
        <ele>1483</ele>
        <time>2021-08-11T10:21:31.472Z</time>
      </trkpt>
      <trkpt lat="46.86842" lon="8.50861">
        <ele>1485</ele>
        <time>2021-08-11T10:21:32.473Z</time>
      </trkpt>
      <trkpt lat="46.86842" lon="8.50861">
        <ele>1485</ele>
        <time>2021-08-11T10:21:33.473Z</time>
      </trkpt>
      <trkpt lat="46.86843" lon="8.50866">
        <ele>1475</ele>
        <time>2021-08-11T10:21:34.473Z</time>
      </trkpt>
      <trkpt lat="46.86842" lon="8.50865">
        <ele>1474</ele>
        <time>2021-08-11T10:21:35.472Z</time>
      </trkpt>
      <trkpt lat="46.86841" lon="8.50864">
        <ele>1474</ele>
        <time>2021-08-11T10:21:36.472Z</time>
      </trkpt>
      <trkpt lat="46.86841" lon="8.50863">
        <ele>1473</ele>
        <time>2021-08-11T10:21:37.473Z</time>
      </trkpt>
      <trkpt lat="46.8684" lon="8.50862">
        <ele>1473</ele>
        <time>2021-08-11T10:21:38.473Z</time>
      </trkpt>
      <trkpt lat="46.86839" lon="8.50862">
        <ele>1473</ele>
        <time>2021-08-11T10:21:39.473Z</time>
      </trkpt>
      <trkpt lat="46.86839" lon="8.50863">
        <ele>1473</ele>
        <time>2021-08-11T10:21:40.473Z</time>
      </trkpt>
      <trkpt lat="46.86838" lon="8.50863">
        <ele>1474</ele>
        <time>2021-08-11T10:21:41.472Z</time>
      </trkpt>
      <trkpt lat="46.86837" lon="8.50864">
        <ele>1474</ele>
        <time>2021-08-11T10:21:42.473Z</time>
      </trkpt>
      <trkpt lat="46.86836" lon="8.50863">
        <ele>1479</ele>
        <time>2021-08-11T10:21:43.475Z</time>
      </trkpt>
      <trkpt lat="46.86835" lon="8.50863">
        <ele>1479</ele>
        <time>2021-08-11T10:21:44.474Z</time>
      </trkpt>
      <trkpt lat="46.86835" lon="8.50863">
        <ele>1479</ele>
        <time>2021-08-11T10:21:45.474Z</time>
      </trkpt>
      <trkpt lat="46.86834" lon="8.50863">
        <ele>1481</ele>
        <time>2021-08-11T10:21:46.476Z</time>
      </trkpt>
      <trkpt lat="46.86834" lon="8.50864">
        <ele>1482</ele>
        <time>2021-08-11T10:21:47.476Z</time>
      </trkpt>
      <trkpt lat="46.86834" lon="8.50865">
        <ele>1482</ele>
        <time>2021-08-11T10:21:48.475Z</time>
      </trkpt>
      <trkpt lat="46.86833" lon="8.50865">
        <ele>1483</ele>
        <time>2021-08-11T10:21:49.475Z</time>
      </trkpt>
      <trkpt lat="46.86832" lon="8.50865">
        <ele>1483</ele>
        <time>2021-08-11T10:21:50.475Z</time>
      </trkpt>
      <trkpt lat="46.86832" lon="8.50864">
        <ele>1484</ele>
        <time>2021-08-11T10:21:51.476Z</time>
      </trkpt>
      <trkpt lat="46.86832" lon="8.50864">
        <ele>1484</ele>
        <time>2021-08-11T10:21:52.475Z</time>
      </trkpt>
      <trkpt lat="46.86832" lon="8.50863">
        <ele>1484</ele>
        <time>2021-08-11T10:21:53.476Z</time>
      </trkpt>
      <trkpt lat="46.86832" lon="8.50863">
        <ele>1484</ele>
        <time>2021-08-11T10:21:54.476Z</time>
      </trkpt>
      <trkpt lat="46.86833" lon="8.50863">
        <ele>1484</ele>
        <time>2021-08-11T10:21:55.475Z</time>
      </trkpt>
      <trkpt lat="46.86832" lon="8.50863">
        <ele>1484</ele>
        <time>2021-08-11T10:21:56.476Z</time>
      </trkpt>
      <trkpt lat="46.86831" lon="8.50863">
        <ele>1485</ele>
        <time>2021-08-11T10:21:57.475Z</time>
      </trkpt>
      <trkpt lat="46.86831" lon="8.50863">
        <ele>1485</ele>
        <time>2021-08-11T10:21:58.476Z</time>
      </trkpt>
      <trkpt lat="46.8683" lon="8.50863">
        <ele>1485</ele>
        <time>2021-08-11T10:21:59.475Z</time>
      </trkpt>
      <trkpt lat="46.8683" lon="8.50863">
        <ele>1484</ele>
        <time>2021-08-11T10:22:00.476Z</time>
      </trkpt>
      <trkpt lat="46.86829" lon="8.50864">
        <ele>1484</ele>
        <time>2021-08-11T10:22:01.476Z</time>
      </trkpt>
      <trkpt lat="46.86828" lon="8.50864">
        <ele>1484</ele>
        <time>2021-08-11T10:22:02.476Z</time>
      </trkpt>
      <trkpt lat="46.86828" lon="8.50864">
        <ele>1484</ele>
        <time>2021-08-11T10:22:03.476Z</time>
      </trkpt>
      <trkpt lat="46.86828" lon="8.50864">
        <ele>1485</ele>
        <time>2021-08-11T10:22:04.476Z</time>
      </trkpt>
      <trkpt lat="46.86828" lon="8.50864">
        <ele>1485</ele>
        <time>2021-08-11T10:22:05.476Z</time>
      </trkpt>
      <trkpt lat="46.86827" lon="8.50864">
        <ele>1485</ele>
        <time>2021-08-11T10:22:06.476Z</time>
      </trkpt>
      <trkpt lat="46.86827" lon="8.50864">
        <ele>1486</ele>
        <time>2021-08-11T10:22:07.476Z</time>
      </trkpt>
      <trkpt lat="46.86826" lon="8.50865">
        <ele>1484</ele>
        <time>2021-08-11T10:22:08.476Z</time>
      </trkpt>
      <trkpt lat="46.86825" lon="8.50865">
        <ele>1483</ele>
        <time>2021-08-11T10:22:09.475Z</time>
      </trkpt>
      <trkpt lat="46.86824" lon="8.50866">
        <ele>1483</ele>
        <time>2021-08-11T10:22:10.475Z</time>
      </trkpt>
      <trkpt lat="46.86824" lon="8.50866">
        <ele>1483</ele>
        <time>2021-08-11T10:22:11.475Z</time>
      </trkpt>
      <trkpt lat="46.86824" lon="8.50867">
        <ele>1483</ele>
        <time>2021-08-11T10:22:12.476Z</time>
      </trkpt>
      <trkpt lat="46.86824" lon="8.50868">
        <ele>1483</ele>
        <time>2021-08-11T10:22:13.476Z</time>
      </trkpt>
      <trkpt lat="46.86824" lon="8.50867">
        <ele>1482</ele>
        <time>2021-08-11T10:22:14.475Z</time>
      </trkpt>
      <trkpt lat="46.86823" lon="8.50867">
        <ele>1482</ele>
        <time>2021-08-11T10:22:15.475Z</time>
      </trkpt>
      <trkpt lat="46.86822" lon="8.50867">
        <ele>1482</ele>
        <time>2021-08-11T10:22:16.476Z</time>
      </trkpt>
      <trkpt lat="46.86822" lon="8.50867">
        <ele>1481</ele>
        <time>2021-08-11T10:22:17.476Z</time>
      </trkpt>
      <trkpt lat="46.86822" lon="8.50868">
        <ele>1481</ele>
        <time>2021-08-11T10:22:18.476Z</time>
      </trkpt>
      <trkpt lat="46.86821" lon="8.50869">
        <ele>1480</ele>
        <time>2021-08-11T10:22:19.475Z</time>
      </trkpt>
      <trkpt lat="46.8682" lon="8.5087">
        <ele>1479</ele>
        <time>2021-08-11T10:22:20.475Z</time>
      </trkpt>
      <trkpt lat="46.86819" lon="8.5087">
        <ele>1479</ele>
        <time>2021-08-11T10:22:21.476Z</time>
      </trkpt>
      <trkpt lat="46.86818" lon="8.5087">
        <ele>1478</ele>
        <time>2021-08-11T10:22:22.475Z</time>
      </trkpt>
      <trkpt lat="46.86817" lon="8.50871">
        <ele>1478</ele>
        <time>2021-08-11T10:22:23.476Z</time>
      </trkpt>
      <trkpt lat="46.86817" lon="8.50871">
        <ele>1478</ele>
        <time>2021-08-11T10:22:24.475Z</time>
      </trkpt>
      <trkpt lat="46.86816" lon="8.50871">
        <ele>1478</ele>
        <time>2021-08-11T10:22:25.475Z</time>
      </trkpt>
      <trkpt lat="46.86816" lon="8.5087">
        <ele>1477</ele>
        <time>2021-08-11T10:22:26.475Z</time>
      </trkpt>
      <trkpt lat="46.86816" lon="8.5087">
        <ele>1477</ele>
        <time>2021-08-11T10:22:27.475Z</time>
      </trkpt>
      <trkpt lat="46.86815" lon="8.5087">
        <ele>1476</ele>
        <time>2021-08-11T10:22:28.476Z</time>
      </trkpt>
      <trkpt lat="46.86815" lon="8.50871">
        <ele>1476</ele>
        <time>2021-08-11T10:22:29.476Z</time>
      </trkpt>
      <trkpt lat="46.86814" lon="8.5087">
        <ele>1476</ele>
        <time>2021-08-11T10:22:30.476Z</time>
      </trkpt>
      <trkpt lat="46.86814" lon="8.5087">
        <ele>1475</ele>
        <time>2021-08-11T10:22:31.476Z</time>
      </trkpt>
      <trkpt lat="46.86813" lon="8.5087">
        <ele>1475</ele>
        <time>2021-08-11T10:22:32.476Z</time>
      </trkpt>
      <trkpt lat="46.86812" lon="8.5087">
        <ele>1475</ele>
        <time>2021-08-11T10:22:33.475Z</time>
      </trkpt>
      <trkpt lat="46.86812" lon="8.5087">
        <ele>1476</ele>
        <time>2021-08-11T10:22:34.476Z</time>
      </trkpt>
      <trkpt lat="46.86811" lon="8.5087">
        <ele>1476</ele>
        <time>2021-08-11T10:22:35.476Z</time>
      </trkpt>
      <trkpt lat="46.8681" lon="8.50871">
        <ele>1477</ele>
        <time>2021-08-11T10:22:36.475Z</time>
      </trkpt>
      <trkpt lat="46.8681" lon="8.50871">
        <ele>1477</ele>
        <time>2021-08-11T10:22:37.476Z</time>
      </trkpt>
      <trkpt lat="46.86809" lon="8.50871">
        <ele>1477</ele>
        <time>2021-08-11T10:22:38.475Z</time>
      </trkpt>
      <trkpt lat="46.86809" lon="8.50872">
        <ele>1478</ele>
        <time>2021-08-11T10:22:39.476Z</time>
      </trkpt>
      <trkpt lat="46.86808" lon="8.50873">
        <ele>1478</ele>
        <time>2021-08-11T10:22:40.475Z</time>
      </trkpt>
      <trkpt lat="46.86808" lon="8.50873">
        <ele>1478</ele>
        <time>2021-08-11T10:22:41.475Z</time>
      </trkpt>
      <trkpt lat="46.86808" lon="8.50872">
        <ele>1478</ele>
        <time>2021-08-11T10:22:42.476Z</time>
      </trkpt>
      <trkpt lat="46.86807" lon="8.50872">
        <ele>1478</ele>
        <time>2021-08-11T10:22:43.475Z</time>
      </trkpt>
      <trkpt lat="46.86805" lon="8.50872">
        <ele>1479</ele>
        <time>2021-08-11T10:22:44.476Z</time>
      </trkpt>
      <trkpt lat="46.86805" lon="8.50872">
        <ele>1479</ele>
        <time>2021-08-11T10:22:45.475Z</time>
      </trkpt>
      <trkpt lat="46.86804" lon="8.50872">
        <ele>1480</ele>
        <time>2021-08-11T10:22:46.475Z</time>
      </trkpt>
      <trkpt lat="46.86803" lon="8.50871">
        <ele>1480</ele>
        <time>2021-08-11T10:22:47.475Z</time>
      </trkpt>
      <trkpt lat="46.86803" lon="8.50871">
        <ele>1480</ele>
        <time>2021-08-11T10:22:48.475Z</time>
      </trkpt>
      <trkpt lat="46.86802" lon="8.50872">
        <ele>1481</ele>
        <time>2021-08-11T10:22:49.475Z</time>
      </trkpt>
      <trkpt lat="46.86801" lon="8.50872">
        <ele>1481</ele>
        <time>2021-08-11T10:22:50.475Z</time>
      </trkpt>
      <trkpt lat="46.868" lon="8.50871">
        <ele>1481</ele>
        <time>2021-08-11T10:22:51.475Z</time>
      </trkpt>
      <trkpt lat="46.868" lon="8.50871">
        <ele>1482</ele>
        <time>2021-08-11T10:22:52.475Z</time>
      </trkpt>
      <trkpt lat="46.86799" lon="8.5087">
        <ele>1482</ele>
        <time>2021-08-11T10:22:53.475Z</time>
      </trkpt>
      <trkpt lat="46.86798" lon="8.5087">
        <ele>1482</ele>
        <time>2021-08-11T10:22:54.476Z</time>
      </trkpt>
      <trkpt lat="46.86797" lon="8.5087">
        <ele>1483</ele>
        <time>2021-08-11T10:22:55.475Z</time>
      </trkpt>
      <trkpt lat="46.86796" lon="8.5087">
        <ele>1483</ele>
        <time>2021-08-11T10:22:56.476Z</time>
      </trkpt>
      <trkpt lat="46.86796" lon="8.50871">
        <ele>1484</ele>
        <time>2021-08-11T10:22:57.476Z</time>
      </trkpt>
      <trkpt lat="46.86796" lon="8.50871">
        <ele>1484</ele>
        <time>2021-08-11T10:22:58.475Z</time>
      </trkpt>
      <trkpt lat="46.86795" lon="8.50872">
        <ele>1485</ele>
        <time>2021-08-11T10:22:59.475Z</time>
      </trkpt>
      <trkpt lat="46.86795" lon="8.50872">
        <ele>1485</ele>
        <time>2021-08-11T10:23:00.476Z</time>
      </trkpt>
      <trkpt lat="46.86794" lon="8.50872">
        <ele>1485</ele>
        <time>2021-08-11T10:23:01.476Z</time>
      </trkpt>
      <trkpt lat="46.86794" lon="8.50872">
        <ele>1484</ele>
        <time>2021-08-11T10:23:02.476Z</time>
      </trkpt>
      <trkpt lat="46.86793" lon="8.50873">
        <ele>1484</ele>
        <time>2021-08-11T10:23:03.475Z</time>
      </trkpt>
      <trkpt lat="46.86792" lon="8.50873">
        <ele>1483</ele>
        <time>2021-08-11T10:23:04.476Z</time>
      </trkpt>
      <trkpt lat="46.86791" lon="8.50873">
        <ele>1483</ele>
        <time>2021-08-11T10:23:05.476Z</time>
      </trkpt>
      <trkpt lat="46.8679" lon="8.50874">
        <ele>1483</ele>
        <time>2021-08-11T10:23:06.476Z</time>
      </trkpt>
      <trkpt lat="46.8679" lon="8.50875">
        <ele>1482</ele>
        <time>2021-08-11T10:23:07.476Z</time>
      </trkpt>
      <trkpt lat="46.8679" lon="8.50876">
        <ele>1482</ele>
        <time>2021-08-11T10:23:08.476Z</time>
      </trkpt>
      <trkpt lat="46.8679" lon="8.50876">
        <ele>1482</ele>
        <time>2021-08-11T10:23:09.475Z</time>
      </trkpt>
      <trkpt lat="46.8679" lon="8.50876">
        <ele>1481</ele>
        <time>2021-08-11T10:23:10.476Z</time>
      </trkpt>
      <trkpt lat="46.86789" lon="8.50877">
        <ele>1481</ele>
        <time>2021-08-11T10:23:11.476Z</time>
      </trkpt>
      <trkpt lat="46.86789" lon="8.50878">
        <ele>1481</ele>
        <time>2021-08-11T10:23:12.476Z</time>
      </trkpt>
      <trkpt lat="46.86789" lon="8.50879">
        <ele>1481</ele>
        <time>2021-08-11T10:23:13.475Z</time>
      </trkpt>
      <trkpt lat="46.86788" lon="8.5088">
        <ele>1481</ele>
        <time>2021-08-11T10:23:14.475Z</time>
      </trkpt>
      <trkpt lat="46.86788" lon="8.50881">
        <ele>1481</ele>
        <time>2021-08-11T10:23:15.476Z</time>
      </trkpt>
      <trkpt lat="46.86788" lon="8.50881">
        <ele>1481</ele>
        <time>2021-08-11T10:23:16.476Z</time>
      </trkpt>
      <trkpt lat="46.86787" lon="8.50881">
        <ele>1482</ele>
        <time>2021-08-11T10:23:17.476Z</time>
      </trkpt>
      <trkpt lat="46.86787" lon="8.50882">
        <ele>1483</ele>
        <time>2021-08-11T10:23:18.475Z</time>
      </trkpt>
      <trkpt lat="46.86786" lon="8.50882">
        <ele>1483</ele>
        <time>2021-08-11T10:23:19.475Z</time>
      </trkpt>
      <trkpt lat="46.86786" lon="8.50882">
        <ele>1483</ele>
        <time>2021-08-11T10:23:20.475Z</time>
      </trkpt>
      <trkpt lat="46.86786" lon="8.50883">
        <ele>1483</ele>
        <time>2021-08-11T10:23:21.476Z</time>
      </trkpt>
      <trkpt lat="46.86785" lon="8.50883">
        <ele>1483</ele>
        <time>2021-08-11T10:23:22.476Z</time>
      </trkpt>
      <trkpt lat="46.86785" lon="8.50883">
        <ele>1483</ele>
        <time>2021-08-11T10:23:23.476Z</time>
      </trkpt>
      <trkpt lat="46.86784" lon="8.50882">
        <ele>1482</ele>
        <time>2021-08-11T10:23:24.475Z</time>
      </trkpt>
      <trkpt lat="46.86784" lon="8.50882">
        <ele>1482</ele>
        <time>2021-08-11T10:23:25.475Z</time>
      </trkpt>
      <trkpt lat="46.86784" lon="8.50881">
        <ele>1481</ele>
        <time>2021-08-11T10:23:26.476Z</time>
      </trkpt>
      <trkpt lat="46.86783" lon="8.50881">
        <ele>1481</ele>
        <time>2021-08-11T10:23:27.476Z</time>
      </trkpt>
      <trkpt lat="46.86783" lon="8.5088">
        <ele>1482</ele>
        <time>2021-08-11T10:23:28.476Z</time>
      </trkpt>
      <trkpt lat="46.86783" lon="8.5088">
        <ele>1482</ele>
        <time>2021-08-11T10:23:29.476Z</time>
      </trkpt>
      <trkpt lat="46.86783" lon="8.5088">
        <ele>1482</ele>
        <time>2021-08-11T10:23:30.475Z</time>
      </trkpt>
      <trkpt lat="46.86783" lon="8.50879">
        <ele>1482</ele>
        <time>2021-08-11T10:23:31.476Z</time>
      </trkpt>
      <trkpt lat="46.86783" lon="8.50879">
        <ele>1482</ele>
        <time>2021-08-11T10:23:32.476Z</time>
      </trkpt>
      <trkpt lat="46.86783" lon="8.50878">
        <ele>1483</ele>
        <time>2021-08-11T10:23:33.475Z</time>
      </trkpt>
      <trkpt lat="46.86784" lon="8.50877">
        <ele>1484</ele>
        <time>2021-08-11T10:23:34.476Z</time>
      </trkpt>
      <trkpt lat="46.86784" lon="8.50876">
        <ele>1484</ele>
        <time>2021-08-11T10:23:35.476Z</time>
      </trkpt>
      <trkpt lat="46.86784" lon="8.50875">
        <ele>1485</ele>
        <time>2021-08-11T10:23:36.475Z</time>
      </trkpt>
      <trkpt lat="46.86784" lon="8.50874">
        <ele>1486</ele>
        <time>2021-08-11T10:23:37.476Z</time>
      </trkpt>
      <trkpt lat="46.86785" lon="8.50873">
        <ele>1487</ele>
        <time>2021-08-11T10:23:38.476Z</time>
      </trkpt>
      <trkpt lat="46.86784" lon="8.50871">
        <ele>1487</ele>
        <time>2021-08-11T10:23:39.476Z</time>
      </trkpt>
      <trkpt lat="46.86785" lon="8.50871">
        <ele>1488</ele>
        <time>2021-08-11T10:23:40.476Z</time>
      </trkpt>
      <trkpt lat="46.86785" lon="8.5087">
        <ele>1489</ele>
        <time>2021-08-11T10:23:41.476Z</time>
      </trkpt>
      <trkpt lat="46.86785" lon="8.5087">
        <ele>1489</ele>
        <time>2021-08-11T10:23:42.475Z</time>
      </trkpt>
      <trkpt lat="46.86786" lon="8.50869">
        <ele>1490</ele>
        <time>2021-08-11T10:23:43.476Z</time>
      </trkpt>
      <trkpt lat="46.86786" lon="8.50868">
        <ele>1490</ele>
        <time>2021-08-11T10:23:44.476Z</time>
      </trkpt>
      <trkpt lat="46.86786" lon="8.50868">
        <ele>1490</ele>
        <time>2021-08-11T10:23:45.476Z</time>
      </trkpt>
      <trkpt lat="46.86786" lon="8.50867">
        <ele>1490</ele>
        <time>2021-08-11T10:23:46.475Z</time>
      </trkpt>
      <trkpt lat="46.86786" lon="8.50866">
        <ele>1490</ele>
        <time>2021-08-11T10:23:47.476Z</time>
      </trkpt>
      <trkpt lat="46.86786" lon="8.50865">
        <ele>1491</ele>
        <time>2021-08-11T10:23:48.476Z</time>
      </trkpt>
      <trkpt lat="46.86786" lon="8.50864">
        <ele>1491</ele>
        <time>2021-08-11T10:23:49.476Z</time>
      </trkpt>
      <trkpt lat="46.86786" lon="8.50863">
        <ele>1491</ele>
        <time>2021-08-11T10:23:50.476Z</time>
      </trkpt>
      <trkpt lat="46.86786" lon="8.50862">
        <ele>1491</ele>
        <time>2021-08-11T10:23:51.475Z</time>
      </trkpt>
      <trkpt lat="46.86787" lon="8.50861">
        <ele>1491</ele>
        <time>2021-08-11T10:23:52.476Z</time>
      </trkpt>
      <trkpt lat="46.86787" lon="8.50861">
        <ele>1491</ele>
        <time>2021-08-11T10:23:53.476Z</time>
      </trkpt>
      <trkpt lat="46.86787" lon="8.5086">
        <ele>1491</ele>
        <time>2021-08-11T10:23:54.476Z</time>
      </trkpt>
      <trkpt lat="46.86788" lon="8.50859">
        <ele>1490</ele>
        <time>2021-08-11T10:23:55.476Z</time>
      </trkpt>
      <trkpt lat="46.86788" lon="8.50858">
        <ele>1490</ele>
        <time>2021-08-11T10:23:56.475Z</time>
      </trkpt>
      <trkpt lat="46.86789" lon="8.50857">
        <ele>1490</ele>
        <time>2021-08-11T10:23:57.476Z</time>
      </trkpt>
      <trkpt lat="46.86789" lon="8.50856">
        <ele>1491</ele>
        <time>2021-08-11T10:23:58.476Z</time>
      </trkpt>
      <trkpt lat="46.86789" lon="8.50856">
        <ele>1491</ele>
        <time>2021-08-11T10:23:59.476Z</time>
      </trkpt>
      <trkpt lat="46.8679" lon="8.50855">
        <ele>1492</ele>
        <time>2021-08-11T10:24:00.476Z</time>
      </trkpt>
      <trkpt lat="46.8679" lon="8.50854">
        <ele>1492</ele>
        <time>2021-08-11T10:24:01.475Z</time>
      </trkpt>
      <trkpt lat="46.8679" lon="8.50853">
        <ele>1492</ele>
        <time>2021-08-11T10:24:02.475Z</time>
      </trkpt>
      <trkpt lat="46.86791" lon="8.50852">
        <ele>1492</ele>
        <time>2021-08-11T10:24:03.476Z</time>
      </trkpt>
      <trkpt lat="46.86791" lon="8.50852">
        <ele>1492</ele>
        <time>2021-08-11T10:24:04.476Z</time>
      </trkpt>
      <trkpt lat="46.86791" lon="8.50851">
        <ele>1492</ele>
        <time>2021-08-11T10:24:05.476Z</time>
      </trkpt>
      <trkpt lat="46.86791" lon="8.50851">
        <ele>1492</ele>
        <time>2021-08-11T10:24:06.475Z</time>
      </trkpt>
      <trkpt lat="46.86791" lon="8.5085">
        <ele>1492</ele>
        <time>2021-08-11T10:24:07.475Z</time>
      </trkpt>
      <trkpt lat="46.86792" lon="8.50849">
        <ele>1492</ele>
        <time>2021-08-11T10:24:08.476Z</time>
      </trkpt>
      <trkpt lat="46.86792" lon="8.50849">
        <ele>1492</ele>
        <time>2021-08-11T10:24:09.476Z</time>
      </trkpt>
      <trkpt lat="46.86793" lon="8.50848">
        <ele>1492</ele>
        <time>2021-08-11T10:24:10.476Z</time>
      </trkpt>
      <trkpt lat="46.86793" lon="8.50847">
        <ele>1492</ele>
        <time>2021-08-11T10:24:11.475Z</time>
      </trkpt>
      <trkpt lat="46.86794" lon="8.50846">
        <ele>1492</ele>
        <time>2021-08-11T10:24:12.475Z</time>
      </trkpt>
      <trkpt lat="46.86794" lon="8.50845">
        <ele>1492</ele>
        <time>2021-08-11T10:24:13.475Z</time>
      </trkpt>
      <trkpt lat="46.86794" lon="8.50844">
        <ele>1491</ele>
        <time>2021-08-11T10:24:14.476Z</time>
      </trkpt>
      <trkpt lat="46.86794" lon="8.50843">
        <ele>1492</ele>
        <time>2021-08-11T10:24:15.476Z</time>
      </trkpt>
      <trkpt lat="46.86794" lon="8.50842">
        <ele>1492</ele>
        <time>2021-08-11T10:24:16.476Z</time>
      </trkpt>
      <trkpt lat="46.86794" lon="8.50841">
        <ele>1492</ele>
        <time>2021-08-11T10:24:17.476Z</time>
      </trkpt>
      <trkpt lat="46.86793" lon="8.5084">
        <ele>1492</ele>
        <time>2021-08-11T10:24:18.476Z</time>
      </trkpt>
      <trkpt lat="46.86793" lon="8.50839">
        <ele>1492</ele>
        <time>2021-08-11T10:24:19.475Z</time>
      </trkpt>
      <trkpt lat="46.86793" lon="8.50837">
        <ele>1492</ele>
        <time>2021-08-11T10:24:20.475Z</time>
      </trkpt>
      <trkpt lat="46.86793" lon="8.50836">
        <ele>1493</ele>
        <time>2021-08-11T10:24:21.476Z</time>
      </trkpt>
      <trkpt lat="46.86793" lon="8.50836">
        <ele>1493</ele>
        <time>2021-08-11T10:24:22.476Z</time>
      </trkpt>
      <trkpt lat="46.86793" lon="8.50835">
        <ele>1493</ele>
        <time>2021-08-11T10:24:23.476Z</time>
      </trkpt>
      <trkpt lat="46.86793" lon="8.50834">
        <ele>1493</ele>
        <time>2021-08-11T10:24:24.476Z</time>
      </trkpt>
      <trkpt lat="46.86793" lon="8.50833">
        <ele>1493</ele>
        <time>2021-08-11T10:24:25.475Z</time>
      </trkpt>
      <trkpt lat="46.86793" lon="8.50831">
        <ele>1492</ele>
        <time>2021-08-11T10:24:26.476Z</time>
      </trkpt>
      <trkpt lat="46.86793" lon="8.50831">
        <ele>1492</ele>
        <time>2021-08-11T10:24:27.476Z</time>
      </trkpt>
      <trkpt lat="46.86793" lon="8.5083">
        <ele>1492</ele>
        <time>2021-08-11T10:24:28.476Z</time>
      </trkpt>
      <trkpt lat="46.86793" lon="8.50829">
        <ele>1492</ele>
        <time>2021-08-11T10:24:29.476Z</time>
      </trkpt>
      <trkpt lat="46.86793" lon="8.50828">
        <ele>1492</ele>
        <time>2021-08-11T10:24:30.475Z</time>
      </trkpt>
      <trkpt lat="46.86793" lon="8.50827">
        <ele>1492</ele>
        <time>2021-08-11T10:24:31.476Z</time>
      </trkpt>
      <trkpt lat="46.86794" lon="8.50826">
        <ele>1492</ele>
        <time>2021-08-11T10:24:32.476Z</time>
      </trkpt>
      <trkpt lat="46.86794" lon="8.50825">
        <ele>1492</ele>
        <time>2021-08-11T10:24:33.475Z</time>
      </trkpt>
      <trkpt lat="46.86794" lon="8.50825">
        <ele>1492</ele>
        <time>2021-08-11T10:24:34.476Z</time>
      </trkpt>
      <trkpt lat="46.86795" lon="8.50824">
        <ele>1493</ele>
        <time>2021-08-11T10:24:35.476Z</time>
      </trkpt>
      <trkpt lat="46.86795" lon="8.50824">
        <ele>1493</ele>
        <time>2021-08-11T10:24:36.475Z</time>
      </trkpt>
      <trkpt lat="46.86795" lon="8.50824">
        <ele>1493</ele>
        <time>2021-08-11T10:24:37.476Z</time>
      </trkpt>
      <trkpt lat="46.86796" lon="8.50822">
        <ele>1494</ele>
        <time>2021-08-11T10:24:38.476Z</time>
      </trkpt>
      <trkpt lat="46.86796" lon="8.50822">
        <ele>1494</ele>
        <time>2021-08-11T10:24:39.476Z</time>
      </trkpt>
      <trkpt lat="46.86795" lon="8.50821">
        <ele>1494</ele>
        <time>2021-08-11T10:24:40.476Z</time>
      </trkpt>
      <trkpt lat="46.86795" lon="8.50821">
        <ele>1494</ele>
        <time>2021-08-11T10:24:41.475Z</time>
      </trkpt>
      <trkpt lat="46.86795" lon="8.5082">
        <ele>1494</ele>
        <time>2021-08-11T10:24:42.476Z</time>
      </trkpt>
      <trkpt lat="46.86795" lon="8.50818">
        <ele>1495</ele>
        <time>2021-08-11T10:24:43.476Z</time>
      </trkpt>
      <trkpt lat="46.86795" lon="8.50817">
        <ele>1495</ele>
        <time>2021-08-11T10:24:44.476Z</time>
      </trkpt>
      <trkpt lat="46.86795" lon="8.50815">
        <ele>1495</ele>
        <time>2021-08-11T10:24:45.476Z</time>
      </trkpt>
      <trkpt lat="46.86795" lon="8.50814">
        <ele>1495</ele>
        <time>2021-08-11T10:24:46.475Z</time>
      </trkpt>
      <trkpt lat="46.86794" lon="8.50812">
        <ele>1495</ele>
        <time>2021-08-11T10:24:47.475Z</time>
      </trkpt>
      <trkpt lat="46.86794" lon="8.50812">
        <ele>1496</ele>
        <time>2021-08-11T10:24:48.476Z</time>
      </trkpt>
      <trkpt lat="46.86793" lon="8.50811">
        <ele>1496</ele>
        <time>2021-08-11T10:24:49.476Z</time>
      </trkpt>
      <trkpt lat="46.86793" lon="8.5081">
        <ele>1496</ele>
        <time>2021-08-11T10:24:50.476Z</time>
      </trkpt>
      <trkpt lat="46.86793" lon="8.50809">
        <ele>1496</ele>
        <time>2021-08-11T10:24:51.475Z</time>
      </trkpt>
      <trkpt lat="46.86792" lon="8.50807">
        <ele>1496</ele>
        <time>2021-08-11T10:24:52.475Z</time>
      </trkpt>
      <trkpt lat="46.86792" lon="8.50806">
        <ele>1496</ele>
        <time>2021-08-11T10:24:53.476Z</time>
      </trkpt>
      <trkpt lat="46.86792" lon="8.50805">
        <ele>1496</ele>
        <time>2021-08-11T10:24:54.476Z</time>
      </trkpt>
      <trkpt lat="46.86792" lon="8.50804">
        <ele>1495</ele>
        <time>2021-08-11T10:24:55.476Z</time>
      </trkpt>
      <trkpt lat="46.86792" lon="8.50803">
        <ele>1495</ele>
        <time>2021-08-11T10:24:56.476Z</time>
      </trkpt>
      <trkpt lat="46.86792" lon="8.50803">
        <ele>1495</ele>
        <time>2021-08-11T10:24:57.475Z</time>
      </trkpt>
      <trkpt lat="46.86791" lon="8.50802">
        <ele>1495</ele>
        <time>2021-08-11T10:24:58.476Z</time>
      </trkpt>
      <trkpt lat="46.86791" lon="8.50802">
        <ele>1495</ele>
        <time>2021-08-11T10:24:59.476Z</time>
      </trkpt>
      <trkpt lat="46.86791" lon="8.50801">
        <ele>1496</ele>
        <time>2021-08-11T10:25:00.476Z</time>
      </trkpt>
      <trkpt lat="46.86791" lon="8.508">
        <ele>1497</ele>
        <time>2021-08-11T10:25:18.535Z</time>
      </trkpt>
      <trkpt lat="46.86792" lon="8.50798">
        <ele>1497</ele>
        <time>2021-08-11T10:25:19.534Z</time>
      </trkpt>
      <trkpt lat="46.86792" lon="8.50797">
        <ele>1498</ele>
        <time>2021-08-11T10:25:20.534Z</time>
      </trkpt>
      <trkpt lat="46.86792" lon="8.50797">
        <ele>1498</ele>
        <time>2021-08-11T10:25:21.534Z</time>
      </trkpt>
      <trkpt lat="46.86792" lon="8.50797">
        <ele>1498</ele>
        <time>2021-08-11T10:25:22.534Z</time>
      </trkpt>
      <trkpt lat="46.86792" lon="8.50796">
        <ele>1498</ele>
        <time>2021-08-11T10:25:23.534Z</time>
      </trkpt>
      <trkpt lat="46.86792" lon="8.50795">
        <ele>1499</ele>
        <time>2021-08-11T10:25:24.535Z</time>
      </trkpt>
      <trkpt lat="46.86792" lon="8.50793">
        <ele>1499</ele>
        <time>2021-08-11T10:25:25.535Z</time>
      </trkpt>
      <trkpt lat="46.86792" lon="8.50791">
        <ele>1499</ele>
        <time>2021-08-11T10:25:26.535Z</time>
      </trkpt>
      <trkpt lat="46.86793" lon="8.5079">
        <ele>1499</ele>
        <time>2021-08-11T10:25:27.535Z</time>
      </trkpt>
      <trkpt lat="46.86794" lon="8.50788">
        <ele>1499</ele>
        <time>2021-08-11T10:25:28.534Z</time>
      </trkpt>
      <trkpt lat="46.86794" lon="8.50787">
        <ele>1499</ele>
        <time>2021-08-11T10:25:29.534Z</time>
      </trkpt>
      <trkpt lat="46.86794" lon="8.50786">
        <ele>1499</ele>
        <time>2021-08-11T10:25:30.535Z</time>
      </trkpt>
      <trkpt lat="46.86794" lon="8.50784">
        <ele>1499</ele>
        <time>2021-08-11T10:25:31.535Z</time>
      </trkpt>
      <trkpt lat="46.86794" lon="8.50783">
        <ele>1499</ele>
        <time>2021-08-11T10:25:32.535Z</time>
      </trkpt>
      <trkpt lat="46.86793" lon="8.50781">
        <ele>1499</ele>
        <time>2021-08-11T10:25:33.535Z</time>
      </trkpt>
      <trkpt lat="46.86793" lon="8.5078">
        <ele>1499</ele>
        <time>2021-08-11T10:25:34.534Z</time>
      </trkpt>
      <trkpt lat="46.86793" lon="8.50778">
        <ele>1498</ele>
        <time>2021-08-11T10:25:35.535Z</time>
      </trkpt>
      <trkpt lat="46.86794" lon="8.50777">
        <ele>1498</ele>
        <time>2021-08-11T10:25:36.535Z</time>
      </trkpt>
      <trkpt lat="46.86792" lon="8.50775">
        <ele>1498</ele>
        <time>2021-08-11T10:25:37.535Z</time>
      </trkpt>
      <trkpt lat="46.86792" lon="8.50773">
        <ele>1498</ele>
        <time>2021-08-11T10:25:38.535Z</time>
      </trkpt>
      <trkpt lat="46.86793" lon="8.50772">
        <ele>1498</ele>
        <time>2021-08-11T10:25:39.534Z</time>
      </trkpt>
      <trkpt lat="46.86793" lon="8.5077">
        <ele>1498</ele>
        <time>2021-08-11T10:25:40.535Z</time>
      </trkpt>
      <trkpt lat="46.86792" lon="8.50769">
        <ele>1498</ele>
        <time>2021-08-11T10:25:41.535Z</time>
      </trkpt>
      <trkpt lat="46.86792" lon="8.50767">
        <ele>1498</ele>
        <time>2021-08-11T10:25:42.535Z</time>
      </trkpt>
      <trkpt lat="46.86792" lon="8.50766">
        <ele>1498</ele>
        <time>2021-08-11T10:25:43.535Z</time>
      </trkpt>
      <trkpt lat="46.86793" lon="8.50766">
        <ele>1497</ele>
        <time>2021-08-11T10:25:44.534Z</time>
      </trkpt>
      <trkpt lat="46.86793" lon="8.50765">
        <ele>1498</ele>
        <time>2021-08-11T10:25:45.534Z</time>
      </trkpt>
      <trkpt lat="46.86793" lon="8.50764">
        <ele>1498</ele>
        <time>2021-08-11T10:25:46.535Z</time>
      </trkpt>
      <trkpt lat="46.86793" lon="8.50763">
        <ele>1498</ele>
        <time>2021-08-11T10:25:47.535Z</time>
      </trkpt>
      <trkpt lat="46.86794" lon="8.50762">
        <ele>1498</ele>
        <time>2021-08-11T10:25:48.534Z</time>
      </trkpt>
      <trkpt lat="46.86794" lon="8.50761">
        <ele>1498</ele>
        <time>2021-08-11T10:25:49.534Z</time>
      </trkpt>
      <trkpt lat="46.86794" lon="8.50761">
        <ele>1498</ele>
        <time>2021-08-11T10:25:50.534Z</time>
      </trkpt>
      <trkpt lat="46.86794" lon="8.5076">
        <ele>1498</ele>
        <time>2021-08-11T10:25:51.535Z</time>
      </trkpt>
      <trkpt lat="46.86794" lon="8.50759">
        <ele>1497</ele>
        <time>2021-08-11T10:25:52.535Z</time>
      </trkpt>
      <trkpt lat="46.86794" lon="8.50759">
        <ele>1497</ele>
        <time>2021-08-11T10:25:53.534Z</time>
      </trkpt>
      <trkpt lat="46.86794" lon="8.50758">
        <ele>1498</ele>
        <time>2021-08-11T10:25:54.535Z</time>
      </trkpt>
      <trkpt lat="46.86794" lon="8.50755">
        <ele>1498</ele>
        <time>2021-08-11T10:25:55.535Z</time>
      </trkpt>
      <trkpt lat="46.86794" lon="8.50755">
        <ele>1499</ele>
        <time>2021-08-11T10:25:56.535Z</time>
      </trkpt>
      <trkpt lat="46.86795" lon="8.50754">
        <ele>1500</ele>
        <time>2021-08-11T10:25:57.535Z</time>
      </trkpt>
      <trkpt lat="46.86795" lon="8.50754">
        <ele>1500</ele>
        <time>2021-08-11T10:26:09.502Z</time>
      </trkpt>
      <trkpt lat="46.86795" lon="8.50755">
        <ele>1500</ele>
        <time>2021-08-11T10:26:11.276Z</time>
      </trkpt>
      <trkpt lat="46.86796" lon="8.50755">
        <ele>1501</ele>
        <time>2021-08-11T10:26:12.277Z</time>
      </trkpt>
      <trkpt lat="46.86796" lon="8.50756">
        <ele>1501</ele>
        <time>2021-08-11T10:26:13.277Z</time>
      </trkpt>
      <trkpt lat="46.86797" lon="8.50756">
        <ele>1501</ele>
        <time>2021-08-11T10:26:14.277Z</time>
      </trkpt>
      <trkpt lat="46.86797" lon="8.50755">
        <ele>1501</ele>
        <time>2021-08-11T10:26:15.276Z</time>
      </trkpt>
      <trkpt lat="46.86797" lon="8.50755">
        <ele>1502</ele>
        <time>2021-08-11T10:26:16.276Z</time>
      </trkpt>
      <trkpt lat="46.86797" lon="8.50755">
        <ele>1503</ele>
        <time>2021-08-11T10:26:17.277Z</time>
      </trkpt>
      <trkpt lat="46.86797" lon="8.50754">
        <ele>1503</ele>
        <time>2021-08-11T10:26:18.277Z</time>
      </trkpt>
      <trkpt lat="46.86798" lon="8.50754">
        <ele>1504</ele>
        <time>2021-08-11T10:26:19.277Z</time>
      </trkpt>
      <trkpt lat="46.86798" lon="8.50754">
        <ele>1505</ele>
        <time>2021-08-11T10:26:20.277Z</time>
      </trkpt>
      <trkpt lat="46.86798" lon="8.50753">
        <ele>1505</ele>
        <time>2021-08-11T10:26:21.276Z</time>
      </trkpt>
      <trkpt lat="46.86798" lon="8.5075">
        <ele>1506</ele>
        <time>2021-08-11T10:26:22.277Z</time>
      </trkpt>
      <trkpt lat="46.86799" lon="8.5075">
        <ele>1507</ele>
        <time>2021-08-11T10:26:23.277Z</time>
      </trkpt>
      <trkpt lat="46.86799" lon="8.5075">
        <ele>1507</ele>
        <time>2021-08-11T10:26:24.277Z</time>
      </trkpt>
      <trkpt lat="46.868" lon="8.5075">
        <ele>1507</ele>
        <time>2021-08-11T10:26:25.277Z</time>
      </trkpt>
      <trkpt lat="46.868" lon="8.50749">
        <ele>1507</ele>
        <time>2021-08-11T10:26:26.277Z</time>
      </trkpt>
      <trkpt lat="46.86802" lon="8.50751">
        <ele>1507</ele>
        <time>2021-08-11T10:26:27.277Z</time>
      </trkpt>
      <trkpt lat="46.86803" lon="8.50751">
        <ele>1507</ele>
        <time>2021-08-11T10:26:28.278Z</time>
      </trkpt>
      <trkpt lat="46.86803" lon="8.50751">
        <ele>1507</ele>
        <time>2021-08-11T10:26:29.277Z</time>
      </trkpt>
      <trkpt lat="46.86803" lon="8.5075">
        <ele>1507</ele>
        <time>2021-08-11T10:26:30.277Z</time>
      </trkpt>
      <trkpt lat="46.86803" lon="8.5075">
        <ele>1508</ele>
        <time>2021-08-11T10:26:31.277Z</time>
      </trkpt>
      <trkpt lat="46.86803" lon="8.50749">
        <ele>1508</ele>
        <time>2021-08-11T10:26:32.277Z</time>
      </trkpt>
      <trkpt lat="46.86805" lon="8.50747">
        <ele>1508</ele>
        <time>2021-08-11T10:26:33.278Z</time>
      </trkpt>
      <trkpt lat="46.86806" lon="8.50746">
        <ele>1509</ele>
        <time>2021-08-11T10:26:34.278Z</time>
      </trkpt>
      <trkpt lat="46.86807" lon="8.50745">
        <ele>1509</ele>
        <time>2021-08-11T10:26:35.278Z</time>
      </trkpt>
      <trkpt lat="46.86808" lon="8.50745">
        <ele>1509</ele>
        <time>2021-08-11T10:26:36.278Z</time>
      </trkpt>
      <trkpt lat="46.86809" lon="8.50745">
        <ele>1510</ele>
        <time>2021-08-11T10:26:37.277Z</time>
      </trkpt>
      <trkpt lat="46.86809" lon="8.50746">
        <ele>1510</ele>
        <time>2021-08-11T10:26:38.278Z</time>
      </trkpt>
      <trkpt lat="46.8681" lon="8.50746">
        <ele>1511</ele>
        <time>2021-08-11T10:26:39.278Z</time>
      </trkpt>
      <trkpt lat="46.86811" lon="8.50746">
        <ele>1512</ele>
        <time>2021-08-11T10:26:40.278Z</time>
      </trkpt>
      <trkpt lat="46.86811" lon="8.50746">
        <ele>1512</ele>
        <time>2021-08-11T10:26:41.278Z</time>
      </trkpt>
      <trkpt lat="46.86812" lon="8.50746">
        <ele>1513</ele>
        <time>2021-08-11T10:26:42.277Z</time>
      </trkpt>
      <trkpt lat="46.86812" lon="8.50746">
        <ele>1513</ele>
        <time>2021-08-11T10:26:43.278Z</time>
      </trkpt>
      <trkpt lat="46.86813" lon="8.50746">
        <ele>1514</ele>
        <time>2021-08-11T10:26:44.278Z</time>
      </trkpt>
      <trkpt lat="46.86813" lon="8.50745">
        <ele>1514</ele>
        <time>2021-08-11T10:26:45.278Z</time>
      </trkpt>
      <trkpt lat="46.86814" lon="8.50745">
        <ele>1514</ele>
        <time>2021-08-11T10:26:46.278Z</time>
      </trkpt>
      <trkpt lat="46.86814" lon="8.50745">
        <ele>1514</ele>
        <time>2021-08-11T10:26:47.277Z</time>
      </trkpt>
      <trkpt lat="46.86815" lon="8.50745">
        <ele>1514</ele>
        <time>2021-08-11T10:26:48.277Z</time>
      </trkpt>
      <trkpt lat="46.86815" lon="8.50744">
        <ele>1514</ele>
        <time>2021-08-11T10:26:49.277Z</time>
      </trkpt>
      <trkpt lat="46.86815" lon="8.50744">
        <ele>1514</ele>
        <time>2021-08-11T10:26:50.278Z</time>
      </trkpt>
      <trkpt lat="46.86816" lon="8.50745">
        <ele>1513</ele>
        <time>2021-08-11T10:26:51.278Z</time>
      </trkpt>
      <trkpt lat="46.86818" lon="8.50745">
        <ele>1513</ele>
        <time>2021-08-11T10:26:52.278Z</time>
      </trkpt>
      <trkpt lat="46.86818" lon="8.50745">
        <ele>1513</ele>
        <time>2021-08-11T10:26:53.278Z</time>
      </trkpt>
      <trkpt lat="46.8682" lon="8.50743">
        <ele>1513</ele>
        <time>2021-08-11T10:26:54.277Z</time>
      </trkpt>
      <trkpt lat="46.86821" lon="8.50743">
        <ele>1513</ele>
        <time>2021-08-11T10:26:55.278Z</time>
      </trkpt>
      <trkpt lat="46.8682" lon="8.50742">
        <ele>1513</ele>
        <time>2021-08-11T10:26:56.278Z</time>
      </trkpt>
      <trkpt lat="46.8682" lon="8.50742">
        <ele>1513</ele>
        <time>2021-08-11T10:26:57.278Z</time>
      </trkpt>
      <trkpt lat="46.86821" lon="8.50741">
        <ele>1513</ele>
        <time>2021-08-11T10:26:58.278Z</time>
      </trkpt>
      <trkpt lat="46.86821" lon="8.50741">
        <ele>1513</ele>
        <time>2021-08-11T10:26:59.277Z</time>
      </trkpt>
      <trkpt lat="46.86822" lon="8.5074">
        <ele>1513</ele>
        <time>2021-08-11T10:27:00.277Z</time>
      </trkpt>
      <trkpt lat="46.86822" lon="8.50739">
        <ele>1513</ele>
        <time>2021-08-11T10:27:01.278Z</time>
      </trkpt>
      <trkpt lat="46.86823" lon="8.50739">
        <ele>1513</ele>
        <time>2021-08-11T10:27:02.278Z</time>
      </trkpt>
      <trkpt lat="46.86823" lon="8.50738">
        <ele>1513</ele>
        <time>2021-08-11T10:27:03.278Z</time>
      </trkpt>
      <trkpt lat="46.86823" lon="8.50736">
        <ele>1513</ele>
        <time>2021-08-11T10:27:04.277Z</time>
      </trkpt>
      <trkpt lat="46.86824" lon="8.50735">
        <ele>1513</ele>
        <time>2021-08-11T10:27:05.277Z</time>
      </trkpt>
      <trkpt lat="46.86824" lon="8.50734">
        <ele>1513</ele>
        <time>2021-08-11T10:27:06.278Z</time>
      </trkpt>
      <trkpt lat="46.86824" lon="8.50733">
        <ele>1513</ele>
        <time>2021-08-11T10:27:07.278Z</time>
      </trkpt>
      <trkpt lat="46.86825" lon="8.50732">
        <ele>1513</ele>
        <time>2021-08-11T10:27:08.277Z</time>
      </trkpt>
      <trkpt lat="46.86825" lon="8.50731">
        <ele>1513</ele>
        <time>2021-08-11T10:27:09.278Z</time>
      </trkpt>
      <trkpt lat="46.86825" lon="8.50731">
        <ele>1513</ele>
        <time>2021-08-11T10:27:10.278Z</time>
      </trkpt>
      <trkpt lat="46.86826" lon="8.50731">
        <ele>1514</ele>
        <time>2021-08-11T10:27:11.278Z</time>
      </trkpt>
      <trkpt lat="46.86826" lon="8.5073">
        <ele>1514</ele>
        <time>2021-08-11T10:27:12.277Z</time>
      </trkpt>
      <trkpt lat="46.86826" lon="8.50729">
        <ele>1515</ele>
        <time>2021-08-11T10:27:13.278Z</time>
      </trkpt>
      <trkpt lat="46.86826" lon="8.50727">
        <ele>1515</ele>
        <time>2021-08-11T10:27:14.278Z</time>
      </trkpt>
      <trkpt lat="46.86826" lon="8.50725">
        <ele>1515</ele>
        <time>2021-08-11T10:27:15.278Z</time>
      </trkpt>
      <trkpt lat="46.86826" lon="8.50724">
        <ele>1515</ele>
        <time>2021-08-11T10:27:16.278Z</time>
      </trkpt>
      <trkpt lat="46.86826" lon="8.50724">
        <ele>1515</ele>
        <time>2021-08-11T10:27:17.277Z</time>
      </trkpt>
      <trkpt lat="46.86827" lon="8.50724">
        <ele>1515</ele>
        <time>2021-08-11T10:27:18.277Z</time>
      </trkpt>
      <trkpt lat="46.86827" lon="8.50724">
        <ele>1515</ele>
        <time>2021-08-11T10:27:19.278Z</time>
      </trkpt>
      <trkpt lat="46.86828" lon="8.50723">
        <ele>1515</ele>
        <time>2021-08-11T10:27:20.277Z</time>
      </trkpt>
      <trkpt lat="46.86828" lon="8.50723">
        <ele>1516</ele>
        <time>2021-08-11T10:27:21.278Z</time>
      </trkpt>
      <trkpt lat="46.86828" lon="8.50722">
        <ele>1516</ele>
        <time>2021-08-11T10:27:22.278Z</time>
      </trkpt>
      <trkpt lat="46.86828" lon="8.50721">
        <ele>1517</ele>
        <time>2021-08-11T10:27:23.278Z</time>
      </trkpt>
      <trkpt lat="46.86829" lon="8.5072">
        <ele>1517</ele>
        <time>2021-08-11T10:27:24.278Z</time>
      </trkpt>
      <trkpt lat="46.8683" lon="8.50719">
        <ele>1517</ele>
        <time>2021-08-11T10:27:25.278Z</time>
      </trkpt>
      <trkpt lat="46.8683" lon="8.50719">
        <ele>1517</ele>
        <time>2021-08-11T10:27:26.277Z</time>
      </trkpt>
      <trkpt lat="46.8683" lon="8.50718">
        <ele>1518</ele>
        <time>2021-08-11T10:27:27.278Z</time>
      </trkpt>
      <trkpt lat="46.8683" lon="8.50717">
        <ele>1517</ele>
        <time>2021-08-11T10:27:28.278Z</time>
      </trkpt>
      <trkpt lat="46.8683" lon="8.50716">
        <ele>1517</ele>
        <time>2021-08-11T10:27:29.278Z</time>
      </trkpt>
      <trkpt lat="46.8683" lon="8.50715">
        <ele>1517</ele>
        <time>2021-08-11T10:27:30.278Z</time>
      </trkpt>
      <trkpt lat="46.86829" lon="8.50714">
        <ele>1516</ele>
        <time>2021-08-11T10:27:31.278Z</time>
      </trkpt>
      <trkpt lat="46.86828" lon="8.50713">
        <ele>1516</ele>
        <time>2021-08-11T10:27:32.277Z</time>
      </trkpt>
      <trkpt lat="46.86827" lon="8.50712">
        <ele>1515</ele>
        <time>2021-08-11T10:27:33.278Z</time>
      </trkpt>
      <trkpt lat="46.86826" lon="8.50712">
        <ele>1515</ele>
        <time>2021-08-11T10:27:34.278Z</time>
      </trkpt>
      <trkpt lat="46.86826" lon="8.50712">
        <ele>1515</ele>
        <time>2021-08-11T10:27:35.278Z</time>
      </trkpt>
      <trkpt lat="46.86825" lon="8.50712">
        <ele>1515</ele>
        <time>2021-08-11T10:27:36.278Z</time>
      </trkpt>
      <trkpt lat="46.86824" lon="8.50712">
        <ele>1515</ele>
        <time>2021-08-11T10:27:37.278Z</time>
      </trkpt>
      <trkpt lat="46.86824" lon="8.50711">
        <ele>1515</ele>
        <time>2021-08-11T10:27:38.278Z</time>
      </trkpt>
      <trkpt lat="46.86823" lon="8.50712">
        <ele>1514</ele>
        <time>2021-08-11T10:27:39.277Z</time>
      </trkpt>
      <trkpt lat="46.86823" lon="8.50712">
        <ele>1514</ele>
        <time>2021-08-11T10:27:40.277Z</time>
      </trkpt>
      <trkpt lat="46.86822" lon="8.50713">
        <ele>1513</ele>
        <time>2021-08-11T10:27:41.278Z</time>
      </trkpt>
      <trkpt lat="46.86822" lon="8.50713">
        <ele>1512</ele>
        <time>2021-08-11T10:27:42.277Z</time>
      </trkpt>
      <trkpt lat="46.86822" lon="8.50713">
        <ele>1512</ele>
        <time>2021-08-11T10:27:43.278Z</time>
      </trkpt>
      <trkpt lat="46.86821" lon="8.50713">
        <ele>1512</ele>
        <time>2021-08-11T10:27:44.278Z</time>
      </trkpt>
      <trkpt lat="46.8682" lon="8.50713">
        <ele>1511</ele>
        <time>2021-08-11T10:27:45.278Z</time>
      </trkpt>
      <trkpt lat="46.86819" lon="8.50713">
        <ele>1511</ele>
        <time>2021-08-11T10:27:46.278Z</time>
      </trkpt>
      <trkpt lat="46.86818" lon="8.50713">
        <ele>1511</ele>
        <time>2021-08-11T10:27:47.278Z</time>
      </trkpt>
      <trkpt lat="46.86818" lon="8.50713">
        <ele>1511</ele>
        <time>2021-08-11T10:27:48.277Z</time>
      </trkpt>
      <trkpt lat="46.86817" lon="8.50713">
        <ele>1512</ele>
        <time>2021-08-11T10:27:49.278Z</time>
      </trkpt>
      <trkpt lat="46.86816" lon="8.50713">
        <ele>1512</ele>
        <time>2021-08-11T10:27:50.278Z</time>
      </trkpt>
      <trkpt lat="46.86815" lon="8.50713">
        <ele>1512</ele>
        <time>2021-08-11T10:27:51.277Z</time>
      </trkpt>
      <trkpt lat="46.86815" lon="8.50713">
        <ele>1512</ele>
        <time>2021-08-11T10:27:52.278Z</time>
      </trkpt>
      <trkpt lat="46.86815" lon="8.50712">
        <ele>1512</ele>
        <time>2021-08-11T10:27:53.278Z</time>
      </trkpt>
      <trkpt lat="46.86814" lon="8.50712">
        <ele>1513</ele>
        <time>2021-08-11T10:27:54.277Z</time>
      </trkpt>
      <trkpt lat="46.86813" lon="8.50711">
        <ele>1513</ele>
        <time>2021-08-11T10:27:55.277Z</time>
      </trkpt>
      <trkpt lat="46.86812" lon="8.5071">
        <ele>1513</ele>
        <time>2021-08-11T10:27:56.278Z</time>
      </trkpt>
      <trkpt lat="46.86812" lon="8.5071">
        <ele>1513</ele>
        <time>2021-08-11T10:27:57.277Z</time>
      </trkpt>
      <trkpt lat="46.86811" lon="8.50709">
        <ele>1513</ele>
        <time>2021-08-11T10:27:58.278Z</time>
      </trkpt>
      <trkpt lat="46.86811" lon="8.5071">
        <ele>1513</ele>
        <time>2021-08-11T10:27:59.278Z</time>
      </trkpt>
      <trkpt lat="46.86811" lon="8.5071">
        <ele>1513</ele>
        <time>2021-08-11T10:28:00.277Z</time>
      </trkpt>
      <trkpt lat="46.8681" lon="8.50709">
        <ele>1513</ele>
        <time>2021-08-11T10:28:01.278Z</time>
      </trkpt>
      <trkpt lat="46.86809" lon="8.50709">
        <ele>1514</ele>
        <time>2021-08-11T10:28:02.278Z</time>
      </trkpt>
      <trkpt lat="46.86809" lon="8.5071">
        <ele>1514</ele>
        <time>2021-08-11T10:28:03.277Z</time>
      </trkpt>
      <trkpt lat="46.86808" lon="8.50709">
        <ele>1513</ele>
        <time>2021-08-11T10:28:04.278Z</time>
      </trkpt>
      <trkpt lat="46.86807" lon="8.50709">
        <ele>1513</ele>
        <time>2021-08-11T10:28:05.278Z</time>
      </trkpt>
      <trkpt lat="46.86807" lon="8.50708">
        <ele>1513</ele>
        <time>2021-08-11T10:28:06.277Z</time>
      </trkpt>
      <trkpt lat="46.86806" lon="8.50708">
        <ele>1512</ele>
        <time>2021-08-11T10:28:07.278Z</time>
      </trkpt>
      <trkpt lat="46.86805" lon="8.50708">
        <ele>1512</ele>
        <time>2021-08-11T10:28:08.278Z</time>
      </trkpt>
      <trkpt lat="46.86804" lon="8.50708">
        <ele>1511</ele>
        <time>2021-08-11T10:28:09.277Z</time>
      </trkpt>
      <trkpt lat="46.86803" lon="8.50707">
        <ele>1511</ele>
        <time>2021-08-11T10:28:10.277Z</time>
      </trkpt>
      <trkpt lat="46.86802" lon="8.50707">
        <ele>1510</ele>
        <time>2021-08-11T10:28:11.277Z</time>
      </trkpt>
      <trkpt lat="46.86802" lon="8.50706">
        <ele>1510</ele>
        <time>2021-08-11T10:28:12.278Z</time>
      </trkpt>
      <trkpt lat="46.86802" lon="8.50706">
        <ele>1510</ele>
        <time>2021-08-11T10:28:13.277Z</time>
      </trkpt>
      <trkpt lat="46.86801" lon="8.50706">
        <ele>1509</ele>
        <time>2021-08-11T10:28:14.278Z</time>
      </trkpt>
      <trkpt lat="46.86801" lon="8.50705">
        <ele>1509</ele>
        <time>2021-08-11T10:28:15.278Z</time>
      </trkpt>
      <trkpt lat="46.868" lon="8.50705">
        <ele>1509</ele>
        <time>2021-08-11T10:28:16.277Z</time>
      </trkpt>
      <trkpt lat="46.868" lon="8.50705">
        <ele>1509</ele>
        <time>2021-08-11T10:28:17.278Z</time>
      </trkpt>
      <trkpt lat="46.86799" lon="8.50705">
        <ele>1508</ele>
        <time>2021-08-11T10:28:18.278Z</time>
      </trkpt>
      <trkpt lat="46.86799" lon="8.50706">
        <ele>1508</ele>
        <time>2021-08-11T10:28:19.278Z</time>
      </trkpt>
      <trkpt lat="46.86798" lon="8.50706">
        <ele>1508</ele>
        <time>2021-08-11T10:28:20.278Z</time>
      </trkpt>
      <trkpt lat="46.86797" lon="8.50706">
        <ele>1507</ele>
        <time>2021-08-11T10:28:21.278Z</time>
      </trkpt>
      <trkpt lat="46.86796" lon="8.50706">
        <ele>1507</ele>
        <time>2021-08-11T10:28:22.278Z</time>
      </trkpt>
      <trkpt lat="46.86795" lon="8.50706">
        <ele>1507</ele>
        <time>2021-08-11T10:28:23.278Z</time>
      </trkpt>
      <trkpt lat="46.86795" lon="8.50706">
        <ele>1507</ele>
        <time>2021-08-11T10:28:24.278Z</time>
      </trkpt>
      <trkpt lat="46.86795" lon="8.50705">
        <ele>1507</ele>
        <time>2021-08-11T10:28:25.278Z</time>
      </trkpt>
      <trkpt lat="46.86794" lon="8.50706">
        <ele>1508</ele>
        <time>2021-08-11T10:28:26.278Z</time>
      </trkpt>
      <trkpt lat="46.86794" lon="8.50705">
        <ele>1508</ele>
        <time>2021-08-11T10:28:27.277Z</time>
      </trkpt>
      <trkpt lat="46.86793" lon="8.50705">
        <ele>1509</ele>
        <time>2021-08-11T10:28:28.278Z</time>
      </trkpt>
      <trkpt lat="46.86793" lon="8.50705">
        <ele>1509</ele>
        <time>2021-08-11T10:28:29.278Z</time>
      </trkpt>
      <trkpt lat="46.86792" lon="8.50705">
        <ele>1509</ele>
        <time>2021-08-11T10:28:30.277Z</time>
      </trkpt>
      <trkpt lat="46.86791" lon="8.50705">
        <ele>1510</ele>
        <time>2021-08-11T10:28:31.278Z</time>
      </trkpt>
      <trkpt lat="46.86791" lon="8.50704">
        <ele>1510</ele>
        <time>2021-08-11T10:28:32.278Z</time>
      </trkpt>
      <trkpt lat="46.8679" lon="8.50704">
        <ele>1510</ele>
        <time>2021-08-11T10:28:33.277Z</time>
      </trkpt>
      <trkpt lat="46.8679" lon="8.50704">
        <ele>1510</ele>
        <time>2021-08-11T10:28:34.278Z</time>
      </trkpt>
      <trkpt lat="46.86789" lon="8.50703">
        <ele>1510</ele>
        <time>2021-08-11T10:28:35.278Z</time>
      </trkpt>
      <trkpt lat="46.86789" lon="8.50703">
        <ele>1510</ele>
        <time>2021-08-11T10:28:36.278Z</time>
      </trkpt>
      <trkpt lat="46.86788" lon="8.50703">
        <ele>1511</ele>
        <time>2021-08-11T10:28:37.278Z</time>
      </trkpt>
      <trkpt lat="46.86788" lon="8.50702">
        <ele>1510</ele>
        <time>2021-08-11T10:28:38.278Z</time>
      </trkpt>
      <trkpt lat="46.86787" lon="8.50701">
        <ele>1510</ele>
        <time>2021-08-11T10:28:39.277Z</time>
      </trkpt>
      <trkpt lat="46.86787" lon="8.50701">
        <ele>1510</ele>
        <time>2021-08-11T10:28:40.278Z</time>
      </trkpt>
      <trkpt lat="46.86786" lon="8.50701">
        <ele>1509</ele>
        <time>2021-08-11T10:28:41.278Z</time>
      </trkpt>
      <trkpt lat="46.86785" lon="8.507">
        <ele>1508</ele>
        <time>2021-08-11T10:28:42.277Z</time>
      </trkpt>
      <trkpt lat="46.86785" lon="8.50699">
        <ele>1508</ele>
        <time>2021-08-11T10:28:43.278Z</time>
      </trkpt>
      <trkpt lat="46.86784" lon="8.50698">
        <ele>1507</ele>
        <time>2021-08-11T10:28:44.278Z</time>
      </trkpt>
      <trkpt lat="46.86784" lon="8.50698">
        <ele>1506</ele>
        <time>2021-08-11T10:28:45.277Z</time>
      </trkpt>
      <trkpt lat="46.86783" lon="8.50698">
        <ele>1506</ele>
        <time>2021-08-11T10:28:46.278Z</time>
      </trkpt>
      <trkpt lat="46.86783" lon="8.50698">
        <ele>1505</ele>
        <time>2021-08-11T10:28:47.278Z</time>
      </trkpt>
      <trkpt lat="46.86782" lon="8.50697">
        <ele>1505</ele>
        <time>2021-08-11T10:28:48.277Z</time>
      </trkpt>
      <trkpt lat="46.86782" lon="8.50697">
        <ele>1504</ele>
        <time>2021-08-11T10:28:49.277Z</time>
      </trkpt>
      <trkpt lat="46.86781" lon="8.50697">
        <ele>1503</ele>
        <time>2021-08-11T10:28:50.278Z</time>
      </trkpt>
      <trkpt lat="46.8678" lon="8.50697">
        <ele>1503</ele>
        <time>2021-08-11T10:28:51.277Z</time>
      </trkpt>
      <trkpt lat="46.8678" lon="8.50697">
        <ele>1503</ele>
        <time>2021-08-11T10:28:52.278Z</time>
      </trkpt>
      <trkpt lat="46.86779" lon="8.50698">
        <ele>1503</ele>
        <time>2021-08-11T10:28:53.278Z</time>
      </trkpt>
      <trkpt lat="46.86779" lon="8.50698">
        <ele>1503</ele>
        <time>2021-08-11T10:28:54.277Z</time>
      </trkpt>
      <trkpt lat="46.86779" lon="8.50697">
        <ele>1504</ele>
        <time>2021-08-11T10:28:55.278Z</time>
      </trkpt>
      <trkpt lat="46.86778" lon="8.50697">
        <ele>1505</ele>
        <time>2021-08-11T10:28:56.278Z</time>
      </trkpt>
      <trkpt lat="46.86778" lon="8.50696">
        <ele>1506</ele>
        <time>2021-08-11T10:28:57.277Z</time>
      </trkpt>
      <trkpt lat="46.86779" lon="8.50695">
        <ele>1507</ele>
        <time>2021-08-11T10:28:58.278Z</time>
      </trkpt>
      <trkpt lat="46.86779" lon="8.50694">
        <ele>1508</ele>
        <time>2021-08-11T10:28:59.278Z</time>
      </trkpt>
      <trkpt lat="46.86779" lon="8.50695">
        <ele>1509</ele>
        <time>2021-08-11T10:29:00.278Z</time>
      </trkpt>
      <trkpt lat="46.86779" lon="8.50696">
        <ele>1510</ele>
        <time>2021-08-11T10:29:01.278Z</time>
      </trkpt>
      <trkpt lat="46.8678" lon="8.50697">
        <ele>1511</ele>
        <time>2021-08-11T10:29:02.278Z</time>
      </trkpt>
      <trkpt lat="46.86781" lon="8.50697">
        <ele>1513</ele>
        <time>2021-08-11T10:29:03.277Z</time>
      </trkpt>
      <trkpt lat="46.86781" lon="8.50696">
        <ele>1514</ele>
        <time>2021-08-11T10:29:04.278Z</time>
      </trkpt>
      <trkpt lat="46.86781" lon="8.50696">
        <ele>1514</ele>
        <time>2021-08-11T10:29:05.278Z</time>
      </trkpt>
      <trkpt lat="46.86782" lon="8.50695">
        <ele>1515</ele>
        <time>2021-08-11T10:29:06.278Z</time>
      </trkpt>
      <trkpt lat="46.86782" lon="8.50695">
        <ele>1515</ele>
        <time>2021-08-11T10:29:07.278Z</time>
      </trkpt>
      <trkpt lat="46.86782" lon="8.50694">
        <ele>1515</ele>
        <time>2021-08-11T10:29:08.278Z</time>
      </trkpt>
      <trkpt lat="46.86783" lon="8.50694">
        <ele>1515</ele>
        <time>2021-08-11T10:29:09.278Z</time>
      </trkpt>
      <trkpt lat="46.86783" lon="8.50694">
        <ele>1514</ele>
        <time>2021-08-11T10:29:10.278Z</time>
      </trkpt>
      <trkpt lat="46.86784" lon="8.50693">
        <ele>1514</ele>
        <time>2021-08-11T10:29:11.278Z</time>
      </trkpt>
      <trkpt lat="46.86784" lon="8.50693">
        <ele>1514</ele>
        <time>2021-08-11T10:29:12.277Z</time>
      </trkpt>
      <trkpt lat="46.86785" lon="8.50694">
        <ele>1515</ele>
        <time>2021-08-11T10:29:13.277Z</time>
      </trkpt>
      <trkpt lat="46.86785" lon="8.50694">
        <ele>1515</ele>
        <time>2021-08-11T10:29:14.277Z</time>
      </trkpt>
      <trkpt lat="46.86786" lon="8.50693">
        <ele>1515</ele>
        <time>2021-08-11T10:29:15.277Z</time>
      </trkpt>
      <trkpt lat="46.86786" lon="8.50693">
        <ele>1515</ele>
        <time>2021-08-11T10:29:16.277Z</time>
      </trkpt>
      <trkpt lat="46.86787" lon="8.50693">
        <ele>1515</ele>
        <time>2021-08-11T10:29:17.278Z</time>
      </trkpt>
      <trkpt lat="46.86787" lon="8.50693">
        <ele>1515</ele>
        <time>2021-08-11T10:29:18.278Z</time>
      </trkpt>
      <trkpt lat="46.86788" lon="8.50692">
        <ele>1515</ele>
        <time>2021-08-11T10:29:19.278Z</time>
      </trkpt>
      <trkpt lat="46.86788" lon="8.50691">
        <ele>1515</ele>
        <time>2021-08-11T10:29:20.278Z</time>
      </trkpt>
      <trkpt lat="46.86788" lon="8.50691">
        <ele>1515</ele>
        <time>2021-08-11T10:29:21.278Z</time>
      </trkpt>
      <trkpt lat="46.86789" lon="8.5069">
        <ele>1515</ele>
        <time>2021-08-11T10:29:22.278Z</time>
      </trkpt>
      <trkpt lat="46.8679" lon="8.5069">
        <ele>1515</ele>
        <time>2021-08-11T10:29:23.278Z</time>
      </trkpt>
      <trkpt lat="46.8679" lon="8.50689">
        <ele>1514</ele>
        <time>2021-08-11T10:29:24.278Z</time>
      </trkpt>
      <trkpt lat="46.86791" lon="8.50688">
        <ele>1514</ele>
        <time>2021-08-11T10:29:25.278Z</time>
      </trkpt>
      <trkpt lat="46.86792" lon="8.50688">
        <ele>1514</ele>
        <time>2021-08-11T10:29:26.277Z</time>
      </trkpt>
      <trkpt lat="46.86792" lon="8.50688">
        <ele>1514</ele>
        <time>2021-08-11T10:29:27.277Z</time>
      </trkpt>
      <trkpt lat="46.86793" lon="8.50687">
        <ele>1514</ele>
        <time>2021-08-11T10:29:28.278Z</time>
      </trkpt>
      <trkpt lat="46.86794" lon="8.50686">
        <ele>1514</ele>
        <time>2021-08-11T10:29:29.277Z</time>
      </trkpt>
      <trkpt lat="46.86795" lon="8.50685">
        <ele>1514</ele>
        <time>2021-08-11T10:29:30.278Z</time>
      </trkpt>
      <trkpt lat="46.86795" lon="8.50685">
        <ele>1513</ele>
        <time>2021-08-11T10:29:31.278Z</time>
      </trkpt>
      <trkpt lat="46.86796" lon="8.50684">
        <ele>1513</ele>
        <time>2021-08-11T10:29:32.277Z</time>
      </trkpt>
      <trkpt lat="46.86797" lon="8.50683">
        <ele>1513</ele>
        <time>2021-08-11T10:29:33.278Z</time>
      </trkpt>
      <trkpt lat="46.86797" lon="8.50683">
        <ele>1513</ele>
        <time>2021-08-11T10:29:34.278Z</time>
      </trkpt>
      <trkpt lat="46.86798" lon="8.50682">
        <ele>1514</ele>
        <time>2021-08-11T10:29:35.277Z</time>
      </trkpt>
      <trkpt lat="46.86798" lon="8.50681">
        <ele>1515</ele>
        <time>2021-08-11T10:29:36.278Z</time>
      </trkpt>
      <trkpt lat="46.86798" lon="8.5068">
        <ele>1516</ele>
        <time>2021-08-11T10:29:37.278Z</time>
      </trkpt>
      <trkpt lat="46.86799" lon="8.5068">
        <ele>1516</ele>
        <time>2021-08-11T10:29:38.277Z</time>
      </trkpt>
      <trkpt lat="46.86799" lon="8.5068">
        <ele>1517</ele>
        <time>2021-08-11T10:29:39.278Z</time>
      </trkpt>
      <trkpt lat="46.868" lon="8.50679">
        <ele>1517</ele>
        <time>2021-08-11T10:29:40.278Z</time>
      </trkpt>
      <trkpt lat="46.868" lon="8.50678">
        <ele>1518</ele>
        <time>2021-08-11T10:29:41.277Z</time>
      </trkpt>
      <trkpt lat="46.86801" lon="8.50678">
        <ele>1519</ele>
        <time>2021-08-11T10:29:42.278Z</time>
      </trkpt>
      <trkpt lat="46.86801" lon="8.50678">
        <ele>1520</ele>
        <time>2021-08-11T10:29:43.278Z</time>
      </trkpt>
      <trkpt lat="46.86802" lon="8.50677">
        <ele>1521</ele>
        <time>2021-08-11T10:29:44.277Z</time>
      </trkpt>
      <trkpt lat="46.86802" lon="8.50677">
        <ele>1521</ele>
        <time>2021-08-11T10:29:45.278Z</time>
      </trkpt>
      <trkpt lat="46.86803" lon="8.50676">
        <ele>1522</ele>
        <time>2021-08-11T10:29:46.278Z</time>
      </trkpt>
      <trkpt lat="46.86803" lon="8.50676">
        <ele>1522</ele>
        <time>2021-08-11T10:29:47.277Z</time>
      </trkpt>
      <trkpt lat="46.86804" lon="8.50675">
        <ele>1523</ele>
        <time>2021-08-11T10:29:48.278Z</time>
      </trkpt>
      <trkpt lat="46.86804" lon="8.50674">
        <ele>1523</ele>
        <time>2021-08-11T10:29:49.278Z</time>
      </trkpt>
      <trkpt lat="46.86805" lon="8.50673">
        <ele>1523</ele>
        <time>2021-08-11T10:29:50.277Z</time>
      </trkpt>
      <trkpt lat="46.86805" lon="8.50673">
        <ele>1524</ele>
        <time>2021-08-11T10:29:51.278Z</time>
      </trkpt>
      <trkpt lat="46.86805" lon="8.50672">
        <ele>1524</ele>
        <time>2021-08-11T10:29:52.278Z</time>
      </trkpt>
      <trkpt lat="46.86806" lon="8.50671">
        <ele>1525</ele>
        <time>2021-08-11T10:29:53.277Z</time>
      </trkpt>
      <trkpt lat="46.86806" lon="8.50671">
        <ele>1525</ele>
        <time>2021-08-11T10:29:54.278Z</time>
      </trkpt>
      <trkpt lat="46.86806" lon="8.5067">
        <ele>1526</ele>
        <time>2021-08-11T10:29:55.278Z</time>
      </trkpt>
      <trkpt lat="46.86807" lon="8.50669">
        <ele>1526</ele>
        <time>2021-08-11T10:29:56.277Z</time>
      </trkpt>
      <trkpt lat="46.86807" lon="8.50669">
        <ele>1527</ele>
        <time>2021-08-11T10:29:57.278Z</time>
      </trkpt>
      <trkpt lat="46.86808" lon="8.50668">
        <ele>1527</ele>
        <time>2021-08-11T10:29:58.278Z</time>
      </trkpt>
      <trkpt lat="46.86809" lon="8.50667">
        <ele>1528</ele>
        <time>2021-08-11T10:29:59.277Z</time>
      </trkpt>
      <trkpt lat="46.86809" lon="8.50667">
        <ele>1528</ele>
        <time>2021-08-11T10:30:00.278Z</time>
      </trkpt>
      <trkpt lat="46.86809" lon="8.50666">
        <ele>1528</ele>
        <time>2021-08-11T10:30:01.278Z</time>
      </trkpt>
      <trkpt lat="46.8681" lon="8.50666">
        <ele>1528</ele>
        <time>2021-08-11T10:30:02.277Z</time>
      </trkpt>
      <trkpt lat="46.86811" lon="8.50665">
        <ele>1528</ele>
        <time>2021-08-11T10:30:03.277Z</time>
      </trkpt>
      <trkpt lat="46.86812" lon="8.50665">
        <ele>1528</ele>
        <time>2021-08-11T10:30:04.278Z</time>
      </trkpt>
      <trkpt lat="46.86812" lon="8.50664">
        <ele>1528</ele>
        <time>2021-08-11T10:30:05.277Z</time>
      </trkpt>
      <trkpt lat="46.86813" lon="8.50663">
        <ele>1528</ele>
        <time>2021-08-11T10:30:06.278Z</time>
      </trkpt>
      <trkpt lat="46.86813" lon="8.50662">
        <ele>1528</ele>
        <time>2021-08-11T10:30:07.278Z</time>
      </trkpt>
      <trkpt lat="46.86813" lon="8.50661">
        <ele>1528</ele>
        <time>2021-08-11T10:30:08.277Z</time>
      </trkpt>
      <trkpt lat="46.86813" lon="8.5066">
        <ele>1527</ele>
        <time>2021-08-11T10:30:09.278Z</time>
      </trkpt>
      <trkpt lat="46.86813" lon="8.50659">
        <ele>1527</ele>
        <time>2021-08-11T10:30:10.277Z</time>
      </trkpt>
      <trkpt lat="46.86813" lon="8.50659">
        <ele>1528</ele>
        <time>2021-08-11T10:30:11.277Z</time>
      </trkpt>
      <trkpt lat="46.86814" lon="8.50659">
        <ele>1528</ele>
        <time>2021-08-11T10:30:12.278Z</time>
      </trkpt>
      <trkpt lat="46.86814" lon="8.50658">
        <ele>1528</ele>
        <time>2021-08-11T10:30:13.278Z</time>
      </trkpt>
      <trkpt lat="46.86815" lon="8.50657">
        <ele>1528</ele>
        <time>2021-08-11T10:30:14.278Z</time>
      </trkpt>
      <trkpt lat="46.86815" lon="8.50657">
        <ele>1528</ele>
        <time>2021-08-11T10:30:15.277Z</time>
      </trkpt>
      <trkpt lat="46.86815" lon="8.50656">
        <ele>1528</ele>
        <time>2021-08-11T10:30:16.278Z</time>
      </trkpt>
      <trkpt lat="46.86815" lon="8.50656">
        <ele>1528</ele>
        <time>2021-08-11T10:30:17.277Z</time>
      </trkpt>
      <trkpt lat="46.86816" lon="8.50655">
        <ele>1529</ele>
        <time>2021-08-11T10:30:18.278Z</time>
      </trkpt>
      <trkpt lat="46.86816" lon="8.50654">
        <ele>1529</ele>
        <time>2021-08-11T10:30:19.278Z</time>
      </trkpt>
      <trkpt lat="46.86817" lon="8.50653">
        <ele>1529</ele>
        <time>2021-08-11T10:30:20.278Z</time>
      </trkpt>
      <trkpt lat="46.86817" lon="8.50652">
        <ele>1529</ele>
        <time>2021-08-11T10:30:21.278Z</time>
      </trkpt>
      <trkpt lat="46.86818" lon="8.50652">
        <ele>1530</ele>
        <time>2021-08-11T10:30:22.278Z</time>
      </trkpt>
      <trkpt lat="46.86819" lon="8.50651">
        <ele>1530</ele>
        <time>2021-08-11T10:30:23.277Z</time>
      </trkpt>
      <trkpt lat="46.86819" lon="8.5065">
        <ele>1530</ele>
        <time>2021-08-11T10:30:24.278Z</time>
      </trkpt>
      <trkpt lat="46.86819" lon="8.50649">
        <ele>1530</ele>
        <time>2021-08-11T10:30:25.278Z</time>
      </trkpt>
      <trkpt lat="46.86819" lon="8.50648">
        <ele>1530</ele>
        <time>2021-08-11T10:30:26.278Z</time>
      </trkpt>
      <trkpt lat="46.8682" lon="8.50648">
        <ele>1529</ele>
        <time>2021-08-11T10:30:27.278Z</time>
      </trkpt>
      <trkpt lat="46.86821" lon="8.50647">
        <ele>1529</ele>
        <time>2021-08-11T10:30:28.278Z</time>
      </trkpt>
      <trkpt lat="46.86821" lon="8.50646">
        <ele>1530</ele>
        <time>2021-08-11T10:30:29.278Z</time>
      </trkpt>
      <trkpt lat="46.86822" lon="8.50646">
        <ele>1530</ele>
        <time>2021-08-11T10:30:30.277Z</time>
      </trkpt>
      <trkpt lat="46.86823" lon="8.50645">
        <ele>1530</ele>
        <time>2021-08-11T10:30:31.278Z</time>
      </trkpt>
      <trkpt lat="46.86824" lon="8.50644">
        <ele>1531</ele>
        <time>2021-08-11T10:30:32.278Z</time>
      </trkpt>
      <trkpt lat="46.86824" lon="8.50643">
        <ele>1531</ele>
        <time>2021-08-11T10:30:33.278Z</time>
      </trkpt>
      <trkpt lat="46.86825" lon="8.50642">
        <ele>1531</ele>
        <time>2021-08-11T10:30:34.277Z</time>
      </trkpt>
      <trkpt lat="46.86826" lon="8.50641">
        <ele>1532</ele>
        <time>2021-08-11T10:30:35.278Z</time>
      </trkpt>
      <trkpt lat="46.86826" lon="8.50641">
        <ele>1533</ele>
        <time>2021-08-11T10:30:36.278Z</time>
      </trkpt>
      <trkpt lat="46.86827" lon="8.5064">
        <ele>1533</ele>
        <time>2021-08-11T10:30:37.278Z</time>
      </trkpt>
      <trkpt lat="46.86827" lon="8.50639">
        <ele>1533</ele>
        <time>2021-08-11T10:30:38.278Z</time>
      </trkpt>
      <trkpt lat="46.86827" lon="8.50638">
        <ele>1532</ele>
        <time>2021-08-11T10:30:39.277Z</time>
      </trkpt>
      <trkpt lat="46.86828" lon="8.50637">
        <ele>1532</ele>
        <time>2021-08-11T10:30:40.278Z</time>
      </trkpt>
      <trkpt lat="46.86828" lon="8.50636">
        <ele>1532</ele>
        <time>2021-08-11T10:30:41.278Z</time>
      </trkpt>
      <trkpt lat="46.86828" lon="8.50635">
        <ele>1531</ele>
        <time>2021-08-11T10:30:42.278Z</time>
      </trkpt>
      <trkpt lat="46.86828" lon="8.50634">
        <ele>1531</ele>
        <time>2021-08-11T10:30:43.277Z</time>
      </trkpt>
      <trkpt lat="46.86829" lon="8.50634">
        <ele>1531</ele>
        <time>2021-08-11T10:30:44.278Z</time>
      </trkpt>
      <trkpt lat="46.8683" lon="8.50632">
        <ele>1531</ele>
        <time>2021-08-11T10:30:45.278Z</time>
      </trkpt>
      <trkpt lat="46.8683" lon="8.50631">
        <ele>1531</ele>
        <time>2021-08-11T10:30:46.278Z</time>
      </trkpt>
      <trkpt lat="46.86831" lon="8.50631">
        <ele>1531</ele>
        <time>2021-08-11T10:30:47.277Z</time>
      </trkpt>
      <trkpt lat="46.86832" lon="8.5063">
        <ele>1532</ele>
        <time>2021-08-11T10:30:48.278Z</time>
      </trkpt>
      <trkpt lat="46.86832" lon="8.50628">
        <ele>1532</ele>
        <time>2021-08-11T10:30:49.278Z</time>
      </trkpt>
      <trkpt lat="46.86833" lon="8.50627">
        <ele>1532</ele>
        <time>2021-08-11T10:30:50.278Z</time>
      </trkpt>
      <trkpt lat="46.86833" lon="8.50626">
        <ele>1531</ele>
        <time>2021-08-11T10:30:51.278Z</time>
      </trkpt>
      <trkpt lat="46.86833" lon="8.50625">
        <ele>1531</ele>
        <time>2021-08-11T10:30:52.277Z</time>
      </trkpt>
      <trkpt lat="46.86834" lon="8.50624">
        <ele>1531</ele>
        <time>2021-08-11T10:30:53.278Z</time>
      </trkpt>
      <trkpt lat="46.86834" lon="8.50623">
        <ele>1531</ele>
        <time>2021-08-11T10:30:54.278Z</time>
      </trkpt>
      <trkpt lat="46.86835" lon="8.50622">
        <ele>1531</ele>
        <time>2021-08-11T10:30:55.278Z</time>
      </trkpt>
      <trkpt lat="46.86835" lon="8.50622">
        <ele>1531</ele>
        <time>2021-08-11T10:30:56.278Z</time>
      </trkpt>
      <trkpt lat="46.86836" lon="8.50621">
        <ele>1531</ele>
        <time>2021-08-11T10:30:57.277Z</time>
      </trkpt>
      <trkpt lat="46.86837" lon="8.50621">
        <ele>1532</ele>
        <time>2021-08-11T10:30:58.277Z</time>
      </trkpt>
      <trkpt lat="46.86836" lon="8.50621">
        <ele>1532</ele>
        <time>2021-08-11T10:30:59.277Z</time>
      </trkpt>
      <trkpt lat="46.86837" lon="8.5062">
        <ele>1533</ele>
        <time>2021-08-11T10:31:00.278Z</time>
      </trkpt>
      <trkpt lat="46.86838" lon="8.5062">
        <ele>1533</ele>
        <time>2021-08-11T10:31:01.278Z</time>
      </trkpt>
      <trkpt lat="46.86838" lon="8.50619">
        <ele>1533</ele>
        <time>2021-08-11T10:31:02.277Z</time>
      </trkpt>
      <trkpt lat="46.86839" lon="8.50618">
        <ele>1533</ele>
        <time>2021-08-11T10:31:03.278Z</time>
      </trkpt>
      <trkpt lat="46.86839" lon="8.50618">
        <ele>1533</ele>
        <time>2021-08-11T10:31:04.278Z</time>
      </trkpt>
      <trkpt lat="46.8684" lon="8.50617">
        <ele>1534</ele>
        <time>2021-08-11T10:31:05.278Z</time>
      </trkpt>
      <trkpt lat="46.86841" lon="8.50617">
        <ele>1534</ele>
        <time>2021-08-11T10:31:06.278Z</time>
      </trkpt>
      <trkpt lat="46.86842" lon="8.50617">
        <ele>1534</ele>
        <time>2021-08-11T10:31:07.277Z</time>
      </trkpt>
      <trkpt lat="46.86842" lon="8.50616">
        <ele>1534</ele>
        <time>2021-08-11T10:31:08.277Z</time>
      </trkpt>
      <trkpt lat="46.86843" lon="8.50616">
        <ele>1534</ele>
        <time>2021-08-11T10:31:09.277Z</time>
      </trkpt>
      <trkpt lat="46.86844" lon="8.50616">
        <ele>1534</ele>
        <time>2021-08-11T10:31:10.278Z</time>
      </trkpt>
      <trkpt lat="46.86844" lon="8.50615">
        <ele>1534</ele>
        <time>2021-08-11T10:31:11.278Z</time>
      </trkpt>
      <trkpt lat="46.86844" lon="8.50614">
        <ele>1534</ele>
        <time>2021-08-11T10:31:12.278Z</time>
      </trkpt>
      <trkpt lat="46.86845" lon="8.50614">
        <ele>1533</ele>
        <time>2021-08-11T10:31:13.277Z</time>
      </trkpt>
      <trkpt lat="46.86845" lon="8.50614">
        <ele>1533</ele>
        <time>2021-08-11T10:31:14.278Z</time>
      </trkpt>
      <trkpt lat="46.86846" lon="8.50614">
        <ele>1533</ele>
        <time>2021-08-11T10:31:15.278Z</time>
      </trkpt>
      <trkpt lat="46.86847" lon="8.50615">
        <ele>1532</ele>
        <time>2021-08-11T10:31:16.278Z</time>
      </trkpt>
      <trkpt lat="46.86847" lon="8.50615">
        <ele>1532</ele>
        <time>2021-08-11T10:31:17.278Z</time>
      </trkpt>
      <trkpt lat="46.86848" lon="8.50614">
        <ele>1532</ele>
        <time>2021-08-11T10:31:18.278Z</time>
      </trkpt>
      <trkpt lat="46.86849" lon="8.50614">
        <ele>1532</ele>
        <time>2021-08-11T10:31:19.277Z</time>
      </trkpt>
      <trkpt lat="46.8685" lon="8.50613">
        <ele>1532</ele>
        <time>2021-08-11T10:31:20.278Z</time>
      </trkpt>
      <trkpt lat="46.86851" lon="8.50613">
        <ele>1532</ele>
        <time>2021-08-11T10:31:21.278Z</time>
      </trkpt>
      <trkpt lat="46.86851" lon="8.50612">
        <ele>1532</ele>
        <time>2021-08-11T10:31:22.278Z</time>
      </trkpt>
      <trkpt lat="46.86852" lon="8.50613">
        <ele>1533</ele>
        <time>2021-08-11T10:31:23.277Z</time>
      </trkpt>
      <trkpt lat="46.86853" lon="8.50612">
        <ele>1533</ele>
        <time>2021-08-11T10:31:24.277Z</time>
      </trkpt>
      <trkpt lat="46.86854" lon="8.50612">
        <ele>1534</ele>
        <time>2021-08-11T10:31:25.278Z</time>
      </trkpt>
      <trkpt lat="46.86855" lon="8.50612">
        <ele>1534</ele>
        <time>2021-08-11T10:31:26.278Z</time>
      </trkpt>
      <trkpt lat="46.86856" lon="8.50612">
        <ele>1534</ele>
        <time>2021-08-11T10:31:27.278Z</time>
      </trkpt>
      <trkpt lat="46.86857" lon="8.50612">
        <ele>1534</ele>
        <time>2021-08-11T10:31:28.277Z</time>
      </trkpt>
      <trkpt lat="46.86857" lon="8.50612">
        <ele>1534</ele>
        <time>2021-08-11T10:31:29.278Z</time>
      </trkpt>
      <trkpt lat="46.86858" lon="8.50612">
        <ele>1535</ele>
        <time>2021-08-11T10:31:30.277Z</time>
      </trkpt>
      <trkpt lat="46.86859" lon="8.50612">
        <ele>1535</ele>
        <time>2021-08-11T10:31:31.278Z</time>
      </trkpt>
      <trkpt lat="46.86859" lon="8.50612">
        <ele>1535</ele>
        <time>2021-08-11T10:31:32.278Z</time>
      </trkpt>
      <trkpt lat="46.86859" lon="8.50612">
        <ele>1535</ele>
        <time>2021-08-11T10:31:33.278Z</time>
      </trkpt>
      <trkpt lat="46.8686" lon="8.50612">
        <ele>1535</ele>
        <time>2021-08-11T10:31:34.277Z</time>
      </trkpt>
      <trkpt lat="46.8686" lon="8.50612">
        <ele>1536</ele>
        <time>2021-08-11T10:31:35.277Z</time>
      </trkpt>
      <trkpt lat="46.8686" lon="8.50613">
        <ele>1536</ele>
        <time>2021-08-11T10:31:36.277Z</time>
      </trkpt>
      <trkpt lat="46.86861" lon="8.50613">
        <ele>1536</ele>
        <time>2021-08-11T10:31:44.398Z</time>
      </trkpt>
      <trkpt lat="46.86861" lon="8.50615">
        <ele>1537</ele>
        <time>2021-08-11T10:31:45.398Z</time>
      </trkpt>
      <trkpt lat="46.86862" lon="8.50615">
        <ele>1537</ele>
        <time>2021-08-11T10:31:46.399Z</time>
      </trkpt>
      <trkpt lat="46.86863" lon="8.50614">
        <ele>1538</ele>
        <time>2021-08-11T10:31:59.377Z</time>
      </trkpt>
      <trkpt lat="46.86864" lon="8.50613">
        <ele>1539</ele>
        <time>2021-08-11T10:32:01.135Z</time>
      </trkpt>
      <trkpt lat="46.86865" lon="8.50613">
        <ele>1539</ele>
        <time>2021-08-11T10:32:02.135Z</time>
      </trkpt>
      <trkpt lat="46.86866" lon="8.50613">
        <ele>1540</ele>
        <time>2021-08-11T10:32:03.135Z</time>
      </trkpt>
      <trkpt lat="46.86867" lon="8.50613">
        <ele>1540</ele>
        <time>2021-08-11T10:33:12.258Z</time>
      </trkpt>
      <trkpt lat="46.86868" lon="8.50613">
        <ele>1540</ele>
        <time>2021-08-11T10:33:13.258Z</time>
      </trkpt>
      <trkpt lat="46.86868" lon="8.50614">
        <ele>1540</ele>
        <time>2021-08-11T10:33:14.258Z</time>
      </trkpt>
      <trkpt lat="46.86869" lon="8.50614">
        <ele>1540</ele>
        <time>2021-08-11T10:33:15.258Z</time>
      </trkpt>
      <trkpt lat="46.8687" lon="8.50614">
        <ele>1541</ele>
        <time>2021-08-11T10:33:32.382Z</time>
      </trkpt>
      <trkpt lat="46.8687" lon="8.50614">
        <ele>1541</ele>
        <time>2021-08-11T10:33:42.152Z</time>
      </trkpt>
      <trkpt lat="46.86871" lon="8.50614">
        <ele>1541</ele>
        <time>2021-08-11T10:33:43.152Z</time>
      </trkpt>
      <trkpt lat="46.86871" lon="8.50615">
        <ele>1540</ele>
        <time>2021-08-11T10:33:44.152Z</time>
      </trkpt>
      <trkpt lat="46.86872" lon="8.50615">
        <ele>1540</ele>
        <time>2021-08-11T10:34:34.283Z</time>
      </trkpt>
      <trkpt lat="46.86872" lon="8.50616">
        <ele>1540</ele>
        <time>2021-08-11T10:34:35.282Z</time>
      </trkpt>
      <trkpt lat="46.86873" lon="8.50616">
        <ele>1540</ele>
        <time>2021-08-11T10:34:37.123Z</time>
      </trkpt>
      <trkpt lat="46.86873" lon="8.50617">
        <ele>1541</ele>
        <time>2021-08-11T10:34:38.123Z</time>
      </trkpt>
      <trkpt lat="46.86874" lon="8.50617">
        <ele>1541</ele>
        <time>2021-08-11T10:34:39.123Z</time>
      </trkpt>
      <trkpt lat="46.86875" lon="8.50617">
        <ele>1541</ele>
        <time>2021-08-11T10:34:40.123Z</time>
      </trkpt>
      <trkpt lat="46.86875" lon="8.50617">
        <ele>1541</ele>
        <time>2021-08-11T10:34:41.123Z</time>
      </trkpt>
      <trkpt lat="46.86876" lon="8.50617">
        <ele>1541</ele>
        <time>2021-08-11T10:35:01.158Z</time>
      </trkpt>
      <trkpt lat="46.86876" lon="8.50617">
        <ele>1541</ele>
        <time>2021-08-11T10:35:02.157Z</time>
      </trkpt>
      <trkpt lat="46.86876" lon="8.50617">
        <ele>1541</ele>
        <time>2021-08-11T10:35:03.158Z</time>
      </trkpt>
      <trkpt lat="46.86877" lon="8.50616">
        <ele>1542</ele>
        <time>2021-08-11T10:35:04.157Z</time>
      </trkpt>
      <trkpt lat="46.86878" lon="8.50616">
        <ele>1541</ele>
        <time>2021-08-11T10:35:05.158Z</time>
      </trkpt>
      <trkpt lat="46.86879" lon="8.50616">
        <ele>1541</ele>
        <time>2021-08-11T10:35:13.282Z</time>
      </trkpt>
      <trkpt lat="46.86879" lon="8.50615">
        <ele>1541</ele>
        <time>2021-08-11T10:35:14.282Z</time>
      </trkpt>
      <trkpt lat="46.8688" lon="8.50615">
        <ele>1542</ele>
        <time>2021-08-11T10:35:15.281Z</time>
      </trkpt>
      <trkpt lat="46.8688" lon="8.50615">
        <ele>1542</ele>
        <time>2021-08-11T10:35:16.282Z</time>
      </trkpt>
      <trkpt lat="46.86881" lon="8.50615">
        <ele>1542</ele>
        <time>2021-08-11T10:35:17.282Z</time>
      </trkpt>
      <trkpt lat="46.86881" lon="8.50615">
        <ele>1542</ele>
        <time>2021-08-11T10:35:18.282Z</time>
      </trkpt>
      <trkpt lat="46.86882" lon="8.50615">
        <ele>1542</ele>
        <time>2021-08-11T10:35:19.282Z</time>
      </trkpt>
      <trkpt lat="46.86882" lon="8.50614">
        <ele>1542</ele>
        <time>2021-08-11T10:35:20.281Z</time>
      </trkpt>
      <trkpt lat="46.86883" lon="8.50614">
        <ele>1542</ele>
        <time>2021-08-11T10:35:21.281Z</time>
      </trkpt>
      <trkpt lat="46.86883" lon="8.50613">
        <ele>1541</ele>
        <time>2021-08-11T10:35:22.282Z</time>
      </trkpt>
      <trkpt lat="46.86884" lon="8.50613">
        <ele>1540</ele>
        <time>2021-08-11T10:36:07.404Z</time>
      </trkpt>
      <trkpt lat="46.86885" lon="8.50612">
        <ele>1540</ele>
        <time>2021-08-11T10:36:08.404Z</time>
      </trkpt>
      <trkpt lat="46.86885" lon="8.50611">
        <ele>1540</ele>
        <time>2021-08-11T10:36:09.404Z</time>
      </trkpt>
      <trkpt lat="46.86885" lon="8.50611">
        <ele>1540</ele>
        <time>2021-08-11T10:36:10.403Z</time>
      </trkpt>
      <trkpt lat="46.86885" lon="8.50611">
        <ele>1540</ele>
        <time>2021-08-11T10:36:11.403Z</time>
      </trkpt>
      <trkpt lat="46.86886" lon="8.50612">
        <ele>1540</ele>
        <time>2021-08-11T10:36:12.403Z</time>
      </trkpt>
      <trkpt lat="46.86886" lon="8.50612">
        <ele>1541</ele>
        <time>2021-08-11T10:36:13.404Z</time>
      </trkpt>
      <trkpt lat="46.86887" lon="8.50612">
        <ele>1542</ele>
        <time>2021-08-11T10:36:14.404Z</time>
      </trkpt>
      <trkpt lat="46.86887" lon="8.50612">
        <ele>1542</ele>
        <time>2021-08-11T10:36:15.403Z</time>
      </trkpt>
      <trkpt lat="46.86888" lon="8.50611">
        <ele>1543</ele>
        <time>2021-08-11T10:36:16.403Z</time>
      </trkpt>
      <trkpt lat="46.86889" lon="8.50611">
        <ele>1544</ele>
        <time>2021-08-11T10:36:17.404Z</time>
      </trkpt>
      <trkpt lat="46.8689" lon="8.50611">
        <ele>1544</ele>
        <time>2021-08-11T10:36:18.404Z</time>
      </trkpt>
      <trkpt lat="46.86891" lon="8.50611">
        <ele>1545</ele>
        <time>2021-08-11T10:36:19.404Z</time>
      </trkpt>
      <trkpt lat="46.86892" lon="8.50611">
        <ele>1545</ele>
        <time>2021-08-11T10:36:20.404Z</time>
      </trkpt>
      <trkpt lat="46.86892" lon="8.5061">
        <ele>1546</ele>
        <time>2021-08-11T10:36:21.404Z</time>
      </trkpt>
      <trkpt lat="46.86893" lon="8.5061">
        <ele>1546</ele>
        <time>2021-08-11T10:36:22.404Z</time>
      </trkpt>
      <trkpt lat="46.86894" lon="8.50609">
        <ele>1546</ele>
        <time>2021-08-11T10:36:23.404Z</time>
      </trkpt>
      <trkpt lat="46.86894" lon="8.50609">
        <ele>1547</ele>
        <time>2021-08-11T10:36:24.403Z</time>
      </trkpt>
      <trkpt lat="46.86895" lon="8.50608">
        <ele>1547</ele>
        <time>2021-08-11T10:36:25.404Z</time>
      </trkpt>
      <trkpt lat="46.86895" lon="8.50608">
        <ele>1547</ele>
        <time>2021-08-11T10:36:26.403Z</time>
      </trkpt>
      <trkpt lat="46.86896" lon="8.50608">
        <ele>1547</ele>
        <time>2021-08-11T10:36:27.404Z</time>
      </trkpt>
      <trkpt lat="46.86897" lon="8.50607">
        <ele>1547</ele>
        <time>2021-08-11T10:36:28.404Z</time>
      </trkpt>
      <trkpt lat="46.86898" lon="8.50606">
        <ele>1546</ele>
        <time>2021-08-11T10:36:29.404Z</time>
      </trkpt>
      <trkpt lat="46.86898" lon="8.50606">
        <ele>1546</ele>
        <time>2021-08-11T10:36:30.404Z</time>
      </trkpt>
      <trkpt lat="46.86898" lon="8.50605">
        <ele>1545</ele>
        <time>2021-08-11T10:36:31.403Z</time>
      </trkpt>
      <trkpt lat="46.86899" lon="8.50605">
        <ele>1544</ele>
        <time>2021-08-11T10:36:32.403Z</time>
      </trkpt>
      <trkpt lat="46.869" lon="8.50604">
        <ele>1544</ele>
        <time>2021-08-11T10:36:33.404Z</time>
      </trkpt>
      <trkpt lat="46.869" lon="8.50603">
        <ele>1544</ele>
        <time>2021-08-11T10:36:34.404Z</time>
      </trkpt>
      <trkpt lat="46.86901" lon="8.50603">
        <ele>1543</ele>
        <time>2021-08-11T10:36:35.404Z</time>
      </trkpt>
      <trkpt lat="46.86902" lon="8.50602">
        <ele>1543</ele>
        <time>2021-08-11T10:36:36.403Z</time>
      </trkpt>
      <trkpt lat="46.86903" lon="8.50602">
        <ele>1542</ele>
        <time>2021-08-11T10:36:37.404Z</time>
      </trkpt>
      <trkpt lat="46.86904" lon="8.50601">
        <ele>1542</ele>
        <time>2021-08-11T10:36:38.403Z</time>
      </trkpt>
      <trkpt lat="46.86905" lon="8.50601">
        <ele>1542</ele>
        <time>2021-08-11T10:36:39.403Z</time>
      </trkpt>
      <trkpt lat="46.86906" lon="8.506">
        <ele>1542</ele>
        <time>2021-08-11T10:36:40.403Z</time>
      </trkpt>
      <trkpt lat="46.86907" lon="8.506">
        <ele>1542</ele>
        <time>2021-08-11T10:36:41.404Z</time>
      </trkpt>
      <trkpt lat="46.86908" lon="8.50599">
        <ele>1543</ele>
        <time>2021-08-11T10:36:42.404Z</time>
      </trkpt>
      <trkpt lat="46.86909" lon="8.50598">
        <ele>1543</ele>
        <time>2021-08-11T10:36:43.404Z</time>
      </trkpt>
      <trkpt lat="46.86909" lon="8.50597">
        <ele>1543</ele>
        <time>2021-08-11T10:36:44.403Z</time>
      </trkpt>
      <trkpt lat="46.86909" lon="8.50596">
        <ele>1544</ele>
        <time>2021-08-11T10:36:45.404Z</time>
      </trkpt>
      <trkpt lat="46.8691" lon="8.50596">
        <ele>1544</ele>
        <time>2021-08-11T10:36:46.404Z</time>
      </trkpt>
      <trkpt lat="46.8691" lon="8.50595">
        <ele>1544</ele>
        <time>2021-08-11T10:36:47.403Z</time>
      </trkpt>
      <trkpt lat="46.86911" lon="8.50594">
        <ele>1545</ele>
        <time>2021-08-11T10:36:48.404Z</time>
      </trkpt>
      <trkpt lat="46.86912" lon="8.50594">
        <ele>1545</ele>
        <time>2021-08-11T10:36:49.403Z</time>
      </trkpt>
      <trkpt lat="46.86912" lon="8.50594">
        <ele>1545</ele>
        <time>2021-08-11T10:36:50.404Z</time>
      </trkpt>
      <trkpt lat="46.86913" lon="8.50593">
        <ele>1545</ele>
        <time>2021-08-11T10:36:51.404Z</time>
      </trkpt>
      <trkpt lat="46.86914" lon="8.50592">
        <ele>1545</ele>
        <time>2021-08-11T10:36:52.404Z</time>
      </trkpt>
      <trkpt lat="46.86914" lon="8.50592">
        <ele>1545</ele>
        <time>2021-08-11T10:36:53.404Z</time>
      </trkpt>
      <trkpt lat="46.86914" lon="8.50591">
        <ele>1546</ele>
        <time>2021-08-11T10:36:54.404Z</time>
      </trkpt>
      <trkpt lat="46.86915" lon="8.5059">
        <ele>1546</ele>
        <time>2021-08-11T10:36:55.404Z</time>
      </trkpt>
      <trkpt lat="46.86915" lon="8.5059">
        <ele>1546</ele>
        <time>2021-08-11T10:36:56.403Z</time>
      </trkpt>
      <trkpt lat="46.86915" lon="8.50589">
        <ele>1546</ele>
        <time>2021-08-11T10:36:57.403Z</time>
      </trkpt>
      <trkpt lat="46.86915" lon="8.50588">
        <ele>1546</ele>
        <time>2021-08-11T10:36:58.404Z</time>
      </trkpt>
      <trkpt lat="46.86917" lon="8.50587">
        <ele>1547</ele>
        <time>2021-08-11T10:36:59.404Z</time>
      </trkpt>
      <trkpt lat="46.86918" lon="8.50587">
        <ele>1547</ele>
        <time>2021-08-11T10:37:00.403Z</time>
      </trkpt>
      <trkpt lat="46.86919" lon="8.50586">
        <ele>1547</ele>
        <time>2021-08-11T10:37:01.404Z</time>
      </trkpt>
      <trkpt lat="46.8692" lon="8.50585">
        <ele>1547</ele>
        <time>2021-08-11T10:37:02.404Z</time>
      </trkpt>
      <trkpt lat="46.8692" lon="8.50585">
        <ele>1547</ele>
        <time>2021-08-11T10:37:03.404Z</time>
      </trkpt>
      <trkpt lat="46.86921" lon="8.50584">
        <ele>1547</ele>
        <time>2021-08-11T10:37:04.403Z</time>
      </trkpt>
      <trkpt lat="46.86922" lon="8.50583">
        <ele>1547</ele>
        <time>2021-08-11T10:37:05.404Z</time>
      </trkpt>
      <trkpt lat="46.86922" lon="8.50582">
        <ele>1547</ele>
        <time>2021-08-11T10:37:06.404Z</time>
      </trkpt>
      <trkpt lat="46.86924" lon="8.50582">
        <ele>1548</ele>
        <time>2021-08-11T10:37:07.404Z</time>
      </trkpt>
      <trkpt lat="46.86925" lon="8.50581">
        <ele>1548</ele>
        <time>2021-08-11T10:37:08.404Z</time>
      </trkpt>
      <trkpt lat="46.86926" lon="8.50581">
        <ele>1548</ele>
        <time>2021-08-11T10:37:09.403Z</time>
      </trkpt>
      <trkpt lat="46.86927" lon="8.5058">
        <ele>1548</ele>
        <time>2021-08-11T10:37:10.404Z</time>
      </trkpt>
      <trkpt lat="46.86927" lon="8.5058">
        <ele>1549</ele>
        <time>2021-08-11T10:37:11.404Z</time>
      </trkpt>
      <trkpt lat="46.86928" lon="8.5058">
        <ele>1549</ele>
        <time>2021-08-11T10:37:12.404Z</time>
      </trkpt>
      <trkpt lat="46.86929" lon="8.5058">
        <ele>1550</ele>
        <time>2021-08-11T10:37:13.403Z</time>
      </trkpt>
      <trkpt lat="46.86931" lon="8.50579">
        <ele>1550</ele>
        <time>2021-08-11T10:37:14.404Z</time>
      </trkpt>
      <trkpt lat="46.86932" lon="8.50579">
        <ele>1551</ele>
        <time>2021-08-11T10:37:15.404Z</time>
      </trkpt>
      <trkpt lat="46.86932" lon="8.50578">
        <ele>1551</ele>
        <time>2021-08-11T10:37:16.404Z</time>
      </trkpt>
      <trkpt lat="46.86933" lon="8.50577">
        <ele>1551</ele>
        <time>2021-08-11T10:37:17.404Z</time>
      </trkpt>
      <trkpt lat="46.86933" lon="8.50576">
        <ele>1551</ele>
        <time>2021-08-11T10:37:18.404Z</time>
      </trkpt>
      <trkpt lat="46.86934" lon="8.50575">
        <ele>1551</ele>
        <time>2021-08-11T10:37:19.404Z</time>
      </trkpt>
      <trkpt lat="46.86934" lon="8.50574">
        <ele>1551</ele>
        <time>2021-08-11T10:37:20.404Z</time>
      </trkpt>
      <trkpt lat="46.86934" lon="8.50573">
        <ele>1552</ele>
        <time>2021-08-11T10:37:21.404Z</time>
      </trkpt>
      <trkpt lat="46.86935" lon="8.50572">
        <ele>1552</ele>
        <time>2021-08-11T10:37:22.404Z</time>
      </trkpt>
      <trkpt lat="46.86936" lon="8.50571">
        <ele>1552</ele>
        <time>2021-08-11T10:37:23.403Z</time>
      </trkpt>
      <trkpt lat="46.86938" lon="8.50571">
        <ele>1553</ele>
        <time>2021-08-11T10:37:24.403Z</time>
      </trkpt>
      <trkpt lat="46.86939" lon="8.5057">
        <ele>1553</ele>
        <time>2021-08-11T10:37:25.404Z</time>
      </trkpt>
      <trkpt lat="46.8694" lon="8.50569">
        <ele>1554</ele>
        <time>2021-08-11T10:37:26.404Z</time>
      </trkpt>
      <trkpt lat="46.86941" lon="8.50569">
        <ele>1554</ele>
        <time>2021-08-11T10:37:27.404Z</time>
      </trkpt>
      <trkpt lat="46.86941" lon="8.50569">
        <ele>1554</ele>
        <time>2021-08-11T10:37:28.404Z</time>
      </trkpt>
      <trkpt lat="46.86942" lon="8.50568">
        <ele>1555</ele>
        <time>2021-08-11T10:37:29.403Z</time>
      </trkpt>
      <trkpt lat="46.86942" lon="8.5057">
        <ele>1555</ele>
        <time>2021-08-11T10:37:30.404Z</time>
      </trkpt>
      <trkpt lat="46.86943" lon="8.50571">
        <ele>1556</ele>
        <time>2021-08-11T10:37:31.404Z</time>
      </trkpt>
      <trkpt lat="46.86943" lon="8.50571">
        <ele>1556</ele>
        <time>2021-08-11T10:37:32.404Z</time>
      </trkpt>
      <trkpt lat="46.86943" lon="8.50571">
        <ele>1556</ele>
        <time>2021-08-11T10:37:33.404Z</time>
      </trkpt>
      <trkpt lat="46.86943" lon="8.50571">
        <ele>1556</ele>
        <time>2021-08-11T10:37:34.403Z</time>
      </trkpt>
      <trkpt lat="46.86943" lon="8.50572">
        <ele>1557</ele>
        <time>2021-08-11T10:37:35.404Z</time>
      </trkpt>
      <trkpt lat="46.86943" lon="8.50572">
        <ele>1557</ele>
        <time>2021-08-11T10:37:36.404Z</time>
      </trkpt>
      <trkpt lat="46.86943" lon="8.50572">
        <ele>1557</ele>
        <time>2021-08-11T10:37:37.404Z</time>
      </trkpt>
      <trkpt lat="46.86943" lon="8.50573">
        <ele>1558</ele>
        <time>2021-08-11T10:37:38.404Z</time>
      </trkpt>
      <trkpt lat="46.86944" lon="8.50573">
        <ele>1558</ele>
        <time>2021-08-11T10:37:39.403Z</time>
      </trkpt>
      <trkpt lat="46.86944" lon="8.50573">
        <ele>1558</ele>
        <time>2021-08-11T10:37:40.403Z</time>
      </trkpt>
      <trkpt lat="46.86945" lon="8.50574">
        <ele>1559</ele>
        <time>2021-08-11T10:37:41.404Z</time>
      </trkpt>
      <trkpt lat="46.86946" lon="8.50574">
        <ele>1559</ele>
        <time>2021-08-11T10:37:42.403Z</time>
      </trkpt>
      <trkpt lat="46.86947" lon="8.50574">
        <ele>1560</ele>
        <time>2021-08-11T10:37:43.404Z</time>
      </trkpt>
      <trkpt lat="46.86947" lon="8.50575">
        <ele>1560</ele>
        <time>2021-08-11T10:37:44.404Z</time>
      </trkpt>
      <trkpt lat="46.86947" lon="8.50575">
        <ele>1561</ele>
        <time>2021-08-11T10:37:45.404Z</time>
      </trkpt>
      <trkpt lat="46.86948" lon="8.50574">
        <ele>1561</ele>
        <time>2021-08-11T10:37:46.403Z</time>
      </trkpt>
      <trkpt lat="46.86949" lon="8.50573">
        <ele>1561</ele>
        <time>2021-08-11T10:37:47.404Z</time>
      </trkpt>
      <trkpt lat="46.86949" lon="8.50573">
        <ele>1561</ele>
        <time>2021-08-11T10:37:48.403Z</time>
      </trkpt>
      <trkpt lat="46.8695" lon="8.50572">
        <ele>1561</ele>
        <time>2021-08-11T10:37:49.404Z</time>
      </trkpt>
      <trkpt lat="46.86951" lon="8.50572">
        <ele>1561</ele>
        <time>2021-08-11T10:37:50.404Z</time>
      </trkpt>
      <trkpt lat="46.86952" lon="8.50571">
        <ele>1561</ele>
        <time>2021-08-11T10:37:51.403Z</time>
      </trkpt>
      <trkpt lat="46.86952" lon="8.5057">
        <ele>1562</ele>
        <time>2021-08-11T10:37:52.404Z</time>
      </trkpt>
      <trkpt lat="46.86953" lon="8.50569">
        <ele>1562</ele>
        <time>2021-08-11T10:37:53.403Z</time>
      </trkpt>
      <trkpt lat="46.86954" lon="8.50568">
        <ele>1562</ele>
        <time>2021-08-11T10:37:54.404Z</time>
      </trkpt>
      <trkpt lat="46.86955" lon="8.50567">
        <ele>1562</ele>
        <time>2021-08-11T10:37:55.404Z</time>
      </trkpt>
      <trkpt lat="46.86955" lon="8.50567">
        <ele>1563</ele>
        <time>2021-08-11T10:37:56.404Z</time>
      </trkpt>
      <trkpt lat="46.86956" lon="8.50566">
        <ele>1563</ele>
        <time>2021-08-11T10:37:57.403Z</time>
      </trkpt>
      <trkpt lat="46.86957" lon="8.50565">
        <ele>1563</ele>
        <time>2021-08-11T10:37:58.404Z</time>
      </trkpt>
      <trkpt lat="46.86958" lon="8.50564">
        <ele>1563</ele>
        <time>2021-08-11T10:37:59.404Z</time>
      </trkpt>
      <trkpt lat="46.86958" lon="8.50564">
        <ele>1563</ele>
        <time>2021-08-11T10:38:00.404Z</time>
      </trkpt>
      <trkpt lat="46.86958" lon="8.50564">
        <ele>1563</ele>
        <time>2021-08-11T10:38:01.403Z</time>
      </trkpt>
      <trkpt lat="46.86958" lon="8.50564">
        <ele>1563</ele>
        <time>2021-08-11T10:38:02.403Z</time>
      </trkpt>
      <trkpt lat="46.86959" lon="8.50564">
        <ele>1563</ele>
        <time>2021-08-11T10:38:03.403Z</time>
      </trkpt>
      <trkpt lat="46.86958" lon="8.50564">
        <ele>1564</ele>
        <time>2021-08-11T10:38:04.403Z</time>
      </trkpt>
      <trkpt lat="46.86958" lon="8.50563">
        <ele>1564</ele>
        <time>2021-08-11T10:38:05.404Z</time>
      </trkpt>
      <trkpt lat="46.86957" lon="8.50563">
        <ele>1564</ele>
        <time>2021-08-11T10:38:06.404Z</time>
      </trkpt>
      <trkpt lat="46.86958" lon="8.50562">
        <ele>1564</ele>
        <time>2021-08-11T10:38:07.404Z</time>
      </trkpt>
      <trkpt lat="46.86958" lon="8.50562">
        <ele>1564</ele>
        <time>2021-08-11T10:38:08.403Z</time>
      </trkpt>
      <trkpt lat="46.86959" lon="8.50561">
        <ele>1565</ele>
        <time>2021-08-11T10:38:09.404Z</time>
      </trkpt>
      <trkpt lat="46.86959" lon="8.50561">
        <ele>1565</ele>
        <time>2021-08-11T10:38:10.404Z</time>
      </trkpt>
      <trkpt lat="46.8696" lon="8.5056">
        <ele>1565</ele>
        <time>2021-08-11T10:38:11.404Z</time>
      </trkpt>
      <trkpt lat="46.86961" lon="8.50559">
        <ele>1565</ele>
        <time>2021-08-11T10:38:12.404Z</time>
      </trkpt>
      <trkpt lat="46.86961" lon="8.50558">
        <ele>1564</ele>
        <time>2021-08-11T10:38:13.403Z</time>
      </trkpt>
      <trkpt lat="46.86962" lon="8.50558">
        <ele>1564</ele>
        <time>2021-08-11T10:38:14.404Z</time>
      </trkpt>
      <trkpt lat="46.86962" lon="8.50557">
        <ele>1564</ele>
        <time>2021-08-11T10:38:15.404Z</time>
      </trkpt>
      <trkpt lat="46.86963" lon="8.50556">
        <ele>1564</ele>
        <time>2021-08-11T10:38:16.404Z</time>
      </trkpt>
      <trkpt lat="46.86965" lon="8.50555">
        <ele>1564</ele>
        <time>2021-08-11T10:38:17.404Z</time>
      </trkpt>
      <trkpt lat="46.86966" lon="8.50553">
        <ele>1564</ele>
        <time>2021-08-11T10:38:18.403Z</time>
      </trkpt>
      <trkpt lat="46.86967" lon="8.50553">
        <ele>1564</ele>
        <time>2021-08-11T10:38:19.403Z</time>
      </trkpt>
      <trkpt lat="46.86969" lon="8.50552">
        <ele>1564</ele>
        <time>2021-08-11T10:38:20.403Z</time>
      </trkpt>
      <trkpt lat="46.8697" lon="8.50552">
        <ele>1564</ele>
        <time>2021-08-11T10:38:21.404Z</time>
      </trkpt>
      <trkpt lat="46.86971" lon="8.50551">
        <ele>1564</ele>
        <time>2021-08-11T10:38:22.404Z</time>
      </trkpt>
      <trkpt lat="46.86973" lon="8.50549">
        <ele>1564</ele>
        <time>2021-08-11T10:38:23.404Z</time>
      </trkpt>
      <trkpt lat="46.86974" lon="8.50548">
        <ele>1564</ele>
        <time>2021-08-11T10:38:24.404Z</time>
      </trkpt>
      <trkpt lat="46.86975" lon="8.50547">
        <ele>1564</ele>
        <time>2021-08-11T10:38:25.403Z</time>
      </trkpt>
      <trkpt lat="46.86975" lon="8.50546">
        <ele>1564</ele>
        <time>2021-08-11T10:38:26.404Z</time>
      </trkpt>
      <trkpt lat="46.86976" lon="8.50545">
        <ele>1563</ele>
        <time>2021-08-11T10:38:27.404Z</time>
      </trkpt>
      <trkpt lat="46.86976" lon="8.50545">
        <ele>1563</ele>
        <time>2021-08-11T10:38:28.403Z</time>
      </trkpt>
      <trkpt lat="46.86977" lon="8.50544">
        <ele>1563</ele>
        <time>2021-08-11T10:38:29.404Z</time>
      </trkpt>
      <trkpt lat="46.86978" lon="8.50543">
        <ele>1563</ele>
        <time>2021-08-11T10:38:30.403Z</time>
      </trkpt>
      <trkpt lat="46.86979" lon="8.50543">
        <ele>1562</ele>
        <time>2021-08-11T10:38:31.404Z</time>
      </trkpt>
      <trkpt lat="46.86979" lon="8.50542">
        <ele>1562</ele>
        <time>2021-08-11T10:38:32.404Z</time>
      </trkpt>
      <trkpt lat="46.86979" lon="8.50541">
        <ele>1562</ele>
        <time>2021-08-11T10:38:33.403Z</time>
      </trkpt>
      <trkpt lat="46.8698" lon="8.50541">
        <ele>1562</ele>
        <time>2021-08-11T10:38:34.404Z</time>
      </trkpt>
      <trkpt lat="46.8698" lon="8.50541">
        <ele>1562</ele>
        <time>2021-08-11T10:38:35.403Z</time>
      </trkpt>
      <trkpt lat="46.86981" lon="8.50541">
        <ele>1562</ele>
        <time>2021-08-11T10:38:36.404Z</time>
      </trkpt>
      <trkpt lat="46.86982" lon="8.50542">
        <ele>1561</ele>
        <time>2021-08-11T10:38:37.404Z</time>
      </trkpt>
      <trkpt lat="46.86982" lon="8.50543">
        <ele>1561</ele>
        <time>2021-08-11T10:38:38.403Z</time>
      </trkpt>
      <trkpt lat="46.86982" lon="8.50544">
        <ele>1561</ele>
        <time>2021-08-11T10:38:39.404Z</time>
      </trkpt>
      <trkpt lat="46.86982" lon="8.50545">
        <ele>1560</ele>
        <time>2021-08-11T10:38:40.403Z</time>
      </trkpt>
      <trkpt lat="46.86983" lon="8.50548">
        <ele>1560</ele>
        <time>2021-08-11T10:38:41.403Z</time>
      </trkpt>
      <trkpt lat="46.86983" lon="8.50549">
        <ele>1560</ele>
        <time>2021-08-11T10:38:42.404Z</time>
      </trkpt>
      <trkpt lat="46.86983" lon="8.50549">
        <ele>1560</ele>
        <time>2021-08-11T10:38:43.404Z</time>
      </trkpt>
      <trkpt lat="46.86983" lon="8.50548">
        <ele>1560</ele>
        <time>2021-08-11T10:38:44.403Z</time>
      </trkpt>
      <trkpt lat="46.86983" lon="8.50548">
        <ele>1560</ele>
        <time>2021-08-11T10:38:45.404Z</time>
      </trkpt>
      <trkpt lat="46.86983" lon="8.50548">
        <ele>1560</ele>
        <time>2021-08-11T10:38:46.404Z</time>
      </trkpt>
      <trkpt lat="46.86983" lon="8.50548">
        <ele>1560</ele>
        <time>2021-08-11T10:38:47.404Z</time>
      </trkpt>
      <trkpt lat="46.86984" lon="8.50548">
        <ele>1560</ele>
        <time>2021-08-11T10:38:48.403Z</time>
      </trkpt>
      <trkpt lat="46.86985" lon="8.50548">
        <ele>1560</ele>
        <time>2021-08-11T10:38:49.404Z</time>
      </trkpt>
      <trkpt lat="46.86985" lon="8.50548">
        <ele>1561</ele>
        <time>2021-08-11T10:38:50.404Z</time>
      </trkpt>
      <trkpt lat="46.86986" lon="8.50548">
        <ele>1561</ele>
        <time>2021-08-11T10:38:51.404Z</time>
      </trkpt>
      <trkpt lat="46.86987" lon="8.50547">
        <ele>1562</ele>
        <time>2021-08-11T10:38:52.404Z</time>
      </trkpt>
      <trkpt lat="46.86987" lon="8.50547">
        <ele>1562</ele>
        <time>2021-08-11T10:38:53.404Z</time>
      </trkpt>
      <trkpt lat="46.86988" lon="8.50547">
        <ele>1562</ele>
        <time>2021-08-11T10:38:54.404Z</time>
      </trkpt>
      <trkpt lat="46.86988" lon="8.50547">
        <ele>1562</ele>
        <time>2021-08-11T10:38:55.403Z</time>
      </trkpt>
      <trkpt lat="46.86988" lon="8.50547">
        <ele>1562</ele>
        <time>2021-08-11T10:38:56.403Z</time>
      </trkpt>
      <trkpt lat="46.86988" lon="8.50547">
        <ele>1562</ele>
        <time>2021-08-11T10:38:57.403Z</time>
      </trkpt>
      <trkpt lat="46.86988" lon="8.50547">
        <ele>1562</ele>
        <time>2021-08-11T10:38:58.404Z</time>
      </trkpt>
      <trkpt lat="46.86989" lon="8.50547">
        <ele>1562</ele>
        <time>2021-08-11T10:38:59.404Z</time>
      </trkpt>
      <trkpt lat="46.86989" lon="8.50547">
        <ele>1562</ele>
        <time>2021-08-11T10:39:00.403Z</time>
      </trkpt>
      <trkpt lat="46.86989" lon="8.50547">
        <ele>1561</ele>
        <time>2021-08-11T10:39:01.403Z</time>
      </trkpt>
      <trkpt lat="46.86989" lon="8.50548">
        <ele>1561</ele>
        <time>2021-08-11T10:39:02.404Z</time>
      </trkpt>
      <trkpt lat="46.86989" lon="8.50548">
        <ele>1561</ele>
        <time>2021-08-11T10:39:03.404Z</time>
      </trkpt>
      <trkpt lat="46.86989" lon="8.50548">
        <ele>1561</ele>
        <time>2021-08-11T10:39:04.403Z</time>
      </trkpt>
      <trkpt lat="46.8699" lon="8.50549">
        <ele>1561</ele>
        <time>2021-08-11T10:39:05.404Z</time>
      </trkpt>
      <trkpt lat="46.86991" lon="8.50549">
        <ele>1561</ele>
        <time>2021-08-11T10:39:06.404Z</time>
      </trkpt>
      <trkpt lat="46.86992" lon="8.50549">
        <ele>1561</ele>
        <time>2021-08-11T10:39:07.404Z</time>
      </trkpt>
      <trkpt lat="46.86992" lon="8.50549">
        <ele>1561</ele>
        <time>2021-08-11T10:39:08.403Z</time>
      </trkpt>
      <trkpt lat="46.86993" lon="8.50548">
        <ele>1561</ele>
        <time>2021-08-11T10:39:09.403Z</time>
      </trkpt>
      <trkpt lat="46.86993" lon="8.50548">
        <ele>1561</ele>
        <time>2021-08-11T10:39:10.404Z</time>
      </trkpt>
      <trkpt lat="46.86994" lon="8.50547">
        <ele>1561</ele>
        <time>2021-08-11T10:39:11.404Z</time>
      </trkpt>
      <trkpt lat="46.86995" lon="8.50546">
        <ele>1561</ele>
        <time>2021-08-11T10:39:12.404Z</time>
      </trkpt>
      <trkpt lat="46.86995" lon="8.50545">
        <ele>1561</ele>
        <time>2021-08-11T10:39:13.404Z</time>
      </trkpt>
      <trkpt lat="46.86997" lon="8.50544">
        <ele>1560</ele>
        <time>2021-08-11T10:39:14.403Z</time>
      </trkpt>
      <trkpt lat="46.86998" lon="8.50543">
        <ele>1560</ele>
        <time>2021-08-11T10:39:15.404Z</time>
      </trkpt>
      <trkpt lat="46.86999" lon="8.50542">
        <ele>1560</ele>
        <time>2021-08-11T10:39:16.403Z</time>
      </trkpt>
      <trkpt lat="46.87" lon="8.50542">
        <ele>1560</ele>
        <time>2021-08-11T10:39:17.404Z</time>
      </trkpt>
      <trkpt lat="46.87001" lon="8.50541">
        <ele>1560</ele>
        <time>2021-08-11T10:39:18.404Z</time>
      </trkpt>
      <trkpt lat="46.87003" lon="8.5054">
        <ele>1560</ele>
        <time>2021-08-11T10:39:19.404Z</time>
      </trkpt>
      <trkpt lat="46.87004" lon="8.5054">
        <ele>1560</ele>
        <time>2021-08-11T10:39:20.404Z</time>
      </trkpt>
      <trkpt lat="46.87004" lon="8.5054">
        <ele>1561</ele>
        <time>2021-08-11T10:39:21.403Z</time>
      </trkpt>
      <trkpt lat="46.87005" lon="8.50539">
        <ele>1561</ele>
        <time>2021-08-11T10:39:22.404Z</time>
      </trkpt>
      <trkpt lat="46.87006" lon="8.50538">
        <ele>1561</ele>
        <time>2021-08-11T10:39:23.404Z</time>
      </trkpt>
      <trkpt lat="46.87007" lon="8.50538">
        <ele>1561</ele>
        <time>2021-08-11T10:39:24.403Z</time>
      </trkpt>
      <trkpt lat="46.87007" lon="8.50538">
        <ele>1561</ele>
        <time>2021-08-11T10:39:25.404Z</time>
      </trkpt>
      <trkpt lat="46.87008" lon="8.50537">
        <ele>1561</ele>
        <time>2021-08-11T10:39:26.404Z</time>
      </trkpt>
      <trkpt lat="46.87009" lon="8.50537">
        <ele>1562</ele>
        <time>2021-08-11T10:39:27.403Z</time>
      </trkpt>
      <trkpt lat="46.8701" lon="8.50536">
        <ele>1562</ele>
        <time>2021-08-11T10:39:28.404Z</time>
      </trkpt>
      <trkpt lat="46.87011" lon="8.50535">
        <ele>1562</ele>
        <time>2021-08-11T10:39:29.403Z</time>
      </trkpt>
      <trkpt lat="46.87011" lon="8.50534">
        <ele>1563</ele>
        <time>2021-08-11T10:39:30.404Z</time>
      </trkpt>
      <trkpt lat="46.87012" lon="8.50533">
        <ele>1563</ele>
        <time>2021-08-11T10:39:31.404Z</time>
      </trkpt>
      <trkpt lat="46.87012" lon="8.50533">
        <ele>1563</ele>
        <time>2021-08-11T10:39:32.403Z</time>
      </trkpt>
      <trkpt lat="46.87013" lon="8.50532">
        <ele>1563</ele>
        <time>2021-08-11T10:39:33.404Z</time>
      </trkpt>
      <trkpt lat="46.87013" lon="8.50531">
        <ele>1564</ele>
        <time>2021-08-11T10:39:34.404Z</time>
      </trkpt>
      <trkpt lat="46.87014" lon="8.50531">
        <ele>1564</ele>
        <time>2021-08-11T10:39:35.404Z</time>
      </trkpt>
      <trkpt lat="46.87014" lon="8.50531">
        <ele>1564</ele>
        <time>2021-08-11T10:39:36.404Z</time>
      </trkpt>
      <trkpt lat="46.87015" lon="8.50531">
        <ele>1565</ele>
        <time>2021-08-11T10:39:37.403Z</time>
      </trkpt>
      <trkpt lat="46.87015" lon="8.50532">
        <ele>1565</ele>
        <time>2021-08-11T10:39:38.404Z</time>
      </trkpt>
      <trkpt lat="46.87015" lon="8.50533">
        <ele>1565</ele>
        <time>2021-08-11T10:39:39.404Z</time>
      </trkpt>
      <trkpt lat="46.87016" lon="8.50533">
        <ele>1565</ele>
        <time>2021-08-11T10:39:40.404Z</time>
      </trkpt>
      <trkpt lat="46.87016" lon="8.50533">
        <ele>1565</ele>
        <time>2021-08-11T10:39:44.398Z</time>
      </trkpt>
      <trkpt lat="46.87017" lon="8.50532">
        <ele>1565</ele>
        <time>2021-08-11T10:39:46.237Z</time>
      </trkpt>
      <trkpt lat="46.87018" lon="8.50532">
        <ele>1566</ele>
        <time>2021-08-11T10:39:47.237Z</time>
      </trkpt>
      <trkpt lat="46.87021" lon="8.50531">
        <ele>1567</ele>
        <time>2021-08-11T10:39:48.237Z</time>
      </trkpt>
      <trkpt lat="46.87023" lon="8.50531">
        <ele>1567</ele>
        <time>2021-08-11T10:39:49.237Z</time>
      </trkpt>
      <trkpt lat="46.87025" lon="8.5053">
        <ele>1568</ele>
        <time>2021-08-11T10:39:50.237Z</time>
      </trkpt>
      <trkpt lat="46.87027" lon="8.5053">
        <ele>1568</ele>
        <time>2021-08-11T10:39:51.236Z</time>
      </trkpt>
      <trkpt lat="46.87029" lon="8.50529">
        <ele>1568</ele>
        <time>2021-08-11T10:39:52.237Z</time>
      </trkpt>
      <trkpt lat="46.8703" lon="8.50528">
        <ele>1569</ele>
        <time>2021-08-11T10:39:53.237Z</time>
      </trkpt>
      <trkpt lat="46.87031" lon="8.50528">
        <ele>1569</ele>
        <time>2021-08-11T10:39:54.237Z</time>
      </trkpt>
      <trkpt lat="46.87033" lon="8.50527">
        <ele>1569</ele>
        <time>2021-08-11T10:39:55.237Z</time>
      </trkpt>
      <trkpt lat="46.87034" lon="8.50527">
        <ele>1569</ele>
        <time>2021-08-11T10:39:56.236Z</time>
      </trkpt>
      <trkpt lat="46.87035" lon="8.50527">
        <ele>1570</ele>
        <time>2021-08-11T10:39:57.237Z</time>
      </trkpt>
      <trkpt lat="46.87036" lon="8.50526">
        <ele>1570</ele>
        <time>2021-08-11T10:39:58.237Z</time>
      </trkpt>
      <trkpt lat="46.87037" lon="8.50526">
        <ele>1570</ele>
        <time>2021-08-11T10:39:59.236Z</time>
      </trkpt>
      <trkpt lat="46.87037" lon="8.50526">
        <ele>1570</ele>
        <time>2021-08-11T10:40:00.237Z</time>
      </trkpt>
      <trkpt lat="46.87038" lon="8.50526">
        <ele>1570</ele>
        <time>2021-08-11T10:40:01.237Z</time>
      </trkpt>
      <trkpt lat="46.87039" lon="8.50526">
        <ele>1571</ele>
        <time>2021-08-11T10:40:02.237Z</time>
      </trkpt>
      <trkpt lat="46.87039" lon="8.50526">
        <ele>1571</ele>
        <time>2021-08-11T10:40:03.237Z</time>
      </trkpt>
      <trkpt lat="46.87041" lon="8.50524">
        <ele>1571</ele>
        <time>2021-08-11T10:40:04.236Z</time>
      </trkpt>
      <trkpt lat="46.87042" lon="8.50524">
        <ele>1571</ele>
        <time>2021-08-11T10:40:05.237Z</time>
      </trkpt>
      <trkpt lat="46.87043" lon="8.50523">
        <ele>1571</ele>
        <time>2021-08-11T10:40:06.237Z</time>
      </trkpt>
      <trkpt lat="46.87044" lon="8.50522">
        <ele>1571</ele>
        <time>2021-08-11T10:40:07.237Z</time>
      </trkpt>
      <trkpt lat="46.87044" lon="8.50521">
        <ele>1571</ele>
        <time>2021-08-11T10:40:08.236Z</time>
      </trkpt>
      <trkpt lat="46.87045" lon="8.50521">
        <ele>1570</ele>
        <time>2021-08-11T10:40:09.236Z</time>
      </trkpt>
      <trkpt lat="46.87046" lon="8.50521">
        <ele>1570</ele>
        <time>2021-08-11T10:40:10.237Z</time>
      </trkpt>
      <trkpt lat="46.87046" lon="8.5052">
        <ele>1570</ele>
        <time>2021-08-11T10:40:11.236Z</time>
      </trkpt>
      <trkpt lat="46.87047" lon="8.5052">
        <ele>1570</ele>
        <time>2021-08-11T10:40:12.237Z</time>
      </trkpt>
      <trkpt lat="46.87048" lon="8.5052">
        <ele>1570</ele>
        <time>2021-08-11T10:40:13.237Z</time>
      </trkpt>
      <trkpt lat="46.87049" lon="8.50519">
        <ele>1570</ele>
        <time>2021-08-11T10:40:14.237Z</time>
      </trkpt>
      <trkpt lat="46.8705" lon="8.50519">
        <ele>1569</ele>
        <time>2021-08-11T10:40:15.237Z</time>
      </trkpt>
      <trkpt lat="46.87051" lon="8.50518">
        <ele>1569</ele>
        <time>2021-08-11T10:40:16.237Z</time>
      </trkpt>
      <trkpt lat="46.87051" lon="8.50518">
        <ele>1569</ele>
        <time>2021-08-11T10:40:17.236Z</time>
      </trkpt>
      <trkpt lat="46.87052" lon="8.50518">
        <ele>1568</ele>
        <time>2021-08-11T10:40:18.237Z</time>
      </trkpt>
      <trkpt lat="46.87053" lon="8.50516">
        <ele>1568</ele>
        <time>2021-08-11T10:40:19.237Z</time>
      </trkpt>
      <trkpt lat="46.87054" lon="8.50516">
        <ele>1567</ele>
        <time>2021-08-11T10:40:20.237Z</time>
      </trkpt>
      <trkpt lat="46.87056" lon="8.50514">
        <ele>1567</ele>
        <time>2021-08-11T10:40:21.237Z</time>
      </trkpt>
      <trkpt lat="46.87057" lon="8.50513">
        <ele>1567</ele>
        <time>2021-08-11T10:40:22.236Z</time>
      </trkpt>
      <trkpt lat="46.87059" lon="8.50513">
        <ele>1567</ele>
        <time>2021-08-11T10:40:23.237Z</time>
      </trkpt>
      <trkpt lat="46.87061" lon="8.50512">
        <ele>1567</ele>
        <time>2021-08-11T10:40:24.237Z</time>
      </trkpt>
      <trkpt lat="46.87062" lon="8.50512">
        <ele>1567</ele>
        <time>2021-08-11T10:40:30.256Z</time>
      </trkpt>
      <trkpt lat="46.87063" lon="8.50512">
        <ele>1566</ele>
        <time>2021-08-11T10:40:31.256Z</time>
      </trkpt>
      <trkpt lat="46.87064" lon="8.50511">
        <ele>1566</ele>
        <time>2021-08-11T10:40:32.255Z</time>
      </trkpt>
      <trkpt lat="46.87065" lon="8.5051">
        <ele>1566</ele>
        <time>2021-08-11T10:40:43.369Z</time>
      </trkpt>
      <trkpt lat="46.87065" lon="8.50509">
        <ele>1565</ele>
        <time>2021-08-11T10:40:44.369Z</time>
      </trkpt>
      <trkpt lat="46.87066" lon="8.50509">
        <ele>1565</ele>
        <time>2021-08-11T10:40:45.368Z</time>
      </trkpt>
      <trkpt lat="46.87066" lon="8.50508">
        <ele>1565</ele>
        <time>2021-08-11T10:41:07.395Z</time>
      </trkpt>
      <trkpt lat="46.87066" lon="8.50508">
        <ele>1565</ele>
        <time>2021-08-11T10:41:11.272Z</time>
      </trkpt>
      <trkpt lat="46.87067" lon="8.50508">
        <ele>1565</ele>
        <time>2021-08-11T10:41:12.272Z</time>
      </trkpt>
      <trkpt lat="46.87068" lon="8.50507">
        <ele>1565</ele>
        <time>2021-08-11T10:41:25.045Z</time>
      </trkpt>
      <trkpt lat="46.8707" lon="8.50506">
        <ele>1565</ele>
        <time>2021-08-11T10:41:26.045Z</time>
      </trkpt>
      <trkpt lat="46.87071" lon="8.50505">
        <ele>1565</ele>
        <time>2021-08-11T10:41:27.045Z</time>
      </trkpt>
      <trkpt lat="46.87072" lon="8.50504">
        <ele>1565</ele>
        <time>2021-08-11T10:41:28.045Z</time>
      </trkpt>
      <trkpt lat="46.87073" lon="8.50504">
        <ele>1565</ele>
        <time>2021-08-11T10:41:29.045Z</time>
      </trkpt>
      <trkpt lat="46.87075" lon="8.50504">
        <ele>1565</ele>
        <time>2021-08-11T10:41:30.045Z</time>
      </trkpt>
      <trkpt lat="46.87076" lon="8.50504">
        <ele>1565</ele>
        <time>2021-08-11T10:41:31.045Z</time>
      </trkpt>
      <trkpt lat="46.87076" lon="8.50503">
        <ele>1565</ele>
        <time>2021-08-11T10:41:51.126Z</time>
      </trkpt>
      <trkpt lat="46.87077" lon="8.50503">
        <ele>1565</ele>
        <time>2021-08-11T10:41:52.126Z</time>
      </trkpt>
      <trkpt lat="46.87078" lon="8.50502">
        <ele>1565</ele>
        <time>2021-08-11T10:41:53.125Z</time>
      </trkpt>
      <trkpt lat="46.87078" lon="8.50501">
        <ele>1565</ele>
        <time>2021-08-11T10:41:54.125Z</time>
      </trkpt>
      <trkpt lat="46.87079" lon="8.505">
        <ele>1565</ele>
        <time>2021-08-11T10:41:55.126Z</time>
      </trkpt>
      <trkpt lat="46.8708" lon="8.50499">
        <ele>1565</ele>
        <time>2021-08-11T10:41:56.126Z</time>
      </trkpt>
      <trkpt lat="46.87081" lon="8.50499">
        <ele>1565</ele>
        <time>2021-08-11T10:41:57.126Z</time>
      </trkpt>
      <trkpt lat="46.87082" lon="8.50499">
        <ele>1565</ele>
        <time>2021-08-11T10:41:58.125Z</time>
      </trkpt>
      <trkpt lat="46.87083" lon="8.50498">
        <ele>1565</ele>
        <time>2021-08-11T10:41:59.125Z</time>
      </trkpt>
      <trkpt lat="46.87084" lon="8.50498">
        <ele>1565</ele>
        <time>2021-08-11T10:42:00.126Z</time>
      </trkpt>
      <trkpt lat="46.87085" lon="8.50498">
        <ele>1565</ele>
        <time>2021-08-11T10:42:01.126Z</time>
      </trkpt>
      <trkpt lat="46.87085" lon="8.50497">
        <ele>1565</ele>
        <time>2021-08-11T10:42:02.126Z</time>
      </trkpt>
      <trkpt lat="46.87085" lon="8.50497">
        <ele>1565</ele>
        <time>2021-08-11T10:42:03.126Z</time>
      </trkpt>
      <trkpt lat="46.87086" lon="8.50496">
        <ele>1565</ele>
        <time>2021-08-11T10:42:04.125Z</time>
      </trkpt>
      <trkpt lat="46.87087" lon="8.50495">
        <ele>1565</ele>
        <time>2021-08-11T10:42:05.126Z</time>
      </trkpt>
      <trkpt lat="46.87088" lon="8.50495">
        <ele>1565</ele>
        <time>2021-08-11T10:42:06.126Z</time>
      </trkpt>
      <trkpt lat="46.87089" lon="8.50495">
        <ele>1565</ele>
        <time>2021-08-11T10:42:07.125Z</time>
      </trkpt>
      <trkpt lat="46.87091" lon="8.50496">
        <ele>1565</ele>
        <time>2021-08-11T10:42:08.126Z</time>
      </trkpt>
      <trkpt lat="46.87092" lon="8.50496">
        <ele>1565</ele>
        <time>2021-08-11T10:42:09.126Z</time>
      </trkpt>
      <trkpt lat="46.87093" lon="8.50496">
        <ele>1565</ele>
        <time>2021-08-11T10:42:10.126Z</time>
      </trkpt>
      <trkpt lat="46.87094" lon="8.50496">
        <ele>1565</ele>
        <time>2021-08-11T10:42:11.125Z</time>
      </trkpt>
      <trkpt lat="46.87095" lon="8.50496">
        <ele>1565</ele>
        <time>2021-08-11T10:42:12.126Z</time>
      </trkpt>
      <trkpt lat="46.87096" lon="8.50495">
        <ele>1565</ele>
        <time>2021-08-11T10:42:13.126Z</time>
      </trkpt>
      <trkpt lat="46.87097" lon="8.50494">
        <ele>1565</ele>
        <time>2021-08-11T10:42:15.110Z</time>
      </trkpt>
      <trkpt lat="46.87098" lon="8.50493">
        <ele>1565</ele>
        <time>2021-08-11T10:42:16.110Z</time>
      </trkpt>
      <trkpt lat="46.87099" lon="8.50493">
        <ele>1565</ele>
        <time>2021-08-11T10:42:17.109Z</time>
      </trkpt>
      <trkpt lat="46.871" lon="8.50493">
        <ele>1565</ele>
        <time>2021-08-11T10:42:18.110Z</time>
      </trkpt>
      <trkpt lat="46.871" lon="8.50494">
        <ele>1565</ele>
        <time>2021-08-11T10:42:19.110Z</time>
      </trkpt>
      <trkpt lat="46.87101" lon="8.50493">
        <ele>1565</ele>
        <time>2021-08-11T10:42:20.109Z</time>
      </trkpt>
      <trkpt lat="46.87102" lon="8.50494">
        <ele>1565</ele>
        <time>2021-08-11T10:42:21.109Z</time>
      </trkpt>
      <trkpt lat="46.87103" lon="8.50494">
        <ele>1565</ele>
        <time>2021-08-11T10:42:22.110Z</time>
      </trkpt>
      <trkpt lat="46.87104" lon="8.50493">
        <ele>1565</ele>
        <time>2021-08-11T10:42:23.110Z</time>
      </trkpt>
      <trkpt lat="46.87106" lon="8.50493">
        <ele>1566</ele>
        <time>2021-08-11T10:42:25.111Z</time>
      </trkpt>
      <trkpt lat="46.87107" lon="8.50492">
        <ele>1566</ele>
        <time>2021-08-11T10:42:26.110Z</time>
      </trkpt>
      <trkpt lat="46.87107" lon="8.50491">
        <ele>1566</ele>
        <time>2021-08-11T10:42:27.110Z</time>
      </trkpt>
      <trkpt lat="46.87108" lon="8.5049">
        <ele>1566</ele>
        <time>2021-08-11T10:42:28.111Z</time>
      </trkpt>
      <trkpt lat="46.87109" lon="8.50489">
        <ele>1565</ele>
        <time>2021-08-11T10:42:29.111Z</time>
      </trkpt>
      <trkpt lat="46.8711" lon="8.50488">
        <ele>1565</ele>
        <time>2021-08-11T10:42:30.111Z</time>
      </trkpt>
      <trkpt lat="46.8711" lon="8.50488">
        <ele>1564</ele>
        <time>2021-08-11T10:42:31.111Z</time>
      </trkpt>
      <trkpt lat="46.87111" lon="8.50487">
        <ele>1564</ele>
        <time>2021-08-11T10:42:32.110Z</time>
      </trkpt>
      <trkpt lat="46.87112" lon="8.50486">
        <ele>1563</ele>
        <time>2021-08-11T10:42:33.111Z</time>
      </trkpt>
      <trkpt lat="46.87113" lon="8.50486">
        <ele>1563</ele>
        <time>2021-08-11T10:42:34.110Z</time>
      </trkpt>
      <trkpt lat="46.87115" lon="8.50485">
        <ele>1562</ele>
        <time>2021-08-11T10:42:35.111Z</time>
      </trkpt>
      <trkpt lat="46.87115" lon="8.50484">
        <ele>1562</ele>
        <time>2021-08-11T10:42:36.111Z</time>
      </trkpt>
      <trkpt lat="46.87117" lon="8.50484">
        <ele>1561</ele>
        <time>2021-08-11T10:42:37.111Z</time>
      </trkpt>
      <trkpt lat="46.87118" lon="8.50483">
        <ele>1561</ele>
        <time>2021-08-11T10:42:38.111Z</time>
      </trkpt>
      <trkpt lat="46.87119" lon="8.50481">
        <ele>1560</ele>
        <time>2021-08-11T10:42:39.110Z</time>
      </trkpt>
      <trkpt lat="46.8712" lon="8.5048">
        <ele>1560</ele>
        <time>2021-08-11T10:42:40.110Z</time>
      </trkpt>
      <trkpt lat="46.87121" lon="8.50478">
        <ele>1560</ele>
        <time>2021-08-11T10:42:45.147Z</time>
      </trkpt>
      <trkpt lat="46.87121" lon="8.50478">
        <ele>1559</ele>
        <time>2021-08-11T10:42:46.148Z</time>
      </trkpt>
      <trkpt lat="46.87122" lon="8.50477">
        <ele>1559</ele>
        <time>2021-08-11T10:42:47.148Z</time>
      </trkpt>
      <trkpt lat="46.87123" lon="8.50476">
        <ele>1559</ele>
        <time>2021-08-11T10:42:48.148Z</time>
      </trkpt>
      <trkpt lat="46.87124" lon="8.50476">
        <ele>1558</ele>
        <time>2021-08-11T10:42:49.148Z</time>
      </trkpt>
      <trkpt lat="46.87125" lon="8.50476">
        <ele>1558</ele>
        <time>2021-08-11T10:42:56.124Z</time>
      </trkpt>
      <trkpt lat="46.87126" lon="8.50475">
        <ele>1557</ele>
        <time>2021-08-11T10:42:57.125Z</time>
      </trkpt>
      <trkpt lat="46.87127" lon="8.50475">
        <ele>1557</ele>
        <time>2021-08-11T10:43:02.897Z</time>
      </trkpt>
      <trkpt lat="46.87128" lon="8.50474">
        <ele>1556</ele>
        <time>2021-08-11T10:43:03.898Z</time>
      </trkpt>
      <trkpt lat="46.87128" lon="8.50474">
        <ele>1555</ele>
        <time>2021-08-11T10:43:04.898Z</time>
      </trkpt>
      <trkpt lat="46.87129" lon="8.50474">
        <ele>1555</ele>
        <time>2021-08-11T10:43:05.898Z</time>
      </trkpt>
      <trkpt lat="46.8713" lon="8.50474">
        <ele>1555</ele>
        <time>2021-08-11T10:43:06.898Z</time>
      </trkpt>
      <trkpt lat="46.87131" lon="8.50475">
        <ele>1554</ele>
        <time>2021-08-11T10:43:07.897Z</time>
      </trkpt>
      <trkpt lat="46.87132" lon="8.50475">
        <ele>1554</ele>
        <time>2021-08-11T10:43:08.897Z</time>
      </trkpt>
      <trkpt lat="46.87133" lon="8.50476">
        <ele>1553</ele>
        <time>2021-08-11T10:43:13.893Z</time>
      </trkpt>
      <trkpt lat="46.87135" lon="8.50475">
        <ele>1553</ele>
        <time>2021-08-11T10:43:14.892Z</time>
      </trkpt>
      <trkpt lat="46.87137" lon="8.50474">
        <ele>1553</ele>
        <time>2021-08-11T10:43:15.893Z</time>
      </trkpt>
      <trkpt lat="46.87138" lon="8.50474">
        <ele>1552</ele>
        <time>2021-08-11T10:43:16.893Z</time>
      </trkpt>
      <trkpt lat="46.87139" lon="8.50473">
        <ele>1552</ele>
        <time>2021-08-11T10:43:17.892Z</time>
      </trkpt>
      <trkpt lat="46.8714" lon="8.50473">
        <ele>1552</ele>
        <time>2021-08-11T10:43:20.880Z</time>
      </trkpt>
      <trkpt lat="46.87141" lon="8.50473">
        <ele>1552</ele>
        <time>2021-08-11T10:43:21.879Z</time>
      </trkpt>
      <trkpt lat="46.87142" lon="8.50473">
        <ele>1552</ele>
        <time>2021-08-11T10:43:22.880Z</time>
      </trkpt>
      <trkpt lat="46.87143" lon="8.50473">
        <ele>1552</ele>
        <time>2021-08-11T10:43:31.999Z</time>
      </trkpt>
      <trkpt lat="46.87144" lon="8.50474">
        <ele>1553</ele>
        <time>2021-08-11T10:43:32.999Z</time>
      </trkpt>
      <trkpt lat="46.87145" lon="8.50474">
        <ele>1553</ele>
        <time>2021-08-11T10:43:33.999Z</time>
      </trkpt>
      <trkpt lat="46.87145" lon="8.50474">
        <ele>1553</ele>
        <time>2021-08-11T10:43:34.998Z</time>
      </trkpt>
      <trkpt lat="46.87146" lon="8.50474">
        <ele>1554</ele>
        <time>2021-08-11T10:43:35.998Z</time>
      </trkpt>
      <trkpt lat="46.87147" lon="8.50473">
        <ele>1554</ele>
        <time>2021-08-11T10:43:36.999Z</time>
      </trkpt>
      <trkpt lat="46.87148" lon="8.50472">
        <ele>1554</ele>
        <time>2021-08-11T10:43:37.999Z</time>
      </trkpt>
      <trkpt lat="46.87149" lon="8.50472">
        <ele>1553</ele>
        <time>2021-08-11T10:43:38.999Z</time>
      </trkpt>
      <trkpt lat="46.8715" lon="8.50471">
        <ele>1553</ele>
        <time>2021-08-11T10:43:39.998Z</time>
      </trkpt>
      <trkpt lat="46.87151" lon="8.50471">
        <ele>1553</ele>
        <time>2021-08-11T10:43:42.997Z</time>
      </trkpt>
      <trkpt lat="46.87151" lon="8.50471">
        <ele>1554</ele>
        <time>2021-08-11T10:43:44.771Z</time>
      </trkpt>
      <trkpt lat="46.87152" lon="8.5047">
        <ele>1554</ele>
        <time>2021-08-11T10:43:45.771Z</time>
      </trkpt>
      <trkpt lat="46.87153" lon="8.5047">
        <ele>1554</ele>
        <time>2021-08-11T10:43:46.771Z</time>
      </trkpt>
      <trkpt lat="46.87153" lon="8.5047">
        <ele>1554</ele>
        <time>2021-08-11T10:43:47.771Z</time>
      </trkpt>
      <trkpt lat="46.87154" lon="8.5047">
        <ele>1554</ele>
        <time>2021-08-11T10:43:51.874Z</time>
      </trkpt>
      <trkpt lat="46.87154" lon="8.50469">
        <ele>1554</ele>
        <time>2021-08-11T10:43:52.874Z</time>
      </trkpt>
      <trkpt lat="46.87155" lon="8.50468">
        <ele>1554</ele>
        <time>2021-08-11T10:43:53.874Z</time>
      </trkpt>
      <trkpt lat="46.87156" lon="8.50467">
        <ele>1554</ele>
        <time>2021-08-11T10:43:54.873Z</time>
      </trkpt>
      <trkpt lat="46.87157" lon="8.50465">
        <ele>1554</ele>
        <time>2021-08-11T10:43:55.874Z</time>
      </trkpt>
      <trkpt lat="46.87158" lon="8.50464">
        <ele>1555</ele>
        <time>2021-08-11T10:43:56.873Z</time>
      </trkpt>
      <trkpt lat="46.87158" lon="8.50462">
        <ele>1555</ele>
        <time>2021-08-11T10:43:57.873Z</time>
      </trkpt>
      <trkpt lat="46.87158" lon="8.50461">
        <ele>1556</ele>
        <time>2021-08-11T10:43:58.874Z</time>
      </trkpt>
      <trkpt lat="46.87159" lon="8.50459">
        <ele>1556</ele>
        <time>2021-08-11T10:43:59.874Z</time>
      </trkpt>
      <trkpt lat="46.87159" lon="8.50458">
        <ele>1557</ele>
        <time>2021-08-11T10:44:00.874Z</time>
      </trkpt>
      <trkpt lat="46.87159" lon="8.50456">
        <ele>1557</ele>
        <time>2021-08-11T10:44:01.874Z</time>
      </trkpt>
      <trkpt lat="46.87159" lon="8.50456">
        <ele>1558</ele>
        <time>2021-08-11T10:44:14.018Z</time>
      </trkpt>
      <trkpt lat="46.87158" lon="8.50455">
        <ele>1558</ele>
        <time>2021-08-11T10:44:15.018Z</time>
      </trkpt>
      <trkpt lat="46.87159" lon="8.50453">
        <ele>1558</ele>
        <time>2021-08-11T10:44:22.876Z</time>
      </trkpt>
      <trkpt lat="46.8716" lon="8.5045">
        <ele>1558</ele>
        <time>2021-08-11T10:44:23.875Z</time>
      </trkpt>
      <trkpt lat="46.87161" lon="8.50448">
        <ele>1558</ele>
        <time>2021-08-11T10:44:29.773Z</time>
      </trkpt>
      <trkpt lat="46.87162" lon="8.50446">
        <ele>1558</ele>
        <time>2021-08-11T10:44:30.773Z</time>
      </trkpt>
      <trkpt lat="46.87162" lon="8.50444">
        <ele>1558</ele>
        <time>2021-08-11T10:44:31.773Z</time>
      </trkpt>
      <trkpt lat="46.87162" lon="8.50444">
        <ele>1558</ele>
        <time>2021-08-11T10:44:32.772Z</time>
      </trkpt>
      <trkpt lat="46.87162" lon="8.50444">
        <ele>1558</ele>
        <time>2021-08-11T10:44:33.773Z</time>
      </trkpt>
      <trkpt lat="46.87163" lon="8.50444">
        <ele>1558</ele>
        <time>2021-08-11T10:44:34.773Z</time>
      </trkpt>
      <trkpt lat="46.87163" lon="8.50444">
        <ele>1558</ele>
        <time>2021-08-11T10:44:35.773Z</time>
      </trkpt>
      <trkpt lat="46.87164" lon="8.50443">
        <ele>1557</ele>
        <time>2021-08-11T10:44:36.773Z</time>
      </trkpt>
      <trkpt lat="46.87165" lon="8.50442">
        <ele>1557</ele>
        <time>2021-08-11T10:44:37.772Z</time>
      </trkpt>
      <trkpt lat="46.87166" lon="8.50441">
        <ele>1557</ele>
        <time>2021-08-11T10:44:38.773Z</time>
      </trkpt>
      <trkpt lat="46.87166" lon="8.5044">
        <ele>1557</ele>
        <time>2021-08-11T10:44:39.773Z</time>
      </trkpt>
      <trkpt lat="46.87167" lon="8.50439">
        <ele>1557</ele>
        <time>2021-08-11T10:44:40.773Z</time>
      </trkpt>
      <trkpt lat="46.87167" lon="8.50437">
        <ele>1557</ele>
        <time>2021-08-11T10:44:41.773Z</time>
      </trkpt>
      <trkpt lat="46.87168" lon="8.50436">
        <ele>1556</ele>
        <time>2021-08-11T10:44:42.772Z</time>
      </trkpt>
      <trkpt lat="46.87169" lon="8.50435">
        <ele>1556</ele>
        <time>2021-08-11T10:44:43.773Z</time>
      </trkpt>
      <trkpt lat="46.8717" lon="8.50435">
        <ele>1556</ele>
        <time>2021-08-11T10:44:44.773Z</time>
      </trkpt>
      <trkpt lat="46.8717" lon="8.50434">
        <ele>1556</ele>
        <time>2021-08-11T10:44:45.773Z</time>
      </trkpt>
      <trkpt lat="46.87171" lon="8.50434">
        <ele>1556</ele>
        <time>2021-08-11T10:44:46.772Z</time>
      </trkpt>
      <trkpt lat="46.87172" lon="8.50433">
        <ele>1556</ele>
        <time>2021-08-11T10:44:47.773Z</time>
      </trkpt>
      <trkpt lat="46.87172" lon="8.50433">
        <ele>1556</ele>
        <time>2021-08-11T10:44:48.773Z</time>
      </trkpt>
      <trkpt lat="46.87173" lon="8.50432">
        <ele>1556</ele>
        <time>2021-08-11T10:44:49.773Z</time>
      </trkpt>
      <trkpt lat="46.87174" lon="8.50432">
        <ele>1556</ele>
        <time>2021-08-11T10:44:50.773Z</time>
      </trkpt>
      <trkpt lat="46.87175" lon="8.50432">
        <ele>1556</ele>
        <time>2021-08-11T10:44:51.773Z</time>
      </trkpt>
      <trkpt lat="46.87176" lon="8.50432">
        <ele>1555</ele>
        <time>2021-08-11T10:44:52.773Z</time>
      </trkpt>
      <trkpt lat="46.87177" lon="8.50432">
        <ele>1555</ele>
        <time>2021-08-11T10:44:53.773Z</time>
      </trkpt>
      <trkpt lat="46.87178" lon="8.50432">
        <ele>1555</ele>
        <time>2021-08-11T10:44:54.773Z</time>
      </trkpt>
      <trkpt lat="46.87178" lon="8.50432">
        <ele>1555</ele>
        <time>2021-08-11T10:44:55.772Z</time>
      </trkpt>
      <trkpt lat="46.87179" lon="8.50432">
        <ele>1554</ele>
        <time>2021-08-11T10:44:56.772Z</time>
      </trkpt>
      <trkpt lat="46.8718" lon="8.50432">
        <ele>1554</ele>
        <time>2021-08-11T10:44:57.772Z</time>
      </trkpt>
      <trkpt lat="46.87181" lon="8.50433">
        <ele>1554</ele>
        <time>2021-08-11T10:44:58.772Z</time>
      </trkpt>
      <trkpt lat="46.87181" lon="8.50433">
        <ele>1554</ele>
        <time>2021-08-11T10:44:59.772Z</time>
      </trkpt>
      <trkpt lat="46.87181" lon="8.50432">
        <ele>1554</ele>
        <time>2021-08-11T10:45:00.772Z</time>
      </trkpt>
      <trkpt lat="46.87182" lon="8.50432">
        <ele>1554</ele>
        <time>2021-08-11T10:45:01.772Z</time>
      </trkpt>
      <trkpt lat="46.87183" lon="8.50431">
        <ele>1554</ele>
        <time>2021-08-11T10:45:02.772Z</time>
      </trkpt>
      <trkpt lat="46.87184" lon="8.5043">
        <ele>1554</ele>
        <time>2021-08-11T10:45:03.772Z</time>
      </trkpt>
      <trkpt lat="46.87185" lon="8.5043">
        <ele>1554</ele>
        <time>2021-08-11T10:45:04.773Z</time>
      </trkpt>
      <trkpt lat="46.87186" lon="8.50429">
        <ele>1554</ele>
        <time>2021-08-11T10:45:05.773Z</time>
      </trkpt>
      <trkpt lat="46.87187" lon="8.50429">
        <ele>1554</ele>
        <time>2021-08-11T10:45:06.772Z</time>
      </trkpt>
      <trkpt lat="46.87188" lon="8.50429">
        <ele>1554</ele>
        <time>2021-08-11T10:45:07.773Z</time>
      </trkpt>
      <trkpt lat="46.87189" lon="8.50429">
        <ele>1554</ele>
        <time>2021-08-11T10:45:08.773Z</time>
      </trkpt>
      <trkpt lat="46.8719" lon="8.50429">
        <ele>1554</ele>
        <time>2021-08-11T10:45:09.773Z</time>
      </trkpt>
      <trkpt lat="46.87191" lon="8.50428">
        <ele>1554</ele>
        <time>2021-08-11T10:45:10.772Z</time>
      </trkpt>
      <trkpt lat="46.87192" lon="8.50428">
        <ele>1555</ele>
        <time>2021-08-11T10:45:11.772Z</time>
      </trkpt>
      <trkpt lat="46.87193" lon="8.50428">
        <ele>1555</ele>
        <time>2021-08-11T10:45:12.773Z</time>
      </trkpt>
      <trkpt lat="46.87193" lon="8.50427">
        <ele>1555</ele>
        <time>2021-08-11T10:45:13.773Z</time>
      </trkpt>
      <trkpt lat="46.87195" lon="8.50427">
        <ele>1555</ele>
        <time>2021-08-11T10:45:14.773Z</time>
      </trkpt>
      <trkpt lat="46.87196" lon="8.50426">
        <ele>1555</ele>
        <time>2021-08-11T10:45:15.772Z</time>
      </trkpt>
      <trkpt lat="46.87197" lon="8.50426">
        <ele>1555</ele>
        <time>2021-08-11T10:45:16.773Z</time>
      </trkpt>
      <trkpt lat="46.87198" lon="8.50426">
        <ele>1555</ele>
        <time>2021-08-11T10:45:17.773Z</time>
      </trkpt>
      <trkpt lat="46.87198" lon="8.50425">
        <ele>1555</ele>
        <time>2021-08-11T10:45:18.773Z</time>
      </trkpt>
      <trkpt lat="46.87199" lon="8.50424">
        <ele>1554</ele>
        <time>2021-08-11T10:45:19.773Z</time>
      </trkpt>
      <trkpt lat="46.872" lon="8.50424">
        <ele>1554</ele>
        <time>2021-08-11T10:45:20.772Z</time>
      </trkpt>
      <trkpt lat="46.872" lon="8.50424">
        <ele>1554</ele>
        <time>2021-08-11T10:45:21.773Z</time>
      </trkpt>
      <trkpt lat="46.872" lon="8.50424">
        <ele>1554</ele>
        <time>2021-08-11T10:45:22.773Z</time>
      </trkpt>
      <trkpt lat="46.87202" lon="8.50424">
        <ele>1554</ele>
        <time>2021-08-11T10:45:23.773Z</time>
      </trkpt>
      <trkpt lat="46.87203" lon="8.50423">
        <ele>1555</ele>
        <time>2021-08-11T10:45:24.772Z</time>
      </trkpt>
      <trkpt lat="46.87205" lon="8.50422">
        <ele>1555</ele>
        <time>2021-08-11T10:45:25.773Z</time>
      </trkpt>
      <trkpt lat="46.87206" lon="8.50421">
        <ele>1555</ele>
        <time>2021-08-11T10:45:26.773Z</time>
      </trkpt>
      <trkpt lat="46.87207" lon="8.5042">
        <ele>1556</ele>
        <time>2021-08-11T10:45:27.773Z</time>
      </trkpt>
      <trkpt lat="46.87209" lon="8.5042">
        <ele>1556</ele>
        <time>2021-08-11T10:45:28.773Z</time>
      </trkpt>
      <trkpt lat="46.8721" lon="8.50421">
        <ele>1557</ele>
        <time>2021-08-11T10:45:29.772Z</time>
      </trkpt>
      <trkpt lat="46.87211" lon="8.50421">
        <ele>1557</ele>
        <time>2021-08-11T10:45:30.773Z</time>
      </trkpt>
      <trkpt lat="46.87211" lon="8.50422">
        <ele>1558</ele>
        <time>2021-08-11T10:45:31.773Z</time>
      </trkpt>
      <trkpt lat="46.87212" lon="8.50423">
        <ele>1558</ele>
        <time>2021-08-11T10:45:32.773Z</time>
      </trkpt>
      <trkpt lat="46.87213" lon="8.50423">
        <ele>1559</ele>
        <time>2021-08-11T10:45:33.772Z</time>
      </trkpt>
      <trkpt lat="46.87214" lon="8.50422">
        <ele>1559</ele>
        <time>2021-08-11T10:45:34.773Z</time>
      </trkpt>
      <trkpt lat="46.87216" lon="8.50422">
        <ele>1560</ele>
        <time>2021-08-11T10:45:35.773Z</time>
      </trkpt>
      <trkpt lat="46.87218" lon="8.50421">
        <ele>1559</ele>
        <time>2021-08-11T10:45:36.773Z</time>
      </trkpt>
      <trkpt lat="46.8722" lon="8.50422">
        <ele>1559</ele>
        <time>2021-08-11T10:45:37.773Z</time>
      </trkpt>
      <trkpt lat="46.87221" lon="8.50422">
        <ele>1559</ele>
        <time>2021-08-11T10:45:38.772Z</time>
      </trkpt>
      <trkpt lat="46.87223" lon="8.50422">
        <ele>1558</ele>
        <time>2021-08-11T10:45:40.856Z</time>
      </trkpt>
      <trkpt lat="46.87224" lon="8.50422">
        <ele>1558</ele>
        <time>2021-08-11T10:45:41.856Z</time>
      </trkpt>
      <trkpt lat="46.87225" lon="8.50423">
        <ele>1557</ele>
        <time>2021-08-11T10:45:42.856Z</time>
      </trkpt>
      <trkpt lat="46.87226" lon="8.50424">
        <ele>1557</ele>
        <time>2021-08-11T10:45:43.855Z</time>
      </trkpt>
      <trkpt lat="46.87227" lon="8.50425">
        <ele>1556</ele>
        <time>2021-08-11T10:45:44.856Z</time>
      </trkpt>
      <trkpt lat="46.87228" lon="8.50426">
        <ele>1556</ele>
        <time>2021-08-11T10:45:45.856Z</time>
      </trkpt>
      <trkpt lat="46.87229" lon="8.50426">
        <ele>1556</ele>
        <time>2021-08-11T10:45:46.855Z</time>
      </trkpt>
      <trkpt lat="46.8723" lon="8.50427">
        <ele>1555</ele>
        <time>2021-08-11T10:45:47.856Z</time>
      </trkpt>
      <trkpt lat="46.87231" lon="8.50428">
        <ele>1555</ele>
        <time>2021-08-11T10:45:48.855Z</time>
      </trkpt>
      <trkpt lat="46.87232" lon="8.50428">
        <ele>1554</ele>
        <time>2021-08-11T10:45:49.856Z</time>
      </trkpt>
      <trkpt lat="46.87233" lon="8.50429">
        <ele>1554</ele>
        <time>2021-08-11T10:45:50.856Z</time>
      </trkpt>
      <trkpt lat="46.87234" lon="8.50429">
        <ele>1553</ele>
        <time>2021-08-11T10:45:51.856Z</time>
      </trkpt>
      <trkpt lat="46.87235" lon="8.5043">
        <ele>1553</ele>
        <time>2021-08-11T10:45:52.856Z</time>
      </trkpt>
      <trkpt lat="46.87236" lon="8.5043">
        <ele>1552</ele>
        <time>2021-08-11T10:45:53.855Z</time>
      </trkpt>
      <trkpt lat="46.87237" lon="8.50431">
        <ele>1552</ele>
        <time>2021-08-11T10:45:54.856Z</time>
      </trkpt>
      <trkpt lat="46.87238" lon="8.50432">
        <ele>1552</ele>
        <time>2021-08-11T10:45:55.856Z</time>
      </trkpt>
      <trkpt lat="46.8724" lon="8.50432">
        <ele>1552</ele>
        <time>2021-08-11T10:45:56.856Z</time>
      </trkpt>
      <trkpt lat="46.8724" lon="8.50432">
        <ele>1552</ele>
        <time>2021-08-11T10:45:57.855Z</time>
      </trkpt>
      <trkpt lat="46.87241" lon="8.50433">
        <ele>1552</ele>
        <time>2021-08-11T10:45:58.856Z</time>
      </trkpt>
      <trkpt lat="46.87242" lon="8.50433">
        <ele>1552</ele>
        <time>2021-08-11T10:45:59.856Z</time>
      </trkpt>
      <trkpt lat="46.87242" lon="8.50434">
        <ele>1552</ele>
        <time>2021-08-11T10:46:00.856Z</time>
      </trkpt>
      <trkpt lat="46.87243" lon="8.50435">
        <ele>1553</ele>
        <time>2021-08-11T10:46:01.856Z</time>
      </trkpt>
      <trkpt lat="46.87244" lon="8.50436">
        <ele>1553</ele>
        <time>2021-08-11T10:46:02.855Z</time>
      </trkpt>
      <trkpt lat="46.87245" lon="8.50436">
        <ele>1553</ele>
        <time>2021-08-11T10:46:03.856Z</time>
      </trkpt>
      <trkpt lat="46.87246" lon="8.50436">
        <ele>1553</ele>
        <time>2021-08-11T10:46:04.856Z</time>
      </trkpt>
      <trkpt lat="46.87247" lon="8.50436">
        <ele>1553</ele>
        <time>2021-08-11T10:46:05.856Z</time>
      </trkpt>
      <trkpt lat="46.87248" lon="8.50436">
        <ele>1552</ele>
        <time>2021-08-11T10:46:06.855Z</time>
      </trkpt>
      <trkpt lat="46.87249" lon="8.50436">
        <ele>1552</ele>
        <time>2021-08-11T10:46:07.855Z</time>
      </trkpt>
      <trkpt lat="46.8725" lon="8.50435">
        <ele>1552</ele>
        <time>2021-08-11T10:46:08.856Z</time>
      </trkpt>
      <trkpt lat="46.8725" lon="8.50436">
        <ele>1551</ele>
        <time>2021-08-11T10:46:09.856Z</time>
      </trkpt>
      <trkpt lat="46.87251" lon="8.50438">
        <ele>1551</ele>
        <time>2021-08-11T10:46:10.856Z</time>
      </trkpt>
      <trkpt lat="46.87253" lon="8.50438">
        <ele>1551</ele>
        <time>2021-08-11T10:46:11.855Z</time>
      </trkpt>
      <trkpt lat="46.87254" lon="8.50438">
        <ele>1551</ele>
        <time>2021-08-11T10:46:12.856Z</time>
      </trkpt>
      <trkpt lat="46.87257" lon="8.50437">
        <ele>1550</ele>
        <time>2021-08-11T10:46:13.856Z</time>
      </trkpt>
      <trkpt lat="46.87258" lon="8.50436">
        <ele>1550</ele>
        <time>2021-08-11T10:46:14.856Z</time>
      </trkpt>
      <trkpt lat="46.87259" lon="8.50434">
        <ele>1550</ele>
        <time>2021-08-11T10:46:15.855Z</time>
      </trkpt>
      <trkpt lat="46.8726" lon="8.50433">
        <ele>1550</ele>
        <time>2021-08-11T10:46:16.856Z</time>
      </trkpt>
      <trkpt lat="46.8726" lon="8.50431">
        <ele>1549</ele>
        <time>2021-08-11T10:46:17.856Z</time>
      </trkpt>
      <trkpt lat="46.8726" lon="8.5043">
        <ele>1549</ele>
        <time>2021-08-11T10:46:18.856Z</time>
      </trkpt>
      <trkpt lat="46.8726" lon="8.50429">
        <ele>1549</ele>
        <time>2021-08-11T10:46:19.855Z</time>
      </trkpt>
      <trkpt lat="46.8726" lon="8.50428">
        <ele>1548</ele>
        <time>2021-08-11T10:46:20.856Z</time>
      </trkpt>
      <trkpt lat="46.87261" lon="8.50427">
        <ele>1547</ele>
        <time>2021-08-11T10:46:21.856Z</time>
      </trkpt>
      <trkpt lat="46.87261" lon="8.50426">
        <ele>1547</ele>
        <time>2021-08-11T10:46:22.856Z</time>
      </trkpt>
      <trkpt lat="46.87262" lon="8.50425">
        <ele>1546</ele>
        <time>2021-08-11T10:46:23.855Z</time>
      </trkpt>
      <trkpt lat="46.87262" lon="8.50424">
        <ele>1546</ele>
        <time>2021-08-11T10:46:24.856Z</time>
      </trkpt>
      <trkpt lat="46.87262" lon="8.50422">
        <ele>1545</ele>
        <time>2021-08-11T10:46:25.856Z</time>
      </trkpt>
      <trkpt lat="46.87262" lon="8.5042">
        <ele>1545</ele>
        <time>2021-08-11T10:46:26.856Z</time>
      </trkpt>
      <trkpt lat="46.87262" lon="8.50419">
        <ele>1545</ele>
        <time>2021-08-11T10:46:27.855Z</time>
      </trkpt>
      <trkpt lat="46.87262" lon="8.50419">
        <ele>1545</ele>
        <time>2021-08-11T10:46:28.856Z</time>
      </trkpt>
      <trkpt lat="46.87263" lon="8.50418">
        <ele>1544</ele>
        <time>2021-08-11T10:46:36.871Z</time>
      </trkpt>
      <trkpt lat="46.87263" lon="8.50417">
        <ele>1543</ele>
        <time>2021-08-11T10:46:37.871Z</time>
      </trkpt>
      <trkpt lat="46.87263" lon="8.50416">
        <ele>1542</ele>
        <time>2021-08-11T10:46:38.870Z</time>
      </trkpt>
      <trkpt lat="46.87263" lon="8.50415">
        <ele>1541</ele>
        <time>2021-08-11T10:46:39.871Z</time>
      </trkpt>
      <trkpt lat="46.87263" lon="8.50415">
        <ele>1540</ele>
        <time>2021-08-11T10:46:40.871Z</time>
      </trkpt>
      <trkpt lat="46.87264" lon="8.50414">
        <ele>1539</ele>
        <time>2021-08-11T10:46:41.871Z</time>
      </trkpt>
      <trkpt lat="46.87265" lon="8.50413">
        <ele>1538</ele>
        <time>2021-08-11T10:46:42.870Z</time>
      </trkpt>
      <trkpt lat="46.87265" lon="8.50412">
        <ele>1538</ele>
        <time>2021-08-11T10:46:43.870Z</time>
      </trkpt>
      <trkpt lat="46.87266" lon="8.5041">
        <ele>1537</ele>
        <time>2021-08-11T10:46:44.870Z</time>
      </trkpt>
      <trkpt lat="46.87267" lon="8.50409">
        <ele>1537</ele>
        <time>2021-08-11T10:46:47.991Z</time>
      </trkpt>
      <trkpt lat="46.87267" lon="8.50407">
        <ele>1537</ele>
        <time>2021-08-11T10:46:48.991Z</time>
      </trkpt>
      <trkpt lat="46.87268" lon="8.50406">
        <ele>1537</ele>
        <time>2021-08-11T10:46:49.991Z</time>
      </trkpt>
      <trkpt lat="46.87269" lon="8.50405">
        <ele>1536</ele>
        <time>2021-08-11T10:46:50.991Z</time>
      </trkpt>
      <trkpt lat="46.87269" lon="8.50404">
        <ele>1535</ele>
        <time>2021-08-11T10:46:51.992Z</time>
      </trkpt>
      <trkpt lat="46.8727" lon="8.50403">
        <ele>1534</ele>
        <time>2021-08-11T10:46:52.992Z</time>
      </trkpt>
      <trkpt lat="46.8727" lon="8.50402">
        <ele>1534</ele>
        <time>2021-08-11T10:46:53.991Z</time>
      </trkpt>
      <trkpt lat="46.8727" lon="8.50401">
        <ele>1533</ele>
        <time>2021-08-11T10:46:54.991Z</time>
      </trkpt>
      <trkpt lat="46.87271" lon="8.50401">
        <ele>1532</ele>
        <time>2021-08-11T10:46:55.992Z</time>
      </trkpt>
      <trkpt lat="46.87272" lon="8.504">
        <ele>1532</ele>
        <time>2021-08-11T10:46:56.992Z</time>
      </trkpt>
      <trkpt lat="46.87273" lon="8.50398">
        <ele>1531</ele>
        <time>2021-08-11T10:46:57.992Z</time>
      </trkpt>
      <trkpt lat="46.87275" lon="8.50397">
        <ele>1531</ele>
        <time>2021-08-11T10:46:58.991Z</time>
      </trkpt>
      <trkpt lat="46.87276" lon="8.50396">
        <ele>1531</ele>
        <time>2021-08-11T10:46:59.992Z</time>
      </trkpt>
      <trkpt lat="46.87278" lon="8.50394">
        <ele>1531</ele>
        <time>2021-08-11T10:47:00.992Z</time>
      </trkpt>
      <trkpt lat="46.87278" lon="8.50393">
        <ele>1531</ele>
        <time>2021-08-11T10:47:01.992Z</time>
      </trkpt>
      <trkpt lat="46.87279" lon="8.50392">
        <ele>1531</ele>
        <time>2021-08-11T10:47:02.992Z</time>
      </trkpt>
      <trkpt lat="46.8728" lon="8.50392">
        <ele>1531</ele>
        <time>2021-08-11T10:47:03.991Z</time>
      </trkpt>
      <trkpt lat="46.8728" lon="8.50391">
        <ele>1531</ele>
        <time>2021-08-11T10:47:04.991Z</time>
      </trkpt>
      <trkpt lat="46.8728" lon="8.5039">
        <ele>1531</ele>
        <time>2021-08-11T10:47:05.991Z</time>
      </trkpt>
      <trkpt lat="46.8728" lon="8.50389">
        <ele>1531</ele>
        <time>2021-08-11T10:47:06.991Z</time>
      </trkpt>
      <trkpt lat="46.8728" lon="8.50388">
        <ele>1532</ele>
        <time>2021-08-11T10:47:07.992Z</time>
      </trkpt>
      <trkpt lat="46.8728" lon="8.50387">
        <ele>1532</ele>
        <time>2021-08-11T10:47:08.992Z</time>
      </trkpt>
      <trkpt lat="46.8728" lon="8.50385">
        <ele>1533</ele>
        <time>2021-08-11T10:47:09.992Z</time>
      </trkpt>
      <trkpt lat="46.87281" lon="8.50385">
        <ele>1533</ele>
        <time>2021-08-11T10:47:10.991Z</time>
      </trkpt>
      <trkpt lat="46.87282" lon="8.50384">
        <ele>1534</ele>
        <time>2021-08-11T10:47:11.992Z</time>
      </trkpt>
      <trkpt lat="46.87281" lon="8.50381">
        <ele>1534</ele>
        <time>2021-08-11T10:47:12.992Z</time>
      </trkpt>
      <trkpt lat="46.8728" lon="8.5038">
        <ele>1534</ele>
        <time>2021-08-11T10:47:13.992Z</time>
      </trkpt>
      <trkpt lat="46.87279" lon="8.50379">
        <ele>1534</ele>
        <time>2021-08-11T10:47:14.992Z</time>
      </trkpt>
      <trkpt lat="46.87278" lon="8.50378">
        <ele>1533</ele>
        <time>2021-08-11T10:47:15.992Z</time>
      </trkpt>
      <trkpt lat="46.87279" lon="8.50377">
        <ele>1533</ele>
        <time>2021-08-11T10:47:16.991Z</time>
      </trkpt>
      <trkpt lat="46.8728" lon="8.50376">
        <ele>1533</ele>
        <time>2021-08-11T10:47:17.992Z</time>
      </trkpt>
      <trkpt lat="46.87281" lon="8.50376">
        <ele>1532</ele>
        <time>2021-08-11T10:47:18.991Z</time>
      </trkpt>
      <trkpt lat="46.87281" lon="8.50375">
        <ele>1531</ele>
        <time>2021-08-11T10:47:19.991Z</time>
      </trkpt>
      <trkpt lat="46.87281" lon="8.50373">
        <ele>1531</ele>
        <time>2021-08-11T10:47:20.992Z</time>
      </trkpt>
      <trkpt lat="46.87282" lon="8.50372">
        <ele>1530</ele>
        <time>2021-08-11T10:47:21.991Z</time>
      </trkpt>
      <trkpt lat="46.87282" lon="8.50372">
        <ele>1531</ele>
        <time>2021-08-11T10:47:22.992Z</time>
      </trkpt>
      <trkpt lat="46.87283" lon="8.5037">
        <ele>1531</ele>
        <time>2021-08-11T10:47:23.991Z</time>
      </trkpt>
      <trkpt lat="46.87283" lon="8.50369">
        <ele>1531</ele>
        <time>2021-08-11T10:47:24.992Z</time>
      </trkpt>
      <trkpt lat="46.87283" lon="8.50367">
        <ele>1531</ele>
        <time>2021-08-11T10:47:25.992Z</time>
      </trkpt>
      <trkpt lat="46.87283" lon="8.50366">
        <ele>1531</ele>
        <time>2021-08-11T10:47:26.991Z</time>
      </trkpt>
      <trkpt lat="46.87283" lon="8.50365">
        <ele>1531</ele>
        <time>2021-08-11T10:47:27.992Z</time>
      </trkpt>
      <trkpt lat="46.87283" lon="8.50364">
        <ele>1531</ele>
        <time>2021-08-11T10:47:28.991Z</time>
      </trkpt>
      <trkpt lat="46.87284" lon="8.50363">
        <ele>1530</ele>
        <time>2021-08-11T10:47:29.992Z</time>
      </trkpt>
      <trkpt lat="46.87285" lon="8.50361">
        <ele>1530</ele>
        <time>2021-08-11T10:47:30.992Z</time>
      </trkpt>
      <trkpt lat="46.87286" lon="8.5036">
        <ele>1530</ele>
        <time>2021-08-11T10:47:31.992Z</time>
      </trkpt>
      <trkpt lat="46.87287" lon="8.50359">
        <ele>1530</ele>
        <time>2021-08-11T10:47:32.992Z</time>
      </trkpt>
      <trkpt lat="46.87288" lon="8.50358">
        <ele>1529</ele>
        <time>2021-08-11T10:47:33.992Z</time>
      </trkpt>
      <trkpt lat="46.87288" lon="8.50357">
        <ele>1529</ele>
        <time>2021-08-11T10:47:34.992Z</time>
      </trkpt>
      <trkpt lat="46.87288" lon="8.50356">
        <ele>1529</ele>
        <time>2021-08-11T10:47:35.992Z</time>
      </trkpt>
      <trkpt lat="46.87289" lon="8.50355">
        <ele>1529</ele>
        <time>2021-08-11T10:47:36.991Z</time>
      </trkpt>
      <trkpt lat="46.87289" lon="8.50354">
        <ele>1529</ele>
        <time>2021-08-11T10:47:37.992Z</time>
      </trkpt>
      <trkpt lat="46.87289" lon="8.50351">
        <ele>1529</ele>
        <time>2021-08-11T10:47:38.991Z</time>
      </trkpt>
      <trkpt lat="46.87289" lon="8.50349">
        <ele>1530</ele>
        <time>2021-08-11T10:47:39.992Z</time>
      </trkpt>
      <trkpt lat="46.87289" lon="8.50348">
        <ele>1531</ele>
        <time>2021-08-11T10:47:40.992Z</time>
      </trkpt>
      <trkpt lat="46.87289" lon="8.50346">
        <ele>1531</ele>
        <time>2021-08-11T10:47:41.992Z</time>
      </trkpt>
      <trkpt lat="46.8729" lon="8.50345">
        <ele>1532</ele>
        <time>2021-08-11T10:47:42.992Z</time>
      </trkpt>
      <trkpt lat="46.87289" lon="8.50344">
        <ele>1532</ele>
        <time>2021-08-11T10:47:43.992Z</time>
      </trkpt>
      <trkpt lat="46.8729" lon="8.50342">
        <ele>1532</ele>
        <time>2021-08-11T10:47:44.992Z</time>
      </trkpt>
      <trkpt lat="46.8729" lon="8.50341">
        <ele>1532</ele>
        <time>2021-08-11T10:47:45.992Z</time>
      </trkpt>
      <trkpt lat="46.8729" lon="8.5034">
        <ele>1533</ele>
        <time>2021-08-11T10:47:46.992Z</time>
      </trkpt>
      <trkpt lat="46.87291" lon="8.5034">
        <ele>1533</ele>
        <time>2021-08-11T10:47:47.992Z</time>
      </trkpt>
      <trkpt lat="46.87292" lon="8.50339">
        <ele>1533</ele>
        <time>2021-08-11T10:47:48.992Z</time>
      </trkpt>
      <trkpt lat="46.87292" lon="8.50338">
        <ele>1533</ele>
        <time>2021-08-11T10:47:49.991Z</time>
      </trkpt>
      <trkpt lat="46.87291" lon="8.50337">
        <ele>1533</ele>
        <time>2021-08-11T10:47:50.992Z</time>
      </trkpt>
      <trkpt lat="46.87291" lon="8.50337">
        <ele>1532</ele>
        <time>2021-08-11T10:47:51.992Z</time>
      </trkpt>
      <trkpt lat="46.8729" lon="8.50337">
        <ele>1532</ele>
        <time>2021-08-11T10:47:52.992Z</time>
      </trkpt>
      <trkpt lat="46.8729" lon="8.50337">
        <ele>1532</ele>
        <time>2021-08-11T10:47:53.992Z</time>
      </trkpt>
      <trkpt lat="46.8729" lon="8.50337">
        <ele>1531</ele>
        <time>2021-08-11T10:47:54.992Z</time>
      </trkpt>
      <trkpt lat="46.8729" lon="8.50336">
        <ele>1526</ele>
        <time>2021-08-11T10:47:55.994Z</time>
      </trkpt>
      <trkpt lat="46.8729" lon="8.50336">
        <ele>1525</ele>
        <time>2021-08-11T10:47:56.994Z</time>
      </trkpt>
      <trkpt lat="46.87291" lon="8.50335">
        <ele>1524</ele>
        <time>2021-08-11T10:47:57.993Z</time>
      </trkpt>
      <trkpt lat="46.87291" lon="8.50334">
        <ele>1523</ele>
        <time>2021-08-11T10:47:58.994Z</time>
      </trkpt>
      <trkpt lat="46.87291" lon="8.50333">
        <ele>1523</ele>
        <time>2021-08-11T10:47:59.993Z</time>
      </trkpt>
      <trkpt lat="46.8729" lon="8.50332">
        <ele>1523</ele>
        <time>2021-08-11T10:48:00.993Z</time>
      </trkpt>
      <trkpt lat="46.8729" lon="8.50331">
        <ele>1522</ele>
        <time>2021-08-11T10:48:01.994Z</time>
      </trkpt>
      <trkpt lat="46.8729" lon="8.5033">
        <ele>1522</ele>
        <time>2021-08-11T10:48:02.993Z</time>
      </trkpt>
      <trkpt lat="46.8729" lon="8.50329">
        <ele>1521</ele>
        <time>2021-08-11T10:48:03.994Z</time>
      </trkpt>
      <trkpt lat="46.87289" lon="8.50328">
        <ele>1521</ele>
        <time>2021-08-11T10:48:04.994Z</time>
      </trkpt>
      <trkpt lat="46.87289" lon="8.50327">
        <ele>1521</ele>
        <time>2021-08-11T10:48:05.994Z</time>
      </trkpt>
      <trkpt lat="46.87289" lon="8.50326">
        <ele>1521</ele>
        <time>2021-08-11T10:48:06.994Z</time>
      </trkpt>
      <trkpt lat="46.87288" lon="8.50325">
        <ele>1521</ele>
        <time>2021-08-11T10:48:07.993Z</time>
      </trkpt>
      <trkpt lat="46.87288" lon="8.50323">
        <ele>1520</ele>
        <time>2021-08-11T10:48:08.994Z</time>
      </trkpt>
      <trkpt lat="46.87288" lon="8.50322">
        <ele>1520</ele>
        <time>2021-08-11T10:48:09.993Z</time>
      </trkpt>
      <trkpt lat="46.87288" lon="8.50321">
        <ele>1520</ele>
        <time>2021-08-11T10:48:10.994Z</time>
      </trkpt>
      <trkpt lat="46.87289" lon="8.5032">
        <ele>1519</ele>
        <time>2021-08-11T10:48:11.993Z</time>
      </trkpt>
      <trkpt lat="46.87289" lon="8.5032">
        <ele>1519</ele>
        <time>2021-08-11T10:48:12.993Z</time>
      </trkpt>
      <trkpt lat="46.87288" lon="8.50319">
        <ele>1518</ele>
        <time>2021-08-11T10:48:13.994Z</time>
      </trkpt>
      <trkpt lat="46.87288" lon="8.50318">
        <ele>1518</ele>
        <time>2021-08-11T10:48:14.993Z</time>
      </trkpt>
      <trkpt lat="46.87288" lon="8.50316">
        <ele>1518</ele>
        <time>2021-08-11T10:48:15.994Z</time>
      </trkpt>
      <trkpt lat="46.87288" lon="8.50315">
        <ele>1518</ele>
        <time>2021-08-11T10:48:16.994Z</time>
      </trkpt>
      <trkpt lat="46.87289" lon="8.50313">
        <ele>1518</ele>
        <time>2021-08-11T10:48:17.994Z</time>
      </trkpt>
      <trkpt lat="46.8729" lon="8.50312">
        <ele>1518</ele>
        <time>2021-08-11T10:48:18.994Z</time>
      </trkpt>
      <trkpt lat="46.87291" lon="8.5031">
        <ele>1518</ele>
        <time>2021-08-11T10:48:19.993Z</time>
      </trkpt>
      <trkpt lat="46.87291" lon="8.50309">
        <ele>1518</ele>
        <time>2021-08-11T10:48:20.994Z</time>
      </trkpt>
      <trkpt lat="46.87292" lon="8.50307">
        <ele>1518</ele>
        <time>2021-08-11T10:48:21.994Z</time>
      </trkpt>
      <trkpt lat="46.87293" lon="8.50305">
        <ele>1517</ele>
        <time>2021-08-11T10:48:22.993Z</time>
      </trkpt>
      <trkpt lat="46.87293" lon="8.50304">
        <ele>1516</ele>
        <time>2021-08-11T10:48:23.993Z</time>
      </trkpt>
      <trkpt lat="46.87294" lon="8.50304">
        <ele>1516</ele>
        <time>2021-08-11T10:48:26.126Z</time>
      </trkpt>
      <trkpt lat="46.87294" lon="8.50304">
        <ele>1515</ele>
        <time>2021-08-11T10:48:27.126Z</time>
      </trkpt>
      <trkpt lat="46.87294" lon="8.50304">
        <ele>1515</ele>
        <time>2021-08-11T10:48:28.126Z</time>
      </trkpt>
      <trkpt lat="46.87293" lon="8.50306">
        <ele>1515</ele>
        <time>2021-08-11T10:48:29.126Z</time>
      </trkpt>
      <trkpt lat="46.87293" lon="8.50307">
        <ele>1515</ele>
        <time>2021-08-11T10:48:30.126Z</time>
      </trkpt>
      <trkpt lat="46.87293" lon="8.50308">
        <ele>1515</ele>
        <time>2021-08-11T10:48:31.126Z</time>
      </trkpt>
      <trkpt lat="46.87293" lon="8.5031">
        <ele>1515</ele>
        <time>2021-08-11T10:48:32.126Z</time>
      </trkpt>
      <trkpt lat="46.87293" lon="8.50312">
        <ele>1515</ele>
        <time>2021-08-11T10:48:33.126Z</time>
      </trkpt>
      <trkpt lat="46.87293" lon="8.50313">
        <ele>1515</ele>
        <time>2021-08-11T10:48:34.126Z</time>
      </trkpt>
      <trkpt lat="46.87293" lon="8.50315">
        <ele>1516</ele>
        <time>2021-08-11T10:48:35.126Z</time>
      </trkpt>
      <trkpt lat="46.87293" lon="8.50316">
        <ele>1516</ele>
        <time>2021-08-11T10:48:36.125Z</time>
      </trkpt>
      <trkpt lat="46.87294" lon="8.50317">
        <ele>1517</ele>
        <time>2021-08-11T10:48:37.125Z</time>
      </trkpt>
      <trkpt lat="46.87294" lon="8.50319">
        <ele>1517</ele>
        <time>2021-08-11T10:48:38.126Z</time>
      </trkpt>
      <trkpt lat="46.87295" lon="8.50319">
        <ele>1518</ele>
        <time>2021-08-11T10:48:39.126Z</time>
      </trkpt>
      <trkpt lat="46.87295" lon="8.5032">
        <ele>1518</ele>
        <time>2021-08-11T10:48:40.126Z</time>
      </trkpt>
      <trkpt lat="46.87296" lon="8.50321">
        <ele>1518</ele>
        <time>2021-08-11T10:48:41.126Z</time>
      </trkpt>
      <trkpt lat="46.87296" lon="8.50322">
        <ele>1518</ele>
        <time>2021-08-11T10:48:42.126Z</time>
      </trkpt>
      <trkpt lat="46.87297" lon="8.50323">
        <ele>1518</ele>
        <time>2021-08-11T10:48:43.126Z</time>
      </trkpt>
      <trkpt lat="46.87298" lon="8.50325">
        <ele>1518</ele>
        <time>2021-08-11T10:48:44.126Z</time>
      </trkpt>
      <trkpt lat="46.87299" lon="8.50324">
        <ele>1518</ele>
        <time>2021-08-11T10:48:45.126Z</time>
      </trkpt>
      <trkpt lat="46.87301" lon="8.50323">
        <ele>1518</ele>
        <time>2021-08-11T10:48:46.126Z</time>
      </trkpt>
      <trkpt lat="46.87302" lon="8.50321">
        <ele>1518</ele>
        <time>2021-08-11T10:48:47.126Z</time>
      </trkpt>
      <trkpt lat="46.87303" lon="8.50319">
        <ele>1519</ele>
        <time>2021-08-11T10:48:48.126Z</time>
      </trkpt>
      <trkpt lat="46.87303" lon="8.50317">
        <ele>1519</ele>
        <time>2021-08-11T10:48:49.126Z</time>
      </trkpt>
      <trkpt lat="46.87303" lon="8.50316">
        <ele>1520</ele>
        <time>2021-08-11T10:48:52.103Z</time>
      </trkpt>
      <trkpt lat="46.87302" lon="8.50315">
        <ele>1520</ele>
        <time>2021-08-11T10:48:53.104Z</time>
      </trkpt>
      <trkpt lat="46.87302" lon="8.50314">
        <ele>1520</ele>
        <time>2021-08-11T10:48:54.104Z</time>
      </trkpt>
      <trkpt lat="46.87301" lon="8.50312">
        <ele>1520</ele>
        <time>2021-08-11T10:48:55.104Z</time>
      </trkpt>
      <trkpt lat="46.87301" lon="8.50311">
        <ele>1520</ele>
        <time>2021-08-11T10:48:56.103Z</time>
      </trkpt>
      <trkpt lat="46.87301" lon="8.5031">
        <ele>1519</ele>
        <time>2021-08-11T10:48:57.104Z</time>
      </trkpt>
      <trkpt lat="46.87301" lon="8.50309">
        <ele>1518</ele>
        <time>2021-08-11T10:48:58.104Z</time>
      </trkpt>
      <trkpt lat="46.87301" lon="8.50308">
        <ele>1517</ele>
        <time>2021-08-11T10:48:59.104Z</time>
      </trkpt>
      <trkpt lat="46.87301" lon="8.50307">
        <ele>1517</ele>
        <time>2021-08-11T10:49:00.104Z</time>
      </trkpt>
      <trkpt lat="46.87301" lon="8.50306">
        <ele>1516</ele>
        <time>2021-08-11T10:49:01.103Z</time>
      </trkpt>
      <trkpt lat="46.873" lon="8.50305">
        <ele>1516</ele>
        <time>2021-08-11T10:49:02.104Z</time>
      </trkpt>
      <trkpt lat="46.873" lon="8.50303">
        <ele>1515</ele>
        <time>2021-08-11T10:49:03.104Z</time>
      </trkpt>
      <trkpt lat="46.873" lon="8.50302">
        <ele>1514</ele>
        <time>2021-08-11T10:49:04.104Z</time>
      </trkpt>
      <trkpt lat="46.873" lon="8.50301">
        <ele>1514</ele>
        <time>2021-08-11T10:49:05.103Z</time>
      </trkpt>
      <trkpt lat="46.87301" lon="8.503">
        <ele>1513</ele>
        <time>2021-08-11T10:49:06.103Z</time>
      </trkpt>
      <trkpt lat="46.87302" lon="8.50298">
        <ele>1513</ele>
        <time>2021-08-11T10:49:07.104Z</time>
      </trkpt>
      <trkpt lat="46.87302" lon="8.50297">
        <ele>1512</ele>
        <time>2021-08-11T10:49:08.103Z</time>
      </trkpt>
      <trkpt lat="46.87303" lon="8.50296">
        <ele>1512</ele>
        <time>2021-08-11T10:49:09.104Z</time>
      </trkpt>
      <trkpt lat="46.87303" lon="8.50294">
        <ele>1512</ele>
        <time>2021-08-11T10:49:10.103Z</time>
      </trkpt>
      <trkpt lat="46.87304" lon="8.50293">
        <ele>1512</ele>
        <time>2021-08-11T10:49:11.104Z</time>
      </trkpt>
      <trkpt lat="46.87304" lon="8.50292">
        <ele>1511</ele>
        <time>2021-08-11T10:49:12.104Z</time>
      </trkpt>
      <trkpt lat="46.87304" lon="8.50291">
        <ele>1511</ele>
        <time>2021-08-11T10:49:13.104Z</time>
      </trkpt>
      <trkpt lat="46.87305" lon="8.5029">
        <ele>1511</ele>
        <time>2021-08-11T10:49:14.103Z</time>
      </trkpt>
      <trkpt lat="46.87305" lon="8.50288">
        <ele>1510</ele>
        <time>2021-08-11T10:49:15.103Z</time>
      </trkpt>
      <trkpt lat="46.87305" lon="8.50287">
        <ele>1510</ele>
        <time>2021-08-11T10:49:16.104Z</time>
      </trkpt>
      <trkpt lat="46.87306" lon="8.50287">
        <ele>1510</ele>
        <time>2021-08-11T10:49:17.104Z</time>
      </trkpt>
      <trkpt lat="46.87306" lon="8.50285">
        <ele>1509</ele>
        <time>2021-08-11T10:49:18.104Z</time>
      </trkpt>
      <trkpt lat="46.87306" lon="8.50284">
        <ele>1509</ele>
        <time>2021-08-11T10:49:19.103Z</time>
      </trkpt>
      <trkpt lat="46.87307" lon="8.50283">
        <ele>1508</ele>
        <time>2021-08-11T10:49:20.104Z</time>
      </trkpt>
      <trkpt lat="46.87308" lon="8.50281">
        <ele>1508</ele>
        <time>2021-08-11T10:49:21.103Z</time>
      </trkpt>
      <trkpt lat="46.87309" lon="8.5028">
        <ele>1507</ele>
        <time>2021-08-11T10:49:22.103Z</time>
      </trkpt>
      <trkpt lat="46.8731" lon="8.50278">
        <ele>1507</ele>
        <time>2021-08-11T10:49:23.103Z</time>
      </trkpt>
      <trkpt lat="46.8731" lon="8.50277">
        <ele>1507</ele>
        <time>2021-08-11T10:49:24.104Z</time>
      </trkpt>
      <trkpt lat="46.8731" lon="8.50275">
        <ele>1507</ele>
        <time>2021-08-11T10:49:25.103Z</time>
      </trkpt>
      <trkpt lat="46.8731" lon="8.50274">
        <ele>1507</ele>
        <time>2021-08-11T10:49:26.104Z</time>
      </trkpt>
      <trkpt lat="46.87311" lon="8.50273">
        <ele>1507</ele>
        <time>2021-08-11T10:49:27.104Z</time>
      </trkpt>
      <trkpt lat="46.87311" lon="8.50272">
        <ele>1506</ele>
        <time>2021-08-11T10:49:28.104Z</time>
      </trkpt>
      <trkpt lat="46.87311" lon="8.50272">
        <ele>1505</ele>
        <time>2021-08-11T10:49:29.103Z</time>
      </trkpt>
      <trkpt lat="46.87312" lon="8.50271">
        <ele>1505</ele>
        <time>2021-08-11T10:49:30.103Z</time>
      </trkpt>
      <trkpt lat="46.87313" lon="8.50269">
        <ele>1504</ele>
        <time>2021-08-11T10:49:31.104Z</time>
      </trkpt>
      <trkpt lat="46.87314" lon="8.50268">
        <ele>1504</ele>
        <time>2021-08-11T10:49:32.104Z</time>
      </trkpt>
      <trkpt lat="46.87314" lon="8.50267">
        <ele>1504</ele>
        <time>2021-08-11T10:49:33.104Z</time>
      </trkpt>
      <trkpt lat="46.87316" lon="8.50266">
        <ele>1504</ele>
        <time>2021-08-11T10:49:34.103Z</time>
      </trkpt>
      <trkpt lat="46.87318" lon="8.50265">
        <ele>1504</ele>
        <time>2021-08-11T10:49:35.104Z</time>
      </trkpt>
      <trkpt lat="46.8732" lon="8.50265">
        <ele>1503</ele>
        <time>2021-08-11T10:49:36.104Z</time>
      </trkpt>
      <trkpt lat="46.87321" lon="8.50264">
        <ele>1503</ele>
        <time>2021-08-11T10:49:37.104Z</time>
      </trkpt>
      <trkpt lat="46.87322" lon="8.50262">
        <ele>1503</ele>
        <time>2021-08-11T10:49:38.104Z</time>
      </trkpt>
      <trkpt lat="46.87323" lon="8.50261">
        <ele>1503</ele>
        <time>2021-08-11T10:49:39.103Z</time>
      </trkpt>
      <trkpt lat="46.87324" lon="8.5026">
        <ele>1503</ele>
        <time>2021-08-11T10:49:40.104Z</time>
      </trkpt>
      <trkpt lat="46.87326" lon="8.50259">
        <ele>1504</ele>
        <time>2021-08-11T10:49:41.104Z</time>
      </trkpt>
      <trkpt lat="46.87327" lon="8.50257">
        <ele>1504</ele>
        <time>2021-08-11T10:49:42.103Z</time>
      </trkpt>
      <trkpt lat="46.87327" lon="8.50256">
        <ele>1504</ele>
        <time>2021-08-11T10:49:43.103Z</time>
      </trkpt>
      <trkpt lat="46.87328" lon="8.50254">
        <ele>1504</ele>
        <time>2021-08-11T10:49:44.104Z</time>
      </trkpt>
      <trkpt lat="46.87328" lon="8.50253">
        <ele>1504</ele>
        <time>2021-08-11T10:49:45.104Z</time>
      </trkpt>
      <trkpt lat="46.87329" lon="8.50252">
        <ele>1504</ele>
        <time>2021-08-11T10:49:46.104Z</time>
      </trkpt>
      <trkpt lat="46.8733" lon="8.5025">
        <ele>1504</ele>
        <time>2021-08-11T10:49:47.104Z</time>
      </trkpt>
      <trkpt lat="46.8733" lon="8.50249">
        <ele>1505</ele>
        <time>2021-08-11T10:49:48.103Z</time>
      </trkpt>
      <trkpt lat="46.87331" lon="8.50248">
        <ele>1505</ele>
        <time>2021-08-11T10:49:49.104Z</time>
      </trkpt>
      <trkpt lat="46.8733" lon="8.50247">
        <ele>1504</ele>
        <time>2021-08-11T10:49:50.104Z</time>
      </trkpt>
      <trkpt lat="46.8733" lon="8.50246">
        <ele>1504</ele>
        <time>2021-08-11T10:49:51.104Z</time>
      </trkpt>
      <trkpt lat="46.8733" lon="8.50244">
        <ele>1503</ele>
        <time>2021-08-11T10:49:52.103Z</time>
      </trkpt>
      <trkpt lat="46.87329" lon="8.50243">
        <ele>1503</ele>
        <time>2021-08-11T10:49:53.104Z</time>
      </trkpt>
      <trkpt lat="46.8733" lon="8.50243">
        <ele>1502</ele>
        <time>2021-08-11T10:49:54.103Z</time>
      </trkpt>
      <trkpt lat="46.8733" lon="8.50242">
        <ele>1502</ele>
        <time>2021-08-11T10:49:55.104Z</time>
      </trkpt>
      <trkpt lat="46.87331" lon="8.50242">
        <ele>1501</ele>
        <time>2021-08-11T10:49:56.104Z</time>
      </trkpt>
      <trkpt lat="46.87331" lon="8.50242">
        <ele>1500</ele>
        <time>2021-08-11T10:49:57.103Z</time>
      </trkpt>
      <trkpt lat="46.87332" lon="8.50241">
        <ele>1499</ele>
        <time>2021-08-11T10:49:58.103Z</time>
      </trkpt>
      <trkpt lat="46.87333" lon="8.5024">
        <ele>1499</ele>
        <time>2021-08-11T10:49:59.104Z</time>
      </trkpt>
      <trkpt lat="46.87334" lon="8.50239">
        <ele>1498</ele>
        <time>2021-08-11T10:50:00.104Z</time>
      </trkpt>
      <trkpt lat="46.87335" lon="8.50238">
        <ele>1498</ele>
        <time>2021-08-11T10:50:01.104Z</time>
      </trkpt>
      <trkpt lat="46.87335" lon="8.50237">
        <ele>1497</ele>
        <time>2021-08-11T10:50:02.103Z</time>
      </trkpt>
      <trkpt lat="46.87336" lon="8.50236">
        <ele>1496</ele>
        <time>2021-08-11T10:50:03.103Z</time>
      </trkpt>
      <trkpt lat="46.87337" lon="8.50236">
        <ele>1496</ele>
        <time>2021-08-11T10:50:04.104Z</time>
      </trkpt>
      <trkpt lat="46.87337" lon="8.50236">
        <ele>1495</ele>
        <time>2021-08-11T10:50:05.104Z</time>
      </trkpt>
      <trkpt lat="46.87337" lon="8.50236">
        <ele>1494</ele>
        <time>2021-08-11T10:50:06.103Z</time>
      </trkpt>
      <trkpt lat="46.87338" lon="8.50234">
        <ele>1493</ele>
        <time>2021-08-11T10:50:07.104Z</time>
      </trkpt>
      <trkpt lat="46.87338" lon="8.50233">
        <ele>1492</ele>
        <time>2021-08-11T10:50:08.104Z</time>
      </trkpt>
      <trkpt lat="46.87339" lon="8.50232">
        <ele>1491</ele>
        <time>2021-08-11T10:50:09.104Z</time>
      </trkpt>
      <trkpt lat="46.8734" lon="8.50231">
        <ele>1490</ele>
        <time>2021-08-11T10:50:10.104Z</time>
      </trkpt>
      <trkpt lat="46.87341" lon="8.50229">
        <ele>1490</ele>
        <time>2021-08-11T10:50:11.103Z</time>
      </trkpt>
      <trkpt lat="46.87342" lon="8.50228">
        <ele>1489</ele>
        <time>2021-08-11T10:50:12.104Z</time>
      </trkpt>
      <trkpt lat="46.87342" lon="8.50227">
        <ele>1489</ele>
        <time>2021-08-11T10:50:13.104Z</time>
      </trkpt>
      <trkpt lat="46.87343" lon="8.50226">
        <ele>1489</ele>
        <time>2021-08-11T10:50:14.104Z</time>
      </trkpt>
      <trkpt lat="46.87344" lon="8.50226">
        <ele>1488</ele>
        <time>2021-08-11T10:50:24.120Z</time>
      </trkpt>
      <trkpt lat="46.87345" lon="8.50224">
        <ele>1488</ele>
        <time>2021-08-11T10:50:25.120Z</time>
      </trkpt>
      <trkpt lat="46.87345" lon="8.50223">
        <ele>1488</ele>
        <time>2021-08-11T10:50:26.121Z</time>
      </trkpt>
      <trkpt lat="46.87346" lon="8.50222">
        <ele>1488</ele>
        <time>2021-08-11T10:50:27.121Z</time>
      </trkpt>
      <trkpt lat="46.87347" lon="8.50222">
        <ele>1488</ele>
        <time>2021-08-11T10:50:28.121Z</time>
      </trkpt>
      <trkpt lat="46.87348" lon="8.50221">
        <ele>1489</ele>
        <time>2021-08-11T10:50:29.120Z</time>
      </trkpt>
      <trkpt lat="46.87349" lon="8.50221">
        <ele>1489</ele>
        <time>2021-08-11T10:50:30.121Z</time>
      </trkpt>
      <trkpt lat="46.8735" lon="8.5022">
        <ele>1490</ele>
        <time>2021-08-11T10:50:31.121Z</time>
      </trkpt>
      <trkpt lat="46.8735" lon="8.50219">
        <ele>1490</ele>
        <time>2021-08-11T10:50:32.121Z</time>
      </trkpt>
      <trkpt lat="46.87351" lon="8.50218">
        <ele>1490</ele>
        <time>2021-08-11T10:50:33.120Z</time>
      </trkpt>
      <trkpt lat="46.87352" lon="8.50217">
        <ele>1489</ele>
        <time>2021-08-11T10:50:34.120Z</time>
      </trkpt>
      <trkpt lat="46.87352" lon="8.50216">
        <ele>1489</ele>
        <time>2021-08-11T10:50:43.263Z</time>
      </trkpt>
      <trkpt lat="46.87353" lon="8.50215">
        <ele>1489</ele>
        <time>2021-08-11T10:50:44.263Z</time>
      </trkpt>
      <trkpt lat="46.87354" lon="8.50214">
        <ele>1489</ele>
        <time>2021-08-11T10:50:45.263Z</time>
      </trkpt>
      <trkpt lat="46.87354" lon="8.50213">
        <ele>1489</ele>
        <time>2021-08-11T10:50:50.992Z</time>
      </trkpt>
      <trkpt lat="46.87355" lon="8.50212">
        <ele>1490</ele>
        <time>2021-08-11T10:50:51.993Z</time>
      </trkpt>
      <trkpt lat="46.87355" lon="8.50211">
        <ele>1490</ele>
        <time>2021-08-11T10:50:52.993Z</time>
      </trkpt>
      <trkpt lat="46.87356" lon="8.5021">
        <ele>1491</ele>
        <time>2021-08-11T10:50:53.993Z</time>
      </trkpt>
      <trkpt lat="46.87357" lon="8.50208">
        <ele>1491</ele>
        <time>2021-08-11T10:50:54.993Z</time>
      </trkpt>
      <trkpt lat="46.87358" lon="8.50206">
        <ele>1492</ele>
        <time>2021-08-11T10:50:55.992Z</time>
      </trkpt>
      <trkpt lat="46.87359" lon="8.50204">
        <ele>1492</ele>
        <time>2021-08-11T10:50:56.993Z</time>
      </trkpt>
      <trkpt lat="46.87361" lon="8.50203">
        <ele>1492</ele>
        <time>2021-08-11T10:50:57.993Z</time>
      </trkpt>
      <trkpt lat="46.87362" lon="8.50202">
        <ele>1492</ele>
        <time>2021-08-11T10:51:10.115Z</time>
      </trkpt>
      <trkpt lat="46.87364" lon="8.50201">
        <ele>1492</ele>
        <time>2021-08-11T10:51:11.116Z</time>
      </trkpt>
      <trkpt lat="46.87365" lon="8.502">
        <ele>1492</ele>
        <time>2021-08-11T10:51:12.116Z</time>
      </trkpt>
      <trkpt lat="46.87365" lon="8.50199">
        <ele>1491</ele>
        <time>2021-08-11T10:51:13.116Z</time>
      </trkpt>
      <trkpt lat="46.87366" lon="8.50198">
        <ele>1491</ele>
        <time>2021-08-11T10:51:14.115Z</time>
      </trkpt>
      <trkpt lat="46.87367" lon="8.50196">
        <ele>1491</ele>
        <time>2021-08-11T10:51:15.115Z</time>
      </trkpt>
      <trkpt lat="46.87367" lon="8.50195">
        <ele>1490</ele>
        <time>2021-08-11T10:51:16.116Z</time>
      </trkpt>
      <trkpt lat="46.87368" lon="8.50193">
        <ele>1490</ele>
        <time>2021-08-11T10:51:17.116Z</time>
      </trkpt>
      <trkpt lat="46.87369" lon="8.50192">
        <ele>1490</ele>
        <time>2021-08-11T10:51:18.115Z</time>
      </trkpt>
      <trkpt lat="46.8737" lon="8.50192">
        <ele>1489</ele>
        <time>2021-08-11T10:51:19.116Z</time>
      </trkpt>
      <trkpt lat="46.87371" lon="8.50192">
        <ele>1489</ele>
        <time>2021-08-11T10:51:20.116Z</time>
      </trkpt>
      <trkpt lat="46.87371" lon="8.50191">
        <ele>1488</ele>
        <time>2021-08-11T10:51:21.115Z</time>
      </trkpt>
      <trkpt lat="46.87373" lon="8.5019">
        <ele>1488</ele>
        <time>2021-08-11T10:51:22.115Z</time>
      </trkpt>
      <trkpt lat="46.87374" lon="8.50189">
        <ele>1488</ele>
        <time>2021-08-11T10:51:23.116Z</time>
      </trkpt>
      <trkpt lat="46.87375" lon="8.50188">
        <ele>1488</ele>
        <time>2021-08-11T10:51:24.116Z</time>
      </trkpt>
      <trkpt lat="46.87376" lon="8.50187">
        <ele>1488</ele>
        <time>2021-08-11T10:51:25.115Z</time>
      </trkpt>
      <trkpt lat="46.87377" lon="8.50186">
        <ele>1489</ele>
        <time>2021-08-11T10:51:26.115Z</time>
      </trkpt>
      <trkpt lat="46.87378" lon="8.50185">
        <ele>1490</ele>
        <time>2021-08-11T10:51:27.115Z</time>
      </trkpt>
      <trkpt lat="46.8738" lon="8.50183">
        <ele>1490</ele>
        <time>2021-08-11T10:51:28.115Z</time>
      </trkpt>
      <trkpt lat="46.87381" lon="8.50182">
        <ele>1491</ele>
        <time>2021-08-11T10:51:29.115Z</time>
      </trkpt>
      <trkpt lat="46.87382" lon="8.5018">
        <ele>1491</ele>
        <time>2021-08-11T10:51:30.115Z</time>
      </trkpt>
      <trkpt lat="46.87382" lon="8.50178">
        <ele>1492</ele>
        <time>2021-08-11T10:51:31.116Z</time>
      </trkpt>
      <trkpt lat="46.87382" lon="8.50177">
        <ele>1492</ele>
        <time>2021-08-11T10:51:32.115Z</time>
      </trkpt>
      <trkpt lat="46.87381" lon="8.50175">
        <ele>1493</ele>
        <time>2021-08-11T10:51:33.116Z</time>
      </trkpt>
      <trkpt lat="46.87381" lon="8.50175">
        <ele>1494</ele>
        <time>2021-08-11T10:51:34.116Z</time>
      </trkpt>
      <trkpt lat="46.87381" lon="8.50174">
        <ele>1495</ele>
        <time>2021-08-11T10:51:35.116Z</time>
      </trkpt>
      <trkpt lat="46.8738" lon="8.50174">
        <ele>1495</ele>
        <time>2021-08-11T10:51:36.115Z</time>
      </trkpt>
      <trkpt lat="46.8738" lon="8.50174">
        <ele>1496</ele>
        <time>2021-08-11T10:51:37.116Z</time>
      </trkpt>
      <trkpt lat="46.8738" lon="8.50173">
        <ele>1499</ele>
        <time>2021-08-11T10:51:38.117Z</time>
      </trkpt>
      <trkpt lat="46.8738" lon="8.50173">
        <ele>1499</ele>
        <time>2021-08-11T10:51:39.117Z</time>
      </trkpt>
      <trkpt lat="46.8738" lon="8.50172">
        <ele>1498</ele>
        <time>2021-08-11T10:51:40.116Z</time>
      </trkpt>
      <trkpt lat="46.87379" lon="8.50168">
        <ele>1497</ele>
        <time>2021-08-11T10:51:41.116Z</time>
      </trkpt>
      <trkpt lat="46.8738" lon="8.50167">
        <ele>1497</ele>
        <time>2021-08-11T10:51:42.116Z</time>
      </trkpt>
      <trkpt lat="46.8738" lon="8.50167">
        <ele>1497</ele>
        <time>2021-08-11T10:51:43.117Z</time>
      </trkpt>
      <trkpt lat="46.87381" lon="8.50167">
        <ele>1495</ele>
        <time>2021-08-11T10:51:44.118Z</time>
      </trkpt>
      <trkpt lat="46.87381" lon="8.50166">
        <ele>1495</ele>
        <time>2021-08-11T10:51:45.117Z</time>
      </trkpt>
      <trkpt lat="46.87381" lon="8.50165">
        <ele>1495</ele>
        <time>2021-08-11T10:51:46.118Z</time>
      </trkpt>
      <trkpt lat="46.87382" lon="8.50164">
        <ele>1495</ele>
        <time>2021-08-11T10:51:47.118Z</time>
      </trkpt>
      <trkpt lat="46.87382" lon="8.50164">
        <ele>1495</ele>
        <time>2021-08-11T10:51:48.117Z</time>
      </trkpt>
      <trkpt lat="46.87382" lon="8.50163">
        <ele>1495</ele>
        <time>2021-08-11T10:51:49.118Z</time>
      </trkpt>
      <trkpt lat="46.87383" lon="8.50163">
        <ele>1495</ele>
        <time>2021-08-11T10:51:50.118Z</time>
      </trkpt>
      <trkpt lat="46.87383" lon="8.50162">
        <ele>1495</ele>
        <time>2021-08-11T10:51:51.118Z</time>
      </trkpt>
      <trkpt lat="46.87384" lon="8.50161">
        <ele>1495</ele>
        <time>2021-08-11T10:51:52.118Z</time>
      </trkpt>
      <trkpt lat="46.87384" lon="8.50161">
        <ele>1495</ele>
        <time>2021-08-11T10:51:53.118Z</time>
      </trkpt>
      <trkpt lat="46.87384" lon="8.5016">
        <ele>1495</ele>
        <time>2021-08-11T10:51:54.118Z</time>
      </trkpt>
      <trkpt lat="46.87384" lon="8.50159">
        <ele>1495</ele>
        <time>2021-08-11T10:51:55.118Z</time>
      </trkpt>
      <trkpt lat="46.87385" lon="8.50159">
        <ele>1495</ele>
        <time>2021-08-11T10:51:56.118Z</time>
      </trkpt>
      <trkpt lat="46.87385" lon="8.50158">
        <ele>1495</ele>
        <time>2021-08-11T10:51:57.118Z</time>
      </trkpt>
      <trkpt lat="46.87385" lon="8.50157">
        <ele>1495</ele>
        <time>2021-08-11T10:51:58.117Z</time>
      </trkpt>
      <trkpt lat="46.87386" lon="8.50157">
        <ele>1494</ele>
        <time>2021-08-11T10:51:59.117Z</time>
      </trkpt>
      <trkpt lat="46.87386" lon="8.50157">
        <ele>1494</ele>
        <time>2021-08-11T10:52:00.118Z</time>
      </trkpt>
      <trkpt lat="46.87387" lon="8.50156">
        <ele>1494</ele>
        <time>2021-08-11T10:52:01.118Z</time>
      </trkpt>
      <trkpt lat="46.87386" lon="8.50155">
        <ele>1494</ele>
        <time>2021-08-11T10:52:02.118Z</time>
      </trkpt>
      <trkpt lat="46.87387" lon="8.50154">
        <ele>1494</ele>
        <time>2021-08-11T10:52:03.118Z</time>
      </trkpt>
      <trkpt lat="46.87387" lon="8.50153">
        <ele>1494</ele>
        <time>2021-08-11T10:52:04.118Z</time>
      </trkpt>
      <trkpt lat="46.87387" lon="8.50152">
        <ele>1494</ele>
        <time>2021-08-11T10:52:05.118Z</time>
      </trkpt>
      <trkpt lat="46.87387" lon="8.50151">
        <ele>1494</ele>
        <time>2021-08-11T10:52:06.118Z</time>
      </trkpt>
      <trkpt lat="46.87387" lon="8.5015">
        <ele>1494</ele>
        <time>2021-08-11T10:52:07.118Z</time>
      </trkpt>
      <trkpt lat="46.87388" lon="8.50149">
        <ele>1495</ele>
        <time>2021-08-11T10:52:08.117Z</time>
      </trkpt>
      <trkpt lat="46.87388" lon="8.50148">
        <ele>1495</ele>
        <time>2021-08-11T10:52:09.117Z</time>
      </trkpt>
      <trkpt lat="46.87389" lon="8.50147">
        <ele>1495</ele>
        <time>2021-08-11T10:52:10.117Z</time>
      </trkpt>
      <trkpt lat="46.87389" lon="8.50146">
        <ele>1496</ele>
        <time>2021-08-11T10:52:11.117Z</time>
      </trkpt>
      <trkpt lat="46.8739" lon="8.50145">
        <ele>1496</ele>
        <time>2021-08-11T10:52:12.118Z</time>
      </trkpt>
      <trkpt lat="46.87391" lon="8.50144">
        <ele>1496</ele>
        <time>2021-08-11T10:52:13.117Z</time>
      </trkpt>
      <trkpt lat="46.87391" lon="8.50143">
        <ele>1496</ele>
        <time>2021-08-11T10:52:14.118Z</time>
      </trkpt>
      <trkpt lat="46.87392" lon="8.50143">
        <ele>1496</ele>
        <time>2021-08-11T10:52:15.118Z</time>
      </trkpt>
      <trkpt lat="46.87394" lon="8.50143">
        <ele>1495</ele>
        <time>2021-08-11T10:52:16.117Z</time>
      </trkpt>
      <trkpt lat="46.87394" lon="8.50142">
        <ele>1495</ele>
        <time>2021-08-11T10:52:17.118Z</time>
      </trkpt>
      <trkpt lat="46.87394" lon="8.50141">
        <ele>1495</ele>
        <time>2021-08-11T10:52:18.118Z</time>
      </trkpt>
      <trkpt lat="46.87394" lon="8.5014">
        <ele>1496</ele>
        <time>2021-08-11T10:52:19.117Z</time>
      </trkpt>
      <trkpt lat="46.87395" lon="8.50139">
        <ele>1496</ele>
        <time>2021-08-11T10:52:20.118Z</time>
      </trkpt>
      <trkpt lat="46.87396" lon="8.50138">
        <ele>1496</ele>
        <time>2021-08-11T10:52:21.118Z</time>
      </trkpt>
      <trkpt lat="46.87397" lon="8.50137">
        <ele>1497</ele>
        <time>2021-08-11T10:52:22.118Z</time>
      </trkpt>
      <trkpt lat="46.87398" lon="8.50136">
        <ele>1497</ele>
        <time>2021-08-11T10:52:23.118Z</time>
      </trkpt>
      <trkpt lat="46.87398" lon="8.50135">
        <ele>1497</ele>
        <time>2021-08-11T10:52:24.117Z</time>
      </trkpt>
      <trkpt lat="46.87398" lon="8.50135">
        <ele>1498</ele>
        <time>2021-08-11T10:52:25.117Z</time>
      </trkpt>
      <trkpt lat="46.87398" lon="8.50133">
        <ele>1498</ele>
        <time>2021-08-11T10:52:26.118Z</time>
      </trkpt>
      <trkpt lat="46.87398" lon="8.50132">
        <ele>1498</ele>
        <time>2021-08-11T10:52:34.123Z</time>
      </trkpt>
      <trkpt lat="46.87398" lon="8.50131">
        <ele>1498</ele>
        <time>2021-08-11T10:52:35.123Z</time>
      </trkpt>
      <trkpt lat="46.87398" lon="8.5013">
        <ele>1498</ele>
        <time>2021-08-11T10:52:36.123Z</time>
      </trkpt>
      <trkpt lat="46.87398" lon="8.5013">
        <ele>1498</ele>
        <time>2021-08-11T10:52:43.146Z</time>
      </trkpt>
      <trkpt lat="46.87398" lon="8.50129">
        <ele>1498</ele>
        <time>2021-08-11T10:52:44.146Z</time>
      </trkpt>
      <trkpt lat="46.87397" lon="8.50129">
        <ele>1498</ele>
        <time>2021-08-11T10:52:45.871Z</time>
      </trkpt>
      <trkpt lat="46.87396" lon="8.50128">
        <ele>1497</ele>
        <time>2021-08-11T10:52:46.872Z</time>
      </trkpt>
      <trkpt lat="46.87394" lon="8.50126">
        <ele>1495</ele>
        <time>2021-08-11T10:52:47.874Z</time>
      </trkpt>
      <trkpt lat="46.87393" lon="8.50126">
        <ele>1495</ele>
        <time>2021-08-11T10:52:48.873Z</time>
      </trkpt>
      <trkpt lat="46.87393" lon="8.50126">
        <ele>1495</ele>
        <time>2021-08-11T10:52:49.873Z</time>
      </trkpt>
      <trkpt lat="46.87391" lon="8.50124">
        <ele>1496</ele>
        <time>2021-08-11T10:52:50.875Z</time>
      </trkpt>
      <trkpt lat="46.87391" lon="8.50124">
        <ele>1497</ele>
        <time>2021-08-11T10:52:51.875Z</time>
      </trkpt>
      <trkpt lat="46.87391" lon="8.50124">
        <ele>1497</ele>
        <time>2021-08-11T10:53:19.893Z</time>
      </trkpt>
      <trkpt lat="46.87392" lon="8.50123">
        <ele>1497</ele>
        <time>2021-08-11T10:53:20.892Z</time>
      </trkpt>
      <trkpt lat="46.87393" lon="8.50123">
        <ele>1498</ele>
        <time>2021-08-11T10:53:21.893Z</time>
      </trkpt>
      <trkpt lat="46.87393" lon="8.50122">
        <ele>1498</ele>
        <time>2021-08-11T10:53:22.893Z</time>
      </trkpt>
      <trkpt lat="46.87394" lon="8.50121">
        <ele>1498</ele>
        <time>2021-08-11T10:53:54.893Z</time>
      </trkpt>
      <trkpt lat="46.87394" lon="8.5012">
        <ele>1499</ele>
        <time>2021-08-11T10:53:55.893Z</time>
      </trkpt>
      <trkpt lat="46.87393" lon="8.50119">
        <ele>1499</ele>
        <time>2021-08-11T10:53:56.893Z</time>
      </trkpt>
      <trkpt lat="46.87393" lon="8.50119">
        <ele>1500</ele>
        <time>2021-08-11T10:53:57.893Z</time>
      </trkpt>
      <trkpt lat="46.87393" lon="8.50118">
        <ele>1500</ele>
        <time>2021-08-11T10:53:58.893Z</time>
      </trkpt>
      <trkpt lat="46.87393" lon="8.50117">
        <ele>1500</ele>
        <time>2021-08-11T10:54:27.870Z</time>
      </trkpt>
      <trkpt lat="46.87393" lon="8.50116">
        <ele>1500</ele>
        <time>2021-08-11T10:54:28.870Z</time>
      </trkpt>
      <trkpt lat="46.87393" lon="8.50115">
        <ele>1501</ele>
        <time>2021-08-11T10:54:29.869Z</time>
      </trkpt>
      <trkpt lat="46.87392" lon="8.50113">
        <ele>1501</ele>
        <time>2021-08-11T10:54:39.870Z</time>
      </trkpt>
      <trkpt lat="46.87392" lon="8.50113">
        <ele>1501</ele>
        <time>2021-08-11T10:54:40.869Z</time>
      </trkpt>
      <trkpt lat="46.87392" lon="8.50113">
        <ele>1502</ele>
        <time>2021-08-11T10:54:41.870Z</time>
      </trkpt>
      <trkpt lat="46.87392" lon="8.50112">
        <ele>1502</ele>
        <time>2021-08-11T10:54:42.870Z</time>
      </trkpt>
      <trkpt lat="46.87391" lon="8.50111">
        <ele>1502</ele>
        <time>2021-08-11T10:54:43.869Z</time>
      </trkpt>
      <trkpt lat="46.87391" lon="8.50109">
        <ele>1502</ele>
        <time>2021-08-11T10:54:49.889Z</time>
      </trkpt>
      <trkpt lat="46.8739" lon="8.50108">
        <ele>1502</ele>
        <time>2021-08-11T10:54:50.888Z</time>
      </trkpt>
      <trkpt lat="46.8739" lon="8.50107">
        <ele>1502</ele>
        <time>2021-08-11T10:54:56.621Z</time>
      </trkpt>
      <trkpt lat="46.8739" lon="8.50106">
        <ele>1503</ele>
        <time>2021-08-11T10:55:03.369Z</time>
      </trkpt>
      <trkpt lat="46.8739" lon="8.50105">
        <ele>1503</ele>
        <time>2021-08-11T10:55:04.368Z</time>
      </trkpt>
      <trkpt lat="46.8739" lon="8.50104">
        <ele>1503</ele>
        <time>2021-08-11T10:55:23.120Z</time>
      </trkpt>
      <trkpt lat="46.87389" lon="8.50103">
        <ele>1503</ele>
        <time>2021-08-11T10:55:24.120Z</time>
      </trkpt>
      <trkpt lat="46.8739" lon="8.50103">
        <ele>1503</ele>
        <time>2021-08-11T10:55:30.890Z</time>
      </trkpt>
      <trkpt lat="46.8739" lon="8.50102">
        <ele>1503</ele>
        <time>2021-08-11T10:55:35.611Z</time>
      </trkpt>
      <trkpt lat="46.87391" lon="8.50101">
        <ele>1503</ele>
        <time>2021-08-11T10:55:36.612Z</time>
      </trkpt>
      <trkpt lat="46.87392" lon="8.501">
        <ele>1504</ele>
        <time>2021-08-11T10:55:46.366Z</time>
      </trkpt>
      <trkpt lat="46.87393" lon="8.50099">
        <ele>1504</ele>
        <time>2021-08-11T10:56:15.117Z</time>
      </trkpt>
      <trkpt lat="46.87393" lon="8.50098">
        <ele>1505</ele>
        <time>2021-08-11T10:56:16.117Z</time>
      </trkpt>
      <trkpt lat="46.87392" lon="8.50097">
        <ele>1505</ele>
        <time>2021-08-11T10:56:38.861Z</time>
      </trkpt>
      <trkpt lat="46.87392" lon="8.50096">
        <ele>1504</ele>
        <time>2021-08-11T10:56:39.862Z</time>
      </trkpt>
      <trkpt lat="46.87392" lon="8.50096">
        <ele>1504</ele>
        <time>2021-08-11T10:56:49.737Z</time>
      </trkpt>
      <trkpt lat="46.87393" lon="8.50095">
        <ele>1504</ele>
        <time>2021-08-11T10:56:50.737Z</time>
      </trkpt>
      <trkpt lat="46.87393" lon="8.50094">
        <ele>1503</ele>
        <time>2021-08-11T10:56:51.736Z</time>
      </trkpt>
      <trkpt lat="46.87393" lon="8.50093">
        <ele>1503</ele>
        <time>2021-08-11T10:56:52.737Z</time>
      </trkpt>
      <trkpt lat="46.87393" lon="8.50091">
        <ele>1503</ele>
        <time>2021-08-11T10:56:53.737Z</time>
      </trkpt>
      <trkpt lat="46.87394" lon="8.50089">
        <ele>1504</ele>
        <time>2021-08-11T10:57:00.866Z</time>
      </trkpt>
      <trkpt lat="46.87394" lon="8.50088">
        <ele>1504</ele>
        <time>2021-08-11T10:57:01.866Z</time>
      </trkpt>
      <trkpt lat="46.87395" lon="8.50087">
        <ele>1504</ele>
        <time>2021-08-11T10:57:02.865Z</time>
      </trkpt>
      <trkpt lat="46.87395" lon="8.50086">
        <ele>1504</ele>
        <time>2021-08-11T10:57:03.866Z</time>
      </trkpt>
      <trkpt lat="46.87395" lon="8.50086">
        <ele>1504</ele>
        <time>2021-08-11T10:57:04.865Z</time>
      </trkpt>
      <trkpt lat="46.87395" lon="8.50086">
        <ele>1504</ele>
        <time>2021-08-11T10:57:05.866Z</time>
      </trkpt>
      <trkpt lat="46.87395" lon="8.50085">
        <ele>1503</ele>
        <time>2021-08-11T10:57:06.866Z</time>
      </trkpt>
      <trkpt lat="46.87394" lon="8.50083">
        <ele>1503</ele>
        <time>2021-08-11T10:57:07.865Z</time>
      </trkpt>
      <trkpt lat="46.87394" lon="8.50082">
        <ele>1503</ele>
        <time>2021-08-11T10:57:08.866Z</time>
      </trkpt>
      <trkpt lat="46.87393" lon="8.50082">
        <ele>1503</ele>
        <time>2021-08-11T10:57:09.865Z</time>
      </trkpt>
      <trkpt lat="46.87393" lon="8.50081">
        <ele>1503</ele>
        <time>2021-08-11T10:57:10.865Z</time>
      </trkpt>
      <trkpt lat="46.87393" lon="8.5008">
        <ele>1504</ele>
        <time>2021-08-11T10:57:11.866Z</time>
      </trkpt>
      <trkpt lat="46.87393" lon="8.5008">
        <ele>1504</ele>
        <time>2021-08-11T10:57:12.866Z</time>
      </trkpt>
      <trkpt lat="46.87393" lon="8.50079">
        <ele>1504</ele>
        <time>2021-08-11T10:57:20.868Z</time>
      </trkpt>
      <trkpt lat="46.87393" lon="8.50078">
        <ele>1504</ele>
        <time>2021-08-11T10:57:21.868Z</time>
      </trkpt>
      <trkpt lat="46.87393" lon="8.50077">
        <ele>1504</ele>
        <time>2021-08-11T10:57:37.614Z</time>
      </trkpt>
      <trkpt lat="46.87393" lon="8.50076">
        <ele>1504</ele>
        <time>2021-08-11T10:57:38.614Z</time>
      </trkpt>
      <trkpt lat="46.87393" lon="8.50074">
        <ele>1504</ele>
        <time>2021-08-11T10:57:49.365Z</time>
      </trkpt>
      <trkpt lat="46.87393" lon="8.50073">
        <ele>1504</ele>
        <time>2021-08-11T10:57:56.243Z</time>
      </trkpt>
      <trkpt lat="46.87393" lon="8.50072">
        <ele>1505</ele>
        <time>2021-08-11T10:57:57.243Z</time>
      </trkpt>
      <trkpt lat="46.87394" lon="8.50071">
        <ele>1505</ele>
        <time>2021-08-11T10:57:58.243Z</time>
      </trkpt>
      <trkpt lat="46.87394" lon="8.50071">
        <ele>1506</ele>
        <time>2021-08-11T10:58:02.367Z</time>
      </trkpt>
      <trkpt lat="46.87393" lon="8.5007">
        <ele>1506</ele>
        <time>2021-08-11T10:58:03.367Z</time>
      </trkpt>
      <trkpt lat="46.87393" lon="8.5007">
        <ele>1506</ele>
        <time>2021-08-11T10:58:04.366Z</time>
      </trkpt>
      <trkpt lat="46.87394" lon="8.50069">
        <ele>1506</ele>
        <time>2021-08-11T10:58:05.367Z</time>
      </trkpt>
      <trkpt lat="46.87393" lon="8.50068">
        <ele>1507</ele>
        <time>2021-08-11T10:58:17.511Z</time>
      </trkpt>
      <trkpt lat="46.87394" lon="8.50067">
        <ele>1507</ele>
        <time>2021-08-11T10:58:18.511Z</time>
      </trkpt>
      <trkpt lat="46.87394" lon="8.50066">
        <ele>1507</ele>
        <time>2021-08-11T10:58:19.512Z</time>
      </trkpt>
      <trkpt lat="46.87394" lon="8.50065">
        <ele>1507</ele>
        <time>2021-08-11T10:58:20.512Z</time>
      </trkpt>
      <trkpt lat="46.87393" lon="8.50065">
        <ele>1506</ele>
        <time>2021-08-11T10:58:21.511Z</time>
      </trkpt>
      <trkpt lat="46.87393" lon="8.50064">
        <ele>1506</ele>
        <time>2021-08-11T10:58:22.512Z</time>
      </trkpt>
      <trkpt lat="46.87392" lon="8.50063">
        <ele>1506</ele>
        <time>2021-08-11T10:58:23.512Z</time>
      </trkpt>
      <trkpt lat="46.87392" lon="8.50062">
        <ele>1506</ele>
        <time>2021-08-11T10:58:24.512Z</time>
      </trkpt>
      <trkpt lat="46.87392" lon="8.50061">
        <ele>1506</ele>
        <time>2021-08-11T10:58:25.512Z</time>
      </trkpt>
      <trkpt lat="46.87393" lon="8.5006">
        <ele>1506</ele>
        <time>2021-08-11T10:58:26.512Z</time>
      </trkpt>
      <trkpt lat="46.87393" lon="8.5006">
        <ele>1507</ele>
        <time>2021-08-11T10:58:27.512Z</time>
      </trkpt>
      <trkpt lat="46.87393" lon="8.50058">
        <ele>1507</ele>
        <time>2021-08-11T10:58:28.511Z</time>
      </trkpt>
      <trkpt lat="46.87394" lon="8.50057">
        <ele>1507</ele>
        <time>2021-08-11T10:58:29.511Z</time>
      </trkpt>
      <trkpt lat="46.87394" lon="8.50056">
        <ele>1507</ele>
        <time>2021-08-11T10:58:30.512Z</time>
      </trkpt>
      <trkpt lat="46.87394" lon="8.50055">
        <ele>1507</ele>
        <time>2021-08-11T10:58:31.512Z</time>
      </trkpt>
      <trkpt lat="46.87394" lon="8.50054">
        <ele>1508</ele>
        <time>2021-08-11T10:58:32.512Z</time>
      </trkpt>
      <trkpt lat="46.87394" lon="8.50053">
        <ele>1508</ele>
        <time>2021-08-11T10:58:33.512Z</time>
      </trkpt>
      <trkpt lat="46.87394" lon="8.50052">
        <ele>1508</ele>
        <time>2021-08-11T10:58:34.511Z</time>
      </trkpt>
      <trkpt lat="46.87394" lon="8.50051">
        <ele>1509</ele>
        <time>2021-08-11T10:58:35.512Z</time>
      </trkpt>
      <trkpt lat="46.87394" lon="8.50051">
        <ele>1509</ele>
        <time>2021-08-11T10:58:36.512Z</time>
      </trkpt>
      <trkpt lat="46.87394" lon="8.5005">
        <ele>1509</ele>
        <time>2021-08-11T10:58:37.512Z</time>
      </trkpt>
      <trkpt lat="46.87394" lon="8.50049">
        <ele>1509</ele>
        <time>2021-08-11T10:58:38.512Z</time>
      </trkpt>
      <trkpt lat="46.87393" lon="8.50048">
        <ele>1509</ele>
        <time>2021-08-11T10:58:39.512Z</time>
      </trkpt>
      <trkpt lat="46.87394" lon="8.50048">
        <ele>1509</ele>
        <time>2021-08-11T10:58:40.512Z</time>
      </trkpt>
      <trkpt lat="46.87394" lon="8.50047">
        <ele>1509</ele>
        <time>2021-08-11T10:58:41.512Z</time>
      </trkpt>
      <trkpt lat="46.87393" lon="8.50046">
        <ele>1509</ele>
        <time>2021-08-11T10:58:42.512Z</time>
      </trkpt>
      <trkpt lat="46.87393" lon="8.50046">
        <ele>1509</ele>
        <time>2021-08-11T10:58:43.512Z</time>
      </trkpt>
      <trkpt lat="46.87392" lon="8.50045">
        <ele>1510</ele>
        <time>2021-08-11T10:58:44.512Z</time>
      </trkpt>
      <trkpt lat="46.87392" lon="8.50045">
        <ele>1510</ele>
        <time>2021-08-11T10:58:45.512Z</time>
      </trkpt>
      <trkpt lat="46.87393" lon="8.50044">
        <ele>1511</ele>
        <time>2021-08-11T10:58:46.512Z</time>
      </trkpt>
      <trkpt lat="46.87393" lon="8.50044">
        <ele>1511</ele>
        <time>2021-08-11T10:58:47.512Z</time>
      </trkpt>
      <trkpt lat="46.87393" lon="8.50043">
        <ele>1511</ele>
        <time>2021-08-11T10:58:48.511Z</time>
      </trkpt>
      <trkpt lat="46.87393" lon="8.50042">
        <ele>1511</ele>
        <time>2021-08-11T10:58:49.512Z</time>
      </trkpt>
      <trkpt lat="46.87393" lon="8.50041">
        <ele>1511</ele>
        <time>2021-08-11T10:58:50.512Z</time>
      </trkpt>
      <trkpt lat="46.87391" lon="8.50041">
        <ele>1511</ele>
        <time>2021-08-11T10:58:51.512Z</time>
      </trkpt>
      <trkpt lat="46.87391" lon="8.5004">
        <ele>1511</ele>
        <time>2021-08-11T10:58:52.512Z</time>
      </trkpt>
      <trkpt lat="46.87389" lon="8.50042">
        <ele>1511</ele>
        <time>2021-08-11T10:58:53.512Z</time>
      </trkpt>
      <trkpt lat="46.87389" lon="8.50042">
        <ele>1510</ele>
        <time>2021-08-11T10:58:54.512Z</time>
      </trkpt>
      <trkpt lat="46.87388" lon="8.50042">
        <ele>1510</ele>
        <time>2021-08-11T10:58:55.512Z</time>
      </trkpt>
      <trkpt lat="46.87385" lon="8.50042">
        <ele>1507</ele>
        <time>2021-08-11T10:58:56.512Z</time>
      </trkpt>
      <trkpt lat="46.87387" lon="8.50042">
        <ele>1507</ele>
        <time>2021-08-11T10:58:57.513Z</time>
      </trkpt>
      <trkpt lat="46.87387" lon="8.50042">
        <ele>1507</ele>
        <time>2021-08-11T10:58:58.513Z</time>
      </trkpt>
      <trkpt lat="46.87387" lon="8.50042">
        <ele>1508</ele>
        <time>2021-08-11T10:58:59.512Z</time>
      </trkpt>
      <trkpt lat="46.87389" lon="8.50039">
        <ele>1514</ele>
        <time>2021-08-11T10:59:00.512Z</time>
      </trkpt>
      <trkpt lat="46.87389" lon="8.50038">
        <ele>1514</ele>
        <time>2021-08-11T10:59:01.513Z</time>
      </trkpt>
      <trkpt lat="46.8739" lon="8.50037">
        <ele>1514</ele>
        <time>2021-08-11T10:59:02.512Z</time>
      </trkpt>
      <trkpt lat="46.8739" lon="8.50037">
        <ele>1514</ele>
        <time>2021-08-11T10:59:03.512Z</time>
      </trkpt>
      <trkpt lat="46.8739" lon="8.50036">
        <ele>1515</ele>
        <time>2021-08-11T10:59:09.657Z</time>
      </trkpt>
      <trkpt lat="46.8739" lon="8.50036">
        <ele>1515</ele>
        <time>2021-08-11T10:59:10.657Z</time>
      </trkpt>
      <trkpt lat="46.8739" lon="8.50035">
        <ele>1515</ele>
        <time>2021-08-11T10:59:11.657Z</time>
      </trkpt>
      <trkpt lat="46.8739" lon="8.50035">
        <ele>1514</ele>
        <time>2021-08-11T10:59:12.657Z</time>
      </trkpt>
      <trkpt lat="46.87391" lon="8.50034">
        <ele>1514</ele>
        <time>2021-08-11T10:59:13.656Z</time>
      </trkpt>
      <trkpt lat="46.87391" lon="8.50033">
        <ele>1514</ele>
        <time>2021-08-11T10:59:14.657Z</time>
      </trkpt>
      <trkpt lat="46.87391" lon="8.50033">
        <ele>1514</ele>
        <time>2021-08-11T10:59:15.657Z</time>
      </trkpt>
      <trkpt lat="46.87391" lon="8.50032">
        <ele>1514</ele>
        <time>2021-08-11T10:59:16.657Z</time>
      </trkpt>
      <trkpt lat="46.87391" lon="8.50031">
        <ele>1514</ele>
        <time>2021-08-11T10:59:17.656Z</time>
      </trkpt>
      <trkpt lat="46.8739" lon="8.50029">
        <ele>1514</ele>
        <time>2021-08-11T10:59:18.656Z</time>
      </trkpt>
      <trkpt lat="46.8739" lon="8.50027">
        <ele>1514</ele>
        <time>2021-08-11T10:59:19.656Z</time>
      </trkpt>
      <trkpt lat="46.8739" lon="8.50026">
        <ele>1514</ele>
        <time>2021-08-11T10:59:20.657Z</time>
      </trkpt>
      <trkpt lat="46.87391" lon="8.50025">
        <ele>1513</ele>
        <time>2021-08-11T10:59:21.657Z</time>
      </trkpt>
      <trkpt lat="46.87392" lon="8.50025">
        <ele>1513</ele>
        <time>2021-08-11T10:59:22.657Z</time>
      </trkpt>
      <trkpt lat="46.87393" lon="8.50024">
        <ele>1513</ele>
        <time>2021-08-11T10:59:23.656Z</time>
      </trkpt>
      <trkpt lat="46.87393" lon="8.50023">
        <ele>1513</ele>
        <time>2021-08-11T10:59:24.656Z</time>
      </trkpt>
      <trkpt lat="46.87393" lon="8.50022">
        <ele>1513</ele>
        <time>2021-08-11T10:59:25.657Z</time>
      </trkpt>
      <trkpt lat="46.87393" lon="8.50021">
        <ele>1512</ele>
        <time>2021-08-11T10:59:26.656Z</time>
      </trkpt>
      <trkpt lat="46.87393" lon="8.5002">
        <ele>1512</ele>
        <time>2021-08-11T10:59:27.657Z</time>
      </trkpt>
      <trkpt lat="46.87394" lon="8.50018">
        <ele>1512</ele>
        <time>2021-08-11T10:59:28.657Z</time>
      </trkpt>
      <trkpt lat="46.87394" lon="8.50017">
        <ele>1512</ele>
        <time>2021-08-11T10:59:29.656Z</time>
      </trkpt>
      <trkpt lat="46.87395" lon="8.50017">
        <ele>1512</ele>
        <time>2021-08-11T10:59:30.656Z</time>
      </trkpt>
      <trkpt lat="46.87395" lon="8.50016">
        <ele>1512</ele>
        <time>2021-08-11T10:59:31.656Z</time>
      </trkpt>
      <trkpt lat="46.87395" lon="8.50015">
        <ele>1513</ele>
        <time>2021-08-11T10:59:32.657Z</time>
      </trkpt>
      <trkpt lat="46.87394" lon="8.50014">
        <ele>1512</ele>
        <time>2021-08-11T10:59:33.657Z</time>
      </trkpt>
      <trkpt lat="46.87394" lon="8.50014">
        <ele>1512</ele>
        <time>2021-08-11T10:59:34.657Z</time>
      </trkpt>
      <trkpt lat="46.87394" lon="8.50013">
        <ele>1512</ele>
        <time>2021-08-11T10:59:35.657Z</time>
      </trkpt>
      <trkpt lat="46.87394" lon="8.50012">
        <ele>1512</ele>
        <time>2021-08-11T10:59:36.656Z</time>
      </trkpt>
      <trkpt lat="46.87394" lon="8.50011">
        <ele>1512</ele>
        <time>2021-08-11T10:59:37.657Z</time>
      </trkpt>
      <trkpt lat="46.87395" lon="8.5001">
        <ele>1512</ele>
        <time>2021-08-11T10:59:38.656Z</time>
      </trkpt>
      <trkpt lat="46.87395" lon="8.5001">
        <ele>1512</ele>
        <time>2021-08-11T10:59:39.657Z</time>
      </trkpt>
      <trkpt lat="46.87395" lon="8.50009">
        <ele>1513</ele>
        <time>2021-08-11T10:59:40.657Z</time>
      </trkpt>
      <trkpt lat="46.87395" lon="8.50009">
        <ele>1513</ele>
        <time>2021-08-11T10:59:41.657Z</time>
      </trkpt>
      <trkpt lat="46.87395" lon="8.50008">
        <ele>1514</ele>
        <time>2021-08-11T10:59:42.657Z</time>
      </trkpt>
      <trkpt lat="46.87396" lon="8.50007">
        <ele>1514</ele>
        <time>2021-08-11T10:59:43.656Z</time>
      </trkpt>
      <trkpt lat="46.87395" lon="8.50007">
        <ele>1514</ele>
        <time>2021-08-11T10:59:44.656Z</time>
      </trkpt>
      <trkpt lat="46.87395" lon="8.50006">
        <ele>1514</ele>
        <time>2021-08-11T10:59:45.657Z</time>
      </trkpt>
      <trkpt lat="46.87395" lon="8.50005">
        <ele>1514</ele>
        <time>2021-08-11T10:59:46.657Z</time>
      </trkpt>
      <trkpt lat="46.87395" lon="8.50004">
        <ele>1514</ele>
        <time>2021-08-11T10:59:47.657Z</time>
      </trkpt>
      <trkpt lat="46.87395" lon="8.50004">
        <ele>1514</ele>
        <time>2021-08-11T10:59:48.657Z</time>
      </trkpt>
      <trkpt lat="46.87395" lon="8.50003">
        <ele>1514</ele>
        <time>2021-08-11T10:59:49.657Z</time>
      </trkpt>
      <trkpt lat="46.87395" lon="8.50003">
        <ele>1514</ele>
        <time>2021-08-11T10:59:50.657Z</time>
      </trkpt>
      <trkpt lat="46.87395" lon="8.50001">
        <ele>1514</ele>
        <time>2021-08-11T10:59:51.657Z</time>
      </trkpt>
      <trkpt lat="46.87395" lon="8.50001">
        <ele>1514</ele>
        <time>2021-08-11T10:59:52.657Z</time>
      </trkpt>
      <trkpt lat="46.87394" lon="8.5">
        <ele>1514</ele>
        <time>2021-08-11T10:59:53.657Z</time>
      </trkpt>
      <trkpt lat="46.87394" lon="8.49999">
        <ele>1514</ele>
        <time>2021-08-11T10:59:54.656Z</time>
      </trkpt>
      <trkpt lat="46.87394" lon="8.49998">
        <ele>1513</ele>
        <time>2021-08-11T10:59:55.657Z</time>
      </trkpt>
      <trkpt lat="46.87394" lon="8.49997">
        <ele>1513</ele>
        <time>2021-08-11T10:59:56.657Z</time>
      </trkpt>
      <trkpt lat="46.87394" lon="8.49996">
        <ele>1513</ele>
        <time>2021-08-11T10:59:57.656Z</time>
      </trkpt>
      <trkpt lat="46.87395" lon="8.49995">
        <ele>1514</ele>
        <time>2021-08-11T10:59:58.656Z</time>
      </trkpt>
      <trkpt lat="46.87395" lon="8.49994">
        <ele>1514</ele>
        <time>2021-08-11T10:59:59.657Z</time>
      </trkpt>
      <trkpt lat="46.87395" lon="8.49993">
        <ele>1515</ele>
        <time>2021-08-11T11:00:00.657Z</time>
      </trkpt>
      <trkpt lat="46.87395" lon="8.49992">
        <ele>1515</ele>
        <time>2021-08-11T11:00:01.657Z</time>
      </trkpt>
      <trkpt lat="46.87395" lon="8.49991">
        <ele>1515</ele>
        <time>2021-08-11T11:00:02.657Z</time>
      </trkpt>
      <trkpt lat="46.87395" lon="8.4999">
        <ele>1515</ele>
        <time>2021-08-11T11:00:03.657Z</time>
      </trkpt>
      <trkpt lat="46.87396" lon="8.49989">
        <ele>1516</ele>
        <time>2021-08-11T11:00:04.657Z</time>
      </trkpt>
      <trkpt lat="46.87396" lon="8.49988">
        <ele>1516</ele>
        <time>2021-08-11T11:00:05.656Z</time>
      </trkpt>
      <trkpt lat="46.87396" lon="8.49987">
        <ele>1517</ele>
        <time>2021-08-11T11:00:06.657Z</time>
      </trkpt>
      <trkpt lat="46.87397" lon="8.49986">
        <ele>1518</ele>
        <time>2021-08-11T11:00:07.657Z</time>
      </trkpt>
      <trkpt lat="46.87397" lon="8.49985">
        <ele>1519</ele>
        <time>2021-08-11T11:00:08.657Z</time>
      </trkpt>
      <trkpt lat="46.87397" lon="8.49984">
        <ele>1519</ele>
        <time>2021-08-11T11:00:09.657Z</time>
      </trkpt>
      <trkpt lat="46.87398" lon="8.49983">
        <ele>1520</ele>
        <time>2021-08-11T11:00:10.656Z</time>
      </trkpt>
      <trkpt lat="46.87398" lon="8.49982">
        <ele>1520</ele>
        <time>2021-08-11T11:00:11.656Z</time>
      </trkpt>
      <trkpt lat="46.87398" lon="8.49981">
        <ele>1520</ele>
        <time>2021-08-11T11:00:12.657Z</time>
      </trkpt>
      <trkpt lat="46.87398" lon="8.4998">
        <ele>1520</ele>
        <time>2021-08-11T11:00:13.656Z</time>
      </trkpt>
      <trkpt lat="46.87398" lon="8.4998">
        <ele>1520</ele>
        <time>2021-08-11T11:00:14.656Z</time>
      </trkpt>
      <trkpt lat="46.87399" lon="8.49978">
        <ele>1520</ele>
        <time>2021-08-11T11:00:15.657Z</time>
      </trkpt>
      <trkpt lat="46.87399" lon="8.49978">
        <ele>1520</ele>
        <time>2021-08-11T11:00:16.657Z</time>
      </trkpt>
      <trkpt lat="46.87399" lon="8.49977">
        <ele>1520</ele>
        <time>2021-08-11T11:00:17.657Z</time>
      </trkpt>
      <trkpt lat="46.874" lon="8.49976">
        <ele>1520</ele>
        <time>2021-08-11T11:00:18.656Z</time>
      </trkpt>
      <trkpt lat="46.87401" lon="8.49975">
        <ele>1520</ele>
        <time>2021-08-11T11:00:19.657Z</time>
      </trkpt>
      <trkpt lat="46.87401" lon="8.49974">
        <ele>1520</ele>
        <time>2021-08-11T11:00:20.657Z</time>
      </trkpt>
      <trkpt lat="46.87401" lon="8.49973">
        <ele>1520</ele>
        <time>2021-08-11T11:00:21.657Z</time>
      </trkpt>
      <trkpt lat="46.87401" lon="8.49973">
        <ele>1520</ele>
        <time>2021-08-11T11:00:22.657Z</time>
      </trkpt>
      <trkpt lat="46.874" lon="8.49972">
        <ele>1520</ele>
        <time>2021-08-11T11:00:23.657Z</time>
      </trkpt>
      <trkpt lat="46.874" lon="8.49972">
        <ele>1520</ele>
        <time>2021-08-11T11:00:24.657Z</time>
      </trkpt>
      <trkpt lat="46.87401" lon="8.49971">
        <ele>1520</ele>
        <time>2021-08-11T11:00:25.656Z</time>
      </trkpt>
      <trkpt lat="46.87401" lon="8.4997">
        <ele>1520</ele>
        <time>2021-08-11T11:00:26.657Z</time>
      </trkpt>
      <trkpt lat="46.87401" lon="8.49969">
        <ele>1521</ele>
        <time>2021-08-11T11:00:27.657Z</time>
      </trkpt>
      <trkpt lat="46.87402" lon="8.49968">
        <ele>1521</ele>
        <time>2021-08-11T11:00:28.656Z</time>
      </trkpt>
      <trkpt lat="46.87402" lon="8.49967">
        <ele>1521</ele>
        <time>2021-08-11T11:00:29.657Z</time>
      </trkpt>
      <trkpt lat="46.87403" lon="8.49966">
        <ele>1521</ele>
        <time>2021-08-11T11:00:30.657Z</time>
      </trkpt>
      <trkpt lat="46.87404" lon="8.49965">
        <ele>1521</ele>
        <time>2021-08-11T11:00:31.657Z</time>
      </trkpt>
      <trkpt lat="46.87404" lon="8.49965">
        <ele>1522</ele>
        <time>2021-08-11T11:00:32.657Z</time>
      </trkpt>
      <trkpt lat="46.87404" lon="8.49964">
        <ele>1522</ele>
        <time>2021-08-11T11:00:33.656Z</time>
      </trkpt>
      <trkpt lat="46.87406" lon="8.49962">
        <ele>1523</ele>
        <time>2021-08-11T11:00:34.657Z</time>
      </trkpt>
      <trkpt lat="46.87406" lon="8.4996">
        <ele>1523</ele>
        <time>2021-08-11T11:00:35.657Z</time>
      </trkpt>
      <trkpt lat="46.87406" lon="8.4996">
        <ele>1524</ele>
        <time>2021-08-11T11:00:36.657Z</time>
      </trkpt>
      <trkpt lat="46.87406" lon="8.49959">
        <ele>1524</ele>
        <time>2021-08-11T11:00:37.657Z</time>
      </trkpt>
      <trkpt lat="46.87405" lon="8.49958">
        <ele>1524</ele>
        <time>2021-08-11T11:00:38.656Z</time>
      </trkpt>
      <trkpt lat="46.87406" lon="8.49957">
        <ele>1523</ele>
        <time>2021-08-11T11:00:39.657Z</time>
      </trkpt>
      <trkpt lat="46.87406" lon="8.49955">
        <ele>1524</ele>
        <time>2021-08-11T11:00:40.657Z</time>
      </trkpt>
      <trkpt lat="46.87405" lon="8.49954">
        <ele>1524</ele>
        <time>2021-08-11T11:00:41.656Z</time>
      </trkpt>
      <trkpt lat="46.87406" lon="8.49953">
        <ele>1524</ele>
        <time>2021-08-11T11:00:42.657Z</time>
      </trkpt>
      <trkpt lat="46.87406" lon="8.49953">
        <ele>1524</ele>
        <time>2021-08-11T11:00:43.657Z</time>
      </trkpt>
      <trkpt lat="46.87407" lon="8.49953">
        <ele>1524</ele>
        <time>2021-08-11T11:00:44.656Z</time>
      </trkpt>
      <trkpt lat="46.87407" lon="8.49951">
        <ele>1524</ele>
        <time>2021-08-11T11:00:45.657Z</time>
      </trkpt>
      <trkpt lat="46.87407" lon="8.4995">
        <ele>1524</ele>
        <time>2021-08-11T11:00:46.657Z</time>
      </trkpt>
      <trkpt lat="46.87408" lon="8.49949">
        <ele>1524</ele>
        <time>2021-08-11T11:00:47.657Z</time>
      </trkpt>
      <trkpt lat="46.87408" lon="8.49948">
        <ele>1525</ele>
        <time>2021-08-11T11:00:48.657Z</time>
      </trkpt>
      <trkpt lat="46.87408" lon="8.49947">
        <ele>1525</ele>
        <time>2021-08-11T11:00:49.656Z</time>
      </trkpt>
      <trkpt lat="46.87408" lon="8.49946">
        <ele>1525</ele>
        <time>2021-08-11T11:00:50.657Z</time>
      </trkpt>
      <trkpt lat="46.87408" lon="8.49945">
        <ele>1526</ele>
        <time>2021-08-11T11:00:51.656Z</time>
      </trkpt>
      <trkpt lat="46.87409" lon="8.49944">
        <ele>1526</ele>
        <time>2021-08-11T11:00:52.656Z</time>
      </trkpt>
      <trkpt lat="46.87408" lon="8.49944">
        <ele>1526</ele>
        <time>2021-08-11T11:00:53.656Z</time>
      </trkpt>
      <trkpt lat="46.87408" lon="8.49943">
        <ele>1527</ele>
        <time>2021-08-11T11:00:54.656Z</time>
      </trkpt>
      <trkpt lat="46.87408" lon="8.49942">
        <ele>1527</ele>
        <time>2021-08-11T11:00:55.656Z</time>
      </trkpt>
      <trkpt lat="46.87409" lon="8.49941">
        <ele>1528</ele>
        <time>2021-08-11T11:00:56.656Z</time>
      </trkpt>
      <trkpt lat="46.87409" lon="8.49939">
        <ele>1528</ele>
        <time>2021-08-11T11:01:47.739Z</time>
      </trkpt>
      <trkpt lat="46.87409" lon="8.49938">
        <ele>1529</ele>
        <time>2021-08-11T11:01:48.739Z</time>
      </trkpt>
      <trkpt lat="46.87409" lon="8.49937">
        <ele>1528</ele>
        <time>2021-08-11T11:01:54.489Z</time>
      </trkpt>
      <trkpt lat="46.8741" lon="8.49936">
        <ele>1528</ele>
        <time>2021-08-11T11:01:55.490Z</time>
      </trkpt>
      <trkpt lat="46.8741" lon="8.49935">
        <ele>1528</ele>
        <time>2021-08-11T11:01:56.490Z</time>
      </trkpt>
      <trkpt lat="46.87409" lon="8.49934">
        <ele>1527</ele>
        <time>2021-08-11T11:01:57.489Z</time>
      </trkpt>
      <trkpt lat="46.8741" lon="8.49932">
        <ele>1527</ele>
        <time>2021-08-11T11:01:58.490Z</time>
      </trkpt>
      <trkpt lat="46.8741" lon="8.49931">
        <ele>1527</ele>
        <time>2021-08-11T11:02:01.597Z</time>
      </trkpt>
      <trkpt lat="46.87409" lon="8.4993">
        <ele>1527</ele>
        <time>2021-08-11T11:02:02.597Z</time>
      </trkpt>
      <trkpt lat="46.87409" lon="8.4993">
        <ele>1527</ele>
        <time>2021-08-11T11:02:03.598Z</time>
      </trkpt>
      <trkpt lat="46.87409" lon="8.49928">
        <ele>1527</ele>
        <time>2021-08-11T11:02:04.598Z</time>
      </trkpt>
      <trkpt lat="46.87408" lon="8.49927">
        <ele>1527</ele>
        <time>2021-08-11T11:02:05.598Z</time>
      </trkpt>
      <trkpt lat="46.87409" lon="8.49927">
        <ele>1527</ele>
        <time>2021-08-11T11:02:06.597Z</time>
      </trkpt>
      <trkpt lat="46.87409" lon="8.49926">
        <ele>1527</ele>
        <time>2021-08-11T11:02:07.598Z</time>
      </trkpt>
      <trkpt lat="46.8741" lon="8.49924">
        <ele>1527</ele>
        <time>2021-08-11T11:02:08.597Z</time>
      </trkpt>
      <trkpt lat="46.87411" lon="8.49923">
        <ele>1528</ele>
        <time>2021-08-11T11:02:09.598Z</time>
      </trkpt>
      <trkpt lat="46.87411" lon="8.49922">
        <ele>1528</ele>
        <time>2021-08-11T11:02:10.597Z</time>
      </trkpt>
      <trkpt lat="46.87411" lon="8.49921">
        <ele>1528</ele>
        <time>2021-08-11T11:02:12.616Z</time>
      </trkpt>
      <trkpt lat="46.87411" lon="8.4992">
        <ele>1529</ele>
        <time>2021-08-11T11:02:22.365Z</time>
      </trkpt>
      <trkpt lat="46.87412" lon="8.49919">
        <ele>1529</ele>
        <time>2021-08-11T11:02:23.365Z</time>
      </trkpt>
      <trkpt lat="46.87412" lon="8.49918">
        <ele>1529</ele>
        <time>2021-08-11T11:02:24.366Z</time>
      </trkpt>
      <trkpt lat="46.87412" lon="8.49917">
        <ele>1529</ele>
        <time>2021-08-11T11:02:29.491Z</time>
      </trkpt>
      <trkpt lat="46.87413" lon="8.49915">
        <ele>1529</ele>
        <time>2021-08-11T11:02:30.491Z</time>
      </trkpt>
      <trkpt lat="46.87413" lon="8.49915">
        <ele>1529</ele>
        <time>2021-08-11T11:02:31.490Z</time>
      </trkpt>
      <trkpt lat="46.87413" lon="8.49914">
        <ele>1529</ele>
        <time>2021-08-11T11:02:32.491Z</time>
      </trkpt>
      <trkpt lat="46.87414" lon="8.49913">
        <ele>1529</ele>
        <time>2021-08-11T11:02:33.491Z</time>
      </trkpt>
      <trkpt lat="46.87414" lon="8.49912">
        <ele>1530</ele>
        <time>2021-08-11T11:02:34.491Z</time>
      </trkpt>
      <trkpt lat="46.87415" lon="8.49911">
        <ele>1530</ele>
        <time>2021-08-11T11:02:35.491Z</time>
      </trkpt>
      <trkpt lat="46.87415" lon="8.4991">
        <ele>1530</ele>
        <time>2021-08-11T11:02:36.490Z</time>
      </trkpt>
      <trkpt lat="46.87415" lon="8.49909">
        <ele>1530</ele>
        <time>2021-08-11T11:02:37.491Z</time>
      </trkpt>
      <trkpt lat="46.87415" lon="8.49908">
        <ele>1530</ele>
        <time>2021-08-11T11:02:38.490Z</time>
      </trkpt>
      <trkpt lat="46.87415" lon="8.49906">
        <ele>1530</ele>
        <time>2021-08-11T11:02:39.491Z</time>
      </trkpt>
      <trkpt lat="46.87415" lon="8.49905">
        <ele>1530</ele>
        <time>2021-08-11T11:02:40.491Z</time>
      </trkpt>
      <trkpt lat="46.87415" lon="8.49904">
        <ele>1530</ele>
        <time>2021-08-11T11:02:41.491Z</time>
      </trkpt>
      <trkpt lat="46.87416" lon="8.49903">
        <ele>1530</ele>
        <time>2021-08-11T11:02:42.491Z</time>
      </trkpt>
      <trkpt lat="46.87416" lon="8.49903">
        <ele>1530</ele>
        <time>2021-08-11T11:02:43.491Z</time>
      </trkpt>
      <trkpt lat="46.87417" lon="8.49902">
        <ele>1530</ele>
        <time>2021-08-11T11:02:44.491Z</time>
      </trkpt>
      <trkpt lat="46.87417" lon="8.499">
        <ele>1530</ele>
        <time>2021-08-11T11:02:45.491Z</time>
      </trkpt>
      <trkpt lat="46.87418" lon="8.49899">
        <ele>1531</ele>
        <time>2021-08-11T11:02:46.490Z</time>
      </trkpt>
      <trkpt lat="46.87418" lon="8.49898">
        <ele>1531</ele>
        <time>2021-08-11T11:02:49.495Z</time>
      </trkpt>
      <trkpt lat="46.87418" lon="8.49898">
        <ele>1531</ele>
        <time>2021-08-11T11:02:50.495Z</time>
      </trkpt>
      <trkpt lat="46.87419" lon="8.49897">
        <ele>1531</ele>
        <time>2021-08-11T11:02:55.241Z</time>
      </trkpt>
      <trkpt lat="46.87418" lon="8.49896">
        <ele>1531</ele>
        <time>2021-08-11T11:02:56.240Z</time>
      </trkpt>
      <trkpt lat="46.87418" lon="8.49894">
        <ele>1530</ele>
        <time>2021-08-11T11:02:57.241Z</time>
      </trkpt>
      <trkpt lat="46.87417" lon="8.49893">
        <ele>1529</ele>
        <time>2021-08-11T11:02:58.240Z</time>
      </trkpt>
      <trkpt lat="46.87418" lon="8.49893">
        <ele>1529</ele>
        <time>2021-08-11T11:02:59.241Z</time>
      </trkpt>
      <trkpt lat="46.87418" lon="8.49892">
        <ele>1529</ele>
        <time>2021-08-11T11:03:00.241Z</time>
      </trkpt>
      <trkpt lat="46.87418" lon="8.49892">
        <ele>1529</ele>
        <time>2021-08-11T11:03:01.240Z</time>
      </trkpt>
      <trkpt lat="46.87419" lon="8.49892">
        <ele>1529</ele>
        <time>2021-08-11T11:03:02.241Z</time>
      </trkpt>
      <trkpt lat="46.8742" lon="8.49891">
        <ele>1529</ele>
        <time>2021-08-11T11:03:03.240Z</time>
      </trkpt>
      <trkpt lat="46.87421" lon="8.4989">
        <ele>1528</ele>
        <time>2021-08-11T11:03:04.241Z</time>
      </trkpt>
      <trkpt lat="46.87421" lon="8.49889">
        <ele>1529</ele>
        <time>2021-08-11T11:03:05.241Z</time>
      </trkpt>
      <trkpt lat="46.87421" lon="8.49888">
        <ele>1529</ele>
        <time>2021-08-11T11:03:06.241Z</time>
      </trkpt>
      <trkpt lat="46.87421" lon="8.49887">
        <ele>1530</ele>
        <time>2021-08-11T11:03:07.240Z</time>
      </trkpt>
      <trkpt lat="46.87421" lon="8.49886">
        <ele>1530</ele>
        <time>2021-08-11T11:03:08.241Z</time>
      </trkpt>
      <trkpt lat="46.87421" lon="8.49885">
        <ele>1531</ele>
        <time>2021-08-11T11:03:09.241Z</time>
      </trkpt>
      <trkpt lat="46.87421" lon="8.49884">
        <ele>1531</ele>
        <time>2021-08-11T11:03:10.241Z</time>
      </trkpt>
      <trkpt lat="46.87421" lon="8.49883">
        <ele>1532</ele>
        <time>2021-08-11T11:03:11.241Z</time>
      </trkpt>
      <trkpt lat="46.87421" lon="8.49883">
        <ele>1532</ele>
        <time>2021-08-11T11:03:12.241Z</time>
      </trkpt>
      <trkpt lat="46.87421" lon="8.49882">
        <ele>1532</ele>
        <time>2021-08-11T11:03:13.240Z</time>
      </trkpt>
      <trkpt lat="46.87421" lon="8.49881">
        <ele>1532</ele>
        <time>2021-08-11T11:03:14.240Z</time>
      </trkpt>
      <trkpt lat="46.87421" lon="8.4988">
        <ele>1532</ele>
        <time>2021-08-11T11:03:15.241Z</time>
      </trkpt>
      <trkpt lat="46.8742" lon="8.4988">
        <ele>1532</ele>
        <time>2021-08-11T11:03:16.241Z</time>
      </trkpt>
      <trkpt lat="46.8742" lon="8.49879">
        <ele>1532</ele>
        <time>2021-08-11T11:03:17.240Z</time>
      </trkpt>
      <trkpt lat="46.8742" lon="8.49879">
        <ele>1532</ele>
        <time>2021-08-11T11:03:18.240Z</time>
      </trkpt>
      <trkpt lat="46.8742" lon="8.49878">
        <ele>1532</ele>
        <time>2021-08-11T11:03:19.240Z</time>
      </trkpt>
      <trkpt lat="46.87421" lon="8.49878">
        <ele>1532</ele>
        <time>2021-08-11T11:03:20.241Z</time>
      </trkpt>
      <trkpt lat="46.87421" lon="8.49877">
        <ele>1533</ele>
        <time>2021-08-11T11:03:21.242Z</time>
      </trkpt>
      <trkpt lat="46.87421" lon="8.49876">
        <ele>1533</ele>
        <time>2021-08-11T11:03:23.242Z</time>
      </trkpt>
      <trkpt lat="46.87422" lon="8.49875">
        <ele>1533</ele>
        <time>2021-08-11T11:03:24.242Z</time>
      </trkpt>
      <trkpt lat="46.87423" lon="8.49874">
        <ele>1534</ele>
        <time>2021-08-11T11:03:25.242Z</time>
      </trkpt>
      <trkpt lat="46.87424" lon="8.49874">
        <ele>1534</ele>
        <time>2021-08-11T11:03:26.241Z</time>
      </trkpt>
      <trkpt lat="46.87424" lon="8.49873">
        <ele>1534</ele>
        <time>2021-08-11T11:03:27.241Z</time>
      </trkpt>
      <trkpt lat="46.87425" lon="8.49872">
        <ele>1534</ele>
        <time>2021-08-11T11:03:28.242Z</time>
      </trkpt>
      <trkpt lat="46.87424" lon="8.49871">
        <ele>1534</ele>
        <time>2021-08-11T11:03:29.241Z</time>
      </trkpt>
      <trkpt lat="46.87424" lon="8.49869">
        <ele>1534</ele>
        <time>2021-08-11T11:03:30.242Z</time>
      </trkpt>
      <trkpt lat="46.87424" lon="8.49868">
        <ele>1534</ele>
        <time>2021-08-11T11:03:31.242Z</time>
      </trkpt>
      <trkpt lat="46.87425" lon="8.49867">
        <ele>1534</ele>
        <time>2021-08-11T11:03:32.242Z</time>
      </trkpt>
      <trkpt lat="46.87425" lon="8.49865">
        <ele>1534</ele>
        <time>2021-08-11T11:03:33.242Z</time>
      </trkpt>
      <trkpt lat="46.87425" lon="8.49864">
        <ele>1534</ele>
        <time>2021-08-11T11:03:34.241Z</time>
      </trkpt>
      <trkpt lat="46.87425" lon="8.49864">
        <ele>1535</ele>
        <time>2021-08-11T11:03:35.242Z</time>
      </trkpt>
      <trkpt lat="46.87425" lon="8.49864">
        <ele>1535</ele>
        <time>2021-08-11T11:03:36.242Z</time>
      </trkpt>
      <trkpt lat="46.87426" lon="8.49863">
        <ele>1535</ele>
        <time>2021-08-11T11:03:37.242Z</time>
      </trkpt>
      <trkpt lat="46.87426" lon="8.49863">
        <ele>1536</ele>
        <time>2021-08-11T11:03:38.242Z</time>
      </trkpt>
      <trkpt lat="46.87426" lon="8.49861">
        <ele>1537</ele>
        <time>2021-08-11T11:03:39.242Z</time>
      </trkpt>
      <trkpt lat="46.87425" lon="8.4986">
        <ele>1537</ele>
        <time>2021-08-11T11:03:40.242Z</time>
      </trkpt>
      <trkpt lat="46.87425" lon="8.49859">
        <ele>1538</ele>
        <time>2021-08-11T11:03:41.242Z</time>
      </trkpt>
      <trkpt lat="46.87426" lon="8.49858">
        <ele>1538</ele>
        <time>2021-08-11T11:03:42.241Z</time>
      </trkpt>
      <trkpt lat="46.87426" lon="8.49857">
        <ele>1538</ele>
        <time>2021-08-11T11:03:48.363Z</time>
      </trkpt>
      <trkpt lat="46.87426" lon="8.49856">
        <ele>1538</ele>
        <time>2021-08-11T11:03:49.364Z</time>
      </trkpt>
      <trkpt lat="46.87426" lon="8.49855">
        <ele>1538</ele>
        <time>2021-08-11T11:03:50.364Z</time>
      </trkpt>
      <trkpt lat="46.87426" lon="8.49854">
        <ele>1538</ele>
        <time>2021-08-11T11:03:51.364Z</time>
      </trkpt>
      <trkpt lat="46.87426" lon="8.49853">
        <ele>1539</ele>
        <time>2021-08-11T11:03:57.363Z</time>
      </trkpt>
      <trkpt lat="46.87427" lon="8.49852">
        <ele>1539</ele>
        <time>2021-08-11T11:03:58.362Z</time>
      </trkpt>
      <trkpt lat="46.87427" lon="8.49851">
        <ele>1539</ele>
        <time>2021-08-11T11:04:02.135Z</time>
      </trkpt>
      <trkpt lat="46.87427" lon="8.49849">
        <ele>1540</ele>
        <time>2021-08-11T11:04:03.135Z</time>
      </trkpt>
      <trkpt lat="46.87428" lon="8.49848">
        <ele>1540</ele>
        <time>2021-08-11T11:04:04.135Z</time>
      </trkpt>
      <trkpt lat="46.87428" lon="8.49848">
        <ele>1541</ele>
        <time>2021-08-11T11:04:05.135Z</time>
      </trkpt>
      <trkpt lat="46.87428" lon="8.49847">
        <ele>1541</ele>
        <time>2021-08-11T11:04:06.135Z</time>
      </trkpt>
      <trkpt lat="46.87428" lon="8.49846">
        <ele>1541</ele>
        <time>2021-08-11T11:04:07.134Z</time>
      </trkpt>
      <trkpt lat="46.87429" lon="8.49845">
        <ele>1542</ele>
        <time>2021-08-11T11:04:08.135Z</time>
      </trkpt>
      <trkpt lat="46.87428" lon="8.49843">
        <ele>1542</ele>
        <time>2021-08-11T11:04:10.261Z</time>
      </trkpt>
      <trkpt lat="46.87428" lon="8.49843">
        <ele>1542</ele>
        <time>2021-08-11T11:04:11.261Z</time>
      </trkpt>
      <trkpt lat="46.87427" lon="8.49842">
        <ele>1542</ele>
        <time>2021-08-11T11:04:12.261Z</time>
      </trkpt>
      <trkpt lat="46.87427" lon="8.49841">
        <ele>1542</ele>
        <time>2021-08-11T11:04:13.260Z</time>
      </trkpt>
      <trkpt lat="46.87426" lon="8.4984">
        <ele>1543</ele>
        <time>2021-08-11T11:04:14.261Z</time>
      </trkpt>
      <trkpt lat="46.87426" lon="8.4984">
        <ele>1543</ele>
        <time>2021-08-11T11:04:15.261Z</time>
      </trkpt>
      <trkpt lat="46.87426" lon="8.49839">
        <ele>1543</ele>
        <time>2021-08-11T11:04:16.261Z</time>
      </trkpt>
      <trkpt lat="46.87426" lon="8.49838">
        <ele>1543</ele>
        <time>2021-08-11T11:04:17.261Z</time>
      </trkpt>
      <trkpt lat="46.87426" lon="8.49837">
        <ele>1544</ele>
        <time>2021-08-11T11:04:18.260Z</time>
      </trkpt>
      <trkpt lat="46.87426" lon="8.49837">
        <ele>1544</ele>
        <time>2021-08-11T11:04:19.260Z</time>
      </trkpt>
      <trkpt lat="46.87426" lon="8.49836">
        <ele>1544</ele>
        <time>2021-08-11T11:04:20.261Z</time>
      </trkpt>
      <trkpt lat="46.87426" lon="8.49835">
        <ele>1545</ele>
        <time>2021-08-11T11:04:21.260Z</time>
      </trkpt>
      <trkpt lat="46.87425" lon="8.49834">
        <ele>1545</ele>
        <time>2021-08-11T11:04:22.260Z</time>
      </trkpt>
      <trkpt lat="46.87425" lon="8.49833">
        <ele>1545</ele>
        <time>2021-08-11T11:04:23.260Z</time>
      </trkpt>
      <trkpt lat="46.87425" lon="8.49832">
        <ele>1546</ele>
        <time>2021-08-11T11:04:24.261Z</time>
      </trkpt>
      <trkpt lat="46.87425" lon="8.49832">
        <ele>1546</ele>
        <time>2021-08-11T11:04:25.260Z</time>
      </trkpt>
      <trkpt lat="46.87425" lon="8.49831">
        <ele>1546</ele>
        <time>2021-08-11T11:04:26.261Z</time>
      </trkpt>
      <trkpt lat="46.87426" lon="8.49831">
        <ele>1546</ele>
        <time>2021-08-11T11:04:27.261Z</time>
      </trkpt>
      <trkpt lat="46.87426" lon="8.4983">
        <ele>1546</ele>
        <time>2021-08-11T11:04:34.425Z</time>
      </trkpt>
      <trkpt lat="46.87426" lon="8.49829">
        <ele>1546</ele>
        <time>2021-08-11T11:04:35.425Z</time>
      </trkpt>
      <trkpt lat="46.87426" lon="8.49829">
        <ele>1546</ele>
        <time>2021-08-11T11:04:36.424Z</time>
      </trkpt>
      <trkpt lat="46.87427" lon="8.49828">
        <ele>1546</ele>
        <time>2021-08-11T11:04:37.425Z</time>
      </trkpt>
      <trkpt lat="46.87427" lon="8.49828">
        <ele>1547</ele>
        <time>2021-08-11T11:04:38.425Z</time>
      </trkpt>
      <trkpt lat="46.87426" lon="8.49827">
        <ele>1547</ele>
        <time>2021-08-11T11:04:39.424Z</time>
      </trkpt>
      <trkpt lat="46.87426" lon="8.49826">
        <ele>1547</ele>
        <time>2021-08-11T11:04:40.425Z</time>
      </trkpt>
      <trkpt lat="46.87427" lon="8.49824">
        <ele>1547</ele>
        <time>2021-08-11T11:04:41.425Z</time>
      </trkpt>
      <trkpt lat="46.87427" lon="8.49823">
        <ele>1548</ele>
        <time>2021-08-11T11:04:42.425Z</time>
      </trkpt>
      <trkpt lat="46.87427" lon="8.49822">
        <ele>1548</ele>
        <time>2021-08-11T11:04:43.425Z</time>
      </trkpt>
      <trkpt lat="46.87428" lon="8.49821">
        <ele>1548</ele>
        <time>2021-08-11T11:04:44.424Z</time>
      </trkpt>
      <trkpt lat="46.87428" lon="8.49821">
        <ele>1548</ele>
        <time>2021-08-11T11:04:45.425Z</time>
      </trkpt>
      <trkpt lat="46.87428" lon="8.4982">
        <ele>1549</ele>
        <time>2021-08-11T11:04:46.425Z</time>
      </trkpt>
      <trkpt lat="46.87427" lon="8.4982">
        <ele>1549</ele>
        <time>2021-08-11T11:04:47.425Z</time>
      </trkpt>
      <trkpt lat="46.87427" lon="8.49819">
        <ele>1550</ele>
        <time>2021-08-11T11:04:48.425Z</time>
      </trkpt>
      <trkpt lat="46.87427" lon="8.49818">
        <ele>1550</ele>
        <time>2021-08-11T11:04:49.425Z</time>
      </trkpt>
      <trkpt lat="46.87427" lon="8.49817">
        <ele>1551</ele>
        <time>2021-08-11T11:04:50.424Z</time>
      </trkpt>
      <trkpt lat="46.87428" lon="8.49816">
        <ele>1551</ele>
        <time>2021-08-11T11:04:51.425Z</time>
      </trkpt>
      <trkpt lat="46.87428" lon="8.49815">
        <ele>1551</ele>
        <time>2021-08-11T11:04:52.424Z</time>
      </trkpt>
      <trkpt lat="46.87428" lon="8.49814">
        <ele>1551</ele>
        <time>2021-08-11T11:04:53.425Z</time>
      </trkpt>
      <trkpt lat="46.87428" lon="8.49813">
        <ele>1551</ele>
        <time>2021-08-11T11:04:54.425Z</time>
      </trkpt>
      <trkpt lat="46.87428" lon="8.49812">
        <ele>1550</ele>
        <time>2021-08-11T11:04:55.425Z</time>
      </trkpt>
      <trkpt lat="46.87428" lon="8.49811">
        <ele>1550</ele>
        <time>2021-08-11T11:04:56.425Z</time>
      </trkpt>
      <trkpt lat="46.87428" lon="8.49811">
        <ele>1550</ele>
        <time>2021-08-11T11:04:57.425Z</time>
      </trkpt>
      <trkpt lat="46.87429" lon="8.4981">
        <ele>1550</ele>
        <time>2021-08-11T11:04:58.425Z</time>
      </trkpt>
      <trkpt lat="46.87429" lon="8.49809">
        <ele>1550</ele>
        <time>2021-08-11T11:04:59.425Z</time>
      </trkpt>
      <trkpt lat="46.87428" lon="8.49809">
        <ele>1550</ele>
        <time>2021-08-11T11:05:00.425Z</time>
      </trkpt>
      <trkpt lat="46.87428" lon="8.49808">
        <ele>1550</ele>
        <time>2021-08-11T11:05:01.425Z</time>
      </trkpt>
      <trkpt lat="46.87428" lon="8.49807">
        <ele>1550</ele>
        <time>2021-08-11T11:05:02.425Z</time>
      </trkpt>
      <trkpt lat="46.87428" lon="8.49806">
        <ele>1550</ele>
        <time>2021-08-11T11:05:03.425Z</time>
      </trkpt>
      <trkpt lat="46.87428" lon="8.49804">
        <ele>1551</ele>
        <time>2021-08-11T11:05:04.424Z</time>
      </trkpt>
      <trkpt lat="46.87428" lon="8.49803">
        <ele>1551</ele>
        <time>2021-08-11T11:05:05.424Z</time>
      </trkpt>
      <trkpt lat="46.87429" lon="8.49802">
        <ele>1552</ele>
        <time>2021-08-11T11:05:06.425Z</time>
      </trkpt>
      <trkpt lat="46.87428" lon="8.49801">
        <ele>1552</ele>
        <time>2021-08-11T11:05:07.425Z</time>
      </trkpt>
      <trkpt lat="46.87428" lon="8.49801">
        <ele>1552</ele>
        <time>2021-08-11T11:05:08.425Z</time>
      </trkpt>
      <trkpt lat="46.87427" lon="8.498">
        <ele>1552</ele>
        <time>2021-08-11T11:05:09.425Z</time>
      </trkpt>
      <trkpt lat="46.87428" lon="8.498">
        <ele>1552</ele>
        <time>2021-08-11T11:05:13.504Z</time>
      </trkpt>
      <trkpt lat="46.87428" lon="8.49799">
        <ele>1551</ele>
        <time>2021-08-11T11:05:14.505Z</time>
      </trkpt>
      <trkpt lat="46.87429" lon="8.49798">
        <ele>1551</ele>
        <time>2021-08-11T11:05:15.505Z</time>
      </trkpt>
      <trkpt lat="46.87429" lon="8.49797">
        <ele>1551</ele>
        <time>2021-08-11T11:05:16.504Z</time>
      </trkpt>
      <trkpt lat="46.87429" lon="8.49795">
        <ele>1551</ele>
        <time>2021-08-11T11:05:17.505Z</time>
      </trkpt>
      <trkpt lat="46.87429" lon="8.49795">
        <ele>1550</ele>
        <time>2021-08-11T11:05:18.505Z</time>
      </trkpt>
      <trkpt lat="46.87429" lon="8.49794">
        <ele>1550</ele>
        <time>2021-08-11T11:05:19.505Z</time>
      </trkpt>
      <trkpt lat="46.87428" lon="8.49794">
        <ele>1550</ele>
        <time>2021-08-11T11:05:20.504Z</time>
      </trkpt>
      <trkpt lat="46.87429" lon="8.49793">
        <ele>1550</ele>
        <time>2021-08-11T11:05:21.504Z</time>
      </trkpt>
      <trkpt lat="46.87429" lon="8.49791">
        <ele>1550</ele>
        <time>2021-08-11T11:05:22.505Z</time>
      </trkpt>
      <trkpt lat="46.87429" lon="8.4979">
        <ele>1550</ele>
        <time>2021-08-11T11:05:23.505Z</time>
      </trkpt>
      <trkpt lat="46.87429" lon="8.49789">
        <ele>1551</ele>
        <time>2021-08-11T11:05:24.505Z</time>
      </trkpt>
      <trkpt lat="46.87429" lon="8.49788">
        <ele>1551</ele>
        <time>2021-08-11T11:05:25.505Z</time>
      </trkpt>
      <trkpt lat="46.8743" lon="8.49788">
        <ele>1552</ele>
        <time>2021-08-11T11:05:26.505Z</time>
      </trkpt>
      <trkpt lat="46.8743" lon="8.49787">
        <ele>1552</ele>
        <time>2021-08-11T11:05:27.505Z</time>
      </trkpt>
      <trkpt lat="46.8743" lon="8.49787">
        <ele>1552</ele>
        <time>2021-08-11T11:05:28.505Z</time>
      </trkpt>
      <trkpt lat="46.87431" lon="8.49785">
        <ele>1552</ele>
        <time>2021-08-11T11:05:29.505Z</time>
      </trkpt>
      <trkpt lat="46.87431" lon="8.49784">
        <ele>1552</ele>
        <time>2021-08-11T11:05:30.505Z</time>
      </trkpt>
      <trkpt lat="46.87432" lon="8.49782">
        <ele>1552</ele>
        <time>2021-08-11T11:05:35.510Z</time>
      </trkpt>
      <trkpt lat="46.87432" lon="8.49782">
        <ele>1552</ele>
        <time>2021-08-11T11:05:36.510Z</time>
      </trkpt>
      <trkpt lat="46.87432" lon="8.49781">
        <ele>1552</ele>
        <time>2021-08-11T11:05:37.510Z</time>
      </trkpt>
      <trkpt lat="46.87432" lon="8.4978">
        <ele>1552</ele>
        <time>2021-08-11T11:05:38.509Z</time>
      </trkpt>
      <trkpt lat="46.87433" lon="8.49779">
        <ele>1552</ele>
        <time>2021-08-11T11:05:39.510Z</time>
      </trkpt>
      <trkpt lat="46.87433" lon="8.49777">
        <ele>1552</ele>
        <time>2021-08-11T11:05:40.510Z</time>
      </trkpt>
      <trkpt lat="46.87433" lon="8.49776">
        <ele>1552</ele>
        <time>2021-08-11T11:05:41.510Z</time>
      </trkpt>
      <trkpt lat="46.87433" lon="8.49775">
        <ele>1552</ele>
        <time>2021-08-11T11:05:44.600Z</time>
      </trkpt>
      <trkpt lat="46.87433" lon="8.49773">
        <ele>1552</ele>
        <time>2021-08-11T11:05:45.599Z</time>
      </trkpt>
      <trkpt lat="46.87433" lon="8.49773">
        <ele>1553</ele>
        <time>2021-08-11T11:05:46.600Z</time>
      </trkpt>
      <trkpt lat="46.87433" lon="8.49773">
        <ele>1553</ele>
        <time>2021-08-11T11:05:47.600Z</time>
      </trkpt>
      <trkpt lat="46.87433" lon="8.49773">
        <ele>1553</ele>
        <time>2021-08-11T11:05:48.600Z</time>
      </trkpt>
      <trkpt lat="46.87434" lon="8.49772">
        <ele>1553</ele>
        <time>2021-08-11T11:05:49.599Z</time>
      </trkpt>
      <trkpt lat="46.87434" lon="8.49772">
        <ele>1553</ele>
        <time>2021-08-11T11:05:50.600Z</time>
      </trkpt>
      <trkpt lat="46.87434" lon="8.49771">
        <ele>1554</ele>
        <time>2021-08-11T11:05:51.599Z</time>
      </trkpt>
      <trkpt lat="46.87435" lon="8.4977">
        <ele>1554</ele>
        <time>2021-08-11T11:05:52.600Z</time>
      </trkpt>
      <trkpt lat="46.87436" lon="8.49769">
        <ele>1554</ele>
        <time>2021-08-11T11:05:53.599Z</time>
      </trkpt>
      <trkpt lat="46.87436" lon="8.49768">
        <ele>1554</ele>
        <time>2021-08-11T11:05:54.600Z</time>
      </trkpt>
      <trkpt lat="46.87435" lon="8.49767">
        <ele>1554</ele>
        <time>2021-08-11T11:05:55.599Z</time>
      </trkpt>
      <trkpt lat="46.87435" lon="8.49766">
        <ele>1554</ele>
        <time>2021-08-11T11:05:56.599Z</time>
      </trkpt>
      <trkpt lat="46.87436" lon="8.49765">
        <ele>1554</ele>
        <time>2021-08-11T11:05:57.600Z</time>
      </trkpt>
      <trkpt lat="46.87436" lon="8.49764">
        <ele>1555</ele>
        <time>2021-08-11T11:05:58.600Z</time>
      </trkpt>
      <trkpt lat="46.87436" lon="8.49763">
        <ele>1555</ele>
        <time>2021-08-11T11:05:59.599Z</time>
      </trkpt>
      <trkpt lat="46.87436" lon="8.49761">
        <ele>1555</ele>
        <time>2021-08-11T11:06:00.600Z</time>
      </trkpt>
      <trkpt lat="46.87435" lon="8.49761">
        <ele>1556</ele>
        <time>2021-08-11T11:06:01.600Z</time>
      </trkpt>
      <trkpt lat="46.87435" lon="8.4976">
        <ele>1556</ele>
        <time>2021-08-11T11:06:02.600Z</time>
      </trkpt>
      <trkpt lat="46.87435" lon="8.49759">
        <ele>1556</ele>
        <time>2021-08-11T11:06:03.600Z</time>
      </trkpt>
      <trkpt lat="46.87436" lon="8.49758">
        <ele>1557</ele>
        <time>2021-08-11T11:06:04.600Z</time>
      </trkpt>
      <trkpt lat="46.87436" lon="8.49757">
        <ele>1557</ele>
        <time>2021-08-11T11:06:05.599Z</time>
      </trkpt>
      <trkpt lat="46.87436" lon="8.49756">
        <ele>1557</ele>
        <time>2021-08-11T11:06:06.600Z</time>
      </trkpt>
      <trkpt lat="46.87436" lon="8.49755">
        <ele>1557</ele>
        <time>2021-08-11T11:06:07.600Z</time>
      </trkpt>
      <trkpt lat="46.87437" lon="8.49754">
        <ele>1557</ele>
        <time>2021-08-11T11:06:12.631Z</time>
      </trkpt>
      <trkpt lat="46.87437" lon="8.49753">
        <ele>1557</ele>
        <time>2021-08-11T11:06:13.631Z</time>
      </trkpt>
      <trkpt lat="46.87438" lon="8.49752">
        <ele>1557</ele>
        <time>2021-08-11T11:06:14.630Z</time>
      </trkpt>
      <trkpt lat="46.87438" lon="8.49751">
        <ele>1558</ele>
        <time>2021-08-11T11:06:15.631Z</time>
      </trkpt>
      <trkpt lat="46.87438" lon="8.4975">
        <ele>1559</ele>
        <time>2021-08-11T11:06:16.630Z</time>
      </trkpt>
      <trkpt lat="46.87438" lon="8.49749">
        <ele>1559</ele>
        <time>2021-08-11T11:06:17.631Z</time>
      </trkpt>
      <trkpt lat="46.87439" lon="8.49749">
        <ele>1560</ele>
        <time>2021-08-11T11:06:18.631Z</time>
      </trkpt>
      <trkpt lat="46.87439" lon="8.49748">
        <ele>1560</ele>
        <time>2021-08-11T11:06:19.630Z</time>
      </trkpt>
      <trkpt lat="46.87439" lon="8.49747">
        <ele>1560</ele>
        <time>2021-08-11T11:06:20.631Z</time>
      </trkpt>
      <trkpt lat="46.8744" lon="8.49746">
        <ele>1560</ele>
        <time>2021-08-11T11:06:21.631Z</time>
      </trkpt>
      <trkpt lat="46.87439" lon="8.49745">
        <ele>1559</ele>
        <time>2021-08-11T11:06:22.631Z</time>
      </trkpt>
      <trkpt lat="46.87439" lon="8.49744">
        <ele>1559</ele>
        <time>2021-08-11T11:06:23.631Z</time>
      </trkpt>
      <trkpt lat="46.87438" lon="8.49744">
        <ele>1559</ele>
        <time>2021-08-11T11:06:24.630Z</time>
      </trkpt>
      <trkpt lat="46.87438" lon="8.49742">
        <ele>1559</ele>
        <time>2021-08-11T11:06:25.631Z</time>
      </trkpt>
      <trkpt lat="46.87439" lon="8.49741">
        <ele>1558</ele>
        <time>2021-08-11T11:06:26.630Z</time>
      </trkpt>
      <trkpt lat="46.87439" lon="8.49741">
        <ele>1558</ele>
        <time>2021-08-11T11:06:27.630Z</time>
      </trkpt>
      <trkpt lat="46.87439" lon="8.49739">
        <ele>1558</ele>
        <time>2021-08-11T11:06:28.630Z</time>
      </trkpt>
      <trkpt lat="46.8744" lon="8.49739">
        <ele>1559</ele>
        <time>2021-08-11T11:06:29.631Z</time>
      </trkpt>
      <trkpt lat="46.8744" lon="8.49739">
        <ele>1559</ele>
        <time>2021-08-11T11:06:30.631Z</time>
      </trkpt>
      <trkpt lat="46.8744" lon="8.49738">
        <ele>1559</ele>
        <time>2021-08-11T11:06:31.631Z</time>
      </trkpt>
      <trkpt lat="46.8744" lon="8.49737">
        <ele>1559</ele>
        <time>2021-08-11T11:06:32.631Z</time>
      </trkpt>
      <trkpt lat="46.87441" lon="8.49736">
        <ele>1559</ele>
        <time>2021-08-11T11:06:33.631Z</time>
      </trkpt>
      <trkpt lat="46.87441" lon="8.49735">
        <ele>1560</ele>
        <time>2021-08-11T11:06:34.631Z</time>
      </trkpt>
      <trkpt lat="46.87442" lon="8.49734">
        <ele>1560</ele>
        <time>2021-08-11T11:06:40.607Z</time>
      </trkpt>
      <trkpt lat="46.87442" lon="8.49732">
        <ele>1560</ele>
        <time>2021-08-11T11:06:41.607Z</time>
      </trkpt>
      <trkpt lat="46.87443" lon="8.49731">
        <ele>1560</ele>
        <time>2021-08-11T11:06:42.607Z</time>
      </trkpt>
      <trkpt lat="46.87443" lon="8.4973">
        <ele>1560</ele>
        <time>2021-08-11T11:06:43.607Z</time>
      </trkpt>
      <trkpt lat="46.87442" lon="8.49729">
        <ele>1560</ele>
        <time>2021-08-11T11:06:44.606Z</time>
      </trkpt>
      <trkpt lat="46.87442" lon="8.49727">
        <ele>1560</ele>
        <time>2021-08-11T11:06:45.607Z</time>
      </trkpt>
      <trkpt lat="46.87443" lon="8.49727">
        <ele>1560</ele>
        <time>2021-08-11T11:06:46.607Z</time>
      </trkpt>
      <trkpt lat="46.87444" lon="8.49725">
        <ele>1560</ele>
        <time>2021-08-11T11:06:47.607Z</time>
      </trkpt>
      <trkpt lat="46.87443" lon="8.49724">
        <ele>1560</ele>
        <time>2021-08-11T11:06:48.607Z</time>
      </trkpt>
      <trkpt lat="46.87444" lon="8.49723">
        <ele>1560</ele>
        <time>2021-08-11T11:06:51.633Z</time>
      </trkpt>
      <trkpt lat="46.87443" lon="8.49722">
        <ele>1560</ele>
        <time>2021-08-11T11:06:52.633Z</time>
      </trkpt>
      <trkpt lat="46.87443" lon="8.49721">
        <ele>1560</ele>
        <time>2021-08-11T11:06:53.632Z</time>
      </trkpt>
      <trkpt lat="46.87444" lon="8.4972">
        <ele>1560</ele>
        <time>2021-08-11T11:06:58.608Z</time>
      </trkpt>
      <trkpt lat="46.87444" lon="8.49719">
        <ele>1560</ele>
        <time>2021-08-11T11:06:59.608Z</time>
      </trkpt>
      <trkpt lat="46.87444" lon="8.49718">
        <ele>1561</ele>
        <time>2021-08-11T11:07:00.608Z</time>
      </trkpt>
      <trkpt lat="46.87444" lon="8.49716">
        <ele>1561</ele>
        <time>2021-08-11T11:07:01.609Z</time>
      </trkpt>
      <trkpt lat="46.87444" lon="8.49716">
        <ele>1561</ele>
        <time>2021-08-11T11:07:02.608Z</time>
      </trkpt>
      <trkpt lat="46.87444" lon="8.49714">
        <ele>1561</ele>
        <time>2021-08-11T11:07:03.609Z</time>
      </trkpt>
      <trkpt lat="46.87444" lon="8.49714">
        <ele>1562</ele>
        <time>2021-08-11T11:07:04.608Z</time>
      </trkpt>
      <trkpt lat="46.87445" lon="8.49713">
        <ele>1562</ele>
        <time>2021-08-11T11:07:05.609Z</time>
      </trkpt>
      <trkpt lat="46.87445" lon="8.49712">
        <ele>1562</ele>
        <time>2021-08-11T11:07:06.609Z</time>
      </trkpt>
      <trkpt lat="46.87445" lon="8.49711">
        <ele>1562</ele>
        <time>2021-08-11T11:07:07.609Z</time>
      </trkpt>
      <trkpt lat="46.87445" lon="8.4971">
        <ele>1562</ele>
        <time>2021-08-11T11:07:08.609Z</time>
      </trkpt>
      <trkpt lat="46.87446" lon="8.49709">
        <ele>1562</ele>
        <time>2021-08-11T11:07:09.609Z</time>
      </trkpt>
      <trkpt lat="46.87446" lon="8.49708">
        <ele>1563</ele>
        <time>2021-08-11T11:07:10.608Z</time>
      </trkpt>
      <trkpt lat="46.87446" lon="8.49707">
        <ele>1564</ele>
        <time>2021-08-11T11:07:11.608Z</time>
      </trkpt>
      <trkpt lat="46.87446" lon="8.49707">
        <ele>1564</ele>
        <time>2021-08-11T11:07:12.608Z</time>
      </trkpt>
      <trkpt lat="46.87447" lon="8.49706">
        <ele>1565</ele>
        <time>2021-08-11T11:07:13.609Z</time>
      </trkpt>
      <trkpt lat="46.87448" lon="8.49704">
        <ele>1565</ele>
        <time>2021-08-11T11:07:14.609Z</time>
      </trkpt>
      <trkpt lat="46.87449" lon="8.49703">
        <ele>1565</ele>
        <time>2021-08-11T11:07:15.608Z</time>
      </trkpt>
      <trkpt lat="46.8745" lon="8.49703">
        <ele>1565</ele>
        <time>2021-08-11T11:07:16.608Z</time>
      </trkpt>
      <trkpt lat="46.8745" lon="8.49702">
        <ele>1566</ele>
        <time>2021-08-11T11:07:17.609Z</time>
      </trkpt>
      <trkpt lat="46.8745" lon="8.49702">
        <ele>1566</ele>
        <time>2021-08-11T11:07:18.609Z</time>
      </trkpt>
      <trkpt lat="46.87449" lon="8.49702">
        <ele>1567</ele>
        <time>2021-08-11T11:07:19.609Z</time>
      </trkpt>
      <trkpt lat="46.87449" lon="8.497">
        <ele>1567</ele>
        <time>2021-08-11T11:07:20.608Z</time>
      </trkpt>
      <trkpt lat="46.8745" lon="8.49698">
        <ele>1568</ele>
        <time>2021-08-11T11:07:21.608Z</time>
      </trkpt>
      <trkpt lat="46.8745" lon="8.49697">
        <ele>1568</ele>
        <time>2021-08-11T11:07:22.608Z</time>
      </trkpt>
      <trkpt lat="46.87449" lon="8.49696">
        <ele>1568</ele>
        <time>2021-08-11T11:07:23.609Z</time>
      </trkpt>
      <trkpt lat="46.87449" lon="8.49695">
        <ele>1568</ele>
        <time>2021-08-11T11:07:24.609Z</time>
      </trkpt>
      <trkpt lat="46.87449" lon="8.49694">
        <ele>1568</ele>
        <time>2021-08-11T11:07:25.608Z</time>
      </trkpt>
      <trkpt lat="46.8745" lon="8.49693">
        <ele>1568</ele>
        <time>2021-08-11T11:07:26.609Z</time>
      </trkpt>
      <trkpt lat="46.8745" lon="8.49692">
        <ele>1568</ele>
        <time>2021-08-11T11:07:27.608Z</time>
      </trkpt>
      <trkpt lat="46.87451" lon="8.49691">
        <ele>1568</ele>
        <time>2021-08-11T11:07:28.609Z</time>
      </trkpt>
      <trkpt lat="46.87451" lon="8.4969">
        <ele>1568</ele>
        <time>2021-08-11T11:07:29.609Z</time>
      </trkpt>
      <trkpt lat="46.87451" lon="8.49689">
        <ele>1567</ele>
        <time>2021-08-11T11:07:30.609Z</time>
      </trkpt>
      <trkpt lat="46.87452" lon="8.49688">
        <ele>1567</ele>
        <time>2021-08-11T11:07:31.608Z</time>
      </trkpt>
      <trkpt lat="46.87452" lon="8.49687">
        <ele>1567</ele>
        <time>2021-08-11T11:07:32.608Z</time>
      </trkpt>
      <trkpt lat="46.87452" lon="8.49686">
        <ele>1567</ele>
        <time>2021-08-11T11:07:33.609Z</time>
      </trkpt>
      <trkpt lat="46.87453" lon="8.49685">
        <ele>1567</ele>
        <time>2021-08-11T11:07:34.609Z</time>
      </trkpt>
      <trkpt lat="46.87453" lon="8.49685">
        <ele>1567</ele>
        <time>2021-08-11T11:07:35.609Z</time>
      </trkpt>
      <trkpt lat="46.87451" lon="8.49688">
        <ele>1570</ele>
        <time>2021-08-11T11:07:36.609Z</time>
      </trkpt>
      <trkpt lat="46.8745" lon="8.4969">
        <ele>1576</ele>
        <time>2021-08-11T11:07:37.610Z</time>
      </trkpt>
      <trkpt lat="46.87451" lon="8.4969">
        <ele>1576</ele>
        <time>2021-08-11T11:07:38.609Z</time>
      </trkpt>
      <trkpt lat="46.8745" lon="8.49691">
        <ele>1577</ele>
        <time>2021-08-11T11:07:39.609Z</time>
      </trkpt>
      <trkpt lat="46.87442" lon="8.49694">
        <ele>1582</ele>
        <time>2021-08-11T11:07:40.611Z</time>
      </trkpt>
      <trkpt lat="46.87443" lon="8.49693">
        <ele>1583</ele>
        <time>2021-08-11T11:07:41.611Z</time>
      </trkpt>
      <trkpt lat="46.87444" lon="8.49693">
        <ele>1583</ele>
        <time>2021-08-11T11:07:42.610Z</time>
      </trkpt>
      <trkpt lat="46.87444" lon="8.49693">
        <ele>1584</ele>
        <time>2021-08-11T11:07:43.610Z</time>
      </trkpt>
      <trkpt lat="46.87443" lon="8.49695">
        <ele>1587</ele>
        <time>2021-08-11T11:07:44.612Z</time>
      </trkpt>
      <trkpt lat="46.87443" lon="8.49695">
        <ele>1587</ele>
        <time>2021-08-11T11:07:45.611Z</time>
      </trkpt>
      <trkpt lat="46.87444" lon="8.49697">
        <ele>1584</ele>
        <time>2021-08-11T11:07:46.612Z</time>
      </trkpt>
      <trkpt lat="46.87444" lon="8.49697">
        <ele>1583</ele>
        <time>2021-08-11T11:07:47.612Z</time>
      </trkpt>
      <trkpt lat="46.87443" lon="8.49699">
        <ele>1584</ele>
        <time>2021-08-11T11:07:48.612Z</time>
      </trkpt>
      <trkpt lat="46.87442" lon="8.497">
        <ele>1587</ele>
        <time>2021-08-11T11:07:49.613Z</time>
      </trkpt>
      <trkpt lat="46.87442" lon="8.497">
        <ele>1587</ele>
        <time>2021-08-11T11:07:50.613Z</time>
      </trkpt>
      <trkpt lat="46.87442" lon="8.49699">
        <ele>1587</ele>
        <time>2021-08-11T11:07:51.612Z</time>
      </trkpt>
      <trkpt lat="46.87443" lon="8.49699">
        <ele>1586</ele>
        <time>2021-08-11T11:07:52.612Z</time>
      </trkpt>
      <trkpt lat="46.87443" lon="8.49699">
        <ele>1586</ele>
        <time>2021-08-11T11:07:53.613Z</time>
      </trkpt>
      <trkpt lat="46.87442" lon="8.49699">
        <ele>1586</ele>
        <time>2021-08-11T11:07:54.612Z</time>
      </trkpt>
      <trkpt lat="46.87441" lon="8.49699">
        <ele>1586</ele>
        <time>2021-08-11T11:07:55.613Z</time>
      </trkpt>
      <trkpt lat="46.87441" lon="8.49699">
        <ele>1585</ele>
        <time>2021-08-11T11:07:56.612Z</time>
      </trkpt>
      <trkpt lat="46.87441" lon="8.49698">
        <ele>1585</ele>
        <time>2021-08-11T11:07:57.613Z</time>
      </trkpt>
      <trkpt lat="46.8744" lon="8.49687">
        <ele>1562</ele>
        <time>2021-08-11T11:07:58.613Z</time>
      </trkpt>
      <trkpt lat="46.8744" lon="8.49688">
        <ele>1562</ele>
        <time>2021-08-11T11:07:59.613Z</time>
      </trkpt>
      <trkpt lat="46.87439" lon="8.49687">
        <ele>1561</ele>
        <time>2021-08-11T11:08:00.613Z</time>
      </trkpt>
      <trkpt lat="46.8744" lon="8.49687">
        <ele>1561</ele>
        <time>2021-08-11T11:08:01.612Z</time>
      </trkpt>
      <trkpt lat="46.87435" lon="8.49688">
        <ele>1560</ele>
        <time>2021-08-11T11:08:02.614Z</time>
      </trkpt>
      <trkpt lat="46.87435" lon="8.49687">
        <ele>1559</ele>
        <time>2021-08-11T11:08:03.614Z</time>
      </trkpt>
      <trkpt lat="46.87435" lon="8.49686">
        <ele>1559</ele>
        <time>2021-08-11T11:08:04.613Z</time>
      </trkpt>
      <trkpt lat="46.87438" lon="8.49683">
        <ele>1558</ele>
        <time>2021-08-11T11:08:05.614Z</time>
      </trkpt>
      <trkpt lat="46.87437" lon="8.49683">
        <ele>1558</ele>
        <time>2021-08-11T11:08:06.613Z</time>
      </trkpt>
      <trkpt lat="46.87437" lon="8.49682">
        <ele>1558</ele>
        <time>2021-08-11T11:08:07.614Z</time>
      </trkpt>
      <trkpt lat="46.87437" lon="8.49682">
        <ele>1558</ele>
        <time>2021-08-11T11:08:08.614Z</time>
      </trkpt>
      <trkpt lat="46.87437" lon="8.49681">
        <ele>1559</ele>
        <time>2021-08-11T11:08:10.719Z</time>
      </trkpt>
      <trkpt lat="46.87438" lon="8.49681">
        <ele>1558</ele>
        <time>2021-08-11T11:08:11.719Z</time>
      </trkpt>
      <trkpt lat="46.87439" lon="8.4968">
        <ele>1558</ele>
        <time>2021-08-11T11:08:12.719Z</time>
      </trkpt>
      <trkpt lat="46.8744" lon="8.49679">
        <ele>1558</ele>
        <time>2021-08-11T11:08:13.718Z</time>
      </trkpt>
      <trkpt lat="46.8744" lon="8.49678">
        <ele>1558</ele>
        <time>2021-08-11T11:08:14.719Z</time>
      </trkpt>
      <trkpt lat="46.8744" lon="8.49677">
        <ele>1558</ele>
        <time>2021-08-11T11:08:15.719Z</time>
      </trkpt>
      <trkpt lat="46.87441" lon="8.49679">
        <ele>1557</ele>
        <time>2021-08-11T11:08:16.719Z</time>
      </trkpt>
      <trkpt lat="46.8744" lon="8.49679">
        <ele>1557</ele>
        <time>2021-08-11T11:08:17.721Z</time>
      </trkpt>
      <trkpt lat="46.87441" lon="8.49679">
        <ele>1556</ele>
        <time>2021-08-11T11:08:18.720Z</time>
      </trkpt>
      <trkpt lat="46.8744" lon="8.4968">
        <ele>1556</ele>
        <time>2021-08-11T11:08:19.721Z</time>
      </trkpt>
      <trkpt lat="46.8744" lon="8.4968">
        <ele>1556</ele>
        <time>2021-08-11T11:08:20.720Z</time>
      </trkpt>
      <trkpt lat="46.87441" lon="8.4968">
        <ele>1556</ele>
        <time>2021-08-11T11:08:21.721Z</time>
      </trkpt>
      <trkpt lat="46.87441" lon="8.4968">
        <ele>1557</ele>
        <time>2021-08-11T11:08:22.721Z</time>
      </trkpt>
      <trkpt lat="46.87441" lon="8.49681">
        <ele>1553</ele>
        <time>2021-08-11T11:08:23.722Z</time>
      </trkpt>
      <trkpt lat="46.87441" lon="8.49681">
        <ele>1554</ele>
        <time>2021-08-11T11:08:24.722Z</time>
      </trkpt>
      <trkpt lat="46.87441" lon="8.49682">
        <ele>1554</ele>
        <time>2021-08-11T11:08:25.723Z</time>
      </trkpt>
      <trkpt lat="46.87441" lon="8.49682">
        <ele>1554</ele>
        <time>2021-08-11T11:08:26.722Z</time>
      </trkpt>
      <trkpt lat="46.87441" lon="8.49682">
        <ele>1554</ele>
        <time>2021-08-11T11:08:27.722Z</time>
      </trkpt>
      <trkpt lat="46.87442" lon="8.49682">
        <ele>1554</ele>
        <time>2021-08-11T11:08:28.724Z</time>
      </trkpt>
      <trkpt lat="46.87441" lon="8.49682">
        <ele>1554</ele>
        <time>2021-08-11T11:08:29.724Z</time>
      </trkpt>
      <trkpt lat="46.87442" lon="8.49682">
        <ele>1554</ele>
        <time>2021-08-11T11:08:30.723Z</time>
      </trkpt>
      <trkpt lat="46.87441" lon="8.49682">
        <ele>1555</ele>
        <time>2021-08-11T11:08:31.723Z</time>
      </trkpt>
      <trkpt lat="46.87442" lon="8.49682">
        <ele>1556</ele>
        <time>2021-08-11T11:08:32.724Z</time>
      </trkpt>
      <trkpt lat="46.87443" lon="8.49682">
        <ele>1556</ele>
        <time>2021-08-11T11:08:33.723Z</time>
      </trkpt>
      <trkpt lat="46.87443" lon="8.49682">
        <ele>1557</ele>
        <time>2021-08-11T11:08:34.724Z</time>
      </trkpt>
      <trkpt lat="46.87444" lon="8.49682">
        <ele>1557</ele>
        <time>2021-08-11T11:08:38.738Z</time>
      </trkpt>
      <trkpt lat="46.87443" lon="8.49682">
        <ele>1557</ele>
        <time>2021-08-11T11:08:40.475Z</time>
      </trkpt>
      <trkpt lat="46.87443" lon="8.49684">
        <ele>1558</ele>
        <time>2021-08-11T11:08:41.477Z</time>
      </trkpt>
      <trkpt lat="46.87443" lon="8.49683">
        <ele>1555</ele>
        <time>2021-08-11T11:08:42.479Z</time>
      </trkpt>
      <trkpt lat="46.87443" lon="8.49683">
        <ele>1555</ele>
        <time>2021-08-11T11:08:43.478Z</time>
      </trkpt>
      <trkpt lat="46.87443" lon="8.49683">
        <ele>1554</ele>
        <time>2021-08-11T11:08:59.495Z</time>
      </trkpt>
      <trkpt lat="46.87442" lon="8.49683">
        <ele>1554</ele>
        <time>2021-08-11T11:09:00.496Z</time>
      </trkpt>
      <trkpt lat="46.87443" lon="8.49681">
        <ele>1550</ele>
        <time>2021-08-11T11:09:01.496Z</time>
      </trkpt>
      <trkpt lat="46.87444" lon="8.4968">
        <ele>1550</ele>
        <time>2021-08-11T11:09:02.496Z</time>
      </trkpt>
      <trkpt lat="46.87444" lon="8.49681">
        <ele>1550</ele>
        <time>2021-08-11T11:09:15.645Z</time>
      </trkpt>
      <trkpt lat="46.87444" lon="8.49681">
        <ele>1550</ele>
        <time>2021-08-11T11:09:16.646Z</time>
      </trkpt>
      <trkpt lat="46.87444" lon="8.49681">
        <ele>1551</ele>
        <time>2021-08-11T11:09:17.646Z</time>
      </trkpt>
      <trkpt lat="46.87445" lon="8.49678">
        <ele>1552</ele>
        <time>2021-08-11T11:09:18.522Z</time>
      </trkpt>
      <trkpt lat="46.87445" lon="8.49678">
        <ele>1553</ele>
        <time>2021-08-11T11:09:19.522Z</time>
      </trkpt>
      <trkpt lat="46.87445" lon="8.49677">
        <ele>1557</ele>
        <time>2021-08-11T11:09:20.523Z</time>
      </trkpt>
      <trkpt lat="46.87445" lon="8.49677">
        <ele>1557</ele>
        <time>2021-08-11T11:09:21.522Z</time>
      </trkpt>
      <trkpt lat="46.87444" lon="8.49678">
        <ele>1557</ele>
        <time>2021-08-11T11:09:22.524Z</time>
      </trkpt>
      <trkpt lat="46.87443" lon="8.49681">
        <ele>1557</ele>
        <time>2021-08-11T11:09:23.525Z</time>
      </trkpt>
      <trkpt lat="46.87442" lon="8.49681">
        <ele>1557</ele>
        <time>2021-08-11T11:09:30.667Z</time>
      </trkpt>
      <trkpt lat="46.87442" lon="8.4968">
        <ele>1557</ele>
        <time>2021-08-11T11:09:31.666Z</time>
      </trkpt>
      <trkpt lat="46.87442" lon="8.4968">
        <ele>1560</ele>
        <time>2021-08-11T11:09:33.510Z</time>
      </trkpt>
      <trkpt lat="46.87443" lon="8.49679">
        <ele>1559</ele>
        <time>2021-08-11T11:09:34.510Z</time>
      </trkpt>
      <trkpt lat="46.87443" lon="8.49679">
        <ele>1559</ele>
        <time>2021-08-11T11:09:35.510Z</time>
      </trkpt>
      <trkpt lat="46.87444" lon="8.49679">
        <ele>1559</ele>
        <time>2021-08-11T11:09:36.511Z</time>
      </trkpt>
      <trkpt lat="46.87444" lon="8.49679">
        <ele>1559</ele>
        <time>2021-08-11T11:09:37.510Z</time>
      </trkpt>
      <trkpt lat="46.87444" lon="8.49679">
        <ele>1559</ele>
        <time>2021-08-11T11:09:38.511Z</time>
      </trkpt>
      <trkpt lat="46.87445" lon="8.49679">
        <ele>1558</ele>
        <time>2021-08-11T11:09:39.511Z</time>
      </trkpt>
      <trkpt lat="46.87445" lon="8.49678">
        <ele>1558</ele>
        <time>2021-08-11T11:09:40.511Z</time>
      </trkpt>
      <trkpt lat="46.87445" lon="8.49678">
        <ele>1558</ele>
        <time>2021-08-11T11:09:41.511Z</time>
      </trkpt>
      <trkpt lat="46.87443" lon="8.49679">
        <ele>1557</ele>
        <time>2021-08-11T11:09:42.510Z</time>
      </trkpt>
      <trkpt lat="46.87443" lon="8.49679">
        <ele>1557</ele>
        <time>2021-08-11T11:09:43.511Z</time>
      </trkpt>
      <trkpt lat="46.87443" lon="8.49679">
        <ele>1557</ele>
        <time>2021-08-11T11:09:44.511Z</time>
      </trkpt>
      <trkpt lat="46.87443" lon="8.49678">
        <ele>1557</ele>
        <time>2021-08-11T11:09:45.511Z</time>
      </trkpt>
      <trkpt lat="46.87442" lon="8.49679">
        <ele>1556</ele>
        <time>2021-08-11T11:09:46.511Z</time>
      </trkpt>
      <trkpt lat="46.87442" lon="8.4968">
        <ele>1556</ele>
        <time>2021-08-11T11:09:47.511Z</time>
      </trkpt>
      <trkpt lat="46.87442" lon="8.49682">
        <ele>1554</ele>
        <time>2021-08-11T11:09:48.511Z</time>
      </trkpt>
      <trkpt lat="46.87441" lon="8.49682">
        <ele>1554</ele>
        <time>2021-08-11T11:09:49.510Z</time>
      </trkpt>
      <trkpt lat="46.87441" lon="8.49683">
        <ele>1554</ele>
        <time>2021-08-11T11:09:50.511Z</time>
      </trkpt>
      <trkpt lat="46.8744" lon="8.49682">
        <ele>1557</ele>
        <time>2021-08-11T11:09:51.512Z</time>
      </trkpt>
      <trkpt lat="46.8744" lon="8.49682">
        <ele>1557</ele>
        <time>2021-08-11T11:09:52.511Z</time>
      </trkpt>
      <trkpt lat="46.87441" lon="8.49682">
        <ele>1556</ele>
        <time>2021-08-11T11:09:53.511Z</time>
      </trkpt>
      <trkpt lat="46.87439" lon="8.49684">
        <ele>1561</ele>
        <time>2021-08-11T11:09:54.511Z</time>
      </trkpt>
      <trkpt lat="46.8744" lon="8.49685">
        <ele>1560</ele>
        <time>2021-08-11T11:09:55.511Z</time>
      </trkpt>
      <trkpt lat="46.8744" lon="8.49685">
        <ele>1560</ele>
        <time>2021-08-11T11:09:56.511Z</time>
      </trkpt>
      <trkpt lat="46.87441" lon="8.49685">
        <ele>1560</ele>
        <time>2021-08-11T11:09:57.512Z</time>
      </trkpt>
      <trkpt lat="46.87441" lon="8.49684">
        <ele>1560</ele>
        <time>2021-08-11T11:09:58.514Z</time>
      </trkpt>
      <trkpt lat="46.87441" lon="8.49684">
        <ele>1560</ele>
        <time>2021-08-11T11:09:59.513Z</time>
      </trkpt>
      <trkpt lat="46.87442" lon="8.49683">
        <ele>1559</ele>
        <time>2021-08-11T11:10:00.515Z</time>
      </trkpt>
      <trkpt lat="46.87442" lon="8.49683">
        <ele>1559</ele>
        <time>2021-08-11T11:10:01.515Z</time>
      </trkpt>
      <trkpt lat="46.87443" lon="8.49683">
        <ele>1558</ele>
        <time>2021-08-11T11:10:02.514Z</time>
      </trkpt>
      <trkpt lat="46.87442" lon="8.4968">
        <ele>1551</ele>
        <time>2021-08-11T11:10:03.515Z</time>
      </trkpt>
      <trkpt lat="46.87442" lon="8.49679">
        <ele>1551</ele>
        <time>2021-08-11T11:10:04.516Z</time>
      </trkpt>
      <trkpt lat="46.87443" lon="8.49679">
        <ele>1551</ele>
        <time>2021-08-11T11:10:05.515Z</time>
      </trkpt>
      <trkpt lat="46.87443" lon="8.49679">
        <ele>1551</ele>
        <time>2021-08-11T11:10:06.516Z</time>
      </trkpt>
      <trkpt lat="46.87443" lon="8.49679">
        <ele>1552</ele>
        <time>2021-08-11T11:10:07.516Z</time>
      </trkpt>
      <trkpt lat="46.87442" lon="8.4968">
        <ele>1552</ele>
        <time>2021-08-11T11:10:08.516Z</time>
      </trkpt>
      <trkpt lat="46.87442" lon="8.4968">
        <ele>1552</ele>
        <time>2021-08-11T11:10:09.516Z</time>
      </trkpt>
      <trkpt lat="46.87439" lon="8.49685">
        <ele>1558</ele>
        <time>2021-08-11T11:10:16.505Z</time>
      </trkpt>
      <trkpt lat="46.87442" lon="8.4968">
        <ele>1556</ele>
        <time>2021-08-11T11:10:17.505Z</time>
      </trkpt>
      <trkpt lat="46.87442" lon="8.4968">
        <ele>1556</ele>
        <time>2021-08-11T11:10:24.276Z</time>
      </trkpt>
      <trkpt lat="46.87442" lon="8.4968">
        <ele>1555</ele>
        <time>2021-08-11T11:10:25.275Z</time>
      </trkpt>
      <trkpt lat="46.87442" lon="8.4968">
        <ele>1555</ele>
        <time>2021-08-11T11:10:26.276Z</time>
      </trkpt>
      <trkpt lat="46.87442" lon="8.4968">
        <ele>1555</ele>
        <time>2021-08-11T11:10:27.276Z</time>
      </trkpt>
      <trkpt lat="46.87442" lon="8.49681">
        <ele>1556</ele>
        <time>2021-08-11T11:10:31.404Z</time>
      </trkpt>
      <trkpt lat="46.87441" lon="8.49681">
        <ele>1556</ele>
        <time>2021-08-11T11:10:32.404Z</time>
      </trkpt>
      <trkpt lat="46.87441" lon="8.49681">
        <ele>1556</ele>
        <time>2021-08-11T11:10:33.404Z</time>
      </trkpt>
      <trkpt lat="46.87441" lon="8.49681">
        <ele>1556</ele>
        <time>2021-08-11T11:10:34.405Z</time>
      </trkpt>
      <trkpt lat="46.87441" lon="8.49682">
        <ele>1555</ele>
        <time>2021-08-11T11:10:35.404Z</time>
      </trkpt>
      <trkpt lat="46.8744" lon="8.49682">
        <ele>1555</ele>
        <time>2021-08-11T11:10:36.405Z</time>
      </trkpt>
      <trkpt lat="46.8744" lon="8.49682">
        <ele>1555</ele>
        <time>2021-08-11T11:10:37.405Z</time>
      </trkpt>
      <trkpt lat="46.8744" lon="8.49683">
        <ele>1553</ele>
        <time>2021-08-11T11:10:38.405Z</time>
      </trkpt>
      <trkpt lat="46.87439" lon="8.49684">
        <ele>1553</ele>
        <time>2021-08-11T11:10:39.406Z</time>
      </trkpt>
      <trkpt lat="46.87439" lon="8.49684">
        <ele>1556</ele>
        <time>2021-08-11T11:10:40.406Z</time>
      </trkpt>
      <trkpt lat="46.87439" lon="8.49683">
        <ele>1556</ele>
        <time>2021-08-11T11:10:41.406Z</time>
      </trkpt>
      <trkpt lat="46.87437" lon="8.49684">
        <ele>1558</ele>
        <time>2021-08-11T11:10:42.406Z</time>
      </trkpt>
      <trkpt lat="46.87437" lon="8.49685">
        <ele>1558</ele>
        <time>2021-08-11T11:10:43.406Z</time>
      </trkpt>
      <trkpt lat="46.87436" lon="8.49685">
        <ele>1559</ele>
        <time>2021-08-11T11:10:44.407Z</time>
      </trkpt>
      <trkpt lat="46.87436" lon="8.49685">
        <ele>1559</ele>
        <time>2021-08-11T11:10:45.406Z</time>
      </trkpt>
      <trkpt lat="46.87437" lon="8.49687">
        <ele>1558</ele>
        <time>2021-08-11T11:10:46.406Z</time>
      </trkpt>
      <trkpt lat="46.87437" lon="8.49686">
        <ele>1558</ele>
        <time>2021-08-11T11:10:47.406Z</time>
      </trkpt>
      <trkpt lat="46.87441" lon="8.49681">
        <ele>1558</ele>
        <time>2021-08-11T11:10:48.407Z</time>
      </trkpt>
      <trkpt lat="46.87441" lon="8.49681">
        <ele>1558</ele>
        <time>2021-08-11T11:10:49.407Z</time>
      </trkpt>
      <trkpt lat="46.87442" lon="8.4968">
        <ele>1558</ele>
        <time>2021-08-11T11:10:50.406Z</time>
      </trkpt>
      <trkpt lat="46.87441" lon="8.49683">
        <ele>1560</ele>
        <time>2021-08-11T11:10:51.407Z</time>
      </trkpt>
      <trkpt lat="46.8744" lon="8.49684">
        <ele>1561</ele>
        <time>2021-08-11T11:10:52.407Z</time>
      </trkpt>
      <trkpt lat="46.87439" lon="8.49684">
        <ele>1562</ele>
        <time>2021-08-11T11:10:53.406Z</time>
      </trkpt>
      <trkpt lat="46.87438" lon="8.49685">
        <ele>1563</ele>
        <time>2021-08-11T11:10:54.407Z</time>
      </trkpt>
      <trkpt lat="46.87438" lon="8.49686">
        <ele>1564</ele>
        <time>2021-08-11T11:10:55.407Z</time>
      </trkpt>
      <trkpt lat="46.8744" lon="8.49683">
        <ele>1565</ele>
        <time>2021-08-11T11:10:56.407Z</time>
      </trkpt>
      <trkpt lat="46.8744" lon="8.49682">
        <ele>1564</ele>
        <time>2021-08-11T11:10:57.407Z</time>
      </trkpt>
      <trkpt lat="46.87441" lon="8.49682">
        <ele>1564</ele>
        <time>2021-08-11T11:10:58.407Z</time>
      </trkpt>
      <trkpt lat="46.87441" lon="8.49681">
        <ele>1564</ele>
        <time>2021-08-11T11:11:03.531Z</time>
      </trkpt>
      <trkpt lat="46.87441" lon="8.49681">
        <ele>1564</ele>
        <time>2021-08-11T11:11:04.530Z</time>
      </trkpt>
      <trkpt lat="46.87442" lon="8.49681">
        <ele>1564</ele>
        <time>2021-08-11T11:11:05.530Z</time>
      </trkpt>
      <trkpt lat="46.87441" lon="8.49682">
        <ele>1561</ele>
        <time>2021-08-11T11:11:06.531Z</time>
      </trkpt>
      <trkpt lat="46.8744" lon="8.49682">
        <ele>1561</ele>
        <time>2021-08-11T11:11:07.531Z</time>
      </trkpt>
      <trkpt lat="46.8744" lon="8.49682">
        <ele>1561</ele>
        <time>2021-08-11T11:11:08.531Z</time>
      </trkpt>
      <trkpt lat="46.8744" lon="8.49683">
        <ele>1561</ele>
        <time>2021-08-11T11:11:09.531Z</time>
      </trkpt>
      <trkpt lat="46.87439" lon="8.49683">
        <ele>1560</ele>
        <time>2021-08-11T11:11:10.530Z</time>
      </trkpt>
      <trkpt lat="46.87439" lon="8.49683">
        <ele>1560</ele>
        <time>2021-08-11T11:11:11.531Z</time>
      </trkpt>
      <trkpt lat="46.87441" lon="8.49685">
        <ele>1554</ele>
        <time>2021-08-11T11:11:12.531Z</time>
      </trkpt>
      <trkpt lat="46.8744" lon="8.49683">
        <ele>1553</ele>
        <time>2021-08-11T11:11:13.532Z</time>
      </trkpt>
      <trkpt lat="46.8744" lon="8.49683">
        <ele>1553</ele>
        <time>2021-08-11T11:11:14.532Z</time>
      </trkpt>
      <trkpt lat="46.8744" lon="8.49682">
        <ele>1553</ele>
        <time>2021-08-11T11:11:15.531Z</time>
      </trkpt>
      <trkpt lat="46.87442" lon="8.49683">
        <ele>1556</ele>
        <time>2021-08-11T11:11:23.634Z</time>
      </trkpt>
      <trkpt lat="46.87442" lon="8.49683">
        <ele>1557</ele>
        <time>2021-08-11T11:11:24.634Z</time>
      </trkpt>
      <trkpt lat="46.87441" lon="8.49683">
        <ele>1557</ele>
        <time>2021-08-11T11:11:26.370Z</time>
      </trkpt>
      <trkpt lat="46.87443" lon="8.49683">
        <ele>1558</ele>
        <time>2021-08-11T11:11:27.371Z</time>
      </trkpt>
      <trkpt lat="46.87444" lon="8.49682">
        <ele>1559</ele>
        <time>2021-08-11T11:11:28.370Z</time>
      </trkpt>
      <trkpt lat="46.87443" lon="8.49682">
        <ele>1559</ele>
        <time>2021-08-11T11:11:29.370Z</time>
      </trkpt>
      <trkpt lat="46.87443" lon="8.49682">
        <ele>1559</ele>
        <time>2021-08-11T11:11:30.370Z</time>
      </trkpt>
      <trkpt lat="46.87443" lon="8.49682">
        <ele>1559</ele>
        <time>2021-08-11T11:11:31.371Z</time>
      </trkpt>
      <trkpt lat="46.87443" lon="8.49682">
        <ele>1559</ele>
        <time>2021-08-11T11:11:32.371Z</time>
      </trkpt>
      <trkpt lat="46.87441" lon="8.49683">
        <ele>1561</ele>
        <time>2021-08-11T11:11:33.373Z</time>
      </trkpt>
      <trkpt lat="46.87441" lon="8.49683">
        <ele>1561</ele>
        <time>2021-08-11T11:11:34.373Z</time>
      </trkpt>
      <trkpt lat="46.87441" lon="8.49683">
        <ele>1561</ele>
        <time>2021-08-11T11:11:35.373Z</time>
      </trkpt>
      <trkpt lat="46.87442" lon="8.49682">
        <ele>1561</ele>
        <time>2021-08-11T11:11:36.373Z</time>
      </trkpt>
      <trkpt lat="46.87442" lon="8.49682">
        <ele>1560</ele>
        <time>2021-08-11T11:11:37.373Z</time>
      </trkpt>
      <trkpt lat="46.8744" lon="8.49683">
        <ele>1560</ele>
        <time>2021-08-11T11:11:38.372Z</time>
      </trkpt>
      <trkpt lat="46.8744" lon="8.49683">
        <ele>1560</ele>
        <time>2021-08-11T11:11:39.372Z</time>
      </trkpt>
      <trkpt lat="46.8744" lon="8.49683">
        <ele>1560</ele>
        <time>2021-08-11T11:11:40.372Z</time>
      </trkpt>
      <trkpt lat="46.8744" lon="8.49683">
        <ele>1559</ele>
        <time>2021-08-11T11:11:41.372Z</time>
      </trkpt>
      <trkpt lat="46.8744" lon="8.49682">
        <ele>1557</ele>
        <time>2021-08-11T11:11:45.408Z</time>
      </trkpt>
      <trkpt lat="46.87441" lon="8.49682">
        <ele>1556</ele>
        <time>2021-08-11T11:11:46.409Z</time>
      </trkpt>
      <trkpt lat="46.87444" lon="8.4968">
        <ele>1554</ele>
        <time>2021-08-11T11:11:48.270Z</time>
      </trkpt>
      <trkpt lat="46.87444" lon="8.49679">
        <ele>1554</ele>
        <time>2021-08-11T11:11:49.270Z</time>
      </trkpt>
      <trkpt lat="46.87444" lon="8.4968">
        <ele>1554</ele>
        <time>2021-08-11T11:11:50.270Z</time>
      </trkpt>
      <trkpt lat="46.87444" lon="8.4968">
        <ele>1553</ele>
        <time>2021-08-11T11:11:56.281Z</time>
      </trkpt>
      <trkpt lat="46.87443" lon="8.4968">
        <ele>1554</ele>
        <time>2021-08-11T11:11:57.282Z</time>
      </trkpt>
      <trkpt lat="46.87443" lon="8.4968">
        <ele>1555</ele>
        <time>2021-08-11T11:11:58.282Z</time>
      </trkpt>
      <trkpt lat="46.87443" lon="8.49679">
        <ele>1557</ele>
        <time>2021-08-11T11:11:59.283Z</time>
      </trkpt>
      <trkpt lat="46.87443" lon="8.49679">
        <ele>1557</ele>
        <time>2021-08-11T11:12:00.283Z</time>
      </trkpt>
      <trkpt lat="46.87442" lon="8.4968">
        <ele>1558</ele>
        <time>2021-08-11T11:12:01.283Z</time>
      </trkpt>
      <trkpt lat="46.87442" lon="8.4968">
        <ele>1558</ele>
        <time>2021-08-11T11:12:02.282Z</time>
      </trkpt>
      <trkpt lat="46.87442" lon="8.4968">
        <ele>1558</ele>
        <time>2021-08-11T11:12:03.282Z</time>
      </trkpt>
      <trkpt lat="46.87441" lon="8.49681">
        <ele>1558</ele>
        <time>2021-08-11T11:12:04.283Z</time>
      </trkpt>
      <trkpt lat="46.8744" lon="8.49681">
        <ele>1558</ele>
        <time>2021-08-11T11:12:05.284Z</time>
      </trkpt>
      <trkpt lat="46.8744" lon="8.49681">
        <ele>1559</ele>
        <time>2021-08-11T11:12:06.283Z</time>
      </trkpt>
      <trkpt lat="46.87438" lon="8.49682">
        <ele>1561</ele>
        <time>2021-08-11T11:12:07.284Z</time>
      </trkpt>
      <trkpt lat="46.87437" lon="8.49683">
        <ele>1561</ele>
        <time>2021-08-11T11:12:08.284Z</time>
      </trkpt>
      <trkpt lat="46.87437" lon="8.49683">
        <ele>1561</ele>
        <time>2021-08-11T11:12:09.283Z</time>
      </trkpt>
      <trkpt lat="46.87436" lon="8.49683">
        <ele>1561</ele>
        <time>2021-08-11T11:12:10.283Z</time>
      </trkpt>
      <trkpt lat="46.87436" lon="8.49684">
        <ele>1561</ele>
        <time>2021-08-11T11:12:11.284Z</time>
      </trkpt>
      <trkpt lat="46.87436" lon="8.49684">
        <ele>1561</ele>
        <time>2021-08-11T11:12:12.284Z</time>
      </trkpt>
      <trkpt lat="46.87436" lon="8.49684">
        <ele>1561</ele>
        <time>2021-08-11T11:12:13.283Z</time>
      </trkpt>
      <trkpt lat="46.87436" lon="8.49684">
        <ele>1561</ele>
        <time>2021-08-11T11:12:14.283Z</time>
      </trkpt>
      <trkpt lat="46.87436" lon="8.49684">
        <ele>1562</ele>
        <time>2021-08-11T11:12:15.284Z</time>
      </trkpt>
      <trkpt lat="46.87436" lon="8.49685">
        <ele>1562</ele>
        <time>2021-08-11T11:12:16.283Z</time>
      </trkpt>
      <trkpt lat="46.87436" lon="8.49686">
        <ele>1562</ele>
        <time>2021-08-11T11:12:17.284Z</time>
      </trkpt>
      <trkpt lat="46.87436" lon="8.49686">
        <ele>1562</ele>
        <time>2021-08-11T11:12:18.284Z</time>
      </trkpt>
      <trkpt lat="46.87437" lon="8.49685">
        <ele>1562</ele>
        <time>2021-08-11T11:12:19.284Z</time>
      </trkpt>
      <trkpt lat="46.87435" lon="8.49687">
        <ele>1563</ele>
        <time>2021-08-11T11:12:20.284Z</time>
      </trkpt>
      <trkpt lat="46.87438" lon="8.49684">
        <ele>1564</ele>
        <time>2021-08-11T11:12:21.284Z</time>
      </trkpt>
      <trkpt lat="46.87437" lon="8.49684">
        <ele>1563</ele>
        <time>2021-08-11T11:12:22.285Z</time>
      </trkpt>
      <trkpt lat="46.87437" lon="8.49684">
        <ele>1563</ele>
        <time>2021-08-11T11:12:23.284Z</time>
      </trkpt>
      <trkpt lat="46.87438" lon="8.49684">
        <ele>1562</ele>
        <time>2021-08-11T11:12:29.391Z</time>
      </trkpt>
      <trkpt lat="46.87438" lon="8.49684">
        <ele>1562</ele>
        <time>2021-08-11T11:12:30.392Z</time>
      </trkpt>
      <trkpt lat="46.87439" lon="8.49684">
        <ele>1561</ele>
        <time>2021-08-11T11:12:31.393Z</time>
      </trkpt>
      <trkpt lat="46.8744" lon="8.49681">
        <ele>1565</ele>
        <time>2021-08-11T11:12:32.392Z</time>
      </trkpt>
      <trkpt lat="46.8744" lon="8.49681">
        <ele>1565</ele>
        <time>2021-08-11T11:12:33.393Z</time>
      </trkpt>
      <trkpt lat="46.8744" lon="8.49681">
        <ele>1565</ele>
        <time>2021-08-11T11:12:34.392Z</time>
      </trkpt>
      <trkpt lat="46.8744" lon="8.4968">
        <ele>1565</ele>
        <time>2021-08-11T11:12:35.392Z</time>
      </trkpt>
      <trkpt lat="46.8744" lon="8.4968">
        <ele>1565</ele>
        <time>2021-08-11T11:12:36.392Z</time>
      </trkpt>
      <trkpt lat="46.8744" lon="8.4968">
        <ele>1565</ele>
        <time>2021-08-11T11:12:43.388Z</time>
      </trkpt>
      <trkpt lat="46.8744" lon="8.49679">
        <ele>1565</ele>
        <time>2021-08-11T11:12:44.388Z</time>
      </trkpt>
      <trkpt lat="46.87441" lon="8.49679">
        <ele>1565</ele>
        <time>2021-08-11T11:12:45.390Z</time>
      </trkpt>
      <trkpt lat="46.87441" lon="8.49678">
        <ele>1565</ele>
        <time>2021-08-11T11:12:46.389Z</time>
      </trkpt>
      <trkpt lat="46.87441" lon="8.49678">
        <ele>1565</ele>
        <time>2021-08-11T11:12:47.389Z</time>
      </trkpt>
      <trkpt lat="46.87442" lon="8.49678">
        <ele>1565</ele>
        <time>2021-08-11T11:12:48.390Z</time>
      </trkpt>
      <trkpt lat="46.87442" lon="8.49678">
        <ele>1565</ele>
        <time>2021-08-11T11:13:08.534Z</time>
      </trkpt>
      <trkpt lat="46.87441" lon="8.49679">
        <ele>1565</ele>
        <time>2021-08-11T11:13:09.535Z</time>
      </trkpt>
      <trkpt lat="46.87441" lon="8.4968">
        <ele>1566</ele>
        <time>2021-08-11T11:13:10.535Z</time>
      </trkpt>
      <trkpt lat="46.87441" lon="8.4968">
        <ele>1566</ele>
        <time>2021-08-11T11:13:15.563Z</time>
      </trkpt>
      <trkpt lat="46.87441" lon="8.4968">
        <ele>1565</ele>
        <time>2021-08-11T11:13:16.564Z</time>
      </trkpt>
      <trkpt lat="46.8744" lon="8.49681">
        <ele>1565</ele>
        <time>2021-08-11T11:13:17.564Z</time>
      </trkpt>
      <trkpt lat="46.87439" lon="8.4968">
        <ele>1562</ele>
        <time>2021-08-11T11:13:18.564Z</time>
      </trkpt>
      <trkpt lat="46.87439" lon="8.4968">
        <ele>1562</ele>
        <time>2021-08-11T11:13:19.563Z</time>
      </trkpt>
      <trkpt lat="46.8744" lon="8.4968">
        <ele>1562</ele>
        <time>2021-08-11T11:13:32.665Z</time>
      </trkpt>
      <trkpt lat="46.87441" lon="8.49679">
        <ele>1562</ele>
        <time>2021-08-11T11:13:33.665Z</time>
      </trkpt>
      <trkpt lat="46.87441" lon="8.49679">
        <ele>1561</ele>
        <time>2021-08-11T11:13:34.666Z</time>
      </trkpt>
      <trkpt lat="46.87442" lon="8.49679">
        <ele>1561</ele>
        <time>2021-08-11T11:13:36.752Z</time>
      </trkpt>
      <trkpt lat="46.87441" lon="8.49679">
        <ele>1561</ele>
        <time>2021-08-11T11:13:37.752Z</time>
      </trkpt>
      <trkpt lat="46.87441" lon="8.4968">
        <ele>1560</ele>
        <time>2021-08-11T11:13:38.752Z</time>
      </trkpt>
      <trkpt lat="46.87441" lon="8.4968">
        <ele>1560</ele>
        <time>2021-08-11T11:13:39.752Z</time>
      </trkpt>
      <trkpt lat="46.8744" lon="8.49679">
        <ele>1559</ele>
        <time>2021-08-11T11:13:40.752Z</time>
      </trkpt>
      <trkpt lat="46.8744" lon="8.49679">
        <ele>1560</ele>
        <time>2021-08-11T11:13:41.753Z</time>
      </trkpt>
      <trkpt lat="46.8744" lon="8.4968">
        <ele>1561</ele>
        <time>2021-08-11T11:13:42.753Z</time>
      </trkpt>
      <trkpt lat="46.87439" lon="8.4968">
        <ele>1561</ele>
        <time>2021-08-11T11:13:43.752Z</time>
      </trkpt>
      <trkpt lat="46.87439" lon="8.49681">
        <ele>1561</ele>
        <time>2021-08-11T11:13:44.752Z</time>
      </trkpt>
      <trkpt lat="46.87439" lon="8.49684">
        <ele>1559</ele>
        <time>2021-08-11T11:13:46.751Z</time>
      </trkpt>
      <trkpt lat="46.87439" lon="8.49684">
        <ele>1558</ele>
        <time>2021-08-11T11:13:47.750Z</time>
      </trkpt>
      <trkpt lat="46.87438" lon="8.49684">
        <ele>1558</ele>
        <time>2021-08-11T11:13:48.751Z</time>
      </trkpt>
      <trkpt lat="46.87438" lon="8.49684">
        <ele>1558</ele>
        <time>2021-08-11T11:13:49.750Z</time>
      </trkpt>
      <trkpt lat="46.87438" lon="8.49684">
        <ele>1558</ele>
        <time>2021-08-11T11:13:50.751Z</time>
      </trkpt>
      <trkpt lat="46.87438" lon="8.49684">
        <ele>1558</ele>
        <time>2021-08-11T11:13:55.788Z</time>
      </trkpt>
      <trkpt lat="46.87439" lon="8.49684">
        <ele>1559</ele>
        <time>2021-08-11T11:13:56.788Z</time>
      </trkpt>
      <trkpt lat="46.87439" lon="8.49684">
        <ele>1559</ele>
        <time>2021-08-11T11:13:57.787Z</time>
      </trkpt>
      <trkpt lat="46.87439" lon="8.49684">
        <ele>1559</ele>
        <time>2021-08-11T11:13:58.788Z</time>
      </trkpt>
      <trkpt lat="46.8744" lon="8.49684">
        <ele>1563</ele>
        <time>2021-08-11T11:13:59.788Z</time>
      </trkpt>
      <trkpt lat="46.8744" lon="8.49683">
        <ele>1563</ele>
        <time>2021-08-11T11:14:00.787Z</time>
      </trkpt>
      <trkpt lat="46.87441" lon="8.49682">
        <ele>1563</ele>
        <time>2021-08-11T11:14:01.787Z</time>
      </trkpt>
      <trkpt lat="46.87441" lon="8.49681">
        <ele>1563</ele>
        <time>2021-08-11T11:14:02.788Z</time>
      </trkpt>
      <trkpt lat="46.87441" lon="8.49681">
        <ele>1564</ele>
        <time>2021-08-11T11:14:03.788Z</time>
      </trkpt>
      <trkpt lat="46.8744" lon="8.49681">
        <ele>1564</ele>
        <time>2021-08-11T11:14:04.788Z</time>
      </trkpt>
      <trkpt lat="46.87439" lon="8.49682">
        <ele>1564</ele>
        <time>2021-08-11T11:14:05.787Z</time>
      </trkpt>
      <trkpt lat="46.87438" lon="8.49683">
        <ele>1564</ele>
        <time>2021-08-11T11:14:06.787Z</time>
      </trkpt>
      <trkpt lat="46.87438" lon="8.49684">
        <ele>1564</ele>
        <time>2021-08-11T11:14:07.788Z</time>
      </trkpt>
      <trkpt lat="46.87438" lon="8.49684">
        <ele>1564</ele>
        <time>2021-08-11T11:14:08.787Z</time>
      </trkpt>
      <trkpt lat="46.87437" lon="8.49684">
        <ele>1564</ele>
        <time>2021-08-11T11:14:09.788Z</time>
      </trkpt>
      <trkpt lat="46.87437" lon="8.49685">
        <ele>1564</ele>
        <time>2021-08-11T11:14:10.787Z</time>
      </trkpt>
      <trkpt lat="46.87436" lon="8.49685">
        <ele>1564</ele>
        <time>2021-08-11T11:14:11.788Z</time>
      </trkpt>
      <trkpt lat="46.87436" lon="8.49685">
        <ele>1564</ele>
        <time>2021-08-11T11:14:12.787Z</time>
      </trkpt>
      <trkpt lat="46.87437" lon="8.49685">
        <ele>1564</ele>
        <time>2021-08-11T11:14:13.788Z</time>
      </trkpt>
      <trkpt lat="46.87437" lon="8.49685">
        <ele>1564</ele>
        <time>2021-08-11T11:14:14.788Z</time>
      </trkpt>
      <trkpt lat="46.87437" lon="8.49684">
        <ele>1564</ele>
        <time>2021-08-11T11:14:18.889Z</time>
      </trkpt>
      <trkpt lat="46.87437" lon="8.49684">
        <ele>1563</ele>
        <time>2021-08-11T11:14:19.889Z</time>
      </trkpt>
      <trkpt lat="46.87436" lon="8.49685">
        <ele>1564</ele>
        <time>2021-08-11T11:14:20.888Z</time>
      </trkpt>
      <trkpt lat="46.87435" lon="8.49686">
        <ele>1564</ele>
        <time>2021-08-11T11:14:21.890Z</time>
      </trkpt>
      <trkpt lat="46.87435" lon="8.49686">
        <ele>1564</ele>
        <time>2021-08-11T11:14:22.890Z</time>
      </trkpt>
      <trkpt lat="46.87435" lon="8.49686">
        <ele>1565</ele>
        <time>2021-08-11T11:14:23.889Z</time>
      </trkpt>
      <trkpt lat="46.87436" lon="8.49686">
        <ele>1565</ele>
        <time>2021-08-11T11:14:24.890Z</time>
      </trkpt>
      <trkpt lat="46.87437" lon="8.49684">
        <ele>1564</ele>
        <time>2021-08-11T11:14:25.890Z</time>
      </trkpt>
      <trkpt lat="46.87437" lon="8.49685">
        <ele>1564</ele>
        <time>2021-08-11T11:14:26.889Z</time>
      </trkpt>
      <trkpt lat="46.87436" lon="8.49685">
        <ele>1564</ele>
        <time>2021-08-11T11:14:27.890Z</time>
      </trkpt>
      <trkpt lat="46.87438" lon="8.49682">
        <ele>1561</ele>
        <time>2021-08-11T11:14:28.890Z</time>
      </trkpt>
      <trkpt lat="46.87438" lon="8.49682">
        <ele>1561</ele>
        <time>2021-08-11T11:14:29.889Z</time>
      </trkpt>
      <trkpt lat="46.87437" lon="8.49683">
        <ele>1561</ele>
        <time>2021-08-11T11:14:30.889Z</time>
      </trkpt>
      <trkpt lat="46.87437" lon="8.49683">
        <ele>1561</ele>
        <time>2021-08-11T11:14:31.889Z</time>
      </trkpt>
      <trkpt lat="46.87436" lon="8.49683">
        <ele>1561</ele>
        <time>2021-08-11T11:14:32.889Z</time>
      </trkpt>
      <trkpt lat="46.87436" lon="8.49684">
        <ele>1560</ele>
        <time>2021-08-11T11:14:33.889Z</time>
      </trkpt>
      <trkpt lat="46.87436" lon="8.49684">
        <ele>1560</ele>
        <time>2021-08-11T11:14:41.020Z</time>
      </trkpt>
      <trkpt lat="46.87435" lon="8.49684">
        <ele>1559</ele>
        <time>2021-08-11T11:14:48.768Z</time>
      </trkpt>
      <trkpt lat="46.87435" lon="8.49685">
        <ele>1559</ele>
        <time>2021-08-11T11:14:49.768Z</time>
      </trkpt>
      <trkpt lat="46.87435" lon="8.49685">
        <ele>1559</ele>
        <time>2021-08-11T11:14:55.539Z</time>
      </trkpt>
      <trkpt lat="46.87435" lon="8.49685">
        <ele>1559</ele>
        <time>2021-08-11T11:14:56.539Z</time>
      </trkpt>
      <trkpt lat="46.87434" lon="8.49686">
        <ele>1559</ele>
        <time>2021-08-11T11:14:57.539Z</time>
      </trkpt>
      <trkpt lat="46.87435" lon="8.49686">
        <ele>1559</ele>
        <time>2021-08-11T11:14:58.540Z</time>
      </trkpt>
      <trkpt lat="46.87435" lon="8.49686">
        <ele>1560</ele>
        <time>2021-08-11T11:14:59.539Z</time>
      </trkpt>
      <trkpt lat="46.87435" lon="8.49686">
        <ele>1560</ele>
        <time>2021-08-11T11:15:00.539Z</time>
      </trkpt>
      <trkpt lat="46.87436" lon="8.49686">
        <ele>1560</ele>
        <time>2021-08-11T11:15:01.540Z</time>
      </trkpt>
      <trkpt lat="46.87436" lon="8.49686">
        <ele>1561</ele>
        <time>2021-08-11T11:15:02.540Z</time>
      </trkpt>
      <trkpt lat="46.87436" lon="8.49686">
        <ele>1561</ele>
        <time>2021-08-11T11:15:03.540Z</time>
      </trkpt>
      <trkpt lat="46.87436" lon="8.49686">
        <ele>1561</ele>
        <time>2021-08-11T11:15:04.539Z</time>
      </trkpt>
      <trkpt lat="46.87442" lon="8.49681">
        <ele>1564</ele>
        <time>2021-08-11T11:15:05.540Z</time>
      </trkpt>
      <trkpt lat="46.87446" lon="8.49677">
        <ele>1561</ele>
        <time>2021-08-11T11:15:06.540Z</time>
      </trkpt>
      <trkpt lat="46.87446" lon="8.49678">
        <ele>1561</ele>
        <time>2021-08-11T11:15:07.540Z</time>
      </trkpt>
      <trkpt lat="46.87447" lon="8.49678">
        <ele>1560</ele>
        <time>2021-08-11T11:15:08.540Z</time>
      </trkpt>
      <trkpt lat="46.87447" lon="8.49678">
        <ele>1560</ele>
        <time>2021-08-11T11:15:09.540Z</time>
      </trkpt>
      <trkpt lat="46.87446" lon="8.49678">
        <ele>1560</ele>
        <time>2021-08-11T11:15:10.539Z</time>
      </trkpt>
      <trkpt lat="46.87444" lon="8.4968">
        <ele>1559</ele>
        <time>2021-08-11T11:15:11.539Z</time>
      </trkpt>
      <trkpt lat="46.87443" lon="8.4968">
        <ele>1559</ele>
        <time>2021-08-11T11:15:12.540Z</time>
      </trkpt>
      <trkpt lat="46.87441" lon="8.49682">
        <ele>1564</ele>
        <time>2021-08-11T11:15:13.540Z</time>
      </trkpt>
      <trkpt lat="46.87441" lon="8.49682">
        <ele>1563</ele>
        <time>2021-08-11T11:15:14.541Z</time>
      </trkpt>
      <trkpt lat="46.8744" lon="8.49684">
        <ele>1560</ele>
        <time>2021-08-11T11:15:15.541Z</time>
      </trkpt>
      <trkpt lat="46.8744" lon="8.49684">
        <ele>1559</ele>
        <time>2021-08-11T11:15:16.541Z</time>
      </trkpt>
      <trkpt lat="46.8744" lon="8.49684">
        <ele>1559</ele>
        <time>2021-08-11T11:15:17.540Z</time>
      </trkpt>
      <trkpt lat="46.87439" lon="8.49684">
        <ele>1559</ele>
        <time>2021-08-11T11:15:18.541Z</time>
      </trkpt>
      <trkpt lat="46.87436" lon="8.49686">
        <ele>1561</ele>
        <time>2021-08-11T11:15:19.541Z</time>
      </trkpt>
      <trkpt lat="46.87436" lon="8.49685">
        <ele>1561</ele>
        <time>2021-08-11T11:15:20.541Z</time>
      </trkpt>
      <trkpt lat="46.87436" lon="8.49685">
        <ele>1561</ele>
        <time>2021-08-11T11:15:21.540Z</time>
      </trkpt>
      <trkpt lat="46.87436" lon="8.49686">
        <ele>1561</ele>
        <time>2021-08-11T11:15:22.541Z</time>
      </trkpt>
      <trkpt lat="46.87436" lon="8.49686">
        <ele>1561</ele>
        <time>2021-08-11T11:15:23.540Z</time>
      </trkpt>
      <trkpt lat="46.87437" lon="8.49686">
        <ele>1560</ele>
        <time>2021-08-11T11:15:24.541Z</time>
      </trkpt>
      <trkpt lat="46.87437" lon="8.49685">
        <ele>1559</ele>
        <time>2021-08-11T11:15:25.541Z</time>
      </trkpt>
      <trkpt lat="46.87437" lon="8.49685">
        <ele>1559</ele>
        <time>2021-08-11T11:15:26.541Z</time>
      </trkpt>
      <trkpt lat="46.87437" lon="8.49686">
        <ele>1558</ele>
        <time>2021-08-11T11:15:27.541Z</time>
      </trkpt>
      <trkpt lat="46.8744" lon="8.49681">
        <ele>1558</ele>
        <time>2021-08-11T11:15:28.543Z</time>
      </trkpt>
      <trkpt lat="46.8744" lon="8.4968">
        <ele>1559</ele>
        <time>2021-08-11T11:15:40.671Z</time>
      </trkpt>
      <trkpt lat="46.8744" lon="8.4968">
        <ele>1559</ele>
        <time>2021-08-11T11:15:41.671Z</time>
      </trkpt>
      <trkpt lat="46.87441" lon="8.49682">
        <ele>1560</ele>
        <time>2021-08-11T11:15:42.673Z</time>
      </trkpt>
      <trkpt lat="46.87441" lon="8.49682">
        <ele>1560</ele>
        <time>2021-08-11T11:15:43.672Z</time>
      </trkpt>
      <trkpt lat="46.87441" lon="8.49682">
        <ele>1560</ele>
        <time>2021-08-11T11:15:44.672Z</time>
      </trkpt>
      <trkpt lat="46.87442" lon="8.49681">
        <ele>1556</ele>
        <time>2021-08-11T11:15:45.675Z</time>
      </trkpt>
      <trkpt lat="46.87442" lon="8.49681">
        <ele>1555</ele>
        <time>2021-08-11T11:15:46.675Z</time>
      </trkpt>
      <trkpt lat="46.87443" lon="8.49681">
        <ele>1555</ele>
        <time>2021-08-11T11:15:47.675Z</time>
      </trkpt>
      <trkpt lat="46.87443" lon="8.4968">
        <ele>1555</ele>
        <time>2021-08-11T11:15:48.675Z</time>
      </trkpt>
      <trkpt lat="46.87442" lon="8.49681">
        <ele>1555</ele>
        <time>2021-08-11T11:15:49.675Z</time>
      </trkpt>
      <trkpt lat="46.87442" lon="8.49681">
        <ele>1555</ele>
        <time>2021-08-11T11:15:50.675Z</time>
      </trkpt>
      <trkpt lat="46.87442" lon="8.49682">
        <ele>1555</ele>
        <time>2021-08-11T11:15:51.675Z</time>
      </trkpt>
      <trkpt lat="46.87443" lon="8.49682">
        <ele>1555</ele>
        <time>2021-08-11T11:15:52.675Z</time>
      </trkpt>
      <trkpt lat="46.87441" lon="8.49683">
        <ele>1556</ele>
        <time>2021-08-11T11:15:53.677Z</time>
      </trkpt>
      <trkpt lat="46.87441" lon="8.49683">
        <ele>1556</ele>
        <time>2021-08-11T11:15:54.676Z</time>
      </trkpt>
      <trkpt lat="46.87441" lon="8.49684">
        <ele>1556</ele>
        <time>2021-08-11T11:15:55.676Z</time>
      </trkpt>
      <trkpt lat="46.87441" lon="8.49685">
        <ele>1557</ele>
        <time>2021-08-11T11:15:56.676Z</time>
      </trkpt>
      <trkpt lat="46.87441" lon="8.49685">
        <ele>1558</ele>
        <time>2021-08-11T11:15:57.676Z</time>
      </trkpt>
      <trkpt lat="46.87439" lon="8.49686">
        <ele>1559</ele>
        <time>2021-08-11T11:15:58.677Z</time>
      </trkpt>
      <trkpt lat="46.87439" lon="8.49687">
        <ele>1559</ele>
        <time>2021-08-11T11:15:59.677Z</time>
      </trkpt>
      <trkpt lat="46.87438" lon="8.49687">
        <ele>1559</ele>
        <time>2021-08-11T11:16:00.676Z</time>
      </trkpt>
      <trkpt lat="46.87438" lon="8.49688">
        <ele>1559</ele>
        <time>2021-08-11T11:16:01.677Z</time>
      </trkpt>
      <trkpt lat="46.87438" lon="8.49688">
        <ele>1560</ele>
        <time>2021-08-11T11:16:02.677Z</time>
      </trkpt>
      <trkpt lat="46.87437" lon="8.49688">
        <ele>1560</ele>
        <time>2021-08-11T11:16:03.678Z</time>
      </trkpt>
      <trkpt lat="46.87437" lon="8.49688">
        <ele>1560</ele>
        <time>2021-08-11T11:16:04.678Z</time>
      </trkpt>
      <trkpt lat="46.87436" lon="8.49688">
        <ele>1561</ele>
        <time>2021-08-11T11:16:05.677Z</time>
      </trkpt>
      <trkpt lat="46.87435" lon="8.49689">
        <ele>1561</ele>
        <time>2021-08-11T11:16:06.678Z</time>
      </trkpt>
      <trkpt lat="46.87435" lon="8.49689">
        <ele>1561</ele>
        <time>2021-08-11T11:16:07.677Z</time>
      </trkpt>
      <trkpt lat="46.87435" lon="8.49689">
        <ele>1561</ele>
        <time>2021-08-11T11:16:08.678Z</time>
      </trkpt>
      <trkpt lat="46.87435" lon="8.49688">
        <ele>1561</ele>
        <time>2021-08-11T11:16:09.677Z</time>
      </trkpt>
      <trkpt lat="46.87435" lon="8.49688">
        <ele>1561</ele>
        <time>2021-08-11T11:16:10.678Z</time>
      </trkpt>
      <trkpt lat="46.87436" lon="8.49688">
        <ele>1560</ele>
        <time>2021-08-11T11:16:11.678Z</time>
      </trkpt>
      <trkpt lat="46.87436" lon="8.49688">
        <ele>1560</ele>
        <time>2021-08-11T11:16:12.678Z</time>
      </trkpt>
      <trkpt lat="46.87437" lon="8.49688">
        <ele>1560</ele>
        <time>2021-08-11T11:16:13.677Z</time>
      </trkpt>
      <trkpt lat="46.87438" lon="8.49685">
        <ele>1558</ele>
        <time>2021-08-11T11:16:14.677Z</time>
      </trkpt>
      <trkpt lat="46.87438" lon="8.49685">
        <ele>1558</ele>
        <time>2021-08-11T11:16:15.677Z</time>
      </trkpt>
      <trkpt lat="46.87439" lon="8.49684">
        <ele>1556</ele>
        <time>2021-08-11T11:16:16.679Z</time>
      </trkpt>
      <trkpt lat="46.87439" lon="8.49684">
        <ele>1556</ele>
        <time>2021-08-11T11:16:17.679Z</time>
      </trkpt>
      <trkpt lat="46.87439" lon="8.49685">
        <ele>1556</ele>
        <time>2021-08-11T11:16:18.678Z</time>
      </trkpt>
      <trkpt lat="46.87439" lon="8.49686">
        <ele>1557</ele>
        <time>2021-08-11T11:16:19.679Z</time>
      </trkpt>
      <trkpt lat="46.87439" lon="8.49686">
        <ele>1557</ele>
        <time>2021-08-11T11:16:20.678Z</time>
      </trkpt>
      <trkpt lat="46.87438" lon="8.49687">
        <ele>1557</ele>
        <time>2021-08-11T11:16:21.679Z</time>
      </trkpt>
      <trkpt lat="46.87437" lon="8.49688">
        <ele>1557</ele>
        <time>2021-08-11T11:16:22.678Z</time>
      </trkpt>
      <trkpt lat="46.87436" lon="8.49689">
        <ele>1557</ele>
        <time>2021-08-11T11:16:23.679Z</time>
      </trkpt>
      <trkpt lat="46.87436" lon="8.49689">
        <ele>1558</ele>
        <time>2021-08-11T11:16:24.679Z</time>
      </trkpt>
      <trkpt lat="46.87436" lon="8.49689">
        <ele>1558</ele>
        <time>2021-08-11T11:16:25.679Z</time>
      </trkpt>
      <trkpt lat="46.87436" lon="8.49688">
        <ele>1558</ele>
        <time>2021-08-11T11:16:26.680Z</time>
      </trkpt>
      <trkpt lat="46.87436" lon="8.49688">
        <ele>1558</ele>
        <time>2021-08-11T11:16:27.680Z</time>
      </trkpt>
      <trkpt lat="46.87437" lon="8.49688">
        <ele>1559</ele>
        <time>2021-08-11T11:16:38.698Z</time>
      </trkpt>
      <trkpt lat="46.87437" lon="8.49688">
        <ele>1559</ele>
        <time>2021-08-11T11:16:39.698Z</time>
      </trkpt>
      <trkpt lat="46.87437" lon="8.49689">
        <ele>1559</ele>
        <time>2021-08-11T11:16:40.699Z</time>
      </trkpt>
      <trkpt lat="46.87437" lon="8.4969">
        <ele>1559</ele>
        <time>2021-08-11T11:16:41.698Z</time>
      </trkpt>
      <trkpt lat="46.87438" lon="8.49692">
        <ele>1566</ele>
        <time>2021-08-11T11:16:42.699Z</time>
      </trkpt>
      <trkpt lat="46.87438" lon="8.49693">
        <ele>1566</ele>
        <time>2021-08-11T11:16:43.699Z</time>
      </trkpt>
      <trkpt lat="46.87439" lon="8.49693">
        <ele>1567</ele>
        <time>2021-08-11T11:16:44.698Z</time>
      </trkpt>
      <trkpt lat="46.87439" lon="8.49693">
        <ele>1567</ele>
        <time>2021-08-11T11:16:45.699Z</time>
      </trkpt>
      <trkpt lat="46.87438" lon="8.49694">
        <ele>1567</ele>
        <time>2021-08-11T11:16:46.699Z</time>
      </trkpt>
      <trkpt lat="46.87439" lon="8.49694">
        <ele>1567</ele>
        <time>2021-08-11T11:16:47.699Z</time>
      </trkpt>
      <trkpt lat="46.87438" lon="8.49694">
        <ele>1569</ele>
        <time>2021-08-11T11:16:48.699Z</time>
      </trkpt>
      <trkpt lat="46.87438" lon="8.49694">
        <ele>1569</ele>
        <time>2021-08-11T11:16:49.700Z</time>
      </trkpt>
      <trkpt lat="46.87438" lon="8.49694">
        <ele>1569</ele>
        <time>2021-08-11T11:16:50.699Z</time>
      </trkpt>
      <trkpt lat="46.87438" lon="8.49694">
        <ele>1568</ele>
        <time>2021-08-11T11:16:51.699Z</time>
      </trkpt>
      <trkpt lat="46.87439" lon="8.49694">
        <ele>1568</ele>
        <time>2021-08-11T11:16:52.700Z</time>
      </trkpt>
      <trkpt lat="46.87439" lon="8.49695">
        <ele>1568</ele>
        <time>2021-08-11T11:16:53.700Z</time>
      </trkpt>
      <trkpt lat="46.87439" lon="8.49695">
        <ele>1568</ele>
        <time>2021-08-11T11:16:54.700Z</time>
      </trkpt>
      <trkpt lat="46.87439" lon="8.49695">
        <ele>1568</ele>
        <time>2021-08-11T11:16:55.699Z</time>
      </trkpt>
      <trkpt lat="46.87439" lon="8.49696">
        <ele>1568</ele>
        <time>2021-08-11T11:16:56.700Z</time>
      </trkpt>
      <trkpt lat="46.87439" lon="8.49696">
        <ele>1568</ele>
        <time>2021-08-11T11:16:57.700Z</time>
      </trkpt>
      <trkpt lat="46.87439" lon="8.49696">
        <ele>1568</ele>
        <time>2021-08-11T11:16:58.701Z</time>
      </trkpt>
      <trkpt lat="46.87439" lon="8.49695">
        <ele>1568</ele>
        <time>2021-08-11T11:16:59.701Z</time>
      </trkpt>
      <trkpt lat="46.87439" lon="8.49695">
        <ele>1567</ele>
        <time>2021-08-11T11:17:00.700Z</time>
      </trkpt>
      <trkpt lat="46.87439" lon="8.49694">
        <ele>1567</ele>
        <time>2021-08-11T11:17:01.701Z</time>
      </trkpt>
      <trkpt lat="46.8744" lon="8.4969">
        <ele>1565</ele>
        <time>2021-08-11T11:17:02.702Z</time>
      </trkpt>
      <trkpt lat="46.8744" lon="8.4969">
        <ele>1564</ele>
        <time>2021-08-11T11:17:03.702Z</time>
      </trkpt>
      <trkpt lat="46.8744" lon="8.4969">
        <ele>1563</ele>
        <time>2021-08-11T11:17:04.702Z</time>
      </trkpt>
      <trkpt lat="46.8744" lon="8.4969">
        <ele>1563</ele>
        <time>2021-08-11T11:17:05.702Z</time>
      </trkpt>
      <trkpt lat="46.8744" lon="8.4969">
        <ele>1562</ele>
        <time>2021-08-11T11:17:06.702Z</time>
      </trkpt>
      <trkpt lat="46.87439" lon="8.49688">
        <ele>1560</ele>
        <time>2021-08-11T11:17:07.703Z</time>
      </trkpt>
      <trkpt lat="46.87439" lon="8.49686">
        <ele>1562</ele>
        <time>2021-08-11T11:17:08.702Z</time>
      </trkpt>
      <trkpt lat="46.8744" lon="8.49686">
        <ele>1563</ele>
        <time>2021-08-11T11:17:09.703Z</time>
      </trkpt>
      <trkpt lat="46.87443" lon="8.49687">
        <ele>1563</ele>
        <time>2021-08-11T11:17:10.704Z</time>
      </trkpt>
      <trkpt lat="46.87444" lon="8.49686">
        <ele>1564</ele>
        <time>2021-08-11T11:17:11.704Z</time>
      </trkpt>
      <trkpt lat="46.87444" lon="8.49686">
        <ele>1564</ele>
        <time>2021-08-11T11:17:12.703Z</time>
      </trkpt>
      <trkpt lat="46.87444" lon="8.49685">
        <ele>1565</ele>
        <time>2021-08-11T11:17:13.704Z</time>
      </trkpt>
      <trkpt lat="46.87443" lon="8.49687">
        <ele>1565</ele>
        <time>2021-08-11T11:17:14.705Z</time>
      </trkpt>
      <trkpt lat="46.87443" lon="8.49687">
        <ele>1565</ele>
        <time>2021-08-11T11:17:15.704Z</time>
      </trkpt>
      <trkpt lat="46.87438" lon="8.49686">
        <ele>1560</ele>
        <time>2021-08-11T11:17:16.705Z</time>
      </trkpt>
      <trkpt lat="46.87439" lon="8.49688">
        <ele>1561</ele>
        <time>2021-08-11T11:17:17.706Z</time>
      </trkpt>
      <trkpt lat="46.87439" lon="8.49688">
        <ele>1561</ele>
        <time>2021-08-11T11:17:18.705Z</time>
      </trkpt>
      <trkpt lat="46.87437" lon="8.49685">
        <ele>1560</ele>
        <time>2021-08-11T11:17:19.706Z</time>
      </trkpt>
      <trkpt lat="46.87437" lon="8.49686">
        <ele>1560</ele>
        <time>2021-08-11T11:17:20.705Z</time>
      </trkpt>
      <trkpt lat="46.87437" lon="8.49686">
        <ele>1561</ele>
        <time>2021-08-11T11:17:21.705Z</time>
      </trkpt>
      <trkpt lat="46.87437" lon="8.49686">
        <ele>1561</ele>
        <time>2021-08-11T11:17:22.706Z</time>
      </trkpt>
      <trkpt lat="46.87433" lon="8.49681">
        <ele>1563</ele>
        <time>2021-08-11T11:17:23.705Z</time>
      </trkpt>
      <trkpt lat="46.87433" lon="8.49681">
        <ele>1563</ele>
        <time>2021-08-11T11:17:24.705Z</time>
      </trkpt>
      <trkpt lat="46.87432" lon="8.49682">
        <ele>1562</ele>
        <time>2021-08-11T11:17:25.705Z</time>
      </trkpt>
      <trkpt lat="46.87432" lon="8.49683">
        <ele>1562</ele>
        <time>2021-08-11T11:17:26.705Z</time>
      </trkpt>
      <trkpt lat="46.87432" lon="8.49683">
        <ele>1562</ele>
        <time>2021-08-11T11:17:27.706Z</time>
      </trkpt>
      <trkpt lat="46.87432" lon="8.49683">
        <ele>1562</ele>
        <time>2021-08-11T11:17:28.706Z</time>
      </trkpt>
      <trkpt lat="46.87433" lon="8.49682">
        <ele>1561</ele>
        <time>2021-08-11T11:17:29.706Z</time>
      </trkpt>
      <trkpt lat="46.87434" lon="8.49682">
        <ele>1561</ele>
        <time>2021-08-11T11:17:30.706Z</time>
      </trkpt>
      <trkpt lat="46.87434" lon="8.49682">
        <ele>1561</ele>
        <time>2021-08-11T11:17:34.830Z</time>
      </trkpt>
      <trkpt lat="46.87435" lon="8.4968">
        <ele>1559</ele>
        <time>2021-08-11T11:17:35.832Z</time>
      </trkpt>
      <trkpt lat="46.87435" lon="8.4968">
        <ele>1558</ele>
        <time>2021-08-11T11:17:36.832Z</time>
      </trkpt>
      <trkpt lat="46.87436" lon="8.49679">
        <ele>1558</ele>
        <time>2021-08-11T11:17:37.831Z</time>
      </trkpt>
      <trkpt lat="46.87436" lon="8.49679">
        <ele>1557</ele>
        <time>2021-08-11T11:17:40.922Z</time>
      </trkpt>
      <trkpt lat="46.87437" lon="8.49679">
        <ele>1557</ele>
        <time>2021-08-11T11:17:41.922Z</time>
      </trkpt>
      <trkpt lat="46.87437" lon="8.49679">
        <ele>1556</ele>
        <time>2021-08-11T11:17:42.923Z</time>
      </trkpt>
      <trkpt lat="46.87437" lon="8.49679">
        <ele>1556</ele>
        <time>2021-08-11T11:17:43.923Z</time>
      </trkpt>
      <trkpt lat="46.87438" lon="8.49678">
        <ele>1556</ele>
        <time>2021-08-11T11:17:44.922Z</time>
      </trkpt>
      <trkpt lat="46.87438" lon="8.49679">
        <ele>1556</ele>
        <time>2021-08-11T11:17:45.922Z</time>
      </trkpt>
      <trkpt lat="46.87439" lon="8.49679">
        <ele>1556</ele>
        <time>2021-08-11T11:17:46.923Z</time>
      </trkpt>
      <trkpt lat="46.87439" lon="8.4968">
        <ele>1557</ele>
        <time>2021-08-11T11:17:47.923Z</time>
      </trkpt>
      <trkpt lat="46.8744" lon="8.4968">
        <ele>1557</ele>
        <time>2021-08-11T11:17:48.923Z</time>
      </trkpt>
      <trkpt lat="46.87439" lon="8.49683">
        <ele>1563</ele>
        <time>2021-08-11T11:17:49.924Z</time>
      </trkpt>
      <trkpt lat="46.8744" lon="8.49683">
        <ele>1563</ele>
        <time>2021-08-11T11:17:50.923Z</time>
      </trkpt>
      <trkpt lat="46.8744" lon="8.49683">
        <ele>1565</ele>
        <time>2021-08-11T11:17:51.924Z</time>
      </trkpt>
      <trkpt lat="46.8744" lon="8.49682">
        <ele>1565</ele>
        <time>2021-08-11T11:17:52.925Z</time>
      </trkpt>
      <trkpt lat="46.8744" lon="8.49682">
        <ele>1565</ele>
        <time>2021-08-11T11:17:53.925Z</time>
      </trkpt>
      <trkpt lat="46.87441" lon="8.49683">
        <ele>1569</ele>
        <time>2021-08-11T11:17:54.926Z</time>
      </trkpt>
      <trkpt lat="46.87441" lon="8.49683">
        <ele>1569</ele>
        <time>2021-08-11T11:17:56.900Z</time>
      </trkpt>
      <trkpt lat="46.87441" lon="8.49682">
        <ele>1569</ele>
        <time>2021-08-11T11:17:57.899Z</time>
      </trkpt>
      <trkpt lat="46.87438" lon="8.49683">
        <ele>1562</ele>
        <time>2021-08-11T11:17:58.900Z</time>
      </trkpt>
      <trkpt lat="46.87438" lon="8.49683">
        <ele>1562</ele>
        <time>2021-08-11T11:18:05.917Z</time>
      </trkpt>
      <trkpt lat="46.87438" lon="8.49684">
        <ele>1560</ele>
        <time>2021-08-11T11:18:06.918Z</time>
      </trkpt>
      <trkpt lat="46.87439" lon="8.49684">
        <ele>1560</ele>
        <time>2021-08-11T11:18:10.689Z</time>
      </trkpt>
      <trkpt lat="46.87439" lon="8.49684">
        <ele>1560</ele>
        <time>2021-08-11T11:18:11.688Z</time>
      </trkpt>
      <trkpt lat="46.87439" lon="8.49683">
        <ele>1561</ele>
        <time>2021-08-11T11:18:12.688Z</time>
      </trkpt>
      <trkpt lat="46.87439" lon="8.49683">
        <ele>1561</ele>
        <time>2021-08-11T11:18:13.689Z</time>
      </trkpt>
      <trkpt lat="46.87439" lon="8.49683">
        <ele>1561</ele>
        <time>2021-08-11T11:18:14.688Z</time>
      </trkpt>
      <trkpt lat="46.87439" lon="8.49683">
        <ele>1561</ele>
        <time>2021-08-11T11:18:40.662Z</time>
      </trkpt>
      <trkpt lat="46.8744" lon="8.49684">
        <ele>1562</ele>
        <time>2021-08-11T11:18:50.441Z</time>
      </trkpt>
      <trkpt lat="46.87439" lon="8.49683">
        <ele>1564</ele>
        <time>2021-08-11T11:18:51.441Z</time>
      </trkpt>
      <trkpt lat="46.87439" lon="8.49684">
        <ele>1564</ele>
        <time>2021-08-11T11:18:52.441Z</time>
      </trkpt>
      <trkpt lat="46.87437" lon="8.49685">
        <ele>1561</ele>
        <time>2021-08-11T11:18:53.442Z</time>
      </trkpt>
      <trkpt lat="46.87437" lon="8.49688">
        <ele>1560</ele>
        <time>2021-08-11T11:18:54.442Z</time>
      </trkpt>
      <trkpt lat="46.87437" lon="8.49689">
        <ele>1560</ele>
        <time>2021-08-11T11:18:55.441Z</time>
      </trkpt>
      <trkpt lat="46.87437" lon="8.49688">
        <ele>1560</ele>
        <time>2021-08-11T11:18:56.441Z</time>
      </trkpt>
      <trkpt lat="46.87436" lon="8.49689">
        <ele>1560</ele>
        <time>2021-08-11T11:18:57.443Z</time>
      </trkpt>
      <trkpt lat="46.87436" lon="8.49688">
        <ele>1557</ele>
        <time>2021-08-11T11:18:58.442Z</time>
      </trkpt>
      <trkpt lat="46.87437" lon="8.49688">
        <ele>1557</ele>
        <time>2021-08-11T11:18:59.443Z</time>
      </trkpt>
      <trkpt lat="46.87437" lon="8.49687">
        <ele>1557</ele>
        <time>2021-08-11T11:19:00.442Z</time>
      </trkpt>
      <trkpt lat="46.87437" lon="8.49686">
        <ele>1556</ele>
        <time>2021-08-11T11:19:01.443Z</time>
      </trkpt>
      <trkpt lat="46.87437" lon="8.49687">
        <ele>1556</ele>
        <time>2021-08-11T11:19:02.443Z</time>
      </trkpt>
      <trkpt lat="46.87436" lon="8.49687">
        <ele>1556</ele>
        <time>2021-08-11T11:19:03.443Z</time>
      </trkpt>
      <trkpt lat="46.87436" lon="8.49687">
        <ele>1556</ele>
        <time>2021-08-11T11:19:04.442Z</time>
      </trkpt>
      <trkpt lat="46.87437" lon="8.49686">
        <ele>1555</ele>
        <time>2021-08-11T11:19:05.442Z</time>
      </trkpt>
      <trkpt lat="46.87434" lon="8.49686">
        <ele>1551</ele>
        <time>2021-08-11T11:19:06.442Z</time>
      </trkpt>
      <trkpt lat="46.87433" lon="8.49685">
        <ele>1550</ele>
        <time>2021-08-11T11:19:07.442Z</time>
      </trkpt>
      <trkpt lat="46.87433" lon="8.49685">
        <ele>1549</ele>
        <time>2021-08-11T11:19:08.442Z</time>
      </trkpt>
      <trkpt lat="46.87433" lon="8.49685">
        <ele>1548</ele>
        <time>2021-08-11T11:19:09.444Z</time>
      </trkpt>
      <trkpt lat="46.87433" lon="8.49685">
        <ele>1548</ele>
        <time>2021-08-11T11:19:10.444Z</time>
      </trkpt>
      <trkpt lat="46.87433" lon="8.49685">
        <ele>1549</ele>
        <time>2021-08-11T11:19:11.443Z</time>
      </trkpt>
      <trkpt lat="46.87436" lon="8.49684">
        <ele>1554</ele>
        <time>2021-08-11T11:19:12.444Z</time>
      </trkpt>
      <trkpt lat="46.87436" lon="8.49685">
        <ele>1555</ele>
        <time>2021-08-11T11:19:13.443Z</time>
      </trkpt>
      <trkpt lat="46.87437" lon="8.49685">
        <ele>1558</ele>
        <time>2021-08-11T11:19:14.443Z</time>
      </trkpt>
      <trkpt lat="46.87437" lon="8.49685">
        <ele>1558</ele>
        <time>2021-08-11T11:19:15.443Z</time>
      </trkpt>
      <trkpt lat="46.87437" lon="8.49685">
        <ele>1558</ele>
        <time>2021-08-11T11:19:16.443Z</time>
      </trkpt>
      <trkpt lat="46.87436" lon="8.49685">
        <ele>1556</ele>
        <time>2021-08-11T11:19:17.443Z</time>
      </trkpt>
      <trkpt lat="46.87436" lon="8.49685">
        <ele>1556</ele>
        <time>2021-08-11T11:19:18.443Z</time>
      </trkpt>
      <trkpt lat="46.87438" lon="8.49684">
        <ele>1557</ele>
        <time>2021-08-11T11:19:19.445Z</time>
      </trkpt>
      <trkpt lat="46.87438" lon="8.49685">
        <ele>1557</ele>
        <time>2021-08-11T11:19:20.445Z</time>
      </trkpt>
      <trkpt lat="46.87437" lon="8.49686">
        <ele>1557</ele>
        <time>2021-08-11T11:19:21.444Z</time>
      </trkpt>
      <trkpt lat="46.87437" lon="8.49686">
        <ele>1556</ele>
        <time>2021-08-11T11:19:29.594Z</time>
      </trkpt>
      <trkpt lat="46.87437" lon="8.49686">
        <ele>1556</ele>
        <time>2021-08-11T11:19:30.594Z</time>
      </trkpt>
      <trkpt lat="46.87437" lon="8.49686">
        <ele>1557</ele>
        <time>2021-08-11T11:19:31.595Z</time>
      </trkpt>
      <trkpt lat="46.87437" lon="8.49687">
        <ele>1557</ele>
        <time>2021-08-11T11:19:32.596Z</time>
      </trkpt>
      <trkpt lat="46.87437" lon="8.49687">
        <ele>1557</ele>
        <time>2021-08-11T11:19:33.596Z</time>
      </trkpt>
      <trkpt lat="46.87437" lon="8.49687">
        <ele>1556</ele>
        <time>2021-08-11T11:19:34.596Z</time>
      </trkpt>
      <trkpt lat="46.87437" lon="8.49687">
        <ele>1556</ele>
        <time>2021-08-11T11:19:35.596Z</time>
      </trkpt>
      <trkpt lat="46.87436" lon="8.49688">
        <ele>1554</ele>
        <time>2021-08-11T11:19:36.596Z</time>
      </trkpt>
      <trkpt lat="46.87435" lon="8.49688">
        <ele>1554</ele>
        <time>2021-08-11T11:19:37.597Z</time>
      </trkpt>
      <trkpt lat="46.87434" lon="8.49688">
        <ele>1553</ele>
        <time>2021-08-11T11:19:38.596Z</time>
      </trkpt>
      <trkpt lat="46.87434" lon="8.49688">
        <ele>1552</ele>
        <time>2021-08-11T11:19:39.597Z</time>
      </trkpt>
      <trkpt lat="46.87437" lon="8.49688">
        <ele>1556</ele>
        <time>2021-08-11T11:19:40.597Z</time>
      </trkpt>
      <trkpt lat="46.87439" lon="8.49688">
        <ele>1563</ele>
        <time>2021-08-11T11:19:41.599Z</time>
      </trkpt>
      <trkpt lat="46.87439" lon="8.49688">
        <ele>1563</ele>
        <time>2021-08-11T11:19:42.598Z</time>
      </trkpt>
      <trkpt lat="46.87439" lon="8.49686">
        <ele>1563</ele>
        <time>2021-08-11T11:19:43.599Z</time>
      </trkpt>
      <trkpt lat="46.87439" lon="8.49685">
        <ele>1563</ele>
        <time>2021-08-11T11:19:45.655Z</time>
      </trkpt>
      <trkpt lat="46.87438" lon="8.49684">
        <ele>1563</ele>
        <time>2021-08-11T11:19:46.654Z</time>
      </trkpt>
      <trkpt lat="46.87439" lon="8.49683">
        <ele>1563</ele>
        <time>2021-08-11T11:19:47.654Z</time>
      </trkpt>
      <trkpt lat="46.8744" lon="8.49683">
        <ele>1563</ele>
        <time>2021-08-11T11:19:48.654Z</time>
      </trkpt>
      <trkpt lat="46.8744" lon="8.49683">
        <ele>1564</ele>
        <time>2021-08-11T11:19:49.655Z</time>
      </trkpt>
      <trkpt lat="46.8744" lon="8.49683">
        <ele>1564</ele>
        <time>2021-08-11T11:19:50.655Z</time>
      </trkpt>
      <trkpt lat="46.87441" lon="8.49685">
        <ele>1561</ele>
        <time>2021-08-11T11:19:51.656Z</time>
      </trkpt>
      <trkpt lat="46.87441" lon="8.49685">
        <ele>1562</ele>
        <time>2021-08-11T11:19:52.656Z</time>
      </trkpt>
      <trkpt lat="46.87441" lon="8.49686">
        <ele>1563</ele>
        <time>2021-08-11T11:19:53.656Z</time>
      </trkpt>
      <trkpt lat="46.87441" lon="8.49687">
        <ele>1563</ele>
        <time>2021-08-11T11:19:54.655Z</time>
      </trkpt>
      <trkpt lat="46.87441" lon="8.49687">
        <ele>1563</ele>
        <time>2021-08-11T11:19:55.655Z</time>
      </trkpt>
      <trkpt lat="46.87444" lon="8.49688">
        <ele>1566</ele>
        <time>2021-08-11T11:19:56.655Z</time>
      </trkpt>
      <trkpt lat="46.87443" lon="8.49687">
        <ele>1566</ele>
        <time>2021-08-11T11:19:57.656Z</time>
      </trkpt>
      <trkpt lat="46.87442" lon="8.49687">
        <ele>1566</ele>
        <time>2021-08-11T11:19:58.656Z</time>
      </trkpt>
      <trkpt lat="46.87442" lon="8.49687">
        <ele>1566</ele>
        <time>2021-08-11T11:19:59.655Z</time>
      </trkpt>
      <trkpt lat="46.87441" lon="8.49687">
        <ele>1563</ele>
        <time>2021-08-11T11:20:05.675Z</time>
      </trkpt>
      <trkpt lat="46.87441" lon="8.49686">
        <ele>1562</ele>
        <time>2021-08-11T11:20:06.675Z</time>
      </trkpt>
      <trkpt lat="46.87442" lon="8.49685">
        <ele>1562</ele>
        <time>2021-08-11T11:20:07.675Z</time>
      </trkpt>
      <trkpt lat="46.8744" lon="8.49687">
        <ele>1564</ele>
        <time>2021-08-11T11:20:08.675Z</time>
      </trkpt>
      <trkpt lat="46.8744" lon="8.49688">
        <ele>1564</ele>
        <time>2021-08-11T11:20:21.679Z</time>
      </trkpt>
      <trkpt lat="46.8744" lon="8.49688">
        <ele>1564</ele>
        <time>2021-08-11T11:20:22.679Z</time>
      </trkpt>
      <trkpt lat="46.8744" lon="8.49688">
        <ele>1564</ele>
        <time>2021-08-11T11:20:23.679Z</time>
      </trkpt>
      <trkpt lat="46.8744" lon="8.49687">
        <ele>1563</ele>
        <time>2021-08-11T11:20:24.680Z</time>
      </trkpt>
      <trkpt lat="46.8744" lon="8.49687">
        <ele>1563</ele>
        <time>2021-08-11T11:20:25.679Z</time>
      </trkpt>
      <trkpt lat="46.8744" lon="8.49687">
        <ele>1563</ele>
        <time>2021-08-11T11:20:26.679Z</time>
      </trkpt>
      <trkpt lat="46.8744" lon="8.49687">
        <ele>1563</ele>
        <time>2021-08-11T11:20:27.680Z</time>
      </trkpt>
      <trkpt lat="46.87439" lon="8.49689">
        <ele>1562</ele>
        <time>2021-08-11T11:20:28.679Z</time>
      </trkpt>
      <trkpt lat="46.8744" lon="8.49689">
        <ele>1562</ele>
        <time>2021-08-11T11:20:29.679Z</time>
      </trkpt>
      <trkpt lat="46.8744" lon="8.49689">
        <ele>1562</ele>
        <time>2021-08-11T11:20:30.679Z</time>
      </trkpt>
      <trkpt lat="46.87441" lon="8.49689">
        <ele>1562</ele>
        <time>2021-08-11T11:20:38.720Z</time>
      </trkpt>
      <trkpt lat="46.87441" lon="8.49689">
        <ele>1563</ele>
        <time>2021-08-11T11:20:39.720Z</time>
      </trkpt>
      <trkpt lat="46.87441" lon="8.49689">
        <ele>1564</ele>
        <time>2021-08-11T11:20:40.720Z</time>
      </trkpt>
      <trkpt lat="46.87441" lon="8.49689">
        <ele>1564</ele>
        <time>2021-08-11T11:20:41.720Z</time>
      </trkpt>
      <trkpt lat="46.87441" lon="8.49689">
        <ele>1565</ele>
        <time>2021-08-11T11:20:43.840Z</time>
      </trkpt>
      <trkpt lat="46.87441" lon="8.49689">
        <ele>1565</ele>
        <time>2021-08-11T11:20:44.840Z</time>
      </trkpt>
      <trkpt lat="46.87441" lon="8.49689">
        <ele>1565</ele>
        <time>2021-08-11T11:20:45.840Z</time>
      </trkpt>
      <trkpt lat="46.87441" lon="8.49688">
        <ele>1565</ele>
        <time>2021-08-11T11:20:46.840Z</time>
      </trkpt>
      <trkpt lat="46.87442" lon="8.49687">
        <ele>1564</ele>
        <time>2021-08-11T11:20:47.840Z</time>
      </trkpt>
      <trkpt lat="46.87438" lon="8.49689">
        <ele>1565</ele>
        <time>2021-08-11T11:20:48.841Z</time>
      </trkpt>
      <trkpt lat="46.87437" lon="8.49688">
        <ele>1564</ele>
        <time>2021-08-11T11:20:50.910Z</time>
      </trkpt>
      <trkpt lat="46.87437" lon="8.49688">
        <ele>1563</ele>
        <time>2021-08-11T11:20:51.909Z</time>
      </trkpt>
      <trkpt lat="46.87439" lon="8.4969">
        <ele>1558</ele>
        <time>2021-08-11T11:20:52.911Z</time>
      </trkpt>
      <trkpt lat="46.87438" lon="8.49689">
        <ele>1557</ele>
        <time>2021-08-11T11:20:53.910Z</time>
      </trkpt>
      <trkpt lat="46.87439" lon="8.49689">
        <ele>1557</ele>
        <time>2021-08-11T11:20:54.910Z</time>
      </trkpt>
      <trkpt lat="46.8744" lon="8.49686">
        <ele>1560</ele>
        <time>2021-08-11T11:20:55.911Z</time>
      </trkpt>
      <trkpt lat="46.87441" lon="8.49686">
        <ele>1560</ele>
        <time>2021-08-11T11:20:56.911Z</time>
      </trkpt>
      <trkpt lat="46.87441" lon="8.49685">
        <ele>1561</ele>
        <time>2021-08-11T11:20:57.910Z</time>
      </trkpt>
      <trkpt lat="46.87441" lon="8.49685">
        <ele>1561</ele>
        <time>2021-08-11T11:20:58.911Z</time>
      </trkpt>
      <trkpt lat="46.87442" lon="8.49685">
        <ele>1562</ele>
        <time>2021-08-11T11:20:59.912Z</time>
      </trkpt>
      <trkpt lat="46.87443" lon="8.49685">
        <ele>1562</ele>
        <time>2021-08-11T11:21:00.913Z</time>
      </trkpt>
      <trkpt lat="46.87443" lon="8.49685">
        <ele>1562</ele>
        <time>2021-08-11T11:21:01.912Z</time>
      </trkpt>
      <trkpt lat="46.87443" lon="8.49684">
        <ele>1563</ele>
        <time>2021-08-11T11:21:44.922Z</time>
      </trkpt>
      <trkpt lat="46.87442" lon="8.49684">
        <ele>1563</ele>
        <time>2021-08-11T11:21:50.674Z</time>
      </trkpt>
      <trkpt lat="46.87442" lon="8.49684">
        <ele>1563</ele>
        <time>2021-08-11T11:21:51.674Z</time>
      </trkpt>
      <trkpt lat="46.87442" lon="8.49683">
        <ele>1563</ele>
        <time>2021-08-11T11:23:12.445Z</time>
      </trkpt>
      <trkpt lat="46.87443" lon="8.49682">
        <ele>1564</ele>
        <time>2021-08-11T11:23:13.446Z</time>
      </trkpt>
      <trkpt lat="46.87443" lon="8.49682">
        <ele>1564</ele>
        <time>2021-08-11T11:23:17.320Z</time>
      </trkpt>
      <trkpt lat="46.87443" lon="8.49681">
        <ele>1564</ele>
        <time>2021-08-11T11:23:18.320Z</time>
      </trkpt>
      <trkpt lat="46.87442" lon="8.49681">
        <ele>1564</ele>
        <time>2021-08-11T11:23:19.320Z</time>
      </trkpt>
      <trkpt lat="46.87442" lon="8.4968">
        <ele>1563</ele>
        <time>2021-08-11T11:23:20.320Z</time>
      </trkpt>
      <trkpt lat="46.87442" lon="8.4968">
        <ele>1563</ele>
        <time>2021-08-11T11:23:21.321Z</time>
      </trkpt>
      <trkpt lat="46.87443" lon="8.49679">
        <ele>1563</ele>
        <time>2021-08-11T11:23:22.321Z</time>
      </trkpt>
      <trkpt lat="46.87442" lon="8.49679">
        <ele>1562</ele>
        <time>2021-08-11T11:23:23.321Z</time>
      </trkpt>
      <trkpt lat="46.87442" lon="8.49678">
        <ele>1562</ele>
        <time>2021-08-11T11:23:24.321Z</time>
      </trkpt>
      <trkpt lat="46.87442" lon="8.49678">
        <ele>1562</ele>
        <time>2021-08-11T11:23:25.320Z</time>
      </trkpt>
      <trkpt lat="46.87443" lon="8.49678">
        <ele>1561</ele>
        <time>2021-08-11T11:23:26.321Z</time>
      </trkpt>
      <trkpt lat="46.87443" lon="8.49677">
        <ele>1561</ele>
        <time>2021-08-11T11:23:27.321Z</time>
      </trkpt>
      <trkpt lat="46.87444" lon="8.49677">
        <ele>1561</ele>
        <time>2021-08-11T11:23:28.321Z</time>
      </trkpt>
      <trkpt lat="46.87444" lon="8.49677">
        <ele>1562</ele>
        <time>2021-08-11T11:23:29.321Z</time>
      </trkpt>
      <trkpt lat="46.87445" lon="8.49676">
        <ele>1562</ele>
        <time>2021-08-11T11:23:30.321Z</time>
      </trkpt>
      <trkpt lat="46.87444" lon="8.49676">
        <ele>1563</ele>
        <time>2021-08-11T11:23:31.320Z</time>
      </trkpt>
      <trkpt lat="46.87444" lon="8.49676">
        <ele>1564</ele>
        <time>2021-08-11T11:23:32.320Z</time>
      </trkpt>
      <trkpt lat="46.87442" lon="8.49676">
        <ele>1563</ele>
        <time>2021-08-11T11:23:33.321Z</time>
      </trkpt>
      <trkpt lat="46.87443" lon="8.49676">
        <ele>1563</ele>
        <time>2021-08-11T11:23:34.322Z</time>
      </trkpt>
      <trkpt lat="46.87444" lon="8.49674">
        <ele>1568</ele>
        <time>2021-08-11T11:23:35.321Z</time>
      </trkpt>
      <trkpt lat="46.87444" lon="8.49673">
        <ele>1568</ele>
        <time>2021-08-11T11:23:36.322Z</time>
      </trkpt>
      <trkpt lat="46.87444" lon="8.49672">
        <ele>1567</ele>
        <time>2021-08-11T11:23:37.322Z</time>
      </trkpt>
      <trkpt lat="46.87444" lon="8.49671">
        <ele>1567</ele>
        <time>2021-08-11T11:23:38.322Z</time>
      </trkpt>
      <trkpt lat="46.87444" lon="8.49671">
        <ele>1567</ele>
        <time>2021-08-11T11:23:39.322Z</time>
      </trkpt>
      <trkpt lat="46.87444" lon="8.4967">
        <ele>1567</ele>
        <time>2021-08-11T11:23:40.322Z</time>
      </trkpt>
      <trkpt lat="46.87444" lon="8.49669">
        <ele>1566</ele>
        <time>2021-08-11T11:23:41.323Z</time>
      </trkpt>
      <trkpt lat="46.87445" lon="8.49669">
        <ele>1566</ele>
        <time>2021-08-11T11:23:42.323Z</time>
      </trkpt>
      <trkpt lat="46.87445" lon="8.49668">
        <ele>1566</ele>
        <time>2021-08-11T11:23:46.319Z</time>
      </trkpt>
      <trkpt lat="46.87445" lon="8.49668">
        <ele>1566</ele>
        <time>2021-08-11T11:23:47.320Z</time>
      </trkpt>
      <trkpt lat="46.87445" lon="8.49667">
        <ele>1566</ele>
        <time>2021-08-11T11:23:48.320Z</time>
      </trkpt>
      <trkpt lat="46.87446" lon="8.49667">
        <ele>1567</ele>
        <time>2021-08-11T11:23:49.320Z</time>
      </trkpt>
      <trkpt lat="46.87447" lon="8.49666">
        <ele>1567</ele>
        <time>2021-08-11T11:23:50.319Z</time>
      </trkpt>
      <trkpt lat="46.87447" lon="8.49666">
        <ele>1567</ele>
        <time>2021-08-11T11:23:51.320Z</time>
      </trkpt>
      <trkpt lat="46.87447" lon="8.49665">
        <ele>1567</ele>
        <time>2021-08-11T11:23:52.320Z</time>
      </trkpt>
      <trkpt lat="46.87448" lon="8.49665">
        <ele>1567</ele>
        <time>2021-08-11T11:23:53.319Z</time>
      </trkpt>
      <trkpt lat="46.87448" lon="8.49664">
        <ele>1566</ele>
        <time>2021-08-11T11:23:54.320Z</time>
      </trkpt>
      <trkpt lat="46.87448" lon="8.49664">
        <ele>1566</ele>
        <time>2021-08-11T11:23:55.320Z</time>
      </trkpt>
      <trkpt lat="46.87448" lon="8.49663">
        <ele>1565</ele>
        <time>2021-08-11T11:23:56.320Z</time>
      </trkpt>
      <trkpt lat="46.87448" lon="8.49663">
        <ele>1565</ele>
        <time>2021-08-11T11:23:57.319Z</time>
      </trkpt>
      <trkpt lat="46.87448" lon="8.49662">
        <ele>1565</ele>
        <time>2021-08-11T11:23:58.319Z</time>
      </trkpt>
      <trkpt lat="46.87449" lon="8.49662">
        <ele>1565</ele>
        <time>2021-08-11T11:23:59.319Z</time>
      </trkpt>
      <trkpt lat="46.87449" lon="8.49661">
        <ele>1565</ele>
        <time>2021-08-11T11:24:00.319Z</time>
      </trkpt>
      <trkpt lat="46.8745" lon="8.49661">
        <ele>1565</ele>
        <time>2021-08-11T11:24:01.319Z</time>
      </trkpt>
      <trkpt lat="46.87449" lon="8.49661">
        <ele>1565</ele>
        <time>2021-08-11T11:24:05.345Z</time>
      </trkpt>
      <trkpt lat="46.87449" lon="8.4966">
        <ele>1566</ele>
        <time>2021-08-11T11:24:06.346Z</time>
      </trkpt>
      <trkpt lat="46.87449" lon="8.49659">
        <ele>1566</ele>
        <time>2021-08-11T11:24:11.073Z</time>
      </trkpt>
      <trkpt lat="46.87449" lon="8.49659">
        <ele>1566</ele>
        <time>2021-08-11T11:24:12.072Z</time>
      </trkpt>
      <trkpt lat="46.87449" lon="8.49658">
        <ele>1566</ele>
        <time>2021-08-11T11:24:13.073Z</time>
      </trkpt>
      <trkpt lat="46.8745" lon="8.49658">
        <ele>1566</ele>
        <time>2021-08-11T11:24:16.181Z</time>
      </trkpt>
      <trkpt lat="46.87449" lon="8.49657">
        <ele>1566</ele>
        <time>2021-08-11T11:24:17.181Z</time>
      </trkpt>
      <trkpt lat="46.87449" lon="8.49657">
        <ele>1565</ele>
        <time>2021-08-11T11:24:18.181Z</time>
      </trkpt>
      <trkpt lat="46.87449" lon="8.49656">
        <ele>1564</ele>
        <time>2021-08-11T11:24:22.340Z</time>
      </trkpt>
      <trkpt lat="46.87448" lon="8.49655">
        <ele>1564</ele>
        <time>2021-08-11T11:24:26.076Z</time>
      </trkpt>
      <trkpt lat="46.87449" lon="8.49655">
        <ele>1563</ele>
        <time>2021-08-11T11:24:27.076Z</time>
      </trkpt>
      <trkpt lat="46.87449" lon="8.49654">
        <ele>1563</ele>
        <time>2021-08-11T11:24:35.825Z</time>
      </trkpt>
      <trkpt lat="46.87448" lon="8.49654">
        <ele>1562</ele>
        <time>2021-08-11T11:24:36.825Z</time>
      </trkpt>
      <trkpt lat="46.87448" lon="8.49653">
        <ele>1562</ele>
        <time>2021-08-11T11:24:37.825Z</time>
      </trkpt>
      <trkpt lat="46.87449" lon="8.49652">
        <ele>1562</ele>
        <time>2021-08-11T11:24:38.824Z</time>
      </trkpt>
      <trkpt lat="46.87449" lon="8.49652">
        <ele>1562</ele>
        <time>2021-08-11T11:24:39.825Z</time>
      </trkpt>
      <trkpt lat="46.87449" lon="8.49651">
        <ele>1562</ele>
        <time>2021-08-11T11:24:40.825Z</time>
      </trkpt>
      <trkpt lat="46.87449" lon="8.49651">
        <ele>1562</ele>
        <time>2021-08-11T11:24:41.825Z</time>
      </trkpt>
      <trkpt lat="46.87449" lon="8.4965">
        <ele>1563</ele>
        <time>2021-08-11T11:24:51.794Z</time>
      </trkpt>
      <trkpt lat="46.87449" lon="8.4965">
        <ele>1563</ele>
        <time>2021-08-11T11:24:52.793Z</time>
      </trkpt>
      <trkpt lat="46.8745" lon="8.49649">
        <ele>1564</ele>
        <time>2021-08-11T11:24:53.793Z</time>
      </trkpt>
      <trkpt lat="46.87451" lon="8.49648">
        <ele>1564</ele>
        <time>2021-08-11T11:24:54.793Z</time>
      </trkpt>
      <trkpt lat="46.87451" lon="8.49647">
        <ele>1563</ele>
        <time>2021-08-11T11:24:55.794Z</time>
      </trkpt>
      <trkpt lat="46.87451" lon="8.49647">
        <ele>1563</ele>
        <time>2021-08-11T11:24:56.794Z</time>
      </trkpt>
      <trkpt lat="46.87451" lon="8.49646">
        <ele>1563</ele>
        <time>2021-08-11T11:24:57.794Z</time>
      </trkpt>
      <trkpt lat="46.87451" lon="8.49645">
        <ele>1563</ele>
        <time>2021-08-11T11:24:58.794Z</time>
      </trkpt>
      <trkpt lat="46.87451" lon="8.49645">
        <ele>1564</ele>
        <time>2021-08-11T11:24:59.793Z</time>
      </trkpt>
      <trkpt lat="46.87451" lon="8.49644">
        <ele>1564</ele>
        <time>2021-08-11T11:25:00.794Z</time>
      </trkpt>
      <trkpt lat="46.87452" lon="8.49643">
        <ele>1564</ele>
        <time>2021-08-11T11:25:01.794Z</time>
      </trkpt>
      <trkpt lat="46.87452" lon="8.49643">
        <ele>1564</ele>
        <time>2021-08-11T11:25:02.793Z</time>
      </trkpt>
      <trkpt lat="46.87452" lon="8.49643">
        <ele>1564</ele>
        <time>2021-08-11T11:25:24.799Z</time>
      </trkpt>
      <trkpt lat="46.87453" lon="8.49642">
        <ele>1564</ele>
        <time>2021-08-11T11:25:25.799Z</time>
      </trkpt>
      <trkpt lat="46.87454" lon="8.49641">
        <ele>1565</ele>
        <time>2021-08-11T11:25:26.798Z</time>
      </trkpt>
      <trkpt lat="46.87455" lon="8.4964">
        <ele>1565</ele>
        <time>2021-08-11T11:25:27.799Z</time>
      </trkpt>
      <trkpt lat="46.87456" lon="8.4964">
        <ele>1566</ele>
        <time>2021-08-11T11:25:28.798Z</time>
      </trkpt>
      <trkpt lat="46.87456" lon="8.49639">
        <ele>1567</ele>
        <time>2021-08-11T11:25:45.927Z</time>
      </trkpt>
      <trkpt lat="46.87456" lon="8.49639">
        <ele>1567</ele>
        <time>2021-08-11T11:25:46.927Z</time>
      </trkpt>
      <trkpt lat="46.87456" lon="8.49638">
        <ele>1567</ele>
        <time>2021-08-11T11:25:47.926Z</time>
      </trkpt>
      <trkpt lat="46.87455" lon="8.49637">
        <ele>1567</ele>
        <time>2021-08-11T11:25:48.927Z</time>
      </trkpt>
      <trkpt lat="46.87455" lon="8.49636">
        <ele>1568</ele>
        <time>2021-08-11T11:25:49.927Z</time>
      </trkpt>
      <trkpt lat="46.87455" lon="8.49635">
        <ele>1568</ele>
        <time>2021-08-11T11:25:50.927Z</time>
      </trkpt>
      <trkpt lat="46.87456" lon="8.49634">
        <ele>1569</ele>
        <time>2021-08-11T11:25:51.927Z</time>
      </trkpt>
      <trkpt lat="46.87457" lon="8.49633">
        <ele>1570</ele>
        <time>2021-08-11T11:25:52.927Z</time>
      </trkpt>
      <trkpt lat="46.87458" lon="8.49633">
        <ele>1570</ele>
        <time>2021-08-11T11:25:53.927Z</time>
      </trkpt>
      <trkpt lat="46.87458" lon="8.49632">
        <ele>1571</ele>
        <time>2021-08-11T11:25:54.927Z</time>
      </trkpt>
      <trkpt lat="46.87458" lon="8.49632">
        <ele>1571</ele>
        <time>2021-08-11T11:25:55.927Z</time>
      </trkpt>
      <trkpt lat="46.87458" lon="8.49631">
        <ele>1571</ele>
        <time>2021-08-11T11:25:56.926Z</time>
      </trkpt>
      <trkpt lat="46.87458" lon="8.49631">
        <ele>1571</ele>
        <time>2021-08-11T11:25:57.926Z</time>
      </trkpt>
      <trkpt lat="46.87458" lon="8.4963">
        <ele>1571</ele>
        <time>2021-08-11T11:25:58.927Z</time>
      </trkpt>
      <trkpt lat="46.87458" lon="8.49629">
        <ele>1570</ele>
        <time>2021-08-11T11:25:59.927Z</time>
      </trkpt>
      <trkpt lat="46.87458" lon="8.49629">
        <ele>1570</ele>
        <time>2021-08-11T11:26:00.927Z</time>
      </trkpt>
      <trkpt lat="46.87459" lon="8.49628">
        <ele>1570</ele>
        <time>2021-08-11T11:26:02.910Z</time>
      </trkpt>
      <trkpt lat="46.87459" lon="8.49628">
        <ele>1570</ele>
        <time>2021-08-11T11:26:03.910Z</time>
      </trkpt>
      <trkpt lat="46.8746" lon="8.49627">
        <ele>1570</ele>
        <time>2021-08-11T11:26:04.910Z</time>
      </trkpt>
      <trkpt lat="46.8746" lon="8.49627">
        <ele>1570</ele>
        <time>2021-08-11T11:26:05.910Z</time>
      </trkpt>
      <trkpt lat="46.8746" lon="8.49626">
        <ele>1570</ele>
        <time>2021-08-11T11:26:06.910Z</time>
      </trkpt>
      <trkpt lat="46.87459" lon="8.49625">
        <ele>1570</ele>
        <time>2021-08-11T11:26:10.944Z</time>
      </trkpt>
      <trkpt lat="46.87458" lon="8.49625">
        <ele>1569</ele>
        <time>2021-08-11T11:26:11.944Z</time>
      </trkpt>
      <trkpt lat="46.87458" lon="8.49624">
        <ele>1569</ele>
        <time>2021-08-11T11:26:12.945Z</time>
      </trkpt>
      <trkpt lat="46.87459" lon="8.49623">
        <ele>1569</ele>
        <time>2021-08-11T11:26:18.087Z</time>
      </trkpt>
      <trkpt lat="46.87459" lon="8.49622">
        <ele>1569</ele>
        <time>2021-08-11T11:26:19.088Z</time>
      </trkpt>
      <trkpt lat="46.87459" lon="8.49622">
        <ele>1569</ele>
        <time>2021-08-11T11:26:21.818Z</time>
      </trkpt>
      <trkpt lat="46.8746" lon="8.49621">
        <ele>1568</ele>
        <time>2021-08-11T11:26:22.818Z</time>
      </trkpt>
      <trkpt lat="46.8746" lon="8.49621">
        <ele>1568</ele>
        <time>2021-08-11T11:26:23.818Z</time>
      </trkpt>
      <trkpt lat="46.8746" lon="8.4962">
        <ele>1569</ele>
        <time>2021-08-11T11:26:24.818Z</time>
      </trkpt>
      <trkpt lat="46.8746" lon="8.4962">
        <ele>1569</ele>
        <time>2021-08-11T11:26:25.817Z</time>
      </trkpt>
      <trkpt lat="46.8746" lon="8.4962">
        <ele>1569</ele>
        <time>2021-08-11T11:26:26.818Z</time>
      </trkpt>
      <trkpt lat="46.8746" lon="8.49619">
        <ele>1570</ele>
        <time>2021-08-11T11:26:27.818Z</time>
      </trkpt>
      <trkpt lat="46.8746" lon="8.49618">
        <ele>1570</ele>
        <time>2021-08-11T11:26:28.817Z</time>
      </trkpt>
      <trkpt lat="46.87459" lon="8.49618">
        <ele>1569</ele>
        <time>2021-08-11T11:26:29.818Z</time>
      </trkpt>
      <trkpt lat="46.87458" lon="8.49617">
        <ele>1569</ele>
        <time>2021-08-11T11:26:30.817Z</time>
      </trkpt>
      <trkpt lat="46.87458" lon="8.49616">
        <ele>1568</ele>
        <time>2021-08-11T11:26:31.818Z</time>
      </trkpt>
      <trkpt lat="46.87458" lon="8.49615">
        <ele>1568</ele>
        <time>2021-08-11T11:26:32.818Z</time>
      </trkpt>
      <trkpt lat="46.87458" lon="8.49614">
        <ele>1568</ele>
        <time>2021-08-11T11:26:33.818Z</time>
      </trkpt>
      <trkpt lat="46.87459" lon="8.49614">
        <ele>1568</ele>
        <time>2021-08-11T11:26:34.818Z</time>
      </trkpt>
      <trkpt lat="46.87459" lon="8.49613">
        <ele>1569</ele>
        <time>2021-08-11T11:26:35.818Z</time>
      </trkpt>
      <trkpt lat="46.87459" lon="8.49612">
        <ele>1569</ele>
        <time>2021-08-11T11:26:36.818Z</time>
      </trkpt>
      <trkpt lat="46.8746" lon="8.49612">
        <ele>1570</ele>
        <time>2021-08-11T11:26:37.817Z</time>
      </trkpt>
      <trkpt lat="46.8746" lon="8.49612">
        <ele>1571</ele>
        <time>2021-08-11T11:26:38.818Z</time>
      </trkpt>
      <trkpt lat="46.8746" lon="8.49611">
        <ele>1571</ele>
        <time>2021-08-11T11:26:39.818Z</time>
      </trkpt>
      <trkpt lat="46.87461" lon="8.49611">
        <ele>1572</ele>
        <time>2021-08-11T11:26:40.817Z</time>
      </trkpt>
      <trkpt lat="46.87461" lon="8.4961">
        <ele>1572</ele>
        <time>2021-08-11T11:26:41.818Z</time>
      </trkpt>
      <trkpt lat="46.87461" lon="8.49609">
        <ele>1572</ele>
        <time>2021-08-11T11:26:42.818Z</time>
      </trkpt>
      <trkpt lat="46.87461" lon="8.49609">
        <ele>1572</ele>
        <time>2021-08-11T11:26:43.817Z</time>
      </trkpt>
      <trkpt lat="46.87462" lon="8.49608">
        <ele>1573</ele>
        <time>2021-08-11T11:26:50.829Z</time>
      </trkpt>
      <trkpt lat="46.87462" lon="8.49607">
        <ele>1573</ele>
        <time>2021-08-11T11:26:51.829Z</time>
      </trkpt>
      <trkpt lat="46.87462" lon="8.49607">
        <ele>1573</ele>
        <time>2021-08-11T11:26:52.829Z</time>
      </trkpt>
      <trkpt lat="46.87462" lon="8.49606">
        <ele>1573</ele>
        <time>2021-08-11T11:26:53.829Z</time>
      </trkpt>
      <trkpt lat="46.87463" lon="8.49606">
        <ele>1574</ele>
        <time>2021-08-11T11:26:54.828Z</time>
      </trkpt>
      <trkpt lat="46.87463" lon="8.49605">
        <ele>1574</ele>
        <time>2021-08-11T11:26:55.829Z</time>
      </trkpt>
      <trkpt lat="46.87463" lon="8.49605">
        <ele>1574</ele>
        <time>2021-08-11T11:26:56.828Z</time>
      </trkpt>
      <trkpt lat="46.87463" lon="8.49604">
        <ele>1574</ele>
        <time>2021-08-11T11:26:57.829Z</time>
      </trkpt>
      <trkpt lat="46.87463" lon="8.49603">
        <ele>1575</ele>
        <time>2021-08-11T11:26:58.829Z</time>
      </trkpt>
      <trkpt lat="46.87464" lon="8.49603">
        <ele>1575</ele>
        <time>2021-08-11T11:26:59.829Z</time>
      </trkpt>
      <trkpt lat="46.87464" lon="8.49602">
        <ele>1575</ele>
        <time>2021-08-11T11:27:00.829Z</time>
      </trkpt>
      <trkpt lat="46.87465" lon="8.49602">
        <ele>1575</ele>
        <time>2021-08-11T11:27:01.828Z</time>
      </trkpt>
      <trkpt lat="46.87465" lon="8.49601">
        <ele>1575</ele>
        <time>2021-08-11T11:27:02.828Z</time>
      </trkpt>
      <trkpt lat="46.87465" lon="8.496">
        <ele>1575</ele>
        <time>2021-08-11T11:27:03.829Z</time>
      </trkpt>
      <trkpt lat="46.87465" lon="8.496">
        <ele>1574</ele>
        <time>2021-08-11T11:27:04.828Z</time>
      </trkpt>
      <trkpt lat="46.87466" lon="8.49599">
        <ele>1575</ele>
        <time>2021-08-11T11:27:05.829Z</time>
      </trkpt>
      <trkpt lat="46.87466" lon="8.49598">
        <ele>1575</ele>
        <time>2021-08-11T11:27:06.829Z</time>
      </trkpt>
      <trkpt lat="46.87467" lon="8.49597">
        <ele>1576</ele>
        <time>2021-08-11T11:27:07.829Z</time>
      </trkpt>
      <trkpt lat="46.87467" lon="8.49596">
        <ele>1576</ele>
        <time>2021-08-11T11:27:08.829Z</time>
      </trkpt>
      <trkpt lat="46.87467" lon="8.49596">
        <ele>1576</ele>
        <time>2021-08-11T11:27:09.829Z</time>
      </trkpt>
      <trkpt lat="46.87467" lon="8.49595">
        <ele>1576</ele>
        <time>2021-08-11T11:27:10.829Z</time>
      </trkpt>
      <trkpt lat="46.87467" lon="8.49595">
        <ele>1575</ele>
        <time>2021-08-11T11:27:11.829Z</time>
      </trkpt>
      <trkpt lat="46.87467" lon="8.49594">
        <ele>1575</ele>
        <time>2021-08-11T11:27:12.829Z</time>
      </trkpt>
      <trkpt lat="46.87466" lon="8.49593">
        <ele>1575</ele>
        <time>2021-08-11T11:27:13.829Z</time>
      </trkpt>
      <trkpt lat="46.87466" lon="8.49593">
        <ele>1575</ele>
        <time>2021-08-11T11:27:14.829Z</time>
      </trkpt>
      <trkpt lat="46.87466" lon="8.49592">
        <ele>1575</ele>
        <time>2021-08-11T11:27:15.829Z</time>
      </trkpt>
      <trkpt lat="46.87467" lon="8.49591">
        <ele>1574</ele>
        <time>2021-08-11T11:27:16.829Z</time>
      </trkpt>
      <trkpt lat="46.87467" lon="8.49591">
        <ele>1574</ele>
        <time>2021-08-11T11:27:17.829Z</time>
      </trkpt>
      <trkpt lat="46.87467" lon="8.4959">
        <ele>1574</ele>
        <time>2021-08-11T11:27:18.829Z</time>
      </trkpt>
      <trkpt lat="46.87467" lon="8.4959">
        <ele>1574</ele>
        <time>2021-08-11T11:27:19.828Z</time>
      </trkpt>
      <trkpt lat="46.87467" lon="8.49589">
        <ele>1574</ele>
        <time>2021-08-11T11:27:20.828Z</time>
      </trkpt>
      <trkpt lat="46.87466" lon="8.49588">
        <ele>1574</ele>
        <time>2021-08-11T11:27:22.912Z</time>
      </trkpt>
      <trkpt lat="46.87467" lon="8.49588">
        <ele>1574</ele>
        <time>2021-08-11T11:27:23.911Z</time>
      </trkpt>
      <trkpt lat="46.87465" lon="8.49587">
        <ele>1574</ele>
        <time>2021-08-11T11:27:24.912Z</time>
      </trkpt>
      <trkpt lat="46.87466" lon="8.49587">
        <ele>1574</ele>
        <time>2021-08-11T11:27:25.912Z</time>
      </trkpt>
      <trkpt lat="46.87466" lon="8.49586">
        <ele>1575</ele>
        <time>2021-08-11T11:27:26.912Z</time>
      </trkpt>
      <trkpt lat="46.87467" lon="8.49585">
        <ele>1575</ele>
        <time>2021-08-11T11:27:27.912Z</time>
      </trkpt>
      <trkpt lat="46.87468" lon="8.49585">
        <ele>1576</ele>
        <time>2021-08-11T11:27:28.912Z</time>
      </trkpt>
      <trkpt lat="46.87468" lon="8.49584">
        <ele>1576</ele>
        <time>2021-08-11T11:27:29.912Z</time>
      </trkpt>
      <trkpt lat="46.87469" lon="8.49584">
        <ele>1576</ele>
        <time>2021-08-11T11:27:30.912Z</time>
      </trkpt>
      <trkpt lat="46.87469" lon="8.49583">
        <ele>1577</ele>
        <time>2021-08-11T11:27:32.907Z</time>
      </trkpt>
      <trkpt lat="46.87469" lon="8.49582">
        <ele>1577</ele>
        <time>2021-08-11T11:27:33.907Z</time>
      </trkpt>
      <trkpt lat="46.87469" lon="8.49581">
        <ele>1577</ele>
        <time>2021-08-11T11:27:37.697Z</time>
      </trkpt>
      <trkpt lat="46.8747" lon="8.49581">
        <ele>1578</ele>
        <time>2021-08-11T11:27:38.698Z</time>
      </trkpt>
      <trkpt lat="46.8747" lon="8.4958">
        <ele>1578</ele>
        <time>2021-08-11T11:27:39.698Z</time>
      </trkpt>
      <trkpt lat="46.87471" lon="8.49579">
        <ele>1579</ele>
        <time>2021-08-11T11:27:40.698Z</time>
      </trkpt>
      <trkpt lat="46.87472" lon="8.49578">
        <ele>1579</ele>
        <time>2021-08-11T11:27:41.698Z</time>
      </trkpt>
      <trkpt lat="46.87471" lon="8.49578">
        <ele>1579</ele>
        <time>2021-08-11T11:27:42.697Z</time>
      </trkpt>
      <trkpt lat="46.8747" lon="8.49577">
        <ele>1579</ele>
        <time>2021-08-11T11:27:43.698Z</time>
      </trkpt>
      <trkpt lat="46.87469" lon="8.49576">
        <ele>1579</ele>
        <time>2021-08-11T11:28:08.798Z</time>
      </trkpt>
      <trkpt lat="46.87469" lon="8.49575">
        <ele>1579</ele>
        <time>2021-08-11T11:28:09.798Z</time>
      </trkpt>
      <trkpt lat="46.8747" lon="8.49574">
        <ele>1579</ele>
        <time>2021-08-11T11:28:10.797Z</time>
      </trkpt>
      <trkpt lat="46.8747" lon="8.49573">
        <ele>1579</ele>
        <time>2021-08-11T11:28:11.798Z</time>
      </trkpt>
      <trkpt lat="46.8747" lon="8.49572">
        <ele>1579</ele>
        <time>2021-08-11T11:28:12.797Z</time>
      </trkpt>
      <trkpt lat="46.8747" lon="8.49571">
        <ele>1579</ele>
        <time>2021-08-11T11:28:13.797Z</time>
      </trkpt>
      <trkpt lat="46.8747" lon="8.49571">
        <ele>1579</ele>
        <time>2021-08-11T11:28:14.798Z</time>
      </trkpt>
      <trkpt lat="46.87471" lon="8.4957">
        <ele>1579</ele>
        <time>2021-08-11T11:28:15.798Z</time>
      </trkpt>
      <trkpt lat="46.87472" lon="8.49569">
        <ele>1579</ele>
        <time>2021-08-11T11:28:16.798Z</time>
      </trkpt>
      <trkpt lat="46.87472" lon="8.49568">
        <ele>1579</ele>
        <time>2021-08-11T11:28:17.798Z</time>
      </trkpt>
      <trkpt lat="46.87473" lon="8.49567">
        <ele>1580</ele>
        <time>2021-08-11T11:28:18.797Z</time>
      </trkpt>
      <trkpt lat="46.87473" lon="8.49566">
        <ele>1580</ele>
        <time>2021-08-11T11:28:19.798Z</time>
      </trkpt>
      <trkpt lat="46.87474" lon="8.49566">
        <ele>1580</ele>
        <time>2021-08-11T11:28:20.798Z</time>
      </trkpt>
      <trkpt lat="46.87474" lon="8.49565">
        <ele>1581</ele>
        <time>2021-08-11T11:28:21.798Z</time>
      </trkpt>
      <trkpt lat="46.87475" lon="8.49564">
        <ele>1581</ele>
        <time>2021-08-11T11:28:22.798Z</time>
      </trkpt>
      <trkpt lat="46.87475" lon="8.49564">
        <ele>1581</ele>
        <time>2021-08-11T11:28:23.798Z</time>
      </trkpt>
      <trkpt lat="46.87476" lon="8.49563">
        <ele>1582</ele>
        <time>2021-08-11T11:28:24.798Z</time>
      </trkpt>
      <trkpt lat="46.87477" lon="8.49562">
        <ele>1583</ele>
        <time>2021-08-11T11:28:25.797Z</time>
      </trkpt>
      <trkpt lat="46.87478" lon="8.49561">
        <ele>1583</ele>
        <time>2021-08-11T11:28:26.797Z</time>
      </trkpt>
      <trkpt lat="46.87478" lon="8.4956">
        <ele>1584</ele>
        <time>2021-08-11T11:28:27.797Z</time>
      </trkpt>
      <trkpt lat="46.87478" lon="8.49559">
        <ele>1584</ele>
        <time>2021-08-11T11:28:28.797Z</time>
      </trkpt>
      <trkpt lat="46.87478" lon="8.49558">
        <ele>1584</ele>
        <time>2021-08-11T11:28:29.797Z</time>
      </trkpt>
      <trkpt lat="46.87479" lon="8.49558">
        <ele>1584</ele>
        <time>2021-08-11T11:28:30.798Z</time>
      </trkpt>
      <trkpt lat="46.8748" lon="8.49557">
        <ele>1585</ele>
        <time>2021-08-11T11:28:31.798Z</time>
      </trkpt>
      <trkpt lat="46.8748" lon="8.49556">
        <ele>1585</ele>
        <time>2021-08-11T11:28:32.798Z</time>
      </trkpt>
      <trkpt lat="46.8748" lon="8.49555">
        <ele>1585</ele>
        <time>2021-08-11T11:28:33.797Z</time>
      </trkpt>
      <trkpt lat="46.8748" lon="8.49554">
        <ele>1585</ele>
        <time>2021-08-11T11:28:34.798Z</time>
      </trkpt>
      <trkpt lat="46.87481" lon="8.49553">
        <ele>1586</ele>
        <time>2021-08-11T11:28:35.798Z</time>
      </trkpt>
      <trkpt lat="46.87481" lon="8.49552">
        <ele>1586</ele>
        <time>2021-08-11T11:28:36.798Z</time>
      </trkpt>
      <trkpt lat="46.87482" lon="8.49551">
        <ele>1586</ele>
        <time>2021-08-11T11:28:37.798Z</time>
      </trkpt>
      <trkpt lat="46.87483" lon="8.4955">
        <ele>1587</ele>
        <time>2021-08-11T11:28:38.798Z</time>
      </trkpt>
      <trkpt lat="46.87483" lon="8.49549">
        <ele>1588</ele>
        <time>2021-08-11T11:28:39.798Z</time>
      </trkpt>
      <trkpt lat="46.87483" lon="8.49549">
        <ele>1588</ele>
        <time>2021-08-11T11:28:50.800Z</time>
      </trkpt>
      <trkpt lat="46.87483" lon="8.49548">
        <ele>1588</ele>
        <time>2021-08-11T11:28:51.801Z</time>
      </trkpt>
      <trkpt lat="46.87484" lon="8.49547">
        <ele>1589</ele>
        <time>2021-08-11T11:28:52.801Z</time>
      </trkpt>
      <trkpt lat="46.87484" lon="8.49546">
        <ele>1589</ele>
        <time>2021-08-11T11:28:53.801Z</time>
      </trkpt>
      <trkpt lat="46.87483" lon="8.49545">
        <ele>1589</ele>
        <time>2021-08-11T11:28:54.801Z</time>
      </trkpt>
      <trkpt lat="46.87483" lon="8.49544">
        <ele>1588</ele>
        <time>2021-08-11T11:28:55.800Z</time>
      </trkpt>
      <trkpt lat="46.87482" lon="8.49544">
        <ele>1587</ele>
        <time>2021-08-11T11:28:56.800Z</time>
      </trkpt>
      <trkpt lat="46.87482" lon="8.49543">
        <ele>1587</ele>
        <time>2021-08-11T11:28:57.801Z</time>
      </trkpt>
      <trkpt lat="46.87482" lon="8.49542">
        <ele>1586</ele>
        <time>2021-08-11T11:29:02.960Z</time>
      </trkpt>
      <trkpt lat="46.87482" lon="8.49541">
        <ele>1586</ele>
        <time>2021-08-11T11:29:03.961Z</time>
      </trkpt>
      <trkpt lat="46.87481" lon="8.4954">
        <ele>1586</ele>
        <time>2021-08-11T11:29:04.961Z</time>
      </trkpt>
      <trkpt lat="46.87481" lon="8.49539">
        <ele>1586</ele>
        <time>2021-08-11T11:29:05.961Z</time>
      </trkpt>
      <trkpt lat="46.87481" lon="8.49538">
        <ele>1586</ele>
        <time>2021-08-11T11:29:06.961Z</time>
      </trkpt>
      <trkpt lat="46.8748" lon="8.49537">
        <ele>1585</ele>
        <time>2021-08-11T11:29:07.961Z</time>
      </trkpt>
      <trkpt lat="46.87481" lon="8.49537">
        <ele>1585</ele>
        <time>2021-08-11T11:29:08.961Z</time>
      </trkpt>
      <trkpt lat="46.87481" lon="8.49536">
        <ele>1585</ele>
        <time>2021-08-11T11:29:09.961Z</time>
      </trkpt>
      <trkpt lat="46.87481" lon="8.49535">
        <ele>1585</ele>
        <time>2021-08-11T11:29:10.961Z</time>
      </trkpt>
      <trkpt lat="46.87482" lon="8.49534">
        <ele>1585</ele>
        <time>2021-08-11T11:29:11.961Z</time>
      </trkpt>
      <trkpt lat="46.87482" lon="8.49533">
        <ele>1585</ele>
        <time>2021-08-11T11:29:12.961Z</time>
      </trkpt>
      <trkpt lat="46.87482" lon="8.49532">
        <ele>1585</ele>
        <time>2021-08-11T11:29:13.961Z</time>
      </trkpt>
      <trkpt lat="46.87482" lon="8.49531">
        <ele>1586</ele>
        <time>2021-08-11T11:29:14.960Z</time>
      </trkpt>
      <trkpt lat="46.87483" lon="8.49531">
        <ele>1586</ele>
        <time>2021-08-11T11:29:15.960Z</time>
      </trkpt>
      <trkpt lat="46.87483" lon="8.4953">
        <ele>1587</ele>
        <time>2021-08-11T11:29:16.961Z</time>
      </trkpt>
      <trkpt lat="46.87483" lon="8.49529">
        <ele>1587</ele>
        <time>2021-08-11T11:29:17.961Z</time>
      </trkpt>
      <trkpt lat="46.87483" lon="8.49528">
        <ele>1587</ele>
        <time>2021-08-11T11:29:18.961Z</time>
      </trkpt>
      <trkpt lat="46.87483" lon="8.49527">
        <ele>1587</ele>
        <time>2021-08-11T11:29:21.049Z</time>
      </trkpt>
      <trkpt lat="46.87482" lon="8.49526">
        <ele>1587</ele>
        <time>2021-08-11T11:29:22.050Z</time>
      </trkpt>
      <trkpt lat="46.87481" lon="8.49525">
        <ele>1587</ele>
        <time>2021-08-11T11:29:23.050Z</time>
      </trkpt>
      <trkpt lat="46.87479" lon="8.49524">
        <ele>1587</ele>
        <time>2021-08-11T11:29:24.050Z</time>
      </trkpt>
      <trkpt lat="46.87479" lon="8.49523">
        <ele>1587</ele>
        <time>2021-08-11T11:29:25.050Z</time>
      </trkpt>
      <trkpt lat="46.87479" lon="8.49522">
        <ele>1587</ele>
        <time>2021-08-11T11:29:26.049Z</time>
      </trkpt>
      <trkpt lat="46.87479" lon="8.49521">
        <ele>1586</ele>
        <time>2021-08-11T11:29:27.050Z</time>
      </trkpt>
      <trkpt lat="46.87479" lon="8.4952">
        <ele>1586</ele>
        <time>2021-08-11T11:29:28.050Z</time>
      </trkpt>
      <trkpt lat="46.87479" lon="8.4952">
        <ele>1585</ele>
        <time>2021-08-11T11:29:29.049Z</time>
      </trkpt>
      <trkpt lat="46.87478" lon="8.49519">
        <ele>1585</ele>
        <time>2021-08-11T11:29:30.050Z</time>
      </trkpt>
      <trkpt lat="46.87478" lon="8.49518">
        <ele>1584</ele>
        <time>2021-08-11T11:29:31.050Z</time>
      </trkpt>
      <trkpt lat="46.87477" lon="8.49517">
        <ele>1583</ele>
        <time>2021-08-11T11:29:32.050Z</time>
      </trkpt>
      <trkpt lat="46.87476" lon="8.49517">
        <ele>1583</ele>
        <time>2021-08-11T11:29:33.050Z</time>
      </trkpt>
      <trkpt lat="46.87476" lon="8.49516">
        <ele>1582</ele>
        <time>2021-08-11T11:29:34.049Z</time>
      </trkpt>
      <trkpt lat="46.87475" lon="8.49515">
        <ele>1581</ele>
        <time>2021-08-11T11:29:35.049Z</time>
      </trkpt>
      <trkpt lat="46.87474" lon="8.49515">
        <ele>1581</ele>
        <time>2021-08-11T11:29:36.050Z</time>
      </trkpt>
      <trkpt lat="46.87474" lon="8.49514">
        <ele>1580</ele>
        <time>2021-08-11T11:29:37.050Z</time>
      </trkpt>
      <trkpt lat="46.87472" lon="8.49513">
        <ele>1579</ele>
        <time>2021-08-11T11:29:38.050Z</time>
      </trkpt>
      <trkpt lat="46.87472" lon="8.49512">
        <ele>1579</ele>
        <time>2021-08-11T11:29:39.049Z</time>
      </trkpt>
      <trkpt lat="46.87471" lon="8.49511">
        <ele>1578</ele>
        <time>2021-08-11T11:29:40.050Z</time>
      </trkpt>
      <trkpt lat="46.87471" lon="8.4951">
        <ele>1578</ele>
        <time>2021-08-11T11:29:41.050Z</time>
      </trkpt>
      <trkpt lat="46.87472" lon="8.4951">
        <ele>1578</ele>
        <time>2021-08-11T11:29:42.050Z</time>
      </trkpt>
      <trkpt lat="46.8747" lon="8.49509">
        <ele>1578</ele>
        <time>2021-08-11T11:29:43.050Z</time>
      </trkpt>
      <trkpt lat="46.87469" lon="8.49508">
        <ele>1578</ele>
        <time>2021-08-11T11:29:50.197Z</time>
      </trkpt>
      <trkpt lat="46.87468" lon="8.49506">
        <ele>1577</ele>
        <time>2021-08-11T11:29:51.197Z</time>
      </trkpt>
      <trkpt lat="46.87467" lon="8.49505">
        <ele>1576</ele>
        <time>2021-08-11T11:29:52.196Z</time>
      </trkpt>
      <trkpt lat="46.87467" lon="8.49504">
        <ele>1576</ele>
        <time>2021-08-11T11:29:57.095Z</time>
      </trkpt>
      <trkpt lat="46.87467" lon="8.49503">
        <ele>1576</ele>
        <time>2021-08-11T11:29:58.095Z</time>
      </trkpt>
      <trkpt lat="46.87467" lon="8.49502">
        <ele>1576</ele>
        <time>2021-08-11T11:29:59.095Z</time>
      </trkpt>
      <trkpt lat="46.87467" lon="8.49501">
        <ele>1576</ele>
        <time>2021-08-11T11:30:00.095Z</time>
      </trkpt>
      <trkpt lat="46.87467" lon="8.49501">
        <ele>1576</ele>
        <time>2021-08-11T11:30:01.095Z</time>
      </trkpt>
      <trkpt lat="46.87467" lon="8.49499">
        <ele>1577</ele>
        <time>2021-08-11T11:30:02.094Z</time>
      </trkpt>
      <trkpt lat="46.87467" lon="8.49498">
        <ele>1577</ele>
        <time>2021-08-11T11:30:03.095Z</time>
      </trkpt>
      <trkpt lat="46.87467" lon="8.49497">
        <ele>1578</ele>
        <time>2021-08-11T11:30:06.159Z</time>
      </trkpt>
      <trkpt lat="46.87467" lon="8.49496">
        <ele>1578</ele>
        <time>2021-08-11T11:30:07.159Z</time>
      </trkpt>
      <trkpt lat="46.87467" lon="8.49496">
        <ele>1578</ele>
        <time>2021-08-11T11:30:08.158Z</time>
      </trkpt>
      <trkpt lat="46.87467" lon="8.49495">
        <ele>1578</ele>
        <time>2021-08-11T11:30:09.159Z</time>
      </trkpt>
      <trkpt lat="46.87467" lon="8.49495">
        <ele>1578</ele>
        <time>2021-08-11T11:30:10.159Z</time>
      </trkpt>
      <trkpt lat="46.87468" lon="8.49494">
        <ele>1578</ele>
        <time>2021-08-11T11:30:11.158Z</time>
      </trkpt>
      <trkpt lat="46.87468" lon="8.49493">
        <ele>1577</ele>
        <time>2021-08-11T11:30:12.159Z</time>
      </trkpt>
      <trkpt lat="46.87468" lon="8.49492">
        <ele>1577</ele>
        <time>2021-08-11T11:30:13.159Z</time>
      </trkpt>
      <trkpt lat="46.87468" lon="8.49491">
        <ele>1577</ele>
        <time>2021-08-11T11:30:14.159Z</time>
      </trkpt>
      <trkpt lat="46.87468" lon="8.49491">
        <ele>1577</ele>
        <time>2021-08-11T11:30:15.159Z</time>
      </trkpt>
      <trkpt lat="46.87468" lon="8.4949">
        <ele>1577</ele>
        <time>2021-08-11T11:30:16.159Z</time>
      </trkpt>
      <trkpt lat="46.87468" lon="8.49489">
        <ele>1577</ele>
        <time>2021-08-11T11:30:23.317Z</time>
      </trkpt>
      <trkpt lat="46.87468" lon="8.49488">
        <ele>1577</ele>
        <time>2021-08-11T11:30:24.317Z</time>
      </trkpt>
      <trkpt lat="46.87469" lon="8.49487">
        <ele>1578</ele>
        <time>2021-08-11T11:30:25.317Z</time>
      </trkpt>
      <trkpt lat="46.8747" lon="8.49486">
        <ele>1578</ele>
        <time>2021-08-11T11:30:26.317Z</time>
      </trkpt>
      <trkpt lat="46.87471" lon="8.49486">
        <ele>1579</ele>
        <time>2021-08-11T11:30:27.317Z</time>
      </trkpt>
      <trkpt lat="46.87472" lon="8.49485">
        <ele>1579</ele>
        <time>2021-08-11T11:30:30.406Z</time>
      </trkpt>
      <trkpt lat="46.87472" lon="8.49484">
        <ele>1580</ele>
        <time>2021-08-11T11:30:33.320Z</time>
      </trkpt>
      <trkpt lat="46.87473" lon="8.49483">
        <ele>1582</ele>
        <time>2021-08-11T11:30:34.321Z</time>
      </trkpt>
      <trkpt lat="46.87473" lon="8.49482">
        <ele>1583</ele>
        <time>2021-08-11T11:30:35.321Z</time>
      </trkpt>
      <trkpt lat="46.87473" lon="8.49481">
        <ele>1583</ele>
        <time>2021-08-11T11:30:36.321Z</time>
      </trkpt>
      <trkpt lat="46.87473" lon="8.4948">
        <ele>1583</ele>
        <time>2021-08-11T11:30:37.321Z</time>
      </trkpt>
      <trkpt lat="46.87474" lon="8.4948">
        <ele>1583</ele>
        <time>2021-08-11T11:30:38.321Z</time>
      </trkpt>
      <trkpt lat="46.87474" lon="8.49479">
        <ele>1583</ele>
        <time>2021-08-11T11:30:39.321Z</time>
      </trkpt>
      <trkpt lat="46.87474" lon="8.49478">
        <ele>1583</ele>
        <time>2021-08-11T11:30:40.321Z</time>
      </trkpt>
      <trkpt lat="46.87475" lon="8.49477">
        <ele>1583</ele>
        <time>2021-08-11T11:30:42.403Z</time>
      </trkpt>
      <trkpt lat="46.87475" lon="8.49476">
        <ele>1583</ele>
        <time>2021-08-11T11:30:43.402Z</time>
      </trkpt>
      <trkpt lat="46.87475" lon="8.49475">
        <ele>1584</ele>
        <time>2021-08-11T11:30:46.308Z</time>
      </trkpt>
      <trkpt lat="46.87475" lon="8.49474">
        <ele>1584</ele>
        <time>2021-08-11T11:30:47.308Z</time>
      </trkpt>
      <trkpt lat="46.87475" lon="8.49473">
        <ele>1584</ele>
        <time>2021-08-11T11:30:48.309Z</time>
      </trkpt>
      <trkpt lat="46.87474" lon="8.49472">
        <ele>1584</ele>
        <time>2021-08-11T11:30:49.309Z</time>
      </trkpt>
      <trkpt lat="46.87474" lon="8.49471">
        <ele>1583</ele>
        <time>2021-08-11T11:30:50.309Z</time>
      </trkpt>
      <trkpt lat="46.87474" lon="8.4947">
        <ele>1583</ele>
        <time>2021-08-11T11:30:51.308Z</time>
      </trkpt>
      <trkpt lat="46.87474" lon="8.49469">
        <ele>1583</ele>
        <time>2021-08-11T11:30:52.309Z</time>
      </trkpt>
      <trkpt lat="46.87474" lon="8.49469">
        <ele>1583</ele>
        <time>2021-08-11T11:30:53.308Z</time>
      </trkpt>
      <trkpt lat="46.87474" lon="8.49468">
        <ele>1582</ele>
        <time>2021-08-11T11:30:54.309Z</time>
      </trkpt>
      <trkpt lat="46.87474" lon="8.49467">
        <ele>1582</ele>
        <time>2021-08-11T11:30:55.308Z</time>
      </trkpt>
      <trkpt lat="46.87474" lon="8.49466">
        <ele>1582</ele>
        <time>2021-08-11T11:30:56.308Z</time>
      </trkpt>
      <trkpt lat="46.87475" lon="8.49465">
        <ele>1582</ele>
        <time>2021-08-11T11:30:57.309Z</time>
      </trkpt>
      <trkpt lat="46.87475" lon="8.49464">
        <ele>1583</ele>
        <time>2021-08-11T11:30:58.308Z</time>
      </trkpt>
      <trkpt lat="46.87476" lon="8.49463">
        <ele>1583</ele>
        <time>2021-08-11T11:30:59.309Z</time>
      </trkpt>
      <trkpt lat="46.87476" lon="8.49462">
        <ele>1584</ele>
        <time>2021-08-11T11:31:03.419Z</time>
      </trkpt>
      <trkpt lat="46.87476" lon="8.49461">
        <ele>1584</ele>
        <time>2021-08-11T11:31:04.419Z</time>
      </trkpt>
      <trkpt lat="46.87476" lon="8.4946">
        <ele>1584</ele>
        <time>2021-08-11T11:31:05.418Z</time>
      </trkpt>
      <trkpt lat="46.87477" lon="8.49459">
        <ele>1585</ele>
        <time>2021-08-11T11:31:06.418Z</time>
      </trkpt>
      <trkpt lat="46.87477" lon="8.49458">
        <ele>1586</ele>
        <time>2021-08-11T11:31:07.419Z</time>
      </trkpt>
      <trkpt lat="46.87478" lon="8.49457">
        <ele>1587</ele>
        <time>2021-08-11T11:31:08.418Z</time>
      </trkpt>
      <trkpt lat="46.87479" lon="8.49457">
        <ele>1588</ele>
        <time>2021-08-11T11:31:09.419Z</time>
      </trkpt>
      <trkpt lat="46.8748" lon="8.49455">
        <ele>1589</ele>
        <time>2021-08-11T11:31:10.419Z</time>
      </trkpt>
      <trkpt lat="46.8748" lon="8.49454">
        <ele>1590</ele>
        <time>2021-08-11T11:31:11.418Z</time>
      </trkpt>
      <trkpt lat="46.87479" lon="8.49452">
        <ele>1590</ele>
        <time>2021-08-11T11:31:12.419Z</time>
      </trkpt>
      <trkpt lat="46.87479" lon="8.49452">
        <ele>1590</ele>
        <time>2021-08-11T11:31:13.418Z</time>
      </trkpt>
      <trkpt lat="46.87479" lon="8.49451">
        <ele>1591</ele>
        <time>2021-08-11T11:31:15.552Z</time>
      </trkpt>
      <trkpt lat="46.8748" lon="8.4945">
        <ele>1591</ele>
        <time>2021-08-11T11:31:16.552Z</time>
      </trkpt>
      <trkpt lat="46.8748" lon="8.49449">
        <ele>1591</ele>
        <time>2021-08-11T11:31:17.551Z</time>
      </trkpt>
      <trkpt lat="46.87481" lon="8.49448">
        <ele>1592</ele>
        <time>2021-08-11T11:31:18.551Z</time>
      </trkpt>
      <trkpt lat="46.87481" lon="8.49447">
        <ele>1591</ele>
        <time>2021-08-11T11:31:19.552Z</time>
      </trkpt>
      <trkpt lat="46.87482" lon="8.49446">
        <ele>1591</ele>
        <time>2021-08-11T11:31:20.552Z</time>
      </trkpt>
      <trkpt lat="46.87482" lon="8.49445">
        <ele>1591</ele>
        <time>2021-08-11T11:31:21.552Z</time>
      </trkpt>
      <trkpt lat="46.87482" lon="8.49444">
        <ele>1592</ele>
        <time>2021-08-11T11:31:22.552Z</time>
      </trkpt>
      <trkpt lat="46.87482" lon="8.49442">
        <ele>1592</ele>
        <time>2021-08-11T11:31:23.551Z</time>
      </trkpt>
      <trkpt lat="46.87482" lon="8.49441">
        <ele>1592</ele>
        <time>2021-08-11T11:31:24.551Z</time>
      </trkpt>
      <trkpt lat="46.87482" lon="8.4944">
        <ele>1592</ele>
        <time>2021-08-11T11:31:25.551Z</time>
      </trkpt>
      <trkpt lat="46.87482" lon="8.49439">
        <ele>1592</ele>
        <time>2021-08-11T11:31:26.551Z</time>
      </trkpt>
      <trkpt lat="46.87482" lon="8.49438">
        <ele>1592</ele>
        <time>2021-08-11T11:31:27.551Z</time>
      </trkpt>
      <trkpt lat="46.87483" lon="8.49438">
        <ele>1592</ele>
        <time>2021-08-11T11:31:28.551Z</time>
      </trkpt>
      <trkpt lat="46.87483" lon="8.49437">
        <ele>1592</ele>
        <time>2021-08-11T11:31:29.552Z</time>
      </trkpt>
      <trkpt lat="46.87483" lon="8.49436">
        <ele>1592</ele>
        <time>2021-08-11T11:31:30.551Z</time>
      </trkpt>
      <trkpt lat="46.87483" lon="8.49435">
        <ele>1592</ele>
        <time>2021-08-11T11:31:35.690Z</time>
      </trkpt>
      <trkpt lat="46.87483" lon="8.49434">
        <ele>1592</ele>
        <time>2021-08-11T11:31:36.689Z</time>
      </trkpt>
      <trkpt lat="46.87482" lon="8.49433">
        <ele>1591</ele>
        <time>2021-08-11T11:31:39.527Z</time>
      </trkpt>
      <trkpt lat="46.87483" lon="8.49432">
        <ele>1591</ele>
        <time>2021-08-11T11:31:40.526Z</time>
      </trkpt>
      <trkpt lat="46.87483" lon="8.49431">
        <ele>1591</ele>
        <time>2021-08-11T11:31:41.526Z</time>
      </trkpt>
      <trkpt lat="46.87484" lon="8.49431">
        <ele>1591</ele>
        <time>2021-08-11T11:31:42.526Z</time>
      </trkpt>
      <trkpt lat="46.87484" lon="8.4943">
        <ele>1591</ele>
        <time>2021-08-11T11:31:43.526Z</time>
      </trkpt>
      <trkpt lat="46.87484" lon="8.49429">
        <ele>1591</ele>
        <time>2021-08-11T11:31:44.527Z</time>
      </trkpt>
      <trkpt lat="46.87484" lon="8.49428">
        <ele>1591</ele>
        <time>2021-08-11T11:31:45.526Z</time>
      </trkpt>
      <trkpt lat="46.87484" lon="8.49428">
        <ele>1591</ele>
        <time>2021-08-11T11:31:46.527Z</time>
      </trkpt>
      <trkpt lat="46.87484" lon="8.49427">
        <ele>1590</ele>
        <time>2021-08-11T11:31:47.526Z</time>
      </trkpt>
      <trkpt lat="46.87484" lon="8.49426">
        <ele>1590</ele>
        <time>2021-08-11T11:31:48.526Z</time>
      </trkpt>
      <trkpt lat="46.87483" lon="8.49425">
        <ele>1590</ele>
        <time>2021-08-11T11:31:49.527Z</time>
      </trkpt>
      <trkpt lat="46.87483" lon="8.49424">
        <ele>1589</ele>
        <time>2021-08-11T11:31:50.527Z</time>
      </trkpt>
      <trkpt lat="46.87483" lon="8.49423">
        <ele>1589</ele>
        <time>2021-08-11T11:31:51.527Z</time>
      </trkpt>
      <trkpt lat="46.87483" lon="8.49423">
        <ele>1588</ele>
        <time>2021-08-11T11:31:52.526Z</time>
      </trkpt>
      <trkpt lat="46.87482" lon="8.49422">
        <ele>1588</ele>
        <time>2021-08-11T11:31:53.527Z</time>
      </trkpt>
      <trkpt lat="46.87482" lon="8.49421">
        <ele>1587</ele>
        <time>2021-08-11T11:31:54.527Z</time>
      </trkpt>
      <trkpt lat="46.87482" lon="8.4942">
        <ele>1587</ele>
        <time>2021-08-11T11:31:55.527Z</time>
      </trkpt>
      <trkpt lat="46.87482" lon="8.49419">
        <ele>1588</ele>
        <time>2021-08-11T11:31:56.526Z</time>
      </trkpt>
      <trkpt lat="46.87482" lon="8.49418">
        <ele>1588</ele>
        <time>2021-08-11T11:31:57.527Z</time>
      </trkpt>
      <trkpt lat="46.87481" lon="8.49417">
        <ele>1588</ele>
        <time>2021-08-11T11:31:58.526Z</time>
      </trkpt>
      <trkpt lat="46.87482" lon="8.49415">
        <ele>1587</ele>
        <time>2021-08-11T11:31:59.527Z</time>
      </trkpt>
      <trkpt lat="46.87482" lon="8.49414">
        <ele>1587</ele>
        <time>2021-08-11T11:32:00.526Z</time>
      </trkpt>
      <trkpt lat="46.87482" lon="8.49413">
        <ele>1587</ele>
        <time>2021-08-11T11:32:01.526Z</time>
      </trkpt>
      <trkpt lat="46.87482" lon="8.49412">
        <ele>1587</ele>
        <time>2021-08-11T11:32:02.527Z</time>
      </trkpt>
      <trkpt lat="46.87482" lon="8.49411">
        <ele>1587</ele>
        <time>2021-08-11T11:32:03.527Z</time>
      </trkpt>
      <trkpt lat="46.87481" lon="8.49411">
        <ele>1587</ele>
        <time>2021-08-11T11:32:04.527Z</time>
      </trkpt>
      <trkpt lat="46.8748" lon="8.4941">
        <ele>1586</ele>
        <time>2021-08-11T11:32:05.526Z</time>
      </trkpt>
      <trkpt lat="46.87479" lon="8.49409">
        <ele>1586</ele>
        <time>2021-08-11T11:32:06.527Z</time>
      </trkpt>
      <trkpt lat="46.87478" lon="8.49408">
        <ele>1585</ele>
        <time>2021-08-11T11:32:07.527Z</time>
      </trkpt>
      <trkpt lat="46.87478" lon="8.49407">
        <ele>1585</ele>
        <time>2021-08-11T11:32:08.527Z</time>
      </trkpt>
      <trkpt lat="46.87478" lon="8.49406">
        <ele>1584</ele>
        <time>2021-08-11T11:32:09.527Z</time>
      </trkpt>
      <trkpt lat="46.87479" lon="8.49405">
        <ele>1584</ele>
        <time>2021-08-11T11:32:10.527Z</time>
      </trkpt>
      <trkpt lat="46.8748" lon="8.49404">
        <ele>1584</ele>
        <time>2021-08-11T11:32:11.527Z</time>
      </trkpt>
      <trkpt lat="46.87481" lon="8.49403">
        <ele>1584</ele>
        <time>2021-08-11T11:32:12.526Z</time>
      </trkpt>
      <trkpt lat="46.87482" lon="8.49402">
        <ele>1585</ele>
        <time>2021-08-11T11:32:15.652Z</time>
      </trkpt>
      <trkpt lat="46.87482" lon="8.49401">
        <ele>1585</ele>
        <time>2021-08-11T11:32:16.651Z</time>
      </trkpt>
      <trkpt lat="46.87483" lon="8.49401">
        <ele>1586</ele>
        <time>2021-08-11T11:32:17.652Z</time>
      </trkpt>
      <trkpt lat="46.87484" lon="8.494">
        <ele>1587</ele>
        <time>2021-08-11T11:32:18.652Z</time>
      </trkpt>
      <trkpt lat="46.87485" lon="8.49399">
        <ele>1588</ele>
        <time>2021-08-11T11:32:19.651Z</time>
      </trkpt>
      <trkpt lat="46.87486" lon="8.49398">
        <ele>1589</ele>
        <time>2021-08-11T11:32:20.652Z</time>
      </trkpt>
      <trkpt lat="46.87486" lon="8.49397">
        <ele>1590</ele>
        <time>2021-08-11T11:32:21.652Z</time>
      </trkpt>
      <trkpt lat="46.87487" lon="8.49396">
        <ele>1591</ele>
        <time>2021-08-11T11:32:22.652Z</time>
      </trkpt>
      <trkpt lat="46.87487" lon="8.49395">
        <ele>1592</ele>
        <time>2021-08-11T11:32:23.652Z</time>
      </trkpt>
      <trkpt lat="46.87487" lon="8.49394">
        <ele>1592</ele>
        <time>2021-08-11T11:32:24.652Z</time>
      </trkpt>
      <trkpt lat="46.87488" lon="8.49393">
        <ele>1592</ele>
        <time>2021-08-11T11:32:25.652Z</time>
      </trkpt>
      <trkpt lat="46.87488" lon="8.49392">
        <ele>1592</ele>
        <time>2021-08-11T11:32:26.651Z</time>
      </trkpt>
      <trkpt lat="46.87489" lon="8.49391">
        <ele>1592</ele>
        <time>2021-08-11T11:32:27.652Z</time>
      </trkpt>
      <trkpt lat="46.87489" lon="8.49391">
        <ele>1593</ele>
        <time>2021-08-11T11:32:28.652Z</time>
      </trkpt>
      <trkpt lat="46.8749" lon="8.4939">
        <ele>1593</ele>
        <time>2021-08-11T11:32:29.652Z</time>
      </trkpt>
      <trkpt lat="46.8749" lon="8.49389">
        <ele>1594</ele>
        <time>2021-08-11T11:32:30.651Z</time>
      </trkpt>
      <trkpt lat="46.8749" lon="8.49388">
        <ele>1594</ele>
        <time>2021-08-11T11:32:31.652Z</time>
      </trkpt>
      <trkpt lat="46.87491" lon="8.49387">
        <ele>1594</ele>
        <time>2021-08-11T11:32:32.652Z</time>
      </trkpt>
      <trkpt lat="46.8749" lon="8.49386">
        <ele>1594</ele>
        <time>2021-08-11T11:32:33.651Z</time>
      </trkpt>
      <trkpt lat="46.8749" lon="8.49384">
        <ele>1593</ele>
        <time>2021-08-11T11:32:34.652Z</time>
      </trkpt>
      <trkpt lat="46.8749" lon="8.49383">
        <ele>1593</ele>
        <time>2021-08-11T11:32:35.652Z</time>
      </trkpt>
      <trkpt lat="46.8749" lon="8.49382">
        <ele>1592</ele>
        <time>2021-08-11T11:32:36.652Z</time>
      </trkpt>
      <trkpt lat="46.87491" lon="8.49381">
        <ele>1592</ele>
        <time>2021-08-11T11:32:37.652Z</time>
      </trkpt>
      <trkpt lat="46.87491" lon="8.4938">
        <ele>1591</ele>
        <time>2021-08-11T11:32:38.651Z</time>
      </trkpt>
      <trkpt lat="46.87491" lon="8.49379">
        <ele>1591</ele>
        <time>2021-08-11T11:32:39.651Z</time>
      </trkpt>
      <trkpt lat="46.87491" lon="8.49378">
        <ele>1591</ele>
        <time>2021-08-11T11:32:40.652Z</time>
      </trkpt>
      <trkpt lat="46.87491" lon="8.49377">
        <ele>1592</ele>
        <time>2021-08-11T11:32:41.652Z</time>
      </trkpt>
      <trkpt lat="46.87492" lon="8.49376">
        <ele>1592</ele>
        <time>2021-08-11T11:32:42.651Z</time>
      </trkpt>
      <trkpt lat="46.87492" lon="8.49374">
        <ele>1593</ele>
        <time>2021-08-11T11:32:43.651Z</time>
      </trkpt>
      <trkpt lat="46.87492" lon="8.49373">
        <ele>1594</ele>
        <time>2021-08-11T11:32:44.652Z</time>
      </trkpt>
      <trkpt lat="46.87492" lon="8.49372">
        <ele>1594</ele>
        <time>2021-08-11T11:32:45.652Z</time>
      </trkpt>
      <trkpt lat="46.87492" lon="8.49372">
        <ele>1595</ele>
        <time>2021-08-11T11:32:46.651Z</time>
      </trkpt>
      <trkpt lat="46.87492" lon="8.49371">
        <ele>1595</ele>
        <time>2021-08-11T11:32:47.651Z</time>
      </trkpt>
      <trkpt lat="46.87493" lon="8.4937">
        <ele>1596</ele>
        <time>2021-08-11T11:32:48.652Z</time>
      </trkpt>
      <trkpt lat="46.87494" lon="8.49369">
        <ele>1597</ele>
        <time>2021-08-11T11:32:51.677Z</time>
      </trkpt>
      <trkpt lat="46.87494" lon="8.49368">
        <ele>1597</ele>
        <time>2021-08-11T11:32:52.677Z</time>
      </trkpt>
      <trkpt lat="46.87494" lon="8.49367">
        <ele>1597</ele>
        <time>2021-08-11T11:32:53.677Z</time>
      </trkpt>
      <trkpt lat="46.87494" lon="8.49366">
        <ele>1597</ele>
        <time>2021-08-11T11:32:57.810Z</time>
      </trkpt>
      <trkpt lat="46.87495" lon="8.49365">
        <ele>1597</ele>
        <time>2021-08-11T11:32:58.810Z</time>
      </trkpt>
      <trkpt lat="46.87495" lon="8.49364">
        <ele>1597</ele>
        <time>2021-08-11T11:33:01.773Z</time>
      </trkpt>
      <trkpt lat="46.87496" lon="8.49363">
        <ele>1598</ele>
        <time>2021-08-11T11:33:02.774Z</time>
      </trkpt>
      <trkpt lat="46.87496" lon="8.49362">
        <ele>1598</ele>
        <time>2021-08-11T11:33:03.774Z</time>
      </trkpt>
      <trkpt lat="46.87496" lon="8.49361">
        <ele>1598</ele>
        <time>2021-08-11T11:33:04.774Z</time>
      </trkpt>
      <trkpt lat="46.87496" lon="8.4936">
        <ele>1598</ele>
        <time>2021-08-11T11:33:10.792Z</time>
      </trkpt>
      <trkpt lat="46.87496" lon="8.49359">
        <ele>1599</ele>
        <time>2021-08-11T11:33:11.791Z</time>
      </trkpt>
      <trkpt lat="46.87496" lon="8.49357">
        <ele>1599</ele>
        <time>2021-08-11T11:33:12.792Z</time>
      </trkpt>
      <trkpt lat="46.87496" lon="8.49356">
        <ele>1598</ele>
        <time>2021-08-11T11:33:13.792Z</time>
      </trkpt>
      <trkpt lat="46.87495" lon="8.49355">
        <ele>1598</ele>
        <time>2021-08-11T11:33:14.792Z</time>
      </trkpt>
      <trkpt lat="46.87493" lon="8.49353">
        <ele>1598</ele>
        <time>2021-08-11T11:33:22.936Z</time>
      </trkpt>
      <trkpt lat="46.87493" lon="8.49352">
        <ele>1597</ele>
        <time>2021-08-11T11:33:23.935Z</time>
      </trkpt>
      <trkpt lat="46.87493" lon="8.49352">
        <ele>1597</ele>
        <time>2021-08-11T11:33:24.935Z</time>
      </trkpt>
      <trkpt lat="46.87494" lon="8.49351">
        <ele>1597</ele>
        <time>2021-08-11T11:33:25.936Z</time>
      </trkpt>
      <trkpt lat="46.87494" lon="8.4935">
        <ele>1597</ele>
        <time>2021-08-11T11:33:34.059Z</time>
      </trkpt>
      <trkpt lat="46.87494" lon="8.49349">
        <ele>1597</ele>
        <time>2021-08-11T11:33:35.059Z</time>
      </trkpt>
      <trkpt lat="46.87495" lon="8.49348">
        <ele>1598</ele>
        <time>2021-08-11T11:33:36.059Z</time>
      </trkpt>
      <trkpt lat="46.87494" lon="8.49347">
        <ele>1597</ele>
        <time>2021-08-11T11:33:37.059Z</time>
      </trkpt>
      <trkpt lat="46.87494" lon="8.49347">
        <ele>1597</ele>
        <time>2021-08-11T11:33:38.059Z</time>
      </trkpt>
      <trkpt lat="46.87494" lon="8.49346">
        <ele>1597</ele>
        <time>2021-08-11T11:33:39.059Z</time>
      </trkpt>
      <trkpt lat="46.87494" lon="8.49345">
        <ele>1597</ele>
        <time>2021-08-11T11:33:40.059Z</time>
      </trkpt>
      <trkpt lat="46.87494" lon="8.49344">
        <ele>1597</ele>
        <time>2021-08-11T11:33:41.059Z</time>
      </trkpt>
      <trkpt lat="46.87494" lon="8.49343">
        <ele>1597</ele>
        <time>2021-08-11T11:33:42.059Z</time>
      </trkpt>
      <trkpt lat="46.87495" lon="8.49343">
        <ele>1597</ele>
        <time>2021-08-11T11:33:43.058Z</time>
      </trkpt>
      <trkpt lat="46.87496" lon="8.49342">
        <ele>1597</ele>
        <time>2021-08-11T11:33:44.058Z</time>
      </trkpt>
      <trkpt lat="46.87496" lon="8.49341">
        <ele>1597</ele>
        <time>2021-08-11T11:33:45.058Z</time>
      </trkpt>
      <trkpt lat="46.87497" lon="8.49341">
        <ele>1597</ele>
        <time>2021-08-11T11:33:46.058Z</time>
      </trkpt>
      <trkpt lat="46.87497" lon="8.4934">
        <ele>1597</ele>
        <time>2021-08-11T11:33:47.059Z</time>
      </trkpt>
      <trkpt lat="46.87498" lon="8.49339">
        <ele>1597</ele>
        <time>2021-08-11T11:33:48.059Z</time>
      </trkpt>
      <trkpt lat="46.87498" lon="8.49338">
        <ele>1597</ele>
        <time>2021-08-11T11:33:49.059Z</time>
      </trkpt>
      <trkpt lat="46.87499" lon="8.49338">
        <ele>1597</ele>
        <time>2021-08-11T11:33:50.059Z</time>
      </trkpt>
      <trkpt lat="46.87499" lon="8.49337">
        <ele>1597</ele>
        <time>2021-08-11T11:33:51.058Z</time>
      </trkpt>
      <trkpt lat="46.87499" lon="8.49336">
        <ele>1597</ele>
        <time>2021-08-11T11:33:52.059Z</time>
      </trkpt>
      <trkpt lat="46.87499" lon="8.49335">
        <ele>1597</ele>
        <time>2021-08-11T11:33:53.058Z</time>
      </trkpt>
      <trkpt lat="46.87498" lon="8.49335">
        <ele>1597</ele>
        <time>2021-08-11T11:33:54.059Z</time>
      </trkpt>
      <trkpt lat="46.87499" lon="8.49334">
        <ele>1596</ele>
        <time>2021-08-11T11:33:55.059Z</time>
      </trkpt>
      <trkpt lat="46.87499" lon="8.49333">
        <ele>1596</ele>
        <time>2021-08-11T11:33:56.058Z</time>
      </trkpt>
      <trkpt lat="46.87499" lon="8.49332">
        <ele>1596</ele>
        <time>2021-08-11T11:33:57.059Z</time>
      </trkpt>
      <trkpt lat="46.875" lon="8.49331">
        <ele>1596</ele>
        <time>2021-08-11T11:33:58.059Z</time>
      </trkpt>
      <trkpt lat="46.875" lon="8.4933">
        <ele>1596</ele>
        <time>2021-08-11T11:33:59.059Z</time>
      </trkpt>
      <trkpt lat="46.875" lon="8.4933">
        <ele>1596</ele>
        <time>2021-08-11T11:34:00.059Z</time>
      </trkpt>
      <trkpt lat="46.87501" lon="8.49329">
        <ele>1596</ele>
        <time>2021-08-11T11:34:01.058Z</time>
      </trkpt>
      <trkpt lat="46.87501" lon="8.49328">
        <ele>1596</ele>
        <time>2021-08-11T11:34:02.058Z</time>
      </trkpt>
      <trkpt lat="46.87501" lon="8.49327">
        <ele>1596</ele>
        <time>2021-08-11T11:34:03.059Z</time>
      </trkpt>
      <trkpt lat="46.87501" lon="8.49326">
        <ele>1595</ele>
        <time>2021-08-11T11:34:04.058Z</time>
      </trkpt>
      <trkpt lat="46.875" lon="8.49325">
        <ele>1595</ele>
        <time>2021-08-11T11:34:05.059Z</time>
      </trkpt>
      <trkpt lat="46.875" lon="8.49323">
        <ele>1595</ele>
        <time>2021-08-11T11:34:06.059Z</time>
      </trkpt>
      <trkpt lat="46.875" lon="8.49323">
        <ele>1594</ele>
        <time>2021-08-11T11:34:07.059Z</time>
      </trkpt>
      <trkpt lat="46.875" lon="8.49322">
        <ele>1594</ele>
        <time>2021-08-11T11:34:15.207Z</time>
      </trkpt>
      <trkpt lat="46.87499" lon="8.49321">
        <ele>1594</ele>
        <time>2021-08-11T11:34:16.206Z</time>
      </trkpt>
      <trkpt lat="46.87499" lon="8.49319">
        <ele>1594</ele>
        <time>2021-08-11T11:34:18.026Z</time>
      </trkpt>
      <trkpt lat="46.875" lon="8.49319">
        <ele>1594</ele>
        <time>2021-08-11T11:34:19.026Z</time>
      </trkpt>
      <trkpt lat="46.87501" lon="8.49318">
        <ele>1594</ele>
        <time>2021-08-11T11:34:20.026Z</time>
      </trkpt>
      <trkpt lat="46.87501" lon="8.49317">
        <ele>1594</ele>
        <time>2021-08-11T11:34:21.026Z</time>
      </trkpt>
      <trkpt lat="46.87501" lon="8.49317">
        <ele>1594</ele>
        <time>2021-08-11T11:34:22.026Z</time>
      </trkpt>
      <trkpt lat="46.87502" lon="8.49316">
        <ele>1595</ele>
        <time>2021-08-11T11:34:23.025Z</time>
      </trkpt>
      <trkpt lat="46.87502" lon="8.49314">
        <ele>1595</ele>
        <time>2021-08-11T11:34:24.025Z</time>
      </trkpt>
      <trkpt lat="46.87503" lon="8.49313">
        <ele>1595</ele>
        <time>2021-08-11T11:34:25.026Z</time>
      </trkpt>
      <trkpt lat="46.87503" lon="8.49312">
        <ele>1595</ele>
        <time>2021-08-11T11:34:27.183Z</time>
      </trkpt>
      <trkpt lat="46.87503" lon="8.49311">
        <ele>1595</ele>
        <time>2021-08-11T11:34:31.203Z</time>
      </trkpt>
      <trkpt lat="46.87502" lon="8.49311">
        <ele>1595</ele>
        <time>2021-08-11T11:34:32.203Z</time>
      </trkpt>
      <trkpt lat="46.87502" lon="8.49311">
        <ele>1596</ele>
        <time>2021-08-11T11:34:41.182Z</time>
      </trkpt>
      <trkpt lat="46.87502" lon="8.49311">
        <ele>1596</ele>
        <time>2021-08-11T11:34:42.183Z</time>
      </trkpt>
      <trkpt lat="46.87503" lon="8.49311">
        <ele>1596</ele>
        <time>2021-08-11T11:34:43.182Z</time>
      </trkpt>
      <trkpt lat="46.87503" lon="8.49311">
        <ele>1597</ele>
        <time>2021-08-11T11:34:44.182Z</time>
      </trkpt>
      <trkpt lat="46.87503" lon="8.49311">
        <ele>1597</ele>
        <time>2021-08-11T11:34:45.183Z</time>
      </trkpt>
      <trkpt lat="46.87504" lon="8.49311">
        <ele>1598</ele>
        <time>2021-08-11T11:34:46.183Z</time>
      </trkpt>
      <trkpt lat="46.87503" lon="8.49312">
        <ele>1598</ele>
        <time>2021-08-11T11:34:47.183Z</time>
      </trkpt>
      <trkpt lat="46.87503" lon="8.49312">
        <ele>1598</ele>
        <time>2021-08-11T11:34:48.183Z</time>
      </trkpt>
      <trkpt lat="46.87504" lon="8.49311">
        <ele>1598</ele>
        <time>2021-08-11T11:34:49.182Z</time>
      </trkpt>
      <trkpt lat="46.87505" lon="8.49311">
        <ele>1598</ele>
        <time>2021-08-11T11:34:50.183Z</time>
      </trkpt>
      <trkpt lat="46.87505" lon="8.49311">
        <ele>1599</ele>
        <time>2021-08-11T11:34:51.183Z</time>
      </trkpt>
      <trkpt lat="46.87506" lon="8.49311">
        <ele>1599</ele>
        <time>2021-08-11T11:34:52.183Z</time>
      </trkpt>
      <trkpt lat="46.87507" lon="8.49311">
        <ele>1599</ele>
        <time>2021-08-11T11:34:53.183Z</time>
      </trkpt>
      <trkpt lat="46.87508" lon="8.49311">
        <ele>1599</ele>
        <time>2021-08-11T11:35:00.286Z</time>
      </trkpt>
      <trkpt lat="46.87509" lon="8.49311">
        <ele>1599</ele>
        <time>2021-08-11T11:35:01.286Z</time>
      </trkpt>
      <trkpt lat="46.8751" lon="8.49311">
        <ele>1600</ele>
        <time>2021-08-11T11:35:02.286Z</time>
      </trkpt>
      <trkpt lat="46.8751" lon="8.49311">
        <ele>1600</ele>
        <time>2021-08-11T11:35:03.286Z</time>
      </trkpt>
      <trkpt lat="46.8751" lon="8.49311">
        <ele>1600</ele>
        <time>2021-08-11T11:35:04.285Z</time>
      </trkpt>
      <trkpt lat="46.87511" lon="8.49311">
        <ele>1599</ele>
        <time>2021-08-11T11:35:05.286Z</time>
      </trkpt>
      <trkpt lat="46.87512" lon="8.49312">
        <ele>1600</ele>
        <time>2021-08-11T11:35:06.286Z</time>
      </trkpt>
      <trkpt lat="46.87513" lon="8.49313">
        <ele>1600</ele>
        <time>2021-08-11T11:35:07.286Z</time>
      </trkpt>
      <trkpt lat="46.87512" lon="8.49314">
        <ele>1600</ele>
        <time>2021-08-11T11:35:09.433Z</time>
      </trkpt>
      <trkpt lat="46.87512" lon="8.49314">
        <ele>1600</ele>
        <time>2021-08-11T11:35:10.432Z</time>
      </trkpt>
      <trkpt lat="46.87514" lon="8.49314">
        <ele>1600</ele>
        <time>2021-08-11T11:35:11.433Z</time>
      </trkpt>
      <trkpt lat="46.87514" lon="8.49314">
        <ele>1601</ele>
        <time>2021-08-11T11:35:12.433Z</time>
      </trkpt>
      <trkpt lat="46.87515" lon="8.49315">
        <ele>1601</ele>
        <time>2021-08-11T11:35:27.537Z</time>
      </trkpt>
      <trkpt lat="46.87515" lon="8.49315">
        <ele>1602</ele>
        <time>2021-08-11T11:35:28.538Z</time>
      </trkpt>
      <trkpt lat="46.87517" lon="8.49316">
        <ele>1602</ele>
        <time>2021-08-11T11:35:29.538Z</time>
      </trkpt>
      <trkpt lat="46.87517" lon="8.49316">
        <ele>1603</ele>
        <time>2021-08-11T11:35:30.538Z</time>
      </trkpt>
      <trkpt lat="46.87518" lon="8.49316">
        <ele>1604</ele>
        <time>2021-08-11T11:35:31.538Z</time>
      </trkpt>
      <trkpt lat="46.87519" lon="8.49316">
        <ele>1604</ele>
        <time>2021-08-11T11:35:32.538Z</time>
      </trkpt>
      <trkpt lat="46.8752" lon="8.49317">
        <ele>1605</ele>
        <time>2021-08-11T11:35:33.537Z</time>
      </trkpt>
      <trkpt lat="46.8752" lon="8.49317">
        <ele>1605</ele>
        <time>2021-08-11T11:35:34.538Z</time>
      </trkpt>
      <trkpt lat="46.8752" lon="8.49319">
        <ele>1605</ele>
        <time>2021-08-11T11:35:35.538Z</time>
      </trkpt>
      <trkpt lat="46.87521" lon="8.4932">
        <ele>1606</ele>
        <time>2021-08-11T11:35:36.538Z</time>
      </trkpt>
      <trkpt lat="46.87521" lon="8.4932">
        <ele>1606</ele>
        <time>2021-08-11T11:35:40.659Z</time>
      </trkpt>
      <trkpt lat="46.87522" lon="8.49321">
        <ele>1606</ele>
        <time>2021-08-11T11:35:41.658Z</time>
      </trkpt>
      <trkpt lat="46.87523" lon="8.49321">
        <ele>1606</ele>
        <time>2021-08-11T11:35:42.659Z</time>
      </trkpt>
      <trkpt lat="46.87523" lon="8.49322">
        <ele>1606</ele>
        <time>2021-08-11T11:35:43.659Z</time>
      </trkpt>
      <trkpt lat="46.87524" lon="8.49322">
        <ele>1606</ele>
        <time>2021-08-11T11:35:44.659Z</time>
      </trkpt>
      <trkpt lat="46.87525" lon="8.49323">
        <ele>1607</ele>
        <time>2021-08-11T11:35:45.659Z</time>
      </trkpt>
      <trkpt lat="46.87525" lon="8.49324">
        <ele>1608</ele>
        <time>2021-08-11T11:35:46.659Z</time>
      </trkpt>
      <trkpt lat="46.87526" lon="8.49325">
        <ele>1609</ele>
        <time>2021-08-11T11:35:47.659Z</time>
      </trkpt>
      <trkpt lat="46.87527" lon="8.49326">
        <ele>1609</ele>
        <time>2021-08-11T11:35:48.658Z</time>
      </trkpt>
      <trkpt lat="46.87527" lon="8.49326">
        <ele>1610</ele>
        <time>2021-08-11T11:35:49.658Z</time>
      </trkpt>
      <trkpt lat="46.87528" lon="8.49327">
        <ele>1610</ele>
        <time>2021-08-11T11:35:50.659Z</time>
      </trkpt>
      <trkpt lat="46.87529" lon="8.49328">
        <ele>1611</ele>
        <time>2021-08-11T11:35:51.659Z</time>
      </trkpt>
      <trkpt lat="46.8753" lon="8.49328">
        <ele>1611</ele>
        <time>2021-08-11T11:35:52.659Z</time>
      </trkpt>
      <trkpt lat="46.87531" lon="8.49329">
        <ele>1612</ele>
        <time>2021-08-11T11:35:53.659Z</time>
      </trkpt>
      <trkpt lat="46.87531" lon="8.4933">
        <ele>1612</ele>
        <time>2021-08-11T11:35:54.658Z</time>
      </trkpt>
      <trkpt lat="46.87533" lon="8.4933">
        <ele>1613</ele>
        <time>2021-08-11T11:35:55.659Z</time>
      </trkpt>
      <trkpt lat="46.87534" lon="8.4933">
        <ele>1614</ele>
        <time>2021-08-11T11:35:56.659Z</time>
      </trkpt>
      <trkpt lat="46.87536" lon="8.49329">
        <ele>1614</ele>
        <time>2021-08-11T11:35:57.659Z</time>
      </trkpt>
      <trkpt lat="46.87537" lon="8.49329">
        <ele>1615</ele>
        <time>2021-08-11T11:36:01.784Z</time>
      </trkpt>
      <trkpt lat="46.87538" lon="8.49329">
        <ele>1616</ele>
        <time>2021-08-11T11:36:02.784Z</time>
      </trkpt>
      <trkpt lat="46.87539" lon="8.49328">
        <ele>1617</ele>
        <time>2021-08-11T11:36:03.783Z</time>
      </trkpt>
      <trkpt lat="46.8754" lon="8.49328">
        <ele>1618</ele>
        <time>2021-08-11T11:36:13.906Z</time>
      </trkpt>
      <trkpt lat="46.87542" lon="8.49326">
        <ele>1618</ele>
        <time>2021-08-11T11:36:14.906Z</time>
      </trkpt>
      <trkpt lat="46.87543" lon="8.49325">
        <ele>1619</ele>
        <time>2021-08-11T11:36:15.906Z</time>
      </trkpt>
      <trkpt lat="46.87543" lon="8.49323">
        <ele>1619</ele>
        <time>2021-08-11T11:36:16.906Z</time>
      </trkpt>
      <trkpt lat="46.87544" lon="8.4932">
        <ele>1619</ele>
        <time>2021-08-11T11:36:17.905Z</time>
      </trkpt>
      <trkpt lat="46.87545" lon="8.49319">
        <ele>1619</ele>
        <time>2021-08-11T11:36:18.905Z</time>
      </trkpt>
      <trkpt lat="46.87545" lon="8.49318">
        <ele>1619</ele>
        <time>2021-08-11T11:36:19.906Z</time>
      </trkpt>
      <trkpt lat="46.87546" lon="8.49317">
        <ele>1619</ele>
        <time>2021-08-11T11:36:20.906Z</time>
      </trkpt>
      <trkpt lat="46.87547" lon="8.49315">
        <ele>1619</ele>
        <time>2021-08-11T11:36:21.905Z</time>
      </trkpt>
      <trkpt lat="46.87548" lon="8.49314">
        <ele>1619</ele>
        <time>2021-08-11T11:36:22.905Z</time>
      </trkpt>
      <trkpt lat="46.87548" lon="8.49313">
        <ele>1619</ele>
        <time>2021-08-11T11:36:23.906Z</time>
      </trkpt>
      <trkpt lat="46.87549" lon="8.49313">
        <ele>1619</ele>
        <time>2021-08-11T11:36:24.906Z</time>
      </trkpt>
      <trkpt lat="46.8755" lon="8.49311">
        <ele>1619</ele>
        <time>2021-08-11T11:36:25.906Z</time>
      </trkpt>
      <trkpt lat="46.87551" lon="8.4931">
        <ele>1619</ele>
        <time>2021-08-11T11:36:26.906Z</time>
      </trkpt>
      <trkpt lat="46.87551" lon="8.49309">
        <ele>1619</ele>
        <time>2021-08-11T11:36:27.906Z</time>
      </trkpt>
      <trkpt lat="46.8755" lon="8.49308">
        <ele>1618</ele>
        <time>2021-08-11T11:36:28.905Z</time>
      </trkpt>
      <trkpt lat="46.8755" lon="8.49308">
        <ele>1617</ele>
        <time>2021-08-11T11:36:29.906Z</time>
      </trkpt>
      <trkpt lat="46.8755" lon="8.49307">
        <ele>1617</ele>
        <time>2021-08-11T11:36:30.906Z</time>
      </trkpt>
      <trkpt lat="46.87552" lon="8.49305">
        <ele>1616</ele>
        <time>2021-08-11T11:36:40.056Z</time>
      </trkpt>
      <trkpt lat="46.87552" lon="8.49305">
        <ele>1616</ele>
        <time>2021-08-11T11:36:41.056Z</time>
      </trkpt>
      <trkpt lat="46.87552" lon="8.49305">
        <ele>1616</ele>
        <time>2021-08-11T11:36:44.926Z</time>
      </trkpt>
      <trkpt lat="46.87553" lon="8.49304">
        <ele>1616</ele>
        <time>2021-08-11T11:36:45.926Z</time>
      </trkpt>
      <trkpt lat="46.87553" lon="8.49304">
        <ele>1616</ele>
        <time>2021-08-11T11:36:50.807Z</time>
      </trkpt>
      <trkpt lat="46.87554" lon="8.49303">
        <ele>1616</ele>
        <time>2021-08-11T11:36:51.806Z</time>
      </trkpt>
      <trkpt lat="46.87553" lon="8.49303">
        <ele>1617</ele>
        <time>2021-08-11T11:36:52.806Z</time>
      </trkpt>
      <trkpt lat="46.87553" lon="8.49303">
        <ele>1617</ele>
        <time>2021-08-11T11:36:53.807Z</time>
      </trkpt>
      <trkpt lat="46.87552" lon="8.49304">
        <ele>1617</ele>
        <time>2021-08-11T11:36:54.807Z</time>
      </trkpt>
      <trkpt lat="46.87552" lon="8.49303">
        <ele>1617</ele>
        <time>2021-08-11T11:36:55.807Z</time>
      </trkpt>
      <trkpt lat="46.87553" lon="8.49301">
        <ele>1617</ele>
        <time>2021-08-11T11:36:56.807Z</time>
      </trkpt>
      <trkpt lat="46.87554" lon="8.493">
        <ele>1617</ele>
        <time>2021-08-11T11:36:57.806Z</time>
      </trkpt>
      <trkpt lat="46.87554" lon="8.49299">
        <ele>1617</ele>
        <time>2021-08-11T11:36:58.806Z</time>
      </trkpt>
      <trkpt lat="46.87554" lon="8.49299">
        <ele>1618</ele>
        <time>2021-08-11T11:36:59.807Z</time>
      </trkpt>
      <trkpt lat="46.87555" lon="8.49298">
        <ele>1618</ele>
        <time>2021-08-11T11:37:00.807Z</time>
      </trkpt>
      <trkpt lat="46.87555" lon="8.49298">
        <ele>1619</ele>
        <time>2021-08-11T11:37:01.807Z</time>
      </trkpt>
      <trkpt lat="46.87556" lon="8.49297">
        <ele>1619</ele>
        <time>2021-08-11T11:37:02.807Z</time>
      </trkpt>
      <trkpt lat="46.87556" lon="8.49296">
        <ele>1619</ele>
        <time>2021-08-11T11:37:03.807Z</time>
      </trkpt>
      <trkpt lat="46.87557" lon="8.49296">
        <ele>1619</ele>
        <time>2021-08-11T11:37:04.807Z</time>
      </trkpt>
      <trkpt lat="46.87557" lon="8.49295">
        <ele>1619</ele>
        <time>2021-08-11T11:37:05.807Z</time>
      </trkpt>
      <trkpt lat="46.87557" lon="8.49294">
        <ele>1619</ele>
        <time>2021-08-11T11:37:06.806Z</time>
      </trkpt>
      <trkpt lat="46.87557" lon="8.49293">
        <ele>1619</ele>
        <time>2021-08-11T11:37:07.807Z</time>
      </trkpt>
      <trkpt lat="46.87557" lon="8.49292">
        <ele>1619</ele>
        <time>2021-08-11T11:37:08.807Z</time>
      </trkpt>
      <trkpt lat="46.87557" lon="8.49292">
        <ele>1619</ele>
        <time>2021-08-11T11:37:09.807Z</time>
      </trkpt>
      <trkpt lat="46.87557" lon="8.49291">
        <ele>1619</ele>
        <time>2021-08-11T11:37:10.806Z</time>
      </trkpt>
      <trkpt lat="46.87557" lon="8.4929">
        <ele>1619</ele>
        <time>2021-08-11T11:37:11.807Z</time>
      </trkpt>
      <trkpt lat="46.87557" lon="8.4929">
        <ele>1618</ele>
        <time>2021-08-11T11:37:12.807Z</time>
      </trkpt>
      <trkpt lat="46.87558" lon="8.49289">
        <ele>1618</ele>
        <time>2021-08-11T11:37:13.807Z</time>
      </trkpt>
      <trkpt lat="46.87558" lon="8.49288">
        <ele>1617</ele>
        <time>2021-08-11T11:37:14.807Z</time>
      </trkpt>
      <trkpt lat="46.87558" lon="8.49288">
        <ele>1616</ele>
        <time>2021-08-11T11:37:15.807Z</time>
      </trkpt>
      <trkpt lat="46.87559" lon="8.49288">
        <ele>1616</ele>
        <time>2021-08-11T11:37:16.807Z</time>
      </trkpt>
      <trkpt lat="46.87559" lon="8.49287">
        <ele>1615</ele>
        <time>2021-08-11T11:37:17.806Z</time>
      </trkpt>
      <trkpt lat="46.87559" lon="8.49287">
        <ele>1614</ele>
        <time>2021-08-11T11:37:18.807Z</time>
      </trkpt>
      <trkpt lat="46.8756" lon="8.49286">
        <ele>1614</ele>
        <time>2021-08-11T11:37:19.807Z</time>
      </trkpt>
      <trkpt lat="46.87561" lon="8.49285">
        <ele>1614</ele>
        <time>2021-08-11T11:37:20.807Z</time>
      </trkpt>
      <trkpt lat="46.8756" lon="8.49285">
        <ele>1614</ele>
        <time>2021-08-11T11:37:21.807Z</time>
      </trkpt>
      <trkpt lat="46.8756" lon="8.49285">
        <ele>1614</ele>
        <time>2021-08-11T11:37:22.806Z</time>
      </trkpt>
      <trkpt lat="46.87561" lon="8.49284">
        <ele>1614</ele>
        <time>2021-08-11T11:37:23.806Z</time>
      </trkpt>
      <trkpt lat="46.87561" lon="8.49283">
        <ele>1614</ele>
        <time>2021-08-11T11:37:24.807Z</time>
      </trkpt>
      <trkpt lat="46.87562" lon="8.49282">
        <ele>1614</ele>
        <time>2021-08-11T11:37:25.807Z</time>
      </trkpt>
      <trkpt lat="46.87563" lon="8.49282">
        <ele>1614</ele>
        <time>2021-08-11T11:37:26.807Z</time>
      </trkpt>
      <trkpt lat="46.87564" lon="8.49281">
        <ele>1615</ele>
        <time>2021-08-11T11:37:27.806Z</time>
      </trkpt>
      <trkpt lat="46.87565" lon="8.49278">
        <ele>1615</ele>
        <time>2021-08-11T11:37:28.806Z</time>
      </trkpt>
      <trkpt lat="46.87566" lon="8.49276">
        <ele>1615</ele>
        <time>2021-08-11T11:37:29.807Z</time>
      </trkpt>
      <trkpt lat="46.87566" lon="8.49275">
        <ele>1615</ele>
        <time>2021-08-11T11:37:30.807Z</time>
      </trkpt>
      <trkpt lat="46.87566" lon="8.49274">
        <ele>1616</ele>
        <time>2021-08-11T11:37:31.807Z</time>
      </trkpt>
      <trkpt lat="46.87567" lon="8.49272">
        <ele>1616</ele>
        <time>2021-08-11T11:37:32.807Z</time>
      </trkpt>
      <trkpt lat="46.87567" lon="8.49271">
        <ele>1616</ele>
        <time>2021-08-11T11:37:33.806Z</time>
      </trkpt>
      <trkpt lat="46.87568" lon="8.4927">
        <ele>1617</ele>
        <time>2021-08-11T11:37:34.806Z</time>
      </trkpt>
      <trkpt lat="46.87568" lon="8.49268">
        <ele>1617</ele>
        <time>2021-08-11T11:37:35.806Z</time>
      </trkpt>
      <trkpt lat="46.87567" lon="8.49268">
        <ele>1617</ele>
        <time>2021-08-11T11:37:36.807Z</time>
      </trkpt>
      <trkpt lat="46.87565" lon="8.49268">
        <ele>1617</ele>
        <time>2021-08-11T11:37:43.926Z</time>
      </trkpt>
      <trkpt lat="46.87564" lon="8.49268">
        <ele>1617</ele>
        <time>2021-08-11T11:37:44.926Z</time>
      </trkpt>
      <trkpt lat="46.87564" lon="8.49268">
        <ele>1618</ele>
        <time>2021-08-11T11:37:45.926Z</time>
      </trkpt>
      <trkpt lat="46.87563" lon="8.49268">
        <ele>1618</ele>
        <time>2021-08-11T11:37:46.926Z</time>
      </trkpt>
      <trkpt lat="46.87563" lon="8.49267">
        <ele>1618</ele>
        <time>2021-08-11T11:37:50.035Z</time>
      </trkpt>
      <trkpt lat="46.87563" lon="8.49266">
        <ele>1618</ele>
        <time>2021-08-11T11:37:51.034Z</time>
      </trkpt>
      <trkpt lat="46.87563" lon="8.49266">
        <ele>1618</ele>
        <time>2021-08-11T11:38:08.924Z</time>
      </trkpt>
      <trkpt lat="46.87563" lon="8.49265">
        <ele>1618</ele>
        <time>2021-08-11T11:38:09.924Z</time>
      </trkpt>
      <trkpt lat="46.87563" lon="8.49265">
        <ele>1618</ele>
        <time>2021-08-11T11:38:10.925Z</time>
      </trkpt>
      <trkpt lat="46.87562" lon="8.49264">
        <ele>1618</ele>
        <time>2021-08-11T11:38:11.925Z</time>
      </trkpt>
      <trkpt lat="46.87561" lon="8.49264">
        <ele>1619</ele>
        <time>2021-08-11T11:38:56.055Z</time>
      </trkpt>
      <trkpt lat="46.8756" lon="8.49264">
        <ele>1619</ele>
        <time>2021-08-11T11:38:57.055Z</time>
      </trkpt>
      <trkpt lat="46.8756" lon="8.49262">
        <ele>1619</ele>
        <time>2021-08-11T11:40:10.178Z</time>
      </trkpt>
      <trkpt lat="46.87559" lon="8.49262">
        <ele>1620</ele>
        <time>2021-08-11T11:40:11.178Z</time>
      </trkpt>
      <trkpt lat="46.87559" lon="8.49261">
        <ele>1620</ele>
        <time>2021-08-11T11:40:12.177Z</time>
      </trkpt>
      <trkpt lat="46.87559" lon="8.49261">
        <ele>1620</ele>
        <time>2021-08-11T11:40:30.054Z</time>
      </trkpt>
      <trkpt lat="46.87559" lon="8.4926">
        <ele>1620</ele>
        <time>2021-08-11T11:40:31.055Z</time>
      </trkpt>
      <trkpt lat="46.87559" lon="8.49259">
        <ele>1620</ele>
        <time>2021-08-11T11:41:05.028Z</time>
      </trkpt>
      <trkpt lat="46.87559" lon="8.49258">
        <ele>1621</ele>
        <time>2021-08-11T11:41:06.028Z</time>
      </trkpt>
      <trkpt lat="46.87558" lon="8.49257">
        <ele>1621</ele>
        <time>2021-08-11T11:41:45.921Z</time>
      </trkpt>
      <trkpt lat="46.87557" lon="8.49257">
        <ele>1621</ele>
        <time>2021-08-11T11:41:46.920Z</time>
      </trkpt>
      <trkpt lat="46.87557" lon="8.49256">
        <ele>1622</ele>
        <time>2021-08-11T11:41:47.921Z</time>
      </trkpt>
      <trkpt lat="46.87556" lon="8.49256">
        <ele>1622</ele>
        <time>2021-08-11T11:42:11.067Z</time>
      </trkpt>
      <trkpt lat="46.87556" lon="8.49255">
        <ele>1622</ele>
        <time>2021-08-11T11:42:22.033Z</time>
      </trkpt>
      <trkpt lat="46.87556" lon="8.49255">
        <ele>1622</ele>
        <time>2021-08-11T11:42:23.033Z</time>
      </trkpt>
      <trkpt lat="46.87555" lon="8.49253">
        <ele>1622</ele>
        <time>2021-08-11T11:42:26.158Z</time>
      </trkpt>
      <trkpt lat="46.87555" lon="8.49251">
        <ele>1622</ele>
        <time>2021-08-11T11:42:27.159Z</time>
      </trkpt>
      <trkpt lat="46.87556" lon="8.49249">
        <ele>1622</ele>
        <time>2021-08-11T11:42:28.159Z</time>
      </trkpt>
      <trkpt lat="46.87555" lon="8.49249">
        <ele>1622</ele>
        <time>2021-08-11T11:42:29.159Z</time>
      </trkpt>
      <trkpt lat="46.87554" lon="8.49249">
        <ele>1622</ele>
        <time>2021-08-11T11:42:58.166Z</time>
      </trkpt>
      <trkpt lat="46.87554" lon="8.49248">
        <ele>1622</ele>
        <time>2021-08-11T11:42:59.165Z</time>
      </trkpt>
      <trkpt lat="46.87555" lon="8.49246">
        <ele>1622</ele>
        <time>2021-08-11T11:43:29.052Z</time>
      </trkpt>
      <trkpt lat="46.87556" lon="8.49243">
        <ele>1622</ele>
        <time>2021-08-11T11:44:20.924Z</time>
      </trkpt>
      <trkpt lat="46.87555" lon="8.49243">
        <ele>1622</ele>
        <time>2021-08-11T11:44:21.924Z</time>
      </trkpt>
      <trkpt lat="46.87554" lon="8.49242">
        <ele>1622</ele>
        <time>2021-08-11T11:44:40.928Z</time>
      </trkpt>
      <trkpt lat="46.87554" lon="8.49241">
        <ele>1622</ele>
        <time>2021-08-11T11:44:41.929Z</time>
      </trkpt>
      <trkpt lat="46.87554" lon="8.49239">
        <ele>1622</ele>
        <time>2021-08-11T11:44:42.929Z</time>
      </trkpt>
      <trkpt lat="46.87554" lon="8.49238">
        <ele>1622</ele>
        <time>2021-08-11T11:44:43.928Z</time>
      </trkpt>
      <trkpt lat="46.87554" lon="8.49237">
        <ele>1622</ele>
        <time>2021-08-11T11:44:44.929Z</time>
      </trkpt>
      <trkpt lat="46.87553" lon="8.49236">
        <ele>1622</ele>
        <time>2021-08-11T11:44:50.956Z</time>
      </trkpt>
      <trkpt lat="46.87553" lon="8.49235">
        <ele>1622</ele>
        <time>2021-08-11T11:44:51.957Z</time>
      </trkpt>
      <trkpt lat="46.87552" lon="8.49235">
        <ele>1621</ele>
        <time>2021-08-11T11:44:52.957Z</time>
      </trkpt>
      <trkpt lat="46.87552" lon="8.49235">
        <ele>1621</ele>
        <time>2021-08-11T11:45:12.026Z</time>
      </trkpt>
      <trkpt lat="46.87552" lon="8.49235">
        <ele>1621</ele>
        <time>2021-08-11T11:45:13.026Z</time>
      </trkpt>
      <trkpt lat="46.87552" lon="8.49235">
        <ele>1621</ele>
        <time>2021-08-11T11:45:14.025Z</time>
      </trkpt>
      <trkpt lat="46.87551" lon="8.49235">
        <ele>1621</ele>
        <time>2021-08-11T11:45:15.026Z</time>
      </trkpt>
      <trkpt lat="46.8755" lon="8.49237">
        <ele>1621</ele>
        <time>2021-08-11T11:45:16.025Z</time>
      </trkpt>
      <trkpt lat="46.87549" lon="8.49237">
        <ele>1621</ele>
        <time>2021-08-11T11:45:17.025Z</time>
      </trkpt>
      <trkpt lat="46.87548" lon="8.49237">
        <ele>1621</ele>
        <time>2021-08-11T11:45:18.026Z</time>
      </trkpt>
      <trkpt lat="46.87548" lon="8.49237">
        <ele>1621</ele>
        <time>2021-08-11T11:45:19.026Z</time>
      </trkpt>
      <trkpt lat="46.87548" lon="8.49236">
        <ele>1622</ele>
        <time>2021-08-11T11:45:20.025Z</time>
      </trkpt>
      <trkpt lat="46.87548" lon="8.49236">
        <ele>1622</ele>
        <time>2021-08-11T11:45:34.066Z</time>
      </trkpt>
      <trkpt lat="46.87546" lon="8.49236">
        <ele>1622</ele>
        <time>2021-08-11T11:45:35.066Z</time>
      </trkpt>
      <trkpt lat="46.87546" lon="8.49236">
        <ele>1622</ele>
        <time>2021-08-11T11:45:40.931Z</time>
      </trkpt>
      <trkpt lat="46.87545" lon="8.49236">
        <ele>1622</ele>
        <time>2021-08-11T11:45:41.931Z</time>
      </trkpt>
      <trkpt lat="46.87544" lon="8.49236">
        <ele>1623</ele>
        <time>2021-08-11T11:45:42.931Z</time>
      </trkpt>
      <trkpt lat="46.87543" lon="8.49235">
        <ele>1623</ele>
        <time>2021-08-11T11:45:43.931Z</time>
      </trkpt>
      <trkpt lat="46.87543" lon="8.49235">
        <ele>1623</ele>
        <time>2021-08-11T11:45:44.931Z</time>
      </trkpt>
      <trkpt lat="46.87543" lon="8.49235">
        <ele>1623</ele>
        <time>2021-08-11T11:45:45.931Z</time>
      </trkpt>
      <trkpt lat="46.87542" lon="8.49234">
        <ele>1623</ele>
        <time>2021-08-11T11:45:46.931Z</time>
      </trkpt>
      <trkpt lat="46.87542" lon="8.49234">
        <ele>1623</ele>
        <time>2021-08-11T11:45:53.073Z</time>
      </trkpt>
      <trkpt lat="46.87542" lon="8.49235">
        <ele>1623</ele>
        <time>2021-08-11T11:45:54.073Z</time>
      </trkpt>
      <trkpt lat="46.87541" lon="8.49235">
        <ele>1623</ele>
        <time>2021-08-11T11:46:01.901Z</time>
      </trkpt>
      <trkpt lat="46.87541" lon="8.49236">
        <ele>1623</ele>
        <time>2021-08-11T11:46:02.900Z</time>
      </trkpt>
      <trkpt lat="46.8754" lon="8.49236">
        <ele>1623</ele>
        <time>2021-08-11T11:46:08.813Z</time>
      </trkpt>
      <trkpt lat="46.8754" lon="8.49236">
        <ele>1623</ele>
        <time>2021-08-11T11:46:09.813Z</time>
      </trkpt>
      <trkpt lat="46.87539" lon="8.49236">
        <ele>1624</ele>
        <time>2021-08-11T11:46:10.813Z</time>
      </trkpt>
      <trkpt lat="46.87539" lon="8.49235">
        <ele>1624</ele>
        <time>2021-08-11T11:46:21.897Z</time>
      </trkpt>
      <trkpt lat="46.87539" lon="8.49235">
        <ele>1624</ele>
        <time>2021-08-11T11:46:22.896Z</time>
      </trkpt>
      <trkpt lat="46.87538" lon="8.49235">
        <ele>1624</ele>
        <time>2021-08-11T11:46:28.776Z</time>
      </trkpt>
      <trkpt lat="46.87537" lon="8.49235">
        <ele>1624</ele>
        <time>2021-08-11T11:46:29.776Z</time>
      </trkpt>
      <trkpt lat="46.87537" lon="8.49236">
        <ele>1624</ele>
        <time>2021-08-11T11:46:30.776Z</time>
      </trkpt>
      <trkpt lat="46.87536" lon="8.49236">
        <ele>1625</ele>
        <time>2021-08-11T11:46:31.776Z</time>
      </trkpt>
      <trkpt lat="46.87536" lon="8.49235">
        <ele>1625</ele>
        <time>2021-08-11T11:46:32.776Z</time>
      </trkpt>
      <trkpt lat="46.87536" lon="8.49234">
        <ele>1625</ele>
        <time>2021-08-11T11:46:33.775Z</time>
      </trkpt>
      <trkpt lat="46.87536" lon="8.49234">
        <ele>1625</ele>
        <time>2021-08-11T11:46:34.776Z</time>
      </trkpt>
      <trkpt lat="46.87535" lon="8.49233">
        <ele>1625</ele>
        <time>2021-08-11T11:46:35.776Z</time>
      </trkpt>
      <trkpt lat="46.87534" lon="8.49232">
        <ele>1625</ele>
        <time>2021-08-11T11:46:36.776Z</time>
      </trkpt>
      <trkpt lat="46.87533" lon="8.49231">
        <ele>1625</ele>
        <time>2021-08-11T11:46:45.895Z</time>
      </trkpt>
      <trkpt lat="46.87533" lon="8.49231">
        <ele>1625</ele>
        <time>2021-08-11T11:46:46.894Z</time>
      </trkpt>
      <trkpt lat="46.87532" lon="8.4923">
        <ele>1625</ele>
        <time>2021-08-11T11:46:47.895Z</time>
      </trkpt>
      <trkpt lat="46.87531" lon="8.4923">
        <ele>1625</ele>
        <time>2021-08-11T11:46:48.895Z</time>
      </trkpt>
      <trkpt lat="46.87531" lon="8.4923">
        <ele>1625</ele>
        <time>2021-08-11T11:46:49.895Z</time>
      </trkpt>
      <trkpt lat="46.87531" lon="8.49229">
        <ele>1626</ele>
        <time>2021-08-11T11:46:50.895Z</time>
      </trkpt>
      <trkpt lat="46.8753" lon="8.49228">
        <ele>1626</ele>
        <time>2021-08-11T11:46:51.895Z</time>
      </trkpt>
      <trkpt lat="46.8753" lon="8.49228">
        <ele>1626</ele>
        <time>2021-08-11T11:46:52.894Z</time>
      </trkpt>
      <trkpt lat="46.87529" lon="8.49227">
        <ele>1626</ele>
        <time>2021-08-11T11:46:53.895Z</time>
      </trkpt>
      <trkpt lat="46.87528" lon="8.49227">
        <ele>1626</ele>
        <time>2021-08-11T11:46:54.895Z</time>
      </trkpt>
      <trkpt lat="46.87526" lon="8.49227">
        <ele>1626</ele>
        <time>2021-08-11T11:46:55.895Z</time>
      </trkpt>
      <trkpt lat="46.87525" lon="8.49227">
        <ele>1626</ele>
        <time>2021-08-11T11:46:56.894Z</time>
      </trkpt>
      <trkpt lat="46.87525" lon="8.49224">
        <ele>1626</ele>
        <time>2021-08-11T11:46:57.894Z</time>
      </trkpt>
      <trkpt lat="46.87525" lon="8.49223">
        <ele>1626</ele>
        <time>2021-08-11T11:46:58.894Z</time>
      </trkpt>
      <trkpt lat="46.87524" lon="8.49223">
        <ele>1626</ele>
        <time>2021-08-11T11:46:59.895Z</time>
      </trkpt>
      <trkpt lat="46.87524" lon="8.49222">
        <ele>1626</ele>
        <time>2021-08-11T11:47:00.895Z</time>
      </trkpt>
      <trkpt lat="46.87524" lon="8.49222">
        <ele>1626</ele>
        <time>2021-08-11T11:47:04.897Z</time>
      </trkpt>
      <trkpt lat="46.87523" lon="8.49223">
        <ele>1627</ele>
        <time>2021-08-11T11:47:05.898Z</time>
      </trkpt>
      <trkpt lat="46.87522" lon="8.49224">
        <ele>1627</ele>
        <time>2021-08-11T11:47:06.898Z</time>
      </trkpt>
      <trkpt lat="46.87521" lon="8.49225">
        <ele>1628</ele>
        <time>2021-08-11T11:47:07.898Z</time>
      </trkpt>
      <trkpt lat="46.8752" lon="8.49225">
        <ele>1628</ele>
        <time>2021-08-11T11:47:08.898Z</time>
      </trkpt>
      <trkpt lat="46.8752" lon="8.49225">
        <ele>1629</ele>
        <time>2021-08-11T11:47:09.897Z</time>
      </trkpt>
      <trkpt lat="46.8752" lon="8.49225">
        <ele>1629</ele>
        <time>2021-08-11T11:47:10.897Z</time>
      </trkpt>
      <trkpt lat="46.87519" lon="8.49224">
        <ele>1630</ele>
        <time>2021-08-11T11:47:11.898Z</time>
      </trkpt>
      <trkpt lat="46.87519" lon="8.49223">
        <ele>1630</ele>
        <time>2021-08-11T11:47:12.898Z</time>
      </trkpt>
      <trkpt lat="46.87518" lon="8.49223">
        <ele>1631</ele>
        <time>2021-08-11T11:47:13.898Z</time>
      </trkpt>
      <trkpt lat="46.87518" lon="8.49222">
        <ele>1631</ele>
        <time>2021-08-11T11:47:14.898Z</time>
      </trkpt>
      <trkpt lat="46.87518" lon="8.49222">
        <ele>1631</ele>
        <time>2021-08-11T11:47:15.897Z</time>
      </trkpt>
      <trkpt lat="46.87517" lon="8.49222">
        <ele>1632</ele>
        <time>2021-08-11T11:47:16.898Z</time>
      </trkpt>
      <trkpt lat="46.87517" lon="8.49221">
        <ele>1632</ele>
        <time>2021-08-11T11:47:17.898Z</time>
      </trkpt>
      <trkpt lat="46.87517" lon="8.49221">
        <ele>1632</ele>
        <time>2021-08-11T11:47:18.898Z</time>
      </trkpt>
      <trkpt lat="46.87516" lon="8.49221">
        <ele>1632</ele>
        <time>2021-08-11T11:47:19.898Z</time>
      </trkpt>
      <trkpt lat="46.87516" lon="8.4922">
        <ele>1632</ele>
        <time>2021-08-11T11:47:20.897Z</time>
      </trkpt>
      <trkpt lat="46.87516" lon="8.4922">
        <ele>1632</ele>
        <time>2021-08-11T11:47:21.897Z</time>
      </trkpt>
      <trkpt lat="46.87516" lon="8.4922">
        <ele>1632</ele>
        <time>2021-08-11T11:47:33.043Z</time>
      </trkpt>
      <trkpt lat="46.87515" lon="8.4922">
        <ele>1632</ele>
        <time>2021-08-11T11:47:34.905Z</time>
      </trkpt>
      <trkpt lat="46.87514" lon="8.49221">
        <ele>1633</ele>
        <time>2021-08-11T11:47:35.905Z</time>
      </trkpt>
      <trkpt lat="46.87513" lon="8.49223">
        <ele>1633</ele>
        <time>2021-08-11T11:47:40.772Z</time>
      </trkpt>
      <trkpt lat="46.87513" lon="8.49223">
        <ele>1633</ele>
        <time>2021-08-11T11:47:41.771Z</time>
      </trkpt>
      <trkpt lat="46.87513" lon="8.49223">
        <ele>1634</ele>
        <time>2021-08-11T11:47:42.772Z</time>
      </trkpt>
      <trkpt lat="46.87512" lon="8.49223">
        <ele>1634</ele>
        <time>2021-08-11T11:47:46.937Z</time>
      </trkpt>
      <trkpt lat="46.87511" lon="8.49224">
        <ele>1634</ele>
        <time>2021-08-11T11:47:47.937Z</time>
      </trkpt>
      <trkpt lat="46.87511" lon="8.49224">
        <ele>1635</ele>
        <time>2021-08-11T11:47:48.937Z</time>
      </trkpt>
      <trkpt lat="46.8751" lon="8.49224">
        <ele>1635</ele>
        <time>2021-08-11T11:47:49.936Z</time>
      </trkpt>
      <trkpt lat="46.87509" lon="8.49223">
        <ele>1635</ele>
        <time>2021-08-11T11:47:50.937Z</time>
      </trkpt>
      <trkpt lat="46.87508" lon="8.49223">
        <ele>1635</ele>
        <time>2021-08-11T11:47:51.937Z</time>
      </trkpt>
      <trkpt lat="46.87508" lon="8.49222">
        <ele>1636</ele>
        <time>2021-08-11T11:47:52.937Z</time>
      </trkpt>
      <trkpt lat="46.87507" lon="8.49222">
        <ele>1636</ele>
        <time>2021-08-11T11:47:53.937Z</time>
      </trkpt>
      <trkpt lat="46.87507" lon="8.4922">
        <ele>1637</ele>
        <time>2021-08-11T11:47:54.936Z</time>
      </trkpt>
      <trkpt lat="46.87506" lon="8.4922">
        <ele>1637</ele>
        <time>2021-08-11T11:47:55.937Z</time>
      </trkpt>
      <trkpt lat="46.87506" lon="8.4922">
        <ele>1638</ele>
        <time>2021-08-11T11:47:56.937Z</time>
      </trkpt>
      <trkpt lat="46.87505" lon="8.4922">
        <ele>1638</ele>
        <time>2021-08-11T11:47:57.937Z</time>
      </trkpt>
      <trkpt lat="46.87503" lon="8.49221">
        <ele>1639</ele>
        <time>2021-08-11T11:47:58.936Z</time>
      </trkpt>
      <trkpt lat="46.87502" lon="8.49221">
        <ele>1639</ele>
        <time>2021-08-11T11:47:59.936Z</time>
      </trkpt>
      <trkpt lat="46.87501" lon="8.49221">
        <ele>1639</ele>
        <time>2021-08-11T11:48:00.936Z</time>
      </trkpt>
      <trkpt lat="46.87501" lon="8.49221">
        <ele>1640</ele>
        <time>2021-08-11T11:48:01.937Z</time>
      </trkpt>
      <trkpt lat="46.875" lon="8.4922">
        <ele>1641</ele>
        <time>2021-08-11T11:48:02.937Z</time>
      </trkpt>
      <trkpt lat="46.87499" lon="8.49219">
        <ele>1641</ele>
        <time>2021-08-11T11:48:03.937Z</time>
      </trkpt>
      <trkpt lat="46.87499" lon="8.49219">
        <ele>1642</ele>
        <time>2021-08-11T11:48:04.937Z</time>
      </trkpt>
      <trkpt lat="46.87498" lon="8.49219">
        <ele>1642</ele>
        <time>2021-08-11T11:48:09.021Z</time>
      </trkpt>
      <trkpt lat="46.87498" lon="8.4922">
        <ele>1642</ele>
        <time>2021-08-11T11:48:10.021Z</time>
      </trkpt>
      <trkpt lat="46.87498" lon="8.4922">
        <ele>1642</ele>
        <time>2021-08-11T11:48:11.021Z</time>
      </trkpt>
      <trkpt lat="46.87497" lon="8.49219">
        <ele>1643</ele>
        <time>2021-08-11T11:48:15.040Z</time>
      </trkpt>
      <trkpt lat="46.87496" lon="8.49218">
        <ele>1643</ele>
        <time>2021-08-11T11:48:16.040Z</time>
      </trkpt>
      <trkpt lat="46.87496" lon="8.49218">
        <ele>1644</ele>
        <time>2021-08-11T11:48:17.040Z</time>
      </trkpt>
      <trkpt lat="46.87495" lon="8.49217">
        <ele>1644</ele>
        <time>2021-08-11T11:48:18.040Z</time>
      </trkpt>
      <trkpt lat="46.87494" lon="8.49218">
        <ele>1644</ele>
        <time>2021-08-11T11:48:19.040Z</time>
      </trkpt>
      <trkpt lat="46.87493" lon="8.49218">
        <ele>1644</ele>
        <time>2021-08-11T11:48:20.040Z</time>
      </trkpt>
      <trkpt lat="46.87492" lon="8.49218">
        <ele>1644</ele>
        <time>2021-08-11T11:48:21.039Z</time>
      </trkpt>
      <trkpt lat="46.87492" lon="8.49219">
        <ele>1644</ele>
        <time>2021-08-11T11:48:22.040Z</time>
      </trkpt>
      <trkpt lat="46.87492" lon="8.49219">
        <ele>1644</ele>
        <time>2021-08-11T11:48:23.040Z</time>
      </trkpt>
      <trkpt lat="46.87491" lon="8.49219">
        <ele>1644</ele>
        <time>2021-08-11T11:48:24.040Z</time>
      </trkpt>
      <trkpt lat="46.87491" lon="8.4922">
        <ele>1644</ele>
        <time>2021-08-11T11:48:25.039Z</time>
      </trkpt>
      <trkpt lat="46.87489" lon="8.49221">
        <ele>1644</ele>
        <time>2021-08-11T11:48:26.039Z</time>
      </trkpt>
      <trkpt lat="46.87488" lon="8.49221">
        <ele>1644</ele>
        <time>2021-08-11T11:48:27.039Z</time>
      </trkpt>
      <trkpt lat="46.87488" lon="8.49222">
        <ele>1644</ele>
        <time>2021-08-11T11:48:39.158Z</time>
      </trkpt>
      <trkpt lat="46.87487" lon="8.49223">
        <ele>1644</ele>
        <time>2021-08-11T11:48:40.158Z</time>
      </trkpt>
      <trkpt lat="46.87486" lon="8.49223">
        <ele>1644</ele>
        <time>2021-08-11T11:48:48.037Z</time>
      </trkpt>
      <trkpt lat="46.87486" lon="8.49224">
        <ele>1644</ele>
        <time>2021-08-11T11:48:49.036Z</time>
      </trkpt>
      <trkpt lat="46.87485" lon="8.49225">
        <ele>1644</ele>
        <time>2021-08-11T11:48:53.159Z</time>
      </trkpt>
      <trkpt lat="46.87484" lon="8.49225">
        <ele>1644</ele>
        <time>2021-08-11T11:48:54.159Z</time>
      </trkpt>
      <trkpt lat="46.87483" lon="8.49224">
        <ele>1644</ele>
        <time>2021-08-11T11:48:55.160Z</time>
      </trkpt>
      <trkpt lat="46.87483" lon="8.49224">
        <ele>1644</ele>
        <time>2021-08-11T11:48:56.160Z</time>
      </trkpt>
      <trkpt lat="46.87483" lon="8.49224">
        <ele>1643</ele>
        <time>2021-08-11T11:48:57.160Z</time>
      </trkpt>
      <trkpt lat="46.87482" lon="8.49224">
        <ele>1643</ele>
        <time>2021-08-11T11:48:58.159Z</time>
      </trkpt>
      <trkpt lat="46.87482" lon="8.49225">
        <ele>1642</ele>
        <time>2021-08-11T11:48:59.160Z</time>
      </trkpt>
      <trkpt lat="46.87481" lon="8.49224">
        <ele>1642</ele>
        <time>2021-08-11T11:49:00.160Z</time>
      </trkpt>
      <trkpt lat="46.8748" lon="8.49224">
        <ele>1642</ele>
        <time>2021-08-11T11:49:01.160Z</time>
      </trkpt>
      <trkpt lat="46.87481" lon="8.49223">
        <ele>1642</ele>
        <time>2021-08-11T11:49:02.160Z</time>
      </trkpt>
      <trkpt lat="46.87481" lon="8.49223">
        <ele>1642</ele>
        <time>2021-08-11T11:49:03.159Z</time>
      </trkpt>
      <trkpt lat="46.8748" lon="8.49224">
        <ele>1642</ele>
        <time>2021-08-11T11:49:04.159Z</time>
      </trkpt>
      <trkpt lat="46.87479" lon="8.49224">
        <ele>1642</ele>
        <time>2021-08-11T11:49:05.159Z</time>
      </trkpt>
      <trkpt lat="46.87478" lon="8.49224">
        <ele>1642</ele>
        <time>2021-08-11T11:49:06.160Z</time>
      </trkpt>
      <trkpt lat="46.87477" lon="8.49224">
        <ele>1642</ele>
        <time>2021-08-11T11:49:07.160Z</time>
      </trkpt>
      <trkpt lat="46.87476" lon="8.49224">
        <ele>1642</ele>
        <time>2021-08-11T11:49:08.159Z</time>
      </trkpt>
      <trkpt lat="46.87476" lon="8.49225">
        <ele>1641</ele>
        <time>2021-08-11T11:49:09.160Z</time>
      </trkpt>
      <trkpt lat="46.87475" lon="8.49225">
        <ele>1641</ele>
        <time>2021-08-11T11:49:11.268Z</time>
      </trkpt>
      <trkpt lat="46.87474" lon="8.49225">
        <ele>1640</ele>
        <time>2021-08-11T11:49:12.268Z</time>
      </trkpt>
      <trkpt lat="46.87474" lon="8.49225">
        <ele>1640</ele>
        <time>2021-08-11T11:49:13.268Z</time>
      </trkpt>
      <trkpt lat="46.87474" lon="8.49225">
        <ele>1639</ele>
        <time>2021-08-11T11:49:14.268Z</time>
      </trkpt>
      <trkpt lat="46.87473" lon="8.49224">
        <ele>1634</ele>
        <time>2021-08-11T11:49:15.267Z</time>
      </trkpt>
      <trkpt lat="46.87473" lon="8.49224">
        <ele>1633</ele>
        <time>2021-08-11T11:49:16.267Z</time>
      </trkpt>
      <trkpt lat="46.87473" lon="8.49224">
        <ele>1633</ele>
        <time>2021-08-11T11:49:17.267Z</time>
      </trkpt>
      <trkpt lat="46.87473" lon="8.49224">
        <ele>1632</ele>
        <time>2021-08-11T11:49:18.267Z</time>
      </trkpt>
      <trkpt lat="46.87473" lon="8.49224">
        <ele>1632</ele>
        <time>2021-08-11T11:49:19.268Z</time>
      </trkpt>
      <trkpt lat="46.87473" lon="8.49224">
        <ele>1632</ele>
        <time>2021-08-11T11:49:20.268Z</time>
      </trkpt>
      <trkpt lat="46.87473" lon="8.49224">
        <ele>1632</ele>
        <time>2021-08-11T11:49:21.268Z</time>
      </trkpt>
      <trkpt lat="46.87472" lon="8.49224">
        <ele>1632</ele>
        <time>2021-08-11T11:49:22.268Z</time>
      </trkpt>
      <trkpt lat="46.87472" lon="8.49223">
        <ele>1632</ele>
        <time>2021-08-11T11:49:23.268Z</time>
      </trkpt>
      <trkpt lat="46.87472" lon="8.49223">
        <ele>1633</ele>
        <time>2021-08-11T11:49:24.267Z</time>
      </trkpt>
      <trkpt lat="46.87473" lon="8.49222">
        <ele>1633</ele>
        <time>2021-08-11T11:49:25.268Z</time>
      </trkpt>
      <trkpt lat="46.87473" lon="8.49222">
        <ele>1634</ele>
        <time>2021-08-11T11:49:26.268Z</time>
      </trkpt>
      <trkpt lat="46.87473" lon="8.49221">
        <ele>1634</ele>
        <time>2021-08-11T11:49:28.368Z</time>
      </trkpt>
      <trkpt lat="46.87473" lon="8.4922">
        <ele>1635</ele>
        <time>2021-08-11T11:49:29.368Z</time>
      </trkpt>
      <trkpt lat="46.87473" lon="8.49219">
        <ele>1635</ele>
        <time>2021-08-11T11:49:30.368Z</time>
      </trkpt>
      <trkpt lat="46.87474" lon="8.49219">
        <ele>1635</ele>
        <time>2021-08-11T11:49:37.386Z</time>
      </trkpt>
      <trkpt lat="46.87475" lon="8.49219">
        <ele>1636</ele>
        <time>2021-08-11T11:49:38.386Z</time>
      </trkpt>
      <trkpt lat="46.87476" lon="8.49219">
        <ele>1636</ele>
        <time>2021-08-11T11:49:39.386Z</time>
      </trkpt>
      <trkpt lat="46.87476" lon="8.49219">
        <ele>1636</ele>
        <time>2021-08-11T11:49:40.385Z</time>
      </trkpt>
      <trkpt lat="46.87478" lon="8.49218">
        <ele>1637</ele>
        <time>2021-08-11T11:49:41.387Z</time>
      </trkpt>
      <trkpt lat="46.87479" lon="8.49217">
        <ele>1637</ele>
        <time>2021-08-11T11:49:42.386Z</time>
      </trkpt>
      <trkpt lat="46.87481" lon="8.49216">
        <ele>1637</ele>
        <time>2021-08-11T11:49:43.386Z</time>
      </trkpt>
      <trkpt lat="46.87482" lon="8.49216">
        <ele>1637</ele>
        <time>2021-08-11T11:49:44.387Z</time>
      </trkpt>
      <trkpt lat="46.87484" lon="8.49215">
        <ele>1638</ele>
        <time>2021-08-11T11:49:45.387Z</time>
      </trkpt>
      <trkpt lat="46.87485" lon="8.49215">
        <ele>1639</ele>
        <time>2021-08-11T11:49:53.512Z</time>
      </trkpt>
      <trkpt lat="46.87486" lon="8.49215">
        <ele>1639</ele>
        <time>2021-08-11T11:49:54.513Z</time>
      </trkpt>
      <trkpt lat="46.87487" lon="8.49214">
        <ele>1640</ele>
        <time>2021-08-11T11:49:55.513Z</time>
      </trkpt>
      <trkpt lat="46.87488" lon="8.49214">
        <ele>1640</ele>
        <time>2021-08-11T11:49:56.513Z</time>
      </trkpt>
      <trkpt lat="46.87489" lon="8.49213">
        <ele>1640</ele>
        <time>2021-08-11T11:49:57.513Z</time>
      </trkpt>
      <trkpt lat="46.87489" lon="8.49212">
        <ele>1640</ele>
        <time>2021-08-11T11:49:58.512Z</time>
      </trkpt>
      <trkpt lat="46.87489" lon="8.49211">
        <ele>1640</ele>
        <time>2021-08-11T11:49:59.513Z</time>
      </trkpt>
      <trkpt lat="46.8749" lon="8.49211">
        <ele>1640</ele>
        <time>2021-08-11T11:50:00.512Z</time>
      </trkpt>
      <trkpt lat="46.87491" lon="8.4921">
        <ele>1640</ele>
        <time>2021-08-11T11:50:01.512Z</time>
      </trkpt>
      <trkpt lat="46.87492" lon="8.49209">
        <ele>1639</ele>
        <time>2021-08-11T11:50:13.652Z</time>
      </trkpt>
      <trkpt lat="46.87493" lon="8.49209">
        <ele>1639</ele>
        <time>2021-08-11T11:50:14.652Z</time>
      </trkpt>
      <trkpt lat="46.87493" lon="8.49208">
        <ele>1640</ele>
        <time>2021-08-11T11:50:15.653Z</time>
      </trkpt>
      <trkpt lat="46.87495" lon="8.49207">
        <ele>1640</ele>
        <time>2021-08-11T11:50:16.653Z</time>
      </trkpt>
      <trkpt lat="46.87497" lon="8.49207">
        <ele>1641</ele>
        <time>2021-08-11T11:50:17.652Z</time>
      </trkpt>
      <trkpt lat="46.87497" lon="8.49206">
        <ele>1641</ele>
        <time>2021-08-11T11:50:18.652Z</time>
      </trkpt>
      <trkpt lat="46.87498" lon="8.49205">
        <ele>1642</ele>
        <time>2021-08-11T11:50:19.653Z</time>
      </trkpt>
      <trkpt lat="46.87499" lon="8.49204">
        <ele>1642</ele>
        <time>2021-08-11T11:50:24.797Z</time>
      </trkpt>
      <trkpt lat="46.87499" lon="8.49203">
        <ele>1643</ele>
        <time>2021-08-11T11:50:25.796Z</time>
      </trkpt>
      <trkpt lat="46.875" lon="8.49203">
        <ele>1643</ele>
        <time>2021-08-11T11:50:26.797Z</time>
      </trkpt>
      <trkpt lat="46.875" lon="8.49203">
        <ele>1644</ele>
        <time>2021-08-11T11:50:36.905Z</time>
      </trkpt>
      <trkpt lat="46.87501" lon="8.49202">
        <ele>1645</ele>
        <time>2021-08-11T11:50:37.905Z</time>
      </trkpt>
      <trkpt lat="46.87501" lon="8.49202">
        <ele>1646</ele>
        <time>2021-08-11T11:50:38.904Z</time>
      </trkpt>
      <trkpt lat="46.87501" lon="8.49201">
        <ele>1646</ele>
        <time>2021-08-11T11:50:39.905Z</time>
      </trkpt>
      <trkpt lat="46.87501" lon="8.492">
        <ele>1647</ele>
        <time>2021-08-11T11:50:40.904Z</time>
      </trkpt>
      <trkpt lat="46.87502" lon="8.49199">
        <ele>1648</ele>
        <time>2021-08-11T11:50:41.905Z</time>
      </trkpt>
      <trkpt lat="46.87502" lon="8.49198">
        <ele>1649</ele>
        <time>2021-08-11T11:50:47.008Z</time>
      </trkpt>
      <trkpt lat="46.87503" lon="8.49197">
        <ele>1649</ele>
        <time>2021-08-11T11:50:48.007Z</time>
      </trkpt>
      <trkpt lat="46.87503" lon="8.49197">
        <ele>1650</ele>
        <time>2021-08-11T11:51:04.132Z</time>
      </trkpt>
      <trkpt lat="46.87503" lon="8.49196">
        <ele>1651</ele>
        <time>2021-08-11T11:51:05.132Z</time>
      </trkpt>
      <trkpt lat="46.87504" lon="8.49195">
        <ele>1652</ele>
        <time>2021-08-11T11:51:06.132Z</time>
      </trkpt>
      <trkpt lat="46.87505" lon="8.49195">
        <ele>1653</ele>
        <time>2021-08-11T11:51:14.256Z</time>
      </trkpt>
      <trkpt lat="46.87505" lon="8.49195">
        <ele>1653</ele>
        <time>2021-08-11T11:51:15.256Z</time>
      </trkpt>
      <trkpt lat="46.87506" lon="8.49194">
        <ele>1654</ele>
        <time>2021-08-11T11:51:16.255Z</time>
      </trkpt>
      <trkpt lat="46.87507" lon="8.49194">
        <ele>1655</ele>
        <time>2021-08-11T11:51:19.364Z</time>
      </trkpt>
      <trkpt lat="46.87507" lon="8.49193">
        <ele>1655</ele>
        <time>2021-08-11T11:51:20.364Z</time>
      </trkpt>
      <trkpt lat="46.87506" lon="8.49193">
        <ele>1656</ele>
        <time>2021-08-11T11:51:21.364Z</time>
      </trkpt>
      <trkpt lat="46.87507" lon="8.49193">
        <ele>1656</ele>
        <time>2021-08-11T11:51:22.364Z</time>
      </trkpt>
      <trkpt lat="46.87507" lon="8.49192">
        <ele>1656</ele>
        <time>2021-08-11T11:51:23.363Z</time>
      </trkpt>
      <trkpt lat="46.87507" lon="8.49191">
        <ele>1656</ele>
        <time>2021-08-11T11:51:24.363Z</time>
      </trkpt>
      <trkpt lat="46.87508" lon="8.49191">
        <ele>1656</ele>
        <time>2021-08-11T11:51:25.364Z</time>
      </trkpt>
      <trkpt lat="46.87509" lon="8.4919">
        <ele>1656</ele>
        <time>2021-08-11T11:51:26.363Z</time>
      </trkpt>
      <trkpt lat="46.8751" lon="8.49189">
        <ele>1656</ele>
        <time>2021-08-11T11:51:27.363Z</time>
      </trkpt>
      <trkpt lat="46.87511" lon="8.49188">
        <ele>1656</ele>
        <time>2021-08-11T11:51:28.364Z</time>
      </trkpt>
      <trkpt lat="46.87512" lon="8.49188">
        <ele>1657</ele>
        <time>2021-08-11T11:51:29.364Z</time>
      </trkpt>
      <trkpt lat="46.87512" lon="8.49187">
        <ele>1657</ele>
        <time>2021-08-11T11:51:31.513Z</time>
      </trkpt>
      <trkpt lat="46.87512" lon="8.49187">
        <ele>1657</ele>
        <time>2021-08-11T11:51:32.513Z</time>
      </trkpt>
      <trkpt lat="46.87512" lon="8.49186">
        <ele>1657</ele>
        <time>2021-08-11T11:51:33.512Z</time>
      </trkpt>
      <trkpt lat="46.87513" lon="8.49185">
        <ele>1657</ele>
        <time>2021-08-11T11:51:34.512Z</time>
      </trkpt>
      <trkpt lat="46.87513" lon="8.49185">
        <ele>1657</ele>
        <time>2021-08-11T11:51:56.657Z</time>
      </trkpt>
      <trkpt lat="46.87513" lon="8.49184">
        <ele>1657</ele>
        <time>2021-08-11T11:51:57.658Z</time>
      </trkpt>
      <trkpt lat="46.87513" lon="8.49184">
        <ele>1657</ele>
        <time>2021-08-11T11:51:58.658Z</time>
      </trkpt>
      <trkpt lat="46.87513" lon="8.49183">
        <ele>1657</ele>
        <time>2021-08-11T11:51:59.658Z</time>
      </trkpt>
      <trkpt lat="46.87514" lon="8.49182">
        <ele>1658</ele>
        <time>2021-08-11T11:52:00.658Z</time>
      </trkpt>
      <trkpt lat="46.87514" lon="8.49181">
        <ele>1658</ele>
        <time>2021-08-11T11:52:01.658Z</time>
      </trkpt>
      <trkpt lat="46.87514" lon="8.49181">
        <ele>1658</ele>
        <time>2021-08-11T11:52:02.658Z</time>
      </trkpt>
      <trkpt lat="46.87515" lon="8.4918">
        <ele>1658</ele>
        <time>2021-08-11T11:52:03.658Z</time>
      </trkpt>
      <trkpt lat="46.87515" lon="8.4918">
        <ele>1658</ele>
        <time>2021-08-11T11:52:05.737Z</time>
      </trkpt>
      <trkpt lat="46.87516" lon="8.49179">
        <ele>1658</ele>
        <time>2021-08-11T11:52:13.628Z</time>
      </trkpt>
      <trkpt lat="46.87516" lon="8.49178">
        <ele>1658</ele>
        <time>2021-08-11T11:52:27.508Z</time>
      </trkpt>
      <trkpt lat="46.87516" lon="8.49178">
        <ele>1658</ele>
        <time>2021-08-11T11:53:15.397Z</time>
      </trkpt>
      <trkpt lat="46.87516" lon="8.49177">
        <ele>1658</ele>
        <time>2021-08-11T11:53:32.371Z</time>
      </trkpt>
      <trkpt lat="46.87516" lon="8.49177">
        <ele>1658</ele>
        <time>2021-08-11T11:53:33.372Z</time>
      </trkpt>
      <trkpt lat="46.87517" lon="8.49176">
        <ele>1658</ele>
        <time>2021-08-11T11:53:34.372Z</time>
      </trkpt>
      <trkpt lat="46.87518" lon="8.49176">
        <ele>1658</ele>
        <time>2021-08-11T11:53:35.372Z</time>
      </trkpt>
      <trkpt lat="46.87518" lon="8.49176">
        <ele>1658</ele>
        <time>2021-08-11T11:53:36.371Z</time>
      </trkpt>
      <trkpt lat="46.87519" lon="8.49175">
        <ele>1658</ele>
        <time>2021-08-11T11:53:37.372Z</time>
      </trkpt>
      <trkpt lat="46.8752" lon="8.49174">
        <ele>1658</ele>
        <time>2021-08-11T11:53:38.372Z</time>
      </trkpt>
      <trkpt lat="46.87521" lon="8.49172">
        <ele>1658</ele>
        <time>2021-08-11T11:53:40.359Z</time>
      </trkpt>
      <trkpt lat="46.87521" lon="8.49172">
        <ele>1658</ele>
        <time>2021-08-11T11:53:41.358Z</time>
      </trkpt>
      <trkpt lat="46.87522" lon="8.4917">
        <ele>1658</ele>
        <time>2021-08-11T11:53:42.359Z</time>
      </trkpt>
      <trkpt lat="46.87523" lon="8.49169">
        <ele>1659</ele>
        <time>2021-08-11T11:53:43.359Z</time>
      </trkpt>
      <trkpt lat="46.87523" lon="8.49168">
        <ele>1659</ele>
        <time>2021-08-11T11:53:46.360Z</time>
      </trkpt>
      <trkpt lat="46.87523" lon="8.49168">
        <ele>1658</ele>
        <time>2021-08-11T11:53:50.271Z</time>
      </trkpt>
      <trkpt lat="46.87523" lon="8.49167">
        <ele>1658</ele>
        <time>2021-08-11T11:53:51.270Z</time>
      </trkpt>
      <trkpt lat="46.87523" lon="8.49167">
        <ele>1658</ele>
        <time>2021-08-11T11:53:52.271Z</time>
      </trkpt>
      <trkpt lat="46.87524" lon="8.49166">
        <ele>1658</ele>
        <time>2021-08-11T11:53:55.359Z</time>
      </trkpt>
      <trkpt lat="46.87524" lon="8.49165">
        <ele>1659</ele>
        <time>2021-08-11T11:53:56.359Z</time>
      </trkpt>
      <trkpt lat="46.87525" lon="8.49165">
        <ele>1659</ele>
        <time>2021-08-11T11:54:01.251Z</time>
      </trkpt>
      <trkpt lat="46.87525" lon="8.49164">
        <ele>1659</ele>
        <time>2021-08-11T11:54:02.251Z</time>
      </trkpt>
      <trkpt lat="46.87525" lon="8.49164">
        <ele>1660</ele>
        <time>2021-08-11T11:54:14.122Z</time>
      </trkpt>
      <trkpt lat="46.87525" lon="8.49164">
        <ele>1660</ele>
        <time>2021-08-11T11:54:15.122Z</time>
      </trkpt>
      <trkpt lat="46.87526" lon="8.49163">
        <ele>1661</ele>
        <time>2021-08-11T11:54:16.122Z</time>
      </trkpt>
      <trkpt lat="46.87526" lon="8.49162">
        <ele>1661</ele>
        <time>2021-08-11T11:54:17.121Z</time>
      </trkpt>
      <trkpt lat="46.87526" lon="8.49162">
        <ele>1662</ele>
        <time>2021-08-11T11:54:19.272Z</time>
      </trkpt>
      <trkpt lat="46.87527" lon="8.49161">
        <ele>1662</ele>
        <time>2021-08-11T11:54:27.272Z</time>
      </trkpt>
      <trkpt lat="46.87527" lon="8.49161">
        <ele>1662</ele>
        <time>2021-08-11T11:54:28.271Z</time>
      </trkpt>
      <trkpt lat="46.87528" lon="8.4916">
        <ele>1663</ele>
        <time>2021-08-11T11:54:29.271Z</time>
      </trkpt>
      <trkpt lat="46.87528" lon="8.4916">
        <ele>1663</ele>
        <time>2021-08-11T11:54:30.271Z</time>
      </trkpt>
      <trkpt lat="46.87528" lon="8.49159">
        <ele>1663</ele>
        <time>2021-08-11T11:54:31.272Z</time>
      </trkpt>
      <trkpt lat="46.87528" lon="8.49159">
        <ele>1663</ele>
        <time>2021-08-11T11:54:32.272Z</time>
      </trkpt>
      <trkpt lat="46.87528" lon="8.4916">
        <ele>1664</ele>
        <time>2021-08-11T11:54:40.371Z</time>
      </trkpt>
      <trkpt lat="46.87528" lon="8.4916">
        <ele>1664</ele>
        <time>2021-08-11T11:54:41.371Z</time>
      </trkpt>
      <trkpt lat="46.87528" lon="8.4916">
        <ele>1664</ele>
        <time>2021-08-11T11:54:42.370Z</time>
      </trkpt>
      <trkpt lat="46.87529" lon="8.4916">
        <ele>1664</ele>
        <time>2021-08-11T11:54:46.493Z</time>
      </trkpt>
      <trkpt lat="46.8753" lon="8.4916">
        <ele>1666</ele>
        <time>2021-08-11T11:54:47.494Z</time>
      </trkpt>
      <trkpt lat="46.87532" lon="8.4916">
        <ele>1666</ele>
        <time>2021-08-11T11:54:48.494Z</time>
      </trkpt>
      <trkpt lat="46.87533" lon="8.4916">
        <ele>1666</ele>
        <time>2021-08-11T11:54:51.603Z</time>
      </trkpt>
      <trkpt lat="46.87535" lon="8.49159">
        <ele>1666</ele>
        <time>2021-08-11T11:54:52.604Z</time>
      </trkpt>
      <trkpt lat="46.87536" lon="8.49158">
        <ele>1667</ele>
        <time>2021-08-11T11:54:53.604Z</time>
      </trkpt>
      <trkpt lat="46.87538" lon="8.49157">
        <ele>1667</ele>
        <time>2021-08-11T11:54:54.604Z</time>
      </trkpt>
      <trkpt lat="46.87538" lon="8.49157">
        <ele>1667</ele>
        <time>2021-08-11T11:54:55.603Z</time>
      </trkpt>
      <trkpt lat="46.87537" lon="8.49156">
        <ele>1667</ele>
        <time>2021-08-11T11:54:56.603Z</time>
      </trkpt>
      <trkpt lat="46.87535" lon="8.49157">
        <ele>1667</ele>
        <time>2021-08-11T11:54:57.604Z</time>
      </trkpt>
      <trkpt lat="46.87534" lon="8.49159">
        <ele>1666</ele>
        <time>2021-08-11T11:54:58.604Z</time>
      </trkpt>
      <trkpt lat="46.87534" lon="8.4916">
        <ele>1666</ele>
        <time>2021-08-11T11:54:59.604Z</time>
      </trkpt>
      <trkpt lat="46.87534" lon="8.4916">
        <ele>1666</ele>
        <time>2021-08-11T11:55:00.603Z</time>
      </trkpt>
      <trkpt lat="46.87534" lon="8.4916">
        <ele>1666</ele>
        <time>2021-08-11T11:55:01.604Z</time>
      </trkpt>
      <trkpt lat="46.87535" lon="8.49159">
        <ele>1665</ele>
        <time>2021-08-11T11:55:02.605Z</time>
      </trkpt>
      <trkpt lat="46.87535" lon="8.49159">
        <ele>1664</ele>
        <time>2021-08-11T11:55:10.744Z</time>
      </trkpt>
      <trkpt lat="46.87535" lon="8.49159">
        <ele>1664</ele>
        <time>2021-08-11T11:55:11.743Z</time>
      </trkpt>
      <trkpt lat="46.87535" lon="8.49159">
        <ele>1664</ele>
        <time>2021-08-11T11:55:12.744Z</time>
      </trkpt>
      <trkpt lat="46.87535" lon="8.49159">
        <ele>1663</ele>
        <time>2021-08-11T11:55:13.743Z</time>
      </trkpt>
      <trkpt lat="46.87536" lon="8.49158">
        <ele>1663</ele>
        <time>2021-08-11T11:55:14.744Z</time>
      </trkpt>
      <trkpt lat="46.87536" lon="8.49158">
        <ele>1663</ele>
        <time>2021-08-11T11:55:15.744Z</time>
      </trkpt>
      <trkpt lat="46.87536" lon="8.49159">
        <ele>1663</ele>
        <time>2021-08-11T11:55:16.743Z</time>
      </trkpt>
      <trkpt lat="46.87537" lon="8.4916">
        <ele>1663</ele>
        <time>2021-08-11T11:55:17.744Z</time>
      </trkpt>
      <trkpt lat="46.87537" lon="8.4916">
        <ele>1664</ele>
        <time>2021-08-11T11:55:20.874Z</time>
      </trkpt>
      <trkpt lat="46.87538" lon="8.4916">
        <ele>1664</ele>
        <time>2021-08-11T11:55:21.873Z</time>
      </trkpt>
      <trkpt lat="46.87536" lon="8.49161">
        <ele>1664</ele>
        <time>2021-08-11T11:55:22.874Z</time>
      </trkpt>
      <trkpt lat="46.87536" lon="8.4916">
        <ele>1664</ele>
        <time>2021-08-11T11:55:23.874Z</time>
      </trkpt>
      <trkpt lat="46.87537" lon="8.4916">
        <ele>1664</ele>
        <time>2021-08-11T11:55:24.873Z</time>
      </trkpt>
      <trkpt lat="46.87537" lon="8.4916">
        <ele>1664</ele>
        <time>2021-08-11T11:55:25.873Z</time>
      </trkpt>
      <trkpt lat="46.87537" lon="8.4916">
        <ele>1664</ele>
        <time>2021-08-11T11:55:26.873Z</time>
      </trkpt>
      <trkpt lat="46.87536" lon="8.49161">
        <ele>1664</ele>
        <time>2021-08-11T11:55:27.874Z</time>
      </trkpt>
      <trkpt lat="46.87535" lon="8.49162">
        <ele>1664</ele>
        <time>2021-08-11T11:55:28.874Z</time>
      </trkpt>
      <trkpt lat="46.87535" lon="8.49162">
        <ele>1664</ele>
        <time>2021-08-11T11:55:29.874Z</time>
      </trkpt>
      <trkpt lat="46.87536" lon="8.49162">
        <ele>1664</ele>
        <time>2021-08-11T11:55:38.015Z</time>
      </trkpt>
      <trkpt lat="46.87536" lon="8.49162">
        <ele>1663</ele>
        <time>2021-08-11T11:55:39.014Z</time>
      </trkpt>
      <trkpt lat="46.87536" lon="8.49161">
        <ele>1663</ele>
        <time>2021-08-11T11:55:40.015Z</time>
      </trkpt>
      <trkpt lat="46.87536" lon="8.49161">
        <ele>1663</ele>
        <time>2021-08-11T11:55:41.015Z</time>
      </trkpt>
      <trkpt lat="46.87536" lon="8.49162">
        <ele>1663</ele>
        <time>2021-08-11T11:55:42.015Z</time>
      </trkpt>
      <trkpt lat="46.87536" lon="8.49162">
        <ele>1662</ele>
        <time>2021-08-11T11:55:43.015Z</time>
      </trkpt>
      <trkpt lat="46.87537" lon="8.49161">
        <ele>1662</ele>
        <time>2021-08-11T11:55:44.015Z</time>
      </trkpt>
      <trkpt lat="46.87538" lon="8.4916">
        <ele>1662</ele>
        <time>2021-08-11T11:55:45.014Z</time>
      </trkpt>
      <trkpt lat="46.8754" lon="8.49158">
        <ele>1662</ele>
        <time>2021-08-11T11:55:46.014Z</time>
      </trkpt>
      <trkpt lat="46.8754" lon="8.49157">
        <ele>1662</ele>
        <time>2021-08-11T11:55:47.015Z</time>
      </trkpt>
      <trkpt lat="46.87541" lon="8.49157">
        <ele>1662</ele>
        <time>2021-08-11T11:55:48.015Z</time>
      </trkpt>
      <trkpt lat="46.87542" lon="8.49157">
        <ele>1662</ele>
        <time>2021-08-11T11:55:49.014Z</time>
      </trkpt>
      <trkpt lat="46.87542" lon="8.49156">
        <ele>1662</ele>
        <time>2021-08-11T11:55:50.015Z</time>
      </trkpt>
      <trkpt lat="46.87542" lon="8.49156">
        <ele>1662</ele>
        <time>2021-08-11T11:55:51.015Z</time>
      </trkpt>
      <trkpt lat="46.87542" lon="8.49154">
        <ele>1662</ele>
        <time>2021-08-11T11:55:52.014Z</time>
      </trkpt>
      <trkpt lat="46.87542" lon="8.49153">
        <ele>1662</ele>
        <time>2021-08-11T11:55:53.015Z</time>
      </trkpt>
      <trkpt lat="46.87542" lon="8.49153">
        <ele>1662</ele>
        <time>2021-08-11T11:55:54.015Z</time>
      </trkpt>
      <trkpt lat="46.87543" lon="8.49153">
        <ele>1662</ele>
        <time>2021-08-11T11:55:55.015Z</time>
      </trkpt>
      <trkpt lat="46.87543" lon="8.49152">
        <ele>1662</ele>
        <time>2021-08-11T11:55:56.015Z</time>
      </trkpt>
      <trkpt lat="46.87543" lon="8.49151">
        <ele>1662</ele>
        <time>2021-08-11T11:55:57.015Z</time>
      </trkpt>
      <trkpt lat="46.87543" lon="8.4915">
        <ele>1662</ele>
        <time>2021-08-11T11:55:58.015Z</time>
      </trkpt>
      <trkpt lat="46.87543" lon="8.49148">
        <ele>1662</ele>
        <time>2021-08-11T11:55:59.015Z</time>
      </trkpt>
      <trkpt lat="46.87543" lon="8.49146">
        <ele>1662</ele>
        <time>2021-08-11T11:56:00.015Z</time>
      </trkpt>
      <trkpt lat="46.87543" lon="8.49145">
        <ele>1662</ele>
        <time>2021-08-11T11:56:01.015Z</time>
      </trkpt>
      <trkpt lat="46.87543" lon="8.49145">
        <ele>1662</ele>
        <time>2021-08-11T11:56:02.015Z</time>
      </trkpt>
      <trkpt lat="46.87543" lon="8.49144">
        <ele>1662</ele>
        <time>2021-08-11T11:56:03.014Z</time>
      </trkpt>
      <trkpt lat="46.87543" lon="8.49143">
        <ele>1663</ele>
        <time>2021-08-11T11:56:04.015Z</time>
      </trkpt>
      <trkpt lat="46.87543" lon="8.49141">
        <ele>1663</ele>
        <time>2021-08-11T11:56:05.015Z</time>
      </trkpt>
      <trkpt lat="46.87542" lon="8.49141">
        <ele>1663</ele>
        <time>2021-08-11T11:56:06.014Z</time>
      </trkpt>
      <trkpt lat="46.87541" lon="8.4914">
        <ele>1664</ele>
        <time>2021-08-11T11:56:07.014Z</time>
      </trkpt>
      <trkpt lat="46.8754" lon="8.49141">
        <ele>1664</ele>
        <time>2021-08-11T11:56:08.014Z</time>
      </trkpt>
      <trkpt lat="46.8754" lon="8.49141">
        <ele>1665</ele>
        <time>2021-08-11T11:56:09.014Z</time>
      </trkpt>
      <trkpt lat="46.8754" lon="8.4914">
        <ele>1665</ele>
        <time>2021-08-11T11:56:10.015Z</time>
      </trkpt>
      <trkpt lat="46.8754" lon="8.49139">
        <ele>1665</ele>
        <time>2021-08-11T11:56:11.015Z</time>
      </trkpt>
      <trkpt lat="46.87539" lon="8.49138">
        <ele>1666</ele>
        <time>2021-08-11T11:56:12.014Z</time>
      </trkpt>
      <trkpt lat="46.87539" lon="8.49137">
        <ele>1666</ele>
        <time>2021-08-11T11:56:13.015Z</time>
      </trkpt>
      <trkpt lat="46.87539" lon="8.49136">
        <ele>1666</ele>
        <time>2021-08-11T11:56:14.015Z</time>
      </trkpt>
      <trkpt lat="46.87538" lon="8.49136">
        <ele>1666</ele>
        <time>2021-08-11T11:56:15.015Z</time>
      </trkpt>
      <trkpt lat="46.87538" lon="8.49135">
        <ele>1666</ele>
        <time>2021-08-11T11:56:16.015Z</time>
      </trkpt>
      <trkpt lat="46.87538" lon="8.49134">
        <ele>1666</ele>
        <time>2021-08-11T11:56:17.015Z</time>
      </trkpt>
      <trkpt lat="46.87538" lon="8.49133">
        <ele>1666</ele>
        <time>2021-08-11T11:56:18.015Z</time>
      </trkpt>
      <trkpt lat="46.87538" lon="8.49132">
        <ele>1666</ele>
        <time>2021-08-11T11:56:19.015Z</time>
      </trkpt>
      <trkpt lat="46.87537" lon="8.49132">
        <ele>1666</ele>
        <time>2021-08-11T11:56:20.015Z</time>
      </trkpt>
      <trkpt lat="46.87537" lon="8.49131">
        <ele>1666</ele>
        <time>2021-08-11T11:56:21.014Z</time>
      </trkpt>
      <trkpt lat="46.87536" lon="8.49131">
        <ele>1666</ele>
        <time>2021-08-11T11:56:22.014Z</time>
      </trkpt>
      <trkpt lat="46.87536" lon="8.4913">
        <ele>1666</ele>
        <time>2021-08-11T11:56:23.015Z</time>
      </trkpt>
      <trkpt lat="46.87536" lon="8.49129">
        <ele>1667</ele>
        <time>2021-08-11T11:56:24.014Z</time>
      </trkpt>
      <trkpt lat="46.87536" lon="8.49128">
        <ele>1667</ele>
        <time>2021-08-11T11:56:25.015Z</time>
      </trkpt>
      <trkpt lat="46.87536" lon="8.49126">
        <ele>1667</ele>
        <time>2021-08-11T11:56:26.015Z</time>
      </trkpt>
      <trkpt lat="46.87535" lon="8.49125">
        <ele>1667</ele>
        <time>2021-08-11T11:56:27.014Z</time>
      </trkpt>
      <trkpt lat="46.87534" lon="8.49124">
        <ele>1667</ele>
        <time>2021-08-11T11:56:28.015Z</time>
      </trkpt>
      <trkpt lat="46.87534" lon="8.49122">
        <ele>1667</ele>
        <time>2021-08-11T11:56:29.015Z</time>
      </trkpt>
      <trkpt lat="46.87534" lon="8.49121">
        <ele>1667</ele>
        <time>2021-08-11T11:56:30.014Z</time>
      </trkpt>
      <trkpt lat="46.87533" lon="8.49122">
        <ele>1667</ele>
        <time>2021-08-11T11:56:55.114Z</time>
      </trkpt>
      <trkpt lat="46.8753" lon="8.49124">
        <ele>1667</ele>
        <time>2021-08-11T11:56:56.114Z</time>
      </trkpt>
      <trkpt lat="46.87528" lon="8.49127">
        <ele>1666</ele>
        <time>2021-08-11T11:56:57.113Z</time>
      </trkpt>
      <trkpt lat="46.87527" lon="8.49128">
        <ele>1666</ele>
        <time>2021-08-11T11:56:58.114Z</time>
      </trkpt>
      <trkpt lat="46.87526" lon="8.49128">
        <ele>1666</ele>
        <time>2021-08-11T11:56:59.114Z</time>
      </trkpt>
      <trkpt lat="46.87525" lon="8.49128">
        <ele>1666</ele>
        <time>2021-08-11T11:57:22.265Z</time>
      </trkpt>
      <trkpt lat="46.87525" lon="8.49127">
        <ele>1666</ele>
        <time>2021-08-11T11:57:23.265Z</time>
      </trkpt>
      <trkpt lat="46.87524" lon="8.49127">
        <ele>1666</ele>
        <time>2021-08-11T11:57:24.265Z</time>
      </trkpt>
      <trkpt lat="46.87523" lon="8.49127">
        <ele>1666</ele>
        <time>2021-08-11T11:57:25.266Z</time>
      </trkpt>
      <trkpt lat="46.87523" lon="8.49127">
        <ele>1666</ele>
        <time>2021-08-11T11:57:26.265Z</time>
      </trkpt>
      <trkpt lat="46.87522" lon="8.49127">
        <ele>1666</ele>
        <time>2021-08-11T11:57:27.266Z</time>
      </trkpt>
      <trkpt lat="46.87521" lon="8.49128">
        <ele>1666</ele>
        <time>2021-08-11T11:57:28.266Z</time>
      </trkpt>
      <trkpt lat="46.87521" lon="8.49128">
        <ele>1666</ele>
        <time>2021-08-11T11:57:29.265Z</time>
      </trkpt>
      <trkpt lat="46.87519" lon="8.49128">
        <ele>1666</ele>
        <time>2021-08-11T11:57:30.266Z</time>
      </trkpt>
      <trkpt lat="46.87518" lon="8.49128">
        <ele>1666</ele>
        <time>2021-08-11T11:57:31.266Z</time>
      </trkpt>
      <trkpt lat="46.87518" lon="8.49127">
        <ele>1666</ele>
        <time>2021-08-11T11:57:32.265Z</time>
      </trkpt>
      <trkpt lat="46.87517" lon="8.49127">
        <ele>1667</ele>
        <time>2021-08-11T11:57:33.266Z</time>
      </trkpt>
      <trkpt lat="46.87516" lon="8.49127">
        <ele>1667</ele>
        <time>2021-08-11T11:57:34.266Z</time>
      </trkpt>
      <trkpt lat="46.87515" lon="8.49128">
        <ele>1667</ele>
        <time>2021-08-11T11:57:35.265Z</time>
      </trkpt>
      <trkpt lat="46.87513" lon="8.49128">
        <ele>1667</ele>
        <time>2021-08-11T11:57:36.266Z</time>
      </trkpt>
      <trkpt lat="46.87513" lon="8.49128">
        <ele>1667</ele>
        <time>2021-08-11T11:57:44.365Z</time>
      </trkpt>
      <trkpt lat="46.87512" lon="8.49128">
        <ele>1667</ele>
        <time>2021-08-11T11:57:46.230Z</time>
      </trkpt>
      <trkpt lat="46.87511" lon="8.49128">
        <ele>1667</ele>
        <time>2021-08-11T11:57:47.230Z</time>
      </trkpt>
      <trkpt lat="46.8751" lon="8.49128">
        <ele>1667</ele>
        <time>2021-08-11T11:57:48.230Z</time>
      </trkpt>
      <trkpt lat="46.8751" lon="8.49127">
        <ele>1667</ele>
        <time>2021-08-11T11:57:51.351Z</time>
      </trkpt>
      <trkpt lat="46.87509" lon="8.49126">
        <ele>1667</ele>
        <time>2021-08-11T11:57:52.351Z</time>
      </trkpt>
      <trkpt lat="46.87509" lon="8.49124">
        <ele>1667</ele>
        <time>2021-08-11T11:57:53.352Z</time>
      </trkpt>
      <trkpt lat="46.87509" lon="8.49124">
        <ele>1667</ele>
        <time>2021-08-11T11:57:54.351Z</time>
      </trkpt>
      <trkpt lat="46.87508" lon="8.49124">
        <ele>1667</ele>
        <time>2021-08-11T11:57:55.352Z</time>
      </trkpt>
      <trkpt lat="46.87508" lon="8.49125">
        <ele>1667</ele>
        <time>2021-08-11T11:57:56.352Z</time>
      </trkpt>
      <trkpt lat="46.87507" lon="8.49125">
        <ele>1667</ele>
        <time>2021-08-11T11:57:57.351Z</time>
      </trkpt>
      <trkpt lat="46.87506" lon="8.49125">
        <ele>1668</ele>
        <time>2021-08-11T11:57:58.352Z</time>
      </trkpt>
      <trkpt lat="46.87505" lon="8.49125">
        <ele>1668</ele>
        <time>2021-08-11T11:57:59.352Z</time>
      </trkpt>
      <trkpt lat="46.87505" lon="8.49125">
        <ele>1668</ele>
        <time>2021-08-11T11:58:00.351Z</time>
      </trkpt>
      <trkpt lat="46.87504" lon="8.49125">
        <ele>1668</ele>
        <time>2021-08-11T11:58:03.349Z</time>
      </trkpt>
      <trkpt lat="46.87503" lon="8.49125">
        <ele>1668</ele>
        <time>2021-08-11T11:58:04.349Z</time>
      </trkpt>
      <trkpt lat="46.87503" lon="8.49125">
        <ele>1669</ele>
        <time>2021-08-11T11:58:05.348Z</time>
      </trkpt>
      <trkpt lat="46.87502" lon="8.49126">
        <ele>1669</ele>
        <time>2021-08-11T11:58:06.349Z</time>
      </trkpt>
      <trkpt lat="46.87501" lon="8.49125">
        <ele>1669</ele>
        <time>2021-08-11T11:58:07.349Z</time>
      </trkpt>
      <trkpt lat="46.87501" lon="8.49125">
        <ele>1669</ele>
        <time>2021-08-11T11:58:08.349Z</time>
      </trkpt>
      <trkpt lat="46.87501" lon="8.49124">
        <ele>1669</ele>
        <time>2021-08-11T11:58:09.349Z</time>
      </trkpt>
      <trkpt lat="46.87501" lon="8.49124">
        <ele>1670</ele>
        <time>2021-08-11T11:58:10.349Z</time>
      </trkpt>
      <trkpt lat="46.87501" lon="8.49123">
        <ele>1670</ele>
        <time>2021-08-11T11:58:11.348Z</time>
      </trkpt>
      <trkpt lat="46.875" lon="8.49124">
        <ele>1671</ele>
        <time>2021-08-11T11:58:12.349Z</time>
      </trkpt>
      <trkpt lat="46.875" lon="8.49124">
        <ele>1671</ele>
        <time>2021-08-11T11:58:13.349Z</time>
      </trkpt>
      <trkpt lat="46.87499" lon="8.49125">
        <ele>1671</ele>
        <time>2021-08-11T11:58:14.348Z</time>
      </trkpt>
      <trkpt lat="46.875" lon="8.49124">
        <ele>1672</ele>
        <time>2021-08-11T11:58:15.349Z</time>
      </trkpt>
      <trkpt lat="46.87498" lon="8.49125">
        <ele>1672</ele>
        <time>2021-08-11T11:58:16.348Z</time>
      </trkpt>
      <trkpt lat="46.87498" lon="8.49126">
        <ele>1672</ele>
        <time>2021-08-11T11:58:17.348Z</time>
      </trkpt>
      <trkpt lat="46.87497" lon="8.49126">
        <ele>1672</ele>
        <time>2021-08-11T11:58:18.349Z</time>
      </trkpt>
      <trkpt lat="46.87497" lon="8.49127">
        <ele>1673</ele>
        <time>2021-08-11T11:58:19.349Z</time>
      </trkpt>
      <trkpt lat="46.87496" lon="8.49127">
        <ele>1673</ele>
        <time>2021-08-11T11:58:20.349Z</time>
      </trkpt>
      <trkpt lat="46.87495" lon="8.49127">
        <ele>1673</ele>
        <time>2021-08-11T11:58:26.384Z</time>
      </trkpt>
      <trkpt lat="46.87495" lon="8.49127">
        <ele>1673</ele>
        <time>2021-08-11T11:58:36.393Z</time>
      </trkpt>
      <trkpt lat="46.87494" lon="8.49128">
        <ele>1673</ele>
        <time>2021-08-11T11:58:37.392Z</time>
      </trkpt>
      <trkpt lat="46.87494" lon="8.49128">
        <ele>1674</ele>
        <time>2021-08-11T11:58:38.393Z</time>
      </trkpt>
      <trkpt lat="46.87494" lon="8.49128">
        <ele>1674</ele>
        <time>2021-08-11T11:58:39.393Z</time>
      </trkpt>
      <trkpt lat="46.87493" lon="8.49129">
        <ele>1674</ele>
        <time>2021-08-11T11:58:40.392Z</time>
      </trkpt>
      <trkpt lat="46.87492" lon="8.49128">
        <ele>1674</ele>
        <time>2021-08-11T11:58:41.393Z</time>
      </trkpt>
      <trkpt lat="46.87492" lon="8.49128">
        <ele>1674</ele>
        <time>2021-08-11T11:58:42.393Z</time>
      </trkpt>
      <trkpt lat="46.8749" lon="8.49128">
        <ele>1673</ele>
        <time>2021-08-11T11:58:43.392Z</time>
      </trkpt>
      <trkpt lat="46.87489" lon="8.49128">
        <ele>1673</ele>
        <time>2021-08-11T11:58:44.393Z</time>
      </trkpt>
      <trkpt lat="46.87488" lon="8.49128">
        <ele>1673</ele>
        <time>2021-08-11T11:58:45.393Z</time>
      </trkpt>
      <trkpt lat="46.87487" lon="8.49128">
        <ele>1672</ele>
        <time>2021-08-11T11:58:46.392Z</time>
      </trkpt>
      <trkpt lat="46.87487" lon="8.49129">
        <ele>1672</ele>
        <time>2021-08-11T11:58:47.393Z</time>
      </trkpt>
      <trkpt lat="46.87487" lon="8.49129">
        <ele>1672</ele>
        <time>2021-08-11T11:58:48.393Z</time>
      </trkpt>
      <trkpt lat="46.87486" lon="8.49129">
        <ele>1671</ele>
        <time>2021-08-11T11:58:49.392Z</time>
      </trkpt>
      <trkpt lat="46.87486" lon="8.49128">
        <ele>1671</ele>
        <time>2021-08-11T11:58:50.393Z</time>
      </trkpt>
      <trkpt lat="46.87485" lon="8.49129">
        <ele>1672</ele>
        <time>2021-08-11T11:58:51.393Z</time>
      </trkpt>
      <trkpt lat="46.87485" lon="8.49129">
        <ele>1672</ele>
        <time>2021-08-11T11:58:52.392Z</time>
      </trkpt>
      <trkpt lat="46.87484" lon="8.49128">
        <ele>1672</ele>
        <time>2021-08-11T11:58:53.392Z</time>
      </trkpt>
      <trkpt lat="46.87483" lon="8.49129">
        <ele>1672</ele>
        <time>2021-08-11T11:58:54.392Z</time>
      </trkpt>
      <trkpt lat="46.87483" lon="8.49129">
        <ele>1673</ele>
        <time>2021-08-11T11:58:55.392Z</time>
      </trkpt>
      <trkpt lat="46.87482" lon="8.4913">
        <ele>1673</ele>
        <time>2021-08-11T11:58:56.393Z</time>
      </trkpt>
      <trkpt lat="46.87482" lon="8.49131">
        <ele>1673</ele>
        <time>2021-08-11T11:58:57.392Z</time>
      </trkpt>
      <trkpt lat="46.87482" lon="8.49132">
        <ele>1673</ele>
        <time>2021-08-11T11:58:58.393Z</time>
      </trkpt>
      <trkpt lat="46.87481" lon="8.49132">
        <ele>1674</ele>
        <time>2021-08-11T11:58:59.393Z</time>
      </trkpt>
      <trkpt lat="46.87481" lon="8.49132">
        <ele>1674</ele>
        <time>2021-08-11T11:59:00.392Z</time>
      </trkpt>
      <trkpt lat="46.8748" lon="8.49133">
        <ele>1674</ele>
        <time>2021-08-11T11:59:20.511Z</time>
      </trkpt>
      <trkpt lat="46.87479" lon="8.49134">
        <ele>1674</ele>
        <time>2021-08-11T11:59:21.511Z</time>
      </trkpt>
      <trkpt lat="46.87476" lon="8.49136">
        <ele>1672</ele>
        <time>2021-08-11T11:59:22.511Z</time>
      </trkpt>
      <trkpt lat="46.87478" lon="8.49136">
        <ele>1672</ele>
        <time>2021-08-11T11:59:23.511Z</time>
      </trkpt>
      <trkpt lat="46.87478" lon="8.49136">
        <ele>1673</ele>
        <time>2021-08-11T11:59:24.510Z</time>
      </trkpt>
      <trkpt lat="46.87479" lon="8.49136">
        <ele>1673</ele>
        <time>2021-08-11T11:59:25.511Z</time>
      </trkpt>
      <trkpt lat="46.8748" lon="8.49136">
        <ele>1673</ele>
        <time>2021-08-11T11:59:26.510Z</time>
      </trkpt>
      <trkpt lat="46.8748" lon="8.49137">
        <ele>1674</ele>
        <time>2021-08-11T11:59:27.510Z</time>
      </trkpt>
      <trkpt lat="46.8748" lon="8.49137">
        <ele>1674</ele>
        <time>2021-08-11T11:59:28.510Z</time>
      </trkpt>
      <trkpt lat="46.8748" lon="8.49138">
        <ele>1676</ele>
        <time>2021-08-11T11:59:30.510Z</time>
      </trkpt>
      <trkpt lat="46.87481" lon="8.4914">
        <ele>1677</ele>
        <time>2021-08-11T11:59:38.510Z</time>
      </trkpt>
      <trkpt lat="46.8748" lon="8.4914">
        <ele>1678</ele>
        <time>2021-08-11T11:59:39.510Z</time>
      </trkpt>
      <trkpt lat="46.8748" lon="8.4914">
        <ele>1678</ele>
        <time>2021-08-11T11:59:40.511Z</time>
      </trkpt>
      <trkpt lat="46.87479" lon="8.49139">
        <ele>1679</ele>
        <time>2021-08-11T11:59:41.511Z</time>
      </trkpt>
      <trkpt lat="46.87478" lon="8.49138">
        <ele>1680</ele>
        <time>2021-08-11T11:59:42.510Z</time>
      </trkpt>
      <trkpt lat="46.87477" lon="8.49138">
        <ele>1680</ele>
        <time>2021-08-11T11:59:43.510Z</time>
      </trkpt>
      <trkpt lat="46.87476" lon="8.49138">
        <ele>1681</ele>
        <time>2021-08-11T11:59:44.511Z</time>
      </trkpt>
      <trkpt lat="46.87476" lon="8.49137">
        <ele>1682</ele>
        <time>2021-08-11T11:59:45.511Z</time>
      </trkpt>
      <trkpt lat="46.87476" lon="8.49137">
        <ele>1682</ele>
        <time>2021-08-11T11:59:46.511Z</time>
      </trkpt>
      <trkpt lat="46.87475" lon="8.49137">
        <ele>1683</ele>
        <time>2021-08-11T11:59:47.510Z</time>
      </trkpt>
      <trkpt lat="46.87474" lon="8.49138">
        <ele>1684</ele>
        <time>2021-08-11T11:59:48.512Z</time>
      </trkpt>
      <trkpt lat="46.87473" lon="8.4914">
        <ele>1684</ele>
        <time>2021-08-11T11:59:49.512Z</time>
      </trkpt>
      <trkpt lat="46.87473" lon="8.49141">
        <ele>1684</ele>
        <time>2021-08-11T11:59:50.511Z</time>
      </trkpt>
      <trkpt lat="46.87472" lon="8.49143">
        <ele>1684</ele>
        <time>2021-08-11T11:59:52.597Z</time>
      </trkpt>
      <trkpt lat="46.87472" lon="8.49144">
        <ele>1685</ele>
        <time>2021-08-11T11:59:53.596Z</time>
      </trkpt>
      <trkpt lat="46.87472" lon="8.49145">
        <ele>1685</ele>
        <time>2021-08-11T11:59:54.597Z</time>
      </trkpt>
      <trkpt lat="46.8747" lon="8.49146">
        <ele>1685</ele>
        <time>2021-08-11T11:59:55.597Z</time>
      </trkpt>
      <trkpt lat="46.8747" lon="8.49146">
        <ele>1684</ele>
        <time>2021-08-11T11:59:56.597Z</time>
      </trkpt>
      <trkpt lat="46.87469" lon="8.49145">
        <ele>1684</ele>
        <time>2021-08-11T11:59:57.597Z</time>
      </trkpt>
      <trkpt lat="46.87469" lon="8.49145">
        <ele>1684</ele>
        <time>2021-08-11T11:59:58.597Z</time>
      </trkpt>
      <trkpt lat="46.87469" lon="8.49145">
        <ele>1684</ele>
        <time>2021-08-11T11:59:59.596Z</time>
      </trkpt>
      <trkpt lat="46.87469" lon="8.49146">
        <ele>1684</ele>
        <time>2021-08-11T12:00:00.597Z</time>
      </trkpt>
      <trkpt lat="46.87468" lon="8.49147">
        <ele>1684</ele>
        <time>2021-08-11T12:00:01.597Z</time>
      </trkpt>
      <trkpt lat="46.87468" lon="8.49148">
        <ele>1683</ele>
        <time>2021-08-11T12:00:02.597Z</time>
      </trkpt>
      <trkpt lat="46.87468" lon="8.49148">
        <ele>1683</ele>
        <time>2021-08-11T12:00:03.597Z</time>
      </trkpt>
      <trkpt lat="46.87467" lon="8.49146">
        <ele>1683</ele>
        <time>2021-08-11T12:00:04.597Z</time>
      </trkpt>
      <trkpt lat="46.87467" lon="8.49146">
        <ele>1683</ele>
        <time>2021-08-11T12:00:05.596Z</time>
      </trkpt>
      <trkpt lat="46.87467" lon="8.49145">
        <ele>1683</ele>
        <time>2021-08-11T12:00:06.596Z</time>
      </trkpt>
      <trkpt lat="46.87468" lon="8.49142">
        <ele>1684</ele>
        <time>2021-08-11T12:00:07.597Z</time>
      </trkpt>
      <trkpt lat="46.87468" lon="8.4914">
        <ele>1684</ele>
        <time>2021-08-11T12:00:08.597Z</time>
      </trkpt>
      <trkpt lat="46.8747" lon="8.49137">
        <ele>1684</ele>
        <time>2021-08-11T12:00:09.597Z</time>
      </trkpt>
      <trkpt lat="46.8747" lon="8.49136">
        <ele>1684</ele>
        <time>2021-08-11T12:00:14.776Z</time>
      </trkpt>
      <trkpt lat="46.87471" lon="8.49135">
        <ele>1685</ele>
        <time>2021-08-11T12:00:15.776Z</time>
      </trkpt>
      <trkpt lat="46.87471" lon="8.49134">
        <ele>1685</ele>
        <time>2021-08-11T12:00:16.776Z</time>
      </trkpt>
      <trkpt lat="46.87471" lon="8.49134">
        <ele>1686</ele>
        <time>2021-08-11T12:00:22.886Z</time>
      </trkpt>
      <trkpt lat="46.8747" lon="8.49136">
        <ele>1686</ele>
        <time>2021-08-11T12:00:23.886Z</time>
      </trkpt>
      <trkpt lat="46.87469" lon="8.49137">
        <ele>1685</ele>
        <time>2021-08-11T12:00:24.886Z</time>
      </trkpt>
      <trkpt lat="46.87469" lon="8.49137">
        <ele>1685</ele>
        <time>2021-08-11T12:00:25.886Z</time>
      </trkpt>
      <trkpt lat="46.87467" lon="8.49138">
        <ele>1685</ele>
        <time>2021-08-11T12:00:27.972Z</time>
      </trkpt>
      <trkpt lat="46.87466" lon="8.4914">
        <ele>1685</ele>
        <time>2021-08-11T12:00:28.972Z</time>
      </trkpt>
      <trkpt lat="46.87465" lon="8.49141">
        <ele>1685</ele>
        <time>2021-08-11T12:00:29.973Z</time>
      </trkpt>
      <trkpt lat="46.87463" lon="8.49142">
        <ele>1684</ele>
        <time>2021-08-11T12:00:30.973Z</time>
      </trkpt>
      <trkpt lat="46.87462" lon="8.49143">
        <ele>1684</ele>
        <time>2021-08-11T12:00:31.973Z</time>
      </trkpt>
      <trkpt lat="46.87461" lon="8.49145">
        <ele>1684</ele>
        <time>2021-08-11T12:00:34.099Z</time>
      </trkpt>
      <trkpt lat="46.87461" lon="8.49146">
        <ele>1684</ele>
        <time>2021-08-11T12:00:35.098Z</time>
      </trkpt>
      <trkpt lat="46.8746" lon="8.49145">
        <ele>1684</ele>
        <time>2021-08-11T12:00:36.099Z</time>
      </trkpt>
      <trkpt lat="46.87459" lon="8.49144">
        <ele>1684</ele>
        <time>2021-08-11T12:00:58.133Z</time>
      </trkpt>
      <trkpt lat="46.87458" lon="8.49144">
        <ele>1684</ele>
        <time>2021-08-11T12:00:59.133Z</time>
      </trkpt>
      <trkpt lat="46.87457" lon="8.49143">
        <ele>1684</ele>
        <time>2021-08-11T12:01:00.133Z</time>
      </trkpt>
      <trkpt lat="46.87455" lon="8.49142">
        <ele>1684</ele>
        <time>2021-08-11T12:01:05.987Z</time>
      </trkpt>
      <trkpt lat="46.87454" lon="8.4914">
        <ele>1683</ele>
        <time>2021-08-11T12:01:06.988Z</time>
      </trkpt>
      <trkpt lat="46.87453" lon="8.49139">
        <ele>1683</ele>
        <time>2021-08-11T12:01:20.109Z</time>
      </trkpt>
      <trkpt lat="46.87452" lon="8.49138">
        <ele>1683</ele>
        <time>2021-08-11T12:01:21.109Z</time>
      </trkpt>
      <trkpt lat="46.87452" lon="8.49138">
        <ele>1682</ele>
        <time>2021-08-11T12:01:22.108Z</time>
      </trkpt>
      <trkpt lat="46.87452" lon="8.49138">
        <ele>1682</ele>
        <time>2021-08-11T12:01:23.109Z</time>
      </trkpt>
      <trkpt lat="46.87453" lon="8.49138">
        <ele>1682</ele>
        <time>2021-08-11T12:01:24.109Z</time>
      </trkpt>
      <trkpt lat="46.87453" lon="8.49138">
        <ele>1683</ele>
        <time>2021-08-11T12:01:25.109Z</time>
      </trkpt>
      <trkpt lat="46.87454" lon="8.49137">
        <ele>1683</ele>
        <time>2021-08-11T12:01:30.235Z</time>
      </trkpt>
      <trkpt lat="46.87455" lon="8.49137">
        <ele>1683</ele>
        <time>2021-08-11T12:01:39.136Z</time>
      </trkpt>
      <trkpt lat="46.87455" lon="8.49136">
        <ele>1683</ele>
        <time>2021-08-11T12:01:40.135Z</time>
      </trkpt>
      <trkpt lat="46.87456" lon="8.49135">
        <ele>1684</ele>
        <time>2021-08-11T12:01:41.136Z</time>
      </trkpt>
      <trkpt lat="46.87456" lon="8.49135">
        <ele>1684</ele>
        <time>2021-08-11T12:01:49.255Z</time>
      </trkpt>
      <trkpt lat="46.87457" lon="8.49134">
        <ele>1684</ele>
        <time>2021-08-11T12:01:50.254Z</time>
      </trkpt>
      <trkpt lat="46.87457" lon="8.49134">
        <ele>1684</ele>
        <time>2021-08-11T12:01:51.255Z</time>
      </trkpt>
      <trkpt lat="46.87457" lon="8.49134">
        <ele>1684</ele>
        <time>2021-08-11T12:01:52.254Z</time>
      </trkpt>
      <trkpt lat="46.87459" lon="8.49131">
        <ele>1685</ele>
        <time>2021-08-11T12:02:23.378Z</time>
      </trkpt>
      <trkpt lat="46.87461" lon="8.49129">
        <ele>1685</ele>
        <time>2021-08-11T12:02:24.378Z</time>
      </trkpt>
      <trkpt lat="46.87461" lon="8.49128">
        <ele>1685</ele>
        <time>2021-08-11T12:02:25.378Z</time>
      </trkpt>
      <trkpt lat="46.87461" lon="8.49128">
        <ele>1685</ele>
        <time>2021-08-11T12:02:31.484Z</time>
      </trkpt>
      <trkpt lat="46.87462" lon="8.49128">
        <ele>1686</ele>
        <time>2021-08-11T12:02:32.484Z</time>
      </trkpt>
      <trkpt lat="46.87463" lon="8.49127">
        <ele>1686</ele>
        <time>2021-08-11T12:02:33.484Z</time>
      </trkpt>
      <trkpt lat="46.87463" lon="8.49127">
        <ele>1686</ele>
        <time>2021-08-11T12:02:34.484Z</time>
      </trkpt>
      <trkpt lat="46.87463" lon="8.49127">
        <ele>1686</ele>
        <time>2021-08-11T12:02:35.483Z</time>
      </trkpt>
      <trkpt lat="46.87463" lon="8.49128">
        <ele>1686</ele>
        <time>2021-08-11T12:02:51.486Z</time>
      </trkpt>
      <trkpt lat="46.87463" lon="8.49127">
        <ele>1686</ele>
        <time>2021-08-11T12:02:52.487Z</time>
      </trkpt>
      <trkpt lat="46.87463" lon="8.49126">
        <ele>1686</ele>
        <time>2021-08-11T12:02:53.487Z</time>
      </trkpt>
      <trkpt lat="46.87463" lon="8.49126">
        <ele>1686</ele>
        <time>2021-08-11T12:02:54.486Z</time>
      </trkpt>
      <trkpt lat="46.87462" lon="8.49125">
        <ele>1686</ele>
        <time>2021-08-11T12:02:55.487Z</time>
      </trkpt>
      <trkpt lat="46.87463" lon="8.49126">
        <ele>1686</ele>
        <time>2021-08-11T12:02:56.487Z</time>
      </trkpt>
      <trkpt lat="46.87463" lon="8.49125">
        <ele>1685</ele>
        <time>2021-08-11T12:02:57.487Z</time>
      </trkpt>
      <trkpt lat="46.87463" lon="8.49125">
        <ele>1685</ele>
        <time>2021-08-11T12:03:01.650Z</time>
      </trkpt>
      <trkpt lat="46.87462" lon="8.49127">
        <ele>1685</ele>
        <time>2021-08-11T12:03:02.649Z</time>
      </trkpt>
      <trkpt lat="46.87461" lon="8.49127">
        <ele>1685</ele>
        <time>2021-08-11T12:03:03.650Z</time>
      </trkpt>
      <trkpt lat="46.87461" lon="8.49128">
        <ele>1685</ele>
        <time>2021-08-11T12:03:26.731Z</time>
      </trkpt>
      <trkpt lat="46.87462" lon="8.49129">
        <ele>1685</ele>
        <time>2021-08-11T12:03:27.731Z</time>
      </trkpt>
      <trkpt lat="46.87462" lon="8.4913">
        <ele>1686</ele>
        <time>2021-08-11T12:03:28.731Z</time>
      </trkpt>
      <trkpt lat="46.87462" lon="8.4913">
        <ele>1687</ele>
        <time>2021-08-11T12:03:29.731Z</time>
      </trkpt>
      <trkpt lat="46.87462" lon="8.4913">
        <ele>1687</ele>
        <time>2021-08-11T12:03:30.730Z</time>
      </trkpt>
      <trkpt lat="46.8746" lon="8.49129">
        <ele>1685</ele>
        <time>2021-08-11T12:03:31.732Z</time>
      </trkpt>
      <trkpt lat="46.8746" lon="8.49128">
        <ele>1684</ele>
        <time>2021-08-11T12:03:32.732Z</time>
      </trkpt>
      <trkpt lat="46.8746" lon="8.49129">
        <ele>1683</ele>
        <time>2021-08-11T12:03:35.843Z</time>
      </trkpt>
      <trkpt lat="46.8746" lon="8.49129">
        <ele>1683</ele>
        <time>2021-08-11T12:03:36.843Z</time>
      </trkpt>
      <trkpt lat="46.87459" lon="8.49129">
        <ele>1682</ele>
        <time>2021-08-11T12:03:37.843Z</time>
      </trkpt>
      <trkpt lat="46.87459" lon="8.49129">
        <ele>1681</ele>
        <time>2021-08-11T12:03:38.843Z</time>
      </trkpt>
      <trkpt lat="46.87459" lon="8.49128">
        <ele>1680</ele>
        <time>2021-08-11T12:03:39.844Z</time>
      </trkpt>
      <trkpt lat="46.87458" lon="8.49128">
        <ele>1680</ele>
        <time>2021-08-11T12:03:40.844Z</time>
      </trkpt>
      <trkpt lat="46.87458" lon="8.49128">
        <ele>1680</ele>
        <time>2021-08-11T12:03:41.843Z</time>
      </trkpt>
      <trkpt lat="46.87458" lon="8.49128">
        <ele>1679</ele>
        <time>2021-08-11T12:03:51.983Z</time>
      </trkpt>
      <trkpt lat="46.87458" lon="8.49128">
        <ele>1679</ele>
        <time>2021-08-11T12:03:52.984Z</time>
      </trkpt>
      <trkpt lat="46.87458" lon="8.49128">
        <ele>1679</ele>
        <time>2021-08-11T12:03:53.983Z</time>
      </trkpt>
      <trkpt lat="46.87457" lon="8.49128">
        <ele>1684</ele>
        <time>2021-08-11T12:03:54.985Z</time>
      </trkpt>
      <trkpt lat="46.87455" lon="8.49131">
        <ele>1685</ele>
        <time>2021-08-11T12:03:55.984Z</time>
      </trkpt>
      <trkpt lat="46.87455" lon="8.49132">
        <ele>1686</ele>
        <time>2021-08-11T12:03:56.985Z</time>
      </trkpt>
      <trkpt lat="46.87454" lon="8.49133">
        <ele>1686</ele>
        <time>2021-08-11T12:03:57.984Z</time>
      </trkpt>
      <trkpt lat="46.87454" lon="8.49133">
        <ele>1686</ele>
        <time>2021-08-11T12:03:58.985Z</time>
      </trkpt>
      <trkpt lat="46.87455" lon="8.49134">
        <ele>1686</ele>
        <time>2021-08-11T12:03:59.984Z</time>
      </trkpt>
      <trkpt lat="46.87455" lon="8.49134">
        <ele>1687</ele>
        <time>2021-08-11T12:04:00.984Z</time>
      </trkpt>
      <trkpt lat="46.87454" lon="8.49135">
        <ele>1687</ele>
        <time>2021-08-11T12:04:01.985Z</time>
      </trkpt>
      <trkpt lat="46.87454" lon="8.49135">
        <ele>1686</ele>
        <time>2021-08-11T12:04:04.136Z</time>
      </trkpt>
      <trkpt lat="46.87453" lon="8.49134">
        <ele>1685</ele>
        <time>2021-08-11T12:04:05.135Z</time>
      </trkpt>
      <trkpt lat="46.87452" lon="8.49133">
        <ele>1684</ele>
        <time>2021-08-11T12:04:06.135Z</time>
      </trkpt>
      <trkpt lat="46.87451" lon="8.49133">
        <ele>1683</ele>
        <time>2021-08-11T12:04:07.136Z</time>
      </trkpt>
      <trkpt lat="46.87451" lon="8.49133">
        <ele>1682</ele>
        <time>2021-08-11T12:04:17.232Z</time>
      </trkpt>
      <trkpt lat="46.87451" lon="8.49133">
        <ele>1681</ele>
        <time>2021-08-11T12:04:18.233Z</time>
      </trkpt>
      <trkpt lat="46.87451" lon="8.49131">
        <ele>1678</ele>
        <time>2021-08-11T12:04:19.234Z</time>
      </trkpt>
      <trkpt lat="46.87452" lon="8.49131">
        <ele>1678</ele>
        <time>2021-08-11T12:04:20.235Z</time>
      </trkpt>
      <trkpt lat="46.87452" lon="8.49131">
        <ele>1678</ele>
        <time>2021-08-11T12:04:21.234Z</time>
      </trkpt>
      <trkpt lat="46.87452" lon="8.4913">
        <ele>1677</ele>
        <time>2021-08-11T12:04:22.236Z</time>
      </trkpt>
      <trkpt lat="46.8745" lon="8.49131">
        <ele>1679</ele>
        <time>2021-08-11T12:04:23.235Z</time>
      </trkpt>
      <trkpt lat="46.8745" lon="8.49131">
        <ele>1679</ele>
        <time>2021-08-11T12:04:24.235Z</time>
      </trkpt>
      <trkpt lat="46.87451" lon="8.49131">
        <ele>1680</ele>
        <time>2021-08-11T12:04:25.235Z</time>
      </trkpt>
      <trkpt lat="46.87451" lon="8.4913">
        <ele>1681</ele>
        <time>2021-08-11T12:04:26.235Z</time>
      </trkpt>
      <trkpt lat="46.87453" lon="8.49128">
        <ele>1681</ele>
        <time>2021-08-11T12:04:27.235Z</time>
      </trkpt>
      <trkpt lat="46.87453" lon="8.49128">
        <ele>1680</ele>
        <time>2021-08-11T12:04:28.236Z</time>
      </trkpt>
      <trkpt lat="46.87453" lon="8.49127">
        <ele>1680</ele>
        <time>2021-08-11T12:04:29.235Z</time>
      </trkpt>
      <trkpt lat="46.87452" lon="8.49127">
        <ele>1680</ele>
        <time>2021-08-11T12:04:30.236Z</time>
      </trkpt>
      <trkpt lat="46.87452" lon="8.49125">
        <ele>1676</ele>
        <time>2021-08-11T12:04:33.346Z</time>
      </trkpt>
      <trkpt lat="46.87452" lon="8.49126">
        <ele>1676</ele>
        <time>2021-08-11T12:04:34.347Z</time>
      </trkpt>
      <trkpt lat="46.87451" lon="8.49126">
        <ele>1675</ele>
        <time>2021-08-11T12:04:35.347Z</time>
      </trkpt>
      <trkpt lat="46.87451" lon="8.49126">
        <ele>1675</ele>
        <time>2021-08-11T12:04:36.347Z</time>
      </trkpt>
      <trkpt lat="46.8745" lon="8.49126">
        <ele>1674</ele>
        <time>2021-08-11T12:04:37.347Z</time>
      </trkpt>
      <trkpt lat="46.87451" lon="8.49128">
        <ele>1675</ele>
        <time>2021-08-11T12:04:38.348Z</time>
      </trkpt>
      <trkpt lat="46.87451" lon="8.49128">
        <ele>1675</ele>
        <time>2021-08-11T12:04:39.348Z</time>
      </trkpt>
      <trkpt lat="46.87451" lon="8.49129">
        <ele>1675</ele>
        <time>2021-08-11T12:04:40.347Z</time>
      </trkpt>
      <trkpt lat="46.87451" lon="8.49129">
        <ele>1675</ele>
        <time>2021-08-11T12:04:41.348Z</time>
      </trkpt>
      <trkpt lat="46.87452" lon="8.49129">
        <ele>1676</ele>
        <time>2021-08-11T12:04:46.485Z</time>
      </trkpt>
      <trkpt lat="46.87457" lon="8.49128">
        <ele>1688</ele>
        <time>2021-08-11T12:04:47.487Z</time>
      </trkpt>
      <trkpt lat="46.87458" lon="8.49128">
        <ele>1688</ele>
        <time>2021-08-11T12:04:48.486Z</time>
      </trkpt>
      <trkpt lat="46.87458" lon="8.49128">
        <ele>1689</ele>
        <time>2021-08-11T12:04:49.486Z</time>
      </trkpt>
      <trkpt lat="46.87462" lon="8.49127">
        <ele>1690</ele>
        <time>2021-08-11T12:04:50.487Z</time>
      </trkpt>
      <trkpt lat="46.87463" lon="8.49125">
        <ele>1690</ele>
        <time>2021-08-11T12:04:51.487Z</time>
      </trkpt>
      <trkpt lat="46.87463" lon="8.49124">
        <ele>1690</ele>
        <time>2021-08-11T12:04:52.487Z</time>
      </trkpt>
      <trkpt lat="46.87463" lon="8.49123">
        <ele>1690</ele>
        <time>2021-08-11T12:04:53.487Z</time>
      </trkpt>
      <trkpt lat="46.87464" lon="8.49123">
        <ele>1690</ele>
        <time>2021-08-11T12:04:54.488Z</time>
      </trkpt>
      <trkpt lat="46.87466" lon="8.49123">
        <ele>1690</ele>
        <time>2021-08-11T12:04:55.488Z</time>
      </trkpt>
      <trkpt lat="46.87467" lon="8.49123">
        <ele>1690</ele>
        <time>2021-08-11T12:04:56.488Z</time>
      </trkpt>
      <trkpt lat="46.87467" lon="8.49122">
        <ele>1691</ele>
        <time>2021-08-11T12:04:57.487Z</time>
      </trkpt>
      <trkpt lat="46.87468" lon="8.49121">
        <ele>1691</ele>
        <time>2021-08-11T12:05:02.612Z</time>
      </trkpt>
      <trkpt lat="46.87468" lon="8.49121">
        <ele>1692</ele>
        <time>2021-08-11T12:05:03.612Z</time>
      </trkpt>
      <trkpt lat="46.87469" lon="8.4912">
        <ele>1692</ele>
        <time>2021-08-11T12:05:04.612Z</time>
      </trkpt>
      <trkpt lat="46.87469" lon="8.4912">
        <ele>1692</ele>
        <time>2021-08-11T12:05:08.735Z</time>
      </trkpt>
      <trkpt lat="46.87469" lon="8.49119">
        <ele>1692</ele>
        <time>2021-08-11T12:05:09.735Z</time>
      </trkpt>
      <trkpt lat="46.8747" lon="8.49119">
        <ele>1692</ele>
        <time>2021-08-11T12:05:10.736Z</time>
      </trkpt>
      <trkpt lat="46.87471" lon="8.49118">
        <ele>1693</ele>
        <time>2021-08-11T12:05:11.736Z</time>
      </trkpt>
      <trkpt lat="46.87471" lon="8.49118">
        <ele>1693</ele>
        <time>2021-08-11T12:05:12.735Z</time>
      </trkpt>
      <trkpt lat="46.87472" lon="8.49117">
        <ele>1694</ele>
        <time>2021-08-11T12:05:13.736Z</time>
      </trkpt>
      <trkpt lat="46.87472" lon="8.49116">
        <ele>1694</ele>
        <time>2021-08-11T12:05:14.735Z</time>
      </trkpt>
      <trkpt lat="46.87472" lon="8.49116">
        <ele>1694</ele>
        <time>2021-08-11T12:05:15.736Z</time>
      </trkpt>
      <trkpt lat="46.87473" lon="8.49115">
        <ele>1694</ele>
        <time>2021-08-11T12:05:16.735Z</time>
      </trkpt>
      <trkpt lat="46.87473" lon="8.49115">
        <ele>1693</ele>
        <time>2021-08-11T12:05:20.881Z</time>
      </trkpt>
      <trkpt lat="46.87472" lon="8.49114">
        <ele>1693</ele>
        <time>2021-08-11T12:05:21.881Z</time>
      </trkpt>
      <trkpt lat="46.87472" lon="8.49113">
        <ele>1693</ele>
        <time>2021-08-11T12:05:22.880Z</time>
      </trkpt>
      <trkpt lat="46.87473" lon="8.49113">
        <ele>1693</ele>
        <time>2021-08-11T12:05:23.880Z</time>
      </trkpt>
      <trkpt lat="46.87474" lon="8.49112">
        <ele>1693</ele>
        <time>2021-08-11T12:05:24.881Z</time>
      </trkpt>
      <trkpt lat="46.87474" lon="8.49112">
        <ele>1693</ele>
        <time>2021-08-11T12:05:25.881Z</time>
      </trkpt>
      <trkpt lat="46.87474" lon="8.49111">
        <ele>1694</ele>
        <time>2021-08-11T12:05:26.881Z</time>
      </trkpt>
      <trkpt lat="46.87475" lon="8.4911">
        <ele>1694</ele>
        <time>2021-08-11T12:05:27.880Z</time>
      </trkpt>
      <trkpt lat="46.87476" lon="8.49109">
        <ele>1695</ele>
        <time>2021-08-11T12:05:28.880Z</time>
      </trkpt>
      <trkpt lat="46.87477" lon="8.49109">
        <ele>1695</ele>
        <time>2021-08-11T12:05:29.881Z</time>
      </trkpt>
      <trkpt lat="46.87478" lon="8.49108">
        <ele>1696</ele>
        <time>2021-08-11T12:05:30.881Z</time>
      </trkpt>
      <trkpt lat="46.87479" lon="8.49107">
        <ele>1697</ele>
        <time>2021-08-11T12:05:31.881Z</time>
      </trkpt>
      <trkpt lat="46.87479" lon="8.49107">
        <ele>1697</ele>
        <time>2021-08-11T12:05:32.880Z</time>
      </trkpt>
      <trkpt lat="46.8748" lon="8.49106">
        <ele>1698</ele>
        <time>2021-08-11T12:05:33.880Z</time>
      </trkpt>
      <trkpt lat="46.87481" lon="8.49105">
        <ele>1698</ele>
        <time>2021-08-11T12:05:34.881Z</time>
      </trkpt>
      <trkpt lat="46.87482" lon="8.49104">
        <ele>1699</ele>
        <time>2021-08-11T12:05:35.880Z</time>
      </trkpt>
      <trkpt lat="46.87482" lon="8.49103">
        <ele>1699</ele>
        <time>2021-08-11T12:05:36.881Z</time>
      </trkpt>
      <trkpt lat="46.87482" lon="8.49102">
        <ele>1699</ele>
        <time>2021-08-11T12:05:37.881Z</time>
      </trkpt>
      <trkpt lat="46.87482" lon="8.49102">
        <ele>1699</ele>
        <time>2021-08-11T12:05:38.880Z</time>
      </trkpt>
      <trkpt lat="46.87482" lon="8.49101">
        <ele>1699</ele>
        <time>2021-08-11T12:05:39.881Z</time>
      </trkpt>
      <trkpt lat="46.87482" lon="8.49101">
        <ele>1698</ele>
        <time>2021-08-11T12:05:40.881Z</time>
      </trkpt>
      <trkpt lat="46.87481" lon="8.491">
        <ele>1698</ele>
        <time>2021-08-11T12:05:41.881Z</time>
      </trkpt>
      <trkpt lat="46.87481" lon="8.49099">
        <ele>1698</ele>
        <time>2021-08-11T12:05:54.990Z</time>
      </trkpt>
      <trkpt lat="46.8748" lon="8.49098">
        <ele>1697</ele>
        <time>2021-08-11T12:05:55.989Z</time>
      </trkpt>
      <trkpt lat="46.8748" lon="8.49098">
        <ele>1696</ele>
        <time>2021-08-11T12:05:56.990Z</time>
      </trkpt>
      <trkpt lat="46.87479" lon="8.49097">
        <ele>1696</ele>
        <time>2021-08-11T12:05:57.989Z</time>
      </trkpt>
      <trkpt lat="46.8748" lon="8.49097">
        <ele>1695</ele>
        <time>2021-08-11T12:05:58.990Z</time>
      </trkpt>
      <trkpt lat="46.87481" lon="8.49097">
        <ele>1695</ele>
        <time>2021-08-11T12:05:59.990Z</time>
      </trkpt>
      <trkpt lat="46.87481" lon="8.49096">
        <ele>1695</ele>
        <time>2021-08-11T12:06:00.990Z</time>
      </trkpt>
      <trkpt lat="46.87482" lon="8.49096">
        <ele>1695</ele>
        <time>2021-08-11T12:06:01.990Z</time>
      </trkpt>
      <trkpt lat="46.87483" lon="8.49095">
        <ele>1695</ele>
        <time>2021-08-11T12:06:02.990Z</time>
      </trkpt>
      <trkpt lat="46.87483" lon="8.49095">
        <ele>1694</ele>
        <time>2021-08-11T12:06:03.990Z</time>
      </trkpt>
      <trkpt lat="46.87483" lon="8.49094">
        <ele>1694</ele>
        <time>2021-08-11T12:06:04.989Z</time>
      </trkpt>
      <trkpt lat="46.87483" lon="8.49094">
        <ele>1693</ele>
        <time>2021-08-11T12:06:05.990Z</time>
      </trkpt>
      <trkpt lat="46.87482" lon="8.49093">
        <ele>1693</ele>
        <time>2021-08-11T12:06:06.989Z</time>
      </trkpt>
      <trkpt lat="46.87482" lon="8.49093">
        <ele>1693</ele>
        <time>2021-08-11T12:06:40.010Z</time>
      </trkpt>
      <trkpt lat="46.87482" lon="8.49093">
        <ele>1693</ele>
        <time>2021-08-11T12:06:44.864Z</time>
      </trkpt>
      <trkpt lat="46.87482" lon="8.49092">
        <ele>1693</ele>
        <time>2021-08-11T12:06:45.863Z</time>
      </trkpt>
      <trkpt lat="46.87482" lon="8.49091">
        <ele>1692</ele>
        <time>2021-08-11T12:06:53.614Z</time>
      </trkpt>
      <trkpt lat="46.87482" lon="8.49091">
        <ele>1692</ele>
        <time>2021-08-11T12:06:54.613Z</time>
      </trkpt>
      <trkpt lat="46.87482" lon="8.4909">
        <ele>1692</ele>
        <time>2021-08-11T12:06:55.614Z</time>
      </trkpt>
      <trkpt lat="46.87482" lon="8.49089">
        <ele>1692</ele>
        <time>2021-08-11T12:06:56.613Z</time>
      </trkpt>
      <trkpt lat="46.87483" lon="8.49089">
        <ele>1692</ele>
        <time>2021-08-11T12:06:57.613Z</time>
      </trkpt>
      <trkpt lat="46.87483" lon="8.49089">
        <ele>1693</ele>
        <time>2021-08-11T12:06:58.613Z</time>
      </trkpt>
      <trkpt lat="46.87484" lon="8.49089">
        <ele>1693</ele>
        <time>2021-08-11T12:07:05.738Z</time>
      </trkpt>
      <trkpt lat="46.87484" lon="8.49088">
        <ele>1694</ele>
        <time>2021-08-11T12:07:06.738Z</time>
      </trkpt>
      <trkpt lat="46.87484" lon="8.49087">
        <ele>1694</ele>
        <time>2021-08-11T12:07:07.738Z</time>
      </trkpt>
      <trkpt lat="46.87485" lon="8.49086">
        <ele>1695</ele>
        <time>2021-08-11T12:07:14.870Z</time>
      </trkpt>
      <trkpt lat="46.87485" lon="8.49085">
        <ele>1696</ele>
        <time>2021-08-11T12:07:15.871Z</time>
      </trkpt>
      <trkpt lat="46.87485" lon="8.49085">
        <ele>1696</ele>
        <time>2021-08-11T12:07:18.599Z</time>
      </trkpt>
      <trkpt lat="46.87486" lon="8.49085">
        <ele>1697</ele>
        <time>2021-08-11T12:07:19.598Z</time>
      </trkpt>
      <trkpt lat="46.87486" lon="8.49085">
        <ele>1697</ele>
        <time>2021-08-11T12:07:20.599Z</time>
      </trkpt>
      <trkpt lat="46.87486" lon="8.49085">
        <ele>1697</ele>
        <time>2021-08-11T12:07:21.598Z</time>
      </trkpt>
      <trkpt lat="46.87487" lon="8.49084">
        <ele>1698</ele>
        <time>2021-08-11T12:07:22.599Z</time>
      </trkpt>
      <trkpt lat="46.87487" lon="8.49084">
        <ele>1698</ele>
        <time>2021-08-11T12:07:23.599Z</time>
      </trkpt>
      <trkpt lat="46.87487" lon="8.49084">
        <ele>1698</ele>
        <time>2021-08-11T12:07:25.613Z</time>
      </trkpt>
      <trkpt lat="46.87488" lon="8.49083">
        <ele>1698</ele>
        <time>2021-08-11T12:07:26.612Z</time>
      </trkpt>
      <trkpt lat="46.87488" lon="8.49083">
        <ele>1698</ele>
        <time>2021-08-11T12:07:27.613Z</time>
      </trkpt>
      <trkpt lat="46.87488" lon="8.49082">
        <ele>1698</ele>
        <time>2021-08-11T12:07:28.613Z</time>
      </trkpt>
      <trkpt lat="46.87489" lon="8.49082">
        <ele>1698</ele>
        <time>2021-08-11T12:07:29.613Z</time>
      </trkpt>
      <trkpt lat="46.8749" lon="8.49081">
        <ele>1698</ele>
        <time>2021-08-11T12:07:30.613Z</time>
      </trkpt>
      <trkpt lat="46.8749" lon="8.49081">
        <ele>1698</ele>
        <time>2021-08-11T12:07:31.612Z</time>
      </trkpt>
      <trkpt lat="46.87491" lon="8.49081">
        <ele>1698</ele>
        <time>2021-08-11T12:07:32.613Z</time>
      </trkpt>
      <trkpt lat="46.87492" lon="8.4908">
        <ele>1698</ele>
        <time>2021-08-11T12:07:33.613Z</time>
      </trkpt>
      <trkpt lat="46.87492" lon="8.49079">
        <ele>1698</ele>
        <time>2021-08-11T12:07:34.612Z</time>
      </trkpt>
      <trkpt lat="46.87493" lon="8.49078">
        <ele>1698</ele>
        <time>2021-08-11T12:07:35.612Z</time>
      </trkpt>
      <trkpt lat="46.87494" lon="8.49078">
        <ele>1698</ele>
        <time>2021-08-11T12:07:36.612Z</time>
      </trkpt>
      <trkpt lat="46.87495" lon="8.49077">
        <ele>1699</ele>
        <time>2021-08-11T12:07:38.738Z</time>
      </trkpt>
      <trkpt lat="46.87496" lon="8.49077">
        <ele>1699</ele>
        <time>2021-08-11T12:07:39.739Z</time>
      </trkpt>
      <trkpt lat="46.87498" lon="8.49077">
        <ele>1700</ele>
        <time>2021-08-11T12:07:40.739Z</time>
      </trkpt>
      <trkpt lat="46.87498" lon="8.49076">
        <ele>1700</ele>
        <time>2021-08-11T12:07:41.739Z</time>
      </trkpt>
      <trkpt lat="46.87498" lon="8.49075">
        <ele>1700</ele>
        <time>2021-08-11T12:07:42.738Z</time>
      </trkpt>
      <trkpt lat="46.87498" lon="8.49074">
        <ele>1700</ele>
        <time>2021-08-11T12:07:43.739Z</time>
      </trkpt>
      <trkpt lat="46.87497" lon="8.49072">
        <ele>1701</ele>
        <time>2021-08-11T12:07:44.739Z</time>
      </trkpt>
      <trkpt lat="46.87497" lon="8.4907">
        <ele>1701</ele>
        <time>2021-08-11T12:07:45.739Z</time>
      </trkpt>
      <trkpt lat="46.87497" lon="8.4907">
        <ele>1701</ele>
        <time>2021-08-11T12:07:46.739Z</time>
      </trkpt>
      <trkpt lat="46.87497" lon="8.49068">
        <ele>1702</ele>
        <time>2021-08-11T12:07:47.738Z</time>
      </trkpt>
      <trkpt lat="46.87497" lon="8.49067">
        <ele>1702</ele>
        <time>2021-08-11T12:07:48.739Z</time>
      </trkpt>
      <trkpt lat="46.87497" lon="8.49067">
        <ele>1702</ele>
        <time>2021-08-11T12:07:49.739Z</time>
      </trkpt>
      <trkpt lat="46.87498" lon="8.49066">
        <ele>1702</ele>
        <time>2021-08-11T12:07:50.738Z</time>
      </trkpt>
      <trkpt lat="46.87498" lon="8.49066">
        <ele>1703</ele>
        <time>2021-08-11T12:07:51.739Z</time>
      </trkpt>
      <trkpt lat="46.87499" lon="8.49065">
        <ele>1703</ele>
        <time>2021-08-11T12:07:52.739Z</time>
      </trkpt>
      <trkpt lat="46.87499" lon="8.49065">
        <ele>1703</ele>
        <time>2021-08-11T12:07:53.739Z</time>
      </trkpt>
      <trkpt lat="46.87499" lon="8.49064">
        <ele>1703</ele>
        <time>2021-08-11T12:07:54.739Z</time>
      </trkpt>
      <trkpt lat="46.875" lon="8.49064">
        <ele>1704</ele>
        <time>2021-08-11T12:07:55.739Z</time>
      </trkpt>
      <trkpt lat="46.875" lon="8.49063">
        <ele>1704</ele>
        <time>2021-08-11T12:07:56.739Z</time>
      </trkpt>
      <trkpt lat="46.87501" lon="8.49063">
        <ele>1705</ele>
        <time>2021-08-11T12:08:02.857Z</time>
      </trkpt>
      <trkpt lat="46.87501" lon="8.49062">
        <ele>1705</ele>
        <time>2021-08-11T12:08:03.856Z</time>
      </trkpt>
      <trkpt lat="46.87502" lon="8.49061">
        <ele>1706</ele>
        <time>2021-08-11T12:08:04.857Z</time>
      </trkpt>
      <trkpt lat="46.87502" lon="8.4906">
        <ele>1706</ele>
        <time>2021-08-11T12:08:05.857Z</time>
      </trkpt>
      <trkpt lat="46.87502" lon="8.49059">
        <ele>1707</ele>
        <time>2021-08-11T12:08:06.857Z</time>
      </trkpt>
      <trkpt lat="46.87503" lon="8.49059">
        <ele>1707</ele>
        <time>2021-08-11T12:08:07.857Z</time>
      </trkpt>
      <trkpt lat="46.87503" lon="8.49058">
        <ele>1707</ele>
        <time>2021-08-11T12:08:08.857Z</time>
      </trkpt>
      <trkpt lat="46.87503" lon="8.49057">
        <ele>1708</ele>
        <time>2021-08-11T12:08:09.857Z</time>
      </trkpt>
      <trkpt lat="46.875" lon="8.4905">
        <ele>1715</ele>
        <time>2021-08-11T12:08:15.895Z</time>
      </trkpt>
      <trkpt lat="46.87501" lon="8.4905">
        <ele>1715</ele>
        <time>2021-08-11T12:08:16.895Z</time>
      </trkpt>
      <trkpt lat="46.87501" lon="8.49046">
        <ele>1719</ele>
        <time>2021-08-11T12:08:17.895Z</time>
      </trkpt>
      <trkpt lat="46.87501" lon="8.49046">
        <ele>1720</ele>
        <time>2021-08-11T12:08:34.997Z</time>
      </trkpt>
      <trkpt lat="46.87502" lon="8.49046">
        <ele>1720</ele>
        <time>2021-08-11T12:08:35.996Z</time>
      </trkpt>
      <trkpt lat="46.87502" lon="8.49046">
        <ele>1720</ele>
        <time>2021-08-11T12:08:56.875Z</time>
      </trkpt>
      <trkpt lat="46.87502" lon="8.49047">
        <ele>1719</ele>
        <time>2021-08-11T12:08:57.876Z</time>
      </trkpt>
      <trkpt lat="46.87503" lon="8.49047">
        <ele>1719</ele>
        <time>2021-08-11T12:08:58.875Z</time>
      </trkpt>
      <trkpt lat="46.87503" lon="8.49047">
        <ele>1718</ele>
        <time>2021-08-11T12:09:04.874Z</time>
      </trkpt>
      <trkpt lat="46.87503" lon="8.49046">
        <ele>1718</ele>
        <time>2021-08-11T12:09:05.873Z</time>
      </trkpt>
      <trkpt lat="46.87502" lon="8.49046">
        <ele>1717</ele>
        <time>2021-08-11T12:09:06.873Z</time>
      </trkpt>
      <trkpt lat="46.87502" lon="8.49046">
        <ele>1717</ele>
        <time>2021-08-11T12:09:07.873Z</time>
      </trkpt>
      <trkpt lat="46.87502" lon="8.49045">
        <ele>1716</ele>
        <time>2021-08-11T12:09:08.874Z</time>
      </trkpt>
      <trkpt lat="46.87503" lon="8.49045">
        <ele>1716</ele>
        <time>2021-08-11T12:09:12.877Z</time>
      </trkpt>
      <trkpt lat="46.87503" lon="8.49045">
        <ele>1716</ele>
        <time>2021-08-11T12:09:13.877Z</time>
      </trkpt>
      <trkpt lat="46.87504" lon="8.49044">
        <ele>1716</ele>
        <time>2021-08-11T12:09:14.877Z</time>
      </trkpt>
      <trkpt lat="46.87504" lon="8.49044">
        <ele>1716</ele>
        <time>2021-08-11T12:09:38.880Z</time>
      </trkpt>
      <trkpt lat="46.87504" lon="8.49045">
        <ele>1716</ele>
        <time>2021-08-11T12:09:39.879Z</time>
      </trkpt>
      <trkpt lat="46.87505" lon="8.49044">
        <ele>1716</ele>
        <time>2021-08-11T12:09:40.879Z</time>
      </trkpt>
      <trkpt lat="46.87505" lon="8.49045">
        <ele>1716</ele>
        <time>2021-08-11T12:09:41.880Z</time>
      </trkpt>
      <trkpt lat="46.87505" lon="8.49045">
        <ele>1716</ele>
        <time>2021-08-11T12:09:42.880Z</time>
      </trkpt>
      <trkpt lat="46.87505" lon="8.49045">
        <ele>1715</ele>
        <time>2021-08-11T12:09:49.898Z</time>
      </trkpt>
      <trkpt lat="46.87505" lon="8.49046">
        <ele>1712</ele>
        <time>2021-08-11T12:09:50.900Z</time>
      </trkpt>
      <trkpt lat="46.87506" lon="8.49047">
        <ele>1712</ele>
        <time>2021-08-11T12:09:51.900Z</time>
      </trkpt>
      <trkpt lat="46.87506" lon="8.49047">
        <ele>1711</ele>
        <time>2021-08-11T12:09:52.899Z</time>
      </trkpt>
      <trkpt lat="46.87506" lon="8.49048">
        <ele>1710</ele>
        <time>2021-08-11T12:09:53.900Z</time>
      </trkpt>
      <trkpt lat="46.87507" lon="8.49048">
        <ele>1709</ele>
        <time>2021-08-11T12:09:54.900Z</time>
      </trkpt>
      <trkpt lat="46.87507" lon="8.49048">
        <ele>1709</ele>
        <time>2021-08-11T12:09:55.900Z</time>
      </trkpt>
      <trkpt lat="46.87507" lon="8.49048">
        <ele>1709</ele>
        <time>2021-08-11T12:09:56.900Z</time>
      </trkpt>
      <trkpt lat="46.87508" lon="8.49049">
        <ele>1709</ele>
        <time>2021-08-11T12:09:57.899Z</time>
      </trkpt>
      <trkpt lat="46.87508" lon="8.49049">
        <ele>1709</ele>
        <time>2021-08-11T12:09:58.899Z</time>
      </trkpt>
      <trkpt lat="46.87508" lon="8.49049">
        <ele>1708</ele>
        <time>2021-08-11T12:09:59.900Z</time>
      </trkpt>
      <trkpt lat="46.87509" lon="8.49049">
        <ele>1708</ele>
        <time>2021-08-11T12:10:00.900Z</time>
      </trkpt>
      <trkpt lat="46.8751" lon="8.4905">
        <ele>1708</ele>
        <time>2021-08-11T12:10:01.900Z</time>
      </trkpt>
      <trkpt lat="46.8751" lon="8.4905">
        <ele>1708</ele>
        <time>2021-08-11T12:10:02.900Z</time>
      </trkpt>
      <trkpt lat="46.8751" lon="8.49049">
        <ele>1708</ele>
        <time>2021-08-11T12:10:03.899Z</time>
      </trkpt>
      <trkpt lat="46.8751" lon="8.49048">
        <ele>1709</ele>
        <time>2021-08-11T12:10:04.900Z</time>
      </trkpt>
      <trkpt lat="46.8751" lon="8.49048">
        <ele>1710</ele>
        <time>2021-08-11T12:10:05.899Z</time>
      </trkpt>
      <trkpt lat="46.87511" lon="8.49047">
        <ele>1710</ele>
        <time>2021-08-11T12:10:06.900Z</time>
      </trkpt>
      <trkpt lat="46.87512" lon="8.49047">
        <ele>1711</ele>
        <time>2021-08-11T12:10:07.900Z</time>
      </trkpt>
      <trkpt lat="46.87512" lon="8.49047">
        <ele>1712</ele>
        <time>2021-08-11T12:10:08.900Z</time>
      </trkpt>
      <trkpt lat="46.87513" lon="8.49046">
        <ele>1712</ele>
        <time>2021-08-11T12:10:09.900Z</time>
      </trkpt>
      <trkpt lat="46.87513" lon="8.49046">
        <ele>1712</ele>
        <time>2021-08-11T12:10:10.899Z</time>
      </trkpt>
      <trkpt lat="46.87513" lon="8.49045">
        <ele>1713</ele>
        <time>2021-08-11T12:10:11.900Z</time>
      </trkpt>
      <trkpt lat="46.87514" lon="8.49045">
        <ele>1713</ele>
        <time>2021-08-11T12:10:12.900Z</time>
      </trkpt>
      <trkpt lat="46.87514" lon="8.49044">
        <ele>1714</ele>
        <time>2021-08-11T12:10:13.900Z</time>
      </trkpt>
      <trkpt lat="46.87515" lon="8.49044">
        <ele>1714</ele>
        <time>2021-08-11T12:10:14.900Z</time>
      </trkpt>
      <trkpt lat="46.87516" lon="8.49044">
        <ele>1714</ele>
        <time>2021-08-11T12:10:15.899Z</time>
      </trkpt>
      <trkpt lat="46.87517" lon="8.49043">
        <ele>1714</ele>
        <time>2021-08-11T12:10:16.899Z</time>
      </trkpt>
      <trkpt lat="46.87517" lon="8.49042">
        <ele>1715</ele>
        <time>2021-08-11T12:10:17.900Z</time>
      </trkpt>
      <trkpt lat="46.87518" lon="8.49041">
        <ele>1715</ele>
        <time>2021-08-11T12:10:18.900Z</time>
      </trkpt>
      <trkpt lat="46.87518" lon="8.49041">
        <ele>1715</ele>
        <time>2021-08-11T12:10:19.899Z</time>
      </trkpt>
      <trkpt lat="46.87519" lon="8.49041">
        <ele>1715</ele>
        <time>2021-08-11T12:10:20.899Z</time>
      </trkpt>
      <trkpt lat="46.87519" lon="8.49041">
        <ele>1716</ele>
        <time>2021-08-11T12:10:21.900Z</time>
      </trkpt>
      <trkpt lat="46.8752" lon="8.49041">
        <ele>1716</ele>
        <time>2021-08-11T12:10:22.900Z</time>
      </trkpt>
      <trkpt lat="46.8752" lon="8.49041">
        <ele>1716</ele>
        <time>2021-08-11T12:10:23.900Z</time>
      </trkpt>
      <trkpt lat="46.87519" lon="8.4904">
        <ele>1716</ele>
        <time>2021-08-11T12:10:24.899Z</time>
      </trkpt>
      <trkpt lat="46.87519" lon="8.49039">
        <ele>1716</ele>
        <time>2021-08-11T12:10:25.900Z</time>
      </trkpt>
      <trkpt lat="46.87518" lon="8.49038">
        <ele>1716</ele>
        <time>2021-08-11T12:10:26.900Z</time>
      </trkpt>
      <trkpt lat="46.87518" lon="8.49038">
        <ele>1716</ele>
        <time>2021-08-11T12:10:27.900Z</time>
      </trkpt>
      <trkpt lat="46.87517" lon="8.49037">
        <ele>1715</ele>
        <time>2021-08-11T12:10:28.900Z</time>
      </trkpt>
      <trkpt lat="46.87516" lon="8.49037">
        <ele>1715</ele>
        <time>2021-08-11T12:10:29.899Z</time>
      </trkpt>
      <trkpt lat="46.87517" lon="8.49037">
        <ele>1715</ele>
        <time>2021-08-11T12:10:30.899Z</time>
      </trkpt>
      <trkpt lat="46.87517" lon="8.49036">
        <ele>1714</ele>
        <time>2021-08-11T12:10:31.900Z</time>
      </trkpt>
      <trkpt lat="46.87517" lon="8.49035">
        <ele>1714</ele>
        <time>2021-08-11T12:10:32.900Z</time>
      </trkpt>
      <trkpt lat="46.87517" lon="8.49034">
        <ele>1714</ele>
        <time>2021-08-11T12:10:33.899Z</time>
      </trkpt>
      <trkpt lat="46.87517" lon="8.49033">
        <ele>1714</ele>
        <time>2021-08-11T12:10:34.900Z</time>
      </trkpt>
      <trkpt lat="46.87517" lon="8.49033">
        <ele>1714</ele>
        <time>2021-08-11T12:10:35.899Z</time>
      </trkpt>
      <trkpt lat="46.87516" lon="8.49032">
        <ele>1714</ele>
        <time>2021-08-11T12:10:36.900Z</time>
      </trkpt>
      <trkpt lat="46.87516" lon="8.49032">
        <ele>1714</ele>
        <time>2021-08-11T12:10:37.900Z</time>
      </trkpt>
      <trkpt lat="46.87517" lon="8.49032">
        <ele>1714</ele>
        <time>2021-08-11T12:10:38.899Z</time>
      </trkpt>
      <trkpt lat="46.87518" lon="8.49032">
        <ele>1715</ele>
        <time>2021-08-11T12:10:39.900Z</time>
      </trkpt>
      <trkpt lat="46.87518" lon="8.49031">
        <ele>1715</ele>
        <time>2021-08-11T12:10:40.899Z</time>
      </trkpt>
      <trkpt lat="46.87519" lon="8.49031">
        <ele>1715</ele>
        <time>2021-08-11T12:10:41.900Z</time>
      </trkpt>
      <trkpt lat="46.87519" lon="8.4903">
        <ele>1715</ele>
        <time>2021-08-11T12:10:42.899Z</time>
      </trkpt>
      <trkpt lat="46.87519" lon="8.49029">
        <ele>1716</ele>
        <time>2021-08-11T12:10:43.900Z</time>
      </trkpt>
      <trkpt lat="46.87518" lon="8.49028">
        <ele>1716</ele>
        <time>2021-08-11T12:10:44.899Z</time>
      </trkpt>
      <trkpt lat="46.87518" lon="8.49028">
        <ele>1716</ele>
        <time>2021-08-11T12:10:45.899Z</time>
      </trkpt>
      <trkpt lat="46.87518" lon="8.49027">
        <ele>1716</ele>
        <time>2021-08-11T12:10:46.900Z</time>
      </trkpt>
      <trkpt lat="46.87518" lon="8.49027">
        <ele>1716</ele>
        <time>2021-08-11T12:10:47.899Z</time>
      </trkpt>
      <trkpt lat="46.87518" lon="8.49027">
        <ele>1716</ele>
        <time>2021-08-11T12:10:48.900Z</time>
      </trkpt>
      <trkpt lat="46.87518" lon="8.49026">
        <ele>1716</ele>
        <time>2021-08-11T12:10:49.899Z</time>
      </trkpt>
      <trkpt lat="46.87519" lon="8.49026">
        <ele>1716</ele>
        <time>2021-08-11T12:10:50.900Z</time>
      </trkpt>
      <trkpt lat="46.87519" lon="8.49026">
        <ele>1716</ele>
        <time>2021-08-11T12:10:51.900Z</time>
      </trkpt>
      <trkpt lat="46.87519" lon="8.49025">
        <ele>1717</ele>
        <time>2021-08-11T12:10:52.899Z</time>
      </trkpt>
      <trkpt lat="46.87519" lon="8.49024">
        <ele>1717</ele>
        <time>2021-08-11T12:10:53.900Z</time>
      </trkpt>
      <trkpt lat="46.8752" lon="8.49023">
        <ele>1717</ele>
        <time>2021-08-11T12:10:54.900Z</time>
      </trkpt>
      <trkpt lat="46.8752" lon="8.49022">
        <ele>1718</ele>
        <time>2021-08-11T12:10:55.899Z</time>
      </trkpt>
      <trkpt lat="46.8752" lon="8.49022">
        <ele>1718</ele>
        <time>2021-08-11T12:10:56.900Z</time>
      </trkpt>
      <trkpt lat="46.8752" lon="8.49021">
        <ele>1718</ele>
        <time>2021-08-11T12:10:57.899Z</time>
      </trkpt>
      <trkpt lat="46.87521" lon="8.4902">
        <ele>1718</ele>
        <time>2021-08-11T12:10:58.899Z</time>
      </trkpt>
      <trkpt lat="46.87521" lon="8.4902">
        <ele>1718</ele>
        <time>2021-08-11T12:10:59.899Z</time>
      </trkpt>
      <trkpt lat="46.87521" lon="8.4902">
        <ele>1718</ele>
        <time>2021-08-11T12:11:00.900Z</time>
      </trkpt>
      <trkpt lat="46.87521" lon="8.49019">
        <ele>1718</ele>
        <time>2021-08-11T12:11:01.900Z</time>
      </trkpt>
      <trkpt lat="46.87521" lon="8.49017">
        <ele>1718</ele>
        <time>2021-08-11T12:11:06.014Z</time>
      </trkpt>
      <trkpt lat="46.87521" lon="8.49015">
        <ele>1718</ele>
        <time>2021-08-11T12:11:07.015Z</time>
      </trkpt>
      <trkpt lat="46.87521" lon="8.49012">
        <ele>1717</ele>
        <time>2021-08-11T12:11:08.014Z</time>
      </trkpt>
      <trkpt lat="46.87521" lon="8.49011">
        <ele>1717</ele>
        <time>2021-08-11T12:11:09.014Z</time>
      </trkpt>
      <trkpt lat="46.8752" lon="8.4901">
        <ele>1717</ele>
        <time>2021-08-11T12:11:10.014Z</time>
      </trkpt>
      <trkpt lat="46.8752" lon="8.49011">
        <ele>1717</ele>
        <time>2021-08-11T12:11:11.015Z</time>
      </trkpt>
      <trkpt lat="46.87519" lon="8.49011">
        <ele>1716</ele>
        <time>2021-08-11T12:11:12.015Z</time>
      </trkpt>
      <trkpt lat="46.87518" lon="8.4901">
        <ele>1716</ele>
        <time>2021-08-11T12:11:13.015Z</time>
      </trkpt>
      <trkpt lat="46.87517" lon="8.49011">
        <ele>1715</ele>
        <time>2021-08-11T12:11:14.015Z</time>
      </trkpt>
      <trkpt lat="46.87516" lon="8.49011">
        <ele>1715</ele>
        <time>2021-08-11T12:11:15.015Z</time>
      </trkpt>
      <trkpt lat="46.87515" lon="8.49011">
        <ele>1715</ele>
        <time>2021-08-11T12:11:16.014Z</time>
      </trkpt>
      <trkpt lat="46.87515" lon="8.49011">
        <ele>1715</ele>
        <time>2021-08-11T12:11:17.014Z</time>
      </trkpt>
      <trkpt lat="46.87515" lon="8.4901">
        <ele>1714</ele>
        <time>2021-08-11T12:11:18.015Z</time>
      </trkpt>
      <trkpt lat="46.87514" lon="8.49009">
        <ele>1714</ele>
        <time>2021-08-11T12:11:19.014Z</time>
      </trkpt>
      <trkpt lat="46.87515" lon="8.49008">
        <ele>1714</ele>
        <time>2021-08-11T12:11:23.011Z</time>
      </trkpt>
      <trkpt lat="46.87514" lon="8.49007">
        <ele>1714</ele>
        <time>2021-08-11T12:11:24.011Z</time>
      </trkpt>
      <trkpt lat="46.87514" lon="8.49006">
        <ele>1714</ele>
        <time>2021-08-11T12:11:25.012Z</time>
      </trkpt>
      <trkpt lat="46.87514" lon="8.49006">
        <ele>1714</ele>
        <time>2021-08-11T12:11:26.012Z</time>
      </trkpt>
      <trkpt lat="46.87514" lon="8.49005">
        <ele>1714</ele>
        <time>2021-08-11T12:11:31.139Z</time>
      </trkpt>
      <trkpt lat="46.87513" lon="8.49004">
        <ele>1715</ele>
        <time>2021-08-11T12:11:32.140Z</time>
      </trkpt>
      <trkpt lat="46.87513" lon="8.49003">
        <ele>1715</ele>
        <time>2021-08-11T12:11:33.139Z</time>
      </trkpt>
      <trkpt lat="46.87512" lon="8.49003">
        <ele>1715</ele>
        <time>2021-08-11T12:11:34.140Z</time>
      </trkpt>
      <trkpt lat="46.87512" lon="8.49002">
        <ele>1715</ele>
        <time>2021-08-11T12:11:35.140Z</time>
      </trkpt>
      <trkpt lat="46.87512" lon="8.49001">
        <ele>1715</ele>
        <time>2021-08-11T12:11:36.140Z</time>
      </trkpt>
      <trkpt lat="46.87511" lon="8.49">
        <ele>1715</ele>
        <time>2021-08-11T12:11:37.140Z</time>
      </trkpt>
      <trkpt lat="46.8751" lon="8.48999">
        <ele>1715</ele>
        <time>2021-08-11T12:11:38.140Z</time>
      </trkpt>
      <trkpt lat="46.8751" lon="8.48999">
        <ele>1716</ele>
        <time>2021-08-11T12:11:39.140Z</time>
      </trkpt>
      <trkpt lat="46.8751" lon="8.48998">
        <ele>1716</ele>
        <time>2021-08-11T12:11:40.140Z</time>
      </trkpt>
      <trkpt lat="46.8751" lon="8.48998">
        <ele>1716</ele>
        <time>2021-08-11T12:11:41.139Z</time>
      </trkpt>
      <trkpt lat="46.87509" lon="8.48997">
        <ele>1717</ele>
        <time>2021-08-11T12:11:42.140Z</time>
      </trkpt>
      <trkpt lat="46.87509" lon="8.48997">
        <ele>1717</ele>
        <time>2021-08-11T12:11:43.139Z</time>
      </trkpt>
      <trkpt lat="46.87508" lon="8.48996">
        <ele>1717</ele>
        <time>2021-08-11T12:11:44.140Z</time>
      </trkpt>
      <trkpt lat="46.87508" lon="8.48995">
        <ele>1718</ele>
        <time>2021-08-11T12:11:45.139Z</time>
      </trkpt>
      <trkpt lat="46.87509" lon="8.48995">
        <ele>1718</ele>
        <time>2021-08-11T12:11:46.139Z</time>
      </trkpt>
      <trkpt lat="46.87509" lon="8.48995">
        <ele>1718</ele>
        <time>2021-08-11T12:11:47.140Z</time>
      </trkpt>
      <trkpt lat="46.87509" lon="8.48995">
        <ele>1718</ele>
        <time>2021-08-11T12:11:48.139Z</time>
      </trkpt>
      <trkpt lat="46.87509" lon="8.48994">
        <ele>1718</ele>
        <time>2021-08-11T12:11:49.140Z</time>
      </trkpt>
      <trkpt lat="46.87509" lon="8.48994">
        <ele>1719</ele>
        <time>2021-08-11T12:11:50.140Z</time>
      </trkpt>
      <trkpt lat="46.87509" lon="8.48993">
        <ele>1719</ele>
        <time>2021-08-11T12:11:51.140Z</time>
      </trkpt>
      <trkpt lat="46.87509" lon="8.48992">
        <ele>1720</ele>
        <time>2021-08-11T12:11:52.140Z</time>
      </trkpt>
      <trkpt lat="46.87509" lon="8.48992">
        <ele>1720</ele>
        <time>2021-08-11T12:11:53.140Z</time>
      </trkpt>
      <trkpt lat="46.87508" lon="8.48991">
        <ele>1721</ele>
        <time>2021-08-11T12:11:54.140Z</time>
      </trkpt>
      <trkpt lat="46.87508" lon="8.4899">
        <ele>1721</ele>
        <time>2021-08-11T12:11:55.140Z</time>
      </trkpt>
      <trkpt lat="46.87507" lon="8.48989">
        <ele>1722</ele>
        <time>2021-08-11T12:11:56.140Z</time>
      </trkpt>
      <trkpt lat="46.87507" lon="8.48988">
        <ele>1722</ele>
        <time>2021-08-11T12:11:57.139Z</time>
      </trkpt>
      <trkpt lat="46.87507" lon="8.48988">
        <ele>1722</ele>
        <time>2021-08-11T12:11:58.139Z</time>
      </trkpt>
      <trkpt lat="46.87508" lon="8.48988">
        <ele>1723</ele>
        <time>2021-08-11T12:11:59.140Z</time>
      </trkpt>
      <trkpt lat="46.87508" lon="8.48988">
        <ele>1723</ele>
        <time>2021-08-11T12:12:00.140Z</time>
      </trkpt>
      <trkpt lat="46.87507" lon="8.48988">
        <ele>1723</ele>
        <time>2021-08-11T12:12:01.139Z</time>
      </trkpt>
      <trkpt lat="46.87507" lon="8.48987">
        <ele>1723</ele>
        <time>2021-08-11T12:12:07.262Z</time>
      </trkpt>
      <trkpt lat="46.87507" lon="8.48987">
        <ele>1724</ele>
        <time>2021-08-11T12:12:08.261Z</time>
      </trkpt>
      <trkpt lat="46.87507" lon="8.48986">
        <ele>1724</ele>
        <time>2021-08-11T12:12:09.262Z</time>
      </trkpt>
      <trkpt lat="46.87507" lon="8.48985">
        <ele>1725</ele>
        <time>2021-08-11T12:12:10.261Z</time>
      </trkpt>
      <trkpt lat="46.87508" lon="8.48984">
        <ele>1725</ele>
        <time>2021-08-11T12:12:11.261Z</time>
      </trkpt>
      <trkpt lat="46.87507" lon="8.48984">
        <ele>1725</ele>
        <time>2021-08-11T12:12:12.262Z</time>
      </trkpt>
      <trkpt lat="46.87507" lon="8.48983">
        <ele>1725</ele>
        <time>2021-08-11T12:12:13.261Z</time>
      </trkpt>
      <trkpt lat="46.87507" lon="8.48982">
        <ele>1725</ele>
        <time>2021-08-11T12:12:14.261Z</time>
      </trkpt>
      <trkpt lat="46.87507" lon="8.48982">
        <ele>1726</ele>
        <time>2021-08-11T12:12:15.262Z</time>
      </trkpt>
      <trkpt lat="46.87508" lon="8.48981">
        <ele>1726</ele>
        <time>2021-08-11T12:12:16.262Z</time>
      </trkpt>
      <trkpt lat="46.87508" lon="8.48981">
        <ele>1726</ele>
        <time>2021-08-11T12:12:23.259Z</time>
      </trkpt>
      <trkpt lat="46.87508" lon="8.4898">
        <ele>1726</ele>
        <time>2021-08-11T12:12:24.260Z</time>
      </trkpt>
      <trkpt lat="46.87508" lon="8.48979">
        <ele>1726</ele>
        <time>2021-08-11T12:12:25.260Z</time>
      </trkpt>
      <trkpt lat="46.87509" lon="8.48978">
        <ele>1726</ele>
        <time>2021-08-11T12:12:26.260Z</time>
      </trkpt>
      <trkpt lat="46.87509" lon="8.48978">
        <ele>1727</ele>
        <time>2021-08-11T12:12:27.260Z</time>
      </trkpt>
      <trkpt lat="46.8751" lon="8.48978">
        <ele>1727</ele>
        <time>2021-08-11T12:12:30.357Z</time>
      </trkpt>
      <trkpt lat="46.87509" lon="8.48977">
        <ele>1728</ele>
        <time>2021-08-11T12:12:31.358Z</time>
      </trkpt>
      <trkpt lat="46.87509" lon="8.48976">
        <ele>1728</ele>
        <time>2021-08-11T12:12:32.357Z</time>
      </trkpt>
      <trkpt lat="46.8751" lon="8.48975">
        <ele>1728</ele>
        <time>2021-08-11T12:12:33.358Z</time>
      </trkpt>
      <trkpt lat="46.8751" lon="8.48975">
        <ele>1729</ele>
        <time>2021-08-11T12:12:34.357Z</time>
      </trkpt>
      <trkpt lat="46.8751" lon="8.48974">
        <ele>1729</ele>
        <time>2021-08-11T12:12:35.358Z</time>
      </trkpt>
      <trkpt lat="46.87509" lon="8.48973">
        <ele>1730</ele>
        <time>2021-08-11T12:12:36.358Z</time>
      </trkpt>
      <trkpt lat="46.87509" lon="8.48972">
        <ele>1730</ele>
        <time>2021-08-11T12:12:38.490Z</time>
      </trkpt>
      <trkpt lat="46.87509" lon="8.48971">
        <ele>1730</ele>
        <time>2021-08-11T12:12:39.490Z</time>
      </trkpt>
      <trkpt lat="46.8751" lon="8.48971">
        <ele>1730</ele>
        <time>2021-08-11T12:12:40.489Z</time>
      </trkpt>
      <trkpt lat="46.8751" lon="8.4897">
        <ele>1729</ele>
        <time>2021-08-11T12:12:41.490Z</time>
      </trkpt>
      <trkpt lat="46.8751" lon="8.4897">
        <ele>1729</ele>
        <time>2021-08-11T12:12:42.490Z</time>
      </trkpt>
      <trkpt lat="46.8751" lon="8.48969">
        <ele>1729</ele>
        <time>2021-08-11T12:12:43.490Z</time>
      </trkpt>
      <trkpt lat="46.8751" lon="8.48968">
        <ele>1729</ele>
        <time>2021-08-11T12:12:44.489Z</time>
      </trkpt>
      <trkpt lat="46.8751" lon="8.48968">
        <ele>1728</ele>
        <time>2021-08-11T12:12:45.490Z</time>
      </trkpt>
      <trkpt lat="46.8751" lon="8.48967">
        <ele>1728</ele>
        <time>2021-08-11T12:12:46.489Z</time>
      </trkpt>
      <trkpt lat="46.8751" lon="8.48967">
        <ele>1728</ele>
        <time>2021-08-11T12:12:47.490Z</time>
      </trkpt>
      <trkpt lat="46.87511" lon="8.48967">
        <ele>1728</ele>
        <time>2021-08-11T12:12:48.489Z</time>
      </trkpt>
      <trkpt lat="46.87511" lon="8.48966">
        <ele>1729</ele>
        <time>2021-08-11T12:12:56.604Z</time>
      </trkpt>
      <trkpt lat="46.87511" lon="8.48966">
        <ele>1729</ele>
        <time>2021-08-11T12:12:57.605Z</time>
      </trkpt>
      <trkpt lat="46.87512" lon="8.48965">
        <ele>1729</ele>
        <time>2021-08-11T12:12:58.605Z</time>
      </trkpt>
      <trkpt lat="46.87513" lon="8.48964">
        <ele>1729</ele>
        <time>2021-08-11T12:12:59.605Z</time>
      </trkpt>
      <trkpt lat="46.87513" lon="8.48964">
        <ele>1729</ele>
        <time>2021-08-11T12:13:04.726Z</time>
      </trkpt>
      <trkpt lat="46.87513" lon="8.48963">
        <ele>1729</ele>
        <time>2021-08-11T12:13:05.725Z</time>
      </trkpt>
      <trkpt lat="46.87513" lon="8.48962">
        <ele>1729</ele>
        <time>2021-08-11T12:13:06.726Z</time>
      </trkpt>
      <trkpt lat="46.87513" lon="8.48961">
        <ele>1729</ele>
        <time>2021-08-11T12:13:07.725Z</time>
      </trkpt>
      <trkpt lat="46.87513" lon="8.4896">
        <ele>1730</ele>
        <time>2021-08-11T12:13:08.726Z</time>
      </trkpt>
      <trkpt lat="46.87513" lon="8.4896">
        <ele>1730</ele>
        <time>2021-08-11T12:13:09.725Z</time>
      </trkpt>
      <trkpt lat="46.87513" lon="8.48959">
        <ele>1730</ele>
        <time>2021-08-11T12:13:10.725Z</time>
      </trkpt>
      <trkpt lat="46.87513" lon="8.48958">
        <ele>1730</ele>
        <time>2021-08-11T12:13:11.726Z</time>
      </trkpt>
      <trkpt lat="46.87514" lon="8.48958">
        <ele>1730</ele>
        <time>2021-08-11T12:13:12.726Z</time>
      </trkpt>
      <trkpt lat="46.87514" lon="8.48958">
        <ele>1730</ele>
        <time>2021-08-11T12:13:13.726Z</time>
      </trkpt>
      <trkpt lat="46.87514" lon="8.48958">
        <ele>1730</ele>
        <time>2021-08-11T12:13:14.725Z</time>
      </trkpt>
      <trkpt lat="46.87514" lon="8.48958">
        <ele>1730</ele>
        <time>2021-08-11T12:13:15.726Z</time>
      </trkpt>
      <trkpt lat="46.87515" lon="8.48958">
        <ele>1729</ele>
        <time>2021-08-11T12:13:16.726Z</time>
      </trkpt>
      <trkpt lat="46.87515" lon="8.48957">
        <ele>1729</ele>
        <time>2021-08-11T12:13:17.726Z</time>
      </trkpt>
      <trkpt lat="46.87514" lon="8.48956">
        <ele>1729</ele>
        <time>2021-08-11T12:13:18.725Z</time>
      </trkpt>
      <trkpt lat="46.87514" lon="8.48955">
        <ele>1729</ele>
        <time>2021-08-11T12:13:19.726Z</time>
      </trkpt>
      <trkpt lat="46.87515" lon="8.48955">
        <ele>1729</ele>
        <time>2021-08-11T12:13:20.726Z</time>
      </trkpt>
      <trkpt lat="46.87515" lon="8.48954">
        <ele>1729</ele>
        <time>2021-08-11T12:13:21.726Z</time>
      </trkpt>
      <trkpt lat="46.87515" lon="8.48954">
        <ele>1730</ele>
        <time>2021-08-11T12:13:22.726Z</time>
      </trkpt>
      <trkpt lat="46.87516" lon="8.48954">
        <ele>1730</ele>
        <time>2021-08-11T12:13:23.725Z</time>
      </trkpt>
      <trkpt lat="46.87516" lon="8.48955">
        <ele>1730</ele>
        <time>2021-08-11T12:13:24.725Z</time>
      </trkpt>
      <trkpt lat="46.87516" lon="8.48954">
        <ele>1731</ele>
        <time>2021-08-11T12:13:25.725Z</time>
      </trkpt>
      <trkpt lat="46.87516" lon="8.48954">
        <ele>1731</ele>
        <time>2021-08-11T12:13:26.725Z</time>
      </trkpt>
      <trkpt lat="46.87515" lon="8.48953">
        <ele>1728</ele>
        <time>2021-08-11T12:13:27.726Z</time>
      </trkpt>
      <trkpt lat="46.87515" lon="8.48952">
        <ele>1728</ele>
        <time>2021-08-11T12:13:28.726Z</time>
      </trkpt>
      <trkpt lat="46.87515" lon="8.48952">
        <ele>1727</ele>
        <time>2021-08-11T12:13:29.725Z</time>
      </trkpt>
      <trkpt lat="46.87515" lon="8.48952">
        <ele>1726</ele>
        <time>2021-08-11T12:13:30.727Z</time>
      </trkpt>
      <trkpt lat="46.87515" lon="8.48951">
        <ele>1725</ele>
        <time>2021-08-11T12:13:31.726Z</time>
      </trkpt>
      <trkpt lat="46.87515" lon="8.48949">
        <ele>1725</ele>
        <time>2021-08-11T12:13:32.728Z</time>
      </trkpt>
      <trkpt lat="46.87515" lon="8.48949">
        <ele>1725</ele>
        <time>2021-08-11T12:13:33.728Z</time>
      </trkpt>
      <trkpt lat="46.87513" lon="8.48946">
        <ele>1728</ele>
        <time>2021-08-11T12:13:34.728Z</time>
      </trkpt>
      <trkpt lat="46.87513" lon="8.48945">
        <ele>1729</ele>
        <time>2021-08-11T12:13:35.727Z</time>
      </trkpt>
      <trkpt lat="46.87514" lon="8.48945">
        <ele>1730</ele>
        <time>2021-08-11T12:13:36.727Z</time>
      </trkpt>
      <trkpt lat="46.87514" lon="8.48944">
        <ele>1731</ele>
        <time>2021-08-11T12:13:37.727Z</time>
      </trkpt>
      <trkpt lat="46.87513" lon="8.48944">
        <ele>1732</ele>
        <time>2021-08-11T12:13:38.728Z</time>
      </trkpt>
      <trkpt lat="46.87513" lon="8.48943">
        <ele>1733</ele>
        <time>2021-08-11T12:13:39.728Z</time>
      </trkpt>
      <trkpt lat="46.87513" lon="8.48942">
        <ele>1733</ele>
        <time>2021-08-11T12:13:40.728Z</time>
      </trkpt>
      <trkpt lat="46.87513" lon="8.48941">
        <ele>1734</ele>
        <time>2021-08-11T12:13:41.727Z</time>
      </trkpt>
      <trkpt lat="46.87512" lon="8.4894">
        <ele>1735</ele>
        <time>2021-08-11T12:13:42.728Z</time>
      </trkpt>
      <trkpt lat="46.87512" lon="8.48939">
        <ele>1735</ele>
        <time>2021-08-11T12:13:43.728Z</time>
      </trkpt>
      <trkpt lat="46.87512" lon="8.48938">
        <ele>1736</ele>
        <time>2021-08-11T12:13:44.728Z</time>
      </trkpt>
      <trkpt lat="46.87512" lon="8.48938">
        <ele>1736</ele>
        <time>2021-08-11T12:13:45.728Z</time>
      </trkpt>
      <trkpt lat="46.87512" lon="8.48937">
        <ele>1736</ele>
        <time>2021-08-11T12:13:46.727Z</time>
      </trkpt>
      <trkpt lat="46.87513" lon="8.48937">
        <ele>1736</ele>
        <time>2021-08-11T12:13:47.728Z</time>
      </trkpt>
      <trkpt lat="46.87513" lon="8.48936">
        <ele>1736</ele>
        <time>2021-08-11T12:13:48.728Z</time>
      </trkpt>
      <trkpt lat="46.87513" lon="8.48936">
        <ele>1735</ele>
        <time>2021-08-11T12:13:49.728Z</time>
      </trkpt>
      <trkpt lat="46.87512" lon="8.48935">
        <ele>1735</ele>
        <time>2021-08-11T12:13:50.728Z</time>
      </trkpt>
      <trkpt lat="46.87512" lon="8.48934">
        <ele>1735</ele>
        <time>2021-08-11T12:13:51.728Z</time>
      </trkpt>
      <trkpt lat="46.87511" lon="8.48933">
        <ele>1735</ele>
        <time>2021-08-11T12:13:52.728Z</time>
      </trkpt>
      <trkpt lat="46.87511" lon="8.48932">
        <ele>1734</ele>
        <time>2021-08-11T12:13:53.728Z</time>
      </trkpt>
      <trkpt lat="46.87511" lon="8.48931">
        <ele>1734</ele>
        <time>2021-08-11T12:13:54.728Z</time>
      </trkpt>
      <trkpt lat="46.87511" lon="8.4893">
        <ele>1735</ele>
        <time>2021-08-11T12:13:55.727Z</time>
      </trkpt>
      <trkpt lat="46.8751" lon="8.48929">
        <ele>1735</ele>
        <time>2021-08-11T12:13:56.728Z</time>
      </trkpt>
      <trkpt lat="46.8751" lon="8.48929">
        <ele>1735</ele>
        <time>2021-08-11T12:13:57.728Z</time>
      </trkpt>
      <trkpt lat="46.87506" lon="8.48931">
        <ele>1732</ele>
        <time>2021-08-11T12:13:58.728Z</time>
      </trkpt>
      <trkpt lat="46.87506" lon="8.4893">
        <ele>1732</ele>
        <time>2021-08-11T12:13:59.727Z</time>
      </trkpt>
      <trkpt lat="46.87507" lon="8.4893">
        <ele>1731</ele>
        <time>2021-08-11T12:14:00.727Z</time>
      </trkpt>
      <trkpt lat="46.87507" lon="8.48929">
        <ele>1730</ele>
        <time>2021-08-11T12:14:01.729Z</time>
      </trkpt>
      <trkpt lat="46.87507" lon="8.48928">
        <ele>1731</ele>
        <time>2021-08-11T12:14:02.729Z</time>
      </trkpt>
      <trkpt lat="46.87507" lon="8.48928">
        <ele>1731</ele>
        <time>2021-08-11T12:14:03.728Z</time>
      </trkpt>
      <trkpt lat="46.87507" lon="8.48927">
        <ele>1731</ele>
        <time>2021-08-11T12:14:04.729Z</time>
      </trkpt>
      <trkpt lat="46.87507" lon="8.48927">
        <ele>1731</ele>
        <time>2021-08-11T12:14:05.728Z</time>
      </trkpt>
      <trkpt lat="46.87506" lon="8.48926">
        <ele>1731</ele>
        <time>2021-08-11T12:14:06.729Z</time>
      </trkpt>
      <trkpt lat="46.87506" lon="8.48926">
        <ele>1731</ele>
        <time>2021-08-11T12:14:07.728Z</time>
      </trkpt>
      <trkpt lat="46.87506" lon="8.48925">
        <ele>1731</ele>
        <time>2021-08-11T12:14:08.728Z</time>
      </trkpt>
      <trkpt lat="46.87506" lon="8.48924">
        <ele>1731</ele>
        <time>2021-08-11T12:14:09.728Z</time>
      </trkpt>
      <trkpt lat="46.87506" lon="8.48924">
        <ele>1731</ele>
        <time>2021-08-11T12:14:10.729Z</time>
      </trkpt>
      <trkpt lat="46.87506" lon="8.48923">
        <ele>1731</ele>
        <time>2021-08-11T12:14:11.729Z</time>
      </trkpt>
      <trkpt lat="46.87505" lon="8.48922">
        <ele>1731</ele>
        <time>2021-08-11T12:14:12.729Z</time>
      </trkpt>
      <trkpt lat="46.87505" lon="8.48921">
        <ele>1730</ele>
        <time>2021-08-11T12:14:13.729Z</time>
      </trkpt>
      <trkpt lat="46.87505" lon="8.4892">
        <ele>1730</ele>
        <time>2021-08-11T12:14:14.728Z</time>
      </trkpt>
      <trkpt lat="46.87506" lon="8.4892">
        <ele>1730</ele>
        <time>2021-08-11T12:14:15.729Z</time>
      </trkpt>
      <trkpt lat="46.87506" lon="8.48919">
        <ele>1730</ele>
        <time>2021-08-11T12:14:16.729Z</time>
      </trkpt>
      <trkpt lat="46.87507" lon="8.48919">
        <ele>1731</ele>
        <time>2021-08-11T12:14:17.729Z</time>
      </trkpt>
      <trkpt lat="46.87507" lon="8.48918">
        <ele>1731</ele>
        <time>2021-08-11T12:14:18.728Z</time>
      </trkpt>
      <trkpt lat="46.87507" lon="8.48917">
        <ele>1731</ele>
        <time>2021-08-11T12:14:19.729Z</time>
      </trkpt>
      <trkpt lat="46.87507" lon="8.48917">
        <ele>1731</ele>
        <time>2021-08-11T12:14:20.729Z</time>
      </trkpt>
      <trkpt lat="46.87508" lon="8.48917">
        <ele>1732</ele>
        <time>2021-08-11T12:14:21.728Z</time>
      </trkpt>
      <trkpt lat="46.87507" lon="8.48916">
        <ele>1732</ele>
        <time>2021-08-11T12:14:22.728Z</time>
      </trkpt>
      <trkpt lat="46.87507" lon="8.48915">
        <ele>1732</ele>
        <time>2021-08-11T12:14:23.728Z</time>
      </trkpt>
      <trkpt lat="46.87507" lon="8.48914">
        <ele>1733</ele>
        <time>2021-08-11T12:14:24.729Z</time>
      </trkpt>
      <trkpt lat="46.87507" lon="8.48913">
        <ele>1733</ele>
        <time>2021-08-11T12:14:25.729Z</time>
      </trkpt>
      <trkpt lat="46.87508" lon="8.48913">
        <ele>1733</ele>
        <time>2021-08-11T12:14:26.728Z</time>
      </trkpt>
      <trkpt lat="46.87508" lon="8.48913">
        <ele>1733</ele>
        <time>2021-08-11T12:14:27.728Z</time>
      </trkpt>
      <trkpt lat="46.87508" lon="8.48912">
        <ele>1734</ele>
        <time>2021-08-11T12:14:28.728Z</time>
      </trkpt>
      <trkpt lat="46.87508" lon="8.48912">
        <ele>1734</ele>
        <time>2021-08-11T12:14:29.728Z</time>
      </trkpt>
      <trkpt lat="46.87507" lon="8.48911">
        <ele>1735</ele>
        <time>2021-08-11T12:14:30.729Z</time>
      </trkpt>
      <trkpt lat="46.87507" lon="8.4891">
        <ele>1735</ele>
        <time>2021-08-11T12:14:31.728Z</time>
      </trkpt>
      <trkpt lat="46.87508" lon="8.4891">
        <ele>1735</ele>
        <time>2021-08-11T12:14:32.729Z</time>
      </trkpt>
      <trkpt lat="46.87508" lon="8.48909">
        <ele>1736</ele>
        <time>2021-08-11T12:14:33.728Z</time>
      </trkpt>
      <trkpt lat="46.87508" lon="8.48908">
        <ele>1736</ele>
        <time>2021-08-11T12:14:34.729Z</time>
      </trkpt>
      <trkpt lat="46.87507" lon="8.48907">
        <ele>1736</ele>
        <time>2021-08-11T12:14:35.729Z</time>
      </trkpt>
      <trkpt lat="46.87507" lon="8.48906">
        <ele>1736</ele>
        <time>2021-08-11T12:14:36.729Z</time>
      </trkpt>
      <trkpt lat="46.87507" lon="8.48904">
        <ele>1736</ele>
        <time>2021-08-11T12:14:37.728Z</time>
      </trkpt>
      <trkpt lat="46.87507" lon="8.48903">
        <ele>1736</ele>
        <time>2021-08-11T12:14:38.728Z</time>
      </trkpt>
      <trkpt lat="46.87506" lon="8.48901">
        <ele>1736</ele>
        <time>2021-08-11T12:14:39.729Z</time>
      </trkpt>
      <trkpt lat="46.87506" lon="8.489">
        <ele>1737</ele>
        <time>2021-08-11T12:14:43.876Z</time>
      </trkpt>
      <trkpt lat="46.87506" lon="8.48899">
        <ele>1737</ele>
        <time>2021-08-11T12:14:56.605Z</time>
      </trkpt>
      <trkpt lat="46.87506" lon="8.48899">
        <ele>1737</ele>
        <time>2021-08-11T12:14:57.604Z</time>
      </trkpt>
      <trkpt lat="46.87505" lon="8.48897">
        <ele>1738</ele>
        <time>2021-08-11T12:14:58.604Z</time>
      </trkpt>
      <trkpt lat="46.87505" lon="8.48896">
        <ele>1738</ele>
        <time>2021-08-11T12:14:59.605Z</time>
      </trkpt>
      <trkpt lat="46.87505" lon="8.48894">
        <ele>1738</ele>
        <time>2021-08-11T12:15:00.604Z</time>
      </trkpt>
      <trkpt lat="46.87506" lon="8.48894">
        <ele>1739</ele>
        <time>2021-08-11T12:15:01.604Z</time>
      </trkpt>
      <trkpt lat="46.87506" lon="8.48893">
        <ele>1739</ele>
        <time>2021-08-11T12:15:03.707Z</time>
      </trkpt>
      <trkpt lat="46.87507" lon="8.48893">
        <ele>1739</ele>
        <time>2021-08-11T12:15:04.707Z</time>
      </trkpt>
      <trkpt lat="46.87507" lon="8.48893">
        <ele>1740</ele>
        <time>2021-08-11T12:15:31.475Z</time>
      </trkpt>
      <trkpt lat="46.87507" lon="8.48893">
        <ele>1740</ele>
        <time>2021-08-11T12:15:33.213Z</time>
      </trkpt>
      <trkpt lat="46.87507" lon="8.48892">
        <ele>1740</ele>
        <time>2021-08-11T12:15:34.212Z</time>
      </trkpt>
      <trkpt lat="46.87506" lon="8.48891">
        <ele>1740</ele>
        <time>2021-08-11T12:15:35.213Z</time>
      </trkpt>
      <trkpt lat="46.87507" lon="8.48891">
        <ele>1739</ele>
        <time>2021-08-11T12:15:43.231Z</time>
      </trkpt>
      <trkpt lat="46.87507" lon="8.4889">
        <ele>1739</ele>
        <time>2021-08-11T12:15:44.232Z</time>
      </trkpt>
      <trkpt lat="46.87507" lon="8.4889">
        <ele>1739</ele>
        <time>2021-08-11T12:15:45.231Z</time>
      </trkpt>
      <trkpt lat="46.87507" lon="8.48889">
        <ele>1739</ele>
        <time>2021-08-11T12:15:46.232Z</time>
      </trkpt>
      <trkpt lat="46.87508" lon="8.48888">
        <ele>1738</ele>
        <time>2021-08-11T12:15:47.231Z</time>
      </trkpt>
      <trkpt lat="46.87508" lon="8.48888">
        <ele>1738</ele>
        <time>2021-08-11T12:15:48.231Z</time>
      </trkpt>
      <trkpt lat="46.87508" lon="8.48887">
        <ele>1738</ele>
        <time>2021-08-11T12:15:49.231Z</time>
      </trkpt>
      <trkpt lat="46.87507" lon="8.48886">
        <ele>1738</ele>
        <time>2021-08-11T12:15:50.232Z</time>
      </trkpt>
      <trkpt lat="46.87508" lon="8.48885">
        <ele>1738</ele>
        <time>2021-08-11T12:15:51.231Z</time>
      </trkpt>
      <trkpt lat="46.87508" lon="8.48885">
        <ele>1738</ele>
        <time>2021-08-11T12:15:52.231Z</time>
      </trkpt>
      <trkpt lat="46.87508" lon="8.48882">
        <ele>1738</ele>
        <time>2021-08-11T12:15:53.231Z</time>
      </trkpt>
      <trkpt lat="46.87506" lon="8.4888">
        <ele>1738</ele>
        <time>2021-08-11T12:15:54.231Z</time>
      </trkpt>
      <trkpt lat="46.87506" lon="8.48879">
        <ele>1738</ele>
        <time>2021-08-11T12:15:55.231Z</time>
      </trkpt>
      <trkpt lat="46.87506" lon="8.48878">
        <ele>1738</ele>
        <time>2021-08-11T12:15:56.231Z</time>
      </trkpt>
      <trkpt lat="46.87506" lon="8.48877">
        <ele>1738</ele>
        <time>2021-08-11T12:15:57.232Z</time>
      </trkpt>
      <trkpt lat="46.87506" lon="8.48877">
        <ele>1738</ele>
        <time>2021-08-11T12:15:58.231Z</time>
      </trkpt>
      <trkpt lat="46.87506" lon="8.48876">
        <ele>1738</ele>
        <time>2021-08-11T12:15:59.231Z</time>
      </trkpt>
      <trkpt lat="46.87507" lon="8.48875">
        <ele>1738</ele>
        <time>2021-08-11T12:16:00.231Z</time>
      </trkpt>
      <trkpt lat="46.87507" lon="8.48874">
        <ele>1738</ele>
        <time>2021-08-11T12:16:01.231Z</time>
      </trkpt>
      <trkpt lat="46.87507" lon="8.48873">
        <ele>1738</ele>
        <time>2021-08-11T12:16:02.232Z</time>
      </trkpt>
      <trkpt lat="46.87507" lon="8.48873">
        <ele>1738</ele>
        <time>2021-08-11T12:16:03.231Z</time>
      </trkpt>
      <trkpt lat="46.87508" lon="8.48872">
        <ele>1739</ele>
        <time>2021-08-11T12:16:04.231Z</time>
      </trkpt>
      <trkpt lat="46.87508" lon="8.48871">
        <ele>1739</ele>
        <time>2021-08-11T12:16:05.231Z</time>
      </trkpt>
      <trkpt lat="46.87508" lon="8.48871">
        <ele>1739</ele>
        <time>2021-08-11T12:16:06.231Z</time>
      </trkpt>
      <trkpt lat="46.87508" lon="8.4887">
        <ele>1740</ele>
        <time>2021-08-11T12:16:07.231Z</time>
      </trkpt>
      <trkpt lat="46.87508" lon="8.4887">
        <ele>1740</ele>
        <time>2021-08-11T12:16:08.231Z</time>
      </trkpt>
      <trkpt lat="46.87507" lon="8.48869">
        <ele>1741</ele>
        <time>2021-08-11T12:16:09.231Z</time>
      </trkpt>
      <trkpt lat="46.87507" lon="8.48868">
        <ele>1742</ele>
        <time>2021-08-11T12:16:10.231Z</time>
      </trkpt>
      <trkpt lat="46.87507" lon="8.48868">
        <ele>1742</ele>
        <time>2021-08-11T12:16:11.231Z</time>
      </trkpt>
      <trkpt lat="46.87508" lon="8.48867">
        <ele>1742</ele>
        <time>2021-08-11T12:16:12.231Z</time>
      </trkpt>
      <trkpt lat="46.87508" lon="8.48866">
        <ele>1743</ele>
        <time>2021-08-11T12:16:13.231Z</time>
      </trkpt>
      <trkpt lat="46.87508" lon="8.48865">
        <ele>1743</ele>
        <time>2021-08-11T12:16:14.231Z</time>
      </trkpt>
      <trkpt lat="46.87507" lon="8.48863">
        <ele>1743</ele>
        <time>2021-08-11T12:16:15.231Z</time>
      </trkpt>
      <trkpt lat="46.87507" lon="8.48862">
        <ele>1743</ele>
        <time>2021-08-11T12:16:16.231Z</time>
      </trkpt>
      <trkpt lat="46.87507" lon="8.48861">
        <ele>1744</ele>
        <time>2021-08-11T12:16:22.264Z</time>
      </trkpt>
      <trkpt lat="46.87507" lon="8.4886">
        <ele>1744</ele>
        <time>2021-08-11T12:16:23.264Z</time>
      </trkpt>
      <trkpt lat="46.87507" lon="8.48859">
        <ele>1744</ele>
        <time>2021-08-11T12:16:24.264Z</time>
      </trkpt>
      <trkpt lat="46.87507" lon="8.48858">
        <ele>1745</ele>
        <time>2021-08-11T12:16:25.263Z</time>
      </trkpt>
      <trkpt lat="46.87507" lon="8.48857">
        <ele>1745</ele>
        <time>2021-08-11T12:16:30.376Z</time>
      </trkpt>
      <trkpt lat="46.87507" lon="8.48856">
        <ele>1745</ele>
        <time>2021-08-11T12:16:31.376Z</time>
      </trkpt>
      <trkpt lat="46.87506" lon="8.48856">
        <ele>1745</ele>
        <time>2021-08-11T12:16:32.375Z</time>
      </trkpt>
      <trkpt lat="46.87506" lon="8.48855">
        <ele>1745</ele>
        <time>2021-08-11T12:16:33.376Z</time>
      </trkpt>
      <trkpt lat="46.87506" lon="8.48854">
        <ele>1745</ele>
        <time>2021-08-11T12:16:34.375Z</time>
      </trkpt>
      <trkpt lat="46.87506" lon="8.48853">
        <ele>1746</ele>
        <time>2021-08-11T12:16:35.376Z</time>
      </trkpt>
      <trkpt lat="46.87506" lon="8.48852">
        <ele>1746</ele>
        <time>2021-08-11T12:16:36.375Z</time>
      </trkpt>
      <trkpt lat="46.87506" lon="8.48851">
        <ele>1746</ele>
        <time>2021-08-11T12:16:37.375Z</time>
      </trkpt>
      <trkpt lat="46.87505" lon="8.4885">
        <ele>1746</ele>
        <time>2021-08-11T12:16:38.375Z</time>
      </trkpt>
      <trkpt lat="46.87505" lon="8.48849">
        <ele>1746</ele>
        <time>2021-08-11T12:16:39.376Z</time>
      </trkpt>
      <trkpt lat="46.87505" lon="8.48848">
        <ele>1746</ele>
        <time>2021-08-11T12:16:40.376Z</time>
      </trkpt>
      <trkpt lat="46.87505" lon="8.48848">
        <ele>1747</ele>
        <time>2021-08-11T12:16:41.375Z</time>
      </trkpt>
      <trkpt lat="46.87505" lon="8.48847">
        <ele>1747</ele>
        <time>2021-08-11T12:16:42.375Z</time>
      </trkpt>
      <trkpt lat="46.87505" lon="8.48846">
        <ele>1747</ele>
        <time>2021-08-11T12:16:43.375Z</time>
      </trkpt>
      <trkpt lat="46.87505" lon="8.48845">
        <ele>1748</ele>
        <time>2021-08-11T12:16:44.376Z</time>
      </trkpt>
      <trkpt lat="46.87504" lon="8.48843">
        <ele>1748</ele>
        <time>2021-08-11T12:16:45.376Z</time>
      </trkpt>
      <trkpt lat="46.87504" lon="8.48843">
        <ele>1748</ele>
        <time>2021-08-11T12:16:46.375Z</time>
      </trkpt>
      <trkpt lat="46.87505" lon="8.48842">
        <ele>1749</ele>
        <time>2021-08-11T12:16:47.375Z</time>
      </trkpt>
      <trkpt lat="46.87505" lon="8.48841">
        <ele>1749</ele>
        <time>2021-08-11T12:16:48.376Z</time>
      </trkpt>
      <trkpt lat="46.87505" lon="8.48841">
        <ele>1750</ele>
        <time>2021-08-11T12:16:49.376Z</time>
      </trkpt>
      <trkpt lat="46.87505" lon="8.48839">
        <ele>1750</ele>
        <time>2021-08-11T12:16:50.376Z</time>
      </trkpt>
      <trkpt lat="46.87504" lon="8.48838">
        <ele>1750</ele>
        <time>2021-08-11T12:16:51.376Z</time>
      </trkpt>
      <trkpt lat="46.87503" lon="8.48837">
        <ele>1751</ele>
        <time>2021-08-11T12:16:52.375Z</time>
      </trkpt>
      <trkpt lat="46.87503" lon="8.48836">
        <ele>1751</ele>
        <time>2021-08-11T12:16:53.376Z</time>
      </trkpt>
      <trkpt lat="46.87503" lon="8.48835">
        <ele>1751</ele>
        <time>2021-08-11T12:16:54.376Z</time>
      </trkpt>
      <trkpt lat="46.87503" lon="8.48835">
        <ele>1751</ele>
        <time>2021-08-11T12:16:55.376Z</time>
      </trkpt>
      <trkpt lat="46.87503" lon="8.48834">
        <ele>1751</ele>
        <time>2021-08-11T12:16:56.375Z</time>
      </trkpt>
      <trkpt lat="46.87503" lon="8.48833">
        <ele>1751</ele>
        <time>2021-08-11T12:16:57.376Z</time>
      </trkpt>
      <trkpt lat="46.87503" lon="8.48832">
        <ele>1751</ele>
        <time>2021-08-11T12:16:58.376Z</time>
      </trkpt>
      <trkpt lat="46.87503" lon="8.48831">
        <ele>1751</ele>
        <time>2021-08-11T12:16:59.376Z</time>
      </trkpt>
      <trkpt lat="46.87504" lon="8.4883">
        <ele>1751</ele>
        <time>2021-08-11T12:17:00.376Z</time>
      </trkpt>
      <trkpt lat="46.87503" lon="8.48829">
        <ele>1752</ele>
        <time>2021-08-11T12:17:01.375Z</time>
      </trkpt>
      <trkpt lat="46.87503" lon="8.48829">
        <ele>1752</ele>
        <time>2021-08-11T12:17:02.375Z</time>
      </trkpt>
      <trkpt lat="46.87503" lon="8.48828">
        <ele>1752</ele>
        <time>2021-08-11T12:17:03.376Z</time>
      </trkpt>
      <trkpt lat="46.87503" lon="8.48827">
        <ele>1752</ele>
        <time>2021-08-11T12:17:04.376Z</time>
      </trkpt>
      <trkpt lat="46.87503" lon="8.48826">
        <ele>1752</ele>
        <time>2021-08-11T12:17:05.376Z</time>
      </trkpt>
      <trkpt lat="46.87503" lon="8.48826">
        <ele>1752</ele>
        <time>2021-08-11T12:17:06.375Z</time>
      </trkpt>
      <trkpt lat="46.87503" lon="8.48825">
        <ele>1752</ele>
        <time>2021-08-11T12:17:07.375Z</time>
      </trkpt>
      <trkpt lat="46.87503" lon="8.48825">
        <ele>1752</ele>
        <time>2021-08-11T12:17:08.376Z</time>
      </trkpt>
      <trkpt lat="46.87504" lon="8.48824">
        <ele>1752</ele>
        <time>2021-08-11T12:17:09.376Z</time>
      </trkpt>
      <trkpt lat="46.87504" lon="8.48824">
        <ele>1752</ele>
        <time>2021-08-11T12:17:10.375Z</time>
      </trkpt>
      <trkpt lat="46.87504" lon="8.48823">
        <ele>1752</ele>
        <time>2021-08-11T12:17:11.375Z</time>
      </trkpt>
      <trkpt lat="46.87504" lon="8.48822">
        <ele>1752</ele>
        <time>2021-08-11T12:17:12.376Z</time>
      </trkpt>
      <trkpt lat="46.87504" lon="8.48822">
        <ele>1752</ele>
        <time>2021-08-11T12:17:13.376Z</time>
      </trkpt>
      <trkpt lat="46.87504" lon="8.48822">
        <ele>1752</ele>
        <time>2021-08-11T12:17:14.376Z</time>
      </trkpt>
      <trkpt lat="46.87505" lon="8.48822">
        <ele>1752</ele>
        <time>2021-08-11T12:17:15.375Z</time>
      </trkpt>
      <trkpt lat="46.87505" lon="8.48823">
        <ele>1752</ele>
        <time>2021-08-11T12:17:16.376Z</time>
      </trkpt>
      <trkpt lat="46.87506" lon="8.48823">
        <ele>1753</ele>
        <time>2021-08-11T12:17:17.376Z</time>
      </trkpt>
      <trkpt lat="46.87506" lon="8.48824">
        <ele>1753</ele>
        <time>2021-08-11T12:17:18.376Z</time>
      </trkpt>
      <trkpt lat="46.87507" lon="8.48824">
        <ele>1753</ele>
        <time>2021-08-11T12:17:38.374Z</time>
      </trkpt>
      <trkpt lat="46.87508" lon="8.48825">
        <ele>1754</ele>
        <time>2021-08-11T12:17:39.375Z</time>
      </trkpt>
      <trkpt lat="46.87508" lon="8.48825">
        <ele>1754</ele>
        <time>2021-08-11T12:17:40.375Z</time>
      </trkpt>
      <trkpt lat="46.87508" lon="8.48826">
        <ele>1754</ele>
        <time>2021-08-11T12:17:41.374Z</time>
      </trkpt>
      <trkpt lat="46.87509" lon="8.48826">
        <ele>1754</ele>
        <time>2021-08-11T12:17:42.375Z</time>
      </trkpt>
      <trkpt lat="46.87509" lon="8.48828">
        <ele>1754</ele>
        <time>2021-08-11T12:17:43.374Z</time>
      </trkpt>
      <trkpt lat="46.87509" lon="8.48829">
        <ele>1754</ele>
        <time>2021-08-11T12:17:44.375Z</time>
      </trkpt>
      <trkpt lat="46.8751" lon="8.4883">
        <ele>1754</ele>
        <time>2021-08-11T12:17:45.374Z</time>
      </trkpt>
      <trkpt lat="46.87511" lon="8.48831">
        <ele>1754</ele>
        <time>2021-08-11T12:17:46.375Z</time>
      </trkpt>
      <trkpt lat="46.87511" lon="8.48833">
        <ele>1754</ele>
        <time>2021-08-11T12:17:47.374Z</time>
      </trkpt>
      <trkpt lat="46.87512" lon="8.48834">
        <ele>1754</ele>
        <time>2021-08-11T12:17:48.374Z</time>
      </trkpt>
      <trkpt lat="46.87512" lon="8.48834">
        <ele>1754</ele>
        <time>2021-08-11T12:17:49.374Z</time>
      </trkpt>
      <trkpt lat="46.87512" lon="8.48834">
        <ele>1754</ele>
        <time>2021-08-11T12:17:50.374Z</time>
      </trkpt>
      <trkpt lat="46.87512" lon="8.48834">
        <ele>1754</ele>
        <time>2021-08-11T12:17:51.374Z</time>
      </trkpt>
      <trkpt lat="46.87512" lon="8.48835">
        <ele>1754</ele>
        <time>2021-08-11T12:17:52.374Z</time>
      </trkpt>
      <trkpt lat="46.87513" lon="8.48836">
        <ele>1754</ele>
        <time>2021-08-11T12:17:53.375Z</time>
      </trkpt>
      <trkpt lat="46.87513" lon="8.48838">
        <ele>1754</ele>
        <time>2021-08-11T12:17:54.375Z</time>
      </trkpt>
      <trkpt lat="46.87514" lon="8.48839">
        <ele>1754</ele>
        <time>2021-08-11T12:17:55.375Z</time>
      </trkpt>
      <trkpt lat="46.87515" lon="8.4884">
        <ele>1754</ele>
        <time>2021-08-11T12:17:56.374Z</time>
      </trkpt>
      <trkpt lat="46.87516" lon="8.48841">
        <ele>1754</ele>
        <time>2021-08-11T12:17:57.374Z</time>
      </trkpt>
      <trkpt lat="46.87516" lon="8.48842">
        <ele>1753</ele>
        <time>2021-08-11T12:17:58.375Z</time>
      </trkpt>
      <trkpt lat="46.87516" lon="8.48842">
        <ele>1753</ele>
        <time>2021-08-11T12:17:59.374Z</time>
      </trkpt>
      <trkpt lat="46.87517" lon="8.48843">
        <ele>1753</ele>
        <time>2021-08-11T12:18:00.375Z</time>
      </trkpt>
      <trkpt lat="46.87516" lon="8.48843">
        <ele>1753</ele>
        <time>2021-08-11T12:18:01.374Z</time>
      </trkpt>
      <trkpt lat="46.87516" lon="8.48844">
        <ele>1753</ele>
        <time>2021-08-11T12:18:02.375Z</time>
      </trkpt>
      <trkpt lat="46.87517" lon="8.48844">
        <ele>1753</ele>
        <time>2021-08-11T12:18:03.375Z</time>
      </trkpt>
      <trkpt lat="46.87518" lon="8.48845">
        <ele>1753</ele>
        <time>2021-08-11T12:18:04.375Z</time>
      </trkpt>
      <trkpt lat="46.87518" lon="8.48845">
        <ele>1753</ele>
        <time>2021-08-11T12:18:05.375Z</time>
      </trkpt>
      <trkpt lat="46.87518" lon="8.48846">
        <ele>1753</ele>
        <time>2021-08-11T12:18:06.374Z</time>
      </trkpt>
      <trkpt lat="46.87519" lon="8.48847">
        <ele>1753</ele>
        <time>2021-08-11T12:18:07.375Z</time>
      </trkpt>
      <trkpt lat="46.87519" lon="8.48848">
        <ele>1753</ele>
        <time>2021-08-11T12:18:08.375Z</time>
      </trkpt>
      <trkpt lat="46.87519" lon="8.48849">
        <ele>1753</ele>
        <time>2021-08-11T12:18:09.375Z</time>
      </trkpt>
      <trkpt lat="46.87519" lon="8.4885">
        <ele>1753</ele>
        <time>2021-08-11T12:18:10.374Z</time>
      </trkpt>
      <trkpt lat="46.87519" lon="8.4885">
        <ele>1752</ele>
        <time>2021-08-11T12:18:11.374Z</time>
      </trkpt>
      <trkpt lat="46.87519" lon="8.4885">
        <ele>1752</ele>
        <time>2021-08-11T12:18:12.375Z</time>
      </trkpt>
      <trkpt lat="46.87519" lon="8.48851">
        <ele>1752</ele>
        <time>2021-08-11T12:18:13.375Z</time>
      </trkpt>
      <trkpt lat="46.87519" lon="8.4885">
        <ele>1751</ele>
        <time>2021-08-11T12:18:14.375Z</time>
      </trkpt>
      <trkpt lat="46.87519" lon="8.48851">
        <ele>1751</ele>
        <time>2021-08-11T12:18:15.374Z</time>
      </trkpt>
      <trkpt lat="46.87519" lon="8.48852">
        <ele>1750</ele>
        <time>2021-08-11T12:18:16.375Z</time>
      </trkpt>
      <trkpt lat="46.8752" lon="8.48853">
        <ele>1750</ele>
        <time>2021-08-11T12:18:17.375Z</time>
      </trkpt>
      <trkpt lat="46.8752" lon="8.48854">
        <ele>1750</ele>
        <time>2021-08-11T12:18:18.375Z</time>
      </trkpt>
      <trkpt lat="46.8752" lon="8.48855">
        <ele>1749</ele>
        <time>2021-08-11T12:18:19.374Z</time>
      </trkpt>
      <trkpt lat="46.8752" lon="8.48855">
        <ele>1749</ele>
        <time>2021-08-11T12:18:20.375Z</time>
      </trkpt>
      <trkpt lat="46.87521" lon="8.48856">
        <ele>1750</ele>
        <time>2021-08-11T12:18:21.375Z</time>
      </trkpt>
      <trkpt lat="46.87522" lon="8.48858">
        <ele>1750</ele>
        <time>2021-08-11T12:18:22.375Z</time>
      </trkpt>
      <trkpt lat="46.87522" lon="8.48859">
        <ele>1750</ele>
        <time>2021-08-11T12:18:23.375Z</time>
      </trkpt>
      <trkpt lat="46.87522" lon="8.48861">
        <ele>1750</ele>
        <time>2021-08-11T12:18:24.374Z</time>
      </trkpt>
      <trkpt lat="46.87522" lon="8.48862">
        <ele>1751</ele>
        <time>2021-08-11T12:18:25.375Z</time>
      </trkpt>
      <trkpt lat="46.87523" lon="8.48864">
        <ele>1751</ele>
        <time>2021-08-11T12:18:26.374Z</time>
      </trkpt>
      <trkpt lat="46.87524" lon="8.48865">
        <ele>1751</ele>
        <time>2021-08-11T12:18:27.375Z</time>
      </trkpt>
      <trkpt lat="46.87525" lon="8.48866">
        <ele>1752</ele>
        <time>2021-08-11T12:18:28.374Z</time>
      </trkpt>
      <trkpt lat="46.87525" lon="8.48868">
        <ele>1752</ele>
        <time>2021-08-11T12:18:29.374Z</time>
      </trkpt>
      <trkpt lat="46.87526" lon="8.4887">
        <ele>1752</ele>
        <time>2021-08-11T12:18:30.375Z</time>
      </trkpt>
      <trkpt lat="46.87526" lon="8.48871">
        <ele>1753</ele>
        <time>2021-08-11T12:18:31.374Z</time>
      </trkpt>
      <trkpt lat="46.87526" lon="8.48871">
        <ele>1753</ele>
        <time>2021-08-11T12:18:32.375Z</time>
      </trkpt>
      <trkpt lat="46.87527" lon="8.48872">
        <ele>1753</ele>
        <time>2021-08-11T12:18:33.375Z</time>
      </trkpt>
      <trkpt lat="46.87527" lon="8.48873">
        <ele>1753</ele>
        <time>2021-08-11T12:18:34.375Z</time>
      </trkpt>
      <trkpt lat="46.87527" lon="8.48875">
        <ele>1753</ele>
        <time>2021-08-11T12:18:35.374Z</time>
      </trkpt>
      <trkpt lat="46.87528" lon="8.48877">
        <ele>1753</ele>
        <time>2021-08-11T12:18:36.374Z</time>
      </trkpt>
      <trkpt lat="46.87528" lon="8.48879">
        <ele>1753</ele>
        <time>2021-08-11T12:18:37.375Z</time>
      </trkpt>
      <trkpt lat="46.87528" lon="8.48881">
        <ele>1753</ele>
        <time>2021-08-11T12:18:38.374Z</time>
      </trkpt>
      <trkpt lat="46.87527" lon="8.48882">
        <ele>1753</ele>
        <time>2021-08-11T12:18:39.375Z</time>
      </trkpt>
      <trkpt lat="46.87529" lon="8.48884">
        <ele>1753</ele>
        <time>2021-08-11T12:18:40.374Z</time>
      </trkpt>
      <trkpt lat="46.8753" lon="8.48885">
        <ele>1753</ele>
        <time>2021-08-11T12:18:41.375Z</time>
      </trkpt>
      <trkpt lat="46.87531" lon="8.48886">
        <ele>1753</ele>
        <time>2021-08-11T12:18:42.375Z</time>
      </trkpt>
      <trkpt lat="46.87531" lon="8.48888">
        <ele>1754</ele>
        <time>2021-08-11T12:18:43.375Z</time>
      </trkpt>
      <trkpt lat="46.87532" lon="8.4889">
        <ele>1754</ele>
        <time>2021-08-11T12:18:44.375Z</time>
      </trkpt>
      <trkpt lat="46.87534" lon="8.48893">
        <ele>1754</ele>
        <time>2021-08-11T12:18:45.375Z</time>
      </trkpt>
      <trkpt lat="46.87536" lon="8.48894">
        <ele>1755</ele>
        <time>2021-08-11T12:18:46.375Z</time>
      </trkpt>
      <trkpt lat="46.87536" lon="8.48895">
        <ele>1755</ele>
        <time>2021-08-11T12:18:47.374Z</time>
      </trkpt>
      <trkpt lat="46.87536" lon="8.48895">
        <ele>1755</ele>
        <time>2021-08-11T12:18:48.375Z</time>
      </trkpt>
      <trkpt lat="46.87537" lon="8.48896">
        <ele>1756</ele>
        <time>2021-08-11T12:18:49.375Z</time>
      </trkpt>
      <trkpt lat="46.87537" lon="8.48897">
        <ele>1756</ele>
        <time>2021-08-11T12:18:50.375Z</time>
      </trkpt>
      <trkpt lat="46.87537" lon="8.48897">
        <ele>1756</ele>
        <time>2021-08-11T12:18:51.374Z</time>
      </trkpt>
      <trkpt lat="46.87537" lon="8.48898">
        <ele>1757</ele>
        <time>2021-08-11T12:18:52.375Z</time>
      </trkpt>
      <trkpt lat="46.87537" lon="8.48899">
        <ele>1757</ele>
        <time>2021-08-11T12:18:53.375Z</time>
      </trkpt>
      <trkpt lat="46.87538" lon="8.489">
        <ele>1758</ele>
        <time>2021-08-11T12:18:54.374Z</time>
      </trkpt>
      <trkpt lat="46.87538" lon="8.489">
        <ele>1758</ele>
        <time>2021-08-11T12:18:55.375Z</time>
      </trkpt>
      <trkpt lat="46.87538" lon="8.48901">
        <ele>1758</ele>
        <time>2021-08-11T12:18:56.374Z</time>
      </trkpt>
      <trkpt lat="46.87539" lon="8.48902">
        <ele>1759</ele>
        <time>2021-08-11T12:18:57.375Z</time>
      </trkpt>
      <trkpt lat="46.87539" lon="8.48903">
        <ele>1759</ele>
        <time>2021-08-11T12:18:58.375Z</time>
      </trkpt>
      <trkpt lat="46.8754" lon="8.48904">
        <ele>1760</ele>
        <time>2021-08-11T12:18:59.375Z</time>
      </trkpt>
      <trkpt lat="46.87541" lon="8.48905">
        <ele>1760</ele>
        <time>2021-08-11T12:19:00.374Z</time>
      </trkpt>
      <trkpt lat="46.87542" lon="8.48906">
        <ele>1760</ele>
        <time>2021-08-11T12:19:01.375Z</time>
      </trkpt>
      <trkpt lat="46.87543" lon="8.48907">
        <ele>1761</ele>
        <time>2021-08-11T12:19:02.375Z</time>
      </trkpt>
      <trkpt lat="46.87543" lon="8.48908">
        <ele>1761</ele>
        <time>2021-08-11T12:19:03.375Z</time>
      </trkpt>
      <trkpt lat="46.87543" lon="8.48909">
        <ele>1761</ele>
        <time>2021-08-11T12:19:04.375Z</time>
      </trkpt>
      <trkpt lat="46.87543" lon="8.48909">
        <ele>1762</ele>
        <time>2021-08-11T12:19:05.374Z</time>
      </trkpt>
      <trkpt lat="46.87543" lon="8.4891">
        <ele>1762</ele>
        <time>2021-08-11T12:19:06.375Z</time>
      </trkpt>
      <trkpt lat="46.87544" lon="8.48911">
        <ele>1763</ele>
        <time>2021-08-11T12:19:07.375Z</time>
      </trkpt>
      <trkpt lat="46.87545" lon="8.48912">
        <ele>1763</ele>
        <time>2021-08-11T12:19:08.375Z</time>
      </trkpt>
      <trkpt lat="46.87545" lon="8.48913">
        <ele>1764</ele>
        <time>2021-08-11T12:19:09.374Z</time>
      </trkpt>
      <trkpt lat="46.87546" lon="8.48914">
        <ele>1765</ele>
        <time>2021-08-11T12:19:10.375Z</time>
      </trkpt>
      <trkpt lat="46.87547" lon="8.48915">
        <ele>1765</ele>
        <time>2021-08-11T12:19:11.375Z</time>
      </trkpt>
      <trkpt lat="46.87547" lon="8.48915">
        <ele>1765</ele>
        <time>2021-08-11T12:19:12.375Z</time>
      </trkpt>
      <trkpt lat="46.87548" lon="8.48916">
        <ele>1765</ele>
        <time>2021-08-11T12:19:13.374Z</time>
      </trkpt>
      <trkpt lat="46.87548" lon="8.48917">
        <ele>1765</ele>
        <time>2021-08-11T12:19:14.375Z</time>
      </trkpt>
      <trkpt lat="46.87549" lon="8.48918">
        <ele>1765</ele>
        <time>2021-08-11T12:19:15.375Z</time>
      </trkpt>
      <trkpt lat="46.8755" lon="8.48918">
        <ele>1765</ele>
        <time>2021-08-11T12:19:16.375Z</time>
      </trkpt>
      <trkpt lat="46.8755" lon="8.48919">
        <ele>1765</ele>
        <time>2021-08-11T12:19:17.374Z</time>
      </trkpt>
      <trkpt lat="46.8755" lon="8.48919">
        <ele>1765</ele>
        <time>2021-08-11T12:19:18.374Z</time>
      </trkpt>
      <trkpt lat="46.87551" lon="8.4892">
        <ele>1765</ele>
        <time>2021-08-11T12:19:19.375Z</time>
      </trkpt>
      <trkpt lat="46.87551" lon="8.4892">
        <ele>1765</ele>
        <time>2021-08-11T12:19:20.374Z</time>
      </trkpt>
      <trkpt lat="46.87552" lon="8.4892">
        <ele>1765</ele>
        <time>2021-08-11T12:19:21.375Z</time>
      </trkpt>
      <trkpt lat="46.87553" lon="8.48921">
        <ele>1764</ele>
        <time>2021-08-11T12:19:22.375Z</time>
      </trkpt>
      <trkpt lat="46.87553" lon="8.48922">
        <ele>1764</ele>
        <time>2021-08-11T12:19:23.375Z</time>
      </trkpt>
      <trkpt lat="46.87554" lon="8.48924">
        <ele>1764</ele>
        <time>2021-08-11T12:19:24.374Z</time>
      </trkpt>
      <trkpt lat="46.87555" lon="8.48925">
        <ele>1764</ele>
        <time>2021-08-11T12:19:25.375Z</time>
      </trkpt>
      <trkpt lat="46.87556" lon="8.48925">
        <ele>1763</ele>
        <time>2021-08-11T12:19:26.375Z</time>
      </trkpt>
      <trkpt lat="46.87557" lon="8.48926">
        <ele>1763</ele>
        <time>2021-08-11T12:19:27.375Z</time>
      </trkpt>
      <trkpt lat="46.87558" lon="8.48927">
        <ele>1763</ele>
        <time>2021-08-11T12:19:28.374Z</time>
      </trkpt>
      <trkpt lat="46.87558" lon="8.48928">
        <ele>1763</ele>
        <time>2021-08-11T12:19:29.374Z</time>
      </trkpt>
      <trkpt lat="46.87559" lon="8.48929">
        <ele>1763</ele>
        <time>2021-08-11T12:19:30.374Z</time>
      </trkpt>
      <trkpt lat="46.8756" lon="8.4893">
        <ele>1762</ele>
        <time>2021-08-11T12:19:31.375Z</time>
      </trkpt>
      <trkpt lat="46.8756" lon="8.48931">
        <ele>1762</ele>
        <time>2021-08-11T12:19:32.374Z</time>
      </trkpt>
      <trkpt lat="46.87561" lon="8.48932">
        <ele>1762</ele>
        <time>2021-08-11T12:19:33.375Z</time>
      </trkpt>
      <trkpt lat="46.87561" lon="8.48932">
        <ele>1761</ele>
        <time>2021-08-11T12:19:34.375Z</time>
      </trkpt>
      <trkpt lat="46.87562" lon="8.48933">
        <ele>1761</ele>
        <time>2021-08-11T12:19:35.375Z</time>
      </trkpt>
      <trkpt lat="46.87562" lon="8.48934">
        <ele>1761</ele>
        <time>2021-08-11T12:19:36.374Z</time>
      </trkpt>
      <trkpt lat="46.87562" lon="8.48934">
        <ele>1761</ele>
        <time>2021-08-11T12:19:37.375Z</time>
      </trkpt>
      <trkpt lat="46.87562" lon="8.48934">
        <ele>1761</ele>
        <time>2021-08-11T12:19:38.375Z</time>
      </trkpt>
      <trkpt lat="46.87563" lon="8.48935">
        <ele>1761</ele>
        <time>2021-08-11T12:19:39.375Z</time>
      </trkpt>
      <trkpt lat="46.87564" lon="8.48936">
        <ele>1761</ele>
        <time>2021-08-11T12:19:40.375Z</time>
      </trkpt>
      <trkpt lat="46.87565" lon="8.48938">
        <ele>1761</ele>
        <time>2021-08-11T12:19:41.375Z</time>
      </trkpt>
      <trkpt lat="46.87567" lon="8.48939">
        <ele>1761</ele>
        <time>2021-08-11T12:19:42.375Z</time>
      </trkpt>
      <trkpt lat="46.87568" lon="8.48939">
        <ele>1762</ele>
        <time>2021-08-11T12:19:43.375Z</time>
      </trkpt>
      <trkpt lat="46.87569" lon="8.48939">
        <ele>1762</ele>
        <time>2021-08-11T12:19:44.374Z</time>
      </trkpt>
      <trkpt lat="46.8757" lon="8.48938">
        <ele>1763</ele>
        <time>2021-08-11T12:19:45.375Z</time>
      </trkpt>
      <trkpt lat="46.8757" lon="8.48938">
        <ele>1763</ele>
        <time>2021-08-11T12:19:46.375Z</time>
      </trkpt>
      <trkpt lat="46.87571" lon="8.48938">
        <ele>1763</ele>
        <time>2021-08-11T12:19:47.375Z</time>
      </trkpt>
      <trkpt lat="46.87572" lon="8.48937">
        <ele>1763</ele>
        <time>2021-08-11T12:19:48.374Z</time>
      </trkpt>
      <trkpt lat="46.87573" lon="8.48937">
        <ele>1763</ele>
        <time>2021-08-11T12:19:49.375Z</time>
      </trkpt>
      <trkpt lat="46.87573" lon="8.48937">
        <ele>1763</ele>
        <time>2021-08-11T12:19:50.374Z</time>
      </trkpt>
      <trkpt lat="46.87574" lon="8.48936">
        <ele>1763</ele>
        <time>2021-08-11T12:19:51.374Z</time>
      </trkpt>
      <trkpt lat="46.87574" lon="8.48935">
        <ele>1763</ele>
        <time>2021-08-11T12:19:52.375Z</time>
      </trkpt>
      <trkpt lat="46.87574" lon="8.48934">
        <ele>1763</ele>
        <time>2021-08-11T12:19:53.375Z</time>
      </trkpt>
      <trkpt lat="46.87574" lon="8.48933">
        <ele>1763</ele>
        <time>2021-08-11T12:19:54.375Z</time>
      </trkpt>
      <trkpt lat="46.87574" lon="8.48932">
        <ele>1763</ele>
        <time>2021-08-11T12:19:55.375Z</time>
      </trkpt>
      <trkpt lat="46.87574" lon="8.48931">
        <ele>1763</ele>
        <time>2021-08-11T12:19:56.375Z</time>
      </trkpt>
      <trkpt lat="46.87574" lon="8.48929">
        <ele>1763</ele>
        <time>2021-08-11T12:19:57.374Z</time>
      </trkpt>
      <trkpt lat="46.87574" lon="8.48928">
        <ele>1764</ele>
        <time>2021-08-11T12:19:58.374Z</time>
      </trkpt>
      <trkpt lat="46.87574" lon="8.48927">
        <ele>1764</ele>
        <time>2021-08-11T12:19:59.375Z</time>
      </trkpt>
      <trkpt lat="46.87574" lon="8.48925">
        <ele>1765</ele>
        <time>2021-08-11T12:20:00.374Z</time>
      </trkpt>
      <trkpt lat="46.87573" lon="8.48924">
        <ele>1765</ele>
        <time>2021-08-11T12:20:01.374Z</time>
      </trkpt>
      <trkpt lat="46.87572" lon="8.48921">
        <ele>1765</ele>
        <time>2021-08-11T12:20:02.374Z</time>
      </trkpt>
      <trkpt lat="46.87572" lon="8.4892">
        <ele>1766</ele>
        <time>2021-08-11T12:20:03.374Z</time>
      </trkpt>
      <trkpt lat="46.87572" lon="8.48918">
        <ele>1766</ele>
        <time>2021-08-11T12:20:04.375Z</time>
      </trkpt>
      <trkpt lat="46.87572" lon="8.48917">
        <ele>1766</ele>
        <time>2021-08-11T12:20:05.375Z</time>
      </trkpt>
      <trkpt lat="46.87571" lon="8.48915">
        <ele>1767</ele>
        <time>2021-08-11T12:20:06.375Z</time>
      </trkpt>
      <trkpt lat="46.8757" lon="8.48913">
        <ele>1767</ele>
        <time>2021-08-11T12:20:07.375Z</time>
      </trkpt>
      <trkpt lat="46.87569" lon="8.48911">
        <ele>1767</ele>
        <time>2021-08-11T12:20:08.375Z</time>
      </trkpt>
      <trkpt lat="46.87569" lon="8.4891">
        <ele>1767</ele>
        <time>2021-08-11T12:20:09.375Z</time>
      </trkpt>
      <trkpt lat="46.8757" lon="8.48909">
        <ele>1767</ele>
        <time>2021-08-11T12:20:10.374Z</time>
      </trkpt>
      <trkpt lat="46.87571" lon="8.48907">
        <ele>1768</ele>
        <time>2021-08-11T12:20:11.375Z</time>
      </trkpt>
      <trkpt lat="46.87572" lon="8.48906">
        <ele>1768</ele>
        <time>2021-08-11T12:20:12.374Z</time>
      </trkpt>
      <trkpt lat="46.87572" lon="8.48905">
        <ele>1769</ele>
        <time>2021-08-11T12:20:13.375Z</time>
      </trkpt>
      <trkpt lat="46.87571" lon="8.48904">
        <ele>1769</ele>
        <time>2021-08-11T12:20:14.374Z</time>
      </trkpt>
      <trkpt lat="46.87571" lon="8.48903">
        <ele>1770</ele>
        <time>2021-08-11T12:20:15.374Z</time>
      </trkpt>
      <trkpt lat="46.87571" lon="8.48901">
        <ele>1770</ele>
        <time>2021-08-11T12:20:16.375Z</time>
      </trkpt>
      <trkpt lat="46.8757" lon="8.489">
        <ele>1771</ele>
        <time>2021-08-11T12:20:17.375Z</time>
      </trkpt>
      <trkpt lat="46.8757" lon="8.48899">
        <ele>1771</ele>
        <time>2021-08-11T12:20:18.374Z</time>
      </trkpt>
      <trkpt lat="46.8757" lon="8.48898">
        <ele>1771</ele>
        <time>2021-08-11T12:20:19.374Z</time>
      </trkpt>
      <trkpt lat="46.87569" lon="8.48897">
        <ele>1771</ele>
        <time>2021-08-11T12:20:20.375Z</time>
      </trkpt>
      <trkpt lat="46.8757" lon="8.48896">
        <ele>1771</ele>
        <time>2021-08-11T12:20:21.375Z</time>
      </trkpt>
      <trkpt lat="46.87569" lon="8.48894">
        <ele>1771</ele>
        <time>2021-08-11T12:20:22.375Z</time>
      </trkpt>
      <trkpt lat="46.87569" lon="8.48893">
        <ele>1771</ele>
        <time>2021-08-11T12:20:23.375Z</time>
      </trkpt>
      <trkpt lat="46.87568" lon="8.48891">
        <ele>1772</ele>
        <time>2021-08-11T12:20:24.374Z</time>
      </trkpt>
      <trkpt lat="46.87568" lon="8.4889">
        <ele>1772</ele>
        <time>2021-08-11T12:20:25.375Z</time>
      </trkpt>
      <trkpt lat="46.87568" lon="8.48889">
        <ele>1773</ele>
        <time>2021-08-11T12:20:26.375Z</time>
      </trkpt>
      <trkpt lat="46.87568" lon="8.48887">
        <ele>1773</ele>
        <time>2021-08-11T12:20:27.374Z</time>
      </trkpt>
      <trkpt lat="46.87568" lon="8.48886">
        <ele>1774</ele>
        <time>2021-08-11T12:20:28.375Z</time>
      </trkpt>
      <trkpt lat="46.87568" lon="8.48885">
        <ele>1774</ele>
        <time>2021-08-11T12:20:29.374Z</time>
      </trkpt>
      <trkpt lat="46.87568" lon="8.48884">
        <ele>1774</ele>
        <time>2021-08-11T12:20:30.375Z</time>
      </trkpt>
      <trkpt lat="46.87568" lon="8.48884">
        <ele>1774</ele>
        <time>2021-08-11T12:20:31.375Z</time>
      </trkpt>
      <trkpt lat="46.87568" lon="8.48882">
        <ele>1774</ele>
        <time>2021-08-11T12:20:32.375Z</time>
      </trkpt>
      <trkpt lat="46.87568" lon="8.48881">
        <ele>1774</ele>
        <time>2021-08-11T12:20:33.375Z</time>
      </trkpt>
      <trkpt lat="46.87568" lon="8.48881">
        <ele>1774</ele>
        <time>2021-08-11T12:20:34.375Z</time>
      </trkpt>
      <trkpt lat="46.87568" lon="8.4888">
        <ele>1774</ele>
        <time>2021-08-11T12:20:35.375Z</time>
      </trkpt>
      <trkpt lat="46.87568" lon="8.48879">
        <ele>1774</ele>
        <time>2021-08-11T12:20:36.375Z</time>
      </trkpt>
      <trkpt lat="46.87568" lon="8.48879">
        <ele>1773</ele>
        <time>2021-08-11T12:20:37.375Z</time>
      </trkpt>
      <trkpt lat="46.87568" lon="8.48879">
        <ele>1774</ele>
        <time>2021-08-11T12:20:38.375Z</time>
      </trkpt>
      <trkpt lat="46.87567" lon="8.48878">
        <ele>1773</ele>
        <time>2021-08-11T12:20:39.375Z</time>
      </trkpt>
      <trkpt lat="46.87567" lon="8.48878">
        <ele>1773</ele>
        <time>2021-08-11T12:20:40.375Z</time>
      </trkpt>
      <trkpt lat="46.87566" lon="8.48877">
        <ele>1773</ele>
        <time>2021-08-11T12:20:41.374Z</time>
      </trkpt>
      <trkpt lat="46.87566" lon="8.48877">
        <ele>1772</ele>
        <time>2021-08-11T12:20:42.375Z</time>
      </trkpt>
      <trkpt lat="46.87565" lon="8.48876">
        <ele>1772</ele>
        <time>2021-08-11T12:20:43.374Z</time>
      </trkpt>
      <trkpt lat="46.87565" lon="8.48875">
        <ele>1771</ele>
        <time>2021-08-11T12:20:44.374Z</time>
      </trkpt>
      <trkpt lat="46.87565" lon="8.48873">
        <ele>1771</ele>
        <time>2021-08-11T12:20:45.374Z</time>
      </trkpt>
      <trkpt lat="46.87564" lon="8.48871">
        <ele>1771</ele>
        <time>2021-08-11T12:20:46.374Z</time>
      </trkpt>
      <trkpt lat="46.87564" lon="8.4887">
        <ele>1771</ele>
        <time>2021-08-11T12:20:47.374Z</time>
      </trkpt>
      <trkpt lat="46.87564" lon="8.48869">
        <ele>1770</ele>
        <time>2021-08-11T12:20:48.374Z</time>
      </trkpt>
      <trkpt lat="46.87564" lon="8.48868">
        <ele>1770</ele>
        <time>2021-08-11T12:20:49.374Z</time>
      </trkpt>
      <trkpt lat="46.87564" lon="8.48868">
        <ele>1770</ele>
        <time>2021-08-11T12:20:50.374Z</time>
      </trkpt>
      <trkpt lat="46.87564" lon="8.48866">
        <ele>1769</ele>
        <time>2021-08-11T12:20:51.374Z</time>
      </trkpt>
      <trkpt lat="46.87564" lon="8.48865">
        <ele>1769</ele>
        <time>2021-08-11T12:20:52.375Z</time>
      </trkpt>
      <trkpt lat="46.87564" lon="8.48864">
        <ele>1769</ele>
        <time>2021-08-11T12:20:53.374Z</time>
      </trkpt>
      <trkpt lat="46.87564" lon="8.48863">
        <ele>1769</ele>
        <time>2021-08-11T12:20:54.374Z</time>
      </trkpt>
      <trkpt lat="46.87564" lon="8.48861">
        <ele>1769</ele>
        <time>2021-08-11T12:20:55.374Z</time>
      </trkpt>
      <trkpt lat="46.87564" lon="8.48859">
        <ele>1770</ele>
        <time>2021-08-11T12:20:56.374Z</time>
      </trkpt>
      <trkpt lat="46.87564" lon="8.48858">
        <ele>1770</ele>
        <time>2021-08-11T12:20:57.375Z</time>
      </trkpt>
      <trkpt lat="46.87564" lon="8.48856">
        <ele>1770</ele>
        <time>2021-08-11T12:20:58.375Z</time>
      </trkpt>
      <trkpt lat="46.87565" lon="8.48855">
        <ele>1770</ele>
        <time>2021-08-11T12:20:59.375Z</time>
      </trkpt>
      <trkpt lat="46.87565" lon="8.48853">
        <ele>1771</ele>
        <time>2021-08-11T12:21:00.375Z</time>
      </trkpt>
      <trkpt lat="46.87564" lon="8.48851">
        <ele>1772</ele>
        <time>2021-08-11T12:21:01.375Z</time>
      </trkpt>
      <trkpt lat="46.87564" lon="8.48849">
        <ele>1772</ele>
        <time>2021-08-11T12:21:02.375Z</time>
      </trkpt>
      <trkpt lat="46.87564" lon="8.48847">
        <ele>1772</ele>
        <time>2021-08-11T12:21:03.375Z</time>
      </trkpt>
      <trkpt lat="46.87564" lon="8.48846">
        <ele>1772</ele>
        <time>2021-08-11T12:21:04.375Z</time>
      </trkpt>
      <trkpt lat="46.87564" lon="8.48844">
        <ele>1773</ele>
        <time>2021-08-11T12:21:05.374Z</time>
      </trkpt>
      <trkpt lat="46.87564" lon="8.48843">
        <ele>1773</ele>
        <time>2021-08-11T12:21:06.375Z</time>
      </trkpt>
      <trkpt lat="46.87563" lon="8.48841">
        <ele>1773</ele>
        <time>2021-08-11T12:21:07.375Z</time>
      </trkpt>
      <trkpt lat="46.87563" lon="8.48839">
        <ele>1774</ele>
        <time>2021-08-11T12:21:08.375Z</time>
      </trkpt>
      <trkpt lat="46.87564" lon="8.48838">
        <ele>1774</ele>
        <time>2021-08-11T12:21:09.375Z</time>
      </trkpt>
      <trkpt lat="46.87564" lon="8.48837">
        <ele>1774</ele>
        <time>2021-08-11T12:21:10.374Z</time>
      </trkpt>
      <trkpt lat="46.87564" lon="8.48836">
        <ele>1773</ele>
        <time>2021-08-11T12:21:11.375Z</time>
      </trkpt>
      <trkpt lat="46.87564" lon="8.48835">
        <ele>1773</ele>
        <time>2021-08-11T12:21:12.374Z</time>
      </trkpt>
      <trkpt lat="46.87565" lon="8.48834">
        <ele>1773</ele>
        <time>2021-08-11T12:21:13.375Z</time>
      </trkpt>
      <trkpt lat="46.87565" lon="8.48833">
        <ele>1772</ele>
        <time>2021-08-11T12:21:14.375Z</time>
      </trkpt>
      <trkpt lat="46.87565" lon="8.48832">
        <ele>1771</ele>
        <time>2021-08-11T12:21:15.375Z</time>
      </trkpt>
      <trkpt lat="46.87566" lon="8.48831">
        <ele>1771</ele>
        <time>2021-08-11T12:21:16.375Z</time>
      </trkpt>
      <trkpt lat="46.87566" lon="8.4883">
        <ele>1770</ele>
        <time>2021-08-11T12:21:17.375Z</time>
      </trkpt>
      <trkpt lat="46.87566" lon="8.48828">
        <ele>1770</ele>
        <time>2021-08-11T12:21:18.375Z</time>
      </trkpt>
      <trkpt lat="46.87567" lon="8.48827">
        <ele>1769</ele>
        <time>2021-08-11T12:21:19.375Z</time>
      </trkpt>
      <trkpt lat="46.87568" lon="8.48826">
        <ele>1769</ele>
        <time>2021-08-11T12:21:20.375Z</time>
      </trkpt>
      <trkpt lat="46.87569" lon="8.48825">
        <ele>1769</ele>
        <time>2021-08-11T12:21:21.374Z</time>
      </trkpt>
      <trkpt lat="46.87569" lon="8.48824">
        <ele>1769</ele>
        <time>2021-08-11T12:21:22.374Z</time>
      </trkpt>
      <trkpt lat="46.87569" lon="8.48823">
        <ele>1769</ele>
        <time>2021-08-11T12:21:23.375Z</time>
      </trkpt>
      <trkpt lat="46.8757" lon="8.48823">
        <ele>1769</ele>
        <time>2021-08-11T12:21:24.374Z</time>
      </trkpt>
      <trkpt lat="46.8757" lon="8.48822">
        <ele>1768</ele>
        <time>2021-08-11T12:21:25.375Z</time>
      </trkpt>
      <trkpt lat="46.87571" lon="8.48821">
        <ele>1768</ele>
        <time>2021-08-11T12:21:26.374Z</time>
      </trkpt>
      <trkpt lat="46.87571" lon="8.48821">
        <ele>1768</ele>
        <time>2021-08-11T12:21:27.375Z</time>
      </trkpt>
      <trkpt lat="46.87572" lon="8.48819">
        <ele>1768</ele>
        <time>2021-08-11T12:21:28.374Z</time>
      </trkpt>
      <trkpt lat="46.87572" lon="8.48818">
        <ele>1768</ele>
        <time>2021-08-11T12:21:29.375Z</time>
      </trkpt>
      <trkpt lat="46.87574" lon="8.48819">
        <ele>1769</ele>
        <time>2021-08-11T12:21:30.375Z</time>
      </trkpt>
      <trkpt lat="46.87575" lon="8.48818">
        <ele>1769</ele>
        <time>2021-08-11T12:21:31.374Z</time>
      </trkpt>
      <trkpt lat="46.87576" lon="8.48817">
        <ele>1769</ele>
        <time>2021-08-11T12:21:32.375Z</time>
      </trkpt>
      <trkpt lat="46.87576" lon="8.48817">
        <ele>1769</ele>
        <time>2021-08-11T12:21:33.374Z</time>
      </trkpt>
      <trkpt lat="46.87576" lon="8.48816">
        <ele>1768</ele>
        <time>2021-08-11T12:21:34.375Z</time>
      </trkpt>
      <trkpt lat="46.87577" lon="8.48816">
        <ele>1768</ele>
        <time>2021-08-11T12:21:35.375Z</time>
      </trkpt>
      <trkpt lat="46.87578" lon="8.48815">
        <ele>1768</ele>
        <time>2021-08-11T12:21:36.374Z</time>
      </trkpt>
      <trkpt lat="46.87578" lon="8.48815">
        <ele>1767</ele>
        <time>2021-08-11T12:21:37.375Z</time>
      </trkpt>
      <trkpt lat="46.87578" lon="8.48815">
        <ele>1767</ele>
        <time>2021-08-11T12:21:38.375Z</time>
      </trkpt>
      <trkpt lat="46.87579" lon="8.48816">
        <ele>1766</ele>
        <time>2021-08-11T12:21:39.375Z</time>
      </trkpt>
      <trkpt lat="46.87579" lon="8.48816">
        <ele>1765</ele>
        <time>2021-08-11T12:21:40.376Z</time>
      </trkpt>
      <trkpt lat="46.8758" lon="8.48817">
        <ele>1765</ele>
        <time>2021-08-11T12:21:41.377Z</time>
      </trkpt>
      <trkpt lat="46.87581" lon="8.48817">
        <ele>1765</ele>
        <time>2021-08-11T12:21:42.377Z</time>
      </trkpt>
      <trkpt lat="46.87581" lon="8.48818">
        <ele>1765</ele>
        <time>2021-08-11T12:21:43.376Z</time>
      </trkpt>
      <trkpt lat="46.87581" lon="8.48821">
        <ele>1768</ele>
        <time>2021-08-11T12:21:44.378Z</time>
      </trkpt>
      <trkpt lat="46.87581" lon="8.48821">
        <ele>1768</ele>
        <time>2021-08-11T12:21:45.377Z</time>
      </trkpt>
      <trkpt lat="46.87579" lon="8.48822">
        <ele>1770</ele>
        <time>2021-08-11T12:21:46.377Z</time>
      </trkpt>
      <trkpt lat="46.87578" lon="8.48823">
        <ele>1770</ele>
        <time>2021-08-11T12:21:47.378Z</time>
      </trkpt>
      <trkpt lat="46.87579" lon="8.48823">
        <ele>1769</ele>
        <time>2021-08-11T12:21:48.378Z</time>
      </trkpt>
      <trkpt lat="46.87579" lon="8.48822">
        <ele>1769</ele>
        <time>2021-08-11T12:21:49.378Z</time>
      </trkpt>
      <trkpt lat="46.87579" lon="8.48822">
        <ele>1769</ele>
        <time>2021-08-11T12:21:50.378Z</time>
      </trkpt>
      <trkpt lat="46.87579" lon="8.48821">
        <ele>1769</ele>
        <time>2021-08-11T12:21:51.377Z</time>
      </trkpt>
      <trkpt lat="46.87579" lon="8.48822">
        <ele>1768</ele>
        <time>2021-08-11T12:21:52.378Z</time>
      </trkpt>
      <trkpt lat="46.87579" lon="8.48822">
        <ele>1768</ele>
        <time>2021-08-11T12:21:53.378Z</time>
      </trkpt>
      <trkpt lat="46.87578" lon="8.48822">
        <ele>1768</ele>
        <time>2021-08-11T12:21:54.378Z</time>
      </trkpt>
      <trkpt lat="46.87578" lon="8.48821">
        <ele>1768</ele>
        <time>2021-08-11T12:21:55.377Z</time>
      </trkpt>
      <trkpt lat="46.87577" lon="8.4882">
        <ele>1767</ele>
        <time>2021-08-11T12:21:56.378Z</time>
      </trkpt>
      <trkpt lat="46.87577" lon="8.4882">
        <ele>1767</ele>
        <time>2021-08-11T12:21:57.378Z</time>
      </trkpt>
      <trkpt lat="46.87576" lon="8.4882">
        <ele>1767</ele>
        <time>2021-08-11T12:21:58.377Z</time>
      </trkpt>
      <trkpt lat="46.87576" lon="8.4882">
        <ele>1767</ele>
        <time>2021-08-11T12:21:59.378Z</time>
      </trkpt>
      <trkpt lat="46.87574" lon="8.48821">
        <ele>1766</ele>
        <time>2021-08-11T12:22:00.378Z</time>
      </trkpt>
      <trkpt lat="46.87573" lon="8.48816">
        <ele>1766</ele>
        <time>2021-08-11T12:22:01.378Z</time>
      </trkpt>
      <trkpt lat="46.87574" lon="8.48817">
        <ele>1765</ele>
        <time>2021-08-11T12:22:02.378Z</time>
      </trkpt>
      <trkpt lat="46.87574" lon="8.48814">
        <ele>1765</ele>
        <time>2021-08-11T12:22:03.378Z</time>
      </trkpt>
      <trkpt lat="46.87575" lon="8.4881">
        <ele>1764</ele>
        <time>2021-08-11T12:22:04.378Z</time>
      </trkpt>
      <trkpt lat="46.87575" lon="8.48809">
        <ele>1764</ele>
        <time>2021-08-11T12:22:05.377Z</time>
      </trkpt>
      <trkpt lat="46.87576" lon="8.48809">
        <ele>1764</ele>
        <time>2021-08-11T12:22:06.377Z</time>
      </trkpt>
      <trkpt lat="46.87577" lon="8.48808">
        <ele>1764</ele>
        <time>2021-08-11T12:22:07.378Z</time>
      </trkpt>
      <trkpt lat="46.87577" lon="8.48806">
        <ele>1764</ele>
        <time>2021-08-11T12:22:08.378Z</time>
      </trkpt>
      <trkpt lat="46.87577" lon="8.48804">
        <ele>1764</ele>
        <time>2021-08-11T12:22:09.378Z</time>
      </trkpt>
      <trkpt lat="46.87577" lon="8.48804">
        <ele>1764</ele>
        <time>2021-08-11T12:22:10.377Z</time>
      </trkpt>
      <trkpt lat="46.87577" lon="8.48805">
        <ele>1764</ele>
        <time>2021-08-11T12:22:11.378Z</time>
      </trkpt>
      <trkpt lat="46.87577" lon="8.48807">
        <ele>1764</ele>
        <time>2021-08-11T12:22:12.378Z</time>
      </trkpt>
      <trkpt lat="46.87577" lon="8.48811">
        <ele>1767</ele>
        <time>2021-08-11T12:22:13.378Z</time>
      </trkpt>
      <trkpt lat="46.87576" lon="8.4881">
        <ele>1767</ele>
        <time>2021-08-11T12:22:14.378Z</time>
      </trkpt>
      <trkpt lat="46.87576" lon="8.4881">
        <ele>1767</ele>
        <time>2021-08-11T12:22:15.377Z</time>
      </trkpt>
      <trkpt lat="46.87575" lon="8.48809">
        <ele>1769</ele>
        <time>2021-08-11T12:22:16.378Z</time>
      </trkpt>
      <trkpt lat="46.87574" lon="8.48809">
        <ele>1769</ele>
        <time>2021-08-11T12:22:17.377Z</time>
      </trkpt>
      <trkpt lat="46.87574" lon="8.4881">
        <ele>1769</ele>
        <time>2021-08-11T12:22:18.378Z</time>
      </trkpt>
      <trkpt lat="46.87574" lon="8.4881">
        <ele>1769</ele>
        <time>2021-08-11T12:22:19.378Z</time>
      </trkpt>
      <trkpt lat="46.87574" lon="8.48811">
        <ele>1770</ele>
        <time>2021-08-11T12:22:20.377Z</time>
      </trkpt>
      <trkpt lat="46.87576" lon="8.48811">
        <ele>1771</ele>
        <time>2021-08-11T12:22:21.378Z</time>
      </trkpt>
      <trkpt lat="46.87576" lon="8.48811">
        <ele>1771</ele>
        <time>2021-08-11T12:22:22.377Z</time>
      </trkpt>
      <trkpt lat="46.87577" lon="8.48811">
        <ele>1771</ele>
        <time>2021-08-11T12:22:23.378Z</time>
      </trkpt>
      <trkpt lat="46.87577" lon="8.4881">
        <ele>1771</ele>
        <time>2021-08-11T12:22:24.379Z</time>
      </trkpt>
      <trkpt lat="46.87577" lon="8.4881">
        <ele>1771</ele>
        <time>2021-08-11T12:22:25.378Z</time>
      </trkpt>
      <trkpt lat="46.87577" lon="8.48811">
        <ele>1771</ele>
        <time>2021-08-11T12:22:26.378Z</time>
      </trkpt>
      <trkpt lat="46.87577" lon="8.48812">
        <ele>1770</ele>
        <time>2021-08-11T12:22:27.379Z</time>
      </trkpt>
      <trkpt lat="46.87577" lon="8.48813">
        <ele>1768</ele>
        <time>2021-08-11T12:22:28.379Z</time>
      </trkpt>
      <trkpt lat="46.87578" lon="8.48812">
        <ele>1768</ele>
        <time>2021-08-11T12:22:29.379Z</time>
      </trkpt>
      <trkpt lat="46.87578" lon="8.48812">
        <ele>1768</ele>
        <time>2021-08-11T12:22:30.378Z</time>
      </trkpt>
      <trkpt lat="46.87577" lon="8.48814">
        <ele>1767</ele>
        <time>2021-08-11T12:22:31.378Z</time>
      </trkpt>
      <trkpt lat="46.87577" lon="8.48813">
        <ele>1767</ele>
        <time>2021-08-11T12:22:32.379Z</time>
      </trkpt>
      <trkpt lat="46.87576" lon="8.48815">
        <ele>1767</ele>
        <time>2021-08-11T12:22:33.379Z</time>
      </trkpt>
      <trkpt lat="46.87577" lon="8.48815">
        <ele>1767</ele>
        <time>2021-08-11T12:22:34.379Z</time>
      </trkpt>
      <trkpt lat="46.87577" lon="8.48816">
        <ele>1767</ele>
        <time>2021-08-11T12:22:35.378Z</time>
      </trkpt>
      <trkpt lat="46.87578" lon="8.48816">
        <ele>1767</ele>
        <time>2021-08-11T12:22:36.379Z</time>
      </trkpt>
      <trkpt lat="46.87579" lon="8.48817">
        <ele>1767</ele>
        <time>2021-08-11T12:22:37.378Z</time>
      </trkpt>
      <trkpt lat="46.87579" lon="8.48817">
        <ele>1767</ele>
        <time>2021-08-11T12:22:38.378Z</time>
      </trkpt>
      <trkpt lat="46.87578" lon="8.48818">
        <ele>1766</ele>
        <time>2021-08-11T12:22:39.379Z</time>
      </trkpt>
      <trkpt lat="46.87578" lon="8.48817">
        <ele>1766</ele>
        <time>2021-08-11T12:22:40.379Z</time>
      </trkpt>
      <trkpt lat="46.87577" lon="8.48817">
        <ele>1767</ele>
        <time>2021-08-11T12:22:41.379Z</time>
      </trkpt>
      <trkpt lat="46.87577" lon="8.48817">
        <ele>1767</ele>
        <time>2021-08-11T12:22:42.379Z</time>
      </trkpt>
      <trkpt lat="46.87577" lon="8.48817">
        <ele>1767</ele>
        <time>2021-08-11T12:22:43.379Z</time>
      </trkpt>
      <trkpt lat="46.87577" lon="8.48815">
        <ele>1767</ele>
        <time>2021-08-11T12:22:44.379Z</time>
      </trkpt>
      <trkpt lat="46.87577" lon="8.48815">
        <ele>1767</ele>
        <time>2021-08-11T12:22:45.380Z</time>
      </trkpt>
      <trkpt lat="46.87577" lon="8.48814">
        <ele>1767</ele>
        <time>2021-08-11T12:22:48.482Z</time>
      </trkpt>
      <trkpt lat="46.87577" lon="8.48814">
        <ele>1767</ele>
        <time>2021-08-11T12:22:49.483Z</time>
      </trkpt>
      <trkpt lat="46.87576" lon="8.48814">
        <ele>1767</ele>
        <time>2021-08-11T12:22:50.483Z</time>
      </trkpt>
      <trkpt lat="46.87576" lon="8.48813">
        <ele>1768</ele>
        <time>2021-08-11T12:22:51.482Z</time>
      </trkpt>
      <trkpt lat="46.87573" lon="8.48818">
        <ele>1767</ele>
        <time>2021-08-11T12:22:52.483Z</time>
      </trkpt>
      <trkpt lat="46.87572" lon="8.48819">
        <ele>1767</ele>
        <time>2021-08-11T12:22:53.483Z</time>
      </trkpt>
      <trkpt lat="46.87571" lon="8.4882">
        <ele>1767</ele>
        <time>2021-08-11T12:22:54.482Z</time>
      </trkpt>
      <trkpt lat="46.87571" lon="8.48822">
        <ele>1767</ele>
        <time>2021-08-11T12:22:55.483Z</time>
      </trkpt>
      <trkpt lat="46.87571" lon="8.48823">
        <ele>1767</ele>
        <time>2021-08-11T12:22:56.483Z</time>
      </trkpt>
      <trkpt lat="46.87571" lon="8.48824">
        <ele>1767</ele>
        <time>2021-08-11T12:22:57.483Z</time>
      </trkpt>
      <trkpt lat="46.87572" lon="8.48824">
        <ele>1767</ele>
        <time>2021-08-11T12:22:58.483Z</time>
      </trkpt>
      <trkpt lat="46.87572" lon="8.48824">
        <ele>1767</ele>
        <time>2021-08-11T12:22:59.482Z</time>
      </trkpt>
      <trkpt lat="46.87572" lon="8.48823">
        <ele>1767</ele>
        <time>2021-08-11T12:23:03.500Z</time>
      </trkpt>
      <trkpt lat="46.87573" lon="8.48824">
        <ele>1767</ele>
        <time>2021-08-11T12:23:04.500Z</time>
      </trkpt>
      <trkpt lat="46.87574" lon="8.48825">
        <ele>1767</ele>
        <time>2021-08-11T12:23:05.499Z</time>
      </trkpt>
      <trkpt lat="46.87573" lon="8.48827">
        <ele>1768</ele>
        <time>2021-08-11T12:23:06.502Z</time>
      </trkpt>
      <trkpt lat="46.87573" lon="8.48828">
        <ele>1768</ele>
        <time>2021-08-11T12:23:07.502Z</time>
      </trkpt>
      <trkpt lat="46.87573" lon="8.48828">
        <ele>1768</ele>
        <time>2021-08-11T12:23:08.501Z</time>
      </trkpt>
      <trkpt lat="46.87573" lon="8.48828">
        <ele>1768</ele>
        <time>2021-08-11T12:23:09.502Z</time>
      </trkpt>
      <trkpt lat="46.87573" lon="8.48828">
        <ele>1768</ele>
        <time>2021-08-11T12:23:10.502Z</time>
      </trkpt>
      <trkpt lat="46.87574" lon="8.48828">
        <ele>1768</ele>
        <time>2021-08-11T12:23:11.502Z</time>
      </trkpt>
      <trkpt lat="46.87574" lon="8.48829">
        <ele>1769</ele>
        <time>2021-08-11T12:23:12.502Z</time>
      </trkpt>
      <trkpt lat="46.87575" lon="8.4883">
        <ele>1769</ele>
        <time>2021-08-11T12:23:13.502Z</time>
      </trkpt>
      <trkpt lat="46.87576" lon="8.4883">
        <ele>1770</ele>
        <time>2021-08-11T12:23:14.502Z</time>
      </trkpt>
      <trkpt lat="46.87576" lon="8.48832">
        <ele>1770</ele>
        <time>2021-08-11T12:23:15.501Z</time>
      </trkpt>
      <trkpt lat="46.87575" lon="8.48834">
        <ele>1770</ele>
        <time>2021-08-11T12:23:16.502Z</time>
      </trkpt>
      <trkpt lat="46.87575" lon="8.48834">
        <ele>1771</ele>
        <time>2021-08-11T12:23:17.502Z</time>
      </trkpt>
      <trkpt lat="46.87574" lon="8.48834">
        <ele>1771</ele>
        <time>2021-08-11T12:23:18.502Z</time>
      </trkpt>
      <trkpt lat="46.87573" lon="8.48834">
        <ele>1771</ele>
        <time>2021-08-11T12:23:19.502Z</time>
      </trkpt>
      <trkpt lat="46.87572" lon="8.48834">
        <ele>1771</ele>
        <time>2021-08-11T12:23:20.502Z</time>
      </trkpt>
      <trkpt lat="46.87572" lon="8.48834">
        <ele>1772</ele>
        <time>2021-08-11T12:23:21.501Z</time>
      </trkpt>
      <trkpt lat="46.87572" lon="8.48834">
        <ele>1772</ele>
        <time>2021-08-11T12:23:22.502Z</time>
      </trkpt>
      <trkpt lat="46.87572" lon="8.48834">
        <ele>1772</ele>
        <time>2021-08-11T12:23:23.502Z</time>
      </trkpt>
      <trkpt lat="46.8757" lon="8.48835">
        <ele>1771</ele>
        <time>2021-08-11T12:23:24.501Z</time>
      </trkpt>
      <trkpt lat="46.87569" lon="8.48835">
        <ele>1771</ele>
        <time>2021-08-11T12:23:25.501Z</time>
      </trkpt>
      <trkpt lat="46.87572" lon="8.48836">
        <ele>1770</ele>
        <time>2021-08-11T12:23:26.502Z</time>
      </trkpt>
      <trkpt lat="46.87573" lon="8.48835">
        <ele>1770</ele>
        <time>2021-08-11T12:23:27.502Z</time>
      </trkpt>
      <trkpt lat="46.87574" lon="8.48835">
        <ele>1771</ele>
        <time>2021-08-11T12:23:28.502Z</time>
      </trkpt>
      <trkpt lat="46.87574" lon="8.48835">
        <ele>1771</ele>
        <time>2021-08-11T12:23:29.501Z</time>
      </trkpt>
      <trkpt lat="46.87574" lon="8.48834">
        <ele>1771</ele>
        <time>2021-08-11T12:23:30.501Z</time>
      </trkpt>
      <trkpt lat="46.87576" lon="8.4883">
        <ele>1772</ele>
        <time>2021-08-11T12:23:31.502Z</time>
      </trkpt>
      <trkpt lat="46.87577" lon="8.4883">
        <ele>1773</ele>
        <time>2021-08-11T12:23:32.502Z</time>
      </trkpt>
      <trkpt lat="46.87577" lon="8.48829">
        <ele>1773</ele>
        <time>2021-08-11T12:23:33.501Z</time>
      </trkpt>
      <trkpt lat="46.87577" lon="8.48827">
        <ele>1773</ele>
        <time>2021-08-11T12:23:34.501Z</time>
      </trkpt>
      <trkpt lat="46.87577" lon="8.48827">
        <ele>1774</ele>
        <time>2021-08-11T12:23:35.502Z</time>
      </trkpt>
      <trkpt lat="46.87577" lon="8.48826">
        <ele>1774</ele>
        <time>2021-08-11T12:23:36.502Z</time>
      </trkpt>
      <trkpt lat="46.87577" lon="8.48825">
        <ele>1774</ele>
        <time>2021-08-11T12:23:37.501Z</time>
      </trkpt>
      <trkpt lat="46.87576" lon="8.48824">
        <ele>1774</ele>
        <time>2021-08-11T12:23:38.501Z</time>
      </trkpt>
      <trkpt lat="46.87575" lon="8.48825">
        <ele>1775</ele>
        <time>2021-08-11T12:23:39.502Z</time>
      </trkpt>
      <trkpt lat="46.87574" lon="8.48825">
        <ele>1775</ele>
        <time>2021-08-11T12:23:40.501Z</time>
      </trkpt>
      <trkpt lat="46.87578" lon="8.4882">
        <ele>1769</ele>
        <time>2021-08-11T12:23:41.502Z</time>
      </trkpt>
      <trkpt lat="46.87579" lon="8.48821">
        <ele>1770</ele>
        <time>2021-08-11T12:23:42.502Z</time>
      </trkpt>
      <trkpt lat="46.87579" lon="8.48821">
        <ele>1770</ele>
        <time>2021-08-11T12:23:43.502Z</time>
      </trkpt>
      <trkpt lat="46.87579" lon="8.48821">
        <ele>1770</ele>
        <time>2021-08-11T12:23:44.501Z</time>
      </trkpt>
      <trkpt lat="46.87579" lon="8.48821">
        <ele>1770</ele>
        <time>2021-08-11T12:23:45.502Z</time>
      </trkpt>
      <trkpt lat="46.8758" lon="8.48816">
        <ele>1766</ele>
        <time>2021-08-11T12:23:46.502Z</time>
      </trkpt>
      <trkpt lat="46.87581" lon="8.48816">
        <ele>1766</ele>
        <time>2021-08-11T12:23:47.502Z</time>
      </trkpt>
      <trkpt lat="46.87581" lon="8.48816">
        <ele>1765</ele>
        <time>2021-08-11T12:23:48.501Z</time>
      </trkpt>
      <trkpt lat="46.87582" lon="8.48817">
        <ele>1762</ele>
        <time>2021-08-11T12:23:49.501Z</time>
      </trkpt>
      <trkpt lat="46.87582" lon="8.48816">
        <ele>1763</ele>
        <time>2021-08-11T12:23:50.501Z</time>
      </trkpt>
      <trkpt lat="46.87582" lon="8.48818">
        <ele>1762</ele>
        <time>2021-08-11T12:23:51.502Z</time>
      </trkpt>
      <trkpt lat="46.87583" lon="8.48819">
        <ele>1762</ele>
        <time>2021-08-11T12:23:52.501Z</time>
      </trkpt>
      <trkpt lat="46.87583" lon="8.48819">
        <ele>1762</ele>
        <time>2021-08-11T12:23:53.502Z</time>
      </trkpt>
      <trkpt lat="46.87582" lon="8.48819">
        <ele>1761</ele>
        <time>2021-08-11T12:23:54.501Z</time>
      </trkpt>
      <trkpt lat="46.87581" lon="8.48822">
        <ele>1761</ele>
        <time>2021-08-11T12:23:55.502Z</time>
      </trkpt>
      <trkpt lat="46.87581" lon="8.48821">
        <ele>1760</ele>
        <time>2021-08-11T12:23:56.501Z</time>
      </trkpt>
      <trkpt lat="46.87581" lon="8.4882">
        <ele>1761</ele>
        <time>2021-08-11T12:23:57.501Z</time>
      </trkpt>
      <trkpt lat="46.87581" lon="8.4882">
        <ele>1761</ele>
        <time>2021-08-11T12:23:58.502Z</time>
      </trkpt>
      <trkpt lat="46.87581" lon="8.4882">
        <ele>1761</ele>
        <time>2021-08-11T12:23:59.502Z</time>
      </trkpt>
      <trkpt lat="46.87581" lon="8.4882">
        <ele>1762</ele>
        <time>2021-08-11T12:24:00.502Z</time>
      </trkpt>
      <trkpt lat="46.87581" lon="8.4882">
        <ele>1762</ele>
        <time>2021-08-11T12:24:01.501Z</time>
      </trkpt>
      <trkpt lat="46.87581" lon="8.4882">
        <ele>1762</ele>
        <time>2021-08-11T12:24:02.502Z</time>
      </trkpt>
      <trkpt lat="46.8758" lon="8.48819">
        <ele>1761</ele>
        <time>2021-08-11T12:24:03.503Z</time>
      </trkpt>
      <trkpt lat="46.8758" lon="8.48819">
        <ele>1763</ele>
        <time>2021-08-11T12:24:04.503Z</time>
      </trkpt>
      <trkpt lat="46.8758" lon="8.48818">
        <ele>1763</ele>
        <time>2021-08-11T12:24:05.503Z</time>
      </trkpt>
      <trkpt lat="46.8758" lon="8.48817">
        <ele>1763</ele>
        <time>2021-08-11T12:24:06.503Z</time>
      </trkpt>
      <trkpt lat="46.8758" lon="8.48815">
        <ele>1762</ele>
        <time>2021-08-11T12:24:07.503Z</time>
      </trkpt>
      <trkpt lat="46.8758" lon="8.48814">
        <ele>1762</ele>
        <time>2021-08-11T12:24:08.503Z</time>
      </trkpt>
      <trkpt lat="46.8758" lon="8.48813">
        <ele>1762</ele>
        <time>2021-08-11T12:24:09.502Z</time>
      </trkpt>
      <trkpt lat="46.8758" lon="8.48812">
        <ele>1762</ele>
        <time>2021-08-11T12:24:10.503Z</time>
      </trkpt>
      <trkpt lat="46.8758" lon="8.48811">
        <ele>1762</ele>
        <time>2021-08-11T12:24:11.503Z</time>
      </trkpt>
      <trkpt lat="46.87581" lon="8.4881">
        <ele>1762</ele>
        <time>2021-08-11T12:24:12.502Z</time>
      </trkpt>
      <trkpt lat="46.87581" lon="8.48808">
        <ele>1762</ele>
        <time>2021-08-11T12:24:13.502Z</time>
      </trkpt>
      <trkpt lat="46.87582" lon="8.48807">
        <ele>1762</ele>
        <time>2021-08-11T12:24:14.503Z</time>
      </trkpt>
      <trkpt lat="46.87582" lon="8.48805">
        <ele>1762</ele>
        <time>2021-08-11T12:24:15.503Z</time>
      </trkpt>
      <trkpt lat="46.87582" lon="8.48804">
        <ele>1762</ele>
        <time>2021-08-11T12:24:16.502Z</time>
      </trkpt>
      <trkpt lat="46.87582" lon="8.48802">
        <ele>1762</ele>
        <time>2021-08-11T12:24:17.503Z</time>
      </trkpt>
      <trkpt lat="46.87582" lon="8.48801">
        <ele>1762</ele>
        <time>2021-08-11T12:24:18.503Z</time>
      </trkpt>
      <trkpt lat="46.87582" lon="8.488">
        <ele>1762</ele>
        <time>2021-08-11T12:24:19.503Z</time>
      </trkpt>
      <trkpt lat="46.87582" lon="8.48799">
        <ele>1762</ele>
        <time>2021-08-11T12:24:20.503Z</time>
      </trkpt>
      <trkpt lat="46.87583" lon="8.48798">
        <ele>1762</ele>
        <time>2021-08-11T12:24:21.503Z</time>
      </trkpt>
      <trkpt lat="46.87584" lon="8.48797">
        <ele>1762</ele>
        <time>2021-08-11T12:24:22.503Z</time>
      </trkpt>
      <trkpt lat="46.87584" lon="8.48796">
        <ele>1762</ele>
        <time>2021-08-11T12:24:23.502Z</time>
      </trkpt>
      <trkpt lat="46.87585" lon="8.48794">
        <ele>1763</ele>
        <time>2021-08-11T12:24:24.503Z</time>
      </trkpt>
      <trkpt lat="46.87585" lon="8.48792">
        <ele>1763</ele>
        <time>2021-08-11T12:24:25.503Z</time>
      </trkpt>
      <trkpt lat="46.87586" lon="8.48791">
        <ele>1763</ele>
        <time>2021-08-11T12:24:26.502Z</time>
      </trkpt>
      <trkpt lat="46.87587" lon="8.4879">
        <ele>1763</ele>
        <time>2021-08-11T12:24:27.502Z</time>
      </trkpt>
      <trkpt lat="46.87588" lon="8.48789">
        <ele>1764</ele>
        <time>2021-08-11T12:24:28.503Z</time>
      </trkpt>
      <trkpt lat="46.87589" lon="8.48788">
        <ele>1764</ele>
        <time>2021-08-11T12:24:29.502Z</time>
      </trkpt>
      <trkpt lat="46.87589" lon="8.48787">
        <ele>1764</ele>
        <time>2021-08-11T12:24:30.503Z</time>
      </trkpt>
      <trkpt lat="46.87589" lon="8.48785">
        <ele>1764</ele>
        <time>2021-08-11T12:24:31.503Z</time>
      </trkpt>
      <trkpt lat="46.87589" lon="8.48784">
        <ele>1765</ele>
        <time>2021-08-11T12:24:38.626Z</time>
      </trkpt>
      <trkpt lat="46.87589" lon="8.48782">
        <ele>1765</ele>
        <time>2021-08-11T12:24:54.399Z</time>
      </trkpt>
      <trkpt lat="46.8759" lon="8.48781">
        <ele>1765</ele>
        <time>2021-08-11T12:24:55.400Z</time>
      </trkpt>
      <trkpt lat="46.8759" lon="8.48779">
        <ele>1765</ele>
        <time>2021-08-11T12:25:05.231Z</time>
      </trkpt>
      <trkpt lat="46.8759" lon="8.48778">
        <ele>1765</ele>
        <time>2021-08-11T12:25:06.231Z</time>
      </trkpt>
      <trkpt lat="46.87591" lon="8.48777">
        <ele>1766</ele>
        <time>2021-08-11T12:25:18.107Z</time>
      </trkpt>
      <trkpt lat="46.87591" lon="8.48775">
        <ele>1766</ele>
        <time>2021-08-11T12:25:19.108Z</time>
      </trkpt>
      <trkpt lat="46.87591" lon="8.48775">
        <ele>1766</ele>
        <time>2021-08-11T12:25:20.108Z</time>
      </trkpt>
      <trkpt lat="46.87592" lon="8.48774">
        <ele>1767</ele>
        <time>2021-08-11T12:25:21.107Z</time>
      </trkpt>
      <trkpt lat="46.87592" lon="8.48773">
        <ele>1767</ele>
        <time>2021-08-11T12:25:42.103Z</time>
      </trkpt>
      <trkpt lat="46.87592" lon="8.48772">
        <ele>1767</ele>
        <time>2021-08-11T12:25:43.103Z</time>
      </trkpt>
      <trkpt lat="46.87593" lon="8.48771">
        <ele>1768</ele>
        <time>2021-08-11T12:25:44.103Z</time>
      </trkpt>
      <trkpt lat="46.87593" lon="8.4877">
        <ele>1768</ele>
        <time>2021-08-11T12:25:46.841Z</time>
      </trkpt>
      <trkpt lat="46.87594" lon="8.48769">
        <ele>1768</ele>
        <time>2021-08-11T12:25:47.840Z</time>
      </trkpt>
      <trkpt lat="46.87595" lon="8.48768">
        <ele>1769</ele>
        <time>2021-08-11T12:25:48.841Z</time>
      </trkpt>
      <trkpt lat="46.87596" lon="8.48767">
        <ele>1769</ele>
        <time>2021-08-11T12:25:49.841Z</time>
      </trkpt>
      <trkpt lat="46.87596" lon="8.48766">
        <ele>1769</ele>
        <time>2021-08-11T12:25:50.841Z</time>
      </trkpt>
      <trkpt lat="46.87597" lon="8.48766">
        <ele>1769</ele>
        <time>2021-08-11T12:25:51.841Z</time>
      </trkpt>
      <trkpt lat="46.87598" lon="8.48765">
        <ele>1769</ele>
        <time>2021-08-11T12:25:52.841Z</time>
      </trkpt>
      <trkpt lat="46.87598" lon="8.48764">
        <ele>1769</ele>
        <time>2021-08-11T12:25:53.841Z</time>
      </trkpt>
      <trkpt lat="46.87598" lon="8.48763">
        <ele>1769</ele>
        <time>2021-08-11T12:25:54.841Z</time>
      </trkpt>
      <trkpt lat="46.87599" lon="8.48762">
        <ele>1769</ele>
        <time>2021-08-11T12:25:55.840Z</time>
      </trkpt>
      <trkpt lat="46.876" lon="8.48761">
        <ele>1769</ele>
        <time>2021-08-11T12:25:56.841Z</time>
      </trkpt>
      <trkpt lat="46.876" lon="8.4876">
        <ele>1769</ele>
        <time>2021-08-11T12:25:57.841Z</time>
      </trkpt>
      <trkpt lat="46.87601" lon="8.48759">
        <ele>1769</ele>
        <time>2021-08-11T12:25:58.840Z</time>
      </trkpt>
      <trkpt lat="46.87602" lon="8.48758">
        <ele>1769</ele>
        <time>2021-08-11T12:25:59.841Z</time>
      </trkpt>
      <trkpt lat="46.87603" lon="8.48758">
        <ele>1769</ele>
        <time>2021-08-11T12:26:00.841Z</time>
      </trkpt>
      <trkpt lat="46.87603" lon="8.48757">
        <ele>1769</ele>
        <time>2021-08-11T12:26:01.841Z</time>
      </trkpt>
      <trkpt lat="46.87604" lon="8.48756">
        <ele>1769</ele>
        <time>2021-08-11T12:26:02.841Z</time>
      </trkpt>
      <trkpt lat="46.87604" lon="8.48754">
        <ele>1769</ele>
        <time>2021-08-11T12:26:03.840Z</time>
      </trkpt>
      <trkpt lat="46.87605" lon="8.48752">
        <ele>1769</ele>
        <time>2021-08-11T12:26:04.841Z</time>
      </trkpt>
      <trkpt lat="46.87605" lon="8.48751">
        <ele>1770</ele>
        <time>2021-08-11T12:26:05.841Z</time>
      </trkpt>
      <trkpt lat="46.87606" lon="8.4875">
        <ele>1770</ele>
        <time>2021-08-11T12:26:06.841Z</time>
      </trkpt>
      <trkpt lat="46.87606" lon="8.48749">
        <ele>1770</ele>
        <time>2021-08-11T12:26:07.841Z</time>
      </trkpt>
      <trkpt lat="46.87606" lon="8.48747">
        <ele>1770</ele>
        <time>2021-08-11T12:26:08.841Z</time>
      </trkpt>
      <trkpt lat="46.87607" lon="8.48746">
        <ele>1770</ele>
        <time>2021-08-11T12:26:09.841Z</time>
      </trkpt>
      <trkpt lat="46.87607" lon="8.48745">
        <ele>1770</ele>
        <time>2021-08-11T12:26:10.841Z</time>
      </trkpt>
      <trkpt lat="46.87607" lon="8.48744">
        <ele>1770</ele>
        <time>2021-08-11T12:26:21.856Z</time>
      </trkpt>
      <trkpt lat="46.87608" lon="8.48743">
        <ele>1770</ele>
        <time>2021-08-11T12:26:22.856Z</time>
      </trkpt>
      <trkpt lat="46.87608" lon="8.48741">
        <ele>1771</ele>
        <time>2021-08-11T12:26:23.856Z</time>
      </trkpt>
      <trkpt lat="46.87608" lon="8.4874">
        <ele>1771</ele>
        <time>2021-08-11T12:26:24.856Z</time>
      </trkpt>
      <trkpt lat="46.87608" lon="8.48739">
        <ele>1772</ele>
        <time>2021-08-11T12:26:25.856Z</time>
      </trkpt>
      <trkpt lat="46.87609" lon="8.48738">
        <ele>1772</ele>
        <time>2021-08-11T12:26:26.856Z</time>
      </trkpt>
      <trkpt lat="46.87609" lon="8.48737">
        <ele>1773</ele>
        <time>2021-08-11T12:26:27.855Z</time>
      </trkpt>
      <trkpt lat="46.8761" lon="8.48736">
        <ele>1772</ele>
        <time>2021-08-11T12:26:28.855Z</time>
      </trkpt>
      <trkpt lat="46.8761" lon="8.48735">
        <ele>1772</ele>
        <time>2021-08-11T12:26:29.856Z</time>
      </trkpt>
      <trkpt lat="46.8761" lon="8.48733">
        <ele>1772</ele>
        <time>2021-08-11T12:26:30.856Z</time>
      </trkpt>
      <trkpt lat="46.8761" lon="8.48732">
        <ele>1772</ele>
        <time>2021-08-11T12:26:32.966Z</time>
      </trkpt>
      <trkpt lat="46.8761" lon="8.4873">
        <ele>1772</ele>
        <time>2021-08-11T12:26:40.730Z</time>
      </trkpt>
      <trkpt lat="46.8761" lon="8.48729">
        <ele>1772</ele>
        <time>2021-08-11T12:26:41.730Z</time>
      </trkpt>
      <trkpt lat="46.8761" lon="8.48727">
        <ele>1772</ele>
        <time>2021-08-11T12:26:42.730Z</time>
      </trkpt>
      <trkpt lat="46.8761" lon="8.48726">
        <ele>1772</ele>
        <time>2021-08-11T12:26:43.729Z</time>
      </trkpt>
      <trkpt lat="46.8761" lon="8.48725">
        <ele>1772</ele>
        <time>2021-08-11T12:26:45.713Z</time>
      </trkpt>
      <trkpt lat="46.87611" lon="8.48724">
        <ele>1772</ele>
        <time>2021-08-11T12:26:53.484Z</time>
      </trkpt>
      <trkpt lat="46.87611" lon="8.48723">
        <ele>1772</ele>
        <time>2021-08-11T12:26:54.484Z</time>
      </trkpt>
      <trkpt lat="46.8761" lon="8.48721">
        <ele>1771</ele>
        <time>2021-08-11T12:26:55.484Z</time>
      </trkpt>
      <trkpt lat="46.87609" lon="8.48719">
        <ele>1771</ele>
        <time>2021-08-11T12:26:56.483Z</time>
      </trkpt>
      <trkpt lat="46.87609" lon="8.48719">
        <ele>1771</ele>
        <time>2021-08-11T12:26:57.484Z</time>
      </trkpt>
      <trkpt lat="46.87608" lon="8.48717">
        <ele>1771</ele>
        <time>2021-08-11T12:26:58.484Z</time>
      </trkpt>
      <trkpt lat="46.87607" lon="8.48715">
        <ele>1772</ele>
        <time>2021-08-11T12:27:23.622Z</time>
      </trkpt>
      <trkpt lat="46.87607" lon="8.48714">
        <ele>1772</ele>
        <time>2021-08-11T12:27:24.621Z</time>
      </trkpt>
      <trkpt lat="46.87607" lon="8.48713">
        <ele>1773</ele>
        <time>2021-08-11T12:27:25.621Z</time>
      </trkpt>
      <trkpt lat="46.87606" lon="8.48711">
        <ele>1773</ele>
        <time>2021-08-11T12:27:26.622Z</time>
      </trkpt>
      <trkpt lat="46.87606" lon="8.48709">
        <ele>1774</ele>
        <time>2021-08-11T12:27:27.621Z</time>
      </trkpt>
      <trkpt lat="46.87605" lon="8.48707">
        <ele>1774</ele>
        <time>2021-08-11T12:27:28.622Z</time>
      </trkpt>
      <trkpt lat="46.87604" lon="8.48706">
        <ele>1775</ele>
        <time>2021-08-11T12:27:36.602Z</time>
      </trkpt>
      <trkpt lat="46.87603" lon="8.48705">
        <ele>1775</ele>
        <time>2021-08-11T12:27:37.602Z</time>
      </trkpt>
      <trkpt lat="46.87603" lon="8.48705">
        <ele>1775</ele>
        <time>2021-08-11T12:27:38.602Z</time>
      </trkpt>
      <trkpt lat="46.87603" lon="8.48705">
        <ele>1775</ele>
        <time>2021-08-11T12:28:00.725Z</time>
      </trkpt>
      <trkpt lat="46.87602" lon="8.48705">
        <ele>1775</ele>
        <time>2021-08-11T12:28:01.725Z</time>
      </trkpt>
      <trkpt lat="46.87602" lon="8.48705">
        <ele>1774</ele>
        <time>2021-08-11T12:28:02.725Z</time>
      </trkpt>
      <trkpt lat="46.87603" lon="8.48705">
        <ele>1774</ele>
        <time>2021-08-11T12:28:03.725Z</time>
      </trkpt>
      <trkpt lat="46.87603" lon="8.4871">
        <ele>1770</ele>
        <time>2021-08-11T12:28:04.725Z</time>
      </trkpt>
      <trkpt lat="46.87603" lon="8.4871">
        <ele>1769</ele>
        <time>2021-08-11T12:28:11.745Z</time>
      </trkpt>
      <trkpt lat="46.87603" lon="8.48711">
        <ele>1769</ele>
        <time>2021-08-11T12:28:12.744Z</time>
      </trkpt>
      <trkpt lat="46.87603" lon="8.48711">
        <ele>1769</ele>
        <time>2021-08-11T12:28:13.744Z</time>
      </trkpt>
      <trkpt lat="46.87604" lon="8.48711">
        <ele>1769</ele>
        <time>2021-08-11T12:28:24.749Z</time>
      </trkpt>
      <trkpt lat="46.87604" lon="8.48711">
        <ele>1769</ele>
        <time>2021-08-11T12:28:37.600Z</time>
      </trkpt>
      <trkpt lat="46.87605" lon="8.48712">
        <ele>1767</ele>
        <time>2021-08-11T12:28:38.601Z</time>
      </trkpt>
      <trkpt lat="46.87605" lon="8.48713">
        <ele>1767</ele>
        <time>2021-08-11T12:28:45.475Z</time>
      </trkpt>
      <trkpt lat="46.87605" lon="8.48714">
        <ele>1767</ele>
        <time>2021-08-11T12:28:52.373Z</time>
      </trkpt>
      <trkpt lat="46.87606" lon="8.48715">
        <ele>1767</ele>
        <time>2021-08-11T12:28:53.373Z</time>
      </trkpt>
      <trkpt lat="46.87607" lon="8.48716">
        <ele>1767</ele>
        <time>2021-08-11T12:28:54.373Z</time>
      </trkpt>
      <trkpt lat="46.87609" lon="8.48717">
        <ele>1768</ele>
        <time>2021-08-11T12:28:55.373Z</time>
      </trkpt>
      <trkpt lat="46.8761" lon="8.48718">
        <ele>1768</ele>
        <time>2021-08-11T12:29:36.348Z</time>
      </trkpt>
      <trkpt lat="46.87611" lon="8.48719">
        <ele>1768</ele>
        <time>2021-08-11T12:29:37.348Z</time>
      </trkpt>
      <trkpt lat="46.87611" lon="8.48719">
        <ele>1768</ele>
        <time>2021-08-11T12:29:38.348Z</time>
      </trkpt>
      <trkpt lat="46.87612" lon="8.48719">
        <ele>1768</ele>
        <time>2021-08-11T12:29:39.347Z</time>
      </trkpt>
      <trkpt lat="46.87612" lon="8.48718">
        <ele>1768</ele>
        <time>2021-08-11T12:29:40.348Z</time>
      </trkpt>
      <trkpt lat="46.87612" lon="8.48717">
        <ele>1768</ele>
        <time>2021-08-11T12:29:45.352Z</time>
      </trkpt>
      <trkpt lat="46.87613" lon="8.48716">
        <ele>1769</ele>
        <time>2021-08-11T12:29:46.352Z</time>
      </trkpt>
      <trkpt lat="46.87613" lon="8.48716">
        <ele>1769</ele>
        <time>2021-08-11T12:29:47.352Z</time>
      </trkpt>
      <trkpt lat="46.87613" lon="8.48716">
        <ele>1769</ele>
        <time>2021-08-11T12:29:59.482Z</time>
      </trkpt>
      <trkpt lat="46.87614" lon="8.48716">
        <ele>1770</ele>
        <time>2021-08-11T12:30:00.481Z</time>
      </trkpt>
      <trkpt lat="46.87614" lon="8.48716">
        <ele>1770</ele>
        <time>2021-08-11T12:30:01.481Z</time>
      </trkpt>
      <trkpt lat="46.87615" lon="8.48716">
        <ele>1771</ele>
        <time>2021-08-11T12:30:02.482Z</time>
      </trkpt>
      <trkpt lat="46.87616" lon="8.48717">
        <ele>1772</ele>
        <time>2021-08-11T12:30:03.481Z</time>
      </trkpt>
      <trkpt lat="46.87617" lon="8.48717">
        <ele>1772</ele>
        <time>2021-08-11T12:30:04.482Z</time>
      </trkpt>
      <trkpt lat="46.87617" lon="8.48718">
        <ele>1773</ele>
        <time>2021-08-11T12:30:05.482Z</time>
      </trkpt>
      <trkpt lat="46.87617" lon="8.48719">
        <ele>1774</ele>
        <time>2021-08-11T12:30:06.482Z</time>
      </trkpt>
      <trkpt lat="46.87617" lon="8.4872">
        <ele>1774</ele>
        <time>2021-08-11T12:30:07.482Z</time>
      </trkpt>
      <trkpt lat="46.87617" lon="8.4872">
        <ele>1775</ele>
        <time>2021-08-11T12:30:08.481Z</time>
      </trkpt>
      <trkpt lat="46.87617" lon="8.4872">
        <ele>1775</ele>
        <time>2021-08-11T12:30:10.581Z</time>
      </trkpt>
      <trkpt lat="46.87617" lon="8.48721">
        <ele>1775</ele>
        <time>2021-08-11T12:30:11.582Z</time>
      </trkpt>
      <trkpt lat="46.87617" lon="8.48721">
        <ele>1776</ele>
        <time>2021-08-11T12:30:12.582Z</time>
      </trkpt>
      <trkpt lat="46.87617" lon="8.48721">
        <ele>1776</ele>
        <time>2021-08-11T12:30:13.582Z</time>
      </trkpt>
      <trkpt lat="46.87617" lon="8.4872">
        <ele>1776</ele>
        <time>2021-08-11T12:30:14.582Z</time>
      </trkpt>
      <trkpt lat="46.87617" lon="8.48718">
        <ele>1777</ele>
        <time>2021-08-11T12:30:15.581Z</time>
      </trkpt>
      <trkpt lat="46.87616" lon="8.48717">
        <ele>1777</ele>
        <time>2021-08-11T12:30:16.581Z</time>
      </trkpt>
      <trkpt lat="46.87616" lon="8.48717">
        <ele>1777</ele>
        <time>2021-08-11T12:30:17.582Z</time>
      </trkpt>
      <trkpt lat="46.87617" lon="8.48716">
        <ele>1777</ele>
        <time>2021-08-11T12:30:18.581Z</time>
      </trkpt>
      <trkpt lat="46.87617" lon="8.48716">
        <ele>1777</ele>
        <time>2021-08-11T12:30:19.582Z</time>
      </trkpt>
      <trkpt lat="46.87618" lon="8.48716">
        <ele>1778</ele>
        <time>2021-08-11T12:30:20.581Z</time>
      </trkpt>
      <trkpt lat="46.87619" lon="8.48716">
        <ele>1778</ele>
        <time>2021-08-11T12:30:21.582Z</time>
      </trkpt>
      <trkpt lat="46.87619" lon="8.48716">
        <ele>1777</ele>
        <time>2021-08-11T12:30:22.582Z</time>
      </trkpt>
      <trkpt lat="46.87619" lon="8.48716">
        <ele>1777</ele>
        <time>2021-08-11T12:30:23.582Z</time>
      </trkpt>
      <trkpt lat="46.87619" lon="8.48715">
        <ele>1778</ele>
        <time>2021-08-11T12:30:28.643Z</time>
      </trkpt>
      <trkpt lat="46.87618" lon="8.48715">
        <ele>1778</ele>
        <time>2021-08-11T12:30:29.644Z</time>
      </trkpt>
      <trkpt lat="46.87618" lon="8.48714">
        <ele>1778</ele>
        <time>2021-08-11T12:30:30.643Z</time>
      </trkpt>
      <trkpt lat="46.87618" lon="8.48713">
        <ele>1779</ele>
        <time>2021-08-11T12:30:31.644Z</time>
      </trkpt>
      <trkpt lat="46.87617" lon="8.48711">
        <ele>1779</ele>
        <time>2021-08-11T12:30:32.643Z</time>
      </trkpt>
      <trkpt lat="46.87617" lon="8.4871">
        <ele>1779</ele>
        <time>2021-08-11T12:30:33.643Z</time>
      </trkpt>
      <trkpt lat="46.87616" lon="8.4871">
        <ele>1779</ele>
        <time>2021-08-11T12:30:34.643Z</time>
      </trkpt>
      <trkpt lat="46.87614" lon="8.48705">
        <ele>1786</ele>
        <time>2021-08-11T12:30:35.644Z</time>
      </trkpt>
      <trkpt lat="46.87612" lon="8.48706">
        <ele>1786</ele>
        <time>2021-08-11T12:30:36.644Z</time>
      </trkpt>
      <trkpt lat="46.87612" lon="8.48706">
        <ele>1787</ele>
        <time>2021-08-11T12:30:37.645Z</time>
      </trkpt>
      <trkpt lat="46.87612" lon="8.48706">
        <ele>1787</ele>
        <time>2021-08-11T12:30:38.644Z</time>
      </trkpt>
      <trkpt lat="46.87611" lon="8.48705">
        <ele>1787</ele>
        <time>2021-08-11T12:30:39.645Z</time>
      </trkpt>
      <trkpt lat="46.87611" lon="8.48705">
        <ele>1787</ele>
        <time>2021-08-11T12:30:40.644Z</time>
      </trkpt>
      <trkpt lat="46.87613" lon="8.48704">
        <ele>1788</ele>
        <time>2021-08-11T12:30:41.646Z</time>
      </trkpt>
      <trkpt lat="46.87612" lon="8.48703">
        <ele>1788</ele>
        <time>2021-08-11T12:30:42.645Z</time>
      </trkpt>
      <trkpt lat="46.87612" lon="8.48702">
        <ele>1788</ele>
        <time>2021-08-11T12:30:43.646Z</time>
      </trkpt>
      <trkpt lat="46.87613" lon="8.487">
        <ele>1788</ele>
        <time>2021-08-11T12:30:44.646Z</time>
      </trkpt>
      <trkpt lat="46.87613" lon="8.487">
        <ele>1788</ele>
        <time>2021-08-11T12:30:45.646Z</time>
      </trkpt>
      <trkpt lat="46.87613" lon="8.48699">
        <ele>1788</ele>
        <time>2021-08-11T12:30:46.645Z</time>
      </trkpt>
      <trkpt lat="46.87613" lon="8.48698">
        <ele>1787</ele>
        <time>2021-08-11T12:30:47.646Z</time>
      </trkpt>
      <trkpt lat="46.87613" lon="8.48697">
        <ele>1786</ele>
        <time>2021-08-11T12:30:48.646Z</time>
      </trkpt>
      <trkpt lat="46.87613" lon="8.48696">
        <ele>1785</ele>
        <time>2021-08-11T12:30:49.645Z</time>
      </trkpt>
      <trkpt lat="46.87613" lon="8.48695">
        <ele>1785</ele>
        <time>2021-08-11T12:30:50.646Z</time>
      </trkpt>
      <trkpt lat="46.87613" lon="8.48694">
        <ele>1784</ele>
        <time>2021-08-11T12:30:51.646Z</time>
      </trkpt>
      <trkpt lat="46.87613" lon="8.48693">
        <ele>1784</ele>
        <time>2021-08-11T12:30:52.645Z</time>
      </trkpt>
      <trkpt lat="46.87614" lon="8.48692">
        <ele>1783</ele>
        <time>2021-08-11T12:30:53.646Z</time>
      </trkpt>
      <trkpt lat="46.87613" lon="8.48691">
        <ele>1783</ele>
        <time>2021-08-11T12:30:54.646Z</time>
      </trkpt>
      <trkpt lat="46.87613" lon="8.4869">
        <ele>1782</ele>
        <time>2021-08-11T12:30:59.723Z</time>
      </trkpt>
      <trkpt lat="46.87614" lon="8.48689">
        <ele>1782</ele>
        <time>2021-08-11T12:31:00.722Z</time>
      </trkpt>
      <trkpt lat="46.87614" lon="8.48688">
        <ele>1782</ele>
        <time>2021-08-11T12:31:37.473Z</time>
      </trkpt>
      <trkpt lat="46.87615" lon="8.48687">
        <ele>1781</ele>
        <time>2021-08-11T12:31:38.473Z</time>
      </trkpt>
      <trkpt lat="46.87614" lon="8.48686">
        <ele>1781</ele>
        <time>2021-08-11T12:31:39.472Z</time>
      </trkpt>
      <trkpt lat="46.87614" lon="8.48684">
        <ele>1782</ele>
        <time>2021-08-11T12:31:40.473Z</time>
      </trkpt>
      <trkpt lat="46.87614" lon="8.48684">
        <ele>1782</ele>
        <time>2021-08-11T12:32:20.476Z</time>
      </trkpt>
      <trkpt lat="46.87615" lon="8.48683">
        <ele>1782</ele>
        <time>2021-08-11T12:32:21.475Z</time>
      </trkpt>
      <trkpt lat="46.87615" lon="8.48682">
        <ele>1782</ele>
        <time>2021-08-11T12:32:22.476Z</time>
      </trkpt>
      <trkpt lat="46.87616" lon="8.48681">
        <ele>1783</ele>
        <time>2021-08-11T12:32:23.476Z</time>
      </trkpt>
      <trkpt lat="46.87616" lon="8.48681">
        <ele>1783</ele>
        <time>2021-08-11T12:32:24.476Z</time>
      </trkpt>
      <trkpt lat="46.87617" lon="8.4868">
        <ele>1783</ele>
        <time>2021-08-11T12:32:25.475Z</time>
      </trkpt>
      <trkpt lat="46.87617" lon="8.4868">
        <ele>1782</ele>
        <time>2021-08-11T12:32:26.476Z</time>
      </trkpt>
      <trkpt lat="46.87617" lon="8.48679">
        <ele>1781</ele>
        <time>2021-08-11T12:32:27.476Z</time>
      </trkpt>
      <trkpt lat="46.87618" lon="8.48678">
        <ele>1781</ele>
        <time>2021-08-11T12:32:28.475Z</time>
      </trkpt>
      <trkpt lat="46.87618" lon="8.48677">
        <ele>1780</ele>
        <time>2021-08-11T12:32:29.476Z</time>
      </trkpt>
      <trkpt lat="46.87618" lon="8.48676">
        <ele>1780</ele>
        <time>2021-08-11T12:32:30.476Z</time>
      </trkpt>
      <trkpt lat="46.87619" lon="8.48675">
        <ele>1779</ele>
        <time>2021-08-11T12:32:31.475Z</time>
      </trkpt>
      <trkpt lat="46.87619" lon="8.48674">
        <ele>1779</ele>
        <time>2021-08-11T12:32:32.475Z</time>
      </trkpt>
      <trkpt lat="46.87619" lon="8.48674">
        <ele>1778</ele>
        <time>2021-08-11T12:32:33.476Z</time>
      </trkpt>
      <trkpt lat="46.87619" lon="8.48673">
        <ele>1777</ele>
        <time>2021-08-11T12:32:34.475Z</time>
      </trkpt>
      <trkpt lat="46.87619" lon="8.48673">
        <ele>1777</ele>
        <time>2021-08-11T12:32:35.476Z</time>
      </trkpt>
      <trkpt lat="46.87622" lon="8.48674">
        <ele>1773</ele>
        <time>2021-08-11T12:32:36.476Z</time>
      </trkpt>
      <trkpt lat="46.87623" lon="8.48673">
        <ele>1773</ele>
        <time>2021-08-11T12:32:37.477Z</time>
      </trkpt>
      <trkpt lat="46.87623" lon="8.48672">
        <ele>1773</ele>
        <time>2021-08-11T12:32:38.476Z</time>
      </trkpt>
      <trkpt lat="46.87623" lon="8.48671">
        <ele>1773</ele>
        <time>2021-08-11T12:32:39.477Z</time>
      </trkpt>
      <trkpt lat="46.87623" lon="8.4867">
        <ele>1773</ele>
        <time>2021-08-11T12:32:40.477Z</time>
      </trkpt>
      <trkpt lat="46.87623" lon="8.48669">
        <ele>1773</ele>
        <time>2021-08-11T12:32:41.476Z</time>
      </trkpt>
      <trkpt lat="46.87623" lon="8.48667">
        <ele>1773</ele>
        <time>2021-08-11T12:32:42.477Z</time>
      </trkpt>
      <trkpt lat="46.87622" lon="8.48665">
        <ele>1773</ele>
        <time>2021-08-11T12:32:43.477Z</time>
      </trkpt>
      <trkpt lat="46.87622" lon="8.48664">
        <ele>1773</ele>
        <time>2021-08-11T12:32:44.476Z</time>
      </trkpt>
      <trkpt lat="46.87621" lon="8.48663">
        <ele>1772</ele>
        <time>2021-08-11T12:32:45.477Z</time>
      </trkpt>
      <trkpt lat="46.8762" lon="8.48663">
        <ele>1772</ele>
        <time>2021-08-11T12:32:46.477Z</time>
      </trkpt>
      <trkpt lat="46.87619" lon="8.48662">
        <ele>1772</ele>
        <time>2021-08-11T12:32:47.477Z</time>
      </trkpt>
      <trkpt lat="46.87619" lon="8.48662">
        <ele>1772</ele>
        <time>2021-08-11T12:32:48.476Z</time>
      </trkpt>
      <trkpt lat="46.87618" lon="8.48662">
        <ele>1772</ele>
        <time>2021-08-11T12:32:49.476Z</time>
      </trkpt>
      <trkpt lat="46.87617" lon="8.48662">
        <ele>1771</ele>
        <time>2021-08-11T12:32:50.476Z</time>
      </trkpt>
      <trkpt lat="46.87617" lon="8.48661">
        <ele>1771</ele>
        <time>2021-08-11T12:32:51.476Z</time>
      </trkpt>
      <trkpt lat="46.87616" lon="8.48661">
        <ele>1770</ele>
        <time>2021-08-11T12:32:52.477Z</time>
      </trkpt>
      <trkpt lat="46.87616" lon="8.4866">
        <ele>1770</ele>
        <time>2021-08-11T12:32:53.477Z</time>
      </trkpt>
      <trkpt lat="46.87615" lon="8.4866">
        <ele>1770</ele>
        <time>2021-08-11T12:32:54.477Z</time>
      </trkpt>
      <trkpt lat="46.87615" lon="8.4866">
        <ele>1770</ele>
        <time>2021-08-11T12:32:55.476Z</time>
      </trkpt>
      <trkpt lat="46.87614" lon="8.4866">
        <ele>1770</ele>
        <time>2021-08-11T12:32:56.477Z</time>
      </trkpt>
      <trkpt lat="46.87615" lon="8.48664">
        <ele>1770</ele>
        <time>2021-08-11T12:32:57.478Z</time>
      </trkpt>
      <trkpt lat="46.87615" lon="8.48664">
        <ele>1770</ele>
        <time>2021-08-11T12:32:58.477Z</time>
      </trkpt>
      <trkpt lat="46.87615" lon="8.48664">
        <ele>1770</ele>
        <time>2021-08-11T12:32:59.478Z</time>
      </trkpt>
      <trkpt lat="46.87614" lon="8.48664">
        <ele>1774</ele>
        <time>2021-08-11T12:33:00.479Z</time>
      </trkpt>
      <trkpt lat="46.87615" lon="8.48664">
        <ele>1774</ele>
        <time>2021-08-11T12:33:01.478Z</time>
      </trkpt>
      <trkpt lat="46.87615" lon="8.48664">
        <ele>1774</ele>
        <time>2021-08-11T12:33:02.479Z</time>
      </trkpt>
      <trkpt lat="46.87615" lon="8.48665">
        <ele>1775</ele>
        <time>2021-08-11T12:33:03.478Z</time>
      </trkpt>
      <trkpt lat="46.87615" lon="8.48665">
        <ele>1775</ele>
        <time>2021-08-11T12:33:04.479Z</time>
      </trkpt>
      <trkpt lat="46.87616" lon="8.48665">
        <ele>1775</ele>
        <time>2021-08-11T12:33:05.479Z</time>
      </trkpt>
      <trkpt lat="46.87615" lon="8.48663">
        <ele>1778</ele>
        <time>2021-08-11T12:33:06.479Z</time>
      </trkpt>
      <trkpt lat="46.87615" lon="8.48663">
        <ele>1778</ele>
        <time>2021-08-11T12:33:07.479Z</time>
      </trkpt>
      <trkpt lat="46.87612" lon="8.48658">
        <ele>1776</ele>
        <time>2021-08-11T12:33:08.480Z</time>
      </trkpt>
      <trkpt lat="46.87611" lon="8.48657">
        <ele>1776</ele>
        <time>2021-08-11T12:33:09.480Z</time>
      </trkpt>
      <trkpt lat="46.87611" lon="8.48657">
        <ele>1775</ele>
        <time>2021-08-11T12:33:10.479Z</time>
      </trkpt>
      <trkpt lat="46.8761" lon="8.48656">
        <ele>1775</ele>
        <time>2021-08-11T12:33:11.479Z</time>
      </trkpt>
      <trkpt lat="46.87609" lon="8.48655">
        <ele>1775</ele>
        <time>2021-08-11T12:33:12.479Z</time>
      </trkpt>
      <trkpt lat="46.87608" lon="8.48655">
        <ele>1775</ele>
        <time>2021-08-11T12:33:13.479Z</time>
      </trkpt>
      <trkpt lat="46.87607" lon="8.48654">
        <ele>1775</ele>
        <time>2021-08-11T12:33:14.479Z</time>
      </trkpt>
      <trkpt lat="46.87606" lon="8.48654">
        <ele>1775</ele>
        <time>2021-08-11T12:33:15.479Z</time>
      </trkpt>
      <trkpt lat="46.87606" lon="8.48653">
        <ele>1774</ele>
        <time>2021-08-11T12:33:16.479Z</time>
      </trkpt>
      <trkpt lat="46.87606" lon="8.48652">
        <ele>1774</ele>
        <time>2021-08-11T12:33:17.480Z</time>
      </trkpt>
      <trkpt lat="46.87605" lon="8.48652">
        <ele>1774</ele>
        <time>2021-08-11T12:33:18.479Z</time>
      </trkpt>
      <trkpt lat="46.87605" lon="8.48652">
        <ele>1774</ele>
        <time>2021-08-11T12:33:19.479Z</time>
      </trkpt>
      <trkpt lat="46.87604" lon="8.48651">
        <ele>1774</ele>
        <time>2021-08-11T12:33:20.480Z</time>
      </trkpt>
      <trkpt lat="46.87603" lon="8.4865">
        <ele>1774</ele>
        <time>2021-08-11T12:33:21.479Z</time>
      </trkpt>
      <trkpt lat="46.87602" lon="8.48649">
        <ele>1774</ele>
        <time>2021-08-11T12:33:22.480Z</time>
      </trkpt>
      <trkpt lat="46.87601" lon="8.48648">
        <ele>1774</ele>
        <time>2021-08-11T12:33:23.479Z</time>
      </trkpt>
      <trkpt lat="46.87601" lon="8.48647">
        <ele>1774</ele>
        <time>2021-08-11T12:33:24.479Z</time>
      </trkpt>
      <trkpt lat="46.87601" lon="8.48646">
        <ele>1774</ele>
        <time>2021-08-11T12:33:25.479Z</time>
      </trkpt>
      <trkpt lat="46.876" lon="8.48646">
        <ele>1774</ele>
        <time>2021-08-11T12:33:26.480Z</time>
      </trkpt>
      <trkpt lat="46.876" lon="8.48646">
        <ele>1773</ele>
        <time>2021-08-11T12:33:27.479Z</time>
      </trkpt>
      <trkpt lat="46.87599" lon="8.48646">
        <ele>1773</ele>
        <time>2021-08-11T12:33:28.480Z</time>
      </trkpt>
      <trkpt lat="46.87599" lon="8.48645">
        <ele>1773</ele>
        <time>2021-08-11T12:33:29.479Z</time>
      </trkpt>
      <trkpt lat="46.87598" lon="8.48644">
        <ele>1774</ele>
        <time>2021-08-11T12:33:30.479Z</time>
      </trkpt>
      <trkpt lat="46.87596" lon="8.48644">
        <ele>1774</ele>
        <time>2021-08-11T12:33:31.480Z</time>
      </trkpt>
      <trkpt lat="46.87596" lon="8.48644">
        <ele>1774</ele>
        <time>2021-08-11T12:33:32.479Z</time>
      </trkpt>
      <trkpt lat="46.87595" lon="8.48644">
        <ele>1775</ele>
        <time>2021-08-11T12:33:33.479Z</time>
      </trkpt>
      <trkpt lat="46.87594" lon="8.48643">
        <ele>1775</ele>
        <time>2021-08-11T12:33:34.479Z</time>
      </trkpt>
      <trkpt lat="46.87593" lon="8.48641">
        <ele>1775</ele>
        <time>2021-08-11T12:33:35.479Z</time>
      </trkpt>
      <trkpt lat="46.87593" lon="8.4864">
        <ele>1776</ele>
        <time>2021-08-11T12:33:36.479Z</time>
      </trkpt>
      <trkpt lat="46.87592" lon="8.48639">
        <ele>1776</ele>
        <time>2021-08-11T12:33:37.479Z</time>
      </trkpt>
      <trkpt lat="46.87592" lon="8.48638">
        <ele>1776</ele>
        <time>2021-08-11T12:33:38.479Z</time>
      </trkpt>
      <trkpt lat="46.87591" lon="8.48637">
        <ele>1777</ele>
        <time>2021-08-11T12:33:39.479Z</time>
      </trkpt>
      <trkpt lat="46.87591" lon="8.48637">
        <ele>1777</ele>
        <time>2021-08-11T12:33:40.480Z</time>
      </trkpt>
      <trkpt lat="46.87591" lon="8.48636">
        <ele>1777</ele>
        <time>2021-08-11T12:33:41.479Z</time>
      </trkpt>
      <trkpt lat="46.87591" lon="8.48634">
        <ele>1777</ele>
        <time>2021-08-11T12:33:42.479Z</time>
      </trkpt>
      <trkpt lat="46.87591" lon="8.48633">
        <ele>1777</ele>
        <time>2021-08-11T12:33:43.479Z</time>
      </trkpt>
      <trkpt lat="46.8759" lon="8.48632">
        <ele>1777</ele>
        <time>2021-08-11T12:33:44.479Z</time>
      </trkpt>
      <trkpt lat="46.8759" lon="8.48632">
        <ele>1777</ele>
        <time>2021-08-11T12:33:45.480Z</time>
      </trkpt>
      <trkpt lat="46.8759" lon="8.48631">
        <ele>1777</ele>
        <time>2021-08-11T12:33:46.479Z</time>
      </trkpt>
      <trkpt lat="46.87591" lon="8.4863">
        <ele>1777</ele>
        <time>2021-08-11T12:33:47.479Z</time>
      </trkpt>
      <trkpt lat="46.87591" lon="8.4863">
        <ele>1777</ele>
        <time>2021-08-11T12:33:48.479Z</time>
      </trkpt>
      <trkpt lat="46.87591" lon="8.48628">
        <ele>1777</ele>
        <time>2021-08-11T12:33:49.479Z</time>
      </trkpt>
      <trkpt lat="46.8759" lon="8.48628">
        <ele>1778</ele>
        <time>2021-08-11T12:33:50.479Z</time>
      </trkpt>
      <trkpt lat="46.87591" lon="8.48627">
        <ele>1778</ele>
        <time>2021-08-11T12:33:51.479Z</time>
      </trkpt>
      <trkpt lat="46.87591" lon="8.48626">
        <ele>1778</ele>
        <time>2021-08-11T12:33:52.479Z</time>
      </trkpt>
      <trkpt lat="46.8759" lon="8.48625">
        <ele>1778</ele>
        <time>2021-08-11T12:33:53.479Z</time>
      </trkpt>
      <trkpt lat="46.87591" lon="8.48625">
        <ele>1778</ele>
        <time>2021-08-11T12:33:54.480Z</time>
      </trkpt>
      <trkpt lat="46.87591" lon="8.48624">
        <ele>1778</ele>
        <time>2021-08-11T12:33:55.479Z</time>
      </trkpt>
      <trkpt lat="46.87591" lon="8.48623">
        <ele>1778</ele>
        <time>2021-08-11T12:33:56.480Z</time>
      </trkpt>
      <trkpt lat="46.87591" lon="8.48622">
        <ele>1778</ele>
        <time>2021-08-11T12:33:57.479Z</time>
      </trkpt>
      <trkpt lat="46.87591" lon="8.48621">
        <ele>1778</ele>
        <time>2021-08-11T12:33:58.479Z</time>
      </trkpt>
      <trkpt lat="46.87591" lon="8.48619">
        <ele>1778</ele>
        <time>2021-08-11T12:33:59.479Z</time>
      </trkpt>
      <trkpt lat="46.8759" lon="8.48617">
        <ele>1778</ele>
        <time>2021-08-11T12:34:00.479Z</time>
      </trkpt>
      <trkpt lat="46.8759" lon="8.48615">
        <ele>1778</ele>
        <time>2021-08-11T12:34:01.479Z</time>
      </trkpt>
      <trkpt lat="46.87589" lon="8.48613">
        <ele>1778</ele>
        <time>2021-08-11T12:34:02.479Z</time>
      </trkpt>
      <trkpt lat="46.87589" lon="8.48612">
        <ele>1778</ele>
        <time>2021-08-11T12:34:03.479Z</time>
      </trkpt>
      <trkpt lat="46.87588" lon="8.4861">
        <ele>1778</ele>
        <time>2021-08-11T12:34:04.480Z</time>
      </trkpt>
      <trkpt lat="46.87587" lon="8.48607">
        <ele>1779</ele>
        <time>2021-08-11T12:34:05.479Z</time>
      </trkpt>
      <trkpt lat="46.87586" lon="8.48605">
        <ele>1779</ele>
        <time>2021-08-11T12:34:06.479Z</time>
      </trkpt>
      <trkpt lat="46.87585" lon="8.48603">
        <ele>1779</ele>
        <time>2021-08-11T12:34:07.479Z</time>
      </trkpt>
      <trkpt lat="46.87585" lon="8.48601">
        <ele>1779</ele>
        <time>2021-08-11T12:34:08.479Z</time>
      </trkpt>
      <trkpt lat="46.87584" lon="8.48599">
        <ele>1779</ele>
        <time>2021-08-11T12:34:09.479Z</time>
      </trkpt>
      <trkpt lat="46.87583" lon="8.48598">
        <ele>1779</ele>
        <time>2021-08-11T12:34:10.479Z</time>
      </trkpt>
      <trkpt lat="46.87583" lon="8.48597">
        <ele>1779</ele>
        <time>2021-08-11T12:34:11.479Z</time>
      </trkpt>
      <trkpt lat="46.87582" lon="8.48596">
        <ele>1779</ele>
        <time>2021-08-11T12:34:12.479Z</time>
      </trkpt>
      <trkpt lat="46.87581" lon="8.48595">
        <ele>1779</ele>
        <time>2021-08-11T12:34:13.479Z</time>
      </trkpt>
      <trkpt lat="46.87581" lon="8.48593">
        <ele>1779</ele>
        <time>2021-08-11T12:34:14.479Z</time>
      </trkpt>
      <trkpt lat="46.87581" lon="8.48591">
        <ele>1779</ele>
        <time>2021-08-11T12:34:15.479Z</time>
      </trkpt>
      <trkpt lat="46.8758" lon="8.4859">
        <ele>1779</ele>
        <time>2021-08-11T12:34:16.479Z</time>
      </trkpt>
      <trkpt lat="46.8758" lon="8.48588">
        <ele>1779</ele>
        <time>2021-08-11T12:34:17.479Z</time>
      </trkpt>
      <trkpt lat="46.87579" lon="8.48587">
        <ele>1779</ele>
        <time>2021-08-11T12:34:18.479Z</time>
      </trkpt>
      <trkpt lat="46.87577" lon="8.48585">
        <ele>1779</ele>
        <time>2021-08-11T12:34:19.479Z</time>
      </trkpt>
      <trkpt lat="46.87576" lon="8.48584">
        <ele>1778</ele>
        <time>2021-08-11T12:34:20.479Z</time>
      </trkpt>
      <trkpt lat="46.87574" lon="8.48583">
        <ele>1778</ele>
        <time>2021-08-11T12:34:21.479Z</time>
      </trkpt>
      <trkpt lat="46.87573" lon="8.48581">
        <ele>1778</ele>
        <time>2021-08-11T12:34:22.479Z</time>
      </trkpt>
      <trkpt lat="46.87572" lon="8.4858">
        <ele>1778</ele>
        <time>2021-08-11T12:34:23.480Z</time>
      </trkpt>
      <trkpt lat="46.87572" lon="8.48579">
        <ele>1778</ele>
        <time>2021-08-11T12:34:24.479Z</time>
      </trkpt>
      <trkpt lat="46.87571" lon="8.48578">
        <ele>1777</ele>
        <time>2021-08-11T12:34:25.480Z</time>
      </trkpt>
      <trkpt lat="46.87571" lon="8.48577">
        <ele>1777</ele>
        <time>2021-08-11T12:34:26.480Z</time>
      </trkpt>
      <trkpt lat="46.87572" lon="8.48576">
        <ele>1777</ele>
        <time>2021-08-11T12:34:27.479Z</time>
      </trkpt>
      <trkpt lat="46.87572" lon="8.48576">
        <ele>1777</ele>
        <time>2021-08-11T12:34:28.479Z</time>
      </trkpt>
      <trkpt lat="46.87572" lon="8.48574">
        <ele>1777</ele>
        <time>2021-08-11T12:34:29.479Z</time>
      </trkpt>
      <trkpt lat="46.87572" lon="8.48573">
        <ele>1777</ele>
        <time>2021-08-11T12:34:30.479Z</time>
      </trkpt>
      <trkpt lat="46.87572" lon="8.48571">
        <ele>1777</ele>
        <time>2021-08-11T12:34:31.479Z</time>
      </trkpt>
      <trkpt lat="46.87572" lon="8.4857">
        <ele>1777</ele>
        <time>2021-08-11T12:34:32.480Z</time>
      </trkpt>
      <trkpt lat="46.87571" lon="8.48568">
        <ele>1777</ele>
        <time>2021-08-11T12:34:33.479Z</time>
      </trkpt>
      <trkpt lat="46.87571" lon="8.48566">
        <ele>1777</ele>
        <time>2021-08-11T12:34:34.479Z</time>
      </trkpt>
      <trkpt lat="46.87569" lon="8.48565">
        <ele>1777</ele>
        <time>2021-08-11T12:34:35.479Z</time>
      </trkpt>
      <trkpt lat="46.87569" lon="8.48564">
        <ele>1777</ele>
        <time>2021-08-11T12:34:36.479Z</time>
      </trkpt>
      <trkpt lat="46.87569" lon="8.48563">
        <ele>1777</ele>
        <time>2021-08-11T12:34:37.479Z</time>
      </trkpt>
      <trkpt lat="46.87568" lon="8.48561">
        <ele>1777</ele>
        <time>2021-08-11T12:34:38.479Z</time>
      </trkpt>
      <trkpt lat="46.87567" lon="8.48559">
        <ele>1777</ele>
        <time>2021-08-11T12:34:39.480Z</time>
      </trkpt>
      <trkpt lat="46.87564" lon="8.48556">
        <ele>1777</ele>
        <time>2021-08-11T12:34:40.479Z</time>
      </trkpt>
      <trkpt lat="46.87561" lon="8.48552">
        <ele>1777</ele>
        <time>2021-08-11T12:34:41.479Z</time>
      </trkpt>
      <trkpt lat="46.87558" lon="8.4855">
        <ele>1777</ele>
        <time>2021-08-11T12:34:42.479Z</time>
      </trkpt>
      <trkpt lat="46.87557" lon="8.48547">
        <ele>1777</ele>
        <time>2021-08-11T12:34:43.479Z</time>
      </trkpt>
      <trkpt lat="46.87555" lon="8.48546">
        <ele>1777</ele>
        <time>2021-08-11T12:34:44.479Z</time>
      </trkpt>
      <trkpt lat="46.87554" lon="8.48544">
        <ele>1777</ele>
        <time>2021-08-11T12:34:45.479Z</time>
      </trkpt>
      <trkpt lat="46.87553" lon="8.48542">
        <ele>1777</ele>
        <time>2021-08-11T12:34:46.479Z</time>
      </trkpt>
      <trkpt lat="46.87552" lon="8.4854">
        <ele>1777</ele>
        <time>2021-08-11T12:34:47.479Z</time>
      </trkpt>
      <trkpt lat="46.87552" lon="8.48539">
        <ele>1777</ele>
        <time>2021-08-11T12:34:48.479Z</time>
      </trkpt>
      <trkpt lat="46.87552" lon="8.48538">
        <ele>1777</ele>
        <time>2021-08-11T12:34:49.480Z</time>
      </trkpt>
      <trkpt lat="46.87552" lon="8.48536">
        <ele>1778</ele>
        <time>2021-08-11T12:34:50.479Z</time>
      </trkpt>
      <trkpt lat="46.87552" lon="8.48535">
        <ele>1778</ele>
        <time>2021-08-11T12:34:51.479Z</time>
      </trkpt>
      <trkpt lat="46.87551" lon="8.48533">
        <ele>1778</ele>
        <time>2021-08-11T12:34:52.480Z</time>
      </trkpt>
      <trkpt lat="46.87551" lon="8.48532">
        <ele>1778</ele>
        <time>2021-08-11T12:34:53.479Z</time>
      </trkpt>
      <trkpt lat="46.87552" lon="8.4853">
        <ele>1778</ele>
        <time>2021-08-11T12:34:54.479Z</time>
      </trkpt>
      <trkpt lat="46.87552" lon="8.48529">
        <ele>1778</ele>
        <time>2021-08-11T12:34:55.479Z</time>
      </trkpt>
      <trkpt lat="46.87553" lon="8.48528">
        <ele>1778</ele>
        <time>2021-08-11T12:34:56.479Z</time>
      </trkpt>
      <trkpt lat="46.87553" lon="8.48527">
        <ele>1777</ele>
        <time>2021-08-11T12:34:57.479Z</time>
      </trkpt>
      <trkpt lat="46.87554" lon="8.48526">
        <ele>1777</ele>
        <time>2021-08-11T12:34:58.479Z</time>
      </trkpt>
      <trkpt lat="46.87555" lon="8.48525">
        <ele>1777</ele>
        <time>2021-08-11T12:34:59.479Z</time>
      </trkpt>
      <trkpt lat="46.87555" lon="8.48523">
        <ele>1777</ele>
        <time>2021-08-11T12:35:00.479Z</time>
      </trkpt>
      <trkpt lat="46.87555" lon="8.48522">
        <ele>1777</ele>
        <time>2021-08-11T12:35:01.479Z</time>
      </trkpt>
      <trkpt lat="46.87555" lon="8.4852">
        <ele>1777</ele>
        <time>2021-08-11T12:35:02.479Z</time>
      </trkpt>
      <trkpt lat="46.87555" lon="8.48519">
        <ele>1777</ele>
        <time>2021-08-11T12:35:03.479Z</time>
      </trkpt>
      <trkpt lat="46.87555" lon="8.48517">
        <ele>1777</ele>
        <time>2021-08-11T12:35:04.479Z</time>
      </trkpt>
      <trkpt lat="46.87556" lon="8.48517">
        <ele>1776</ele>
        <time>2021-08-11T12:35:05.479Z</time>
      </trkpt>
      <trkpt lat="46.87557" lon="8.48516">
        <ele>1776</ele>
        <time>2021-08-11T12:35:06.480Z</time>
      </trkpt>
      <trkpt lat="46.87559" lon="8.48515">
        <ele>1776</ele>
        <time>2021-08-11T12:35:07.479Z</time>
      </trkpt>
      <trkpt lat="46.87561" lon="8.48513">
        <ele>1776</ele>
        <time>2021-08-11T12:35:08.480Z</time>
      </trkpt>
      <trkpt lat="46.87561" lon="8.48512">
        <ele>1776</ele>
        <time>2021-08-11T12:35:09.479Z</time>
      </trkpt>
      <trkpt lat="46.87562" lon="8.48511">
        <ele>1776</ele>
        <time>2021-08-11T12:35:10.479Z</time>
      </trkpt>
      <trkpt lat="46.87563" lon="8.48509">
        <ele>1776</ele>
        <time>2021-08-11T12:35:11.479Z</time>
      </trkpt>
      <trkpt lat="46.87565" lon="8.48508">
        <ele>1776</ele>
        <time>2021-08-11T12:35:12.480Z</time>
      </trkpt>
      <trkpt lat="46.87566" lon="8.48508">
        <ele>1776</ele>
        <time>2021-08-11T12:35:13.479Z</time>
      </trkpt>
      <trkpt lat="46.87568" lon="8.48507">
        <ele>1776</ele>
        <time>2021-08-11T12:35:14.479Z</time>
      </trkpt>
      <trkpt lat="46.87569" lon="8.48506">
        <ele>1776</ele>
        <time>2021-08-11T12:35:15.479Z</time>
      </trkpt>
      <trkpt lat="46.87571" lon="8.48505">
        <ele>1775</ele>
        <time>2021-08-11T12:35:28.475Z</time>
      </trkpt>
      <trkpt lat="46.87572" lon="8.48503">
        <ele>1775</ele>
        <time>2021-08-11T12:35:29.475Z</time>
      </trkpt>
      <trkpt lat="46.87572" lon="8.48501">
        <ele>1775</ele>
        <time>2021-08-11T12:35:30.476Z</time>
      </trkpt>
      <trkpt lat="46.87572" lon="8.48499">
        <ele>1775</ele>
        <time>2021-08-11T12:35:31.476Z</time>
      </trkpt>
      <trkpt lat="46.87571" lon="8.48497">
        <ele>1775</ele>
        <time>2021-08-11T12:35:32.475Z</time>
      </trkpt>
      <trkpt lat="46.87571" lon="8.48496">
        <ele>1775</ele>
        <time>2021-08-11T12:35:33.475Z</time>
      </trkpt>
      <trkpt lat="46.87571" lon="8.48495">
        <ele>1775</ele>
        <time>2021-08-11T12:35:34.476Z</time>
      </trkpt>
      <trkpt lat="46.8757" lon="8.48493">
        <ele>1775</ele>
        <time>2021-08-11T12:35:35.475Z</time>
      </trkpt>
      <trkpt lat="46.87571" lon="8.48492">
        <ele>1775</ele>
        <time>2021-08-11T12:35:36.475Z</time>
      </trkpt>
      <trkpt lat="46.87571" lon="8.4849">
        <ele>1775</ele>
        <time>2021-08-11T12:35:37.475Z</time>
      </trkpt>
      <trkpt lat="46.8757" lon="8.48489">
        <ele>1775</ele>
        <time>2021-08-11T12:35:38.475Z</time>
      </trkpt>
      <trkpt lat="46.87569" lon="8.48489">
        <ele>1775</ele>
        <time>2021-08-11T12:35:39.475Z</time>
      </trkpt>
      <trkpt lat="46.87567" lon="8.48488">
        <ele>1774</ele>
        <time>2021-08-11T12:35:40.475Z</time>
      </trkpt>
      <trkpt lat="46.87565" lon="8.48486">
        <ele>1774</ele>
        <time>2021-08-11T12:35:41.475Z</time>
      </trkpt>
      <trkpt lat="46.87563" lon="8.48485">
        <ele>1774</ele>
        <time>2021-08-11T12:35:42.475Z</time>
      </trkpt>
      <trkpt lat="46.87563" lon="8.48484">
        <ele>1774</ele>
        <time>2021-08-11T12:35:43.475Z</time>
      </trkpt>
      <trkpt lat="46.87564" lon="8.48482">
        <ele>1774</ele>
        <time>2021-08-11T12:35:44.475Z</time>
      </trkpt>
      <trkpt lat="46.87565" lon="8.48482">
        <ele>1774</ele>
        <time>2021-08-11T12:35:45.475Z</time>
      </trkpt>
      <trkpt lat="46.87567" lon="8.48482">
        <ele>1774</ele>
        <time>2021-08-11T12:35:46.475Z</time>
      </trkpt>
      <trkpt lat="46.8757" lon="8.48481">
        <ele>1774</ele>
        <time>2021-08-11T12:35:47.476Z</time>
      </trkpt>
      <trkpt lat="46.87571" lon="8.4848">
        <ele>1774</ele>
        <time>2021-08-11T12:35:48.475Z</time>
      </trkpt>
      <trkpt lat="46.87573" lon="8.48479">
        <ele>1774</ele>
        <time>2021-08-11T12:35:49.475Z</time>
      </trkpt>
      <trkpt lat="46.87574" lon="8.48477">
        <ele>1774</ele>
        <time>2021-08-11T12:35:50.475Z</time>
      </trkpt>
      <trkpt lat="46.87575" lon="8.48475">
        <ele>1774</ele>
        <time>2021-08-11T12:35:51.475Z</time>
      </trkpt>
      <trkpt lat="46.87575" lon="8.48473">
        <ele>1774</ele>
        <time>2021-08-11T12:35:52.475Z</time>
      </trkpt>
      <trkpt lat="46.87575" lon="8.48472">
        <ele>1773</ele>
        <time>2021-08-11T12:35:53.475Z</time>
      </trkpt>
      <trkpt lat="46.87576" lon="8.48472">
        <ele>1773</ele>
        <time>2021-08-11T12:35:54.476Z</time>
      </trkpt>
      <trkpt lat="46.87577" lon="8.4847">
        <ele>1773</ele>
        <time>2021-08-11T12:35:55.475Z</time>
      </trkpt>
      <trkpt lat="46.87579" lon="8.4847">
        <ele>1773</ele>
        <time>2021-08-11T12:35:56.475Z</time>
      </trkpt>
      <trkpt lat="46.87579" lon="8.48469">
        <ele>1773</ele>
        <time>2021-08-11T12:35:57.476Z</time>
      </trkpt>
      <trkpt lat="46.87579" lon="8.48468">
        <ele>1773</ele>
        <time>2021-08-11T12:35:58.476Z</time>
      </trkpt>
      <trkpt lat="46.87579" lon="8.48467">
        <ele>1773</ele>
        <time>2021-08-11T12:35:59.475Z</time>
      </trkpt>
      <trkpt lat="46.87578" lon="8.48466">
        <ele>1773</ele>
        <time>2021-08-11T12:36:00.475Z</time>
      </trkpt>
      <trkpt lat="46.87578" lon="8.48464">
        <ele>1773</ele>
        <time>2021-08-11T12:36:01.475Z</time>
      </trkpt>
      <trkpt lat="46.87576" lon="8.48463">
        <ele>1773</ele>
        <time>2021-08-11T12:36:10.491Z</time>
      </trkpt>
      <trkpt lat="46.87577" lon="8.48461">
        <ele>1773</ele>
        <time>2021-08-11T12:36:11.492Z</time>
      </trkpt>
      <trkpt lat="46.87576" lon="8.4846">
        <ele>1773</ele>
        <time>2021-08-11T12:36:21.242Z</time>
      </trkpt>
      <trkpt lat="46.87577" lon="8.48459">
        <ele>1773</ele>
        <time>2021-08-11T12:36:28.108Z</time>
      </trkpt>
      <trkpt lat="46.87576" lon="8.48458">
        <ele>1773</ele>
        <time>2021-08-11T12:36:29.108Z</time>
      </trkpt>
      <trkpt lat="46.87576" lon="8.48456">
        <ele>1773</ele>
        <time>2021-08-11T12:36:30.108Z</time>
      </trkpt>
      <trkpt lat="46.87575" lon="8.48454">
        <ele>1773</ele>
        <time>2021-08-11T12:36:31.108Z</time>
      </trkpt>
      <trkpt lat="46.87577" lon="8.48453">
        <ele>1773</ele>
        <time>2021-08-11T12:36:32.108Z</time>
      </trkpt>
      <trkpt lat="46.87578" lon="8.48451">
        <ele>1773</ele>
        <time>2021-08-11T12:36:33.109Z</time>
      </trkpt>
      <trkpt lat="46.87579" lon="8.48451">
        <ele>1773</ele>
        <time>2021-08-11T12:36:34.108Z</time>
      </trkpt>
      <trkpt lat="46.8758" lon="8.4845">
        <ele>1774</ele>
        <time>2021-08-11T12:36:35.109Z</time>
      </trkpt>
      <trkpt lat="46.87578" lon="8.48449">
        <ele>1774</ele>
        <time>2021-08-11T12:36:36.108Z</time>
      </trkpt>
      <trkpt lat="46.87576" lon="8.48447">
        <ele>1774</ele>
        <time>2021-08-11T12:36:37.108Z</time>
      </trkpt>
      <trkpt lat="46.87576" lon="8.48445">
        <ele>1774</ele>
        <time>2021-08-11T12:36:38.108Z</time>
      </trkpt>
      <trkpt lat="46.87575" lon="8.48444">
        <ele>1774</ele>
        <time>2021-08-11T12:36:39.109Z</time>
      </trkpt>
      <trkpt lat="46.87574" lon="8.48442">
        <ele>1774</ele>
        <time>2021-08-11T12:36:40.108Z</time>
      </trkpt>
      <trkpt lat="46.87574" lon="8.4844">
        <ele>1775</ele>
        <time>2021-08-11T12:36:41.108Z</time>
      </trkpt>
      <trkpt lat="46.87575" lon="8.4844">
        <ele>1775</ele>
        <time>2021-08-11T12:36:42.108Z</time>
      </trkpt>
      <trkpt lat="46.87577" lon="8.4844">
        <ele>1775</ele>
        <time>2021-08-11T12:36:43.108Z</time>
      </trkpt>
      <trkpt lat="46.87578" lon="8.4844">
        <ele>1775</ele>
        <time>2021-08-11T12:36:44.108Z</time>
      </trkpt>
      <trkpt lat="46.87579" lon="8.4844">
        <ele>1775</ele>
        <time>2021-08-11T12:36:45.108Z</time>
      </trkpt>
      <trkpt lat="46.87579" lon="8.4844">
        <ele>1775</ele>
        <time>2021-08-11T12:36:46.108Z</time>
      </trkpt>
      <trkpt lat="46.87578" lon="8.48439">
        <ele>1775</ele>
        <time>2021-08-11T12:36:47.108Z</time>
      </trkpt>
      <trkpt lat="46.87576" lon="8.48438">
        <ele>1775</ele>
        <time>2021-08-11T12:36:48.108Z</time>
      </trkpt>
      <trkpt lat="46.87576" lon="8.48437">
        <ele>1775</ele>
        <time>2021-08-11T12:36:49.108Z</time>
      </trkpt>
      <trkpt lat="46.87575" lon="8.48436">
        <ele>1775</ele>
        <time>2021-08-11T12:36:50.108Z</time>
      </trkpt>
      <trkpt lat="46.87571" lon="8.48434">
        <ele>1774</ele>
        <time>2021-08-11T12:36:51.108Z</time>
      </trkpt>
      <trkpt lat="46.87568" lon="8.48432">
        <ele>1774</ele>
        <time>2021-08-11T12:36:52.108Z</time>
      </trkpt>
      <trkpt lat="46.87565" lon="8.48429">
        <ele>1774</ele>
        <time>2021-08-11T12:36:53.108Z</time>
      </trkpt>
      <trkpt lat="46.87564" lon="8.48428">
        <ele>1774</ele>
        <time>2021-08-11T12:36:54.108Z</time>
      </trkpt>
      <trkpt lat="46.87561" lon="8.48424">
        <ele>1774</ele>
        <time>2021-08-11T12:36:55.108Z</time>
      </trkpt>
      <trkpt lat="46.87561" lon="8.48423">
        <ele>1774</ele>
        <time>2021-08-11T12:36:56.108Z</time>
      </trkpt>
      <trkpt lat="46.87561" lon="8.48422">
        <ele>1774</ele>
        <time>2021-08-11T12:36:57.108Z</time>
      </trkpt>
      <trkpt lat="46.87564" lon="8.48422">
        <ele>1774</ele>
        <time>2021-08-11T12:36:58.108Z</time>
      </trkpt>
      <trkpt lat="46.87566" lon="8.48422">
        <ele>1774</ele>
        <time>2021-08-11T12:36:59.108Z</time>
      </trkpt>
      <trkpt lat="46.87571" lon="8.48421">
        <ele>1774</ele>
        <time>2021-08-11T12:37:00.108Z</time>
      </trkpt>
      <trkpt lat="46.87571" lon="8.4842">
        <ele>1773</ele>
        <time>2021-08-11T12:37:01.108Z</time>
      </trkpt>
      <trkpt lat="46.87572" lon="8.48419">
        <ele>1773</ele>
        <time>2021-08-11T12:37:02.108Z</time>
      </trkpt>
      <trkpt lat="46.87572" lon="8.48418">
        <ele>1774</ele>
        <time>2021-08-11T12:37:03.108Z</time>
      </trkpt>
      <trkpt lat="46.87573" lon="8.48417">
        <ele>1774</ele>
        <time>2021-08-11T12:37:04.108Z</time>
      </trkpt>
      <trkpt lat="46.87574" lon="8.48416">
        <ele>1774</ele>
        <time>2021-08-11T12:37:05.108Z</time>
      </trkpt>
      <trkpt lat="46.87576" lon="8.48415">
        <ele>1774</ele>
        <time>2021-08-11T12:37:06.108Z</time>
      </trkpt>
      <trkpt lat="46.87578" lon="8.48414">
        <ele>1774</ele>
        <time>2021-08-11T12:37:07.108Z</time>
      </trkpt>
      <trkpt lat="46.87579" lon="8.48413">
        <ele>1773</ele>
        <time>2021-08-11T12:37:08.108Z</time>
      </trkpt>
      <trkpt lat="46.8758" lon="8.48412">
        <ele>1773</ele>
        <time>2021-08-11T12:37:09.108Z</time>
      </trkpt>
      <trkpt lat="46.87581" lon="8.48411">
        <ele>1773</ele>
        <time>2021-08-11T12:37:10.109Z</time>
      </trkpt>
      <trkpt lat="46.87582" lon="8.4841">
        <ele>1773</ele>
        <time>2021-08-11T12:37:11.108Z</time>
      </trkpt>
      <trkpt lat="46.87583" lon="8.48409">
        <ele>1773</ele>
        <time>2021-08-11T12:37:12.108Z</time>
      </trkpt>
      <trkpt lat="46.87585" lon="8.48408">
        <ele>1773</ele>
        <time>2021-08-11T12:37:17.250Z</time>
      </trkpt>
      <trkpt lat="46.87587" lon="8.48406">
        <ele>1773</ele>
        <time>2021-08-11T12:37:18.250Z</time>
      </trkpt>
      <trkpt lat="46.87587" lon="8.48405">
        <ele>1773</ele>
        <time>2021-08-11T12:37:23.104Z</time>
      </trkpt>
      <trkpt lat="46.87588" lon="8.48404">
        <ele>1774</ele>
        <time>2021-08-11T12:37:24.104Z</time>
      </trkpt>
      <trkpt lat="46.87591" lon="8.48403">
        <ele>1774</ele>
        <time>2021-08-11T12:37:25.104Z</time>
      </trkpt>
      <trkpt lat="46.87593" lon="8.48403">
        <ele>1774</ele>
        <time>2021-08-11T12:37:53.852Z</time>
      </trkpt>
      <trkpt lat="46.87593" lon="8.48404">
        <ele>1774</ele>
        <time>2021-08-11T12:37:56.634Z</time>
      </trkpt>
      <trkpt lat="46.87594" lon="8.48403">
        <ele>1774</ele>
        <time>2021-08-11T12:37:57.635Z</time>
      </trkpt>
      <trkpt lat="46.87594" lon="8.48402">
        <ele>1774</ele>
        <time>2021-08-11T12:38:01.494Z</time>
      </trkpt>
      <trkpt lat="46.87594" lon="8.484">
        <ele>1774</ele>
        <time>2021-08-11T12:38:02.493Z</time>
      </trkpt>
      <trkpt lat="46.87595" lon="8.48397">
        <ele>1774</ele>
        <time>2021-08-11T12:38:03.493Z</time>
      </trkpt>
      <trkpt lat="46.87596" lon="8.48396">
        <ele>1774</ele>
        <time>2021-08-11T12:38:04.493Z</time>
      </trkpt>
      <trkpt lat="46.87598" lon="8.48395">
        <ele>1774</ele>
        <time>2021-08-11T12:38:05.493Z</time>
      </trkpt>
      <trkpt lat="46.876" lon="8.48394">
        <ele>1775</ele>
        <time>2021-08-11T12:38:06.493Z</time>
      </trkpt>
      <trkpt lat="46.87602" lon="8.48393">
        <ele>1775</ele>
        <time>2021-08-11T12:38:07.493Z</time>
      </trkpt>
      <trkpt lat="46.87604" lon="8.48393">
        <ele>1775</ele>
        <time>2021-08-11T12:38:08.493Z</time>
      </trkpt>
      <trkpt lat="46.87606" lon="8.48392">
        <ele>1776</ele>
        <time>2021-08-11T12:38:09.493Z</time>
      </trkpt>
      <trkpt lat="46.87607" lon="8.4839">
        <ele>1776</ele>
        <time>2021-08-11T12:38:10.493Z</time>
      </trkpt>
      <trkpt lat="46.87607" lon="8.48388">
        <ele>1776</ele>
        <time>2021-08-11T12:38:11.493Z</time>
      </trkpt>
      <trkpt lat="46.87607" lon="8.48386">
        <ele>1776</ele>
        <time>2021-08-11T12:38:12.493Z</time>
      </trkpt>
      <trkpt lat="46.87608" lon="8.48385">
        <ele>1776</ele>
        <time>2021-08-11T12:38:13.493Z</time>
      </trkpt>
      <trkpt lat="46.87609" lon="8.48384">
        <ele>1776</ele>
        <time>2021-08-11T12:38:14.494Z</time>
      </trkpt>
      <trkpt lat="46.87609" lon="8.48383">
        <ele>1776</ele>
        <time>2021-08-11T12:38:15.493Z</time>
      </trkpt>
      <trkpt lat="46.8761" lon="8.48382">
        <ele>1776</ele>
        <time>2021-08-11T12:38:16.493Z</time>
      </trkpt>
      <trkpt lat="46.87611" lon="8.48382">
        <ele>1776</ele>
        <time>2021-08-11T12:38:17.493Z</time>
      </trkpt>
      <trkpt lat="46.87612" lon="8.48381">
        <ele>1776</ele>
        <time>2021-08-11T12:38:18.494Z</time>
      </trkpt>
      <trkpt lat="46.87613" lon="8.4838">
        <ele>1776</ele>
        <time>2021-08-11T12:38:19.493Z</time>
      </trkpt>
      <trkpt lat="46.87614" lon="8.48379">
        <ele>1776</ele>
        <time>2021-08-11T12:38:20.493Z</time>
      </trkpt>
      <trkpt lat="46.87616" lon="8.48378">
        <ele>1776</ele>
        <time>2021-08-11T12:38:21.493Z</time>
      </trkpt>
      <trkpt lat="46.87617" lon="8.48376">
        <ele>1777</ele>
        <time>2021-08-11T12:38:22.493Z</time>
      </trkpt>
      <trkpt lat="46.87617" lon="8.48375">
        <ele>1777</ele>
        <time>2021-08-11T12:38:23.493Z</time>
      </trkpt>
      <trkpt lat="46.87617" lon="8.48374">
        <ele>1777</ele>
        <time>2021-08-11T12:38:24.494Z</time>
      </trkpt>
      <trkpt lat="46.87616" lon="8.48373">
        <ele>1777</ele>
        <time>2021-08-11T12:38:25.493Z</time>
      </trkpt>
      <trkpt lat="46.87617" lon="8.48372">
        <ele>1778</ele>
        <time>2021-08-11T12:38:26.493Z</time>
      </trkpt>
      <trkpt lat="46.87617" lon="8.48371">
        <ele>1778</ele>
        <time>2021-08-11T12:38:27.493Z</time>
      </trkpt>
      <trkpt lat="46.87619" lon="8.4837">
        <ele>1778</ele>
        <time>2021-08-11T12:38:28.493Z</time>
      </trkpt>
      <trkpt lat="46.8762" lon="8.4837">
        <ele>1778</ele>
        <time>2021-08-11T12:38:29.493Z</time>
      </trkpt>
      <trkpt lat="46.87618" lon="8.48369">
        <ele>1779</ele>
        <time>2021-08-11T12:38:30.493Z</time>
      </trkpt>
      <trkpt lat="46.87618" lon="8.48367">
        <ele>1779</ele>
        <time>2021-08-11T12:38:31.494Z</time>
      </trkpt>
      <trkpt lat="46.8762" lon="8.48368">
        <ele>1779</ele>
        <time>2021-08-11T12:38:32.493Z</time>
      </trkpt>
      <trkpt lat="46.87621" lon="8.48368">
        <ele>1779</ele>
        <time>2021-08-11T12:38:35.518Z</time>
      </trkpt>
      <trkpt lat="46.87623" lon="8.48368">
        <ele>1779</ele>
        <time>2021-08-11T12:38:36.518Z</time>
      </trkpt>
      <trkpt lat="46.87624" lon="8.48368">
        <ele>1780</ele>
        <time>2021-08-11T12:38:37.519Z</time>
      </trkpt>
      <trkpt lat="46.87624" lon="8.48367">
        <ele>1780</ele>
        <time>2021-08-11T12:38:38.519Z</time>
      </trkpt>
      <trkpt lat="46.87624" lon="8.48366">
        <ele>1780</ele>
        <time>2021-08-11T12:38:39.518Z</time>
      </trkpt>
      <trkpt lat="46.87624" lon="8.48365">
        <ele>1781</ele>
        <time>2021-08-11T12:38:40.518Z</time>
      </trkpt>
      <trkpt lat="46.87626" lon="8.48365">
        <ele>1781</ele>
        <time>2021-08-11T12:38:41.518Z</time>
      </trkpt>
      <trkpt lat="46.87626" lon="8.48364">
        <ele>1781</ele>
        <time>2021-08-11T12:38:42.518Z</time>
      </trkpt>
      <trkpt lat="46.87627" lon="8.48363">
        <ele>1782</ele>
        <time>2021-08-11T12:38:43.518Z</time>
      </trkpt>
      <trkpt lat="46.87627" lon="8.48363">
        <ele>1782</ele>
        <time>2021-08-11T12:38:44.518Z</time>
      </trkpt>
      <trkpt lat="46.87627" lon="8.48362">
        <ele>1782</ele>
        <time>2021-08-11T12:38:45.518Z</time>
      </trkpt>
      <trkpt lat="46.87627" lon="8.48362">
        <ele>1782</ele>
        <time>2021-08-11T12:38:46.519Z</time>
      </trkpt>
      <trkpt lat="46.87627" lon="8.48361">
        <ele>1782</ele>
        <time>2021-08-11T12:38:47.519Z</time>
      </trkpt>
      <trkpt lat="46.87627" lon="8.4836">
        <ele>1782</ele>
        <time>2021-08-11T12:38:48.520Z</time>
      </trkpt>
      <trkpt lat="46.87629" lon="8.4836">
        <ele>1782</ele>
        <time>2021-08-11T12:38:49.520Z</time>
      </trkpt>
      <trkpt lat="46.8763" lon="8.48359">
        <ele>1782</ele>
        <time>2021-08-11T12:38:50.520Z</time>
      </trkpt>
      <trkpt lat="46.87631" lon="8.48358">
        <ele>1782</ele>
        <time>2021-08-11T12:38:51.520Z</time>
      </trkpt>
      <trkpt lat="46.87632" lon="8.48357">
        <ele>1782</ele>
        <time>2021-08-11T12:38:52.520Z</time>
      </trkpt>
      <trkpt lat="46.87633" lon="8.48356">
        <ele>1781</ele>
        <time>2021-08-11T12:38:53.520Z</time>
      </trkpt>
      <trkpt lat="46.87633" lon="8.48355">
        <ele>1781</ele>
        <time>2021-08-11T12:38:54.520Z</time>
      </trkpt>
      <trkpt lat="46.87633" lon="8.48354">
        <ele>1781</ele>
        <time>2021-08-11T12:38:55.519Z</time>
      </trkpt>
      <trkpt lat="46.87632" lon="8.48353">
        <ele>1781</ele>
        <time>2021-08-11T12:38:56.519Z</time>
      </trkpt>
      <trkpt lat="46.87632" lon="8.48352">
        <ele>1780</ele>
        <time>2021-08-11T12:38:57.520Z</time>
      </trkpt>
      <trkpt lat="46.87633" lon="8.48351">
        <ele>1780</ele>
        <time>2021-08-11T12:38:58.519Z</time>
      </trkpt>
      <trkpt lat="46.87632" lon="8.4835">
        <ele>1780</ele>
        <time>2021-08-11T12:38:59.520Z</time>
      </trkpt>
      <trkpt lat="46.87633" lon="8.48349">
        <ele>1780</ele>
        <time>2021-08-11T12:39:00.520Z</time>
      </trkpt>
      <trkpt lat="46.87633" lon="8.48348">
        <ele>1780</ele>
        <time>2021-08-11T12:39:01.520Z</time>
      </trkpt>
      <trkpt lat="46.87634" lon="8.48347">
        <ele>1780</ele>
        <time>2021-08-11T12:39:02.520Z</time>
      </trkpt>
      <trkpt lat="46.87635" lon="8.48347">
        <ele>1780</ele>
        <time>2021-08-11T12:39:03.520Z</time>
      </trkpt>
      <trkpt lat="46.87635" lon="8.48346">
        <ele>1780</ele>
        <time>2021-08-11T12:39:04.520Z</time>
      </trkpt>
      <trkpt lat="46.87635" lon="8.48345">
        <ele>1780</ele>
        <time>2021-08-11T12:39:05.520Z</time>
      </trkpt>
      <trkpt lat="46.87635" lon="8.48343">
        <ele>1780</ele>
        <time>2021-08-11T12:39:06.520Z</time>
      </trkpt>
      <trkpt lat="46.87635" lon="8.48342">
        <ele>1780</ele>
        <time>2021-08-11T12:39:07.519Z</time>
      </trkpt>
      <trkpt lat="46.87636" lon="8.48341">
        <ele>1780</ele>
        <time>2021-08-11T12:39:08.519Z</time>
      </trkpt>
      <trkpt lat="46.87636" lon="8.4834">
        <ele>1780</ele>
        <time>2021-08-11T12:39:09.520Z</time>
      </trkpt>
      <trkpt lat="46.87636" lon="8.48339">
        <ele>1780</ele>
        <time>2021-08-11T12:39:10.519Z</time>
      </trkpt>
      <trkpt lat="46.87636" lon="8.48338">
        <ele>1781</ele>
        <time>2021-08-11T12:39:11.519Z</time>
      </trkpt>
      <trkpt lat="46.87637" lon="8.48337">
        <ele>1781</ele>
        <time>2021-08-11T12:39:12.519Z</time>
      </trkpt>
      <trkpt lat="46.87638" lon="8.48335">
        <ele>1781</ele>
        <time>2021-08-11T12:39:13.520Z</time>
      </trkpt>
      <trkpt lat="46.87639" lon="8.48334">
        <ele>1781</ele>
        <time>2021-08-11T12:39:14.520Z</time>
      </trkpt>
      <trkpt lat="46.87639" lon="8.48333">
        <ele>1781</ele>
        <time>2021-08-11T12:39:15.520Z</time>
      </trkpt>
      <trkpt lat="46.87639" lon="8.48332">
        <ele>1781</ele>
        <time>2021-08-11T12:39:17.636Z</time>
      </trkpt>
      <trkpt lat="46.87639" lon="8.48331">
        <ele>1781</ele>
        <time>2021-08-11T12:39:18.636Z</time>
      </trkpt>
      <trkpt lat="46.87639" lon="8.4833">
        <ele>1781</ele>
        <time>2021-08-11T12:39:19.637Z</time>
      </trkpt>
      <trkpt lat="46.87639" lon="8.48329">
        <ele>1781</ele>
        <time>2021-08-11T12:39:20.637Z</time>
      </trkpt>
      <trkpt lat="46.8764" lon="8.48328">
        <ele>1781</ele>
        <time>2021-08-11T12:39:21.636Z</time>
      </trkpt>
      <trkpt lat="46.87641" lon="8.48327">
        <ele>1781</ele>
        <time>2021-08-11T12:39:22.637Z</time>
      </trkpt>
      <trkpt lat="46.87641" lon="8.48326">
        <ele>1782</ele>
        <time>2021-08-11T12:39:23.637Z</time>
      </trkpt>
      <trkpt lat="46.87643" lon="8.48325">
        <ele>1782</ele>
        <time>2021-08-11T12:39:24.637Z</time>
      </trkpt>
      <trkpt lat="46.87644" lon="8.48325">
        <ele>1782</ele>
        <time>2021-08-11T12:39:25.637Z</time>
      </trkpt>
      <trkpt lat="46.87645" lon="8.48324">
        <ele>1782</ele>
        <time>2021-08-11T12:39:26.637Z</time>
      </trkpt>
      <trkpt lat="46.87646" lon="8.48322">
        <ele>1782</ele>
        <time>2021-08-11T12:39:27.636Z</time>
      </trkpt>
      <trkpt lat="46.87648" lon="8.48321">
        <ele>1782</ele>
        <time>2021-08-11T12:39:28.636Z</time>
      </trkpt>
      <trkpt lat="46.8765" lon="8.4832">
        <ele>1783</ele>
        <time>2021-08-11T12:39:29.636Z</time>
      </trkpt>
      <trkpt lat="46.87651" lon="8.48319">
        <ele>1783</ele>
        <time>2021-08-11T12:39:30.637Z</time>
      </trkpt>
      <trkpt lat="46.87649" lon="8.48317">
        <ele>1783</ele>
        <time>2021-08-11T12:39:31.636Z</time>
      </trkpt>
      <trkpt lat="46.87647" lon="8.48316">
        <ele>1783</ele>
        <time>2021-08-11T12:39:32.636Z</time>
      </trkpt>
      <trkpt lat="46.87646" lon="8.48314">
        <ele>1783</ele>
        <time>2021-08-11T12:39:33.637Z</time>
      </trkpt>
      <trkpt lat="46.87647" lon="8.48312">
        <ele>1782</ele>
        <time>2021-08-11T12:39:34.636Z</time>
      </trkpt>
      <trkpt lat="46.87647" lon="8.48311">
        <ele>1782</ele>
        <time>2021-08-11T12:39:35.636Z</time>
      </trkpt>
      <trkpt lat="46.87647" lon="8.4831">
        <ele>1782</ele>
        <time>2021-08-11T12:39:36.636Z</time>
      </trkpt>
      <trkpt lat="46.87647" lon="8.48308">
        <ele>1782</ele>
        <time>2021-08-11T12:39:37.637Z</time>
      </trkpt>
      <trkpt lat="46.87648" lon="8.48307">
        <ele>1782</ele>
        <time>2021-08-11T12:39:38.637Z</time>
      </trkpt>
      <trkpt lat="46.87647" lon="8.48305">
        <ele>1782</ele>
        <time>2021-08-11T12:39:39.637Z</time>
      </trkpt>
      <trkpt lat="46.87647" lon="8.48303">
        <ele>1782</ele>
        <time>2021-08-11T12:39:40.637Z</time>
      </trkpt>
      <trkpt lat="46.87648" lon="8.48302">
        <ele>1782</ele>
        <time>2021-08-11T12:39:41.636Z</time>
      </trkpt>
      <trkpt lat="46.87649" lon="8.48302">
        <ele>1781</ele>
        <time>2021-08-11T12:39:42.636Z</time>
      </trkpt>
      <trkpt lat="46.8765" lon="8.48301">
        <ele>1781</ele>
        <time>2021-08-11T12:39:43.637Z</time>
      </trkpt>
      <trkpt lat="46.87652" lon="8.48301">
        <ele>1781</ele>
        <time>2021-08-11T12:39:44.637Z</time>
      </trkpt>
      <trkpt lat="46.87652" lon="8.483">
        <ele>1781</ele>
        <time>2021-08-11T12:39:45.636Z</time>
      </trkpt>
      <trkpt lat="46.87653" lon="8.48299">
        <ele>1781</ele>
        <time>2021-08-11T12:39:46.636Z</time>
      </trkpt>
      <trkpt lat="46.87653" lon="8.48299">
        <ele>1781</ele>
        <time>2021-08-11T12:39:47.636Z</time>
      </trkpt>
      <trkpt lat="46.87653" lon="8.48299">
        <ele>1781</ele>
        <time>2021-08-11T12:39:48.637Z</time>
      </trkpt>
      <trkpt lat="46.87654" lon="8.48299">
        <ele>1781</ele>
        <time>2021-08-11T12:39:49.637Z</time>
      </trkpt>
      <trkpt lat="46.87654" lon="8.48299">
        <ele>1782</ele>
        <time>2021-08-11T12:39:50.637Z</time>
      </trkpt>
      <trkpt lat="46.87654" lon="8.48299">
        <ele>1782</ele>
        <time>2021-08-11T12:39:51.637Z</time>
      </trkpt>
      <trkpt lat="46.87654" lon="8.48299">
        <ele>1784</ele>
        <time>2021-08-11T12:39:52.637Z</time>
      </trkpt>
      <trkpt lat="46.87654" lon="8.48299">
        <ele>1785</ele>
        <time>2021-08-11T12:39:53.636Z</time>
      </trkpt>
      <trkpt lat="46.87653" lon="8.48298">
        <ele>1785</ele>
        <time>2021-08-11T12:39:54.636Z</time>
      </trkpt>
      <trkpt lat="46.87653" lon="8.48297">
        <ele>1785</ele>
        <time>2021-08-11T12:39:55.636Z</time>
      </trkpt>
      <trkpt lat="46.87652" lon="8.48297">
        <ele>1785</ele>
        <time>2021-08-11T12:39:56.636Z</time>
      </trkpt>
      <trkpt lat="46.87651" lon="8.48296">
        <ele>1785</ele>
        <time>2021-08-11T12:39:57.636Z</time>
      </trkpt>
      <trkpt lat="46.87651" lon="8.48296">
        <ele>1785</ele>
        <time>2021-08-11T12:39:58.636Z</time>
      </trkpt>
      <trkpt lat="46.87651" lon="8.48296">
        <ele>1785</ele>
        <time>2021-08-11T12:39:59.636Z</time>
      </trkpt>
      <trkpt lat="46.87652" lon="8.48295">
        <ele>1786</ele>
        <time>2021-08-11T12:40:00.636Z</time>
      </trkpt>
      <trkpt lat="46.87652" lon="8.48295">
        <ele>1786</ele>
        <time>2021-08-11T12:40:01.637Z</time>
      </trkpt>
      <trkpt lat="46.87653" lon="8.48295">
        <ele>1786</ele>
        <time>2021-08-11T12:40:02.636Z</time>
      </trkpt>
      <trkpt lat="46.87651" lon="8.48297">
        <ele>1787</ele>
        <time>2021-08-11T12:40:03.636Z</time>
      </trkpt>
      <trkpt lat="46.87651" lon="8.48298">
        <ele>1786</ele>
        <time>2021-08-11T12:40:04.636Z</time>
      </trkpt>
      <trkpt lat="46.87651" lon="8.48298">
        <ele>1785</ele>
        <time>2021-08-11T12:40:05.636Z</time>
      </trkpt>
      <trkpt lat="46.87653" lon="8.48297">
        <ele>1785</ele>
        <time>2021-08-11T12:40:06.636Z</time>
      </trkpt>
      <trkpt lat="46.87653" lon="8.48298">
        <ele>1786</ele>
        <time>2021-08-11T12:40:07.636Z</time>
      </trkpt>
      <trkpt lat="46.87651" lon="8.48296">
        <ele>1785</ele>
        <time>2021-08-11T12:40:08.637Z</time>
      </trkpt>
      <trkpt lat="46.87651" lon="8.48296">
        <ele>1785</ele>
        <time>2021-08-11T12:40:09.636Z</time>
      </trkpt>
      <trkpt lat="46.87649" lon="8.48295">
        <ele>1785</ele>
        <time>2021-08-11T12:40:10.637Z</time>
      </trkpt>
      <trkpt lat="46.87649" lon="8.48295">
        <ele>1785</ele>
        <time>2021-08-11T12:40:11.637Z</time>
      </trkpt>
      <trkpt lat="46.87651" lon="8.48295">
        <ele>1785</ele>
        <time>2021-08-11T12:40:12.637Z</time>
      </trkpt>
      <trkpt lat="46.8765" lon="8.48295">
        <ele>1785</ele>
        <time>2021-08-11T12:40:13.637Z</time>
      </trkpt>
      <trkpt lat="46.87649" lon="8.48295">
        <ele>1785</ele>
        <time>2021-08-11T12:40:14.636Z</time>
      </trkpt>
      <trkpt lat="46.87649" lon="8.48295">
        <ele>1785</ele>
        <time>2021-08-11T12:40:15.637Z</time>
      </trkpt>
      <trkpt lat="46.87648" lon="8.48296">
        <ele>1784</ele>
        <time>2021-08-11T12:40:16.637Z</time>
      </trkpt>
      <trkpt lat="46.87649" lon="8.48296">
        <ele>1784</ele>
        <time>2021-08-11T12:40:17.638Z</time>
      </trkpt>
      <trkpt lat="46.87649" lon="8.48296">
        <ele>1784</ele>
        <time>2021-08-11T12:40:18.638Z</time>
      </trkpt>
      <trkpt lat="46.87647" lon="8.48296">
        <ele>1785</ele>
        <time>2021-08-11T12:40:19.638Z</time>
      </trkpt>
      <trkpt lat="46.87646" lon="8.48296">
        <ele>1785</ele>
        <time>2021-08-11T12:40:20.638Z</time>
      </trkpt>
      <trkpt lat="46.87646" lon="8.48296">
        <ele>1785</ele>
        <time>2021-08-11T12:40:21.638Z</time>
      </trkpt>
      <trkpt lat="46.87645" lon="8.48295">
        <ele>1785</ele>
        <time>2021-08-11T12:40:22.637Z</time>
      </trkpt>
      <trkpt lat="46.87645" lon="8.48296">
        <ele>1785</ele>
        <time>2021-08-11T12:40:23.637Z</time>
      </trkpt>
      <trkpt lat="46.87644" lon="8.48296">
        <ele>1785</ele>
        <time>2021-08-11T12:40:24.638Z</time>
      </trkpt>
      <trkpt lat="46.87645" lon="8.48297">
        <ele>1785</ele>
        <time>2021-08-11T12:40:25.638Z</time>
      </trkpt>
      <trkpt lat="46.87645" lon="8.48296">
        <ele>1785</ele>
        <time>2021-08-11T12:40:26.638Z</time>
      </trkpt>
      <trkpt lat="46.87645" lon="8.48296">
        <ele>1785</ele>
        <time>2021-08-11T12:40:27.638Z</time>
      </trkpt>
      <trkpt lat="46.87646" lon="8.48297">
        <ele>1785</ele>
        <time>2021-08-11T12:40:28.637Z</time>
      </trkpt>
      <trkpt lat="46.87644" lon="8.48296">
        <ele>1785</ele>
        <time>2021-08-11T12:40:29.638Z</time>
      </trkpt>
      <trkpt lat="46.87643" lon="8.48295">
        <ele>1785</ele>
        <time>2021-08-11T12:40:30.638Z</time>
      </trkpt>
      <trkpt lat="46.87649" lon="8.48299">
        <ele>1782</ele>
        <time>2021-08-11T12:40:31.639Z</time>
      </trkpt>
      <trkpt lat="46.87648" lon="8.483">
        <ele>1782</ele>
        <time>2021-08-11T12:40:32.638Z</time>
      </trkpt>
      <trkpt lat="46.87649" lon="8.48301">
        <ele>1781</ele>
        <time>2021-08-11T12:40:33.638Z</time>
      </trkpt>
      <trkpt lat="46.8765" lon="8.48299">
        <ele>1782</ele>
        <time>2021-08-11T12:40:34.639Z</time>
      </trkpt>
      <trkpt lat="46.8765" lon="8.48297">
        <ele>1783</ele>
        <time>2021-08-11T12:40:35.639Z</time>
      </trkpt>
      <trkpt lat="46.87649" lon="8.48297">
        <ele>1783</ele>
        <time>2021-08-11T12:40:36.638Z</time>
      </trkpt>
      <trkpt lat="46.87651" lon="8.48298">
        <ele>1785</ele>
        <time>2021-08-11T12:40:37.639Z</time>
      </trkpt>
      <trkpt lat="46.8765" lon="8.48299">
        <ele>1785</ele>
        <time>2021-08-11T12:40:38.638Z</time>
      </trkpt>
      <trkpt lat="46.8765" lon="8.48299">
        <ele>1785</ele>
        <time>2021-08-11T12:40:39.639Z</time>
      </trkpt>
      <trkpt lat="46.87649" lon="8.483">
        <ele>1785</ele>
        <time>2021-08-11T12:40:40.639Z</time>
      </trkpt>
      <trkpt lat="46.8765" lon="8.483">
        <ele>1786</ele>
        <time>2021-08-11T12:40:41.639Z</time>
      </trkpt>
      <trkpt lat="46.8765" lon="8.48301">
        <ele>1786</ele>
        <time>2021-08-11T12:40:42.638Z</time>
      </trkpt>
      <trkpt lat="46.87649" lon="8.483">
        <ele>1787</ele>
        <time>2021-08-11T12:40:43.640Z</time>
      </trkpt>
      <trkpt lat="46.8765" lon="8.483">
        <ele>1787</ele>
        <time>2021-08-11T12:40:44.639Z</time>
      </trkpt>
      <trkpt lat="46.8765" lon="8.483">
        <ele>1788</ele>
        <time>2021-08-11T12:40:45.639Z</time>
      </trkpt>
      <trkpt lat="46.87651" lon="8.483">
        <ele>1788</ele>
        <time>2021-08-11T12:40:46.639Z</time>
      </trkpt>
      <trkpt lat="46.87652" lon="8.48299">
        <ele>1788</ele>
        <time>2021-08-11T12:40:47.640Z</time>
      </trkpt>
      <trkpt lat="46.87652" lon="8.48298">
        <ele>1789</ele>
        <time>2021-08-11T12:40:48.640Z</time>
      </trkpt>
      <trkpt lat="46.87652" lon="8.48297">
        <ele>1789</ele>
        <time>2021-08-11T12:40:49.639Z</time>
      </trkpt>
      <trkpt lat="46.87652" lon="8.48297">
        <ele>1789</ele>
        <time>2021-08-11T12:40:50.640Z</time>
      </trkpt>
      <trkpt lat="46.87653" lon="8.48296">
        <ele>1789</ele>
        <time>2021-08-11T12:40:51.640Z</time>
      </trkpt>
      <trkpt lat="46.87653" lon="8.48296">
        <ele>1789</ele>
        <time>2021-08-11T12:40:52.639Z</time>
      </trkpt>
      <trkpt lat="46.87653" lon="8.48295">
        <ele>1790</ele>
        <time>2021-08-11T12:40:53.640Z</time>
      </trkpt>
      <trkpt lat="46.87652" lon="8.48294">
        <ele>1790</ele>
        <time>2021-08-11T12:40:54.639Z</time>
      </trkpt>
      <trkpt lat="46.87652" lon="8.48293">
        <ele>1789</ele>
        <time>2021-08-11T12:40:55.640Z</time>
      </trkpt>
      <trkpt lat="46.87652" lon="8.48293">
        <ele>1789</ele>
        <time>2021-08-11T12:40:56.640Z</time>
      </trkpt>
      <trkpt lat="46.87651" lon="8.4829">
        <ele>1792</ele>
        <time>2021-08-11T12:40:57.639Z</time>
      </trkpt>
      <trkpt lat="46.87651" lon="8.4829">
        <ele>1792</ele>
        <time>2021-08-11T12:40:58.640Z</time>
      </trkpt>
      <trkpt lat="46.87651" lon="8.4829">
        <ele>1792</ele>
        <time>2021-08-11T12:40:59.639Z</time>
      </trkpt>
      <trkpt lat="46.87655" lon="8.48292">
        <ele>1789</ele>
        <time>2021-08-11T12:41:00.641Z</time>
      </trkpt>
      <trkpt lat="46.87656" lon="8.48292">
        <ele>1789</ele>
        <time>2021-08-11T12:41:01.640Z</time>
      </trkpt>
      <trkpt lat="46.87657" lon="8.48292">
        <ele>1789</ele>
        <time>2021-08-11T12:41:02.640Z</time>
      </trkpt>
      <trkpt lat="46.87658" lon="8.48292">
        <ele>1788</ele>
        <time>2021-08-11T12:41:03.641Z</time>
      </trkpt>
      <trkpt lat="46.87659" lon="8.48291">
        <ele>1788</ele>
        <time>2021-08-11T12:41:04.641Z</time>
      </trkpt>
      <trkpt lat="46.8766" lon="8.4829">
        <ele>1788</ele>
        <time>2021-08-11T12:41:05.640Z</time>
      </trkpt>
      <trkpt lat="46.87661" lon="8.48289">
        <ele>1788</ele>
        <time>2021-08-11T12:41:06.641Z</time>
      </trkpt>
      <trkpt lat="46.87661" lon="8.48287">
        <ele>1787</ele>
        <time>2021-08-11T12:41:07.640Z</time>
      </trkpt>
      <trkpt lat="46.87661" lon="8.48286">
        <ele>1787</ele>
        <time>2021-08-11T12:41:08.640Z</time>
      </trkpt>
      <trkpt lat="46.87661" lon="8.48285">
        <ele>1787</ele>
        <time>2021-08-11T12:41:09.641Z</time>
      </trkpt>
      <trkpt lat="46.87662" lon="8.48284">
        <ele>1787</ele>
        <time>2021-08-11T12:41:10.641Z</time>
      </trkpt>
      <trkpt lat="46.87663" lon="8.48283">
        <ele>1787</ele>
        <time>2021-08-11T12:41:11.640Z</time>
      </trkpt>
      <trkpt lat="46.87665" lon="8.48282">
        <ele>1787</ele>
        <time>2021-08-11T12:41:12.641Z</time>
      </trkpt>
      <trkpt lat="46.87666" lon="8.48281">
        <ele>1787</ele>
        <time>2021-08-11T12:41:13.641Z</time>
      </trkpt>
      <trkpt lat="46.87667" lon="8.4828">
        <ele>1787</ele>
        <time>2021-08-11T12:41:14.640Z</time>
      </trkpt>
      <trkpt lat="46.87668" lon="8.4828">
        <ele>1786</ele>
        <time>2021-08-11T12:41:15.641Z</time>
      </trkpt>
      <trkpt lat="46.87668" lon="8.48279">
        <ele>1786</ele>
        <time>2021-08-11T12:41:16.641Z</time>
      </trkpt>
      <trkpt lat="46.87669" lon="8.48278">
        <ele>1786</ele>
        <time>2021-08-11T12:41:17.641Z</time>
      </trkpt>
      <trkpt lat="46.8767" lon="8.48277">
        <ele>1786</ele>
        <time>2021-08-11T12:41:18.640Z</time>
      </trkpt>
      <trkpt lat="46.87671" lon="8.48276">
        <ele>1786</ele>
        <time>2021-08-11T12:41:19.640Z</time>
      </trkpt>
      <trkpt lat="46.87672" lon="8.48276">
        <ele>1786</ele>
        <time>2021-08-11T12:41:20.640Z</time>
      </trkpt>
      <trkpt lat="46.87673" lon="8.48275">
        <ele>1785</ele>
        <time>2021-08-11T12:41:21.640Z</time>
      </trkpt>
      <trkpt lat="46.87674" lon="8.48274">
        <ele>1786</ele>
        <time>2021-08-11T12:41:22.641Z</time>
      </trkpt>
      <trkpt lat="46.87674" lon="8.48274">
        <ele>1786</ele>
        <time>2021-08-11T12:41:23.641Z</time>
      </trkpt>
      <trkpt lat="46.87675" lon="8.48274">
        <ele>1786</ele>
        <time>2021-08-11T12:41:24.641Z</time>
      </trkpt>
      <trkpt lat="46.87676" lon="8.48273">
        <ele>1786</ele>
        <time>2021-08-11T12:41:25.641Z</time>
      </trkpt>
      <trkpt lat="46.87676" lon="8.48272">
        <ele>1787</ele>
        <time>2021-08-11T12:41:26.641Z</time>
      </trkpt>
      <trkpt lat="46.87677" lon="8.48272">
        <ele>1787</ele>
        <time>2021-08-11T12:41:27.641Z</time>
      </trkpt>
      <trkpt lat="46.87677" lon="8.48271">
        <ele>1787</ele>
        <time>2021-08-11T12:41:28.641Z</time>
      </trkpt>
      <trkpt lat="46.87677" lon="8.4827">
        <ele>1787</ele>
        <time>2021-08-11T12:41:29.641Z</time>
      </trkpt>
      <trkpt lat="46.87678" lon="8.48269">
        <ele>1787</ele>
        <time>2021-08-11T12:41:30.641Z</time>
      </trkpt>
      <trkpt lat="46.87678" lon="8.48268">
        <ele>1787</ele>
        <time>2021-08-11T12:41:31.641Z</time>
      </trkpt>
      <trkpt lat="46.87679" lon="8.48268">
        <ele>1786</ele>
        <time>2021-08-11T12:41:32.641Z</time>
      </trkpt>
      <trkpt lat="46.87679" lon="8.48267">
        <ele>1786</ele>
        <time>2021-08-11T12:41:33.640Z</time>
      </trkpt>
      <trkpt lat="46.8768" lon="8.48266">
        <ele>1785</ele>
        <time>2021-08-11T12:41:34.640Z</time>
      </trkpt>
      <trkpt lat="46.87681" lon="8.48265">
        <ele>1785</ele>
        <time>2021-08-11T12:41:35.641Z</time>
      </trkpt>
      <trkpt lat="46.87681" lon="8.48264">
        <ele>1785</ele>
        <time>2021-08-11T12:41:36.640Z</time>
      </trkpt>
      <trkpt lat="46.87683" lon="8.48264">
        <ele>1785</ele>
        <time>2021-08-11T12:41:37.641Z</time>
      </trkpt>
      <trkpt lat="46.87684" lon="8.48265">
        <ele>1785</ele>
        <time>2021-08-11T12:41:38.641Z</time>
      </trkpt>
      <trkpt lat="46.87684" lon="8.48264">
        <ele>1785</ele>
        <time>2021-08-11T12:41:39.640Z</time>
      </trkpt>
      <trkpt lat="46.87685" lon="8.48264">
        <ele>1785</ele>
        <time>2021-08-11T12:41:40.641Z</time>
      </trkpt>
      <trkpt lat="46.87685" lon="8.48264">
        <ele>1785</ele>
        <time>2021-08-11T12:41:41.641Z</time>
      </trkpt>
      <trkpt lat="46.87686" lon="8.48264">
        <ele>1786</ele>
        <time>2021-08-11T12:41:42.642Z</time>
      </trkpt>
      <trkpt lat="46.87687" lon="8.48264">
        <ele>1786</ele>
        <time>2021-08-11T12:41:43.642Z</time>
      </trkpt>
      <trkpt lat="46.87688" lon="8.48264">
        <ele>1786</ele>
        <time>2021-08-11T12:41:44.642Z</time>
      </trkpt>
      <trkpt lat="46.87688" lon="8.48264">
        <ele>1785</ele>
        <time>2021-08-11T12:41:45.642Z</time>
      </trkpt>
      <trkpt lat="46.87688" lon="8.48263">
        <ele>1785</ele>
        <time>2021-08-11T12:41:46.641Z</time>
      </trkpt>
      <trkpt lat="46.87688" lon="8.48262">
        <ele>1785</ele>
        <time>2021-08-11T12:41:47.642Z</time>
      </trkpt>
      <trkpt lat="46.87688" lon="8.4826">
        <ele>1784</ele>
        <time>2021-08-11T12:41:48.641Z</time>
      </trkpt>
      <trkpt lat="46.87688" lon="8.48258">
        <ele>1784</ele>
        <time>2021-08-11T12:41:49.642Z</time>
      </trkpt>
      <trkpt lat="46.87689" lon="8.48258">
        <ele>1784</ele>
        <time>2021-08-11T12:41:50.642Z</time>
      </trkpt>
      <trkpt lat="46.87688" lon="8.48258">
        <ele>1784</ele>
        <time>2021-08-11T12:41:51.642Z</time>
      </trkpt>
      <trkpt lat="46.87688" lon="8.48257">
        <ele>1784</ele>
        <time>2021-08-11T12:41:52.642Z</time>
      </trkpt>
      <trkpt lat="46.87688" lon="8.48256">
        <ele>1783</ele>
        <time>2021-08-11T12:41:53.642Z</time>
      </trkpt>
      <trkpt lat="46.87688" lon="8.48255">
        <ele>1783</ele>
        <time>2021-08-11T12:41:54.641Z</time>
      </trkpt>
      <trkpt lat="46.87685" lon="8.48252">
        <ele>1789</ele>
        <time>2021-08-11T12:41:55.642Z</time>
      </trkpt>
      <trkpt lat="46.87685" lon="8.4825">
        <ele>1789</ele>
        <time>2021-08-11T12:41:56.642Z</time>
      </trkpt>
      <trkpt lat="46.87684" lon="8.48249">
        <ele>1789</ele>
        <time>2021-08-11T12:41:57.641Z</time>
      </trkpt>
      <trkpt lat="46.87683" lon="8.48248">
        <ele>1789</ele>
        <time>2021-08-11T12:41:58.642Z</time>
      </trkpt>
      <trkpt lat="46.87683" lon="8.48248">
        <ele>1790</ele>
        <time>2021-08-11T12:41:59.642Z</time>
      </trkpt>
      <trkpt lat="46.87683" lon="8.48248">
        <ele>1790</ele>
        <time>2021-08-11T12:42:00.642Z</time>
      </trkpt>
      <trkpt lat="46.87682" lon="8.48248">
        <ele>1791</ele>
        <time>2021-08-11T12:42:01.642Z</time>
      </trkpt>
      <trkpt lat="46.87682" lon="8.48249">
        <ele>1791</ele>
        <time>2021-08-11T12:42:02.641Z</time>
      </trkpt>
      <trkpt lat="46.87682" lon="8.48249">
        <ele>1791</ele>
        <time>2021-08-11T12:42:03.642Z</time>
      </trkpt>
      <trkpt lat="46.87682" lon="8.48248">
        <ele>1791</ele>
        <time>2021-08-11T12:42:04.642Z</time>
      </trkpt>
      <trkpt lat="46.87682" lon="8.48248">
        <ele>1791</ele>
        <time>2021-08-11T12:42:05.642Z</time>
      </trkpt>
      <trkpt lat="46.87682" lon="8.48247">
        <ele>1790</ele>
        <time>2021-08-11T12:42:06.642Z</time>
      </trkpt>
      <trkpt lat="46.87681" lon="8.48247">
        <ele>1790</ele>
        <time>2021-08-11T12:42:07.641Z</time>
      </trkpt>
      <trkpt lat="46.87681" lon="8.48246">
        <ele>1789</ele>
        <time>2021-08-11T12:42:08.642Z</time>
      </trkpt>
      <trkpt lat="46.87681" lon="8.48246">
        <ele>1789</ele>
        <time>2021-08-11T12:42:09.642Z</time>
      </trkpt>
      <trkpt lat="46.8768" lon="8.48247">
        <ele>1789</ele>
        <time>2021-08-11T12:42:10.642Z</time>
      </trkpt>
      <trkpt lat="46.8768" lon="8.48247">
        <ele>1789</ele>
        <time>2021-08-11T12:42:11.642Z</time>
      </trkpt>
      <trkpt lat="46.8768" lon="8.48246">
        <ele>1789</ele>
        <time>2021-08-11T12:42:12.641Z</time>
      </trkpt>
      <trkpt lat="46.8768" lon="8.4825">
        <ele>1789</ele>
        <time>2021-08-11T12:42:13.642Z</time>
      </trkpt>
      <trkpt lat="46.87683" lon="8.48255">
        <ele>1780</ele>
        <time>2021-08-11T12:42:14.642Z</time>
      </trkpt>
      <trkpt lat="46.87681" lon="8.48254">
        <ele>1783</ele>
        <time>2021-08-11T12:42:15.643Z</time>
      </trkpt>
      <trkpt lat="46.87681" lon="8.48254">
        <ele>1784</ele>
        <time>2021-08-11T12:42:16.643Z</time>
      </trkpt>
      <trkpt lat="46.87681" lon="8.48254">
        <ele>1785</ele>
        <time>2021-08-11T12:42:17.643Z</time>
      </trkpt>
      <trkpt lat="46.87682" lon="8.48254">
        <ele>1785</ele>
        <time>2021-08-11T12:42:18.643Z</time>
      </trkpt>
      <trkpt lat="46.87682" lon="8.48254">
        <ele>1786</ele>
        <time>2021-08-11T12:42:19.643Z</time>
      </trkpt>
      <trkpt lat="46.87683" lon="8.48256">
        <ele>1787</ele>
        <time>2021-08-11T12:42:20.644Z</time>
      </trkpt>
      <trkpt lat="46.87683" lon="8.48256">
        <ele>1787</ele>
        <time>2021-08-11T12:42:21.643Z</time>
      </trkpt>
      <trkpt lat="46.87683" lon="8.48257">
        <ele>1787</ele>
        <time>2021-08-11T12:42:22.644Z</time>
      </trkpt>
      <trkpt lat="46.87683" lon="8.48258">
        <ele>1787</ele>
        <time>2021-08-11T12:42:23.643Z</time>
      </trkpt>
      <trkpt lat="46.87683" lon="8.48259">
        <ele>1791</ele>
        <time>2021-08-11T12:42:24.644Z</time>
      </trkpt>
      <trkpt lat="46.87683" lon="8.48259">
        <ele>1791</ele>
        <time>2021-08-11T12:42:25.643Z</time>
      </trkpt>
      <trkpt lat="46.87683" lon="8.48259">
        <ele>1791</ele>
        <time>2021-08-11T12:42:26.643Z</time>
      </trkpt>
      <trkpt lat="46.87682" lon="8.4826">
        <ele>1791</ele>
        <time>2021-08-11T12:42:27.643Z</time>
      </trkpt>
      <trkpt lat="46.87682" lon="8.4826">
        <ele>1791</ele>
        <time>2021-08-11T12:42:28.644Z</time>
      </trkpt>
      <trkpt lat="46.87682" lon="8.4826">
        <ele>1791</ele>
        <time>2021-08-11T12:42:29.644Z</time>
      </trkpt>
      <trkpt lat="46.87683" lon="8.48257">
        <ele>1789</ele>
        <time>2021-08-11T12:42:30.645Z</time>
      </trkpt>
      <trkpt lat="46.87683" lon="8.48257">
        <ele>1790</ele>
        <time>2021-08-11T12:42:31.644Z</time>
      </trkpt>
      <trkpt lat="46.87683" lon="8.48257">
        <ele>1790</ele>
        <time>2021-08-11T12:42:32.644Z</time>
      </trkpt>
      <trkpt lat="46.87683" lon="8.48257">
        <ele>1790</ele>
        <time>2021-08-11T12:42:33.644Z</time>
      </trkpt>
      <trkpt lat="46.87682" lon="8.48257">
        <ele>1790</ele>
        <time>2021-08-11T12:42:34.644Z</time>
      </trkpt>
      <trkpt lat="46.87682" lon="8.48256">
        <ele>1790</ele>
        <time>2021-08-11T12:42:35.645Z</time>
      </trkpt>
      <trkpt lat="46.87682" lon="8.48256">
        <ele>1790</ele>
        <time>2021-08-11T12:42:36.644Z</time>
      </trkpt>
      <trkpt lat="46.87682" lon="8.48255">
        <ele>1790</ele>
        <time>2021-08-11T12:42:37.645Z</time>
      </trkpt>
      <trkpt lat="46.87681" lon="8.48254">
        <ele>1790</ele>
        <time>2021-08-11T12:42:38.645Z</time>
      </trkpt>
      <trkpt lat="46.87683" lon="8.48253">
        <ele>1786</ele>
        <time>2021-08-11T12:42:39.645Z</time>
      </trkpt>
      <trkpt lat="46.87682" lon="8.48254">
        <ele>1786</ele>
        <time>2021-08-11T12:42:40.645Z</time>
      </trkpt>
      <trkpt lat="46.87682" lon="8.48254">
        <ele>1786</ele>
        <time>2021-08-11T12:42:41.644Z</time>
      </trkpt>
      <trkpt lat="46.87682" lon="8.48253">
        <ele>1783</ele>
        <time>2021-08-11T12:42:42.647Z</time>
      </trkpt>
      <trkpt lat="46.87682" lon="8.48252">
        <ele>1783</ele>
        <time>2021-08-11T12:42:43.647Z</time>
      </trkpt>
      <trkpt lat="46.8768" lon="8.48253">
        <ele>1790</ele>
        <time>2021-08-11T12:42:44.647Z</time>
      </trkpt>
      <trkpt lat="46.8768" lon="8.48252">
        <ele>1790</ele>
        <time>2021-08-11T12:42:45.647Z</time>
      </trkpt>
      <trkpt lat="46.8768" lon="8.4825">
        <ele>1790</ele>
        <time>2021-08-11T12:42:46.646Z</time>
      </trkpt>
      <trkpt lat="46.8768" lon="8.48249">
        <ele>1791</ele>
        <time>2021-08-11T12:42:47.648Z</time>
      </trkpt>
      <trkpt lat="46.8768" lon="8.4825">
        <ele>1791</ele>
        <time>2021-08-11T12:42:48.647Z</time>
      </trkpt>
      <trkpt lat="46.8768" lon="8.4825">
        <ele>1790</ele>
        <time>2021-08-11T12:42:49.647Z</time>
      </trkpt>
      <trkpt lat="46.8768" lon="8.48251">
        <ele>1789</ele>
        <time>2021-08-11T12:42:50.648Z</time>
      </trkpt>
      <trkpt lat="46.8768" lon="8.4825">
        <ele>1789</ele>
        <time>2021-08-11T12:42:51.647Z</time>
      </trkpt>
      <trkpt lat="46.87681" lon="8.48251">
        <ele>1787</ele>
        <time>2021-08-11T12:42:52.648Z</time>
      </trkpt>
      <trkpt lat="46.8768" lon="8.48251">
        <ele>1787</ele>
        <time>2021-08-11T12:42:53.648Z</time>
      </trkpt>
      <trkpt lat="46.8768" lon="8.4825">
        <ele>1787</ele>
        <time>2021-08-11T12:42:54.647Z</time>
      </trkpt>
      <trkpt lat="46.87679" lon="8.48249">
        <ele>1787</ele>
        <time>2021-08-11T12:42:55.648Z</time>
      </trkpt>
      <trkpt lat="46.87679" lon="8.48249">
        <ele>1787</ele>
        <time>2021-08-11T12:42:56.647Z</time>
      </trkpt>
      <trkpt lat="46.87678" lon="8.48249">
        <ele>1786</ele>
        <time>2021-08-11T12:42:57.648Z</time>
      </trkpt>
      <trkpt lat="46.87678" lon="8.48249">
        <ele>1786</ele>
        <time>2021-08-11T12:42:58.648Z</time>
      </trkpt>
      <trkpt lat="46.87677" lon="8.48249">
        <ele>1786</ele>
        <time>2021-08-11T12:42:59.647Z</time>
      </trkpt>
      <trkpt lat="46.87678" lon="8.48248">
        <ele>1786</ele>
        <time>2021-08-11T12:43:00.648Z</time>
      </trkpt>
      <trkpt lat="46.87677" lon="8.48247">
        <ele>1786</ele>
        <time>2021-08-11T12:43:01.648Z</time>
      </trkpt>
      <trkpt lat="46.87677" lon="8.48247">
        <ele>1786</ele>
        <time>2021-08-11T12:43:02.647Z</time>
      </trkpt>
      <trkpt lat="46.87676" lon="8.48246">
        <ele>1786</ele>
        <time>2021-08-11T12:43:03.647Z</time>
      </trkpt>
      <trkpt lat="46.87676" lon="8.48247">
        <ele>1786</ele>
        <time>2021-08-11T12:43:04.648Z</time>
      </trkpt>
      <trkpt lat="46.87677" lon="8.48247">
        <ele>1785</ele>
        <time>2021-08-11T12:43:05.650Z</time>
      </trkpt>
      <trkpt lat="46.87677" lon="8.48247">
        <ele>1783</ele>
        <time>2021-08-11T12:43:06.651Z</time>
      </trkpt>
      <trkpt lat="46.87678" lon="8.48248">
        <ele>1782</ele>
        <time>2021-08-11T12:43:07.650Z</time>
      </trkpt>
      <trkpt lat="46.87678" lon="8.48248">
        <ele>1783</ele>
        <time>2021-08-11T12:43:08.651Z</time>
      </trkpt>
      <trkpt lat="46.87679" lon="8.48248">
        <ele>1788</ele>
        <time>2021-08-11T12:43:09.651Z</time>
      </trkpt>
      <trkpt lat="46.87679" lon="8.48248">
        <ele>1788</ele>
        <time>2021-08-11T12:43:10.650Z</time>
      </trkpt>
      <trkpt lat="46.87684" lon="8.48253">
        <ele>1786</ele>
        <time>2021-08-11T12:43:11.651Z</time>
      </trkpt>
      <trkpt lat="46.87684" lon="8.48253">
        <ele>1786</ele>
        <time>2021-08-11T12:43:12.651Z</time>
      </trkpt>
      <trkpt lat="46.87684" lon="8.48253">
        <ele>1785</ele>
        <time>2021-08-11T12:43:13.650Z</time>
      </trkpt>
      <trkpt lat="46.87686" lon="8.48249">
        <ele>1783</ele>
        <time>2021-08-11T12:43:14.652Z</time>
      </trkpt>
      <trkpt lat="46.87687" lon="8.48249">
        <ele>1783</ele>
        <time>2021-08-11T12:43:15.652Z</time>
      </trkpt>
      <trkpt lat="46.87686" lon="8.4825">
        <ele>1782</ele>
        <time>2021-08-11T12:43:16.652Z</time>
      </trkpt>
      <trkpt lat="46.87686" lon="8.4825">
        <ele>1781</ele>
        <time>2021-08-11T12:43:17.652Z</time>
      </trkpt>
      <trkpt lat="46.87686" lon="8.4825">
        <ele>1780</ele>
        <time>2021-08-11T12:43:18.651Z</time>
      </trkpt>
      <trkpt lat="46.87687" lon="8.4825">
        <ele>1780</ele>
        <time>2021-08-11T12:43:19.652Z</time>
      </trkpt>
      <trkpt lat="46.87686" lon="8.48251">
        <ele>1775</ele>
        <time>2021-08-11T12:43:20.653Z</time>
      </trkpt>
      <trkpt lat="46.87686" lon="8.48251">
        <ele>1775</ele>
        <time>2021-08-11T12:43:21.653Z</time>
      </trkpt>
      <trkpt lat="46.87686" lon="8.48251">
        <ele>1775</ele>
        <time>2021-08-11T12:43:22.652Z</time>
      </trkpt>
      <trkpt lat="46.87686" lon="8.48251">
        <ele>1775</ele>
        <time>2021-08-11T12:43:23.654Z</time>
      </trkpt>
      <trkpt lat="46.87684" lon="8.48249">
        <ele>1779</ele>
        <time>2021-08-11T12:43:24.654Z</time>
      </trkpt>
      <trkpt lat="46.87684" lon="8.4825">
        <ele>1779</ele>
        <time>2021-08-11T12:43:25.654Z</time>
      </trkpt>
      <trkpt lat="46.87684" lon="8.48251">
        <ele>1779</ele>
        <time>2021-08-11T12:43:26.653Z</time>
      </trkpt>
      <trkpt lat="46.87683" lon="8.48252">
        <ele>1782</ele>
        <time>2021-08-11T12:43:27.653Z</time>
      </trkpt>
      <trkpt lat="46.87682" lon="8.48252">
        <ele>1782</ele>
        <time>2021-08-11T12:43:28.653Z</time>
      </trkpt>
      <trkpt lat="46.87683" lon="8.48256">
        <ele>1786</ele>
        <time>2021-08-11T12:43:29.655Z</time>
      </trkpt>
      <trkpt lat="46.87683" lon="8.48257">
        <ele>1786</ele>
        <time>2021-08-11T12:43:30.655Z</time>
      </trkpt>
      <trkpt lat="46.87682" lon="8.48257">
        <ele>1786</ele>
        <time>2021-08-11T12:43:31.655Z</time>
      </trkpt>
      <trkpt lat="46.87682" lon="8.4826">
        <ele>1786</ele>
        <time>2021-08-11T12:43:32.654Z</time>
      </trkpt>
      <trkpt lat="46.87683" lon="8.4826">
        <ele>1786</ele>
        <time>2021-08-11T12:43:33.654Z</time>
      </trkpt>
      <trkpt lat="46.87684" lon="8.48261">
        <ele>1785</ele>
        <time>2021-08-11T12:43:34.655Z</time>
      </trkpt>
      <trkpt lat="46.87684" lon="8.48262">
        <ele>1785</ele>
        <time>2021-08-11T12:43:35.654Z</time>
      </trkpt>
      <trkpt lat="46.87684" lon="8.48262">
        <ele>1786</ele>
        <time>2021-08-11T12:43:36.654Z</time>
      </trkpt>
      <trkpt lat="46.87683" lon="8.48263">
        <ele>1786</ele>
        <time>2021-08-11T12:43:37.654Z</time>
      </trkpt>
      <trkpt lat="46.87683" lon="8.48264">
        <ele>1786</ele>
        <time>2021-08-11T12:43:38.654Z</time>
      </trkpt>
      <trkpt lat="46.87683" lon="8.48263">
        <ele>1785</ele>
        <time>2021-08-11T12:43:39.655Z</time>
      </trkpt>
      <trkpt lat="46.87683" lon="8.48262">
        <ele>1785</ele>
        <time>2021-08-11T12:43:40.655Z</time>
      </trkpt>
      <trkpt lat="46.87683" lon="8.48261">
        <ele>1785</ele>
        <time>2021-08-11T12:43:41.654Z</time>
      </trkpt>
      <trkpt lat="46.87688" lon="8.48264">
        <ele>1782</ele>
        <time>2021-08-11T12:43:42.654Z</time>
      </trkpt>
      <trkpt lat="46.87688" lon="8.48264">
        <ele>1782</ele>
        <time>2021-08-11T12:43:43.654Z</time>
      </trkpt>
      <trkpt lat="46.87688" lon="8.48263">
        <ele>1782</ele>
        <time>2021-08-11T12:43:52.770Z</time>
      </trkpt>
      <trkpt lat="46.87685" lon="8.48262">
        <ele>1789</ele>
        <time>2021-08-11T12:43:53.771Z</time>
      </trkpt>
      <trkpt lat="46.87685" lon="8.48261">
        <ele>1787</ele>
        <time>2021-08-11T12:43:54.772Z</time>
      </trkpt>
      <trkpt lat="46.87686" lon="8.48261">
        <ele>1782</ele>
        <time>2021-08-11T12:43:55.772Z</time>
      </trkpt>
      <trkpt lat="46.87687" lon="8.48261">
        <ele>1782</ele>
        <time>2021-08-11T12:43:56.771Z</time>
      </trkpt>
      <trkpt lat="46.87687" lon="8.48261">
        <ele>1783</ele>
        <time>2021-08-11T12:43:57.771Z</time>
      </trkpt>
      <trkpt lat="46.87686" lon="8.48259">
        <ele>1782</ele>
        <time>2021-08-11T12:43:58.773Z</time>
      </trkpt>
      <trkpt lat="46.87686" lon="8.4826">
        <ele>1781</ele>
        <time>2021-08-11T12:43:59.772Z</time>
      </trkpt>
      <trkpt lat="46.87686" lon="8.4826">
        <ele>1781</ele>
        <time>2021-08-11T12:44:00.773Z</time>
      </trkpt>
      <trkpt lat="46.87687" lon="8.48261">
        <ele>1780</ele>
        <time>2021-08-11T12:44:01.773Z</time>
      </trkpt>
      <trkpt lat="46.87687" lon="8.4826">
        <ele>1782</ele>
        <time>2021-08-11T12:44:02.773Z</time>
      </trkpt>
      <trkpt lat="46.87687" lon="8.4826">
        <ele>1783</ele>
        <time>2021-08-11T12:44:03.773Z</time>
      </trkpt>
      <trkpt lat="46.87688" lon="8.4826">
        <ele>1783</ele>
        <time>2021-08-11T12:44:04.773Z</time>
      </trkpt>
      <trkpt lat="46.87691" lon="8.48259">
        <ele>1786</ele>
        <time>2021-08-11T12:44:05.774Z</time>
      </trkpt>
      <trkpt lat="46.8769" lon="8.48258">
        <ele>1786</ele>
        <time>2021-08-11T12:44:06.773Z</time>
      </trkpt>
      <trkpt lat="46.8769" lon="8.48258">
        <ele>1787</ele>
        <time>2021-08-11T12:44:07.774Z</time>
      </trkpt>
      <trkpt lat="46.87691" lon="8.48257">
        <ele>1788</ele>
        <time>2021-08-11T12:44:08.775Z</time>
      </trkpt>
      <trkpt lat="46.87691" lon="8.48257">
        <ele>1788</ele>
        <time>2021-08-11T12:44:09.775Z</time>
      </trkpt>
      <trkpt lat="46.8769" lon="8.48257">
        <ele>1788</ele>
        <time>2021-08-11T12:44:10.774Z</time>
      </trkpt>
      <trkpt lat="46.8769" lon="8.48256">
        <ele>1788</ele>
        <time>2021-08-11T12:44:11.775Z</time>
      </trkpt>
      <trkpt lat="46.8769" lon="8.48256">
        <ele>1788</ele>
        <time>2021-08-11T12:44:12.775Z</time>
      </trkpt>
      <trkpt lat="46.8769" lon="8.48258">
        <ele>1782</ele>
        <time>2021-08-11T12:44:13.775Z</time>
      </trkpt>
      <trkpt lat="46.8769" lon="8.48258">
        <ele>1782</ele>
        <time>2021-08-11T12:44:14.776Z</time>
      </trkpt>
      <trkpt lat="46.87691" lon="8.48258">
        <ele>1782</ele>
        <time>2021-08-11T12:44:15.775Z</time>
      </trkpt>
      <trkpt lat="46.87691" lon="8.48259">
        <ele>1779</ele>
        <time>2021-08-11T12:44:16.651Z</time>
      </trkpt>
      <trkpt lat="46.87691" lon="8.48259">
        <ele>1779</ele>
        <time>2021-08-11T12:44:17.651Z</time>
      </trkpt>
      <trkpt lat="46.87691" lon="8.48259">
        <ele>1778</ele>
        <time>2021-08-11T12:44:18.651Z</time>
      </trkpt>
      <trkpt lat="46.8769" lon="8.48258">
        <ele>1778</ele>
        <time>2021-08-11T12:44:19.651Z</time>
      </trkpt>
      <trkpt lat="46.87691" lon="8.48259">
        <ele>1778</ele>
        <time>2021-08-11T12:44:20.775Z</time>
      </trkpt>
      <trkpt lat="46.87691" lon="8.48259">
        <ele>1778</ele>
        <time>2021-08-11T12:44:21.651Z</time>
      </trkpt>
      <trkpt lat="46.87692" lon="8.48259">
        <ele>1778</ele>
        <time>2021-08-11T12:44:22.651Z</time>
      </trkpt>
      <trkpt lat="46.87692" lon="8.48259">
        <ele>1779</ele>
        <time>2021-08-11T12:44:23.651Z</time>
      </trkpt>
      <trkpt lat="46.87693" lon="8.48259">
        <ele>1779</ele>
        <time>2021-08-11T12:44:24.775Z</time>
      </trkpt>
      <trkpt lat="46.87693" lon="8.48259">
        <ele>1779</ele>
        <time>2021-08-11T12:44:25.651Z</time>
      </trkpt>
      <trkpt lat="46.87694" lon="8.48259">
        <ele>1780</ele>
        <time>2021-08-11T12:44:26.775Z</time>
      </trkpt>
      <trkpt lat="46.87694" lon="8.48259">
        <ele>1781</ele>
        <time>2021-08-11T12:44:27.775Z</time>
      </trkpt>
      <trkpt lat="46.87695" lon="8.48259">
        <ele>1781</ele>
        <time>2021-08-11T12:44:28.775Z</time>
      </trkpt>
      <trkpt lat="46.87695" lon="8.48258">
        <ele>1781</ele>
        <time>2021-08-11T12:44:29.775Z</time>
      </trkpt>
      <trkpt lat="46.87695" lon="8.48258">
        <ele>1781</ele>
        <time>2021-08-11T12:44:30.775Z</time>
      </trkpt>
      <trkpt lat="46.87695" lon="8.48257">
        <ele>1781</ele>
        <time>2021-08-11T12:44:31.775Z</time>
      </trkpt>
      <trkpt lat="46.87696" lon="8.48256">
        <ele>1780</ele>
        <time>2021-08-11T12:44:32.775Z</time>
      </trkpt>
      <trkpt lat="46.87697" lon="8.48254">
        <ele>1780</ele>
        <time>2021-08-11T12:44:33.776Z</time>
      </trkpt>
      <trkpt lat="46.87697" lon="8.48253">
        <ele>1780</ele>
        <time>2021-08-11T12:44:34.775Z</time>
      </trkpt>
      <trkpt lat="46.87697" lon="8.48253">
        <ele>1780</ele>
        <time>2021-08-11T12:44:35.651Z</time>
      </trkpt>
      <trkpt lat="46.87698" lon="8.48252">
        <ele>1780</ele>
        <time>2021-08-11T12:44:36.776Z</time>
      </trkpt>
      <trkpt lat="46.87698" lon="8.48252">
        <ele>1780</ele>
        <time>2021-08-11T12:44:37.651Z</time>
      </trkpt>
      <trkpt lat="46.87698" lon="8.48251">
        <ele>1779</ele>
        <time>2021-08-11T12:44:38.651Z</time>
      </trkpt>
      <trkpt lat="46.87698" lon="8.48251">
        <ele>1779</ele>
        <time>2021-08-11T12:44:39.651Z</time>
      </trkpt>
      <trkpt lat="46.87698" lon="8.4825">
        <ele>1779</ele>
        <time>2021-08-11T12:44:40.776Z</time>
      </trkpt>
      <trkpt lat="46.87698" lon="8.4825">
        <ele>1779</ele>
        <time>2021-08-11T12:44:41.651Z</time>
      </trkpt>
      <trkpt lat="46.87699" lon="8.48249">
        <ele>1778</ele>
        <time>2021-08-11T12:44:42.775Z</time>
      </trkpt>
      <trkpt lat="46.87699" lon="8.48249">
        <ele>1778</ele>
        <time>2021-08-11T12:44:43.651Z</time>
      </trkpt>
      <trkpt lat="46.87699" lon="8.48248">
        <ele>1778</ele>
        <time>2021-08-11T12:44:44.651Z</time>
      </trkpt>
      <trkpt lat="46.877" lon="8.48247">
        <ele>1778</ele>
        <time>2021-08-11T12:44:45.651Z</time>
      </trkpt>
      <trkpt lat="46.877" lon="8.48245">
        <ele>1777</ele>
        <time>2021-08-11T12:44:46.651Z</time>
      </trkpt>
      <trkpt lat="46.877" lon="8.48244">
        <ele>1776</ele>
        <time>2021-08-11T12:44:47.775Z</time>
      </trkpt>
      <trkpt lat="46.877" lon="8.48242">
        <ele>1776</ele>
        <time>2021-08-11T12:44:48.775Z</time>
      </trkpt>
      <trkpt lat="46.877" lon="8.48242">
        <ele>1776</ele>
        <time>2021-08-11T12:44:49.651Z</time>
      </trkpt>
      <trkpt lat="46.877" lon="8.48242">
        <ele>1775</ele>
        <time>2021-08-11T12:44:50.651Z</time>
      </trkpt>
      <trkpt lat="46.877" lon="8.48242">
        <ele>1775</ele>
        <time>2021-08-11T12:44:51.651Z</time>
      </trkpt>
      <trkpt lat="46.87701" lon="8.48242">
        <ele>1775</ele>
        <time>2021-08-11T12:44:52.651Z</time>
      </trkpt>
      <trkpt lat="46.87701" lon="8.4824">
        <ele>1775</ele>
        <time>2021-08-11T12:44:53.776Z</time>
      </trkpt>
      <trkpt lat="46.87701" lon="8.4824">
        <ele>1775</ele>
        <time>2021-08-11T12:44:54.651Z</time>
      </trkpt>
      <trkpt lat="46.87702" lon="8.48239">
        <ele>1776</ele>
        <time>2021-08-11T12:44:55.651Z</time>
      </trkpt>
      <trkpt lat="46.87703" lon="8.48238">
        <ele>1776</ele>
        <time>2021-08-11T12:44:56.651Z</time>
      </trkpt>
      <trkpt lat="46.87704" lon="8.48235">
        <ele>1777</ele>
        <time>2021-08-11T12:44:57.775Z</time>
      </trkpt>
      <trkpt lat="46.87704" lon="8.48234">
        <ele>1777</ele>
        <time>2021-08-11T12:44:58.775Z</time>
      </trkpt>
      <trkpt lat="46.87704" lon="8.48234">
        <ele>1777</ele>
        <time>2021-08-11T12:44:59.651Z</time>
      </trkpt>
      <trkpt lat="46.87703" lon="8.48233">
        <ele>1777</ele>
        <time>2021-08-11T12:45:00.651Z</time>
      </trkpt>
      <trkpt lat="46.87704" lon="8.48232">
        <ele>1777</ele>
        <time>2021-08-11T12:45:01.651Z</time>
      </trkpt>
      <trkpt lat="46.87704" lon="8.48231">
        <ele>1777</ele>
        <time>2021-08-11T12:45:02.651Z</time>
      </trkpt>
      <trkpt lat="46.87704" lon="8.4823">
        <ele>1778</ele>
        <time>2021-08-11T12:45:03.651Z</time>
      </trkpt>
      <trkpt lat="46.87704" lon="8.48229">
        <ele>1778</ele>
        <time>2021-08-11T12:45:04.651Z</time>
      </trkpt>
      <trkpt lat="46.87704" lon="8.48228">
        <ele>1778</ele>
        <time>2021-08-11T12:45:05.651Z</time>
      </trkpt>
      <trkpt lat="46.87704" lon="8.48227">
        <ele>1778</ele>
        <time>2021-08-11T12:45:06.775Z</time>
      </trkpt>
      <trkpt lat="46.87704" lon="8.48227">
        <ele>1778</ele>
        <time>2021-08-11T12:45:07.651Z</time>
      </trkpt>
      <trkpt lat="46.87704" lon="8.48226">
        <ele>1778</ele>
        <time>2021-08-11T12:45:08.651Z</time>
      </trkpt>
      <trkpt lat="46.87706" lon="8.48225">
        <ele>1779</ele>
        <time>2021-08-11T12:45:09.776Z</time>
      </trkpt>
      <trkpt lat="46.87706" lon="8.48225">
        <ele>1779</ele>
        <time>2021-08-11T12:45:10.651Z</time>
      </trkpt>
      <trkpt lat="46.87707" lon="8.48224">
        <ele>1780</ele>
        <time>2021-08-11T12:45:11.775Z</time>
      </trkpt>
      <trkpt lat="46.87707" lon="8.48223">
        <ele>1781</ele>
        <time>2021-08-11T12:45:12.775Z</time>
      </trkpt>
      <trkpt lat="46.87707" lon="8.48223">
        <ele>1781</ele>
        <time>2021-08-11T12:45:13.651Z</time>
      </trkpt>
      <trkpt lat="46.87707" lon="8.48222">
        <ele>1781</ele>
        <time>2021-08-11T12:45:14.651Z</time>
      </trkpt>
      <trkpt lat="46.87707" lon="8.48221">
        <ele>1781</ele>
        <time>2021-08-11T12:45:15.651Z</time>
      </trkpt>
      <trkpt lat="46.87708" lon="8.48221">
        <ele>1781</ele>
        <time>2021-08-11T12:45:16.651Z</time>
      </trkpt>
      <trkpt lat="46.87708" lon="8.4822">
        <ele>1781</ele>
        <time>2021-08-11T12:45:17.651Z</time>
      </trkpt>
      <trkpt lat="46.87708" lon="8.48219">
        <ele>1781</ele>
        <time>2021-08-11T12:45:18.651Z</time>
      </trkpt>
      <trkpt lat="46.87709" lon="8.48217">
        <ele>1780</ele>
        <time>2021-08-11T12:45:19.775Z</time>
      </trkpt>
      <trkpt lat="46.87709" lon="8.48216">
        <ele>1779</ele>
        <time>2021-08-11T12:45:20.776Z</time>
      </trkpt>
      <trkpt lat="46.87709" lon="8.48216">
        <ele>1779</ele>
        <time>2021-08-11T12:45:21.651Z</time>
      </trkpt>
      <trkpt lat="46.87708" lon="8.48216">
        <ele>1779</ele>
        <time>2021-08-11T12:45:22.651Z</time>
      </trkpt>
      <trkpt lat="46.87708" lon="8.48215">
        <ele>1779</ele>
        <time>2021-08-11T12:45:23.651Z</time>
      </trkpt>
      <trkpt lat="46.87708" lon="8.48215">
        <ele>1779</ele>
        <time>2021-08-11T12:45:24.651Z</time>
      </trkpt>
      <trkpt lat="46.87709" lon="8.48214">
        <ele>1778</ele>
        <time>2021-08-11T12:45:25.775Z</time>
      </trkpt>
      <trkpt lat="46.87709" lon="8.48214">
        <ele>1778</ele>
        <time>2021-08-11T12:45:26.651Z</time>
      </trkpt>
      <trkpt lat="46.87709" lon="8.48213">
        <ele>1778</ele>
        <time>2021-08-11T12:45:27.651Z</time>
      </trkpt>
      <trkpt lat="46.87709" lon="8.48212">
        <ele>1779</ele>
        <time>2021-08-11T12:45:28.651Z</time>
      </trkpt>
      <trkpt lat="46.87708" lon="8.48211">
        <ele>1779</ele>
        <time>2021-08-11T12:45:29.651Z</time>
      </trkpt>
      <trkpt lat="46.87707" lon="8.4821">
        <ele>1779</ele>
        <time>2021-08-11T12:45:30.775Z</time>
      </trkpt>
      <trkpt lat="46.87707" lon="8.48208">
        <ele>1779</ele>
        <time>2021-08-11T12:45:31.775Z</time>
      </trkpt>
      <trkpt lat="46.87707" lon="8.48208">
        <ele>1779</ele>
        <time>2021-08-11T12:45:32.651Z</time>
      </trkpt>
      <trkpt lat="46.87707" lon="8.48208">
        <ele>1779</ele>
        <time>2021-08-11T12:45:33.651Z</time>
      </trkpt>
      <trkpt lat="46.87707" lon="8.48207">
        <ele>1779</ele>
        <time>2021-08-11T12:45:34.651Z</time>
      </trkpt>
      <trkpt lat="46.87707" lon="8.48205">
        <ele>1779</ele>
        <time>2021-08-11T12:45:35.775Z</time>
      </trkpt>
      <trkpt lat="46.87707" lon="8.48204">
        <ele>1779</ele>
        <time>2021-08-11T12:45:36.775Z</time>
      </trkpt>
      <trkpt lat="46.87707" lon="8.48204">
        <ele>1779</ele>
        <time>2021-08-11T12:45:37.651Z</time>
      </trkpt>
      <trkpt lat="46.87709" lon="8.48202">
        <ele>1780</ele>
        <time>2021-08-11T12:45:38.775Z</time>
      </trkpt>
      <trkpt lat="46.8771" lon="8.48201">
        <ele>1781</ele>
        <time>2021-08-11T12:45:39.775Z</time>
      </trkpt>
      <trkpt lat="46.8771" lon="8.48201">
        <ele>1781</ele>
        <time>2021-08-11T12:45:40.775Z</time>
      </trkpt>
      <trkpt lat="46.8771" lon="8.48201">
        <ele>1781</ele>
        <time>2021-08-11T12:45:41.651Z</time>
      </trkpt>
      <trkpt lat="46.8771" lon="8.48199">
        <ele>1781</ele>
        <time>2021-08-11T12:45:42.651Z</time>
      </trkpt>
      <trkpt lat="46.87711" lon="8.48198">
        <ele>1780</ele>
        <time>2021-08-11T12:45:43.651Z</time>
      </trkpt>
      <trkpt lat="46.8771" lon="8.48197">
        <ele>1781</ele>
        <time>2021-08-11T12:45:44.651Z</time>
      </trkpt>
      <trkpt lat="46.8771" lon="8.48196">
        <ele>1781</ele>
        <time>2021-08-11T12:45:45.651Z</time>
      </trkpt>
      <trkpt lat="46.8771" lon="8.48195">
        <ele>1781</ele>
        <time>2021-08-11T12:45:46.651Z</time>
      </trkpt>
      <trkpt lat="46.87711" lon="8.48196">
        <ele>1781</ele>
        <time>2021-08-11T12:45:47.776Z</time>
      </trkpt>
      <trkpt lat="46.87711" lon="8.48196">
        <ele>1781</ele>
        <time>2021-08-11T12:45:48.651Z</time>
      </trkpt>
      <trkpt lat="46.87711" lon="8.48196">
        <ele>1782</ele>
        <time>2021-08-11T12:45:49.651Z</time>
      </trkpt>
      <trkpt lat="46.87711" lon="8.48197">
        <ele>1783</ele>
        <time>2021-08-11T12:45:50.651Z</time>
      </trkpt>
      <trkpt lat="46.87711" lon="8.48199">
        <ele>1784</ele>
        <time>2021-08-11T12:45:51.651Z</time>
      </trkpt>
      <trkpt lat="46.87712" lon="8.48201">
        <ele>1786</ele>
        <time>2021-08-11T12:45:52.775Z</time>
      </trkpt>
      <trkpt lat="46.87712" lon="8.48202">
        <ele>1787</ele>
        <time>2021-08-11T12:45:53.775Z</time>
      </trkpt>
      <trkpt lat="46.87712" lon="8.48202">
        <ele>1787</ele>
        <time>2021-08-11T12:45:54.651Z</time>
      </trkpt>
      <trkpt lat="46.87713" lon="8.48202">
        <ele>1787</ele>
        <time>2021-08-11T12:45:59.775Z</time>
      </trkpt>
      <trkpt lat="46.87713" lon="8.48201">
        <ele>1788</ele>
        <time>2021-08-11T12:46:00.775Z</time>
      </trkpt>
      <trkpt lat="46.87713" lon="8.48201">
        <ele>1788</ele>
        <time>2021-08-11T12:46:01.775Z</time>
      </trkpt>
      <trkpt lat="46.87714" lon="8.482">
        <ele>1789</ele>
        <time>2021-08-11T12:46:02.775Z</time>
      </trkpt>
      <trkpt lat="46.87714" lon="8.482">
        <ele>1789</ele>
        <time>2021-08-11T12:46:03.775Z</time>
      </trkpt>
      <trkpt lat="46.87715" lon="8.48198">
        <ele>1790</ele>
        <time>2021-08-11T12:46:04.899Z</time>
      </trkpt>
      <trkpt lat="46.87715" lon="8.48198">
        <ele>1790</ele>
        <time>2021-08-11T12:46:05.775Z</time>
      </trkpt>
      <trkpt lat="46.87716" lon="8.48196">
        <ele>1790</ele>
        <time>2021-08-11T12:46:06.900Z</time>
      </trkpt>
      <trkpt lat="46.87716" lon="8.48196">
        <ele>1790</ele>
        <time>2021-08-11T12:46:07.775Z</time>
      </trkpt>
      <trkpt lat="46.87716" lon="8.48197">
        <ele>1790</ele>
        <time>2021-08-11T12:46:08.899Z</time>
      </trkpt>
      <trkpt lat="46.87716" lon="8.48197">
        <ele>1790</ele>
        <time>2021-08-11T12:46:09.775Z</time>
      </trkpt>
      <trkpt lat="46.87717" lon="8.48197">
        <ele>1790</ele>
        <time>2021-08-11T12:46:10.775Z</time>
      </trkpt>
      <trkpt lat="46.87718" lon="8.48198">
        <ele>1791</ele>
        <time>2021-08-11T12:46:11.775Z</time>
      </trkpt>
      <trkpt lat="46.87718" lon="8.48198">
        <ele>1791</ele>
        <time>2021-08-11T12:46:12.775Z</time>
      </trkpt>
      <trkpt lat="46.87718" lon="8.48197">
        <ele>1791</ele>
        <time>2021-08-11T12:46:13.775Z</time>
      </trkpt>
      <trkpt lat="46.87719" lon="8.48197">
        <ele>1791</ele>
        <time>2021-08-11T12:46:14.775Z</time>
      </trkpt>
      <trkpt lat="46.87719" lon="8.48196">
        <ele>1791</ele>
        <time>2021-08-11T12:46:15.775Z</time>
      </trkpt>
      <trkpt lat="46.87719" lon="8.48195">
        <ele>1791</ele>
        <time>2021-08-11T12:46:16.900Z</time>
      </trkpt>
      <trkpt lat="46.87719" lon="8.48195">
        <ele>1791</ele>
        <time>2021-08-11T12:46:17.775Z</time>
      </trkpt>
      <trkpt lat="46.87719" lon="8.48194">
        <ele>1791</ele>
        <time>2021-08-11T12:46:18.775Z</time>
      </trkpt>
      <trkpt lat="46.87719" lon="8.48194">
        <ele>1791</ele>
        <time>2021-08-11T12:46:19.775Z</time>
      </trkpt>
      <trkpt lat="46.8772" lon="8.48193">
        <ele>1791</ele>
        <time>2021-08-11T12:46:20.775Z</time>
      </trkpt>
      <trkpt lat="46.87722" lon="8.4819">
        <ele>1792</ele>
        <time>2021-08-11T12:46:21.900Z</time>
      </trkpt>
      <trkpt lat="46.87722" lon="8.4819">
        <ele>1792</ele>
        <time>2021-08-11T12:46:22.775Z</time>
      </trkpt>
      <trkpt lat="46.87722" lon="8.48189">
        <ele>1792</ele>
        <time>2021-08-11T12:46:23.775Z</time>
      </trkpt>
      <trkpt lat="46.87722" lon="8.48189">
        <ele>1792</ele>
        <time>2021-08-11T12:46:24.775Z</time>
      </trkpt>
      <trkpt lat="46.87722" lon="8.48188">
        <ele>1792</ele>
        <time>2021-08-11T12:46:25.775Z</time>
      </trkpt>
      <trkpt lat="46.87721" lon="8.48186">
        <ele>1793</ele>
        <time>2021-08-11T12:46:26.900Z</time>
      </trkpt>
      <trkpt lat="46.87721" lon="8.48185">
        <ele>1793</ele>
        <time>2021-08-11T12:46:27.899Z</time>
      </trkpt>
      <trkpt lat="46.87721" lon="8.48185">
        <ele>1793</ele>
        <time>2021-08-11T12:46:28.775Z</time>
      </trkpt>
      <trkpt lat="46.8772" lon="8.48185">
        <ele>1793</ele>
        <time>2021-08-11T12:46:29.775Z</time>
      </trkpt>
      <trkpt lat="46.87721" lon="8.48184">
        <ele>1793</ele>
        <time>2021-08-11T12:46:30.775Z</time>
      </trkpt>
      <trkpt lat="46.87721" lon="8.48183">
        <ele>1794</ele>
        <time>2021-08-11T12:46:31.775Z</time>
      </trkpt>
      <trkpt lat="46.87721" lon="8.48181">
        <ele>1794</ele>
        <time>2021-08-11T12:46:32.900Z</time>
      </trkpt>
      <trkpt lat="46.87721" lon="8.48179">
        <ele>1794</ele>
        <time>2021-08-11T12:46:33.899Z</time>
      </trkpt>
      <trkpt lat="46.87721" lon="8.48179">
        <ele>1794</ele>
        <time>2021-08-11T12:46:34.775Z</time>
      </trkpt>
      <trkpt lat="46.87722" lon="8.48178">
        <ele>1794</ele>
        <time>2021-08-11T12:46:54.898Z</time>
      </trkpt>
      <trkpt lat="46.87721" lon="8.48178">
        <ele>1794</ele>
        <time>2021-08-11T12:46:55.898Z</time>
      </trkpt>
      <trkpt lat="46.87721" lon="8.48178">
        <ele>1794</ele>
        <time>2021-08-11T12:46:56.898Z</time>
      </trkpt>
      <trkpt lat="46.87721" lon="8.48178">
        <ele>1794</ele>
        <time>2021-08-11T12:47:05.002Z</time>
      </trkpt>
      <trkpt lat="46.87721" lon="8.48177">
        <ele>1794</ele>
        <time>2021-08-11T12:47:06.002Z</time>
      </trkpt>
      <trkpt lat="46.87721" lon="8.48176">
        <ele>1793</ele>
        <time>2021-08-11T12:47:07.126Z</time>
      </trkpt>
      <trkpt lat="46.87722" lon="8.48176">
        <ele>1793</ele>
        <time>2021-08-11T12:47:08.126Z</time>
      </trkpt>
      <trkpt lat="46.87722" lon="8.48176">
        <ele>1793</ele>
        <time>2021-08-11T12:47:09.002Z</time>
      </trkpt>
      <trkpt lat="46.87722" lon="8.48176">
        <ele>1793</ele>
        <time>2021-08-11T12:47:10.002Z</time>
      </trkpt>
      <trkpt lat="46.87722" lon="8.48175">
        <ele>1793</ele>
        <time>2021-08-11T12:47:11.002Z</time>
      </trkpt>
      <trkpt lat="46.87722" lon="8.48175">
        <ele>1792</ele>
        <time>2021-08-11T12:47:12.002Z</time>
      </trkpt>
      <trkpt lat="46.87722" lon="8.48174">
        <ele>1791</ele>
        <time>2021-08-11T12:47:13.127Z</time>
      </trkpt>
      <trkpt lat="46.87722" lon="8.48173">
        <ele>1791</ele>
        <time>2021-08-11T12:47:14.127Z</time>
      </trkpt>
      <trkpt lat="46.87722" lon="8.48173">
        <ele>1791</ele>
        <time>2021-08-11T12:47:15.002Z</time>
      </trkpt>
      <trkpt lat="46.87723" lon="8.48173">
        <ele>1791</ele>
        <time>2021-08-11T12:47:16.002Z</time>
      </trkpt>
      <trkpt lat="46.87723" lon="8.48172">
        <ele>1791</ele>
        <time>2021-08-11T12:47:17.126Z</time>
      </trkpt>
      <trkpt lat="46.87724" lon="8.48172">
        <ele>1791</ele>
        <time>2021-08-11T12:47:18.127Z</time>
      </trkpt>
      <trkpt lat="46.87724" lon="8.48172">
        <ele>1791</ele>
        <time>2021-08-11T12:47:19.002Z</time>
      </trkpt>
      <trkpt lat="46.87724" lon="8.48172">
        <ele>1791</ele>
        <time>2021-08-11T12:47:20.002Z</time>
      </trkpt>
      <trkpt lat="46.87723" lon="8.48173">
        <ele>1791</ele>
        <time>2021-08-11T12:47:21.002Z</time>
      </trkpt>
      <trkpt lat="46.87723" lon="8.48172">
        <ele>1791</ele>
        <time>2021-08-11T12:47:22.002Z</time>
      </trkpt>
      <trkpt lat="46.87724" lon="8.48172">
        <ele>1791</ele>
        <time>2021-08-11T12:47:23.002Z</time>
      </trkpt>
      <trkpt lat="46.87725" lon="8.48173">
        <ele>1792</ele>
        <time>2021-08-11T12:47:24.002Z</time>
      </trkpt>
      <trkpt lat="46.87726" lon="8.48172">
        <ele>1792</ele>
        <time>2021-08-11T12:47:25.002Z</time>
      </trkpt>
      <trkpt lat="46.87726" lon="8.48172">
        <ele>1792</ele>
        <time>2021-08-11T12:47:26.002Z</time>
      </trkpt>
      <trkpt lat="46.87727" lon="8.48172">
        <ele>1792</ele>
        <time>2021-08-11T12:47:27.126Z</time>
      </trkpt>
      <trkpt lat="46.87727" lon="8.48172">
        <ele>1792</ele>
        <time>2021-08-11T12:47:28.002Z</time>
      </trkpt>
      <trkpt lat="46.87727" lon="8.48172">
        <ele>1793</ele>
        <time>2021-08-11T12:47:29.002Z</time>
      </trkpt>
      <trkpt lat="46.87728" lon="8.48173">
        <ele>1793</ele>
        <time>2021-08-11T12:47:30.002Z</time>
      </trkpt>
      <trkpt lat="46.87728" lon="8.48173">
        <ele>1794</ele>
        <time>2021-08-11T12:47:31.002Z</time>
      </trkpt>
      <trkpt lat="46.87729" lon="8.48174">
        <ele>1794</ele>
        <time>2021-08-11T12:47:32.126Z</time>
      </trkpt>
      <trkpt lat="46.87729" lon="8.48174">
        <ele>1794</ele>
        <time>2021-08-11T12:47:33.002Z</time>
      </trkpt>
      <trkpt lat="46.87729" lon="8.48175">
        <ele>1794</ele>
        <time>2021-08-11T12:47:34.002Z</time>
      </trkpt>
      <trkpt lat="46.87729" lon="8.48175">
        <ele>1794</ele>
        <time>2021-08-11T12:47:35.002Z</time>
      </trkpt>
      <trkpt lat="46.8773" lon="8.48176">
        <ele>1794</ele>
        <time>2021-08-11T12:47:36.127Z</time>
      </trkpt>
      <trkpt lat="46.8773" lon="8.48176">
        <ele>1794</ele>
        <time>2021-08-11T12:47:37.002Z</time>
      </trkpt>
      <trkpt lat="46.8773" lon="8.48177">
        <ele>1793</ele>
        <time>2021-08-11T12:47:38.002Z</time>
      </trkpt>
      <trkpt lat="46.87731" lon="8.48177">
        <ele>1793</ele>
        <time>2021-08-11T12:47:39.002Z</time>
      </trkpt>
      <trkpt lat="46.87731" lon="8.48178">
        <ele>1793</ele>
        <time>2021-08-11T12:47:40.002Z</time>
      </trkpt>
      <trkpt lat="46.87732" lon="8.48178">
        <ele>1793</ele>
        <time>2021-08-11T12:47:41.002Z</time>
      </trkpt>
      <trkpt lat="46.87733" lon="8.48179">
        <ele>1794</ele>
        <time>2021-08-11T12:47:56.267Z</time>
      </trkpt>
      <trkpt lat="46.87733" lon="8.48179">
        <ele>1794</ele>
        <time>2021-08-11T12:47:57.143Z</time>
      </trkpt>
      <trkpt lat="46.87733" lon="8.4818">
        <ele>1794</ele>
        <time>2021-08-11T12:48:01.016Z</time>
      </trkpt>
      <trkpt lat="46.87733" lon="8.48181">
        <ele>1795</ele>
        <time>2021-08-11T12:48:02.016Z</time>
      </trkpt>
      <trkpt lat="46.87734" lon="8.48182">
        <ele>1796</ele>
        <time>2021-08-11T12:48:03.016Z</time>
      </trkpt>
      <trkpt lat="46.87735" lon="8.48183">
        <ele>1796</ele>
        <time>2021-08-11T12:48:04.016Z</time>
      </trkpt>
      <trkpt lat="46.87735" lon="8.48183">
        <ele>1797</ele>
        <time>2021-08-11T12:48:05.016Z</time>
      </trkpt>
      <trkpt lat="46.87736" lon="8.48184">
        <ele>1797</ele>
        <time>2021-08-11T12:48:06.016Z</time>
      </trkpt>
      <trkpt lat="46.87737" lon="8.48184">
        <ele>1797</ele>
        <time>2021-08-11T12:48:07.140Z</time>
      </trkpt>
      <trkpt lat="46.87737" lon="8.48184">
        <ele>1797</ele>
        <time>2021-08-11T12:48:08.016Z</time>
      </trkpt>
      <trkpt lat="46.87738" lon="8.48184">
        <ele>1797</ele>
        <time>2021-08-11T12:48:09.016Z</time>
      </trkpt>
      <trkpt lat="46.87738" lon="8.48185">
        <ele>1797</ele>
        <time>2021-08-11T12:48:10.016Z</time>
      </trkpt>
      <trkpt lat="46.87739" lon="8.48185">
        <ele>1798</ele>
        <time>2021-08-11T12:48:11.016Z</time>
      </trkpt>
      <trkpt lat="46.8774" lon="8.48186">
        <ele>1798</ele>
        <time>2021-08-11T12:48:12.140Z</time>
      </trkpt>
      <trkpt lat="46.8774" lon="8.48186">
        <ele>1798</ele>
        <time>2021-08-11T12:48:13.016Z</time>
      </trkpt>
      <trkpt lat="46.8774" lon="8.48187">
        <ele>1798</ele>
        <time>2021-08-11T12:48:30.142Z</time>
      </trkpt>
      <trkpt lat="46.8774" lon="8.48188">
        <ele>1798</ele>
        <time>2021-08-11T12:48:31.142Z</time>
      </trkpt>
      <trkpt lat="46.87741" lon="8.48188">
        <ele>1797</ele>
        <time>2021-08-11T12:48:32.266Z</time>
      </trkpt>
      <trkpt lat="46.87741" lon="8.48188">
        <ele>1797</ele>
        <time>2021-08-11T12:48:33.142Z</time>
      </trkpt>
      <trkpt lat="46.87742" lon="8.48188">
        <ele>1797</ele>
        <time>2021-08-11T12:48:34.142Z</time>
      </trkpt>
      <trkpt lat="46.87742" lon="8.48189">
        <ele>1798</ele>
        <time>2021-08-11T12:48:35.142Z</time>
      </trkpt>
      <trkpt lat="46.87744" lon="8.4819">
        <ele>1799</ele>
        <time>2021-08-11T12:48:36.267Z</time>
      </trkpt>
      <trkpt lat="46.87744" lon="8.4819">
        <ele>1799</ele>
        <time>2021-08-11T12:48:37.266Z</time>
      </trkpt>
      <trkpt lat="46.87744" lon="8.4819">
        <ele>1799</ele>
        <time>2021-08-11T12:48:38.142Z</time>
      </trkpt>
      <trkpt lat="46.87745" lon="8.4819">
        <ele>1799</ele>
        <time>2021-08-11T12:48:39.142Z</time>
      </trkpt>
      <trkpt lat="46.87745" lon="8.48191">
        <ele>1799</ele>
        <time>2021-08-11T12:48:40.142Z</time>
      </trkpt>
      <trkpt lat="46.87746" lon="8.48192">
        <ele>1800</ele>
        <time>2021-08-11T12:48:41.266Z</time>
      </trkpt>
      <trkpt lat="46.87746" lon="8.48192">
        <ele>1800</ele>
        <time>2021-08-11T12:48:42.142Z</time>
      </trkpt>
      <trkpt lat="46.87747" lon="8.48191">
        <ele>1800</ele>
        <time>2021-08-11T12:48:43.142Z</time>
      </trkpt>
      <trkpt lat="46.87747" lon="8.48191">
        <ele>1800</ele>
        <time>2021-08-11T12:48:44.142Z</time>
      </trkpt>
      <trkpt lat="46.87747" lon="8.48191">
        <ele>1800</ele>
        <time>2021-08-11T12:48:45.142Z</time>
      </trkpt>
      <trkpt lat="46.87749" lon="8.48191">
        <ele>1799</ele>
        <time>2021-08-11T12:48:46.266Z</time>
      </trkpt>
      <trkpt lat="46.87749" lon="8.4819">
        <ele>1804</ele>
        <time>2021-08-11T12:48:47.142Z</time>
      </trkpt>
      <trkpt lat="46.87749" lon="8.4819">
        <ele>1805</ele>
        <time>2021-08-11T12:48:48.142Z</time>
      </trkpt>
      <trkpt lat="46.87748" lon="8.48192">
        <ele>1810</ele>
        <time>2021-08-11T12:48:49.143Z</time>
      </trkpt>
      <trkpt lat="46.87748" lon="8.48193">
        <ele>1810</ele>
        <time>2021-08-11T12:48:50.142Z</time>
      </trkpt>
      <trkpt lat="46.87749" lon="8.48194">
        <ele>1811</ele>
        <time>2021-08-11T12:48:51.143Z</time>
      </trkpt>
      <trkpt lat="46.87749" lon="8.48194">
        <ele>1811</ele>
        <time>2021-08-11T12:48:52.143Z</time>
      </trkpt>
      <trkpt lat="46.8775" lon="8.48194">
        <ele>1811</ele>
        <time>2021-08-11T12:48:53.142Z</time>
      </trkpt>
      <trkpt lat="46.8775" lon="8.48193">
        <ele>1811</ele>
        <time>2021-08-11T12:48:54.143Z</time>
      </trkpt>
      <trkpt lat="46.87751" lon="8.48193">
        <ele>1811</ele>
        <time>2021-08-11T12:48:55.143Z</time>
      </trkpt>
      <trkpt lat="46.87751" lon="8.48194">
        <ele>1811</ele>
        <time>2021-08-11T12:48:56.142Z</time>
      </trkpt>
      <trkpt lat="46.87751" lon="8.48195">
        <ele>1811</ele>
        <time>2021-08-11T12:48:57.143Z</time>
      </trkpt>
      <trkpt lat="46.87751" lon="8.48195">
        <ele>1812</ele>
        <time>2021-08-11T12:48:58.142Z</time>
      </trkpt>
      <trkpt lat="46.87752" lon="8.48197">
        <ele>1812</ele>
        <time>2021-08-11T12:48:59.143Z</time>
      </trkpt>
      <trkpt lat="46.87753" lon="8.48197">
        <ele>1813</ele>
        <time>2021-08-11T12:49:00.142Z</time>
      </trkpt>
      <trkpt lat="46.87753" lon="8.48197">
        <ele>1814</ele>
        <time>2021-08-11T12:49:01.143Z</time>
      </trkpt>
      <trkpt lat="46.87753" lon="8.48198">
        <ele>1814</ele>
        <time>2021-08-11T12:49:02.143Z</time>
      </trkpt>
      <trkpt lat="46.87754" lon="8.48199">
        <ele>1814</ele>
        <time>2021-08-11T12:49:03.143Z</time>
      </trkpt>
      <trkpt lat="46.87754" lon="8.48199">
        <ele>1815</ele>
        <time>2021-08-11T12:49:04.143Z</time>
      </trkpt>
      <trkpt lat="46.87756" lon="8.48201">
        <ele>1815</ele>
        <time>2021-08-11T12:49:05.142Z</time>
      </trkpt>
      <trkpt lat="46.87757" lon="8.48203">
        <ele>1815</ele>
        <time>2021-08-11T12:49:06.142Z</time>
      </trkpt>
      <trkpt lat="46.87757" lon="8.48203">
        <ele>1815</ele>
        <time>2021-08-11T12:49:07.143Z</time>
      </trkpt>
      <trkpt lat="46.87757" lon="8.48204">
        <ele>1815</ele>
        <time>2021-08-11T12:49:08.143Z</time>
      </trkpt>
      <trkpt lat="46.87757" lon="8.48205">
        <ele>1814</ele>
        <time>2021-08-11T12:49:09.143Z</time>
      </trkpt>
      <trkpt lat="46.87757" lon="8.48205">
        <ele>1814</ele>
        <time>2021-08-11T12:49:10.142Z</time>
      </trkpt>
      <trkpt lat="46.87758" lon="8.48205">
        <ele>1813</ele>
        <time>2021-08-11T12:49:11.142Z</time>
      </trkpt>
      <trkpt lat="46.87758" lon="8.48205">
        <ele>1813</ele>
        <time>2021-08-11T12:49:12.142Z</time>
      </trkpt>
      <trkpt lat="46.87759" lon="8.48205">
        <ele>1812</ele>
        <time>2021-08-11T12:49:13.143Z</time>
      </trkpt>
      <trkpt lat="46.8776" lon="8.48205">
        <ele>1812</ele>
        <time>2021-08-11T12:49:14.142Z</time>
      </trkpt>
      <trkpt lat="46.87761" lon="8.48206">
        <ele>1812</ele>
        <time>2021-08-11T12:49:15.142Z</time>
      </trkpt>
      <trkpt lat="46.87761" lon="8.48207">
        <ele>1811</ele>
        <time>2021-08-11T12:49:16.143Z</time>
      </trkpt>
      <trkpt lat="46.87761" lon="8.48207">
        <ele>1811</ele>
        <time>2021-08-11T12:49:17.142Z</time>
      </trkpt>
      <trkpt lat="46.87762" lon="8.48206">
        <ele>1811</ele>
        <time>2021-08-11T12:49:18.143Z</time>
      </trkpt>
      <trkpt lat="46.87763" lon="8.48206">
        <ele>1811</ele>
        <time>2021-08-11T12:49:19.143Z</time>
      </trkpt>
      <trkpt lat="46.87763" lon="8.48206">
        <ele>1810</ele>
        <time>2021-08-11T12:49:20.142Z</time>
      </trkpt>
      <trkpt lat="46.87764" lon="8.48206">
        <ele>1810</ele>
        <time>2021-08-11T12:49:21.143Z</time>
      </trkpt>
      <trkpt lat="46.87764" lon="8.48206">
        <ele>1809</ele>
        <time>2021-08-11T12:49:22.142Z</time>
      </trkpt>
      <trkpt lat="46.87765" lon="8.48206">
        <ele>1809</ele>
        <time>2021-08-11T12:49:23.143Z</time>
      </trkpt>
      <trkpt lat="46.87766" lon="8.48206">
        <ele>1809</ele>
        <time>2021-08-11T12:49:24.143Z</time>
      </trkpt>
      <trkpt lat="46.87766" lon="8.48205">
        <ele>1808</ele>
        <time>2021-08-11T12:49:25.142Z</time>
      </trkpt>
      <trkpt lat="46.87767" lon="8.48206">
        <ele>1808</ele>
        <time>2021-08-11T12:49:26.142Z</time>
      </trkpt>
      <trkpt lat="46.87767" lon="8.48206">
        <ele>1808</ele>
        <time>2021-08-11T12:49:27.142Z</time>
      </trkpt>
      <trkpt lat="46.87768" lon="8.48206">
        <ele>1807</ele>
        <time>2021-08-11T12:49:28.143Z</time>
      </trkpt>
      <trkpt lat="46.87768" lon="8.48206">
        <ele>1806</ele>
        <time>2021-08-11T12:49:29.143Z</time>
      </trkpt>
      <trkpt lat="46.87769" lon="8.48206">
        <ele>1806</ele>
        <time>2021-08-11T12:49:30.143Z</time>
      </trkpt>
      <trkpt lat="46.8777" lon="8.48206">
        <ele>1805</ele>
        <time>2021-08-11T12:49:31.143Z</time>
      </trkpt>
      <trkpt lat="46.87771" lon="8.48206">
        <ele>1805</ele>
        <time>2021-08-11T12:49:32.143Z</time>
      </trkpt>
      <trkpt lat="46.87771" lon="8.48206">
        <ele>1804</ele>
        <time>2021-08-11T12:49:33.142Z</time>
      </trkpt>
      <trkpt lat="46.87772" lon="8.48206">
        <ele>1804</ele>
        <time>2021-08-11T12:49:34.143Z</time>
      </trkpt>
      <trkpt lat="46.87773" lon="8.48206">
        <ele>1803</ele>
        <time>2021-08-11T12:49:35.143Z</time>
      </trkpt>
      <trkpt lat="46.87774" lon="8.48206">
        <ele>1802</ele>
        <time>2021-08-11T12:49:36.143Z</time>
      </trkpt>
      <trkpt lat="46.87774" lon="8.48206">
        <ele>1802</ele>
        <time>2021-08-11T12:49:37.143Z</time>
      </trkpt>
      <trkpt lat="46.87775" lon="8.48205">
        <ele>1801</ele>
        <time>2021-08-11T12:49:38.142Z</time>
      </trkpt>
      <trkpt lat="46.87776" lon="8.48204">
        <ele>1801</ele>
        <time>2021-08-11T12:49:39.143Z</time>
      </trkpt>
      <trkpt lat="46.87777" lon="8.48204">
        <ele>1800</ele>
        <time>2021-08-11T12:49:40.143Z</time>
      </trkpt>
      <trkpt lat="46.87778" lon="8.48203">
        <ele>1800</ele>
        <time>2021-08-11T12:49:41.143Z</time>
      </trkpt>
      <trkpt lat="46.87779" lon="8.48203">
        <ele>1800</ele>
        <time>2021-08-11T12:49:42.143Z</time>
      </trkpt>
      <trkpt lat="46.8778" lon="8.48203">
        <ele>1800</ele>
        <time>2021-08-11T12:49:43.143Z</time>
      </trkpt>
      <trkpt lat="46.8778" lon="8.48203">
        <ele>1800</ele>
        <time>2021-08-11T12:49:44.143Z</time>
      </trkpt>
      <trkpt lat="46.87781" lon="8.48203">
        <ele>1800</ele>
        <time>2021-08-11T12:49:45.143Z</time>
      </trkpt>
      <trkpt lat="46.87782" lon="8.48203">
        <ele>1800</ele>
        <time>2021-08-11T12:49:46.142Z</time>
      </trkpt>
      <trkpt lat="46.87783" lon="8.48204">
        <ele>1799</ele>
        <time>2021-08-11T12:49:47.143Z</time>
      </trkpt>
      <trkpt lat="46.87784" lon="8.48204">
        <ele>1799</ele>
        <time>2021-08-11T12:49:48.142Z</time>
      </trkpt>
      <trkpt lat="46.87785" lon="8.48205">
        <ele>1800</ele>
        <time>2021-08-11T12:49:49.143Z</time>
      </trkpt>
      <trkpt lat="46.87785" lon="8.48206">
        <ele>1800</ele>
        <time>2021-08-11T12:49:50.143Z</time>
      </trkpt>
      <trkpt lat="46.87786" lon="8.48206">
        <ele>1800</ele>
        <time>2021-08-11T12:49:51.143Z</time>
      </trkpt>
      <trkpt lat="46.87787" lon="8.48207">
        <ele>1801</ele>
        <time>2021-08-11T12:49:52.143Z</time>
      </trkpt>
      <trkpt lat="46.87787" lon="8.48207">
        <ele>1801</ele>
        <time>2021-08-11T12:49:53.142Z</time>
      </trkpt>
      <trkpt lat="46.87788" lon="8.48207">
        <ele>1801</ele>
        <time>2021-08-11T12:49:54.143Z</time>
      </trkpt>
      <trkpt lat="46.87789" lon="8.48207">
        <ele>1801</ele>
        <time>2021-08-11T12:49:55.143Z</time>
      </trkpt>
      <trkpt lat="46.8779" lon="8.48207">
        <ele>1801</ele>
        <time>2021-08-11T12:49:56.143Z</time>
      </trkpt>
      <trkpt lat="46.8779" lon="8.48208">
        <ele>1801</ele>
        <time>2021-08-11T12:49:57.143Z</time>
      </trkpt>
      <trkpt lat="46.87791" lon="8.48209">
        <ele>1801</ele>
        <time>2021-08-11T12:49:58.143Z</time>
      </trkpt>
      <trkpt lat="46.87792" lon="8.4821">
        <ele>1800</ele>
        <time>2021-08-11T12:49:59.143Z</time>
      </trkpt>
      <trkpt lat="46.87793" lon="8.48211">
        <ele>1801</ele>
        <time>2021-08-11T12:50:00.143Z</time>
      </trkpt>
      <trkpt lat="46.87792" lon="8.48212">
        <ele>1801</ele>
        <time>2021-08-11T12:50:01.143Z</time>
      </trkpt>
      <trkpt lat="46.87792" lon="8.48213">
        <ele>1801</ele>
        <time>2021-08-11T12:50:02.143Z</time>
      </trkpt>
      <trkpt lat="46.87792" lon="8.48213">
        <ele>1801</ele>
        <time>2021-08-11T12:50:03.142Z</time>
      </trkpt>
      <trkpt lat="46.87793" lon="8.48214">
        <ele>1801</ele>
        <time>2021-08-11T12:50:04.143Z</time>
      </trkpt>
      <trkpt lat="46.87793" lon="8.48214">
        <ele>1801</ele>
        <time>2021-08-11T12:50:05.142Z</time>
      </trkpt>
      <trkpt lat="46.87793" lon="8.48214">
        <ele>1801</ele>
        <time>2021-08-11T12:50:06.142Z</time>
      </trkpt>
      <trkpt lat="46.87794" lon="8.48214">
        <ele>1801</ele>
        <time>2021-08-11T12:50:07.142Z</time>
      </trkpt>
      <trkpt lat="46.87795" lon="8.48214">
        <ele>1801</ele>
        <time>2021-08-11T12:50:08.143Z</time>
      </trkpt>
      <trkpt lat="46.87795" lon="8.48214">
        <ele>1801</ele>
        <time>2021-08-11T12:50:09.142Z</time>
      </trkpt>
      <trkpt lat="46.87796" lon="8.48214">
        <ele>1802</ele>
        <time>2021-08-11T12:50:10.143Z</time>
      </trkpt>
      <trkpt lat="46.87797" lon="8.48214">
        <ele>1802</ele>
        <time>2021-08-11T12:50:11.142Z</time>
      </trkpt>
      <trkpt lat="46.87798" lon="8.48215">
        <ele>1802</ele>
        <time>2021-08-11T12:50:12.143Z</time>
      </trkpt>
      <trkpt lat="46.87799" lon="8.48215">
        <ele>1802</ele>
        <time>2021-08-11T12:50:13.142Z</time>
      </trkpt>
      <trkpt lat="46.878" lon="8.48215">
        <ele>1803</ele>
        <time>2021-08-11T12:50:14.142Z</time>
      </trkpt>
      <trkpt lat="46.878" lon="8.48215">
        <ele>1803</ele>
        <time>2021-08-11T12:50:27.269Z</time>
      </trkpt>
      <trkpt lat="46.87801" lon="8.48215">
        <ele>1803</ele>
        <time>2021-08-11T12:50:28.269Z</time>
      </trkpt>
      <trkpt lat="46.87802" lon="8.48214">
        <ele>1803</ele>
        <time>2021-08-11T12:50:29.269Z</time>
      </trkpt>
      <trkpt lat="46.87803" lon="8.48214">
        <ele>1803</ele>
        <time>2021-08-11T12:50:41.392Z</time>
      </trkpt>
      <trkpt lat="46.87804" lon="8.48215">
        <ele>1804</ele>
        <time>2021-08-11T12:50:42.392Z</time>
      </trkpt>
      <trkpt lat="46.87805" lon="8.48215">
        <ele>1804</ele>
        <time>2021-08-11T12:50:59.246Z</time>
      </trkpt>
      <trkpt lat="46.87806" lon="8.48216">
        <ele>1804</ele>
        <time>2021-08-11T12:51:00.247Z</time>
      </trkpt>
      <trkpt lat="46.87807" lon="8.48216">
        <ele>1804</ele>
        <time>2021-08-11T12:51:01.247Z</time>
      </trkpt>
      <trkpt lat="46.87808" lon="8.48216">
        <ele>1804</ele>
        <time>2021-08-11T12:51:06.998Z</time>
      </trkpt>
      <trkpt lat="46.87809" lon="8.48216">
        <ele>1803</ele>
        <time>2021-08-11T12:51:07.998Z</time>
      </trkpt>
      <trkpt lat="46.87809" lon="8.48216">
        <ele>1803</ele>
        <time>2021-08-11T12:51:13.749Z</time>
      </trkpt>
      <trkpt lat="46.87809" lon="8.48217">
        <ele>1803</ele>
        <time>2021-08-11T12:51:14.749Z</time>
      </trkpt>
      <trkpt lat="46.8781" lon="8.48217">
        <ele>1803</ele>
        <time>2021-08-11T12:51:53.643Z</time>
      </trkpt>
      <trkpt lat="46.8781" lon="8.48218">
        <ele>1803</ele>
        <time>2021-08-11T12:51:54.642Z</time>
      </trkpt>
      <trkpt lat="46.87811" lon="8.48219">
        <ele>1803</ele>
        <time>2021-08-11T12:51:55.643Z</time>
      </trkpt>
      <trkpt lat="46.87811" lon="8.48219">
        <ele>1804</ele>
        <time>2021-08-11T12:51:56.643Z</time>
      </trkpt>
      <trkpt lat="46.87812" lon="8.48218">
        <ele>1804</ele>
        <time>2021-08-11T12:51:57.642Z</time>
      </trkpt>
      <trkpt lat="46.87812" lon="8.48218">
        <ele>1804</ele>
        <time>2021-08-11T12:51:58.643Z</time>
      </trkpt>
      <trkpt lat="46.87813" lon="8.48218">
        <ele>1804</ele>
        <time>2021-08-11T12:51:59.642Z</time>
      </trkpt>
      <trkpt lat="46.87813" lon="8.48218">
        <ele>1804</ele>
        <time>2021-08-11T12:52:00.642Z</time>
      </trkpt>
      <trkpt lat="46.87813" lon="8.48218">
        <ele>1804</ele>
        <time>2021-08-11T12:52:01.643Z</time>
      </trkpt>
      <trkpt lat="46.87814" lon="8.48219">
        <ele>1805</ele>
        <time>2021-08-11T12:52:02.643Z</time>
      </trkpt>
      <trkpt lat="46.87814" lon="8.4822">
        <ele>1805</ele>
        <time>2021-08-11T12:52:03.642Z</time>
      </trkpt>
      <trkpt lat="46.87814" lon="8.4822">
        <ele>1804</ele>
        <time>2021-08-11T12:52:04.642Z</time>
      </trkpt>
      <trkpt lat="46.87815" lon="8.48221">
        <ele>1804</ele>
        <time>2021-08-11T12:52:05.643Z</time>
      </trkpt>
      <trkpt lat="46.87815" lon="8.48224">
        <ele>1804</ele>
        <time>2021-08-11T12:52:06.643Z</time>
      </trkpt>
      <trkpt lat="46.87815" lon="8.48224">
        <ele>1804</ele>
        <time>2021-08-11T12:52:07.643Z</time>
      </trkpt>
      <trkpt lat="46.87816" lon="8.48225">
        <ele>1804</ele>
        <time>2021-08-11T12:52:08.642Z</time>
      </trkpt>
      <trkpt lat="46.87816" lon="8.48226">
        <ele>1804</ele>
        <time>2021-08-11T12:52:09.643Z</time>
      </trkpt>
      <trkpt lat="46.87817" lon="8.48226">
        <ele>1805</ele>
        <time>2021-08-11T12:52:10.643Z</time>
      </trkpt>
      <trkpt lat="46.87817" lon="8.48226">
        <ele>1805</ele>
        <time>2021-08-11T12:52:11.642Z</time>
      </trkpt>
      <trkpt lat="46.87818" lon="8.48226">
        <ele>1805</ele>
        <time>2021-08-11T12:52:12.643Z</time>
      </trkpt>
      <trkpt lat="46.87818" lon="8.48227">
        <ele>1805</ele>
        <time>2021-08-11T12:52:13.643Z</time>
      </trkpt>
      <trkpt lat="46.87818" lon="8.48227">
        <ele>1805</ele>
        <time>2021-08-11T12:52:14.642Z</time>
      </trkpt>
      <trkpt lat="46.87818" lon="8.48227">
        <ele>1805</ele>
        <time>2021-08-11T12:52:15.643Z</time>
      </trkpt>
      <trkpt lat="46.87819" lon="8.48228">
        <ele>1805</ele>
        <time>2021-08-11T12:52:16.643Z</time>
      </trkpt>
      <trkpt lat="46.87819" lon="8.48229">
        <ele>1805</ele>
        <time>2021-08-11T12:52:17.643Z</time>
      </trkpt>
      <trkpt lat="46.8782" lon="8.48229">
        <ele>1806</ele>
        <time>2021-08-11T12:52:18.643Z</time>
      </trkpt>
      <trkpt lat="46.87821" lon="8.4823">
        <ele>1806</ele>
        <time>2021-08-11T12:52:19.642Z</time>
      </trkpt>
      <trkpt lat="46.87821" lon="8.48231">
        <ele>1807</ele>
        <time>2021-08-11T12:52:20.643Z</time>
      </trkpt>
      <trkpt lat="46.87821" lon="8.48232">
        <ele>1807</ele>
        <time>2021-08-11T12:52:21.643Z</time>
      </trkpt>
      <trkpt lat="46.87822" lon="8.48232">
        <ele>1808</ele>
        <time>2021-08-11T12:52:22.643Z</time>
      </trkpt>
      <trkpt lat="46.87822" lon="8.48233">
        <ele>1808</ele>
        <time>2021-08-11T12:52:23.643Z</time>
      </trkpt>
      <trkpt lat="46.87822" lon="8.48233">
        <ele>1809</ele>
        <time>2021-08-11T12:52:24.643Z</time>
      </trkpt>
      <trkpt lat="46.87822" lon="8.48234">
        <ele>1809</ele>
        <time>2021-08-11T12:52:25.643Z</time>
      </trkpt>
      <trkpt lat="46.87822" lon="8.48234">
        <ele>1809</ele>
        <time>2021-08-11T12:52:26.642Z</time>
      </trkpt>
      <trkpt lat="46.87822" lon="8.48235">
        <ele>1809</ele>
        <time>2021-08-11T12:52:27.642Z</time>
      </trkpt>
      <trkpt lat="46.87823" lon="8.48236">
        <ele>1809</ele>
        <time>2021-08-11T12:52:28.643Z</time>
      </trkpt>
      <trkpt lat="46.87823" lon="8.48237">
        <ele>1809</ele>
        <time>2021-08-11T12:52:29.643Z</time>
      </trkpt>
      <trkpt lat="46.87823" lon="8.48238">
        <ele>1809</ele>
        <time>2021-08-11T12:52:30.643Z</time>
      </trkpt>
      <trkpt lat="46.87823" lon="8.48239">
        <ele>1809</ele>
        <time>2021-08-11T12:52:31.643Z</time>
      </trkpt>
      <trkpt lat="46.87824" lon="8.48239">
        <ele>1808</ele>
        <time>2021-08-11T12:52:32.643Z</time>
      </trkpt>
      <trkpt lat="46.87824" lon="8.4824">
        <ele>1808</ele>
        <time>2021-08-11T12:52:33.642Z</time>
      </trkpt>
      <trkpt lat="46.87824" lon="8.48241">
        <ele>1808</ele>
        <time>2021-08-11T12:52:34.643Z</time>
      </trkpt>
      <trkpt lat="46.87824" lon="8.48242">
        <ele>1808</ele>
        <time>2021-08-11T12:52:35.643Z</time>
      </trkpt>
      <trkpt lat="46.87825" lon="8.48242">
        <ele>1808</ele>
        <time>2021-08-11T12:52:36.643Z</time>
      </trkpt>
      <trkpt lat="46.87825" lon="8.48243">
        <ele>1808</ele>
        <time>2021-08-11T12:52:37.643Z</time>
      </trkpt>
      <trkpt lat="46.87825" lon="8.48244">
        <ele>1809</ele>
        <time>2021-08-11T12:52:38.643Z</time>
      </trkpt>
      <trkpt lat="46.87825" lon="8.48244">
        <ele>1809</ele>
        <time>2021-08-11T12:52:39.643Z</time>
      </trkpt>
      <trkpt lat="46.87825" lon="8.48245">
        <ele>1809</ele>
        <time>2021-08-11T12:52:40.642Z</time>
      </trkpt>
      <trkpt lat="46.87826" lon="8.48245">
        <ele>1809</ele>
        <time>2021-08-11T12:52:41.642Z</time>
      </trkpt>
      <trkpt lat="46.87826" lon="8.48246">
        <ele>1809</ele>
        <time>2021-08-11T12:52:42.642Z</time>
      </trkpt>
      <trkpt lat="46.87826" lon="8.48247">
        <ele>1810</ele>
        <time>2021-08-11T12:52:43.643Z</time>
      </trkpt>
      <trkpt lat="46.87826" lon="8.48247">
        <ele>1810</ele>
        <time>2021-08-11T12:52:44.643Z</time>
      </trkpt>
      <trkpt lat="46.87827" lon="8.48248">
        <ele>1810</ele>
        <time>2021-08-11T12:52:45.643Z</time>
      </trkpt>
      <trkpt lat="46.87827" lon="8.48249">
        <ele>1810</ele>
        <time>2021-08-11T12:52:46.643Z</time>
      </trkpt>
      <trkpt lat="46.87827" lon="8.4825">
        <ele>1810</ele>
        <time>2021-08-11T12:52:47.643Z</time>
      </trkpt>
      <trkpt lat="46.87827" lon="8.48251">
        <ele>1811</ele>
        <time>2021-08-11T12:52:48.643Z</time>
      </trkpt>
      <trkpt lat="46.87827" lon="8.48251">
        <ele>1810</ele>
        <time>2021-08-11T12:52:49.643Z</time>
      </trkpt>
      <trkpt lat="46.87828" lon="8.48251">
        <ele>1810</ele>
        <time>2021-08-11T12:52:50.642Z</time>
      </trkpt>
      <trkpt lat="46.87828" lon="8.48252">
        <ele>1810</ele>
        <time>2021-08-11T12:52:51.642Z</time>
      </trkpt>
      <trkpt lat="46.87829" lon="8.48253">
        <ele>1810</ele>
        <time>2021-08-11T12:52:52.642Z</time>
      </trkpt>
      <trkpt lat="46.87829" lon="8.48254">
        <ele>1810</ele>
        <time>2021-08-11T12:52:53.643Z</time>
      </trkpt>
      <trkpt lat="46.87829" lon="8.48254">
        <ele>1810</ele>
        <time>2021-08-11T12:52:54.643Z</time>
      </trkpt>
      <trkpt lat="46.8783" lon="8.48256">
        <ele>1810</ele>
        <time>2021-08-11T12:52:55.643Z</time>
      </trkpt>
      <trkpt lat="46.8783" lon="8.48257">
        <ele>1810</ele>
        <time>2021-08-11T12:52:56.643Z</time>
      </trkpt>
      <trkpt lat="46.8783" lon="8.48258">
        <ele>1810</ele>
        <time>2021-08-11T12:52:57.642Z</time>
      </trkpt>
      <trkpt lat="46.8783" lon="8.48259">
        <ele>1810</ele>
        <time>2021-08-11T12:52:58.643Z</time>
      </trkpt>
      <trkpt lat="46.8783" lon="8.4826">
        <ele>1810</ele>
        <time>2021-08-11T12:52:59.643Z</time>
      </trkpt>
      <trkpt lat="46.8783" lon="8.48261">
        <ele>1810</ele>
        <time>2021-08-11T12:53:00.643Z</time>
      </trkpt>
      <trkpt lat="46.8783" lon="8.48262">
        <ele>1810</ele>
        <time>2021-08-11T12:53:01.643Z</time>
      </trkpt>
      <trkpt lat="46.87831" lon="8.48262">
        <ele>1810</ele>
        <time>2021-08-11T12:53:02.643Z</time>
      </trkpt>
      <trkpt lat="46.87831" lon="8.48263">
        <ele>1811</ele>
        <time>2021-08-11T12:53:03.642Z</time>
      </trkpt>
      <trkpt lat="46.87831" lon="8.48264">
        <ele>1812</ele>
        <time>2021-08-11T12:53:04.643Z</time>
      </trkpt>
      <trkpt lat="46.87832" lon="8.48265">
        <ele>1812</ele>
        <time>2021-08-11T12:53:05.643Z</time>
      </trkpt>
      <trkpt lat="46.87832" lon="8.48266">
        <ele>1813</ele>
        <time>2021-08-11T12:53:06.643Z</time>
      </trkpt>
      <trkpt lat="46.87833" lon="8.48267">
        <ele>1813</ele>
        <time>2021-08-11T12:53:07.642Z</time>
      </trkpt>
      <trkpt lat="46.87833" lon="8.48268">
        <ele>1814</ele>
        <time>2021-08-11T12:53:08.643Z</time>
      </trkpt>
      <trkpt lat="46.87834" lon="8.48269">
        <ele>1814</ele>
        <time>2021-08-11T12:53:09.643Z</time>
      </trkpt>
      <trkpt lat="46.87834" lon="8.4827">
        <ele>1815</ele>
        <time>2021-08-11T12:53:10.642Z</time>
      </trkpt>
      <trkpt lat="46.87834" lon="8.4827">
        <ele>1815</ele>
        <time>2021-08-11T12:53:11.643Z</time>
      </trkpt>
      <trkpt lat="46.87835" lon="8.48271">
        <ele>1816</ele>
        <time>2021-08-11T12:53:12.642Z</time>
      </trkpt>
      <trkpt lat="46.87835" lon="8.48272">
        <ele>1816</ele>
        <time>2021-08-11T12:53:13.643Z</time>
      </trkpt>
      <trkpt lat="46.87835" lon="8.48272">
        <ele>1816</ele>
        <time>2021-08-11T12:53:14.643Z</time>
      </trkpt>
      <trkpt lat="46.87836" lon="8.48273">
        <ele>1816</ele>
        <time>2021-08-11T12:53:15.642Z</time>
      </trkpt>
      <trkpt lat="46.87836" lon="8.48274">
        <ele>1816</ele>
        <time>2021-08-11T12:53:16.643Z</time>
      </trkpt>
      <trkpt lat="46.87836" lon="8.48274">
        <ele>1817</ele>
        <time>2021-08-11T12:53:17.643Z</time>
      </trkpt>
      <trkpt lat="46.87836" lon="8.48275">
        <ele>1817</ele>
        <time>2021-08-11T12:53:18.643Z</time>
      </trkpt>
      <trkpt lat="46.87837" lon="8.48276">
        <ele>1817</ele>
        <time>2021-08-11T12:53:19.642Z</time>
      </trkpt>
      <trkpt lat="46.87837" lon="8.48276">
        <ele>1817</ele>
        <time>2021-08-11T12:53:20.643Z</time>
      </trkpt>
      <trkpt lat="46.87837" lon="8.48277">
        <ele>1817</ele>
        <time>2021-08-11T12:53:21.643Z</time>
      </trkpt>
      <trkpt lat="46.87837" lon="8.48278">
        <ele>1817</ele>
        <time>2021-08-11T12:53:22.643Z</time>
      </trkpt>
      <trkpt lat="46.87838" lon="8.48279">
        <ele>1817</ele>
        <time>2021-08-11T12:53:23.642Z</time>
      </trkpt>
      <trkpt lat="46.87838" lon="8.4828">
        <ele>1817</ele>
        <time>2021-08-11T12:53:24.643Z</time>
      </trkpt>
      <trkpt lat="46.87838" lon="8.48281">
        <ele>1817</ele>
        <time>2021-08-11T12:53:25.642Z</time>
      </trkpt>
      <trkpt lat="46.87838" lon="8.48281">
        <ele>1817</ele>
        <time>2021-08-11T12:53:26.643Z</time>
      </trkpt>
      <trkpt lat="46.87839" lon="8.48282">
        <ele>1817</ele>
        <time>2021-08-11T12:53:27.642Z</time>
      </trkpt>
      <trkpt lat="46.87839" lon="8.48282">
        <ele>1816</ele>
        <time>2021-08-11T12:53:28.643Z</time>
      </trkpt>
      <trkpt lat="46.87839" lon="8.48283">
        <ele>1816</ele>
        <time>2021-08-11T12:53:29.643Z</time>
      </trkpt>
      <trkpt lat="46.8784" lon="8.48283">
        <ele>1816</ele>
        <time>2021-08-11T12:53:30.643Z</time>
      </trkpt>
      <trkpt lat="46.8784" lon="8.48284">
        <ele>1816</ele>
        <time>2021-08-11T12:53:31.642Z</time>
      </trkpt>
      <trkpt lat="46.87841" lon="8.48285">
        <ele>1817</ele>
        <time>2021-08-11T12:53:32.643Z</time>
      </trkpt>
      <trkpt lat="46.87841" lon="8.48285">
        <ele>1817</ele>
        <time>2021-08-11T12:53:33.643Z</time>
      </trkpt>
      <trkpt lat="46.87841" lon="8.48286">
        <ele>1817</ele>
        <time>2021-08-11T12:53:34.642Z</time>
      </trkpt>
      <trkpt lat="46.87841" lon="8.48287">
        <ele>1817</ele>
        <time>2021-08-11T12:53:35.642Z</time>
      </trkpt>
      <trkpt lat="46.87842" lon="8.48288">
        <ele>1818</ele>
        <time>2021-08-11T12:53:36.643Z</time>
      </trkpt>
      <trkpt lat="46.87842" lon="8.48289">
        <ele>1818</ele>
        <time>2021-08-11T12:53:37.642Z</time>
      </trkpt>
      <trkpt lat="46.87842" lon="8.4829">
        <ele>1819</ele>
        <time>2021-08-11T12:53:38.642Z</time>
      </trkpt>
      <trkpt lat="46.87843" lon="8.4829">
        <ele>1819</ele>
        <time>2021-08-11T12:53:39.643Z</time>
      </trkpt>
      <trkpt lat="46.87843" lon="8.48292">
        <ele>1819</ele>
        <time>2021-08-11T12:53:40.643Z</time>
      </trkpt>
      <trkpt lat="46.87844" lon="8.48293">
        <ele>1819</ele>
        <time>2021-08-11T12:53:41.642Z</time>
      </trkpt>
      <trkpt lat="46.87845" lon="8.48293">
        <ele>1819</ele>
        <time>2021-08-11T12:53:42.642Z</time>
      </trkpt>
      <trkpt lat="46.87846" lon="8.48293">
        <ele>1820</ele>
        <time>2021-08-11T12:53:43.643Z</time>
      </trkpt>
      <trkpt lat="46.87846" lon="8.48293">
        <ele>1820</ele>
        <time>2021-08-11T12:53:44.643Z</time>
      </trkpt>
      <trkpt lat="46.87846" lon="8.48294">
        <ele>1820</ele>
        <time>2021-08-11T12:53:45.643Z</time>
      </trkpt>
      <trkpt lat="46.87847" lon="8.48295">
        <ele>1820</ele>
        <time>2021-08-11T12:53:46.643Z</time>
      </trkpt>
      <trkpt lat="46.87847" lon="8.48296">
        <ele>1821</ele>
        <time>2021-08-11T12:53:47.643Z</time>
      </trkpt>
      <trkpt lat="46.87847" lon="8.48298">
        <ele>1822</ele>
        <time>2021-08-11T12:53:48.643Z</time>
      </trkpt>
      <trkpt lat="46.87848" lon="8.48298">
        <ele>1822</ele>
        <time>2021-08-11T12:53:49.643Z</time>
      </trkpt>
      <trkpt lat="46.87848" lon="8.48299">
        <ele>1822</ele>
        <time>2021-08-11T12:53:50.643Z</time>
      </trkpt>
      <trkpt lat="46.87848" lon="8.48299">
        <ele>1822</ele>
        <time>2021-08-11T12:53:51.643Z</time>
      </trkpt>
      <trkpt lat="46.87848" lon="8.48299">
        <ele>1821</ele>
        <time>2021-08-11T12:53:52.643Z</time>
      </trkpt>
      <trkpt lat="46.87849" lon="8.48299">
        <ele>1821</ele>
        <time>2021-08-11T12:53:53.643Z</time>
      </trkpt>
      <trkpt lat="46.87849" lon="8.48299">
        <ele>1821</ele>
        <time>2021-08-11T12:53:54.643Z</time>
      </trkpt>
      <trkpt lat="46.8785" lon="8.48299">
        <ele>1821</ele>
        <time>2021-08-11T12:53:55.643Z</time>
      </trkpt>
      <trkpt lat="46.8785" lon="8.48299">
        <ele>1821</ele>
        <time>2021-08-11T12:53:56.643Z</time>
      </trkpt>
      <trkpt lat="46.87851" lon="8.483">
        <ele>1820</ele>
        <time>2021-08-11T12:53:57.642Z</time>
      </trkpt>
      <trkpt lat="46.87851" lon="8.483">
        <ele>1820</ele>
        <time>2021-08-11T12:53:58.643Z</time>
      </trkpt>
      <trkpt lat="46.87851" lon="8.48301">
        <ele>1820</ele>
        <time>2021-08-11T12:53:59.643Z</time>
      </trkpt>
      <trkpt lat="46.87852" lon="8.48302">
        <ele>1820</ele>
        <time>2021-08-11T12:54:00.642Z</time>
      </trkpt>
      <trkpt lat="46.87852" lon="8.48303">
        <ele>1821</ele>
        <time>2021-08-11T12:54:01.643Z</time>
      </trkpt>
      <trkpt lat="46.87852" lon="8.48304">
        <ele>1821</ele>
        <time>2021-08-11T12:54:02.643Z</time>
      </trkpt>
      <trkpt lat="46.87853" lon="8.48305">
        <ele>1822</ele>
        <time>2021-08-11T12:54:03.642Z</time>
      </trkpt>
      <trkpt lat="46.87853" lon="8.48305">
        <ele>1822</ele>
        <time>2021-08-11T12:54:04.643Z</time>
      </trkpt>
      <trkpt lat="46.87853" lon="8.48306">
        <ele>1822</ele>
        <time>2021-08-11T12:54:05.643Z</time>
      </trkpt>
      <trkpt lat="46.87853" lon="8.48307">
        <ele>1822</ele>
        <time>2021-08-11T12:54:06.642Z</time>
      </trkpt>
      <trkpt lat="46.87854" lon="8.48308">
        <ele>1822</ele>
        <time>2021-08-11T12:54:07.643Z</time>
      </trkpt>
      <trkpt lat="46.87854" lon="8.48309">
        <ele>1823</ele>
        <time>2021-08-11T12:54:08.643Z</time>
      </trkpt>
      <trkpt lat="46.87854" lon="8.4831">
        <ele>1823</ele>
        <time>2021-08-11T12:54:09.643Z</time>
      </trkpt>
      <trkpt lat="46.87854" lon="8.4831">
        <ele>1824</ele>
        <time>2021-08-11T12:54:10.643Z</time>
      </trkpt>
      <trkpt lat="46.87854" lon="8.48311">
        <ele>1824</ele>
        <time>2021-08-11T12:54:11.643Z</time>
      </trkpt>
      <trkpt lat="46.87854" lon="8.48312">
        <ele>1824</ele>
        <time>2021-08-11T12:54:12.642Z</time>
      </trkpt>
      <trkpt lat="46.87854" lon="8.48312">
        <ele>1824</ele>
        <time>2021-08-11T12:54:13.643Z</time>
      </trkpt>
      <trkpt lat="46.87855" lon="8.48313">
        <ele>1824</ele>
        <time>2021-08-11T12:54:14.643Z</time>
      </trkpt>
      <trkpt lat="46.87855" lon="8.48314">
        <ele>1824</ele>
        <time>2021-08-11T12:54:15.642Z</time>
      </trkpt>
      <trkpt lat="46.87855" lon="8.48314">
        <ele>1825</ele>
        <time>2021-08-11T12:54:16.642Z</time>
      </trkpt>
      <trkpt lat="46.87855" lon="8.48315">
        <ele>1824</ele>
        <time>2021-08-11T12:54:17.643Z</time>
      </trkpt>
      <trkpt lat="46.87855" lon="8.48316">
        <ele>1824</ele>
        <time>2021-08-11T12:54:18.642Z</time>
      </trkpt>
      <trkpt lat="46.87856" lon="8.48317">
        <ele>1824</ele>
        <time>2021-08-11T12:54:19.643Z</time>
      </trkpt>
      <trkpt lat="46.87856" lon="8.48317">
        <ele>1824</ele>
        <time>2021-08-11T12:54:20.642Z</time>
      </trkpt>
      <trkpt lat="46.87856" lon="8.48318">
        <ele>1825</ele>
        <time>2021-08-11T12:54:21.642Z</time>
      </trkpt>
      <trkpt lat="46.87856" lon="8.48318">
        <ele>1825</ele>
        <time>2021-08-11T12:54:22.643Z</time>
      </trkpt>
      <trkpt lat="46.87857" lon="8.48319">
        <ele>1825</ele>
        <time>2021-08-11T12:54:23.643Z</time>
      </trkpt>
      <trkpt lat="46.87857" lon="8.4832">
        <ele>1825</ele>
        <time>2021-08-11T12:54:24.642Z</time>
      </trkpt>
      <trkpt lat="46.87857" lon="8.48321">
        <ele>1825</ele>
        <time>2021-08-11T12:54:25.642Z</time>
      </trkpt>
      <trkpt lat="46.87858" lon="8.48321">
        <ele>1825</ele>
        <time>2021-08-11T12:54:26.643Z</time>
      </trkpt>
      <trkpt lat="46.87858" lon="8.48322">
        <ele>1825</ele>
        <time>2021-08-11T12:54:27.643Z</time>
      </trkpt>
      <trkpt lat="46.87859" lon="8.48322">
        <ele>1826</ele>
        <time>2021-08-11T12:54:28.643Z</time>
      </trkpt>
      <trkpt lat="46.87859" lon="8.48323">
        <ele>1826</ele>
        <time>2021-08-11T12:54:29.643Z</time>
      </trkpt>
      <trkpt lat="46.87859" lon="8.48323">
        <ele>1826</ele>
        <time>2021-08-11T12:54:30.643Z</time>
      </trkpt>
      <trkpt lat="46.87859" lon="8.48323">
        <ele>1826</ele>
        <time>2021-08-11T12:54:31.643Z</time>
      </trkpt>
      <trkpt lat="46.8786" lon="8.48324">
        <ele>1826</ele>
        <time>2021-08-11T12:54:32.643Z</time>
      </trkpt>
      <trkpt lat="46.8786" lon="8.48324">
        <ele>1827</ele>
        <time>2021-08-11T12:54:33.643Z</time>
      </trkpt>
      <trkpt lat="46.8786" lon="8.48324">
        <ele>1827</ele>
        <time>2021-08-11T12:54:34.643Z</time>
      </trkpt>
      <trkpt lat="46.87861" lon="8.48325">
        <ele>1827</ele>
        <time>2021-08-11T12:54:35.643Z</time>
      </trkpt>
      <trkpt lat="46.87861" lon="8.48325">
        <ele>1826</ele>
        <time>2021-08-11T12:54:36.643Z</time>
      </trkpt>
      <trkpt lat="46.87861" lon="8.48326">
        <ele>1826</ele>
        <time>2021-08-11T12:54:37.643Z</time>
      </trkpt>
      <trkpt lat="46.87861" lon="8.48327">
        <ele>1826</ele>
        <time>2021-08-11T12:54:38.643Z</time>
      </trkpt>
      <trkpt lat="46.87861" lon="8.48327">
        <ele>1826</ele>
        <time>2021-08-11T12:54:39.642Z</time>
      </trkpt>
      <trkpt lat="46.87861" lon="8.48328">
        <ele>1826</ele>
        <time>2021-08-11T12:54:40.643Z</time>
      </trkpt>
      <trkpt lat="46.87861" lon="8.48329">
        <ele>1826</ele>
        <time>2021-08-11T12:54:41.642Z</time>
      </trkpt>
      <trkpt lat="46.87862" lon="8.48329">
        <ele>1826</ele>
        <time>2021-08-11T12:54:42.643Z</time>
      </trkpt>
      <trkpt lat="46.87862" lon="8.4833">
        <ele>1826</ele>
        <time>2021-08-11T12:54:43.643Z</time>
      </trkpt>
      <trkpt lat="46.87862" lon="8.4833">
        <ele>1826</ele>
        <time>2021-08-11T12:54:44.643Z</time>
      </trkpt>
      <trkpt lat="46.87863" lon="8.4833">
        <ele>1826</ele>
        <time>2021-08-11T12:54:45.643Z</time>
      </trkpt>
      <trkpt lat="46.87863" lon="8.4833">
        <ele>1826</ele>
        <time>2021-08-11T12:54:46.643Z</time>
      </trkpt>
      <trkpt lat="46.87863" lon="8.48331">
        <ele>1827</ele>
        <time>2021-08-11T12:54:47.643Z</time>
      </trkpt>
      <trkpt lat="46.87864" lon="8.48332">
        <ele>1827</ele>
        <time>2021-08-11T12:54:48.643Z</time>
      </trkpt>
      <trkpt lat="46.87864" lon="8.48332">
        <ele>1827</ele>
        <time>2021-08-11T12:54:49.643Z</time>
      </trkpt>
      <trkpt lat="46.87865" lon="8.48333">
        <ele>1828</ele>
        <time>2021-08-11T12:54:50.643Z</time>
      </trkpt>
      <trkpt lat="46.87865" lon="8.48333">
        <ele>1828</ele>
        <time>2021-08-11T12:54:51.643Z</time>
      </trkpt>
      <trkpt lat="46.87866" lon="8.48333">
        <ele>1828</ele>
        <time>2021-08-11T12:54:52.642Z</time>
      </trkpt>
      <trkpt lat="46.87866" lon="8.48334">
        <ele>1829</ele>
        <time>2021-08-11T12:54:53.643Z</time>
      </trkpt>
      <trkpt lat="46.87867" lon="8.48334">
        <ele>1828</ele>
        <time>2021-08-11T12:54:54.643Z</time>
      </trkpt>
      <trkpt lat="46.87867" lon="8.48335">
        <ele>1828</ele>
        <time>2021-08-11T12:54:55.642Z</time>
      </trkpt>
      <trkpt lat="46.87867" lon="8.48335">
        <ele>1828</ele>
        <time>2021-08-11T12:54:56.642Z</time>
      </trkpt>
      <trkpt lat="46.87868" lon="8.48336">
        <ele>1828</ele>
        <time>2021-08-11T12:54:57.642Z</time>
      </trkpt>
      <trkpt lat="46.87868" lon="8.48336">
        <ele>1827</ele>
        <time>2021-08-11T12:54:58.643Z</time>
      </trkpt>
      <trkpt lat="46.87869" lon="8.48336">
        <ele>1827</ele>
        <time>2021-08-11T12:54:59.643Z</time>
      </trkpt>
      <trkpt lat="46.87869" lon="8.48336">
        <ele>1826</ele>
        <time>2021-08-11T12:55:00.642Z</time>
      </trkpt>
      <trkpt lat="46.87869" lon="8.48333">
        <ele>1826</ele>
        <time>2021-08-11T12:55:01.643Z</time>
      </trkpt>
      <trkpt lat="46.87869" lon="8.48333">
        <ele>1826</ele>
        <time>2021-08-11T12:55:02.643Z</time>
      </trkpt>
      <trkpt lat="46.87871" lon="8.48334">
        <ele>1828</ele>
        <time>2021-08-11T12:55:03.643Z</time>
      </trkpt>
      <trkpt lat="46.87871" lon="8.48334">
        <ele>1828</ele>
        <time>2021-08-11T12:55:04.643Z</time>
      </trkpt>
      <trkpt lat="46.87871" lon="8.48332">
        <ele>1828</ele>
        <time>2021-08-11T12:55:05.644Z</time>
      </trkpt>
      <trkpt lat="46.87871" lon="8.48331">
        <ele>1828</ele>
        <time>2021-08-11T12:55:06.644Z</time>
      </trkpt>
      <trkpt lat="46.8787" lon="8.48331">
        <ele>1827</ele>
        <time>2021-08-11T12:55:07.643Z</time>
      </trkpt>
      <trkpt lat="46.8787" lon="8.4833">
        <ele>1823</ele>
        <time>2021-08-11T12:55:08.645Z</time>
      </trkpt>
      <trkpt lat="46.8787" lon="8.4833">
        <ele>1823</ele>
        <time>2021-08-11T12:55:09.644Z</time>
      </trkpt>
      <trkpt lat="46.8787" lon="8.4833">
        <ele>1823</ele>
        <time>2021-08-11T12:55:10.645Z</time>
      </trkpt>
      <trkpt lat="46.8787" lon="8.48331">
        <ele>1823</ele>
        <time>2021-08-11T12:55:11.644Z</time>
      </trkpt>
      <trkpt lat="46.8787" lon="8.48331">
        <ele>1823</ele>
        <time>2021-08-11T12:55:12.644Z</time>
      </trkpt>
      <trkpt lat="46.87865" lon="8.48332">
        <ele>1820</ele>
        <time>2021-08-11T12:55:13.645Z</time>
      </trkpt>
      <trkpt lat="46.87865" lon="8.48332">
        <ele>1819</ele>
        <time>2021-08-11T12:55:14.645Z</time>
      </trkpt>
      <trkpt lat="46.87864" lon="8.48332">
        <ele>1819</ele>
        <time>2021-08-11T12:55:15.644Z</time>
      </trkpt>
      <trkpt lat="46.87861" lon="8.48333">
        <ele>1823</ele>
        <time>2021-08-11T12:55:16.644Z</time>
      </trkpt>
      <trkpt lat="46.87861" lon="8.48333">
        <ele>1824</ele>
        <time>2021-08-11T12:55:17.645Z</time>
      </trkpt>
      <trkpt lat="46.87862" lon="8.48333">
        <ele>1825</ele>
        <time>2021-08-11T12:55:18.645Z</time>
      </trkpt>
      <trkpt lat="46.87862" lon="8.48333">
        <ele>1825</ele>
        <time>2021-08-11T12:55:19.644Z</time>
      </trkpt>
      <trkpt lat="46.87862" lon="8.48333">
        <ele>1825</ele>
        <time>2021-08-11T12:55:20.644Z</time>
      </trkpt>
      <trkpt lat="46.87866" lon="8.48334">
        <ele>1828</ele>
        <time>2021-08-11T12:55:21.645Z</time>
      </trkpt>
      <trkpt lat="46.87867" lon="8.48333">
        <ele>1828</ele>
        <time>2021-08-11T12:55:22.644Z</time>
      </trkpt>
      <trkpt lat="46.87866" lon="8.48333">
        <ele>1828</ele>
        <time>2021-08-11T12:55:23.644Z</time>
      </trkpt>
      <trkpt lat="46.87866" lon="8.48333">
        <ele>1828</ele>
        <time>2021-08-11T12:55:24.644Z</time>
      </trkpt>
      <trkpt lat="46.87866" lon="8.48334">
        <ele>1829</ele>
        <time>2021-08-11T12:55:25.645Z</time>
      </trkpt>
      <trkpt lat="46.87866" lon="8.48335">
        <ele>1830</ele>
        <time>2021-08-11T12:55:26.646Z</time>
      </trkpt>
      <trkpt lat="46.87866" lon="8.48336">
        <ele>1830</ele>
        <time>2021-08-11T12:55:27.645Z</time>
      </trkpt>
      <trkpt lat="46.87867" lon="8.48337">
        <ele>1830</ele>
        <time>2021-08-11T12:55:28.646Z</time>
      </trkpt>
      <trkpt lat="46.87867" lon="8.48337">
        <ele>1830</ele>
        <time>2021-08-11T12:55:29.646Z</time>
      </trkpt>
      <trkpt lat="46.87867" lon="8.48337">
        <ele>1830</ele>
        <time>2021-08-11T12:55:30.645Z</time>
      </trkpt>
      <trkpt lat="46.87867" lon="8.48336">
        <ele>1831</ele>
        <time>2021-08-11T12:55:31.645Z</time>
      </trkpt>
      <trkpt lat="46.87867" lon="8.48336">
        <ele>1831</ele>
        <time>2021-08-11T12:55:32.646Z</time>
      </trkpt>
      <trkpt lat="46.87867" lon="8.48337">
        <ele>1831</ele>
        <time>2021-08-11T12:55:33.645Z</time>
      </trkpt>
      <trkpt lat="46.87867" lon="8.48338">
        <ele>1831</ele>
        <time>2021-08-11T12:55:34.646Z</time>
      </trkpt>
      <trkpt lat="46.87868" lon="8.48338">
        <ele>1832</ele>
        <time>2021-08-11T12:55:35.645Z</time>
      </trkpt>
      <trkpt lat="46.87868" lon="8.48338">
        <ele>1833</ele>
        <time>2021-08-11T12:55:36.646Z</time>
      </trkpt>
      <trkpt lat="46.87869" lon="8.48338">
        <ele>1833</ele>
        <time>2021-08-11T12:55:37.646Z</time>
      </trkpt>
      <trkpt lat="46.8787" lon="8.48338">
        <ele>1834</ele>
        <time>2021-08-11T12:55:38.646Z</time>
      </trkpt>
      <trkpt lat="46.8787" lon="8.48339">
        <ele>1834</ele>
        <time>2021-08-11T12:55:39.646Z</time>
      </trkpt>
      <trkpt lat="46.8787" lon="8.4834">
        <ele>1835</ele>
        <time>2021-08-11T12:55:40.646Z</time>
      </trkpt>
      <trkpt lat="46.87871" lon="8.4834">
        <ele>1835</ele>
        <time>2021-08-11T12:55:41.646Z</time>
      </trkpt>
      <trkpt lat="46.87872" lon="8.48341">
        <ele>1835</ele>
        <time>2021-08-11T12:55:42.646Z</time>
      </trkpt>
      <trkpt lat="46.87873" lon="8.4834">
        <ele>1835</ele>
        <time>2021-08-11T12:55:43.645Z</time>
      </trkpt>
      <trkpt lat="46.87874" lon="8.48339">
        <ele>1835</ele>
        <time>2021-08-11T12:55:44.645Z</time>
      </trkpt>
      <trkpt lat="46.87877" lon="8.48338">
        <ele>1836</ele>
        <time>2021-08-11T12:55:45.648Z</time>
      </trkpt>
      <trkpt lat="46.87878" lon="8.48338">
        <ele>1836</ele>
        <time>2021-08-11T12:55:46.648Z</time>
      </trkpt>
      <trkpt lat="46.87878" lon="8.48337">
        <ele>1837</ele>
        <time>2021-08-11T12:55:47.647Z</time>
      </trkpt>
      <trkpt lat="46.87878" lon="8.48337">
        <ele>1837</ele>
        <time>2021-08-11T12:55:48.648Z</time>
      </trkpt>
      <trkpt lat="46.87879" lon="8.48337">
        <ele>1837</ele>
        <time>2021-08-11T12:55:49.648Z</time>
      </trkpt>
      <trkpt lat="46.8788" lon="8.48338">
        <ele>1837</ele>
        <time>2021-08-11T12:55:50.649Z</time>
      </trkpt>
      <trkpt lat="46.8788" lon="8.48338">
        <ele>1837</ele>
        <time>2021-08-11T12:55:51.649Z</time>
      </trkpt>
      <trkpt lat="46.8788" lon="8.48338">
        <ele>1837</ele>
        <time>2021-08-11T12:55:52.649Z</time>
      </trkpt>
      <trkpt lat="46.87881" lon="8.48338">
        <ele>1836</ele>
        <time>2021-08-11T12:55:53.648Z</time>
      </trkpt>
      <trkpt lat="46.87882" lon="8.4834">
        <ele>1836</ele>
        <time>2021-08-11T12:55:54.648Z</time>
      </trkpt>
      <trkpt lat="46.87882" lon="8.4834">
        <ele>1836</ele>
        <time>2021-08-11T12:55:55.648Z</time>
      </trkpt>
      <trkpt lat="46.87883" lon="8.4834">
        <ele>1836</ele>
        <time>2021-08-11T12:55:56.648Z</time>
      </trkpt>
      <trkpt lat="46.87883" lon="8.4834">
        <ele>1836</ele>
        <time>2021-08-11T12:55:57.648Z</time>
      </trkpt>
      <trkpt lat="46.87884" lon="8.48339">
        <ele>1836</ele>
        <time>2021-08-11T12:55:58.648Z</time>
      </trkpt>
      <trkpt lat="46.87884" lon="8.48339">
        <ele>1836</ele>
        <time>2021-08-11T12:55:59.648Z</time>
      </trkpt>
      <trkpt lat="46.87884" lon="8.48339">
        <ele>1836</ele>
        <time>2021-08-11T12:56:00.648Z</time>
      </trkpt>
      <trkpt lat="46.87884" lon="8.48339">
        <ele>1836</ele>
        <time>2021-08-11T12:56:01.648Z</time>
      </trkpt>
      <trkpt lat="46.87884" lon="8.4834">
        <ele>1836</ele>
        <time>2021-08-11T12:56:02.649Z</time>
      </trkpt>
      <trkpt lat="46.87885" lon="8.4834">
        <ele>1835</ele>
        <time>2021-08-11T12:56:03.649Z</time>
      </trkpt>
      <trkpt lat="46.87885" lon="8.4834">
        <ele>1835</ele>
        <time>2021-08-11T12:56:04.649Z</time>
      </trkpt>
      <trkpt lat="46.87884" lon="8.48339">
        <ele>1835</ele>
        <time>2021-08-11T12:56:05.648Z</time>
      </trkpt>
      <trkpt lat="46.87884" lon="8.4834">
        <ele>1834</ele>
        <time>2021-08-11T12:56:06.649Z</time>
      </trkpt>
      <trkpt lat="46.87885" lon="8.48339">
        <ele>1834</ele>
        <time>2021-08-11T12:56:07.649Z</time>
      </trkpt>
      <trkpt lat="46.87885" lon="8.48339">
        <ele>1834</ele>
        <time>2021-08-11T12:56:08.648Z</time>
      </trkpt>
      <trkpt lat="46.87886" lon="8.48338">
        <ele>1834</ele>
        <time>2021-08-11T12:56:09.649Z</time>
      </trkpt>
      <trkpt lat="46.87886" lon="8.48338">
        <ele>1834</ele>
        <time>2021-08-11T12:56:10.648Z</time>
      </trkpt>
      <trkpt lat="46.87886" lon="8.48339">
        <ele>1834</ele>
        <time>2021-08-11T12:56:11.649Z</time>
      </trkpt>
      <trkpt lat="46.87887" lon="8.48339">
        <ele>1833</ele>
        <time>2021-08-11T12:56:12.649Z</time>
      </trkpt>
      <trkpt lat="46.87888" lon="8.48339">
        <ele>1833</ele>
        <time>2021-08-11T12:56:13.649Z</time>
      </trkpt>
      <trkpt lat="46.87889" lon="8.48339">
        <ele>1833</ele>
        <time>2021-08-11T12:56:14.649Z</time>
      </trkpt>
      <trkpt lat="46.87889" lon="8.4834">
        <ele>1833</ele>
        <time>2021-08-11T12:56:15.649Z</time>
      </trkpt>
      <trkpt lat="46.8789" lon="8.4834">
        <ele>1833</ele>
        <time>2021-08-11T12:56:16.648Z</time>
      </trkpt>
      <trkpt lat="46.8789" lon="8.4834">
        <ele>1833</ele>
        <time>2021-08-11T12:56:17.649Z</time>
      </trkpt>
      <trkpt lat="46.87891" lon="8.48341">
        <ele>1833</ele>
        <time>2021-08-11T12:56:18.648Z</time>
      </trkpt>
      <trkpt lat="46.87891" lon="8.48342">
        <ele>1833</ele>
        <time>2021-08-11T12:56:19.649Z</time>
      </trkpt>
      <trkpt lat="46.87891" lon="8.48342">
        <ele>1834</ele>
        <time>2021-08-11T12:56:20.648Z</time>
      </trkpt>
      <trkpt lat="46.87892" lon="8.48343">
        <ele>1834</ele>
        <time>2021-08-11T12:56:21.649Z</time>
      </trkpt>
      <trkpt lat="46.87892" lon="8.48343">
        <ele>1834</ele>
        <time>2021-08-11T12:56:22.649Z</time>
      </trkpt>
      <trkpt lat="46.87893" lon="8.48343">
        <ele>1835</ele>
        <time>2021-08-11T12:56:23.648Z</time>
      </trkpt>
      <trkpt lat="46.87893" lon="8.48343">
        <ele>1835</ele>
        <time>2021-08-11T12:56:24.649Z</time>
      </trkpt>
      <trkpt lat="46.87893" lon="8.48344">
        <ele>1836</ele>
        <time>2021-08-11T12:56:25.648Z</time>
      </trkpt>
      <trkpt lat="46.87894" lon="8.48343">
        <ele>1836</ele>
        <time>2021-08-11T12:56:26.649Z</time>
      </trkpt>
      <trkpt lat="46.87894" lon="8.48344">
        <ele>1836</ele>
        <time>2021-08-11T12:56:27.649Z</time>
      </trkpt>
      <trkpt lat="46.87894" lon="8.48344">
        <ele>1836</ele>
        <time>2021-08-11T12:56:28.649Z</time>
      </trkpt>
      <trkpt lat="46.87894" lon="8.48345">
        <ele>1836</ele>
        <time>2021-08-11T12:56:29.649Z</time>
      </trkpt>
      <trkpt lat="46.87895" lon="8.48345">
        <ele>1836</ele>
        <time>2021-08-11T12:56:30.649Z</time>
      </trkpt>
      <trkpt lat="46.87895" lon="8.48346">
        <ele>1836</ele>
        <time>2021-08-11T12:56:31.649Z</time>
      </trkpt>
      <trkpt lat="46.87895" lon="8.48347">
        <ele>1836</ele>
        <time>2021-08-11T12:56:32.649Z</time>
      </trkpt>
      <trkpt lat="46.87895" lon="8.48348">
        <ele>1836</ele>
        <time>2021-08-11T12:56:33.648Z</time>
      </trkpt>
      <trkpt lat="46.87896" lon="8.48349">
        <ele>1836</ele>
        <time>2021-08-11T12:56:34.649Z</time>
      </trkpt>
      <trkpt lat="46.87896" lon="8.4835">
        <ele>1836</ele>
        <time>2021-08-11T12:56:35.649Z</time>
      </trkpt>
      <trkpt lat="46.87896" lon="8.48351">
        <ele>1837</ele>
        <time>2021-08-11T12:56:36.649Z</time>
      </trkpt>
      <trkpt lat="46.87896" lon="8.48352">
        <ele>1837</ele>
        <time>2021-08-11T12:56:37.648Z</time>
      </trkpt>
      <trkpt lat="46.87896" lon="8.48352">
        <ele>1838</ele>
        <time>2021-08-11T12:56:38.648Z</time>
      </trkpt>
      <trkpt lat="46.87897" lon="8.48353">
        <ele>1838</ele>
        <time>2021-08-11T12:56:39.649Z</time>
      </trkpt>
      <trkpt lat="46.87897" lon="8.48353">
        <ele>1838</ele>
        <time>2021-08-11T12:56:40.648Z</time>
      </trkpt>
      <trkpt lat="46.87897" lon="8.48354">
        <ele>1839</ele>
        <time>2021-08-11T12:56:41.649Z</time>
      </trkpt>
      <trkpt lat="46.87897" lon="8.48355">
        <ele>1839</ele>
        <time>2021-08-11T12:56:42.649Z</time>
      </trkpt>
      <trkpt lat="46.87897" lon="8.48356">
        <ele>1839</ele>
        <time>2021-08-11T12:56:43.649Z</time>
      </trkpt>
      <trkpt lat="46.87897" lon="8.48357">
        <ele>1840</ele>
        <time>2021-08-11T12:56:44.649Z</time>
      </trkpt>
      <trkpt lat="46.87897" lon="8.48358">
        <ele>1840</ele>
        <time>2021-08-11T12:56:45.648Z</time>
      </trkpt>
      <trkpt lat="46.87898" lon="8.48358">
        <ele>1840</ele>
        <time>2021-08-11T12:56:46.649Z</time>
      </trkpt>
      <trkpt lat="46.87898" lon="8.48359">
        <ele>1840</ele>
        <time>2021-08-11T12:56:47.648Z</time>
      </trkpt>
      <trkpt lat="46.87898" lon="8.4836">
        <ele>1839</ele>
        <time>2021-08-11T12:56:48.649Z</time>
      </trkpt>
      <trkpt lat="46.87898" lon="8.4836">
        <ele>1839</ele>
        <time>2021-08-11T12:56:49.649Z</time>
      </trkpt>
      <trkpt lat="46.87898" lon="8.48361">
        <ele>1839</ele>
        <time>2021-08-11T12:56:50.649Z</time>
      </trkpt>
      <trkpt lat="46.87899" lon="8.48361">
        <ele>1839</ele>
        <time>2021-08-11T12:56:51.649Z</time>
      </trkpt>
      <trkpt lat="46.87899" lon="8.48362">
        <ele>1839</ele>
        <time>2021-08-11T12:56:52.648Z</time>
      </trkpt>
      <trkpt lat="46.87899" lon="8.48362">
        <ele>1839</ele>
        <time>2021-08-11T12:56:53.648Z</time>
      </trkpt>
      <trkpt lat="46.87899" lon="8.48363">
        <ele>1839</ele>
        <time>2021-08-11T12:56:54.649Z</time>
      </trkpt>
      <trkpt lat="46.879" lon="8.48365">
        <ele>1839</ele>
        <time>2021-08-11T12:56:55.649Z</time>
      </trkpt>
      <trkpt lat="46.87901" lon="8.48365">
        <ele>1840</ele>
        <time>2021-08-11T12:56:56.649Z</time>
      </trkpt>
      <trkpt lat="46.87901" lon="8.48366">
        <ele>1840</ele>
        <time>2021-08-11T12:56:57.648Z</time>
      </trkpt>
      <trkpt lat="46.87901" lon="8.48367">
        <ele>1841</ele>
        <time>2021-08-11T12:56:58.649Z</time>
      </trkpt>
      <trkpt lat="46.87902" lon="8.48368">
        <ele>1841</ele>
        <time>2021-08-11T12:56:59.648Z</time>
      </trkpt>
      <trkpt lat="46.87902" lon="8.4837">
        <ele>1842</ele>
        <time>2021-08-11T12:57:00.648Z</time>
      </trkpt>
      <trkpt lat="46.87902" lon="8.4837">
        <ele>1842</ele>
        <time>2021-08-11T12:57:01.649Z</time>
      </trkpt>
      <trkpt lat="46.87902" lon="8.4837">
        <ele>1842</ele>
        <time>2021-08-11T12:57:02.649Z</time>
      </trkpt>
      <trkpt lat="46.87903" lon="8.4837">
        <ele>1842</ele>
        <time>2021-08-11T12:57:03.649Z</time>
      </trkpt>
      <trkpt lat="46.87903" lon="8.48371">
        <ele>1842</ele>
        <time>2021-08-11T12:57:04.649Z</time>
      </trkpt>
      <trkpt lat="46.87903" lon="8.48372">
        <ele>1842</ele>
        <time>2021-08-11T12:57:05.648Z</time>
      </trkpt>
      <trkpt lat="46.87903" lon="8.48372">
        <ele>1842</ele>
        <time>2021-08-11T12:57:06.648Z</time>
      </trkpt>
      <trkpt lat="46.87904" lon="8.48372">
        <ele>1843</ele>
        <time>2021-08-11T12:57:07.649Z</time>
      </trkpt>
      <trkpt lat="46.87904" lon="8.48373">
        <ele>1843</ele>
        <time>2021-08-11T12:57:08.649Z</time>
      </trkpt>
      <trkpt lat="46.87904" lon="8.48373">
        <ele>1843</ele>
        <time>2021-08-11T12:57:09.649Z</time>
      </trkpt>
      <trkpt lat="46.87904" lon="8.48374">
        <ele>1844</ele>
        <time>2021-08-11T12:57:10.648Z</time>
      </trkpt>
      <trkpt lat="46.87904" lon="8.48375">
        <ele>1844</ele>
        <time>2021-08-11T12:57:11.648Z</time>
      </trkpt>
      <trkpt lat="46.87905" lon="8.48375">
        <ele>1844</ele>
        <time>2021-08-11T12:57:12.648Z</time>
      </trkpt>
      <trkpt lat="46.87905" lon="8.48375">
        <ele>1844</ele>
        <time>2021-08-11T12:57:13.649Z</time>
      </trkpt>
      <trkpt lat="46.87905" lon="8.48375">
        <ele>1843</ele>
        <time>2021-08-11T12:57:14.649Z</time>
      </trkpt>
      <trkpt lat="46.87906" lon="8.48376">
        <ele>1843</ele>
        <time>2021-08-11T12:57:15.649Z</time>
      </trkpt>
      <trkpt lat="46.87906" lon="8.48376">
        <ele>1843</ele>
        <time>2021-08-11T12:57:16.648Z</time>
      </trkpt>
      <trkpt lat="46.87907" lon="8.48376">
        <ele>1843</ele>
        <time>2021-08-11T12:57:17.649Z</time>
      </trkpt>
      <trkpt lat="46.87907" lon="8.48377">
        <ele>1843</ele>
        <time>2021-08-11T12:57:18.648Z</time>
      </trkpt>
      <trkpt lat="46.87907" lon="8.48377">
        <ele>1843</ele>
        <time>2021-08-11T12:57:19.649Z</time>
      </trkpt>
      <trkpt lat="46.87908" lon="8.48378">
        <ele>1843</ele>
        <time>2021-08-11T12:57:20.648Z</time>
      </trkpt>
      <trkpt lat="46.87908" lon="8.48378">
        <ele>1843</ele>
        <time>2021-08-11T12:57:21.648Z</time>
      </trkpt>
      <trkpt lat="46.87908" lon="8.48378">
        <ele>1844</ele>
        <time>2021-08-11T12:57:22.648Z</time>
      </trkpt>
      <trkpt lat="46.87909" lon="8.48379">
        <ele>1844</ele>
        <time>2021-08-11T12:57:23.649Z</time>
      </trkpt>
      <trkpt lat="46.87909" lon="8.48379">
        <ele>1844</ele>
        <time>2021-08-11T12:57:24.649Z</time>
      </trkpt>
      <trkpt lat="46.87909" lon="8.48379">
        <ele>1844</ele>
        <time>2021-08-11T12:57:25.649Z</time>
      </trkpt>
      <trkpt lat="46.8791" lon="8.48379">
        <ele>1844</ele>
        <time>2021-08-11T12:57:26.648Z</time>
      </trkpt>
      <trkpt lat="46.8791" lon="8.48379">
        <ele>1843</ele>
        <time>2021-08-11T12:57:27.648Z</time>
      </trkpt>
      <trkpt lat="46.8791" lon="8.4838">
        <ele>1843</ele>
        <time>2021-08-11T12:57:28.649Z</time>
      </trkpt>
      <trkpt lat="46.87911" lon="8.4838">
        <ele>1843</ele>
        <time>2021-08-11T12:57:29.649Z</time>
      </trkpt>
      <trkpt lat="46.87911" lon="8.48381">
        <ele>1844</ele>
        <time>2021-08-11T12:57:30.649Z</time>
      </trkpt>
      <trkpt lat="46.87911" lon="8.48381">
        <ele>1844</ele>
        <time>2021-08-11T12:57:31.649Z</time>
      </trkpt>
      <trkpt lat="46.87912" lon="8.48382">
        <ele>1845</ele>
        <time>2021-08-11T12:57:32.648Z</time>
      </trkpt>
      <trkpt lat="46.87912" lon="8.48383">
        <ele>1845</ele>
        <time>2021-08-11T12:57:33.648Z</time>
      </trkpt>
      <trkpt lat="46.87913" lon="8.48383">
        <ele>1845</ele>
        <time>2021-08-11T12:57:34.649Z</time>
      </trkpt>
      <trkpt lat="46.87913" lon="8.48384">
        <ele>1845</ele>
        <time>2021-08-11T12:57:35.648Z</time>
      </trkpt>
      <trkpt lat="46.87914" lon="8.48384">
        <ele>1845</ele>
        <time>2021-08-11T12:57:36.648Z</time>
      </trkpt>
      <trkpt lat="46.87914" lon="8.48384">
        <ele>1845</ele>
        <time>2021-08-11T12:57:37.649Z</time>
      </trkpt>
      <trkpt lat="46.87915" lon="8.48384">
        <ele>1845</ele>
        <time>2021-08-11T12:57:38.649Z</time>
      </trkpt>
      <trkpt lat="46.87915" lon="8.48384">
        <ele>1845</ele>
        <time>2021-08-11T12:57:39.649Z</time>
      </trkpt>
      <trkpt lat="46.87916" lon="8.48385">
        <ele>1846</ele>
        <time>2021-08-11T12:57:40.648Z</time>
      </trkpt>
      <trkpt lat="46.87916" lon="8.48385">
        <ele>1846</ele>
        <time>2021-08-11T12:57:41.649Z</time>
      </trkpt>
      <trkpt lat="46.87916" lon="8.48385">
        <ele>1846</ele>
        <time>2021-08-11T12:57:42.649Z</time>
      </trkpt>
      <trkpt lat="46.87917" lon="8.48386">
        <ele>1846</ele>
        <time>2021-08-11T12:57:43.649Z</time>
      </trkpt>
      <trkpt lat="46.87917" lon="8.48386">
        <ele>1846</ele>
        <time>2021-08-11T12:57:44.649Z</time>
      </trkpt>
      <trkpt lat="46.87918" lon="8.48387">
        <ele>1846</ele>
        <time>2021-08-11T12:57:45.649Z</time>
      </trkpt>
      <trkpt lat="46.87918" lon="8.48387">
        <ele>1846</ele>
        <time>2021-08-11T12:57:46.648Z</time>
      </trkpt>
      <trkpt lat="46.87918" lon="8.48387">
        <ele>1846</ele>
        <time>2021-08-11T12:57:47.649Z</time>
      </trkpt>
      <trkpt lat="46.87919" lon="8.48387">
        <ele>1846</ele>
        <time>2021-08-11T12:57:48.649Z</time>
      </trkpt>
      <trkpt lat="46.87919" lon="8.48388">
        <ele>1846</ele>
        <time>2021-08-11T12:57:49.649Z</time>
      </trkpt>
      <trkpt lat="46.8792" lon="8.48388">
        <ele>1846</ele>
        <time>2021-08-11T12:57:50.649Z</time>
      </trkpt>
      <trkpt lat="46.8792" lon="8.48389">
        <ele>1846</ele>
        <time>2021-08-11T12:57:51.649Z</time>
      </trkpt>
      <trkpt lat="46.87921" lon="8.48389">
        <ele>1846</ele>
        <time>2021-08-11T12:57:52.649Z</time>
      </trkpt>
      <trkpt lat="46.87921" lon="8.4839">
        <ele>1846</ele>
        <time>2021-08-11T12:57:53.649Z</time>
      </trkpt>
      <trkpt lat="46.87921" lon="8.4839">
        <ele>1846</ele>
        <time>2021-08-11T12:57:54.648Z</time>
      </trkpt>
      <trkpt lat="46.87922" lon="8.4839">
        <ele>1846</ele>
        <time>2021-08-11T12:57:55.648Z</time>
      </trkpt>
      <trkpt lat="46.87922" lon="8.48391">
        <ele>1846</ele>
        <time>2021-08-11T12:57:56.649Z</time>
      </trkpt>
      <trkpt lat="46.87923" lon="8.48391">
        <ele>1846</ele>
        <time>2021-08-11T12:57:57.648Z</time>
      </trkpt>
      <trkpt lat="46.87923" lon="8.48392">
        <ele>1847</ele>
        <time>2021-08-11T12:57:58.649Z</time>
      </trkpt>
      <trkpt lat="46.87923" lon="8.48393">
        <ele>1847</ele>
        <time>2021-08-11T12:57:59.649Z</time>
      </trkpt>
      <trkpt lat="46.87924" lon="8.48394">
        <ele>1847</ele>
        <time>2021-08-11T12:58:00.648Z</time>
      </trkpt>
      <trkpt lat="46.87924" lon="8.48395">
        <ele>1847</ele>
        <time>2021-08-11T12:58:01.649Z</time>
      </trkpt>
      <trkpt lat="46.87924" lon="8.48395">
        <ele>1846</ele>
        <time>2021-08-11T12:58:02.649Z</time>
      </trkpt>
      <trkpt lat="46.87925" lon="8.48396">
        <ele>1847</ele>
        <time>2021-08-11T12:58:03.649Z</time>
      </trkpt>
      <trkpt lat="46.87925" lon="8.48396">
        <ele>1847</ele>
        <time>2021-08-11T12:58:04.649Z</time>
      </trkpt>
      <trkpt lat="46.87926" lon="8.48397">
        <ele>1848</ele>
        <time>2021-08-11T12:58:05.649Z</time>
      </trkpt>
      <trkpt lat="46.87926" lon="8.48397">
        <ele>1848</ele>
        <time>2021-08-11T12:58:06.648Z</time>
      </trkpt>
      <trkpt lat="46.87926" lon="8.48398">
        <ele>1848</ele>
        <time>2021-08-11T12:58:07.649Z</time>
      </trkpt>
      <trkpt lat="46.87927" lon="8.48399">
        <ele>1849</ele>
        <time>2021-08-11T12:58:08.649Z</time>
      </trkpt>
      <trkpt lat="46.87927" lon="8.484">
        <ele>1849</ele>
        <time>2021-08-11T12:58:09.649Z</time>
      </trkpt>
      <trkpt lat="46.87928" lon="8.48401">
        <ele>1849</ele>
        <time>2021-08-11T12:58:10.649Z</time>
      </trkpt>
      <trkpt lat="46.87928" lon="8.48401">
        <ele>1849</ele>
        <time>2021-08-11T12:58:11.648Z</time>
      </trkpt>
      <trkpt lat="46.87929" lon="8.48402">
        <ele>1849</ele>
        <time>2021-08-11T12:58:15.631Z</time>
      </trkpt>
      <trkpt lat="46.87929" lon="8.48402">
        <ele>1849</ele>
        <time>2021-08-11T12:58:16.631Z</time>
      </trkpt>
      <trkpt lat="46.8793" lon="8.48402">
        <ele>1849</ele>
        <time>2021-08-11T12:58:17.631Z</time>
      </trkpt>
      <trkpt lat="46.87931" lon="8.48402">
        <ele>1849</ele>
        <time>2021-08-11T12:58:27.625Z</time>
      </trkpt>
      <trkpt lat="46.87931" lon="8.48402">
        <ele>1850</ele>
        <time>2021-08-11T12:58:28.624Z</time>
      </trkpt>
      <trkpt lat="46.87931" lon="8.48402">
        <ele>1850</ele>
        <time>2021-08-11T12:58:44.524Z</time>
      </trkpt>
      <trkpt lat="46.87932" lon="8.48403">
        <ele>1850</ele>
        <time>2021-08-11T12:58:59.295Z</time>
      </trkpt>
      <trkpt lat="46.87932" lon="8.48403">
        <ele>1851</ele>
        <time>2021-08-11T12:59:00.295Z</time>
      </trkpt>
      <trkpt lat="46.87933" lon="8.48403">
        <ele>1851</ele>
        <time>2021-08-11T12:59:07.138Z</time>
      </trkpt>
      <trkpt lat="46.87933" lon="8.48403">
        <ele>1851</ele>
        <time>2021-08-11T12:59:08.139Z</time>
      </trkpt>
      <trkpt lat="46.87934" lon="8.48402">
        <ele>1851</ele>
        <time>2021-08-11T12:59:09.139Z</time>
      </trkpt>
      <trkpt lat="46.87935" lon="8.48402">
        <ele>1851</ele>
        <time>2021-08-11T12:59:32.877Z</time>
      </trkpt>
      <trkpt lat="46.87936" lon="8.48402">
        <ele>1851</ele>
        <time>2021-08-11T12:59:33.876Z</time>
      </trkpt>
      <trkpt lat="46.87936" lon="8.48401">
        <ele>1852</ele>
        <time>2021-08-11T12:59:34.877Z</time>
      </trkpt>
      <trkpt lat="46.87936" lon="8.48401">
        <ele>1852</ele>
        <time>2021-08-11T12:59:35.877Z</time>
      </trkpt>
      <trkpt lat="46.87937" lon="8.484">
        <ele>1852</ele>
        <time>2021-08-11T13:00:02.002Z</time>
      </trkpt>
      <trkpt lat="46.87937" lon="8.48399">
        <ele>1852</ele>
        <time>2021-08-11T13:00:03.002Z</time>
      </trkpt>
      <trkpt lat="46.87938" lon="8.48398">
        <ele>1852</ele>
        <time>2021-08-11T13:00:04.001Z</time>
      </trkpt>
      <trkpt lat="46.87939" lon="8.48396">
        <ele>1853</ele>
        <time>2021-08-11T13:00:05.002Z</time>
      </trkpt>
      <trkpt lat="46.87938" lon="8.48395">
        <ele>1853</ele>
        <time>2021-08-11T13:00:06.002Z</time>
      </trkpt>
      <trkpt lat="46.87938" lon="8.48394">
        <ele>1853</ele>
        <time>2021-08-11T13:00:07.002Z</time>
      </trkpt>
      <trkpt lat="46.87937" lon="8.48393">
        <ele>1854</ele>
        <time>2021-08-11T13:00:08.001Z</time>
      </trkpt>
      <trkpt lat="46.87937" lon="8.48392">
        <ele>1854</ele>
        <time>2021-08-11T13:00:09.002Z</time>
      </trkpt>
      <trkpt lat="46.87937" lon="8.48391">
        <ele>1854</ele>
        <time>2021-08-11T13:00:10.002Z</time>
      </trkpt>
      <trkpt lat="46.87937" lon="8.4839">
        <ele>1853</ele>
        <time>2021-08-11T13:00:11.002Z</time>
      </trkpt>
      <trkpt lat="46.87936" lon="8.48389">
        <ele>1853</ele>
        <time>2021-08-11T13:00:12.002Z</time>
      </trkpt>
      <trkpt lat="46.87936" lon="8.48388">
        <ele>1853</ele>
        <time>2021-08-11T13:00:13.001Z</time>
      </trkpt>
      <trkpt lat="46.87936" lon="8.48387">
        <ele>1854</ele>
        <time>2021-08-11T13:00:14.002Z</time>
      </trkpt>
      <trkpt lat="46.87936" lon="8.48386">
        <ele>1854</ele>
        <time>2021-08-11T13:00:15.002Z</time>
      </trkpt>
      <trkpt lat="46.87936" lon="8.48384">
        <ele>1854</ele>
        <time>2021-08-11T13:00:16.002Z</time>
      </trkpt>
      <trkpt lat="46.87936" lon="8.48384">
        <ele>1854</ele>
        <time>2021-08-11T13:00:17.002Z</time>
      </trkpt>
      <trkpt lat="46.87935" lon="8.48383">
        <ele>1854</ele>
        <time>2021-08-11T13:00:18.001Z</time>
      </trkpt>
      <trkpt lat="46.87935" lon="8.48383">
        <ele>1855</ele>
        <time>2021-08-11T13:00:19.002Z</time>
      </trkpt>
      <trkpt lat="46.87935" lon="8.48382">
        <ele>1855</ele>
        <time>2021-08-11T13:00:20.002Z</time>
      </trkpt>
      <trkpt lat="46.87935" lon="8.48381">
        <ele>1855</ele>
        <time>2021-08-11T13:00:21.002Z</time>
      </trkpt>
      <trkpt lat="46.87935" lon="8.48379">
        <ele>1855</ele>
        <time>2021-08-11T13:00:22.002Z</time>
      </trkpt>
      <trkpt lat="46.87934" lon="8.48378">
        <ele>1855</ele>
        <time>2021-08-11T13:00:23.001Z</time>
      </trkpt>
      <trkpt lat="46.87934" lon="8.48378">
        <ele>1855</ele>
        <time>2021-08-11T13:00:24.002Z</time>
      </trkpt>
      <trkpt lat="46.87933" lon="8.48377">
        <ele>1855</ele>
        <time>2021-08-11T13:00:25.002Z</time>
      </trkpt>
      <trkpt lat="46.87933" lon="8.48376">
        <ele>1855</ele>
        <time>2021-08-11T13:00:26.002Z</time>
      </trkpt>
      <trkpt lat="46.87932" lon="8.48376">
        <ele>1854</ele>
        <time>2021-08-11T13:00:27.002Z</time>
      </trkpt>
      <trkpt lat="46.87932" lon="8.48375">
        <ele>1854</ele>
        <time>2021-08-11T13:00:28.001Z</time>
      </trkpt>
      <trkpt lat="46.87932" lon="8.48374">
        <ele>1854</ele>
        <time>2021-08-11T13:00:29.002Z</time>
      </trkpt>
      <trkpt lat="46.87931" lon="8.48373">
        <ele>1855</ele>
        <time>2021-08-11T13:00:30.002Z</time>
      </trkpt>
      <trkpt lat="46.87931" lon="8.48372">
        <ele>1855</ele>
        <time>2021-08-11T13:00:31.002Z</time>
      </trkpt>
      <trkpt lat="46.87931" lon="8.48372">
        <ele>1856</ele>
        <time>2021-08-11T13:00:32.002Z</time>
      </trkpt>
      <trkpt lat="46.87931" lon="8.48371">
        <ele>1856</ele>
        <time>2021-08-11T13:00:33.002Z</time>
      </trkpt>
      <trkpt lat="46.8793" lon="8.4837">
        <ele>1856</ele>
        <time>2021-08-11T13:00:34.001Z</time>
      </trkpt>
      <trkpt lat="46.8793" lon="8.48369">
        <ele>1856</ele>
        <time>2021-08-11T13:00:35.001Z</time>
      </trkpt>
      <trkpt lat="46.8793" lon="8.48368">
        <ele>1856</ele>
        <time>2021-08-11T13:00:36.001Z</time>
      </trkpt>
      <trkpt lat="46.8793" lon="8.48367">
        <ele>1856</ele>
        <time>2021-08-11T13:00:40.023Z</time>
      </trkpt>
      <trkpt lat="46.8793" lon="8.48366">
        <ele>1856</ele>
        <time>2021-08-11T13:00:41.023Z</time>
      </trkpt>
      <trkpt lat="46.87929" lon="8.48365">
        <ele>1856</ele>
        <time>2021-08-11T13:00:42.023Z</time>
      </trkpt>
      <trkpt lat="46.87929" lon="8.48364">
        <ele>1856</ele>
        <time>2021-08-11T13:00:43.023Z</time>
      </trkpt>
      <trkpt lat="46.87929" lon="8.48363">
        <ele>1856</ele>
        <time>2021-08-11T13:00:44.022Z</time>
      </trkpt>
      <trkpt lat="46.87929" lon="8.48362">
        <ele>1856</ele>
        <time>2021-08-11T13:00:45.023Z</time>
      </trkpt>
      <trkpt lat="46.8793" lon="8.48361">
        <ele>1856</ele>
        <time>2021-08-11T13:00:46.023Z</time>
      </trkpt>
      <trkpt lat="46.8793" lon="8.4836">
        <ele>1856</ele>
        <time>2021-08-11T13:00:47.023Z</time>
      </trkpt>
      <trkpt lat="46.8793" lon="8.48359">
        <ele>1856</ele>
        <time>2021-08-11T13:00:48.023Z</time>
      </trkpt>
      <trkpt lat="46.8793" lon="8.48358">
        <ele>1856</ele>
        <time>2021-08-11T13:00:49.022Z</time>
      </trkpt>
      <trkpt lat="46.8793" lon="8.48357">
        <ele>1856</ele>
        <time>2021-08-11T13:00:50.022Z</time>
      </trkpt>
      <trkpt lat="46.8793" lon="8.48356">
        <ele>1856</ele>
        <time>2021-08-11T13:00:51.023Z</time>
      </trkpt>
      <trkpt lat="46.8793" lon="8.48355">
        <ele>1856</ele>
        <time>2021-08-11T13:00:52.023Z</time>
      </trkpt>
      <trkpt lat="46.8793" lon="8.48354">
        <ele>1856</ele>
        <time>2021-08-11T13:00:53.023Z</time>
      </trkpt>
      <trkpt lat="46.8793" lon="8.48353">
        <ele>1857</ele>
        <time>2021-08-11T13:00:54.023Z</time>
      </trkpt>
      <trkpt lat="46.87929" lon="8.48352">
        <ele>1857</ele>
        <time>2021-08-11T13:00:55.022Z</time>
      </trkpt>
      <trkpt lat="46.87929" lon="8.48352">
        <ele>1858</ele>
        <time>2021-08-11T13:00:59.145Z</time>
      </trkpt>
      <trkpt lat="46.87928" lon="8.4835">
        <ele>1858</ele>
        <time>2021-08-11T13:01:00.145Z</time>
      </trkpt>
      <trkpt lat="46.87927" lon="8.48349">
        <ele>1859</ele>
        <time>2021-08-11T13:01:01.144Z</time>
      </trkpt>
      <trkpt lat="46.87926" lon="8.48348">
        <ele>1859</ele>
        <time>2021-08-11T13:01:11.247Z</time>
      </trkpt>
      <trkpt lat="46.87925" lon="8.48347">
        <ele>1860</ele>
        <time>2021-08-11T13:01:12.246Z</time>
      </trkpt>
      <trkpt lat="46.87925" lon="8.48346">
        <ele>1860</ele>
        <time>2021-08-11T13:01:13.247Z</time>
      </trkpt>
      <trkpt lat="46.87925" lon="8.48344">
        <ele>1860</ele>
        <time>2021-08-11T13:01:14.247Z</time>
      </trkpt>
      <trkpt lat="46.87925" lon="8.48343">
        <ele>1860</ele>
        <time>2021-08-11T13:01:15.247Z</time>
      </trkpt>
      <trkpt lat="46.87925" lon="8.48342">
        <ele>1860</ele>
        <time>2021-08-11T13:01:16.247Z</time>
      </trkpt>
      <trkpt lat="46.87924" lon="8.48342">
        <ele>1860</ele>
        <time>2021-08-11T13:01:17.247Z</time>
      </trkpt>
      <trkpt lat="46.87924" lon="8.48342">
        <ele>1860</ele>
        <time>2021-08-11T13:01:18.246Z</time>
      </trkpt>
      <trkpt lat="46.87924" lon="8.48342">
        <ele>1860</ele>
        <time>2021-08-11T13:01:19.247Z</time>
      </trkpt>
      <trkpt lat="46.87924" lon="8.48341">
        <ele>1861</ele>
        <time>2021-08-11T13:01:20.246Z</time>
      </trkpt>
      <trkpt lat="46.87924" lon="8.48342">
        <ele>1861</ele>
        <time>2021-08-11T13:01:21.247Z</time>
      </trkpt>
      <trkpt lat="46.87924" lon="8.48342">
        <ele>1861</ele>
        <time>2021-08-11T13:01:22.246Z</time>
      </trkpt>
      <trkpt lat="46.87924" lon="8.48343">
        <ele>1861</ele>
        <time>2021-08-11T13:01:23.247Z</time>
      </trkpt>
      <trkpt lat="46.87925" lon="8.48342">
        <ele>1861</ele>
        <time>2021-08-11T13:01:24.247Z</time>
      </trkpt>
      <trkpt lat="46.87924" lon="8.48342">
        <ele>1861</ele>
        <time>2021-08-11T13:01:25.248Z</time>
      </trkpt>
      <trkpt lat="46.87924" lon="8.48343">
        <ele>1860</ele>
        <time>2021-08-11T13:01:26.247Z</time>
      </trkpt>
      <trkpt lat="46.87923" lon="8.48343">
        <ele>1860</ele>
        <time>2021-08-11T13:01:27.248Z</time>
      </trkpt>
      <trkpt lat="46.87923" lon="8.48343">
        <ele>1860</ele>
        <time>2021-08-11T13:01:28.248Z</time>
      </trkpt>
      <trkpt lat="46.87923" lon="8.48342">
        <ele>1859</ele>
        <time>2021-08-11T13:01:29.248Z</time>
      </trkpt>
      <trkpt lat="46.87923" lon="8.48342">
        <ele>1858</ele>
        <time>2021-08-11T13:01:30.249Z</time>
      </trkpt>
      <trkpt lat="46.87924" lon="8.48342">
        <ele>1858</ele>
        <time>2021-08-11T13:01:31.248Z</time>
      </trkpt>
      <trkpt lat="46.87924" lon="8.48341">
        <ele>1858</ele>
        <time>2021-08-11T13:01:32.249Z</time>
      </trkpt>
      <trkpt lat="46.87924" lon="8.48341">
        <ele>1858</ele>
        <time>2021-08-11T13:01:33.249Z</time>
      </trkpt>
      <trkpt lat="46.87924" lon="8.48342">
        <ele>1857</ele>
        <time>2021-08-11T13:01:34.248Z</time>
      </trkpt>
      <trkpt lat="46.87924" lon="8.48342">
        <ele>1855</ele>
        <time>2021-08-11T13:01:35.249Z</time>
      </trkpt>
      <trkpt lat="46.87924" lon="8.48343">
        <ele>1855</ele>
        <time>2021-08-11T13:01:36.248Z</time>
      </trkpt>
      <trkpt lat="46.87924" lon="8.48343">
        <ele>1855</ele>
        <time>2021-08-11T13:01:37.248Z</time>
      </trkpt>
      <trkpt lat="46.87927" lon="8.48341">
        <ele>1861</ele>
        <time>2021-08-11T13:01:38.248Z</time>
      </trkpt>
      <trkpt lat="46.87927" lon="8.48341">
        <ele>1860</ele>
        <time>2021-08-11T13:01:39.249Z</time>
      </trkpt>
      <trkpt lat="46.87924" lon="8.4834">
        <ele>1860</ele>
        <time>2021-08-11T13:01:40.250Z</time>
      </trkpt>
      <trkpt lat="46.87924" lon="8.48339">
        <ele>1860</ele>
        <time>2021-08-11T13:01:41.250Z</time>
      </trkpt>
      <trkpt lat="46.87924" lon="8.48338">
        <ele>1860</ele>
        <time>2021-08-11T13:01:42.249Z</time>
      </trkpt>
      <trkpt lat="46.87925" lon="8.48337">
        <ele>1860</ele>
        <time>2021-08-11T13:01:43.250Z</time>
      </trkpt>
      <trkpt lat="46.87925" lon="8.48336">
        <ele>1859</ele>
        <time>2021-08-11T13:01:44.249Z</time>
      </trkpt>
      <trkpt lat="46.87925" lon="8.48335">
        <ele>1859</ele>
        <time>2021-08-11T13:01:45.250Z</time>
      </trkpt>
      <trkpt lat="46.87927" lon="8.48335">
        <ele>1859</ele>
        <time>2021-08-11T13:01:46.249Z</time>
      </trkpt>
      <trkpt lat="46.87928" lon="8.48335">
        <ele>1859</ele>
        <time>2021-08-11T13:01:47.249Z</time>
      </trkpt>
      <trkpt lat="46.87928" lon="8.48335">
        <ele>1859</ele>
        <time>2021-08-11T13:01:48.250Z</time>
      </trkpt>
      <trkpt lat="46.87929" lon="8.48334">
        <ele>1859</ele>
        <time>2021-08-11T13:01:49.250Z</time>
      </trkpt>
      <trkpt lat="46.87928" lon="8.48333">
        <ele>1859</ele>
        <time>2021-08-11T13:01:50.250Z</time>
      </trkpt>
      <trkpt lat="46.87928" lon="8.48332">
        <ele>1858</ele>
        <time>2021-08-11T13:01:51.249Z</time>
      </trkpt>
      <trkpt lat="46.87928" lon="8.48332">
        <ele>1858</ele>
        <time>2021-08-11T13:01:52.249Z</time>
      </trkpt>
      <trkpt lat="46.87928" lon="8.48331">
        <ele>1858</ele>
        <time>2021-08-11T13:01:53.250Z</time>
      </trkpt>
      <trkpt lat="46.87928" lon="8.4833">
        <ele>1858</ele>
        <time>2021-08-11T13:01:54.249Z</time>
      </trkpt>
      <trkpt lat="46.87927" lon="8.48329">
        <ele>1859</ele>
        <time>2021-08-11T13:01:55.250Z</time>
      </trkpt>
      <trkpt lat="46.87927" lon="8.48328">
        <ele>1859</ele>
        <time>2021-08-11T13:01:56.250Z</time>
      </trkpt>
      <trkpt lat="46.87925" lon="8.48328">
        <ele>1859</ele>
        <time>2021-08-11T13:01:57.249Z</time>
      </trkpt>
      <trkpt lat="46.87925" lon="8.48327">
        <ele>1860</ele>
        <time>2021-08-11T13:01:58.250Z</time>
      </trkpt>
      <trkpt lat="46.87925" lon="8.48327">
        <ele>1860</ele>
        <time>2021-08-11T13:01:59.249Z</time>
      </trkpt>
      <trkpt lat="46.87926" lon="8.48326">
        <ele>1860</ele>
        <time>2021-08-11T13:02:06.275Z</time>
      </trkpt>
      <trkpt lat="46.87925" lon="8.48325">
        <ele>1860</ele>
        <time>2021-08-11T13:02:07.276Z</time>
      </trkpt>
      <trkpt lat="46.87923" lon="8.48325">
        <ele>1860</ele>
        <time>2021-08-11T13:02:08.276Z</time>
      </trkpt>
      <trkpt lat="46.87922" lon="8.48324">
        <ele>1860</ele>
        <time>2021-08-11T13:02:09.276Z</time>
      </trkpt>
      <trkpt lat="46.87922" lon="8.48324">
        <ele>1860</ele>
        <time>2021-08-11T13:02:10.276Z</time>
      </trkpt>
      <trkpt lat="46.87921" lon="8.48323">
        <ele>1860</ele>
        <time>2021-08-11T13:02:11.276Z</time>
      </trkpt>
      <trkpt lat="46.87921" lon="8.48322">
        <ele>1860</ele>
        <time>2021-08-11T13:02:12.275Z</time>
      </trkpt>
      <trkpt lat="46.87921" lon="8.48321">
        <ele>1860</ele>
        <time>2021-08-11T13:02:13.275Z</time>
      </trkpt>
      <trkpt lat="46.87922" lon="8.4832">
        <ele>1860</ele>
        <time>2021-08-11T13:02:14.275Z</time>
      </trkpt>
      <trkpt lat="46.87923" lon="8.48319">
        <ele>1860</ele>
        <time>2021-08-11T13:02:15.275Z</time>
      </trkpt>
      <trkpt lat="46.87923" lon="8.48318">
        <ele>1860</ele>
        <time>2021-08-11T13:02:16.275Z</time>
      </trkpt>
      <trkpt lat="46.87923" lon="8.48318">
        <ele>1861</ele>
        <time>2021-08-11T13:02:17.275Z</time>
      </trkpt>
      <trkpt lat="46.87922" lon="8.48317">
        <ele>1861</ele>
        <time>2021-08-11T13:02:18.275Z</time>
      </trkpt>
      <trkpt lat="46.87922" lon="8.48316">
        <ele>1862</ele>
        <time>2021-08-11T13:02:19.275Z</time>
      </trkpt>
      <trkpt lat="46.87922" lon="8.48315">
        <ele>1862</ele>
        <time>2021-08-11T13:02:20.276Z</time>
      </trkpt>
      <trkpt lat="46.87922" lon="8.48314">
        <ele>1863</ele>
        <time>2021-08-11T13:02:21.275Z</time>
      </trkpt>
      <trkpt lat="46.87922" lon="8.48313">
        <ele>1863</ele>
        <time>2021-08-11T13:02:22.276Z</time>
      </trkpt>
      <trkpt lat="46.87921" lon="8.48312">
        <ele>1864</ele>
        <time>2021-08-11T13:02:23.276Z</time>
      </trkpt>
      <trkpt lat="46.87921" lon="8.48311">
        <ele>1864</ele>
        <time>2021-08-11T13:02:24.275Z</time>
      </trkpt>
      <trkpt lat="46.87921" lon="8.4831">
        <ele>1865</ele>
        <time>2021-08-11T13:02:25.275Z</time>
      </trkpt>
      <trkpt lat="46.8792" lon="8.48309">
        <ele>1865</ele>
        <time>2021-08-11T13:02:26.275Z</time>
      </trkpt>
      <trkpt lat="46.8792" lon="8.48307">
        <ele>1866</ele>
        <time>2021-08-11T13:02:27.276Z</time>
      </trkpt>
      <trkpt lat="46.8792" lon="8.48305">
        <ele>1866</ele>
        <time>2021-08-11T13:02:28.276Z</time>
      </trkpt>
      <trkpt lat="46.87919" lon="8.48304">
        <ele>1866</ele>
        <time>2021-08-11T13:02:29.276Z</time>
      </trkpt>
      <trkpt lat="46.87919" lon="8.48303">
        <ele>1867</ele>
        <time>2021-08-11T13:02:30.275Z</time>
      </trkpt>
      <trkpt lat="46.87919" lon="8.48303">
        <ele>1867</ele>
        <time>2021-08-11T13:02:31.276Z</time>
      </trkpt>
      <trkpt lat="46.87919" lon="8.48302">
        <ele>1868</ele>
        <time>2021-08-11T13:02:32.276Z</time>
      </trkpt>
      <trkpt lat="46.87919" lon="8.48301">
        <ele>1868</ele>
        <time>2021-08-11T13:02:33.276Z</time>
      </trkpt>
      <trkpt lat="46.87919" lon="8.483">
        <ele>1869</ele>
        <time>2021-08-11T13:02:34.276Z</time>
      </trkpt>
      <trkpt lat="46.87919" lon="8.48299">
        <ele>1869</ele>
        <time>2021-08-11T13:02:35.275Z</time>
      </trkpt>
      <trkpt lat="46.8792" lon="8.48298">
        <ele>1870</ele>
        <time>2021-08-11T13:02:36.275Z</time>
      </trkpt>
      <trkpt lat="46.8792" lon="8.48297">
        <ele>1870</ele>
        <time>2021-08-11T13:02:37.276Z</time>
      </trkpt>
      <trkpt lat="46.87919" lon="8.48296">
        <ele>1870</ele>
        <time>2021-08-11T13:02:38.276Z</time>
      </trkpt>
      <trkpt lat="46.87919" lon="8.48295">
        <ele>1870</ele>
        <time>2021-08-11T13:02:39.275Z</time>
      </trkpt>
      <trkpt lat="46.87919" lon="8.48293">
        <ele>1870</ele>
        <time>2021-08-11T13:02:40.275Z</time>
      </trkpt>
      <trkpt lat="46.8792" lon="8.48291">
        <ele>1870</ele>
        <time>2021-08-11T13:02:41.275Z</time>
      </trkpt>
      <trkpt lat="46.8792" lon="8.4829">
        <ele>1870</ele>
        <time>2021-08-11T13:02:42.276Z</time>
      </trkpt>
      <trkpt lat="46.87919" lon="8.48288">
        <ele>1870</ele>
        <time>2021-08-11T13:02:43.275Z</time>
      </trkpt>
      <trkpt lat="46.87919" lon="8.48288">
        <ele>1870</ele>
        <time>2021-08-11T13:02:44.276Z</time>
      </trkpt>
      <trkpt lat="46.87918" lon="8.48287">
        <ele>1870</ele>
        <time>2021-08-11T13:02:45.275Z</time>
      </trkpt>
      <trkpt lat="46.87916" lon="8.48286">
        <ele>1870</ele>
        <time>2021-08-11T13:02:46.275Z</time>
      </trkpt>
      <trkpt lat="46.87916" lon="8.48285">
        <ele>1870</ele>
        <time>2021-08-11T13:02:47.276Z</time>
      </trkpt>
      <trkpt lat="46.87914" lon="8.48285">
        <ele>1870</ele>
        <time>2021-08-11T13:02:48.275Z</time>
      </trkpt>
      <trkpt lat="46.87914" lon="8.48285">
        <ele>1870</ele>
        <time>2021-08-11T13:02:49.276Z</time>
      </trkpt>
      <trkpt lat="46.87914" lon="8.48284">
        <ele>1870</ele>
        <time>2021-08-11T13:02:50.275Z</time>
      </trkpt>
      <trkpt lat="46.87914" lon="8.48284">
        <ele>1870</ele>
        <time>2021-08-11T13:02:51.275Z</time>
      </trkpt>
      <trkpt lat="46.87915" lon="8.48284">
        <ele>1870</ele>
        <time>2021-08-11T13:02:52.276Z</time>
      </trkpt>
      <trkpt lat="46.87914" lon="8.48283">
        <ele>1869</ele>
        <time>2021-08-11T13:02:53.275Z</time>
      </trkpt>
      <trkpt lat="46.87913" lon="8.48282">
        <ele>1869</ele>
        <time>2021-08-11T13:02:54.276Z</time>
      </trkpt>
      <trkpt lat="46.87913" lon="8.48281">
        <ele>1868</ele>
        <time>2021-08-11T13:02:55.275Z</time>
      </trkpt>
      <trkpt lat="46.87913" lon="8.48279">
        <ele>1868</ele>
        <time>2021-08-11T13:02:56.276Z</time>
      </trkpt>
      <trkpt lat="46.87912" lon="8.48277">
        <ele>1867</ele>
        <time>2021-08-11T13:02:57.275Z</time>
      </trkpt>
      <trkpt lat="46.87912" lon="8.48276">
        <ele>1867</ele>
        <time>2021-08-11T13:02:58.276Z</time>
      </trkpt>
      <trkpt lat="46.87911" lon="8.48275">
        <ele>1866</ele>
        <time>2021-08-11T13:02:59.276Z</time>
      </trkpt>
      <trkpt lat="46.87911" lon="8.48273">
        <ele>1865</ele>
        <time>2021-08-11T13:03:00.276Z</time>
      </trkpt>
      <trkpt lat="46.87911" lon="8.48273">
        <ele>1865</ele>
        <time>2021-08-11T13:03:01.275Z</time>
      </trkpt>
      <trkpt lat="46.87911" lon="8.48272">
        <ele>1864</ele>
        <time>2021-08-11T13:03:02.275Z</time>
      </trkpt>
      <trkpt lat="46.87911" lon="8.48271">
        <ele>1864</ele>
        <time>2021-08-11T13:03:03.276Z</time>
      </trkpt>
      <trkpt lat="46.87911" lon="8.4827">
        <ele>1864</ele>
        <time>2021-08-11T13:03:04.276Z</time>
      </trkpt>
      <trkpt lat="46.87912" lon="8.48269">
        <ele>1863</ele>
        <time>2021-08-11T13:03:05.275Z</time>
      </trkpt>
      <trkpt lat="46.87912" lon="8.48267">
        <ele>1863</ele>
        <time>2021-08-11T13:03:06.275Z</time>
      </trkpt>
      <trkpt lat="46.87912" lon="8.48266">
        <ele>1864</ele>
        <time>2021-08-11T13:03:07.276Z</time>
      </trkpt>
      <trkpt lat="46.87912" lon="8.48265">
        <ele>1864</ele>
        <time>2021-08-11T13:03:08.275Z</time>
      </trkpt>
      <trkpt lat="46.87912" lon="8.48264">
        <ele>1864</ele>
        <time>2021-08-11T13:03:09.276Z</time>
      </trkpt>
      <trkpt lat="46.87912" lon="8.48263">
        <ele>1864</ele>
        <time>2021-08-11T13:03:10.275Z</time>
      </trkpt>
      <trkpt lat="46.87912" lon="8.48262">
        <ele>1864</ele>
        <time>2021-08-11T13:03:11.275Z</time>
      </trkpt>
      <trkpt lat="46.87912" lon="8.4826">
        <ele>1864</ele>
        <time>2021-08-11T13:03:12.275Z</time>
      </trkpt>
      <trkpt lat="46.87913" lon="8.48259">
        <ele>1865</ele>
        <time>2021-08-11T13:03:13.276Z</time>
      </trkpt>
      <trkpt lat="46.87913" lon="8.48258">
        <ele>1865</ele>
        <time>2021-08-11T13:03:14.275Z</time>
      </trkpt>
      <trkpt lat="46.87914" lon="8.48256">
        <ele>1866</ele>
        <time>2021-08-11T13:03:15.276Z</time>
      </trkpt>
      <trkpt lat="46.87914" lon="8.48255">
        <ele>1866</ele>
        <time>2021-08-11T13:03:16.275Z</time>
      </trkpt>
      <trkpt lat="46.87913" lon="8.48254">
        <ele>1867</ele>
        <time>2021-08-11T13:03:17.276Z</time>
      </trkpt>
      <trkpt lat="46.87913" lon="8.48253">
        <ele>1868</ele>
        <time>2021-08-11T13:03:18.275Z</time>
      </trkpt>
      <trkpt lat="46.87912" lon="8.48252">
        <ele>1869</ele>
        <time>2021-08-11T13:03:19.276Z</time>
      </trkpt>
      <trkpt lat="46.8791" lon="8.48251">
        <ele>1870</ele>
        <time>2021-08-11T13:03:20.275Z</time>
      </trkpt>
      <trkpt lat="46.87909" lon="8.4825">
        <ele>1870</ele>
        <time>2021-08-11T13:03:21.276Z</time>
      </trkpt>
      <trkpt lat="46.87908" lon="8.48249">
        <ele>1871</ele>
        <time>2021-08-11T13:03:22.275Z</time>
      </trkpt>
      <trkpt lat="46.87907" lon="8.48247">
        <ele>1871</ele>
        <time>2021-08-11T13:03:23.276Z</time>
      </trkpt>
      <trkpt lat="46.87907" lon="8.48246">
        <ele>1872</ele>
        <time>2021-08-11T13:03:24.276Z</time>
      </trkpt>
      <trkpt lat="46.87909" lon="8.48245">
        <ele>1873</ele>
        <time>2021-08-11T13:03:25.275Z</time>
      </trkpt>
      <trkpt lat="46.8791" lon="8.48244">
        <ele>1873</ele>
        <time>2021-08-11T13:03:26.276Z</time>
      </trkpt>
      <trkpt lat="46.8791" lon="8.48244">
        <ele>1874</ele>
        <time>2021-08-11T13:03:27.275Z</time>
      </trkpt>
      <trkpt lat="46.87909" lon="8.48243">
        <ele>1874</ele>
        <time>2021-08-11T13:03:28.275Z</time>
      </trkpt>
      <trkpt lat="46.8791" lon="8.48242">
        <ele>1874</ele>
        <time>2021-08-11T13:03:29.276Z</time>
      </trkpt>
      <trkpt lat="46.87909" lon="8.48241">
        <ele>1875</ele>
        <time>2021-08-11T13:03:30.276Z</time>
      </trkpt>
      <trkpt lat="46.87908" lon="8.4824">
        <ele>1875</ele>
        <time>2021-08-11T13:03:31.276Z</time>
      </trkpt>
      <trkpt lat="46.87908" lon="8.48239">
        <ele>1875</ele>
        <time>2021-08-11T13:03:32.276Z</time>
      </trkpt>
      <trkpt lat="46.87908" lon="8.48239">
        <ele>1874</ele>
        <time>2021-08-11T13:03:33.276Z</time>
      </trkpt>
      <trkpt lat="46.87908" lon="8.48238">
        <ele>1874</ele>
        <time>2021-08-11T13:03:34.276Z</time>
      </trkpt>
      <trkpt lat="46.87908" lon="8.48237">
        <ele>1874</ele>
        <time>2021-08-11T13:03:35.276Z</time>
      </trkpt>
      <trkpt lat="46.87907" lon="8.48237">
        <ele>1873</ele>
        <time>2021-08-11T13:03:36.275Z</time>
      </trkpt>
      <trkpt lat="46.87906" lon="8.48236">
        <ele>1873</ele>
        <time>2021-08-11T13:03:37.275Z</time>
      </trkpt>
      <trkpt lat="46.87906" lon="8.48236">
        <ele>1873</ele>
        <time>2021-08-11T13:03:38.275Z</time>
      </trkpt>
      <trkpt lat="46.87905" lon="8.48235">
        <ele>1873</ele>
        <time>2021-08-11T13:03:39.276Z</time>
      </trkpt>
      <trkpt lat="46.87904" lon="8.48235">
        <ele>1873</ele>
        <time>2021-08-11T13:03:40.276Z</time>
      </trkpt>
      <trkpt lat="46.87903" lon="8.48234">
        <ele>1873</ele>
        <time>2021-08-11T13:03:41.275Z</time>
      </trkpt>
      <trkpt lat="46.87902" lon="8.48233">
        <ele>1873</ele>
        <time>2021-08-11T13:03:42.276Z</time>
      </trkpt>
      <trkpt lat="46.87902" lon="8.48232">
        <ele>1873</ele>
        <time>2021-08-11T13:03:43.276Z</time>
      </trkpt>
      <trkpt lat="46.87902" lon="8.48231">
        <ele>1873</ele>
        <time>2021-08-11T13:03:44.276Z</time>
      </trkpt>
      <trkpt lat="46.87901" lon="8.4823">
        <ele>1873</ele>
        <time>2021-08-11T13:03:45.275Z</time>
      </trkpt>
      <trkpt lat="46.87902" lon="8.4823">
        <ele>1874</ele>
        <time>2021-08-11T13:03:46.275Z</time>
      </trkpt>
      <trkpt lat="46.87903" lon="8.48228">
        <ele>1874</ele>
        <time>2021-08-11T13:03:47.275Z</time>
      </trkpt>
      <trkpt lat="46.87903" lon="8.48227">
        <ele>1874</ele>
        <time>2021-08-11T13:03:48.276Z</time>
      </trkpt>
      <trkpt lat="46.87903" lon="8.48226">
        <ele>1874</ele>
        <time>2021-08-11T13:03:49.276Z</time>
      </trkpt>
      <trkpt lat="46.87903" lon="8.48225">
        <ele>1874</ele>
        <time>2021-08-11T13:03:50.275Z</time>
      </trkpt>
      <trkpt lat="46.87903" lon="8.48225">
        <ele>1874</ele>
        <time>2021-08-11T13:03:51.275Z</time>
      </trkpt>
      <trkpt lat="46.87902" lon="8.48224">
        <ele>1874</ele>
        <time>2021-08-11T13:03:52.276Z</time>
      </trkpt>
      <trkpt lat="46.87902" lon="8.48223">
        <ele>1874</ele>
        <time>2021-08-11T13:03:53.276Z</time>
      </trkpt>
      <trkpt lat="46.87901" lon="8.48222">
        <ele>1874</ele>
        <time>2021-08-11T13:03:54.276Z</time>
      </trkpt>
      <trkpt lat="46.87901" lon="8.48222">
        <ele>1874</ele>
        <time>2021-08-11T13:03:55.276Z</time>
      </trkpt>
      <trkpt lat="46.87902" lon="8.48221">
        <ele>1874</ele>
        <time>2021-08-11T13:03:56.276Z</time>
      </trkpt>
      <trkpt lat="46.87902" lon="8.4822">
        <ele>1874</ele>
        <time>2021-08-11T13:03:57.275Z</time>
      </trkpt>
      <trkpt lat="46.87901" lon="8.4822">
        <ele>1874</ele>
        <time>2021-08-11T13:03:58.276Z</time>
      </trkpt>
      <trkpt lat="46.87901" lon="8.48219">
        <ele>1874</ele>
        <time>2021-08-11T13:03:59.276Z</time>
      </trkpt>
      <trkpt lat="46.87902" lon="8.48218">
        <ele>1875</ele>
        <time>2021-08-11T13:04:00.276Z</time>
      </trkpt>
      <trkpt lat="46.87901" lon="8.48217">
        <ele>1875</ele>
        <time>2021-08-11T13:04:01.275Z</time>
      </trkpt>
      <trkpt lat="46.87901" lon="8.48216">
        <ele>1875</ele>
        <time>2021-08-11T13:04:02.275Z</time>
      </trkpt>
      <trkpt lat="46.87901" lon="8.48215">
        <ele>1874</ele>
        <time>2021-08-11T13:04:03.275Z</time>
      </trkpt>
      <trkpt lat="46.87901" lon="8.48215">
        <ele>1874</ele>
        <time>2021-08-11T13:04:04.276Z</time>
      </trkpt>
      <trkpt lat="46.87901" lon="8.48214">
        <ele>1874</ele>
        <time>2021-08-11T13:04:05.276Z</time>
      </trkpt>
      <trkpt lat="46.87901" lon="8.48213">
        <ele>1874</ele>
        <time>2021-08-11T13:04:06.275Z</time>
      </trkpt>
      <trkpt lat="46.879" lon="8.48212">
        <ele>1875</ele>
        <time>2021-08-11T13:04:07.275Z</time>
      </trkpt>
      <trkpt lat="46.879" lon="8.48211">
        <ele>1875</ele>
        <time>2021-08-11T13:04:08.275Z</time>
      </trkpt>
      <trkpt lat="46.87899" lon="8.48209">
        <ele>1875</ele>
        <time>2021-08-11T13:04:09.276Z</time>
      </trkpt>
      <trkpt lat="46.87899" lon="8.48208">
        <ele>1875</ele>
        <time>2021-08-11T13:04:10.275Z</time>
      </trkpt>
      <trkpt lat="46.87898" lon="8.48207">
        <ele>1875</ele>
        <time>2021-08-11T13:04:11.276Z</time>
      </trkpt>
      <trkpt lat="46.87898" lon="8.48206">
        <ele>1876</ele>
        <time>2021-08-11T13:04:12.276Z</time>
      </trkpt>
      <trkpt lat="46.87898" lon="8.48205">
        <ele>1876</ele>
        <time>2021-08-11T13:04:13.275Z</time>
      </trkpt>
      <trkpt lat="46.87897" lon="8.48204">
        <ele>1877</ele>
        <time>2021-08-11T13:04:14.276Z</time>
      </trkpt>
      <trkpt lat="46.87897" lon="8.48203">
        <ele>1877</ele>
        <time>2021-08-11T13:04:15.275Z</time>
      </trkpt>
      <trkpt lat="46.87898" lon="8.48202">
        <ele>1878</ele>
        <time>2021-08-11T13:04:16.276Z</time>
      </trkpt>
      <trkpt lat="46.87897" lon="8.48201">
        <ele>1878</ele>
        <time>2021-08-11T13:04:17.276Z</time>
      </trkpt>
      <trkpt lat="46.87898" lon="8.482">
        <ele>1878</ele>
        <time>2021-08-11T13:04:18.276Z</time>
      </trkpt>
      <trkpt lat="46.87898" lon="8.48199">
        <ele>1878</ele>
        <time>2021-08-11T13:04:19.276Z</time>
      </trkpt>
      <trkpt lat="46.87897" lon="8.48198">
        <ele>1878</ele>
        <time>2021-08-11T13:04:20.276Z</time>
      </trkpt>
      <trkpt lat="46.87897" lon="8.48197">
        <ele>1878</ele>
        <time>2021-08-11T13:04:21.276Z</time>
      </trkpt>
      <trkpt lat="46.87896" lon="8.48197">
        <ele>1878</ele>
        <time>2021-08-11T13:04:22.275Z</time>
      </trkpt>
      <trkpt lat="46.87896" lon="8.48196">
        <ele>1878</ele>
        <time>2021-08-11T13:04:23.275Z</time>
      </trkpt>
      <trkpt lat="46.87896" lon="8.48196">
        <ele>1878</ele>
        <time>2021-08-11T13:04:24.276Z</time>
      </trkpt>
      <trkpt lat="46.87896" lon="8.48195">
        <ele>1878</ele>
        <time>2021-08-11T13:04:25.276Z</time>
      </trkpt>
      <trkpt lat="46.87896" lon="8.48194">
        <ele>1878</ele>
        <time>2021-08-11T13:04:26.276Z</time>
      </trkpt>
      <trkpt lat="46.87896" lon="8.48194">
        <ele>1878</ele>
        <time>2021-08-11T13:04:27.276Z</time>
      </trkpt>
      <trkpt lat="46.87896" lon="8.48193">
        <ele>1878</ele>
        <time>2021-08-11T13:04:28.275Z</time>
      </trkpt>
      <trkpt lat="46.87896" lon="8.48193">
        <ele>1878</ele>
        <time>2021-08-11T13:04:29.276Z</time>
      </trkpt>
      <trkpt lat="46.87896" lon="8.48193">
        <ele>1879</ele>
        <time>2021-08-11T13:04:30.276Z</time>
      </trkpt>
      <trkpt lat="46.87896" lon="8.48193">
        <ele>1879</ele>
        <time>2021-08-11T13:04:31.276Z</time>
      </trkpt>
      <trkpt lat="46.87896" lon="8.48192">
        <ele>1879</ele>
        <time>2021-08-11T13:04:32.276Z</time>
      </trkpt>
      <trkpt lat="46.87897" lon="8.48192">
        <ele>1879</ele>
        <time>2021-08-11T13:04:33.275Z</time>
      </trkpt>
      <trkpt lat="46.87897" lon="8.48191">
        <ele>1879</ele>
        <time>2021-08-11T13:04:34.275Z</time>
      </trkpt>
      <trkpt lat="46.87897" lon="8.4819">
        <ele>1879</ele>
        <time>2021-08-11T13:04:35.276Z</time>
      </trkpt>
      <trkpt lat="46.87897" lon="8.48189">
        <ele>1880</ele>
        <time>2021-08-11T13:04:36.276Z</time>
      </trkpt>
      <trkpt lat="46.87898" lon="8.48188">
        <ele>1880</ele>
        <time>2021-08-11T13:04:37.276Z</time>
      </trkpt>
      <trkpt lat="46.87898" lon="8.48187">
        <ele>1880</ele>
        <time>2021-08-11T13:04:38.276Z</time>
      </trkpt>
      <trkpt lat="46.87898" lon="8.48186">
        <ele>1880</ele>
        <time>2021-08-11T13:04:39.275Z</time>
      </trkpt>
      <trkpt lat="46.87897" lon="8.48185">
        <ele>1879</ele>
        <time>2021-08-11T13:04:40.276Z</time>
      </trkpt>
      <trkpt lat="46.87897" lon="8.48184">
        <ele>1878</ele>
        <time>2021-08-11T13:04:41.276Z</time>
      </trkpt>
      <trkpt lat="46.87897" lon="8.48183">
        <ele>1877</ele>
        <time>2021-08-11T13:04:42.276Z</time>
      </trkpt>
      <trkpt lat="46.87898" lon="8.48182">
        <ele>1877</ele>
        <time>2021-08-11T13:04:43.275Z</time>
      </trkpt>
      <trkpt lat="46.87898" lon="8.48181">
        <ele>1876</ele>
        <time>2021-08-11T13:04:44.276Z</time>
      </trkpt>
      <trkpt lat="46.87898" lon="8.4818">
        <ele>1876</ele>
        <time>2021-08-11T13:04:45.276Z</time>
      </trkpt>
      <trkpt lat="46.87897" lon="8.4818">
        <ele>1875</ele>
        <time>2021-08-11T13:04:46.275Z</time>
      </trkpt>
      <trkpt lat="46.87897" lon="8.4818">
        <ele>1875</ele>
        <time>2021-08-11T13:04:47.275Z</time>
      </trkpt>
      <trkpt lat="46.87896" lon="8.48179">
        <ele>1875</ele>
        <time>2021-08-11T13:04:48.276Z</time>
      </trkpt>
      <trkpt lat="46.87896" lon="8.48178">
        <ele>1875</ele>
        <time>2021-08-11T13:04:49.275Z</time>
      </trkpt>
      <trkpt lat="46.87896" lon="8.48177">
        <ele>1875</ele>
        <time>2021-08-11T13:04:50.276Z</time>
      </trkpt>
      <trkpt lat="46.87895" lon="8.48176">
        <ele>1875</ele>
        <time>2021-08-11T13:04:51.276Z</time>
      </trkpt>
      <trkpt lat="46.87894" lon="8.48175">
        <ele>1875</ele>
        <time>2021-08-11T13:04:52.276Z</time>
      </trkpt>
      <trkpt lat="46.87893" lon="8.48174">
        <ele>1876</ele>
        <time>2021-08-11T13:04:53.276Z</time>
      </trkpt>
      <trkpt lat="46.87893" lon="8.48173">
        <ele>1876</ele>
        <time>2021-08-11T13:04:54.275Z</time>
      </trkpt>
      <trkpt lat="46.87893" lon="8.48172">
        <ele>1876</ele>
        <time>2021-08-11T13:04:55.275Z</time>
      </trkpt>
      <trkpt lat="46.87893" lon="8.48171">
        <ele>1876</ele>
        <time>2021-08-11T13:04:56.276Z</time>
      </trkpt>
      <trkpt lat="46.87893" lon="8.4817">
        <ele>1876</ele>
        <time>2021-08-11T13:04:57.276Z</time>
      </trkpt>
      <trkpt lat="46.87892" lon="8.48169">
        <ele>1876</ele>
        <time>2021-08-11T13:04:58.276Z</time>
      </trkpt>
      <trkpt lat="46.87892" lon="8.48168">
        <ele>1876</ele>
        <time>2021-08-11T13:04:59.275Z</time>
      </trkpt>
      <trkpt lat="46.87893" lon="8.48167">
        <ele>1876</ele>
        <time>2021-08-11T13:05:00.275Z</time>
      </trkpt>
      <trkpt lat="46.87893" lon="8.48166">
        <ele>1876</ele>
        <time>2021-08-11T13:05:01.276Z</time>
      </trkpt>
      <trkpt lat="46.87892" lon="8.48165">
        <ele>1876</ele>
        <time>2021-08-11T13:05:02.275Z</time>
      </trkpt>
      <trkpt lat="46.87892" lon="8.48164">
        <ele>1875</ele>
        <time>2021-08-11T13:05:03.276Z</time>
      </trkpt>
      <trkpt lat="46.87891" lon="8.48163">
        <ele>1875</ele>
        <time>2021-08-11T13:05:04.276Z</time>
      </trkpt>
      <trkpt lat="46.87891" lon="8.48163">
        <ele>1875</ele>
        <time>2021-08-11T13:05:05.276Z</time>
      </trkpt>
      <trkpt lat="46.87891" lon="8.48162">
        <ele>1875</ele>
        <time>2021-08-11T13:05:06.276Z</time>
      </trkpt>
      <trkpt lat="46.87891" lon="8.48161">
        <ele>1876</ele>
        <time>2021-08-11T13:05:07.275Z</time>
      </trkpt>
      <trkpt lat="46.87891" lon="8.4816">
        <ele>1876</ele>
        <time>2021-08-11T13:05:08.275Z</time>
      </trkpt>
      <trkpt lat="46.87891" lon="8.48159">
        <ele>1877</ele>
        <time>2021-08-11T13:05:09.276Z</time>
      </trkpt>
      <trkpt lat="46.87891" lon="8.48158">
        <ele>1877</ele>
        <time>2021-08-11T13:05:10.276Z</time>
      </trkpt>
      <trkpt lat="46.87891" lon="8.48157">
        <ele>1877</ele>
        <time>2021-08-11T13:05:11.276Z</time>
      </trkpt>
      <trkpt lat="46.87891" lon="8.48156">
        <ele>1877</ele>
        <time>2021-08-11T13:05:12.276Z</time>
      </trkpt>
      <trkpt lat="46.87891" lon="8.48155">
        <ele>1878</ele>
        <time>2021-08-11T13:05:13.275Z</time>
      </trkpt>
      <trkpt lat="46.87892" lon="8.48153">
        <ele>1878</ele>
        <time>2021-08-11T13:05:14.276Z</time>
      </trkpt>
      <trkpt lat="46.87892" lon="8.48153">
        <ele>1878</ele>
        <time>2021-08-11T13:05:15.275Z</time>
      </trkpt>
      <trkpt lat="46.87892" lon="8.48152">
        <ele>1879</ele>
        <time>2021-08-11T13:05:16.275Z</time>
      </trkpt>
      <trkpt lat="46.87892" lon="8.48151">
        <ele>1879</ele>
        <time>2021-08-11T13:05:17.276Z</time>
      </trkpt>
      <trkpt lat="46.87892" lon="8.48149">
        <ele>1879</ele>
        <time>2021-08-11T13:05:18.276Z</time>
      </trkpt>
      <trkpt lat="46.87892" lon="8.48148">
        <ele>1879</ele>
        <time>2021-08-11T13:05:19.276Z</time>
      </trkpt>
      <trkpt lat="46.87892" lon="8.48147">
        <ele>1879</ele>
        <time>2021-08-11T13:05:20.276Z</time>
      </trkpt>
      <trkpt lat="46.87892" lon="8.48146">
        <ele>1880</ele>
        <time>2021-08-11T13:05:21.275Z</time>
      </trkpt>
      <trkpt lat="46.87892" lon="8.48145">
        <ele>1881</ele>
        <time>2021-08-11T13:05:22.276Z</time>
      </trkpt>
      <trkpt lat="46.87892" lon="8.48145">
        <ele>1881</ele>
        <time>2021-08-11T13:05:23.276Z</time>
      </trkpt>
      <trkpt lat="46.87892" lon="8.48143">
        <ele>1881</ele>
        <time>2021-08-11T13:05:24.275Z</time>
      </trkpt>
      <trkpt lat="46.87892" lon="8.48142">
        <ele>1882</ele>
        <time>2021-08-11T13:05:25.276Z</time>
      </trkpt>
      <trkpt lat="46.87892" lon="8.48141">
        <ele>1882</ele>
        <time>2021-08-11T13:05:26.276Z</time>
      </trkpt>
      <trkpt lat="46.87892" lon="8.4814">
        <ele>1882</ele>
        <time>2021-08-11T13:05:27.276Z</time>
      </trkpt>
      <trkpt lat="46.87892" lon="8.48139">
        <ele>1882</ele>
        <time>2021-08-11T13:05:28.276Z</time>
      </trkpt>
      <trkpt lat="46.87892" lon="8.48138">
        <ele>1882</ele>
        <time>2021-08-11T13:05:29.276Z</time>
      </trkpt>
      <trkpt lat="46.87892" lon="8.48137">
        <ele>1882</ele>
        <time>2021-08-11T13:05:30.275Z</time>
      </trkpt>
      <trkpt lat="46.87892" lon="8.48137">
        <ele>1882</ele>
        <time>2021-08-11T13:05:31.276Z</time>
      </trkpt>
      <trkpt lat="46.87891" lon="8.48135">
        <ele>1882</ele>
        <time>2021-08-11T13:05:32.276Z</time>
      </trkpt>
      <trkpt lat="46.87891" lon="8.48134">
        <ele>1882</ele>
        <time>2021-08-11T13:05:33.276Z</time>
      </trkpt>
      <trkpt lat="46.87891" lon="8.48133">
        <ele>1881</ele>
        <time>2021-08-11T13:05:34.275Z</time>
      </trkpt>
      <trkpt lat="46.87892" lon="8.48132">
        <ele>1881</ele>
        <time>2021-08-11T13:05:35.275Z</time>
      </trkpt>
      <trkpt lat="46.87892" lon="8.4813">
        <ele>1881</ele>
        <time>2021-08-11T13:05:36.276Z</time>
      </trkpt>
      <trkpt lat="46.87893" lon="8.48129">
        <ele>1881</ele>
        <time>2021-08-11T13:05:37.275Z</time>
      </trkpt>
      <trkpt lat="46.87894" lon="8.48128">
        <ele>1881</ele>
        <time>2021-08-11T13:05:38.275Z</time>
      </trkpt>
      <trkpt lat="46.87894" lon="8.48127">
        <ele>1881</ele>
        <time>2021-08-11T13:05:39.276Z</time>
      </trkpt>
      <trkpt lat="46.87895" lon="8.48126">
        <ele>1881</ele>
        <time>2021-08-11T13:05:40.275Z</time>
      </trkpt>
      <trkpt lat="46.87895" lon="8.48124">
        <ele>1882</ele>
        <time>2021-08-11T13:05:41.275Z</time>
      </trkpt>
      <trkpt lat="46.87896" lon="8.48123">
        <ele>1882</ele>
        <time>2021-08-11T13:05:42.276Z</time>
      </trkpt>
      <trkpt lat="46.87896" lon="8.48122">
        <ele>1882</ele>
        <time>2021-08-11T13:05:43.275Z</time>
      </trkpt>
      <trkpt lat="46.87896" lon="8.48121">
        <ele>1883</ele>
        <time>2021-08-11T13:05:44.275Z</time>
      </trkpt>
      <trkpt lat="46.87896" lon="8.4812">
        <ele>1883</ele>
        <time>2021-08-11T13:05:45.275Z</time>
      </trkpt>
      <trkpt lat="46.87896" lon="8.4812">
        <ele>1884</ele>
        <time>2021-08-11T13:05:46.276Z</time>
      </trkpt>
      <trkpt lat="46.87896" lon="8.48119">
        <ele>1884</ele>
        <time>2021-08-11T13:05:47.276Z</time>
      </trkpt>
      <trkpt lat="46.87895" lon="8.48118">
        <ele>1884</ele>
        <time>2021-08-11T13:05:48.276Z</time>
      </trkpt>
      <trkpt lat="46.87895" lon="8.48118">
        <ele>1884</ele>
        <time>2021-08-11T13:05:49.275Z</time>
      </trkpt>
      <trkpt lat="46.87895" lon="8.48117">
        <ele>1884</ele>
        <time>2021-08-11T13:05:50.276Z</time>
      </trkpt>
      <trkpt lat="46.87894" lon="8.48117">
        <ele>1884</ele>
        <time>2021-08-11T13:05:51.276Z</time>
      </trkpt>
      <trkpt lat="46.87895" lon="8.48115">
        <ele>1884</ele>
        <time>2021-08-11T13:05:52.276Z</time>
      </trkpt>
      <trkpt lat="46.87895" lon="8.48114">
        <ele>1884</ele>
        <time>2021-08-11T13:05:53.276Z</time>
      </trkpt>
      <trkpt lat="46.87894" lon="8.48113">
        <ele>1884</ele>
        <time>2021-08-11T13:05:54.276Z</time>
      </trkpt>
      <trkpt lat="46.87895" lon="8.48112">
        <ele>1884</ele>
        <time>2021-08-11T13:05:55.276Z</time>
      </trkpt>
      <trkpt lat="46.87895" lon="8.48111">
        <ele>1885</ele>
        <time>2021-08-11T13:05:56.276Z</time>
      </trkpt>
      <trkpt lat="46.87895" lon="8.4811">
        <ele>1885</ele>
        <time>2021-08-11T13:05:57.276Z</time>
      </trkpt>
      <trkpt lat="46.87895" lon="8.48108">
        <ele>1885</ele>
        <time>2021-08-11T13:05:58.276Z</time>
      </trkpt>
      <trkpt lat="46.87895" lon="8.48108">
        <ele>1885</ele>
        <time>2021-08-11T13:05:59.276Z</time>
      </trkpt>
      <trkpt lat="46.87895" lon="8.48107">
        <ele>1885</ele>
        <time>2021-08-11T13:06:00.276Z</time>
      </trkpt>
      <trkpt lat="46.87895" lon="8.48106">
        <ele>1885</ele>
        <time>2021-08-11T13:06:01.275Z</time>
      </trkpt>
      <trkpt lat="46.87894" lon="8.48105">
        <ele>1885</ele>
        <time>2021-08-11T13:06:02.275Z</time>
      </trkpt>
      <trkpt lat="46.87893" lon="8.48105">
        <ele>1886</ele>
        <time>2021-08-11T13:06:03.275Z</time>
      </trkpt>
      <trkpt lat="46.87893" lon="8.48104">
        <ele>1886</ele>
        <time>2021-08-11T13:06:04.275Z</time>
      </trkpt>
      <trkpt lat="46.87893" lon="8.48104">
        <ele>1886</ele>
        <time>2021-08-11T13:06:05.276Z</time>
      </trkpt>
      <trkpt lat="46.87894" lon="8.48103">
        <ele>1886</ele>
        <time>2021-08-11T13:06:06.276Z</time>
      </trkpt>
      <trkpt lat="46.87894" lon="8.48102">
        <ele>1886</ele>
        <time>2021-08-11T13:06:07.276Z</time>
      </trkpt>
      <trkpt lat="46.87895" lon="8.48101">
        <ele>1886</ele>
        <time>2021-08-11T13:06:08.275Z</time>
      </trkpt>
      <trkpt lat="46.87895" lon="8.48101">
        <ele>1886</ele>
        <time>2021-08-11T13:06:09.276Z</time>
      </trkpt>
      <trkpt lat="46.87895" lon="8.48101">
        <ele>1886</ele>
        <time>2021-08-11T13:06:10.275Z</time>
      </trkpt>
      <trkpt lat="46.87895" lon="8.481">
        <ele>1885</ele>
        <time>2021-08-11T13:06:11.276Z</time>
      </trkpt>
      <trkpt lat="46.87896" lon="8.481">
        <ele>1885</ele>
        <time>2021-08-11T13:06:12.275Z</time>
      </trkpt>
      <trkpt lat="46.87896" lon="8.481">
        <ele>1885</ele>
        <time>2021-08-11T13:06:13.276Z</time>
      </trkpt>
      <trkpt lat="46.87896" lon="8.481">
        <ele>1885</ele>
        <time>2021-08-11T13:06:14.275Z</time>
      </trkpt>
      <trkpt lat="46.87896" lon="8.48101">
        <ele>1884</ele>
        <time>2021-08-11T13:06:15.277Z</time>
      </trkpt>
      <trkpt lat="46.87895" lon="8.48101">
        <ele>1885</ele>
        <time>2021-08-11T13:06:16.277Z</time>
      </trkpt>
      <trkpt lat="46.87895" lon="8.48101">
        <ele>1885</ele>
        <time>2021-08-11T13:06:17.276Z</time>
      </trkpt>
      <trkpt lat="46.87894" lon="8.48101">
        <ele>1886</ele>
        <time>2021-08-11T13:06:18.279Z</time>
      </trkpt>
      <trkpt lat="46.87894" lon="8.481">
        <ele>1887</ele>
        <time>2021-08-11T13:06:19.278Z</time>
      </trkpt>
      <trkpt lat="46.87894" lon="8.481">
        <ele>1887</ele>
        <time>2021-08-11T13:06:20.278Z</time>
      </trkpt>
      <trkpt lat="46.87894" lon="8.481">
        <ele>1887</ele>
        <time>2021-08-11T13:06:21.278Z</time>
      </trkpt>
      <trkpt lat="46.87893" lon="8.481">
        <ele>1888</ele>
        <time>2021-08-11T13:06:22.278Z</time>
      </trkpt>
      <trkpt lat="46.8789" lon="8.48099">
        <ele>1887</ele>
        <time>2021-08-11T13:06:23.279Z</time>
      </trkpt>
      <trkpt lat="46.87891" lon="8.48103">
        <ele>1891</ele>
        <time>2021-08-11T13:06:24.279Z</time>
      </trkpt>
      <trkpt lat="46.87891" lon="8.48103">
        <ele>1891</ele>
        <time>2021-08-11T13:06:25.279Z</time>
      </trkpt>
      <trkpt lat="46.87892" lon="8.48104">
        <ele>1891</ele>
        <time>2021-08-11T13:06:26.279Z</time>
      </trkpt>
      <trkpt lat="46.87892" lon="8.48104">
        <ele>1891</ele>
        <time>2021-08-11T13:06:27.279Z</time>
      </trkpt>
      <trkpt lat="46.87891" lon="8.48104">
        <ele>1891</ele>
        <time>2021-08-11T13:06:28.278Z</time>
      </trkpt>
      <trkpt lat="46.8789" lon="8.48105">
        <ele>1891</ele>
        <time>2021-08-11T13:06:29.279Z</time>
      </trkpt>
      <trkpt lat="46.87889" lon="8.48106">
        <ele>1890</ele>
        <time>2021-08-11T13:06:30.278Z</time>
      </trkpt>
      <trkpt lat="46.87889" lon="8.48106">
        <ele>1890</ele>
        <time>2021-08-11T13:06:31.278Z</time>
      </trkpt>
      <trkpt lat="46.87889" lon="8.48105">
        <ele>1890</ele>
        <time>2021-08-11T13:06:32.278Z</time>
      </trkpt>
      <trkpt lat="46.87889" lon="8.48102">
        <ele>1893</ele>
        <time>2021-08-11T13:06:33.279Z</time>
      </trkpt>
      <trkpt lat="46.8789" lon="8.48101">
        <ele>1893</ele>
        <time>2021-08-11T13:06:34.280Z</time>
      </trkpt>
      <trkpt lat="46.8789" lon="8.48099">
        <ele>1893</ele>
        <time>2021-08-11T13:06:35.280Z</time>
      </trkpt>
      <trkpt lat="46.87889" lon="8.48098">
        <ele>1893</ele>
        <time>2021-08-11T13:06:36.279Z</time>
      </trkpt>
      <trkpt lat="46.87889" lon="8.48097">
        <ele>1893</ele>
        <time>2021-08-11T13:06:37.280Z</time>
      </trkpt>
      <trkpt lat="46.87888" lon="8.48097">
        <ele>1893</ele>
        <time>2021-08-11T13:06:38.280Z</time>
      </trkpt>
      <trkpt lat="46.87888" lon="8.48097">
        <ele>1893</ele>
        <time>2021-08-11T13:06:39.280Z</time>
      </trkpt>
      <trkpt lat="46.87887" lon="8.48097">
        <ele>1893</ele>
        <time>2021-08-11T13:06:40.279Z</time>
      </trkpt>
      <trkpt lat="46.87887" lon="8.48096">
        <ele>1893</ele>
        <time>2021-08-11T13:06:41.279Z</time>
      </trkpt>
      <trkpt lat="46.87887" lon="8.48096">
        <ele>1894</ele>
        <time>2021-08-11T13:06:42.280Z</time>
      </trkpt>
      <trkpt lat="46.87887" lon="8.48095">
        <ele>1894</ele>
        <time>2021-08-11T13:06:44.244Z</time>
      </trkpt>
      <trkpt lat="46.87887" lon="8.48095">
        <ele>1895</ele>
        <time>2021-08-11T13:06:45.245Z</time>
      </trkpt>
      <trkpt lat="46.87887" lon="8.48094">
        <ele>1895</ele>
        <time>2021-08-11T13:06:46.244Z</time>
      </trkpt>
      <trkpt lat="46.87887" lon="8.48093">
        <ele>1895</ele>
        <time>2021-08-11T13:06:47.245Z</time>
      </trkpt>
      <trkpt lat="46.87887" lon="8.48092">
        <ele>1895</ele>
        <time>2021-08-11T13:06:48.245Z</time>
      </trkpt>
      <trkpt lat="46.87887" lon="8.48091">
        <ele>1896</ele>
        <time>2021-08-11T13:06:49.244Z</time>
      </trkpt>
      <trkpt lat="46.87887" lon="8.4809">
        <ele>1896</ele>
        <time>2021-08-11T13:06:50.244Z</time>
      </trkpt>
      <trkpt lat="46.87888" lon="8.48089">
        <ele>1896</ele>
        <time>2021-08-11T13:06:51.244Z</time>
      </trkpt>
      <trkpt lat="46.87888" lon="8.48088">
        <ele>1897</ele>
        <time>2021-08-11T13:06:52.244Z</time>
      </trkpt>
      <trkpt lat="46.87889" lon="8.48087">
        <ele>1897</ele>
        <time>2021-08-11T13:06:57.272Z</time>
      </trkpt>
      <trkpt lat="46.87889" lon="8.48087">
        <ele>1897</ele>
        <time>2021-08-11T13:06:58.272Z</time>
      </trkpt>
      <trkpt lat="46.8789" lon="8.48086">
        <ele>1897</ele>
        <time>2021-08-11T13:06:59.271Z</time>
      </trkpt>
      <trkpt lat="46.87891" lon="8.48085">
        <ele>1897</ele>
        <time>2021-08-11T13:07:00.271Z</time>
      </trkpt>
      <trkpt lat="46.87891" lon="8.48085">
        <ele>1897</ele>
        <time>2021-08-11T13:07:01.272Z</time>
      </trkpt>
      <trkpt lat="46.87892" lon="8.48084">
        <ele>1897</ele>
        <time>2021-08-11T13:07:02.272Z</time>
      </trkpt>
      <trkpt lat="46.87891" lon="8.48084">
        <ele>1897</ele>
        <time>2021-08-11T13:07:03.272Z</time>
      </trkpt>
      <trkpt lat="46.87892" lon="8.48083">
        <ele>1897</ele>
        <time>2021-08-11T13:07:21.428Z</time>
      </trkpt>
      <trkpt lat="46.87892" lon="8.48082">
        <ele>1896</ele>
        <time>2021-08-11T13:07:22.427Z</time>
      </trkpt>
      <trkpt lat="46.87892" lon="8.48081">
        <ele>1896</ele>
        <time>2021-08-11T13:07:23.428Z</time>
      </trkpt>
      <trkpt lat="46.87893" lon="8.48081">
        <ele>1895</ele>
        <time>2021-08-11T13:07:27.534Z</time>
      </trkpt>
      <trkpt lat="46.87892" lon="8.4808">
        <ele>1895</ele>
        <time>2021-08-11T13:07:28.534Z</time>
      </trkpt>
      <trkpt lat="46.87893" lon="8.48079">
        <ele>1895</ele>
        <time>2021-08-11T13:07:29.534Z</time>
      </trkpt>
      <trkpt lat="46.87893" lon="8.48078">
        <ele>1895</ele>
        <time>2021-08-11T13:07:30.533Z</time>
      </trkpt>
      <trkpt lat="46.87894" lon="8.48078">
        <ele>1895</ele>
        <time>2021-08-11T13:07:36.531Z</time>
      </trkpt>
      <trkpt lat="46.87893" lon="8.48078">
        <ele>1895</ele>
        <time>2021-08-11T13:07:37.532Z</time>
      </trkpt>
      <trkpt lat="46.87892" lon="8.48077">
        <ele>1894</ele>
        <time>2021-08-11T13:07:38.531Z</time>
      </trkpt>
      <trkpt lat="46.87892" lon="8.48076">
        <ele>1894</ele>
        <time>2021-08-11T13:08:00.505Z</time>
      </trkpt>
      <trkpt lat="46.87891" lon="8.48075">
        <ele>1894</ele>
        <time>2021-08-11T13:08:01.504Z</time>
      </trkpt>
      <trkpt lat="46.87891" lon="8.48074">
        <ele>1894</ele>
        <time>2021-08-11T13:08:10.256Z</time>
      </trkpt>
      <trkpt lat="46.87891" lon="8.48073">
        <ele>1894</ele>
        <time>2021-08-11T13:08:11.256Z</time>
      </trkpt>
      <trkpt lat="46.87892" lon="8.48073">
        <ele>1893</ele>
        <time>2021-08-11T13:08:12.255Z</time>
      </trkpt>
      <trkpt lat="46.87892" lon="8.48072">
        <ele>1893</ele>
        <time>2021-08-11T13:08:13.256Z</time>
      </trkpt>
      <trkpt lat="46.87892" lon="8.48071">
        <ele>1893</ele>
        <time>2021-08-11T13:08:14.255Z</time>
      </trkpt>
      <trkpt lat="46.87892" lon="8.4807">
        <ele>1893</ele>
        <time>2021-08-11T13:08:15.256Z</time>
      </trkpt>
      <trkpt lat="46.87892" lon="8.48069">
        <ele>1892</ele>
        <time>2021-08-11T13:08:16.256Z</time>
      </trkpt>
      <trkpt lat="46.87892" lon="8.48068">
        <ele>1892</ele>
        <time>2021-08-11T13:08:17.256Z</time>
      </trkpt>
      <trkpt lat="46.87892" lon="8.48068">
        <ele>1893</ele>
        <time>2021-08-11T13:08:18.255Z</time>
      </trkpt>
      <trkpt lat="46.87892" lon="8.48067">
        <ele>1893</ele>
        <time>2021-08-11T13:08:19.256Z</time>
      </trkpt>
      <trkpt lat="46.87892" lon="8.48066">
        <ele>1893</ele>
        <time>2021-08-11T13:08:20.256Z</time>
      </trkpt>
      <trkpt lat="46.87891" lon="8.48066">
        <ele>1894</ele>
        <time>2021-08-11T13:08:21.256Z</time>
      </trkpt>
      <trkpt lat="46.87891" lon="8.48065">
        <ele>1894</ele>
        <time>2021-08-11T13:08:22.256Z</time>
      </trkpt>
      <trkpt lat="46.87891" lon="8.48064">
        <ele>1894</ele>
        <time>2021-08-11T13:08:23.256Z</time>
      </trkpt>
      <trkpt lat="46.87891" lon="8.48064">
        <ele>1895</ele>
        <time>2021-08-11T13:08:24.256Z</time>
      </trkpt>
      <trkpt lat="46.87891" lon="8.48062">
        <ele>1895</ele>
        <time>2021-08-11T13:08:25.255Z</time>
      </trkpt>
      <trkpt lat="46.87891" lon="8.48061">
        <ele>1895</ele>
        <time>2021-08-11T13:08:26.256Z</time>
      </trkpt>
      <trkpt lat="46.8789" lon="8.48061">
        <ele>1894</ele>
        <time>2021-08-11T13:08:27.256Z</time>
      </trkpt>
      <trkpt lat="46.87889" lon="8.4806">
        <ele>1894</ele>
        <time>2021-08-11T13:08:28.255Z</time>
      </trkpt>
      <trkpt lat="46.87888" lon="8.48059">
        <ele>1894</ele>
        <time>2021-08-11T13:08:29.256Z</time>
      </trkpt>
      <trkpt lat="46.87887" lon="8.48059">
        <ele>1894</ele>
        <time>2021-08-11T13:08:30.256Z</time>
      </trkpt>
      <trkpt lat="46.87887" lon="8.48058">
        <ele>1894</ele>
        <time>2021-08-11T13:08:31.256Z</time>
      </trkpt>
      <trkpt lat="46.87887" lon="8.48056">
        <ele>1894</ele>
        <time>2021-08-11T13:08:32.255Z</time>
      </trkpt>
      <trkpt lat="46.87887" lon="8.48056">
        <ele>1894</ele>
        <time>2021-08-11T13:08:33.256Z</time>
      </trkpt>
      <trkpt lat="46.87886" lon="8.48055">
        <ele>1893</ele>
        <time>2021-08-11T13:08:34.256Z</time>
      </trkpt>
      <trkpt lat="46.87886" lon="8.48055">
        <ele>1893</ele>
        <time>2021-08-11T13:08:35.256Z</time>
      </trkpt>
      <trkpt lat="46.87886" lon="8.48054">
        <ele>1893</ele>
        <time>2021-08-11T13:08:36.256Z</time>
      </trkpt>
      <trkpt lat="46.87885" lon="8.48053">
        <ele>1893</ele>
        <time>2021-08-11T13:08:37.255Z</time>
      </trkpt>
      <trkpt lat="46.87885" lon="8.48053">
        <ele>1893</ele>
        <time>2021-08-11T13:08:41.275Z</time>
      </trkpt>
      <trkpt lat="46.87885" lon="8.48052">
        <ele>1893</ele>
        <time>2021-08-11T13:08:42.275Z</time>
      </trkpt>
      <trkpt lat="46.87885" lon="8.48051">
        <ele>1893</ele>
        <time>2021-08-11T13:08:43.276Z</time>
      </trkpt>
      <trkpt lat="46.87885" lon="8.48051">
        <ele>1893</ele>
        <time>2021-08-11T13:08:44.275Z</time>
      </trkpt>
      <trkpt lat="46.87885" lon="8.48051">
        <ele>1894</ele>
        <time>2021-08-11T13:08:45.276Z</time>
      </trkpt>
      <trkpt lat="46.87885" lon="8.4805">
        <ele>1893</ele>
        <time>2021-08-11T13:08:46.276Z</time>
      </trkpt>
      <trkpt lat="46.87885" lon="8.4805">
        <ele>1893</ele>
        <time>2021-08-11T13:08:47.276Z</time>
      </trkpt>
      <trkpt lat="46.87885" lon="8.48049">
        <ele>1893</ele>
        <time>2021-08-11T13:08:48.275Z</time>
      </trkpt>
      <trkpt lat="46.87885" lon="8.48049">
        <ele>1893</ele>
        <time>2021-08-11T13:08:49.275Z</time>
      </trkpt>
      <trkpt lat="46.87885" lon="8.48048">
        <ele>1892</ele>
        <time>2021-08-11T13:08:50.275Z</time>
      </trkpt>
      <trkpt lat="46.87884" lon="8.48047">
        <ele>1892</ele>
        <time>2021-08-11T13:08:51.275Z</time>
      </trkpt>
      <trkpt lat="46.87884" lon="8.48046">
        <ele>1891</ele>
        <time>2021-08-11T13:08:52.276Z</time>
      </trkpt>
      <trkpt lat="46.87883" lon="8.48046">
        <ele>1891</ele>
        <time>2021-08-11T13:08:53.276Z</time>
      </trkpt>
      <trkpt lat="46.87883" lon="8.48045">
        <ele>1891</ele>
        <time>2021-08-11T13:08:54.276Z</time>
      </trkpt>
      <trkpt lat="46.87882" lon="8.48044">
        <ele>1891</ele>
        <time>2021-08-11T13:08:55.275Z</time>
      </trkpt>
      <trkpt lat="46.87882" lon="8.48043">
        <ele>1891</ele>
        <time>2021-08-11T13:08:56.276Z</time>
      </trkpt>
      <trkpt lat="46.87881" lon="8.48042">
        <ele>1892</ele>
        <time>2021-08-11T13:08:57.276Z</time>
      </trkpt>
      <trkpt lat="46.87881" lon="8.48041">
        <ele>1893</ele>
        <time>2021-08-11T13:08:58.275Z</time>
      </trkpt>
      <trkpt lat="46.8788" lon="8.48041">
        <ele>1894</ele>
        <time>2021-08-11T13:08:59.276Z</time>
      </trkpt>
      <trkpt lat="46.8788" lon="8.4804">
        <ele>1894</ele>
        <time>2021-08-11T13:09:00.276Z</time>
      </trkpt>
      <trkpt lat="46.87879" lon="8.4804">
        <ele>1895</ele>
        <time>2021-08-11T13:09:01.276Z</time>
      </trkpt>
      <trkpt lat="46.87879" lon="8.48039">
        <ele>1895</ele>
        <time>2021-08-11T13:09:02.275Z</time>
      </trkpt>
      <trkpt lat="46.87879" lon="8.48038">
        <ele>1896</ele>
        <time>2021-08-11T13:09:03.276Z</time>
      </trkpt>
      <trkpt lat="46.87879" lon="8.48037">
        <ele>1896</ele>
        <time>2021-08-11T13:09:04.276Z</time>
      </trkpt>
      <trkpt lat="46.87879" lon="8.48036">
        <ele>1896</ele>
        <time>2021-08-11T13:09:05.275Z</time>
      </trkpt>
      <trkpt lat="46.87879" lon="8.48035">
        <ele>1895</ele>
        <time>2021-08-11T13:09:06.276Z</time>
      </trkpt>
      <trkpt lat="46.87879" lon="8.48034">
        <ele>1894</ele>
        <time>2021-08-11T13:09:07.275Z</time>
      </trkpt>
      <trkpt lat="46.87879" lon="8.48033">
        <ele>1894</ele>
        <time>2021-08-11T13:09:08.275Z</time>
      </trkpt>
      <trkpt lat="46.87878" lon="8.48033">
        <ele>1894</ele>
        <time>2021-08-11T13:09:09.275Z</time>
      </trkpt>
      <trkpt lat="46.87878" lon="8.48032">
        <ele>1893</ele>
        <time>2021-08-11T13:09:10.276Z</time>
      </trkpt>
      <trkpt lat="46.87879" lon="8.48032">
        <ele>1893</ele>
        <time>2021-08-11T13:09:11.276Z</time>
      </trkpt>
      <trkpt lat="46.87879" lon="8.48031">
        <ele>1893</ele>
        <time>2021-08-11T13:09:12.276Z</time>
      </trkpt>
      <trkpt lat="46.87878" lon="8.48033">
        <ele>1894</ele>
        <time>2021-08-11T13:09:13.277Z</time>
      </trkpt>
      <trkpt lat="46.87878" lon="8.48033">
        <ele>1894</ele>
        <time>2021-08-11T13:09:14.277Z</time>
      </trkpt>
      <trkpt lat="46.87875" lon="8.48031">
        <ele>1895</ele>
        <time>2021-08-11T13:09:15.276Z</time>
      </trkpt>
      <trkpt lat="46.87875" lon="8.48031">
        <ele>1895</ele>
        <time>2021-08-11T13:09:16.277Z</time>
      </trkpt>
      <trkpt lat="46.87875" lon="8.4803">
        <ele>1895</ele>
        <time>2021-08-11T13:09:17.276Z</time>
      </trkpt>
      <trkpt lat="46.87874" lon="8.48029">
        <ele>1895</ele>
        <time>2021-08-11T13:09:18.277Z</time>
      </trkpt>
      <trkpt lat="46.87874" lon="8.48029">
        <ele>1896</ele>
        <time>2021-08-11T13:09:19.277Z</time>
      </trkpt>
      <trkpt lat="46.87874" lon="8.48028">
        <ele>1896</ele>
        <time>2021-08-11T13:09:20.277Z</time>
      </trkpt>
      <trkpt lat="46.87873" lon="8.48027">
        <ele>1896</ele>
        <time>2021-08-11T13:09:21.277Z</time>
      </trkpt>
      <trkpt lat="46.87873" lon="8.48025">
        <ele>1896</ele>
        <time>2021-08-11T13:09:22.276Z</time>
      </trkpt>
      <trkpt lat="46.87873" lon="8.48024">
        <ele>1896</ele>
        <time>2021-08-11T13:09:23.276Z</time>
      </trkpt>
      <trkpt lat="46.87873" lon="8.48023">
        <ele>1896</ele>
        <time>2021-08-11T13:09:24.277Z</time>
      </trkpt>
      <trkpt lat="46.87873" lon="8.48022">
        <ele>1896</ele>
        <time>2021-08-11T13:09:25.277Z</time>
      </trkpt>
      <trkpt lat="46.87872" lon="8.48021">
        <ele>1896</ele>
        <time>2021-08-11T13:09:26.277Z</time>
      </trkpt>
      <trkpt lat="46.87872" lon="8.4802">
        <ele>1896</ele>
        <time>2021-08-11T13:09:27.276Z</time>
      </trkpt>
      <trkpt lat="46.87872" lon="8.48019">
        <ele>1895</ele>
        <time>2021-08-11T13:09:28.276Z</time>
      </trkpt>
      <trkpt lat="46.87872" lon="8.48018">
        <ele>1895</ele>
        <time>2021-08-11T13:09:29.277Z</time>
      </trkpt>
      <trkpt lat="46.87871" lon="8.48016">
        <ele>1895</ele>
        <time>2021-08-11T13:09:30.277Z</time>
      </trkpt>
      <trkpt lat="46.87871" lon="8.48015">
        <ele>1896</ele>
        <time>2021-08-11T13:09:31.276Z</time>
      </trkpt>
      <trkpt lat="46.87871" lon="8.48014">
        <ele>1896</ele>
        <time>2021-08-11T13:09:32.277Z</time>
      </trkpt>
      <trkpt lat="46.87871" lon="8.48013">
        <ele>1896</ele>
        <time>2021-08-11T13:09:33.277Z</time>
      </trkpt>
      <trkpt lat="46.87871" lon="8.48012">
        <ele>1896</ele>
        <time>2021-08-11T13:09:34.277Z</time>
      </trkpt>
      <trkpt lat="46.87871" lon="8.48011">
        <ele>1896</ele>
        <time>2021-08-11T13:09:35.276Z</time>
      </trkpt>
      <trkpt lat="46.87871" lon="8.4801">
        <ele>1896</ele>
        <time>2021-08-11T13:09:36.277Z</time>
      </trkpt>
      <trkpt lat="46.8787" lon="8.4801">
        <ele>1897</ele>
        <time>2021-08-11T13:09:37.276Z</time>
      </trkpt>
      <trkpt lat="46.8787" lon="8.48009">
        <ele>1897</ele>
        <time>2021-08-11T13:09:38.276Z</time>
      </trkpt>
      <trkpt lat="46.8787" lon="8.48009">
        <ele>1897</ele>
        <time>2021-08-11T13:09:39.277Z</time>
      </trkpt>
      <trkpt lat="46.8787" lon="8.48008">
        <ele>1897</ele>
        <time>2021-08-11T13:09:40.277Z</time>
      </trkpt>
      <trkpt lat="46.8787" lon="8.48008">
        <ele>1897</ele>
        <time>2021-08-11T13:09:41.277Z</time>
      </trkpt>
      <trkpt lat="46.8787" lon="8.48008">
        <ele>1897</ele>
        <time>2021-08-11T13:09:42.277Z</time>
      </trkpt>
      <trkpt lat="46.87869" lon="8.48007">
        <ele>1896</ele>
        <time>2021-08-11T13:09:43.276Z</time>
      </trkpt>
      <trkpt lat="46.87869" lon="8.48007">
        <ele>1896</ele>
        <time>2021-08-11T13:09:44.277Z</time>
      </trkpt>
      <trkpt lat="46.87868" lon="8.48006">
        <ele>1895</ele>
        <time>2021-08-11T13:09:45.276Z</time>
      </trkpt>
      <trkpt lat="46.87868" lon="8.48006">
        <ele>1895</ele>
        <time>2021-08-11T13:09:46.276Z</time>
      </trkpt>
      <trkpt lat="46.87867" lon="8.48005">
        <ele>1895</ele>
        <time>2021-08-11T13:09:47.276Z</time>
      </trkpt>
      <trkpt lat="46.87866" lon="8.48005">
        <ele>1895</ele>
        <time>2021-08-11T13:09:48.277Z</time>
      </trkpt>
      <trkpt lat="46.87865" lon="8.48004">
        <ele>1894</ele>
        <time>2021-08-11T13:09:49.277Z</time>
      </trkpt>
      <trkpt lat="46.87865" lon="8.48002">
        <ele>1894</ele>
        <time>2021-08-11T13:09:50.277Z</time>
      </trkpt>
      <trkpt lat="46.87865" lon="8.48001">
        <ele>1893</ele>
        <time>2021-08-11T13:09:51.277Z</time>
      </trkpt>
      <trkpt lat="46.87865" lon="8.48">
        <ele>1893</ele>
        <time>2021-08-11T13:09:52.276Z</time>
      </trkpt>
      <trkpt lat="46.87864" lon="8.47999">
        <ele>1893</ele>
        <time>2021-08-11T13:09:53.277Z</time>
      </trkpt>
      <trkpt lat="46.87864" lon="8.47999">
        <ele>1892</ele>
        <time>2021-08-11T13:09:54.277Z</time>
      </trkpt>
      <trkpt lat="46.87864" lon="8.47998">
        <ele>1892</ele>
        <time>2021-08-11T13:09:55.277Z</time>
      </trkpt>
      <trkpt lat="46.87863" lon="8.47997">
        <ele>1892</ele>
        <time>2021-08-11T13:09:56.277Z</time>
      </trkpt>
      <trkpt lat="46.87863" lon="8.47996">
        <ele>1892</ele>
        <time>2021-08-11T13:09:57.277Z</time>
      </trkpt>
      <trkpt lat="46.87862" lon="8.47995">
        <ele>1892</ele>
        <time>2021-08-11T13:09:58.277Z</time>
      </trkpt>
      <trkpt lat="46.87862" lon="8.47995">
        <ele>1892</ele>
        <time>2021-08-11T13:09:59.276Z</time>
      </trkpt>
      <trkpt lat="46.87862" lon="8.47994">
        <ele>1892</ele>
        <time>2021-08-11T13:10:00.276Z</time>
      </trkpt>
      <trkpt lat="46.87862" lon="8.47993">
        <ele>1893</ele>
        <time>2021-08-11T13:10:01.277Z</time>
      </trkpt>
      <trkpt lat="46.87862" lon="8.47992">
        <ele>1893</ele>
        <time>2021-08-11T13:10:02.277Z</time>
      </trkpt>
      <trkpt lat="46.87861" lon="8.47991">
        <ele>1893</ele>
        <time>2021-08-11T13:10:03.277Z</time>
      </trkpt>
      <trkpt lat="46.87861" lon="8.4799">
        <ele>1894</ele>
        <time>2021-08-11T13:10:04.277Z</time>
      </trkpt>
      <trkpt lat="46.87861" lon="8.4799">
        <ele>1894</ele>
        <time>2021-08-11T13:10:05.276Z</time>
      </trkpt>
      <trkpt lat="46.87861" lon="8.47989">
        <ele>1893</ele>
        <time>2021-08-11T13:10:06.277Z</time>
      </trkpt>
      <trkpt lat="46.87861" lon="8.47989">
        <ele>1893</ele>
        <time>2021-08-11T13:10:07.277Z</time>
      </trkpt>
      <trkpt lat="46.8786" lon="8.47989">
        <ele>1893</ele>
        <time>2021-08-11T13:10:08.277Z</time>
      </trkpt>
      <trkpt lat="46.8786" lon="8.47988">
        <ele>1893</ele>
        <time>2021-08-11T13:10:09.277Z</time>
      </trkpt>
      <trkpt lat="46.8786" lon="8.47988">
        <ele>1893</ele>
        <time>2021-08-11T13:10:10.276Z</time>
      </trkpt>
      <trkpt lat="46.8786" lon="8.47987">
        <ele>1892</ele>
        <time>2021-08-11T13:10:11.277Z</time>
      </trkpt>
      <trkpt lat="46.8786" lon="8.47987">
        <ele>1892</ele>
        <time>2021-08-11T13:10:12.277Z</time>
      </trkpt>
      <trkpt lat="46.8786" lon="8.47987">
        <ele>1892</ele>
        <time>2021-08-11T13:10:13.277Z</time>
      </trkpt>
      <trkpt lat="46.87859" lon="8.47986">
        <ele>1892</ele>
        <time>2021-08-11T13:10:14.277Z</time>
      </trkpt>
      <trkpt lat="46.87859" lon="8.47985">
        <ele>1893</ele>
        <time>2021-08-11T13:10:15.277Z</time>
      </trkpt>
      <trkpt lat="46.87858" lon="8.47984">
        <ele>1893</ele>
        <time>2021-08-11T13:10:16.276Z</time>
      </trkpt>
      <trkpt lat="46.87858" lon="8.47984">
        <ele>1893</ele>
        <time>2021-08-11T13:10:17.276Z</time>
      </trkpt>
      <trkpt lat="46.87857" lon="8.47984">
        <ele>1894</ele>
        <time>2021-08-11T13:10:18.277Z</time>
      </trkpt>
      <trkpt lat="46.87857" lon="8.47983">
        <ele>1894</ele>
        <time>2021-08-11T13:10:19.277Z</time>
      </trkpt>
      <trkpt lat="46.87856" lon="8.47983">
        <ele>1894</ele>
        <time>2021-08-11T13:10:20.277Z</time>
      </trkpt>
      <trkpt lat="46.87856" lon="8.47982">
        <ele>1895</ele>
        <time>2021-08-11T13:10:21.277Z</time>
      </trkpt>
      <trkpt lat="46.87856" lon="8.47981">
        <ele>1895</ele>
        <time>2021-08-11T13:10:22.276Z</time>
      </trkpt>
      <trkpt lat="46.87856" lon="8.4798">
        <ele>1895</ele>
        <time>2021-08-11T13:10:23.277Z</time>
      </trkpt>
      <trkpt lat="46.87856" lon="8.4798">
        <ele>1895</ele>
        <time>2021-08-11T13:10:24.277Z</time>
      </trkpt>
      <trkpt lat="46.87856" lon="8.47979">
        <ele>1894</ele>
        <time>2021-08-11T13:10:25.277Z</time>
      </trkpt>
      <trkpt lat="46.87856" lon="8.47978">
        <ele>1894</ele>
        <time>2021-08-11T13:10:26.277Z</time>
      </trkpt>
      <trkpt lat="46.87855" lon="8.47977">
        <ele>1894</ele>
        <time>2021-08-11T13:10:27.277Z</time>
      </trkpt>
      <trkpt lat="46.87855" lon="8.47977">
        <ele>1894</ele>
        <time>2021-08-11T13:10:28.277Z</time>
      </trkpt>
      <trkpt lat="46.87855" lon="8.47976">
        <ele>1893</ele>
        <time>2021-08-11T13:10:29.276Z</time>
      </trkpt>
      <trkpt lat="46.87855" lon="8.47976">
        <ele>1893</ele>
        <time>2021-08-11T13:10:30.276Z</time>
      </trkpt>
      <trkpt lat="46.87855" lon="8.47976">
        <ele>1893</ele>
        <time>2021-08-11T13:10:31.277Z</time>
      </trkpt>
      <trkpt lat="46.87856" lon="8.47976">
        <ele>1893</ele>
        <time>2021-08-11T13:10:32.277Z</time>
      </trkpt>
      <trkpt lat="46.87855" lon="8.47974">
        <ele>1893</ele>
        <time>2021-08-11T13:10:33.277Z</time>
      </trkpt>
      <trkpt lat="46.87855" lon="8.47974">
        <ele>1894</ele>
        <time>2021-08-11T13:10:34.277Z</time>
      </trkpt>
      <trkpt lat="46.87855" lon="8.47973">
        <ele>1894</ele>
        <time>2021-08-11T13:10:35.277Z</time>
      </trkpt>
      <trkpt lat="46.87855" lon="8.47972">
        <ele>1895</ele>
        <time>2021-08-11T13:10:36.278Z</time>
      </trkpt>
      <trkpt lat="46.87855" lon="8.47972">
        <ele>1896</ele>
        <time>2021-08-11T13:10:37.277Z</time>
      </trkpt>
      <trkpt lat="46.87854" lon="8.47971">
        <ele>1896</ele>
        <time>2021-08-11T13:10:38.278Z</time>
      </trkpt>
      <trkpt lat="46.87855" lon="8.4797">
        <ele>1896</ele>
        <time>2021-08-11T13:10:39.278Z</time>
      </trkpt>
      <trkpt lat="46.87855" lon="8.47968">
        <ele>1896</ele>
        <time>2021-08-11T13:10:40.278Z</time>
      </trkpt>
      <trkpt lat="46.87855" lon="8.47967">
        <ele>1896</ele>
        <time>2021-08-11T13:10:41.278Z</time>
      </trkpt>
      <trkpt lat="46.87854" lon="8.47966">
        <ele>1896</ele>
        <time>2021-08-11T13:10:42.277Z</time>
      </trkpt>
      <trkpt lat="46.87853" lon="8.47966">
        <ele>1896</ele>
        <time>2021-08-11T13:10:43.277Z</time>
      </trkpt>
      <trkpt lat="46.87852" lon="8.47965">
        <ele>1896</ele>
        <time>2021-08-11T13:10:44.278Z</time>
      </trkpt>
      <trkpt lat="46.87852" lon="8.47964">
        <ele>1896</ele>
        <time>2021-08-11T13:10:45.278Z</time>
      </trkpt>
      <trkpt lat="46.87852" lon="8.47963">
        <ele>1896</ele>
        <time>2021-08-11T13:10:46.278Z</time>
      </trkpt>
      <trkpt lat="46.87852" lon="8.47963">
        <ele>1895</ele>
        <time>2021-08-11T13:10:47.278Z</time>
      </trkpt>
      <trkpt lat="46.87852" lon="8.47962">
        <ele>1895</ele>
        <time>2021-08-11T13:10:48.277Z</time>
      </trkpt>
      <trkpt lat="46.87852" lon="8.47962">
        <ele>1895</ele>
        <time>2021-08-11T13:10:49.278Z</time>
      </trkpt>
      <trkpt lat="46.87852" lon="8.4796">
        <ele>1895</ele>
        <time>2021-08-11T13:10:50.278Z</time>
      </trkpt>
      <trkpt lat="46.87852" lon="8.4796">
        <ele>1895</ele>
        <time>2021-08-11T13:10:51.278Z</time>
      </trkpt>
      <trkpt lat="46.87852" lon="8.47959">
        <ele>1894</ele>
        <time>2021-08-11T13:10:52.278Z</time>
      </trkpt>
      <trkpt lat="46.87851" lon="8.47958">
        <ele>1893</ele>
        <time>2021-08-11T13:10:53.277Z</time>
      </trkpt>
      <trkpt lat="46.87851" lon="8.47957">
        <ele>1893</ele>
        <time>2021-08-11T13:10:54.278Z</time>
      </trkpt>
      <trkpt lat="46.87851" lon="8.47956">
        <ele>1893</ele>
        <time>2021-08-11T13:10:55.278Z</time>
      </trkpt>
      <trkpt lat="46.87851" lon="8.47955">
        <ele>1892</ele>
        <time>2021-08-11T13:10:56.278Z</time>
      </trkpt>
      <trkpt lat="46.8785" lon="8.47954">
        <ele>1893</ele>
        <time>2021-08-11T13:10:57.278Z</time>
      </trkpt>
      <trkpt lat="46.87849" lon="8.47953">
        <ele>1893</ele>
        <time>2021-08-11T13:10:58.278Z</time>
      </trkpt>
      <trkpt lat="46.87849" lon="8.47953">
        <ele>1893</ele>
        <time>2021-08-11T13:10:59.277Z</time>
      </trkpt>
      <trkpt lat="46.87849" lon="8.47952">
        <ele>1894</ele>
        <time>2021-08-11T13:11:00.278Z</time>
      </trkpt>
      <trkpt lat="46.87848" lon="8.47951">
        <ele>1894</ele>
        <time>2021-08-11T13:11:01.277Z</time>
      </trkpt>
      <trkpt lat="46.87848" lon="8.4795">
        <ele>1895</ele>
        <time>2021-08-11T13:11:02.278Z</time>
      </trkpt>
      <trkpt lat="46.87849" lon="8.47949">
        <ele>1895</ele>
        <time>2021-08-11T13:11:03.278Z</time>
      </trkpt>
      <trkpt lat="46.87849" lon="8.47948">
        <ele>1896</ele>
        <time>2021-08-11T13:11:04.277Z</time>
      </trkpt>
      <trkpt lat="46.87849" lon="8.47948">
        <ele>1896</ele>
        <time>2021-08-11T13:11:05.278Z</time>
      </trkpt>
      <trkpt lat="46.87849" lon="8.47947">
        <ele>1897</ele>
        <time>2021-08-11T13:11:06.278Z</time>
      </trkpt>
      <trkpt lat="46.87849" lon="8.47946">
        <ele>1897</ele>
        <time>2021-08-11T13:11:07.278Z</time>
      </trkpt>
      <trkpt lat="46.87849" lon="8.47945">
        <ele>1897</ele>
        <time>2021-08-11T13:11:08.278Z</time>
      </trkpt>
      <trkpt lat="46.87849" lon="8.47944">
        <ele>1898</ele>
        <time>2021-08-11T13:11:09.278Z</time>
      </trkpt>
      <trkpt lat="46.87849" lon="8.47944">
        <ele>1898</ele>
        <time>2021-08-11T13:11:10.277Z</time>
      </trkpt>
      <trkpt lat="46.87849" lon="8.47944">
        <ele>1899</ele>
        <time>2021-08-11T13:11:11.278Z</time>
      </trkpt>
      <trkpt lat="46.87848" lon="8.47942">
        <ele>1900</ele>
        <time>2021-08-11T13:11:12.279Z</time>
      </trkpt>
      <trkpt lat="46.87848" lon="8.47942">
        <ele>1900</ele>
        <time>2021-08-11T13:11:13.279Z</time>
      </trkpt>
      <trkpt lat="46.87847" lon="8.47942">
        <ele>1900</ele>
        <time>2021-08-11T13:11:14.278Z</time>
      </trkpt>
      <trkpt lat="46.87847" lon="8.47942">
        <ele>1900</ele>
        <time>2021-08-11T13:11:15.279Z</time>
      </trkpt>
      <trkpt lat="46.87846" lon="8.47941">
        <ele>1900</ele>
        <time>2021-08-11T13:11:16.279Z</time>
      </trkpt>
      <trkpt lat="46.87845" lon="8.47941">
        <ele>1900</ele>
        <time>2021-08-11T13:11:17.278Z</time>
      </trkpt>
      <trkpt lat="46.87845" lon="8.4794">
        <ele>1900</ele>
        <time>2021-08-11T13:11:18.278Z</time>
      </trkpt>
      <trkpt lat="46.87844" lon="8.47939">
        <ele>1900</ele>
        <time>2021-08-11T13:11:19.279Z</time>
      </trkpt>
      <trkpt lat="46.87844" lon="8.47938">
        <ele>1900</ele>
        <time>2021-08-11T13:11:20.279Z</time>
      </trkpt>
      <trkpt lat="46.87843" lon="8.47938">
        <ele>1900</ele>
        <time>2021-08-11T13:11:21.278Z</time>
      </trkpt>
      <trkpt lat="46.87843" lon="8.47937">
        <ele>1901</ele>
        <time>2021-08-11T13:11:22.278Z</time>
      </trkpt>
      <trkpt lat="46.87843" lon="8.47937">
        <ele>1901</ele>
        <time>2021-08-11T13:11:23.278Z</time>
      </trkpt>
      <trkpt lat="46.87842" lon="8.47936">
        <ele>1901</ele>
        <time>2021-08-11T13:11:24.278Z</time>
      </trkpt>
      <trkpt lat="46.87842" lon="8.47935">
        <ele>1902</ele>
        <time>2021-08-11T13:11:25.279Z</time>
      </trkpt>
      <trkpt lat="46.87842" lon="8.47935">
        <ele>1902</ele>
        <time>2021-08-11T13:11:26.278Z</time>
      </trkpt>
      <trkpt lat="46.87841" lon="8.47934">
        <ele>1902</ele>
        <time>2021-08-11T13:11:27.279Z</time>
      </trkpt>
      <trkpt lat="46.87841" lon="8.47933">
        <ele>1903</ele>
        <time>2021-08-11T13:11:28.278Z</time>
      </trkpt>
      <trkpt lat="46.87841" lon="8.47932">
        <ele>1903</ele>
        <time>2021-08-11T13:11:29.279Z</time>
      </trkpt>
      <trkpt lat="46.8784" lon="8.47931">
        <ele>1903</ele>
        <time>2021-08-11T13:11:30.279Z</time>
      </trkpt>
      <trkpt lat="46.8784" lon="8.47931">
        <ele>1904</ele>
        <time>2021-08-11T13:11:31.279Z</time>
      </trkpt>
      <trkpt lat="46.8784" lon="8.4793">
        <ele>1904</ele>
        <time>2021-08-11T13:11:32.278Z</time>
      </trkpt>
      <trkpt lat="46.87839" lon="8.47928">
        <ele>1904</ele>
        <time>2021-08-11T13:11:33.279Z</time>
      </trkpt>
      <trkpt lat="46.87839" lon="8.47928">
        <ele>1904</ele>
        <time>2021-08-11T13:11:34.279Z</time>
      </trkpt>
      <trkpt lat="46.87838" lon="8.47926">
        <ele>1905</ele>
        <time>2021-08-11T13:11:35.279Z</time>
      </trkpt>
      <trkpt lat="46.87838" lon="8.47925">
        <ele>1906</ele>
        <time>2021-08-11T13:11:36.279Z</time>
      </trkpt>
      <trkpt lat="46.87837" lon="8.47924">
        <ele>1906</ele>
        <time>2021-08-11T13:11:37.279Z</time>
      </trkpt>
      <trkpt lat="46.87837" lon="8.47924">
        <ele>1907</ele>
        <time>2021-08-11T13:11:38.279Z</time>
      </trkpt>
      <trkpt lat="46.87836" lon="8.47923">
        <ele>1907</ele>
        <time>2021-08-11T13:11:39.278Z</time>
      </trkpt>
      <trkpt lat="46.87836" lon="8.47923">
        <ele>1907</ele>
        <time>2021-08-11T13:11:40.279Z</time>
      </trkpt>
      <trkpt lat="46.87837" lon="8.47923">
        <ele>1907</ele>
        <time>2021-08-11T13:11:41.278Z</time>
      </trkpt>
      <trkpt lat="46.87837" lon="8.47923">
        <ele>1907</ele>
        <time>2021-08-11T13:11:42.278Z</time>
      </trkpt>
      <trkpt lat="46.87839" lon="8.47919">
        <ele>1907</ele>
        <time>2021-08-11T13:11:43.278Z</time>
      </trkpt>
      <trkpt lat="46.87839" lon="8.47919">
        <ele>1908</ele>
        <time>2021-08-11T13:11:44.279Z</time>
      </trkpt>
      <trkpt lat="46.87838" lon="8.47918">
        <ele>1908</ele>
        <time>2021-08-11T13:11:45.278Z</time>
      </trkpt>
      <trkpt lat="46.87838" lon="8.47917">
        <ele>1907</ele>
        <time>2021-08-11T13:11:46.278Z</time>
      </trkpt>
      <trkpt lat="46.87837" lon="8.47916">
        <ele>1907</ele>
        <time>2021-08-11T13:11:47.278Z</time>
      </trkpt>
      <trkpt lat="46.87837" lon="8.47915">
        <ele>1907</ele>
        <time>2021-08-11T13:11:48.278Z</time>
      </trkpt>
      <trkpt lat="46.87836" lon="8.47914">
        <ele>1907</ele>
        <time>2021-08-11T13:11:49.278Z</time>
      </trkpt>
      <trkpt lat="46.87836" lon="8.47913">
        <ele>1907</ele>
        <time>2021-08-11T13:11:50.278Z</time>
      </trkpt>
      <trkpt lat="46.87836" lon="8.47913">
        <ele>1906</ele>
        <time>2021-08-11T13:11:51.278Z</time>
      </trkpt>
      <trkpt lat="46.87836" lon="8.47912">
        <ele>1906</ele>
        <time>2021-08-11T13:11:52.278Z</time>
      </trkpt>
      <trkpt lat="46.87836" lon="8.47911">
        <ele>1906</ele>
        <time>2021-08-11T13:11:53.279Z</time>
      </trkpt>
      <trkpt lat="46.87835" lon="8.4791">
        <ele>1906</ele>
        <time>2021-08-11T13:11:54.279Z</time>
      </trkpt>
      <trkpt lat="46.87836" lon="8.47909">
        <ele>1907</ele>
        <time>2021-08-11T13:11:55.278Z</time>
      </trkpt>
      <trkpt lat="46.87836" lon="8.47908">
        <ele>1907</ele>
        <time>2021-08-11T13:11:56.278Z</time>
      </trkpt>
      <trkpt lat="46.87836" lon="8.47908">
        <ele>1907</ele>
        <time>2021-08-11T13:11:57.279Z</time>
      </trkpt>
      <trkpt lat="46.87836" lon="8.47906">
        <ele>1907</ele>
        <time>2021-08-11T13:11:58.279Z</time>
      </trkpt>
      <trkpt lat="46.87836" lon="8.47905">
        <ele>1907</ele>
        <time>2021-08-11T13:11:59.279Z</time>
      </trkpt>
      <trkpt lat="46.87836" lon="8.47904">
        <ele>1907</ele>
        <time>2021-08-11T13:12:00.279Z</time>
      </trkpt>
      <trkpt lat="46.87836" lon="8.47903">
        <ele>1907</ele>
        <time>2021-08-11T13:12:01.278Z</time>
      </trkpt>
      <trkpt lat="46.87835" lon="8.47902">
        <ele>1907</ele>
        <time>2021-08-11T13:12:02.279Z</time>
      </trkpt>
      <trkpt lat="46.87834" lon="8.47902">
        <ele>1907</ele>
        <time>2021-08-11T13:12:03.279Z</time>
      </trkpt>
      <trkpt lat="46.87834" lon="8.47901">
        <ele>1907</ele>
        <time>2021-08-11T13:12:04.279Z</time>
      </trkpt>
      <trkpt lat="46.87833" lon="8.479">
        <ele>1907</ele>
        <time>2021-08-11T13:12:05.279Z</time>
      </trkpt>
      <trkpt lat="46.87833" lon="8.47899">
        <ele>1907</ele>
        <time>2021-08-11T13:12:06.278Z</time>
      </trkpt>
      <trkpt lat="46.87832" lon="8.47897">
        <ele>1907</ele>
        <time>2021-08-11T13:12:07.279Z</time>
      </trkpt>
      <trkpt lat="46.87832" lon="8.47896">
        <ele>1907</ele>
        <time>2021-08-11T13:12:08.279Z</time>
      </trkpt>
      <trkpt lat="46.87831" lon="8.47895">
        <ele>1907</ele>
        <time>2021-08-11T13:12:09.278Z</time>
      </trkpt>
      <trkpt lat="46.87831" lon="8.47894">
        <ele>1907</ele>
        <time>2021-08-11T13:12:10.279Z</time>
      </trkpt>
      <trkpt lat="46.87831" lon="8.47892">
        <ele>1907</ele>
        <time>2021-08-11T13:12:11.278Z</time>
      </trkpt>
      <trkpt lat="46.87831" lon="8.47891">
        <ele>1907</ele>
        <time>2021-08-11T13:12:12.278Z</time>
      </trkpt>
      <trkpt lat="46.8783" lon="8.4789">
        <ele>1908</ele>
        <time>2021-08-11T13:12:13.279Z</time>
      </trkpt>
      <trkpt lat="46.87829" lon="8.4789">
        <ele>1908</ele>
        <time>2021-08-11T13:12:14.279Z</time>
      </trkpt>
      <trkpt lat="46.87829" lon="8.47889">
        <ele>1908</ele>
        <time>2021-08-11T13:12:15.279Z</time>
      </trkpt>
      <trkpt lat="46.87829" lon="8.47888">
        <ele>1908</ele>
        <time>2021-08-11T13:12:16.279Z</time>
      </trkpt>
      <trkpt lat="46.87828" lon="8.47887">
        <ele>1908</ele>
        <time>2021-08-11T13:12:17.278Z</time>
      </trkpt>
      <trkpt lat="46.87828" lon="8.47886">
        <ele>1908</ele>
        <time>2021-08-11T13:12:18.279Z</time>
      </trkpt>
      <trkpt lat="46.87828" lon="8.47885">
        <ele>1908</ele>
        <time>2021-08-11T13:12:19.279Z</time>
      </trkpt>
      <trkpt lat="46.87828" lon="8.47885">
        <ele>1907</ele>
        <time>2021-08-11T13:12:20.279Z</time>
      </trkpt>
      <trkpt lat="46.87827" lon="8.47884">
        <ele>1907</ele>
        <time>2021-08-11T13:12:21.279Z</time>
      </trkpt>
      <trkpt lat="46.87827" lon="8.47883">
        <ele>1907</ele>
        <time>2021-08-11T13:12:22.279Z</time>
      </trkpt>
      <trkpt lat="46.87827" lon="8.47881">
        <ele>1907</ele>
        <time>2021-08-11T13:12:23.279Z</time>
      </trkpt>
      <trkpt lat="46.87826" lon="8.4788">
        <ele>1907</ele>
        <time>2021-08-11T13:12:24.279Z</time>
      </trkpt>
      <trkpt lat="46.87825" lon="8.47879">
        <ele>1907</ele>
        <time>2021-08-11T13:12:25.279Z</time>
      </trkpt>
      <trkpt lat="46.87825" lon="8.47878">
        <ele>1908</ele>
        <time>2021-08-11T13:12:26.278Z</time>
      </trkpt>
      <trkpt lat="46.87824" lon="8.47877">
        <ele>1908</ele>
        <time>2021-08-11T13:12:27.278Z</time>
      </trkpt>
      <trkpt lat="46.87824" lon="8.47877">
        <ele>1909</ele>
        <time>2021-08-11T13:12:28.279Z</time>
      </trkpt>
      <trkpt lat="46.87823" lon="8.47876">
        <ele>1909</ele>
        <time>2021-08-11T13:12:29.279Z</time>
      </trkpt>
      <trkpt lat="46.87823" lon="8.47875">
        <ele>1910</ele>
        <time>2021-08-11T13:12:30.279Z</time>
      </trkpt>
      <trkpt lat="46.87823" lon="8.47875">
        <ele>1910</ele>
        <time>2021-08-11T13:12:31.278Z</time>
      </trkpt>
      <trkpt lat="46.87822" lon="8.47874">
        <ele>1911</ele>
        <time>2021-08-11T13:12:32.278Z</time>
      </trkpt>
      <trkpt lat="46.87822" lon="8.47873">
        <ele>1911</ele>
        <time>2021-08-11T13:12:33.279Z</time>
      </trkpt>
      <trkpt lat="46.87822" lon="8.47872">
        <ele>1911</ele>
        <time>2021-08-11T13:12:34.279Z</time>
      </trkpt>
      <trkpt lat="46.87821" lon="8.47871">
        <ele>1912</ele>
        <time>2021-08-11T13:12:35.279Z</time>
      </trkpt>
      <trkpt lat="46.87821" lon="8.4787">
        <ele>1912</ele>
        <time>2021-08-11T13:12:36.278Z</time>
      </trkpt>
      <trkpt lat="46.87821" lon="8.4787">
        <ele>1912</ele>
        <time>2021-08-11T13:12:37.278Z</time>
      </trkpt>
      <trkpt lat="46.87821" lon="8.47869">
        <ele>1912</ele>
        <time>2021-08-11T13:12:38.279Z</time>
      </trkpt>
      <trkpt lat="46.87821" lon="8.47869">
        <ele>1912</ele>
        <time>2021-08-11T13:12:39.279Z</time>
      </trkpt>
      <trkpt lat="46.87821" lon="8.47868">
        <ele>1912</ele>
        <time>2021-08-11T13:12:40.279Z</time>
      </trkpt>
      <trkpt lat="46.87821" lon="8.47867">
        <ele>1913</ele>
        <time>2021-08-11T13:12:41.280Z</time>
      </trkpt>
      <trkpt lat="46.87821" lon="8.47866">
        <ele>1913</ele>
        <time>2021-08-11T13:12:42.279Z</time>
      </trkpt>
      <trkpt lat="46.8782" lon="8.47866">
        <ele>1913</ele>
        <time>2021-08-11T13:12:43.279Z</time>
      </trkpt>
      <trkpt lat="46.8782" lon="8.47865">
        <ele>1912</ele>
        <time>2021-08-11T13:12:44.280Z</time>
      </trkpt>
      <trkpt lat="46.87821" lon="8.47865">
        <ele>1912</ele>
        <time>2021-08-11T13:12:45.280Z</time>
      </trkpt>
      <trkpt lat="46.87821" lon="8.47864">
        <ele>1912</ele>
        <time>2021-08-11T13:12:46.279Z</time>
      </trkpt>
      <trkpt lat="46.87821" lon="8.47864">
        <ele>1911</ele>
        <time>2021-08-11T13:12:47.280Z</time>
      </trkpt>
      <trkpt lat="46.87821" lon="8.47863">
        <ele>1911</ele>
        <time>2021-08-11T13:12:48.279Z</time>
      </trkpt>
      <trkpt lat="46.8782" lon="8.47862">
        <ele>1911</ele>
        <time>2021-08-11T13:12:49.279Z</time>
      </trkpt>
      <trkpt lat="46.8782" lon="8.47862">
        <ele>1911</ele>
        <time>2021-08-11T13:12:50.279Z</time>
      </trkpt>
      <trkpt lat="46.8782" lon="8.47862">
        <ele>1911</ele>
        <time>2021-08-11T13:12:51.280Z</time>
      </trkpt>
      <trkpt lat="46.8782" lon="8.47861">
        <ele>1911</ele>
        <time>2021-08-11T13:12:52.279Z</time>
      </trkpt>
      <trkpt lat="46.8782" lon="8.47861">
        <ele>1909</ele>
        <time>2021-08-11T13:12:53.281Z</time>
      </trkpt>
      <trkpt lat="46.87821" lon="8.47863">
        <ele>1915</ele>
        <time>2021-08-11T13:12:54.281Z</time>
      </trkpt>
      <trkpt lat="46.87821" lon="8.47863">
        <ele>1915</ele>
        <time>2021-08-11T13:12:55.280Z</time>
      </trkpt>
      <trkpt lat="46.87821" lon="8.47863">
        <ele>1915</ele>
        <time>2021-08-11T13:12:56.280Z</time>
      </trkpt>
      <trkpt lat="46.87821" lon="8.47863">
        <ele>1914</ele>
        <time>2021-08-11T13:12:57.281Z</time>
      </trkpt>
      <trkpt lat="46.8782" lon="8.47863">
        <ele>1914</ele>
        <time>2021-08-11T13:12:58.280Z</time>
      </trkpt>
      <trkpt lat="46.8782" lon="8.47863">
        <ele>1914</ele>
        <time>2021-08-11T13:12:59.280Z</time>
      </trkpt>
      <trkpt lat="46.8782" lon="8.47863">
        <ele>1914</ele>
        <time>2021-08-11T13:13:00.281Z</time>
      </trkpt>
      <trkpt lat="46.87821" lon="8.47863">
        <ele>1914</ele>
        <time>2021-08-11T13:13:01.281Z</time>
      </trkpt>
      <trkpt lat="46.87821" lon="8.47863">
        <ele>1914</ele>
        <time>2021-08-11T13:13:02.280Z</time>
      </trkpt>
      <trkpt lat="46.87821" lon="8.47863">
        <ele>1914</ele>
        <time>2021-08-11T13:13:03.281Z</time>
      </trkpt>
      <trkpt lat="46.87822" lon="8.47863">
        <ele>1914</ele>
        <time>2021-08-11T13:13:04.282Z</time>
      </trkpt>
      <trkpt lat="46.87821" lon="8.47862">
        <ele>1915</ele>
        <time>2021-08-11T13:13:05.281Z</time>
      </trkpt>
      <trkpt lat="46.87818" lon="8.47857">
        <ele>1916</ele>
        <time>2021-08-11T13:13:06.281Z</time>
      </trkpt>
      <trkpt lat="46.87819" lon="8.47855">
        <ele>1917</ele>
        <time>2021-08-11T13:13:07.282Z</time>
      </trkpt>
      <trkpt lat="46.87819" lon="8.47854">
        <ele>1918</ele>
        <time>2021-08-11T13:13:08.282Z</time>
      </trkpt>
      <trkpt lat="46.87819" lon="8.47853">
        <ele>1918</ele>
        <time>2021-08-11T13:13:09.282Z</time>
      </trkpt>
      <trkpt lat="46.87819" lon="8.47852">
        <ele>1919</ele>
        <time>2021-08-11T13:13:10.282Z</time>
      </trkpt>
      <trkpt lat="46.87819" lon="8.47852">
        <ele>1919</ele>
        <time>2021-08-11T13:13:11.282Z</time>
      </trkpt>
      <trkpt lat="46.87819" lon="8.47852">
        <ele>1919</ele>
        <time>2021-08-11T13:13:12.282Z</time>
      </trkpt>
      <trkpt lat="46.87819" lon="8.47851">
        <ele>1919</ele>
        <time>2021-08-11T13:13:13.282Z</time>
      </trkpt>
      <trkpt lat="46.8782" lon="8.4785">
        <ele>1919</ele>
        <time>2021-08-11T13:13:14.282Z</time>
      </trkpt>
      <trkpt lat="46.87821" lon="8.47849">
        <ele>1919</ele>
        <time>2021-08-11T13:13:15.282Z</time>
      </trkpt>
      <trkpt lat="46.87822" lon="8.47847">
        <ele>1919</ele>
        <time>2021-08-11T13:13:16.282Z</time>
      </trkpt>
      <trkpt lat="46.87822" lon="8.47847">
        <ele>1919</ele>
        <time>2021-08-11T13:13:17.282Z</time>
      </trkpt>
      <trkpt lat="46.87822" lon="8.47846">
        <ele>1919</ele>
        <time>2021-08-11T13:13:18.282Z</time>
      </trkpt>
      <trkpt lat="46.87822" lon="8.47846">
        <ele>1919</ele>
        <time>2021-08-11T13:13:19.282Z</time>
      </trkpt>
      <trkpt lat="46.87822" lon="8.47845">
        <ele>1920</ele>
        <time>2021-08-11T13:13:20.282Z</time>
      </trkpt>
      <trkpt lat="46.87822" lon="8.47844">
        <ele>1920</ele>
        <time>2021-08-11T13:13:21.282Z</time>
      </trkpt>
      <trkpt lat="46.87821" lon="8.47843">
        <ele>1920</ele>
        <time>2021-08-11T13:13:22.282Z</time>
      </trkpt>
      <trkpt lat="46.8782" lon="8.47843">
        <ele>1920</ele>
        <time>2021-08-11T13:13:23.282Z</time>
      </trkpt>
      <trkpt lat="46.87819" lon="8.47843">
        <ele>1919</ele>
        <time>2021-08-11T13:13:24.282Z</time>
      </trkpt>
      <trkpt lat="46.87818" lon="8.47842">
        <ele>1919</ele>
        <time>2021-08-11T13:13:25.281Z</time>
      </trkpt>
      <trkpt lat="46.87817" lon="8.47842">
        <ele>1919</ele>
        <time>2021-08-11T13:13:26.282Z</time>
      </trkpt>
      <trkpt lat="46.87816" lon="8.47842">
        <ele>1919</ele>
        <time>2021-08-11T13:13:27.282Z</time>
      </trkpt>
      <trkpt lat="46.87816" lon="8.47842">
        <ele>1920</ele>
        <time>2021-08-11T13:13:28.282Z</time>
      </trkpt>
      <trkpt lat="46.87816" lon="8.47842">
        <ele>1920</ele>
        <time>2021-08-11T13:13:29.281Z</time>
      </trkpt>
      <trkpt lat="46.87817" lon="8.47841">
        <ele>1921</ele>
        <time>2021-08-11T13:13:30.282Z</time>
      </trkpt>
      <trkpt lat="46.87817" lon="8.4784">
        <ele>1921</ele>
        <time>2021-08-11T13:13:31.282Z</time>
      </trkpt>
      <trkpt lat="46.87816" lon="8.4784">
        <ele>1921</ele>
        <time>2021-08-11T13:13:32.281Z</time>
      </trkpt>
      <trkpt lat="46.87814" lon="8.47839">
        <ele>1922</ele>
        <time>2021-08-11T13:13:33.282Z</time>
      </trkpt>
      <trkpt lat="46.87813" lon="8.47838">
        <ele>1922</ele>
        <time>2021-08-11T13:13:34.282Z</time>
      </trkpt>
      <trkpt lat="46.87812" lon="8.47837">
        <ele>1922</ele>
        <time>2021-08-11T13:13:35.282Z</time>
      </trkpt>
      <trkpt lat="46.87812" lon="8.47836">
        <ele>1923</ele>
        <time>2021-08-11T13:13:36.282Z</time>
      </trkpt>
      <trkpt lat="46.87812" lon="8.47836">
        <ele>1923</ele>
        <time>2021-08-11T13:13:37.282Z</time>
      </trkpt>
      <trkpt lat="46.87812" lon="8.47836">
        <ele>1923</ele>
        <time>2021-08-11T13:13:38.281Z</time>
      </trkpt>
      <trkpt lat="46.87812" lon="8.47836">
        <ele>1923</ele>
        <time>2021-08-11T13:13:39.282Z</time>
      </trkpt>
      <trkpt lat="46.87812" lon="8.47835">
        <ele>1923</ele>
        <time>2021-08-11T13:13:40.282Z</time>
      </trkpt>
      <trkpt lat="46.87812" lon="8.47835">
        <ele>1923</ele>
        <time>2021-08-11T13:13:41.282Z</time>
      </trkpt>
      <trkpt lat="46.87812" lon="8.47834">
        <ele>1923</ele>
        <time>2021-08-11T13:13:42.281Z</time>
      </trkpt>
      <trkpt lat="46.87811" lon="8.47833">
        <ele>1923</ele>
        <time>2021-08-11T13:13:43.282Z</time>
      </trkpt>
      <trkpt lat="46.87811" lon="8.47832">
        <ele>1923</ele>
        <time>2021-08-11T13:13:44.282Z</time>
      </trkpt>
      <trkpt lat="46.87811" lon="8.47831">
        <ele>1923</ele>
        <time>2021-08-11T13:13:45.281Z</time>
      </trkpt>
      <trkpt lat="46.87811" lon="8.4783">
        <ele>1923</ele>
        <time>2021-08-11T13:13:46.282Z</time>
      </trkpt>
      <trkpt lat="46.8781" lon="8.4783">
        <ele>1923</ele>
        <time>2021-08-11T13:13:47.282Z</time>
      </trkpt>
      <trkpt lat="46.8781" lon="8.4783">
        <ele>1923</ele>
        <time>2021-08-11T13:13:48.282Z</time>
      </trkpt>
      <trkpt lat="46.8781" lon="8.4783">
        <ele>1924</ele>
        <time>2021-08-11T13:13:49.282Z</time>
      </trkpt>
      <trkpt lat="46.87811" lon="8.47829">
        <ele>1924</ele>
        <time>2021-08-11T13:13:50.282Z</time>
      </trkpt>
      <trkpt lat="46.87811" lon="8.47828">
        <ele>1924</ele>
        <time>2021-08-11T13:13:51.282Z</time>
      </trkpt>
      <trkpt lat="46.87811" lon="8.47827">
        <ele>1924</ele>
        <time>2021-08-11T13:13:52.282Z</time>
      </trkpt>
      <trkpt lat="46.87811" lon="8.47827">
        <ele>1925</ele>
        <time>2021-08-11T13:13:53.282Z</time>
      </trkpt>
      <trkpt lat="46.8781" lon="8.47827">
        <ele>1925</ele>
        <time>2021-08-11T13:13:54.282Z</time>
      </trkpt>
      <trkpt lat="46.8781" lon="8.47827">
        <ele>1925</ele>
        <time>2021-08-11T13:13:55.282Z</time>
      </trkpt>
      <trkpt lat="46.87809" lon="8.47826">
        <ele>1925</ele>
        <time>2021-08-11T13:13:56.281Z</time>
      </trkpt>
      <trkpt lat="46.87809" lon="8.47826">
        <ele>1926</ele>
        <time>2021-08-11T13:13:57.282Z</time>
      </trkpt>
      <trkpt lat="46.87809" lon="8.47825">
        <ele>1926</ele>
        <time>2021-08-11T13:13:58.282Z</time>
      </trkpt>
      <trkpt lat="46.87809" lon="8.47824">
        <ele>1926</ele>
        <time>2021-08-11T13:13:59.282Z</time>
      </trkpt>
      <trkpt lat="46.87809" lon="8.47823">
        <ele>1926</ele>
        <time>2021-08-11T13:14:00.281Z</time>
      </trkpt>
      <trkpt lat="46.87809" lon="8.47822">
        <ele>1926</ele>
        <time>2021-08-11T13:14:01.282Z</time>
      </trkpt>
      <trkpt lat="46.87809" lon="8.47821">
        <ele>1926</ele>
        <time>2021-08-11T13:14:02.281Z</time>
      </trkpt>
      <trkpt lat="46.87809" lon="8.4782">
        <ele>1926</ele>
        <time>2021-08-11T13:14:03.281Z</time>
      </trkpt>
      <trkpt lat="46.8781" lon="8.47819">
        <ele>1925</ele>
        <time>2021-08-11T13:14:04.281Z</time>
      </trkpt>
      <trkpt lat="46.8781" lon="8.47818">
        <ele>1925</ele>
        <time>2021-08-11T13:14:05.282Z</time>
      </trkpt>
      <trkpt lat="46.8781" lon="8.47817">
        <ele>1925</ele>
        <time>2021-08-11T13:14:06.281Z</time>
      </trkpt>
      <trkpt lat="46.87809" lon="8.47816">
        <ele>1925</ele>
        <time>2021-08-11T13:14:07.282Z</time>
      </trkpt>
      <trkpt lat="46.87809" lon="8.47814">
        <ele>1924</ele>
        <time>2021-08-11T13:14:08.281Z</time>
      </trkpt>
      <trkpt lat="46.87808" lon="8.47813">
        <ele>1924</ele>
        <time>2021-08-11T13:14:09.282Z</time>
      </trkpt>
      <trkpt lat="46.87808" lon="8.47813">
        <ele>1924</ele>
        <time>2021-08-11T13:14:10.282Z</time>
      </trkpt>
      <trkpt lat="46.87807" lon="8.47812">
        <ele>1925</ele>
        <time>2021-08-11T13:14:11.282Z</time>
      </trkpt>
      <trkpt lat="46.87806" lon="8.47811">
        <ele>1925</ele>
        <time>2021-08-11T13:14:12.282Z</time>
      </trkpt>
      <trkpt lat="46.87806" lon="8.47809">
        <ele>1925</ele>
        <time>2021-08-11T13:14:13.282Z</time>
      </trkpt>
      <trkpt lat="46.87805" lon="8.47807">
        <ele>1926</ele>
        <time>2021-08-11T13:14:14.282Z</time>
      </trkpt>
      <trkpt lat="46.87805" lon="8.47806">
        <ele>1926</ele>
        <time>2021-08-11T13:14:15.282Z</time>
      </trkpt>
      <trkpt lat="46.87804" lon="8.47805">
        <ele>1926</ele>
        <time>2021-08-11T13:14:16.282Z</time>
      </trkpt>
      <trkpt lat="46.87803" lon="8.47804">
        <ele>1926</ele>
        <time>2021-08-11T13:14:17.282Z</time>
      </trkpt>
      <trkpt lat="46.87802" lon="8.47803">
        <ele>1926</ele>
        <time>2021-08-11T13:14:18.281Z</time>
      </trkpt>
      <trkpt lat="46.87801" lon="8.47802">
        <ele>1926</ele>
        <time>2021-08-11T13:14:19.282Z</time>
      </trkpt>
      <trkpt lat="46.87801" lon="8.47802">
        <ele>1926</ele>
        <time>2021-08-11T13:14:20.282Z</time>
      </trkpt>
      <trkpt lat="46.878" lon="8.47801">
        <ele>1926</ele>
        <time>2021-08-11T13:14:21.282Z</time>
      </trkpt>
      <trkpt lat="46.878" lon="8.478">
        <ele>1926</ele>
        <time>2021-08-11T13:14:22.282Z</time>
      </trkpt>
      <trkpt lat="46.878" lon="8.478">
        <ele>1926</ele>
        <time>2021-08-11T13:14:23.282Z</time>
      </trkpt>
      <trkpt lat="46.878" lon="8.47799">
        <ele>1926</ele>
        <time>2021-08-11T13:14:24.281Z</time>
      </trkpt>
      <trkpt lat="46.878" lon="8.47799">
        <ele>1926</ele>
        <time>2021-08-11T13:14:25.282Z</time>
      </trkpt>
      <trkpt lat="46.878" lon="8.47798">
        <ele>1926</ele>
        <time>2021-08-11T13:14:26.282Z</time>
      </trkpt>
      <trkpt lat="46.87799" lon="8.47797">
        <ele>1926</ele>
        <time>2021-08-11T13:14:27.281Z</time>
      </trkpt>
      <trkpt lat="46.87799" lon="8.47797">
        <ele>1926</ele>
        <time>2021-08-11T13:14:28.282Z</time>
      </trkpt>
      <trkpt lat="46.87798" lon="8.47796">
        <ele>1926</ele>
        <time>2021-08-11T13:14:29.281Z</time>
      </trkpt>
      <trkpt lat="46.87798" lon="8.47796">
        <ele>1927</ele>
        <time>2021-08-11T13:14:30.282Z</time>
      </trkpt>
      <trkpt lat="46.87798" lon="8.47795">
        <ele>1927</ele>
        <time>2021-08-11T13:14:31.282Z</time>
      </trkpt>
      <trkpt lat="46.87798" lon="8.47795">
        <ele>1927</ele>
        <time>2021-08-11T13:14:32.281Z</time>
      </trkpt>
      <trkpt lat="46.87798" lon="8.47795">
        <ele>1928</ele>
        <time>2021-08-11T13:14:33.282Z</time>
      </trkpt>
      <trkpt lat="46.87797" lon="8.47795">
        <ele>1928</ele>
        <time>2021-08-11T13:14:34.281Z</time>
      </trkpt>
      <trkpt lat="46.87796" lon="8.47795">
        <ele>1928</ele>
        <time>2021-08-11T13:14:35.281Z</time>
      </trkpt>
      <trkpt lat="46.87796" lon="8.47795">
        <ele>1928</ele>
        <time>2021-08-11T13:14:36.282Z</time>
      </trkpt>
      <trkpt lat="46.87796" lon="8.47794">
        <ele>1928</ele>
        <time>2021-08-11T13:14:37.282Z</time>
      </trkpt>
      <trkpt lat="46.87795" lon="8.47794">
        <ele>1927</ele>
        <time>2021-08-11T13:14:38.282Z</time>
      </trkpt>
      <trkpt lat="46.87795" lon="8.47793">
        <ele>1927</ele>
        <time>2021-08-11T13:14:39.282Z</time>
      </trkpt>
      <trkpt lat="46.87795" lon="8.47792">
        <ele>1927</ele>
        <time>2021-08-11T13:14:40.281Z</time>
      </trkpt>
      <trkpt lat="46.87794" lon="8.47792">
        <ele>1926</ele>
        <time>2021-08-11T13:14:41.282Z</time>
      </trkpt>
      <trkpt lat="46.87794" lon="8.47791">
        <ele>1926</ele>
        <time>2021-08-11T13:14:42.281Z</time>
      </trkpt>
      <trkpt lat="46.87793" lon="8.4779">
        <ele>1927</ele>
        <time>2021-08-11T13:14:43.281Z</time>
      </trkpt>
      <trkpt lat="46.87793" lon="8.4779">
        <ele>1927</ele>
        <time>2021-08-11T13:14:44.282Z</time>
      </trkpt>
      <trkpt lat="46.87793" lon="8.47789">
        <ele>1927</ele>
        <time>2021-08-11T13:14:45.282Z</time>
      </trkpt>
      <trkpt lat="46.87793" lon="8.47789">
        <ele>1926</ele>
        <time>2021-08-11T13:14:46.282Z</time>
      </trkpt>
      <trkpt lat="46.87793" lon="8.4779">
        <ele>1931</ele>
        <time>2021-08-11T13:14:47.282Z</time>
      </trkpt>
      <trkpt lat="46.87793" lon="8.47789">
        <ele>1932</ele>
        <time>2021-08-11T13:14:48.282Z</time>
      </trkpt>
      <trkpt lat="46.87793" lon="8.47789">
        <ele>1932</ele>
        <time>2021-08-11T13:14:49.281Z</time>
      </trkpt>
      <trkpt lat="46.87793" lon="8.47789">
        <ele>1931</ele>
        <time>2021-08-11T13:14:50.281Z</time>
      </trkpt>
      <trkpt lat="46.87794" lon="8.47789">
        <ele>1931</ele>
        <time>2021-08-11T13:14:51.282Z</time>
      </trkpt>
      <trkpt lat="46.87794" lon="8.47789">
        <ele>1931</ele>
        <time>2021-08-11T13:14:52.283Z</time>
      </trkpt>
      <trkpt lat="46.87793" lon="8.47789">
        <ele>1933</ele>
        <time>2021-08-11T13:14:53.282Z</time>
      </trkpt>
      <trkpt lat="46.87793" lon="8.47789">
        <ele>1933</ele>
        <time>2021-08-11T13:14:54.283Z</time>
      </trkpt>
      <trkpt lat="46.87793" lon="8.47789">
        <ele>1934</ele>
        <time>2021-08-11T13:14:55.282Z</time>
      </trkpt>
      <trkpt lat="46.87793" lon="8.47789">
        <ele>1933</ele>
        <time>2021-08-11T13:14:56.283Z</time>
      </trkpt>
      <trkpt lat="46.87794" lon="8.47789">
        <ele>1934</ele>
        <time>2021-08-11T13:14:57.283Z</time>
      </trkpt>
      <trkpt lat="46.87794" lon="8.47788">
        <ele>1934</ele>
        <time>2021-08-11T13:14:58.283Z</time>
      </trkpt>
      <trkpt lat="46.87794" lon="8.47788">
        <ele>1934</ele>
        <time>2021-08-11T13:14:59.283Z</time>
      </trkpt>
      <trkpt lat="46.87793" lon="8.47788">
        <ele>1940</ele>
        <time>2021-08-11T13:15:00.283Z</time>
      </trkpt>
      <trkpt lat="46.87793" lon="8.47787">
        <ele>1940</ele>
        <time>2021-08-11T13:15:01.283Z</time>
      </trkpt>
      <trkpt lat="46.87792" lon="8.4779">
        <ele>1936</ele>
        <time>2021-08-11T13:15:02.285Z</time>
      </trkpt>
      <trkpt lat="46.87792" lon="8.4779">
        <ele>1936</ele>
        <time>2021-08-11T13:15:03.285Z</time>
      </trkpt>
      <trkpt lat="46.87792" lon="8.4779">
        <ele>1935</ele>
        <time>2021-08-11T13:15:04.284Z</time>
      </trkpt>
      <trkpt lat="46.87792" lon="8.4779">
        <ele>1935</ele>
        <time>2021-08-11T13:15:05.285Z</time>
      </trkpt>
      <trkpt lat="46.87794" lon="8.47789">
        <ele>1935</ele>
        <time>2021-08-11T13:15:06.284Z</time>
      </trkpt>
      <trkpt lat="46.87791" lon="8.47788">
        <ele>1928</ele>
        <time>2021-08-11T13:15:07.285Z</time>
      </trkpt>
      <trkpt lat="46.87791" lon="8.47789">
        <ele>1930</ele>
        <time>2021-08-11T13:15:08.285Z</time>
      </trkpt>
      <trkpt lat="46.8779" lon="8.47788">
        <ele>1932</ele>
        <time>2021-08-11T13:15:09.285Z</time>
      </trkpt>
      <trkpt lat="46.87791" lon="8.47787">
        <ele>1932</ele>
        <time>2021-08-11T13:15:10.284Z</time>
      </trkpt>
      <trkpt lat="46.87792" lon="8.47787">
        <ele>1932</ele>
        <time>2021-08-11T13:15:11.284Z</time>
      </trkpt>
      <trkpt lat="46.87792" lon="8.47787">
        <ele>1932</ele>
        <time>2021-08-11T13:15:12.285Z</time>
      </trkpt>
      <trkpt lat="46.87791" lon="8.47786">
        <ele>1933</ele>
        <time>2021-08-11T13:15:13.284Z</time>
      </trkpt>
      <trkpt lat="46.87791" lon="8.47786">
        <ele>1933</ele>
        <time>2021-08-11T13:15:14.285Z</time>
      </trkpt>
      <trkpt lat="46.8779" lon="8.47785">
        <ele>1933</ele>
        <time>2021-08-11T13:15:15.285Z</time>
      </trkpt>
      <trkpt lat="46.8779" lon="8.47784">
        <ele>1933</ele>
        <time>2021-08-11T13:15:16.284Z</time>
      </trkpt>
      <trkpt lat="46.87789" lon="8.47784">
        <ele>1934</ele>
        <time>2021-08-11T13:15:17.285Z</time>
      </trkpt>
      <trkpt lat="46.87788" lon="8.47783">
        <ele>1935</ele>
        <time>2021-08-11T13:15:18.285Z</time>
      </trkpt>
      <trkpt lat="46.87787" lon="8.47782">
        <ele>1936</ele>
        <time>2021-08-11T13:15:19.284Z</time>
      </trkpt>
      <trkpt lat="46.87787" lon="8.47782">
        <ele>1936</ele>
        <time>2021-08-11T13:15:20.284Z</time>
      </trkpt>
      <trkpt lat="46.87786" lon="8.47782">
        <ele>1937</ele>
        <time>2021-08-11T13:15:21.285Z</time>
      </trkpt>
      <trkpt lat="46.87785" lon="8.47781">
        <ele>1937</ele>
        <time>2021-08-11T13:15:22.284Z</time>
      </trkpt>
      <trkpt lat="46.87785" lon="8.4778">
        <ele>1937</ele>
        <time>2021-08-11T13:15:23.285Z</time>
      </trkpt>
      <trkpt lat="46.87785" lon="8.4778">
        <ele>1937</ele>
        <time>2021-08-11T13:15:24.285Z</time>
      </trkpt>
      <trkpt lat="46.87785" lon="8.4778">
        <ele>1937</ele>
        <time>2021-08-11T13:15:25.285Z</time>
      </trkpt>
      <trkpt lat="46.87785" lon="8.47779">
        <ele>1937</ele>
        <time>2021-08-11T13:15:26.284Z</time>
      </trkpt>
      <trkpt lat="46.87784" lon="8.47778">
        <ele>1938</ele>
        <time>2021-08-11T13:15:27.284Z</time>
      </trkpt>
      <trkpt lat="46.87784" lon="8.47778">
        <ele>1938</ele>
        <time>2021-08-11T13:15:28.285Z</time>
      </trkpt>
      <trkpt lat="46.87784" lon="8.47777">
        <ele>1938</ele>
        <time>2021-08-11T13:15:29.284Z</time>
      </trkpt>
      <trkpt lat="46.87784" lon="8.47777">
        <ele>1938</ele>
        <time>2021-08-11T13:15:30.285Z</time>
      </trkpt>
      <trkpt lat="46.87784" lon="8.47776">
        <ele>1938</ele>
        <time>2021-08-11T13:15:31.285Z</time>
      </trkpt>
      <trkpt lat="46.87784" lon="8.47776">
        <ele>1937</ele>
        <time>2021-08-11T13:15:32.284Z</time>
      </trkpt>
      <trkpt lat="46.87784" lon="8.47775">
        <ele>1936</ele>
        <time>2021-08-11T13:15:39.407Z</time>
      </trkpt>
      <trkpt lat="46.87784" lon="8.47775">
        <ele>1936</ele>
        <time>2021-08-11T13:15:40.407Z</time>
      </trkpt>
      <trkpt lat="46.87784" lon="8.47774">
        <ele>1936</ele>
        <time>2021-08-11T13:15:41.406Z</time>
      </trkpt>
      <trkpt lat="46.87784" lon="8.47774">
        <ele>1936</ele>
        <time>2021-08-11T13:15:42.407Z</time>
      </trkpt>
      <trkpt lat="46.87783" lon="8.47774">
        <ele>1936</ele>
        <time>2021-08-11T13:15:57.385Z</time>
      </trkpt>
      <trkpt lat="46.87783" lon="8.47773">
        <ele>1936</ele>
        <time>2021-08-11T13:15:58.385Z</time>
      </trkpt>
      <trkpt lat="46.87783" lon="8.47773">
        <ele>1936</ele>
        <time>2021-08-11T13:15:59.384Z</time>
      </trkpt>
      <trkpt lat="46.87783" lon="8.47772">
        <ele>1936</ele>
        <time>2021-08-11T13:16:00.385Z</time>
      </trkpt>
      <trkpt lat="46.87783" lon="8.47772">
        <ele>1936</ele>
        <time>2021-08-11T13:16:01.385Z</time>
      </trkpt>
      <trkpt lat="46.87783" lon="8.47772">
        <ele>1936</ele>
        <time>2021-08-11T13:16:02.385Z</time>
      </trkpt>
      <trkpt lat="46.87782" lon="8.47771">
        <ele>1936</ele>
        <time>2021-08-11T13:16:03.385Z</time>
      </trkpt>
      <trkpt lat="46.87782" lon="8.47771">
        <ele>1936</ele>
        <time>2021-08-11T13:16:16.385Z</time>
      </trkpt>
      <trkpt lat="46.87781" lon="8.4777">
        <ele>1936</ele>
        <time>2021-08-11T13:16:17.384Z</time>
      </trkpt>
      <trkpt lat="46.87781" lon="8.47769">
        <ele>1936</ele>
        <time>2021-08-11T13:16:18.385Z</time>
      </trkpt>
      <trkpt lat="46.8778" lon="8.47769">
        <ele>1937</ele>
        <time>2021-08-11T13:16:19.385Z</time>
      </trkpt>
      <trkpt lat="46.8778" lon="8.47768">
        <ele>1938</ele>
        <time>2021-08-11T13:16:20.385Z</time>
      </trkpt>
      <trkpt lat="46.87779" lon="8.47768">
        <ele>1938</ele>
        <time>2021-08-11T13:16:21.385Z</time>
      </trkpt>
      <trkpt lat="46.8778" lon="8.47768">
        <ele>1939</ele>
        <time>2021-08-11T13:16:22.385Z</time>
      </trkpt>
      <trkpt lat="46.87779" lon="8.47767">
        <ele>1940</ele>
        <time>2021-08-11T13:16:23.385Z</time>
      </trkpt>
      <trkpt lat="46.87779" lon="8.47767">
        <ele>1940</ele>
        <time>2021-08-11T13:16:24.385Z</time>
      </trkpt>
      <trkpt lat="46.87778" lon="8.47766">
        <ele>1939</ele>
        <time>2021-08-11T13:16:25.385Z</time>
      </trkpt>
      <trkpt lat="46.87778" lon="8.47766">
        <ele>1939</ele>
        <time>2021-08-11T13:16:26.385Z</time>
      </trkpt>
      <trkpt lat="46.87777" lon="8.47766">
        <ele>1939</ele>
        <time>2021-08-11T13:16:27.384Z</time>
      </trkpt>
      <trkpt lat="46.87777" lon="8.47765">
        <ele>1939</ele>
        <time>2021-08-11T13:16:28.385Z</time>
      </trkpt>
      <trkpt lat="46.87776" lon="8.47765">
        <ele>1939</ele>
        <time>2021-08-11T13:16:29.385Z</time>
      </trkpt>
      <trkpt lat="46.87776" lon="8.47764">
        <ele>1939</ele>
        <time>2021-08-11T13:16:30.385Z</time>
      </trkpt>
      <trkpt lat="46.87776" lon="8.47764">
        <ele>1939</ele>
        <time>2021-08-11T13:16:31.385Z</time>
      </trkpt>
      <trkpt lat="46.87776" lon="8.47763">
        <ele>1939</ele>
        <time>2021-08-11T13:16:32.385Z</time>
      </trkpt>
      <trkpt lat="46.87775" lon="8.47763">
        <ele>1939</ele>
        <time>2021-08-11T13:16:33.385Z</time>
      </trkpt>
      <trkpt lat="46.87775" lon="8.47762">
        <ele>1939</ele>
        <time>2021-08-11T13:16:39.387Z</time>
      </trkpt>
      <trkpt lat="46.87775" lon="8.47761">
        <ele>1938</ele>
        <time>2021-08-11T13:16:40.388Z</time>
      </trkpt>
      <trkpt lat="46.87775" lon="8.47761">
        <ele>1938</ele>
        <time>2021-08-11T13:16:41.388Z</time>
      </trkpt>
      <trkpt lat="46.87775" lon="8.4776">
        <ele>1938</ele>
        <time>2021-08-11T13:16:42.387Z</time>
      </trkpt>
      <trkpt lat="46.87775" lon="8.47759">
        <ele>1938</ele>
        <time>2021-08-11T13:16:43.388Z</time>
      </trkpt>
      <trkpt lat="46.87774" lon="8.47759">
        <ele>1938</ele>
        <time>2021-08-11T13:16:44.388Z</time>
      </trkpt>
      <trkpt lat="46.87774" lon="8.47758">
        <ele>1938</ele>
        <time>2021-08-11T13:17:07.406Z</time>
      </trkpt>
      <trkpt lat="46.87774" lon="8.47758">
        <ele>1938</ele>
        <time>2021-08-11T13:17:08.407Z</time>
      </trkpt>
      <trkpt lat="46.87773" lon="8.47757">
        <ele>1938</ele>
        <time>2021-08-11T13:17:09.407Z</time>
      </trkpt>
      <trkpt lat="46.87773" lon="8.47755">
        <ele>1937</ele>
        <time>2021-08-11T13:17:10.407Z</time>
      </trkpt>
      <trkpt lat="46.87773" lon="8.47755">
        <ele>1937</ele>
        <time>2021-08-11T13:17:11.407Z</time>
      </trkpt>
      <trkpt lat="46.87773" lon="8.47755">
        <ele>1937</ele>
        <time>2021-08-11T13:17:12.407Z</time>
      </trkpt>
      <trkpt lat="46.87772" lon="8.47754">
        <ele>1937</ele>
        <time>2021-08-11T13:17:13.406Z</time>
      </trkpt>
      <trkpt lat="46.87772" lon="8.47754">
        <ele>1937</ele>
        <time>2021-08-11T13:17:14.407Z</time>
      </trkpt>
      <trkpt lat="46.87773" lon="8.47753">
        <ele>1937</ele>
        <time>2021-08-11T13:17:15.407Z</time>
      </trkpt>
      <trkpt lat="46.87773" lon="8.47753">
        <ele>1938</ele>
        <time>2021-08-11T13:17:16.407Z</time>
      </trkpt>
      <trkpt lat="46.87773" lon="8.47754">
        <ele>1938</ele>
        <time>2021-08-11T13:17:17.407Z</time>
      </trkpt>
      <trkpt lat="46.87773" lon="8.47753">
        <ele>1939</ele>
        <time>2021-08-11T13:17:18.407Z</time>
      </trkpt>
      <trkpt lat="46.87773" lon="8.47752">
        <ele>1939</ele>
        <time>2021-08-11T13:17:19.407Z</time>
      </trkpt>
      <trkpt lat="46.87774" lon="8.47751">
        <ele>1940</ele>
        <time>2021-08-11T13:17:20.406Z</time>
      </trkpt>
      <trkpt lat="46.87773" lon="8.47751">
        <ele>1940</ele>
        <time>2021-08-11T13:17:21.407Z</time>
      </trkpt>
      <trkpt lat="46.87773" lon="8.4775">
        <ele>1940</ele>
        <time>2021-08-11T13:17:22.407Z</time>
      </trkpt>
      <trkpt lat="46.87772" lon="8.4775">
        <ele>1940</ele>
        <time>2021-08-11T13:17:23.406Z</time>
      </trkpt>
      <trkpt lat="46.87772" lon="8.4775">
        <ele>1940</ele>
        <time>2021-08-11T13:17:24.407Z</time>
      </trkpt>
      <trkpt lat="46.87771" lon="8.47749">
        <ele>1941</ele>
        <time>2021-08-11T13:17:25.407Z</time>
      </trkpt>
      <trkpt lat="46.87771" lon="8.47749">
        <ele>1941</ele>
        <time>2021-08-11T13:17:26.406Z</time>
      </trkpt>
      <trkpt lat="46.87771" lon="8.47749">
        <ele>1941</ele>
        <time>2021-08-11T13:17:27.407Z</time>
      </trkpt>
      <trkpt lat="46.87771" lon="8.47749">
        <ele>1941</ele>
        <time>2021-08-11T13:17:28.407Z</time>
      </trkpt>
      <trkpt lat="46.87771" lon="8.47748">
        <ele>1941</ele>
        <time>2021-08-11T13:17:29.406Z</time>
      </trkpt>
      <trkpt lat="46.87771" lon="8.47747">
        <ele>1942</ele>
        <time>2021-08-11T13:17:30.406Z</time>
      </trkpt>
      <trkpt lat="46.87771" lon="8.47746">
        <ele>1942</ele>
        <time>2021-08-11T13:17:31.406Z</time>
      </trkpt>
      <trkpt lat="46.8777" lon="8.47746">
        <ele>1942</ele>
        <time>2021-08-11T13:17:32.406Z</time>
      </trkpt>
      <trkpt lat="46.8777" lon="8.47746">
        <ele>1942</ele>
        <time>2021-08-11T13:17:33.407Z</time>
      </trkpt>
      <trkpt lat="46.8777" lon="8.47746">
        <ele>1943</ele>
        <time>2021-08-11T13:17:34.407Z</time>
      </trkpt>
      <trkpt lat="46.87769" lon="8.47745">
        <ele>1944</ele>
        <time>2021-08-11T13:17:35.407Z</time>
      </trkpt>
      <trkpt lat="46.87769" lon="8.47745">
        <ele>1944</ele>
        <time>2021-08-11T13:17:36.407Z</time>
      </trkpt>
      <trkpt lat="46.87768" lon="8.47744">
        <ele>1945</ele>
        <time>2021-08-11T13:17:37.407Z</time>
      </trkpt>
      <trkpt lat="46.87768" lon="8.47744">
        <ele>1945</ele>
        <time>2021-08-11T13:17:38.406Z</time>
      </trkpt>
      <trkpt lat="46.87767" lon="8.47743">
        <ele>1945</ele>
        <time>2021-08-11T13:17:39.407Z</time>
      </trkpt>
      <trkpt lat="46.87767" lon="8.47743">
        <ele>1945</ele>
        <time>2021-08-11T13:17:40.407Z</time>
      </trkpt>
      <trkpt lat="46.87766" lon="8.47743">
        <ele>1945</ele>
        <time>2021-08-11T13:17:41.406Z</time>
      </trkpt>
      <trkpt lat="46.87765" lon="8.47744">
        <ele>1945</ele>
        <time>2021-08-11T13:17:42.407Z</time>
      </trkpt>
      <trkpt lat="46.87765" lon="8.47744">
        <ele>1946</ele>
        <time>2021-08-11T13:17:43.407Z</time>
      </trkpt>
      <trkpt lat="46.87765" lon="8.47744">
        <ele>1947</ele>
        <time>2021-08-11T13:17:44.407Z</time>
      </trkpt>
      <trkpt lat="46.87764" lon="8.47744">
        <ele>1947</ele>
        <time>2021-08-11T13:17:45.408Z</time>
      </trkpt>
      <trkpt lat="46.87764" lon="8.47744">
        <ele>1947</ele>
        <time>2021-08-11T13:17:46.408Z</time>
      </trkpt>
      <trkpt lat="46.87764" lon="8.47743">
        <ele>1947</ele>
        <time>2021-08-11T13:17:47.407Z</time>
      </trkpt>
      <trkpt lat="46.87764" lon="8.47743">
        <ele>1947</ele>
        <time>2021-08-11T13:17:48.407Z</time>
      </trkpt>
      <trkpt lat="46.87763" lon="8.47743">
        <ele>1947</ele>
        <time>2021-08-11T13:17:49.408Z</time>
      </trkpt>
      <trkpt lat="46.87763" lon="8.47743">
        <ele>1947</ele>
        <time>2021-08-11T13:17:50.408Z</time>
      </trkpt>
      <trkpt lat="46.87763" lon="8.47741">
        <ele>1948</ele>
        <time>2021-08-11T13:17:51.408Z</time>
      </trkpt>
      <trkpt lat="46.87763" lon="8.47741">
        <ele>1947</ele>
        <time>2021-08-11T13:17:52.408Z</time>
      </trkpt>
      <trkpt lat="46.87762" lon="8.4774">
        <ele>1947</ele>
        <time>2021-08-11T13:17:53.407Z</time>
      </trkpt>
      <trkpt lat="46.87761" lon="8.47739">
        <ele>1947</ele>
        <time>2021-08-11T13:17:54.408Z</time>
      </trkpt>
      <trkpt lat="46.8776" lon="8.4774">
        <ele>1946</ele>
        <time>2021-08-11T13:17:55.408Z</time>
      </trkpt>
      <trkpt lat="46.8776" lon="8.4774">
        <ele>1946</ele>
        <time>2021-08-11T13:17:56.407Z</time>
      </trkpt>
      <trkpt lat="46.87759" lon="8.47739">
        <ele>1946</ele>
        <time>2021-08-11T13:17:57.408Z</time>
      </trkpt>
      <trkpt lat="46.87758" lon="8.47739">
        <ele>1945</ele>
        <time>2021-08-11T13:17:58.408Z</time>
      </trkpt>
      <trkpt lat="46.87757" lon="8.47739">
        <ele>1945</ele>
        <time>2021-08-11T13:17:59.407Z</time>
      </trkpt>
      <trkpt lat="46.87757" lon="8.47739">
        <ele>1945</ele>
        <time>2021-08-11T13:18:00.408Z</time>
      </trkpt>
      <trkpt lat="46.87756" lon="8.47738">
        <ele>1945</ele>
        <time>2021-08-11T13:18:01.408Z</time>
      </trkpt>
      <trkpt lat="46.87756" lon="8.47738">
        <ele>1944</ele>
        <time>2021-08-11T13:18:02.407Z</time>
      </trkpt>
      <trkpt lat="46.87755" lon="8.47737">
        <ele>1944</ele>
        <time>2021-08-11T13:18:03.408Z</time>
      </trkpt>
      <trkpt lat="46.87755" lon="8.47737">
        <ele>1943</ele>
        <time>2021-08-11T13:18:04.408Z</time>
      </trkpt>
      <trkpt lat="46.87755" lon="8.47737">
        <ele>1943</ele>
        <time>2021-08-11T13:18:05.407Z</time>
      </trkpt>
      <trkpt lat="46.87755" lon="8.47736">
        <ele>1943</ele>
        <time>2021-08-11T13:18:06.408Z</time>
      </trkpt>
      <trkpt lat="46.87755" lon="8.47736">
        <ele>1943</ele>
        <time>2021-08-11T13:18:07.408Z</time>
      </trkpt>
      <trkpt lat="46.87755" lon="8.47735">
        <ele>1943</ele>
        <time>2021-08-11T13:18:08.408Z</time>
      </trkpt>
      <trkpt lat="46.87755" lon="8.47735">
        <ele>1942</ele>
        <time>2021-08-11T13:18:09.408Z</time>
      </trkpt>
      <trkpt lat="46.87755" lon="8.47734">
        <ele>1942</ele>
        <time>2021-08-11T13:18:10.408Z</time>
      </trkpt>
      <trkpt lat="46.87754" lon="8.47734">
        <ele>1941</ele>
        <time>2021-08-11T13:18:11.409Z</time>
      </trkpt>
      <trkpt lat="46.87754" lon="8.47733">
        <ele>1941</ele>
        <time>2021-08-11T13:18:12.409Z</time>
      </trkpt>
      <trkpt lat="46.87754" lon="8.47733">
        <ele>1942</ele>
        <time>2021-08-11T13:18:13.409Z</time>
      </trkpt>
      <trkpt lat="46.87754" lon="8.47732">
        <ele>1942</ele>
        <time>2021-08-11T13:18:14.409Z</time>
      </trkpt>
      <trkpt lat="46.87754" lon="8.47731">
        <ele>1942</ele>
        <time>2021-08-11T13:18:15.409Z</time>
      </trkpt>
      <trkpt lat="46.87753" lon="8.47731">
        <ele>1942</ele>
        <time>2021-08-11T13:18:16.409Z</time>
      </trkpt>
      <trkpt lat="46.87753" lon="8.47731">
        <ele>1942</ele>
        <time>2021-08-11T13:18:17.409Z</time>
      </trkpt>
      <trkpt lat="46.87753" lon="8.4773">
        <ele>1942</ele>
        <time>2021-08-11T13:18:18.409Z</time>
      </trkpt>
      <trkpt lat="46.87752" lon="8.47729">
        <ele>1943</ele>
        <time>2021-08-11T13:18:19.409Z</time>
      </trkpt>
      <trkpt lat="46.87752" lon="8.47729">
        <ele>1943</ele>
        <time>2021-08-11T13:18:20.409Z</time>
      </trkpt>
      <trkpt lat="46.87752" lon="8.47728">
        <ele>1944</ele>
        <time>2021-08-11T13:18:21.409Z</time>
      </trkpt>
      <trkpt lat="46.87751" lon="8.47728">
        <ele>1945</ele>
        <time>2021-08-11T13:18:22.409Z</time>
      </trkpt>
      <trkpt lat="46.8775" lon="8.47728">
        <ele>1946</ele>
        <time>2021-08-11T13:18:23.409Z</time>
      </trkpt>
      <trkpt lat="46.87749" lon="8.47728">
        <ele>1946</ele>
        <time>2021-08-11T13:18:24.409Z</time>
      </trkpt>
      <trkpt lat="46.87749" lon="8.47728">
        <ele>1947</ele>
        <time>2021-08-11T13:18:25.409Z</time>
      </trkpt>
      <trkpt lat="46.87749" lon="8.47727">
        <ele>1947</ele>
        <time>2021-08-11T13:18:26.409Z</time>
      </trkpt>
      <trkpt lat="46.87748" lon="8.47727">
        <ele>1948</ele>
        <time>2021-08-11T13:18:27.409Z</time>
      </trkpt>
      <trkpt lat="46.87748" lon="8.47727">
        <ele>1948</ele>
        <time>2021-08-11T13:18:28.409Z</time>
      </trkpt>
      <trkpt lat="46.87748" lon="8.47726">
        <ele>1948</ele>
        <time>2021-08-11T13:18:29.409Z</time>
      </trkpt>
      <trkpt lat="46.87748" lon="8.47726">
        <ele>1948</ele>
        <time>2021-08-11T13:18:30.409Z</time>
      </trkpt>
      <trkpt lat="46.87747" lon="8.47725">
        <ele>1949</ele>
        <time>2021-08-11T13:18:31.409Z</time>
      </trkpt>
      <trkpt lat="46.87747" lon="8.47725">
        <ele>1949</ele>
        <time>2021-08-11T13:18:32.409Z</time>
      </trkpt>
      <trkpt lat="46.87746" lon="8.47724">
        <ele>1949</ele>
        <time>2021-08-11T13:18:33.409Z</time>
      </trkpt>
      <trkpt lat="46.87746" lon="8.47724">
        <ele>1949</ele>
        <time>2021-08-11T13:18:34.409Z</time>
      </trkpt>
      <trkpt lat="46.87745" lon="8.47723">
        <ele>1950</ele>
        <time>2021-08-11T13:18:35.409Z</time>
      </trkpt>
      <trkpt lat="46.87745" lon="8.47722">
        <ele>1949</ele>
        <time>2021-08-11T13:18:36.409Z</time>
      </trkpt>
      <trkpt lat="46.87745" lon="8.47721">
        <ele>1949</ele>
        <time>2021-08-11T13:18:37.409Z</time>
      </trkpt>
      <trkpt lat="46.87744" lon="8.47721">
        <ele>1949</ele>
        <time>2021-08-11T13:18:38.409Z</time>
      </trkpt>
      <trkpt lat="46.87744" lon="8.47721">
        <ele>1949</ele>
        <time>2021-08-11T13:18:39.409Z</time>
      </trkpt>
      <trkpt lat="46.87743" lon="8.4772">
        <ele>1949</ele>
        <time>2021-08-11T13:18:40.409Z</time>
      </trkpt>
      <trkpt lat="46.87743" lon="8.4772">
        <ele>1949</ele>
        <time>2021-08-11T13:18:41.409Z</time>
      </trkpt>
      <trkpt lat="46.87742" lon="8.47719">
        <ele>1949</ele>
        <time>2021-08-11T13:18:42.409Z</time>
      </trkpt>
      <trkpt lat="46.87742" lon="8.47719">
        <ele>1949</ele>
        <time>2021-08-11T13:18:43.409Z</time>
      </trkpt>
      <trkpt lat="46.87742" lon="8.47718">
        <ele>1949</ele>
        <time>2021-08-11T13:18:44.409Z</time>
      </trkpt>
      <trkpt lat="46.87742" lon="8.47717">
        <ele>1949</ele>
        <time>2021-08-11T13:18:45.409Z</time>
      </trkpt>
      <trkpt lat="46.87742" lon="8.47717">
        <ele>1949</ele>
        <time>2021-08-11T13:18:46.409Z</time>
      </trkpt>
      <trkpt lat="46.87742" lon="8.47717">
        <ele>1949</ele>
        <time>2021-08-11T13:18:47.409Z</time>
      </trkpt>
      <trkpt lat="46.87742" lon="8.47717">
        <ele>1950</ele>
        <time>2021-08-11T13:18:48.409Z</time>
      </trkpt>
      <trkpt lat="46.87742" lon="8.47716">
        <ele>1950</ele>
        <time>2021-08-11T13:18:49.409Z</time>
      </trkpt>
      <trkpt lat="46.87741" lon="8.47717">
        <ele>1954</ele>
        <time>2021-08-11T13:18:50.410Z</time>
      </trkpt>
      <trkpt lat="46.87742" lon="8.47714">
        <ele>1956</ele>
        <time>2021-08-11T13:18:51.410Z</time>
      </trkpt>
      <trkpt lat="46.87742" lon="8.47714">
        <ele>1956</ele>
        <time>2021-08-11T13:18:52.409Z</time>
      </trkpt>
      <trkpt lat="46.87743" lon="8.47714">
        <ele>1956</ele>
        <time>2021-08-11T13:18:53.409Z</time>
      </trkpt>
      <trkpt lat="46.87743" lon="8.47714">
        <ele>1956</ele>
        <time>2021-08-11T13:18:54.410Z</time>
      </trkpt>
      <trkpt lat="46.87744" lon="8.47715">
        <ele>1956</ele>
        <time>2021-08-11T13:18:55.409Z</time>
      </trkpt>
      <trkpt lat="46.87745" lon="8.47715">
        <ele>1956</ele>
        <time>2021-08-11T13:18:56.410Z</time>
      </trkpt>
      <trkpt lat="46.87745" lon="8.47715">
        <ele>1956</ele>
        <time>2021-08-11T13:18:57.410Z</time>
      </trkpt>
      <trkpt lat="46.87746" lon="8.47715">
        <ele>1956</ele>
        <time>2021-08-11T13:18:58.410Z</time>
      </trkpt>
      <trkpt lat="46.87746" lon="8.47713">
        <ele>1956</ele>
        <time>2021-08-11T13:18:59.409Z</time>
      </trkpt>
      <trkpt lat="46.87746" lon="8.47712">
        <ele>1956</ele>
        <time>2021-08-11T13:19:00.409Z</time>
      </trkpt>
      <trkpt lat="46.87746" lon="8.4771">
        <ele>1956</ele>
        <time>2021-08-11T13:19:01.410Z</time>
      </trkpt>
      <trkpt lat="46.87746" lon="8.47709">
        <ele>1957</ele>
        <time>2021-08-11T13:19:02.410Z</time>
      </trkpt>
      <trkpt lat="46.87746" lon="8.47708">
        <ele>1957</ele>
        <time>2021-08-11T13:19:03.410Z</time>
      </trkpt>
      <trkpt lat="46.87746" lon="8.47707">
        <ele>1957</ele>
        <time>2021-08-11T13:19:04.409Z</time>
      </trkpt>
      <trkpt lat="46.87746" lon="8.47707">
        <ele>1957</ele>
        <time>2021-08-11T13:19:05.410Z</time>
      </trkpt>
      <trkpt lat="46.87746" lon="8.47706">
        <ele>1957</ele>
        <time>2021-08-11T13:19:06.409Z</time>
      </trkpt>
      <trkpt lat="46.87747" lon="8.47705">
        <ele>1957</ele>
        <time>2021-08-11T13:19:07.410Z</time>
      </trkpt>
      <trkpt lat="46.87747" lon="8.47704">
        <ele>1957</ele>
        <time>2021-08-11T13:19:08.410Z</time>
      </trkpt>
      <trkpt lat="46.87747" lon="8.47703">
        <ele>1957</ele>
        <time>2021-08-11T13:19:09.410Z</time>
      </trkpt>
      <trkpt lat="46.87747" lon="8.47702">
        <ele>1957</ele>
        <time>2021-08-11T13:19:10.410Z</time>
      </trkpt>
      <trkpt lat="46.87747" lon="8.47701">
        <ele>1957</ele>
        <time>2021-08-11T13:19:11.410Z</time>
      </trkpt>
      <trkpt lat="46.87746" lon="8.47701">
        <ele>1957</ele>
        <time>2021-08-11T13:19:12.410Z</time>
      </trkpt>
      <trkpt lat="46.87746" lon="8.47701">
        <ele>1957</ele>
        <time>2021-08-11T13:19:13.410Z</time>
      </trkpt>
      <trkpt lat="46.87745" lon="8.477">
        <ele>1957</ele>
        <time>2021-08-11T13:19:14.409Z</time>
      </trkpt>
      <trkpt lat="46.87745" lon="8.477">
        <ele>1956</ele>
        <time>2021-08-11T13:19:15.410Z</time>
      </trkpt>
      <trkpt lat="46.87745" lon="8.47699">
        <ele>1956</ele>
        <time>2021-08-11T13:19:16.410Z</time>
      </trkpt>
      <trkpt lat="46.87744" lon="8.47699">
        <ele>1956</ele>
        <time>2021-08-11T13:19:17.410Z</time>
      </trkpt>
      <trkpt lat="46.87744" lon="8.47698">
        <ele>1956</ele>
        <time>2021-08-11T13:19:18.409Z</time>
      </trkpt>
      <trkpt lat="46.87743" lon="8.47698">
        <ele>1957</ele>
        <time>2021-08-11T13:19:19.410Z</time>
      </trkpt>
      <trkpt lat="46.87742" lon="8.47698">
        <ele>1958</ele>
        <time>2021-08-11T13:19:20.410Z</time>
      </trkpt>
      <trkpt lat="46.87741" lon="8.47698">
        <ele>1958</ele>
        <time>2021-08-11T13:19:21.410Z</time>
      </trkpt>
      <trkpt lat="46.8774" lon="8.47698">
        <ele>1959</ele>
        <time>2021-08-11T13:19:22.410Z</time>
      </trkpt>
      <trkpt lat="46.8774" lon="8.47698">
        <ele>1959</ele>
        <time>2021-08-11T13:19:23.409Z</time>
      </trkpt>
      <trkpt lat="46.8774" lon="8.47697">
        <ele>1959</ele>
        <time>2021-08-11T13:19:24.410Z</time>
      </trkpt>
      <trkpt lat="46.87739" lon="8.47698">
        <ele>1960</ele>
        <time>2021-08-11T13:19:25.409Z</time>
      </trkpt>
      <trkpt lat="46.87739" lon="8.47698">
        <ele>1960</ele>
        <time>2021-08-11T13:19:26.410Z</time>
      </trkpt>
      <trkpt lat="46.87739" lon="8.47698">
        <ele>1959</ele>
        <time>2021-08-11T13:19:27.410Z</time>
      </trkpt>
      <trkpt lat="46.87739" lon="8.47697">
        <ele>1959</ele>
        <time>2021-08-11T13:19:28.410Z</time>
      </trkpt>
      <trkpt lat="46.87739" lon="8.47697">
        <ele>1959</ele>
        <time>2021-08-11T13:19:29.409Z</time>
      </trkpt>
      <trkpt lat="46.87739" lon="8.47696">
        <ele>1959</ele>
        <time>2021-08-11T13:19:30.410Z</time>
      </trkpt>
      <trkpt lat="46.87739" lon="8.47696">
        <ele>1959</ele>
        <time>2021-08-11T13:19:31.410Z</time>
      </trkpt>
      <trkpt lat="46.87739" lon="8.47695">
        <ele>1959</ele>
        <time>2021-08-11T13:19:32.410Z</time>
      </trkpt>
      <trkpt lat="46.87739" lon="8.47695">
        <ele>1959</ele>
        <time>2021-08-11T13:19:33.409Z</time>
      </trkpt>
      <trkpt lat="46.87738" lon="8.47694">
        <ele>1959</ele>
        <time>2021-08-11T13:19:34.410Z</time>
      </trkpt>
      <trkpt lat="46.87738" lon="8.47693">
        <ele>1959</ele>
        <time>2021-08-11T13:19:35.410Z</time>
      </trkpt>
      <trkpt lat="46.87738" lon="8.47692">
        <ele>1959</ele>
        <time>2021-08-11T13:19:36.409Z</time>
      </trkpt>
      <trkpt lat="46.87739" lon="8.47691">
        <ele>1959</ele>
        <time>2021-08-11T13:19:56.514Z</time>
      </trkpt>
      <trkpt lat="46.87739" lon="8.47691">
        <ele>1959</ele>
        <time>2021-08-11T13:19:57.514Z</time>
      </trkpt>
      <trkpt lat="46.87738" lon="8.4769">
        <ele>1959</ele>
        <time>2021-08-11T13:19:58.513Z</time>
      </trkpt>
      <trkpt lat="46.87738" lon="8.4769">
        <ele>1960</ele>
        <time>2021-08-11T13:19:59.513Z</time>
      </trkpt>
      <trkpt lat="46.87738" lon="8.47689">
        <ele>1960</ele>
        <time>2021-08-11T13:20:00.514Z</time>
      </trkpt>
      <trkpt lat="46.87738" lon="8.47689">
        <ele>1960</ele>
        <time>2021-08-11T13:20:01.514Z</time>
      </trkpt>
      <trkpt lat="46.87738" lon="8.47688">
        <ele>1960</ele>
        <time>2021-08-11T13:20:03.617Z</time>
      </trkpt>
      <trkpt lat="46.87738" lon="8.47688">
        <ele>1960</ele>
        <time>2021-08-11T13:20:09.387Z</time>
      </trkpt>
      <trkpt lat="46.87738" lon="8.47687">
        <ele>1961</ele>
        <time>2021-08-11T13:20:10.387Z</time>
      </trkpt>
      <trkpt lat="46.87739" lon="8.47687">
        <ele>1962</ele>
        <time>2021-08-11T13:20:22.135Z</time>
      </trkpt>
      <trkpt lat="46.87739" lon="8.47687">
        <ele>1962</ele>
        <time>2021-08-11T13:20:23.136Z</time>
      </trkpt>
      <trkpt lat="46.87739" lon="8.47686">
        <ele>1962</ele>
        <time>2021-08-11T13:20:27.013Z</time>
      </trkpt>
      <trkpt lat="46.87738" lon="8.47686">
        <ele>1962</ele>
        <time>2021-08-11T13:20:28.013Z</time>
      </trkpt>
      <trkpt lat="46.87738" lon="8.47686">
        <ele>1962</ele>
        <time>2021-08-11T13:20:29.013Z</time>
      </trkpt>
      <trkpt lat="46.87738" lon="8.47685">
        <ele>1962</ele>
        <time>2021-08-11T13:20:30.012Z</time>
      </trkpt>
      <trkpt lat="46.87738" lon="8.47684">
        <ele>1962</ele>
        <time>2021-08-11T13:20:31.013Z</time>
      </trkpt>
      <trkpt lat="46.87737" lon="8.47683">
        <ele>1962</ele>
        <time>2021-08-11T13:20:32.012Z</time>
      </trkpt>
      <trkpt lat="46.87737" lon="8.47683">
        <ele>1962</ele>
        <time>2021-08-11T13:20:33.013Z</time>
      </trkpt>
      <trkpt lat="46.87735" lon="8.47683">
        <ele>1963</ele>
        <time>2021-08-11T13:20:39.013Z</time>
      </trkpt>
      <trkpt lat="46.87734" lon="8.47683">
        <ele>1964</ele>
        <time>2021-08-11T13:20:40.014Z</time>
      </trkpt>
      <trkpt lat="46.87733" lon="8.47683">
        <ele>1964</ele>
        <time>2021-08-11T13:21:03.779Z</time>
      </trkpt>
      <trkpt lat="46.87733" lon="8.47684">
        <ele>1965</ele>
        <time>2021-08-11T13:21:04.779Z</time>
      </trkpt>
      <trkpt lat="46.87733" lon="8.47684">
        <ele>1965</ele>
        <time>2021-08-11T13:21:05.779Z</time>
      </trkpt>
      <trkpt lat="46.87732" lon="8.47684">
        <ele>1966</ele>
        <time>2021-08-11T13:21:06.779Z</time>
      </trkpt>
      <trkpt lat="46.87732" lon="8.47683">
        <ele>1966</ele>
        <time>2021-08-11T13:21:07.779Z</time>
      </trkpt>
      <trkpt lat="46.87732" lon="8.47684">
        <ele>1966</ele>
        <time>2021-08-11T13:21:08.779Z</time>
      </trkpt>
      <trkpt lat="46.87732" lon="8.47683">
        <ele>1966</ele>
        <time>2021-08-11T13:21:13.786Z</time>
      </trkpt>
      <trkpt lat="46.87732" lon="8.47682">
        <ele>1963</ele>
        <time>2021-08-11T13:21:14.787Z</time>
      </trkpt>
      <trkpt lat="46.87732" lon="8.47682">
        <ele>1963</ele>
        <time>2021-08-11T13:21:15.787Z</time>
      </trkpt>
      <trkpt lat="46.87731" lon="8.47681">
        <ele>1963</ele>
        <time>2021-08-11T13:21:28.907Z</time>
      </trkpt>
      <trkpt lat="46.8773" lon="8.47681">
        <ele>1963</ele>
        <time>2021-08-11T13:21:50.765Z</time>
      </trkpt>
      <trkpt lat="46.8773" lon="8.4768">
        <ele>1963</ele>
        <time>2021-08-11T13:22:19.517Z</time>
      </trkpt>
      <trkpt lat="46.87729" lon="8.4768">
        <ele>1964</ele>
        <time>2021-08-11T13:22:20.517Z</time>
      </trkpt>
      <trkpt lat="46.87729" lon="8.4768">
        <ele>1964</ele>
        <time>2021-08-11T13:22:36.386Z</time>
      </trkpt>
      <trkpt lat="46.87728" lon="8.47679">
        <ele>1964</ele>
        <time>2021-08-11T13:22:49.137Z</time>
      </trkpt>
      <trkpt lat="46.87727" lon="8.47679">
        <ele>1964</ele>
        <time>2021-08-11T13:22:50.137Z</time>
      </trkpt>
      <trkpt lat="46.87727" lon="8.47678">
        <ele>1965</ele>
        <time>2021-08-11T13:22:51.137Z</time>
      </trkpt>
      <trkpt lat="46.87727" lon="8.47678">
        <ele>1965</ele>
        <time>2021-08-11T13:22:53.246Z</time>
      </trkpt>
      <trkpt lat="46.87728" lon="8.47676">
        <ele>1969</ele>
        <time>2021-08-11T13:22:54.246Z</time>
      </trkpt>
      <trkpt lat="46.87727" lon="8.47676">
        <ele>1968</ele>
        <time>2021-08-11T13:22:57.002Z</time>
      </trkpt>
      <trkpt lat="46.87728" lon="8.47676">
        <ele>1967</ele>
        <time>2021-08-11T13:22:58.003Z</time>
      </trkpt>
      <trkpt lat="46.87728" lon="8.47676">
        <ele>1968</ele>
        <time>2021-08-11T13:22:59.003Z</time>
      </trkpt>
      <trkpt lat="46.87728" lon="8.47676">
        <ele>1968</ele>
        <time>2021-08-11T13:23:00.002Z</time>
      </trkpt>
      <trkpt lat="46.87727" lon="8.47676">
        <ele>1967</ele>
        <time>2021-08-11T13:23:09.012Z</time>
      </trkpt>
      <trkpt lat="46.87727" lon="8.47676">
        <ele>1968</ele>
        <time>2021-08-11T13:23:10.012Z</time>
      </trkpt>
      <trkpt lat="46.87726" lon="8.47676">
        <ele>1968</ele>
        <time>2021-08-11T13:23:11.011Z</time>
      </trkpt>
      <trkpt lat="46.87726" lon="8.47675">
        <ele>1968</ele>
        <time>2021-08-11T13:23:12.012Z</time>
      </trkpt>
      <trkpt lat="46.87726" lon="8.47675">
        <ele>1967</ele>
        <time>2021-08-11T13:23:13.011Z</time>
      </trkpt>
      <trkpt lat="46.87726" lon="8.47675">
        <ele>1967</ele>
        <time>2021-08-11T13:23:14.012Z</time>
      </trkpt>
      <trkpt lat="46.87726" lon="8.47674">
        <ele>1966</ele>
        <time>2021-08-11T13:23:15.012Z</time>
      </trkpt>
      <trkpt lat="46.87725" lon="8.47673">
        <ele>1965</ele>
        <time>2021-08-11T13:23:16.011Z</time>
      </trkpt>
      <trkpt lat="46.87724" lon="8.47673">
        <ele>1965</ele>
        <time>2021-08-11T13:23:21.030Z</time>
      </trkpt>
      <trkpt lat="46.87724" lon="8.47673">
        <ele>1965</ele>
        <time>2021-08-11T13:23:22.031Z</time>
      </trkpt>
      <trkpt lat="46.87725" lon="8.47672">
        <ele>1965</ele>
        <time>2021-08-11T13:23:23.031Z</time>
      </trkpt>
      <trkpt lat="46.87725" lon="8.47671">
        <ele>1966</ele>
        <time>2021-08-11T13:23:29.140Z</time>
      </trkpt>
      <trkpt lat="46.87725" lon="8.47671">
        <ele>1966</ele>
        <time>2021-08-11T13:23:30.139Z</time>
      </trkpt>
      <trkpt lat="46.87725" lon="8.4767">
        <ele>1967</ele>
        <time>2021-08-11T13:23:31.140Z</time>
      </trkpt>
      <trkpt lat="46.87726" lon="8.4767">
        <ele>1967</ele>
        <time>2021-08-11T13:23:32.140Z</time>
      </trkpt>
      <trkpt lat="46.87726" lon="8.4767">
        <ele>1967</ele>
        <time>2021-08-11T13:23:33.139Z</time>
      </trkpt>
      <trkpt lat="46.87726" lon="8.4767">
        <ele>1967</ele>
        <time>2021-08-11T13:23:34.140Z</time>
      </trkpt>
      <trkpt lat="46.87727" lon="8.4767">
        <ele>1968</ele>
        <time>2021-08-11T13:23:35.139Z</time>
      </trkpt>
      <trkpt lat="46.87727" lon="8.4767">
        <ele>1968</ele>
        <time>2021-08-11T13:23:36.140Z</time>
      </trkpt>
      <trkpt lat="46.87727" lon="8.4767">
        <ele>1969</ele>
        <time>2021-08-11T13:23:37.139Z</time>
      </trkpt>
      <trkpt lat="46.87727" lon="8.4767">
        <ele>1969</ele>
        <time>2021-08-11T13:23:38.139Z</time>
      </trkpt>
      <trkpt lat="46.87728" lon="8.4767">
        <ele>1969</ele>
        <time>2021-08-11T13:23:39.140Z</time>
      </trkpt>
      <trkpt lat="46.87728" lon="8.47669">
        <ele>1969</ele>
        <time>2021-08-11T13:23:40.140Z</time>
      </trkpt>
      <trkpt lat="46.87728" lon="8.47669">
        <ele>1969</ele>
        <time>2021-08-11T13:23:41.140Z</time>
      </trkpt>
      <trkpt lat="46.87728" lon="8.47668">
        <ele>1973</ele>
        <time>2021-08-11T13:23:42.140Z</time>
      </trkpt>
      <trkpt lat="46.87728" lon="8.47667">
        <ele>1973</ele>
        <time>2021-08-11T13:23:43.140Z</time>
      </trkpt>
      <trkpt lat="46.87727" lon="8.47667">
        <ele>1972</ele>
        <time>2021-08-11T13:23:44.139Z</time>
      </trkpt>
      <trkpt lat="46.87727" lon="8.47666">
        <ele>1972</ele>
        <time>2021-08-11T13:23:45.140Z</time>
      </trkpt>
      <trkpt lat="46.87726" lon="8.47666">
        <ele>1972</ele>
        <time>2021-08-11T13:23:46.139Z</time>
      </trkpt>
      <trkpt lat="46.87725" lon="8.47666">
        <ele>1973</ele>
        <time>2021-08-11T13:23:47.140Z</time>
      </trkpt>
      <trkpt lat="46.87724" lon="8.47666">
        <ele>1973</ele>
        <time>2021-08-11T13:23:48.139Z</time>
      </trkpt>
      <trkpt lat="46.87724" lon="8.47665">
        <ele>1972</ele>
        <time>2021-08-11T13:23:49.139Z</time>
      </trkpt>
      <trkpt lat="46.87723" lon="8.47665">
        <ele>1972</ele>
        <time>2021-08-11T13:23:50.140Z</time>
      </trkpt>
      <trkpt lat="46.87723" lon="8.47665">
        <ele>1972</ele>
        <time>2021-08-11T13:23:51.140Z</time>
      </trkpt>
      <trkpt lat="46.87722" lon="8.47665">
        <ele>1972</ele>
        <time>2021-08-11T13:23:52.140Z</time>
      </trkpt>
      <trkpt lat="46.87722" lon="8.47665">
        <ele>1972</ele>
        <time>2021-08-11T13:23:53.139Z</time>
      </trkpt>
      <trkpt lat="46.87722" lon="8.47665">
        <ele>1971</ele>
        <time>2021-08-11T13:23:54.140Z</time>
      </trkpt>
      <trkpt lat="46.87723" lon="8.47664">
        <ele>1971</ele>
        <time>2021-08-11T13:23:55.139Z</time>
      </trkpt>
      <trkpt lat="46.87724" lon="8.47664">
        <ele>1970</ele>
        <time>2021-08-11T13:24:00.261Z</time>
      </trkpt>
      <trkpt lat="46.87724" lon="8.47664">
        <ele>1970</ele>
        <time>2021-08-11T13:24:01.260Z</time>
      </trkpt>
      <trkpt lat="46.87725" lon="8.47662">
        <ele>1970</ele>
        <time>2021-08-11T13:24:02.260Z</time>
      </trkpt>
      <trkpt lat="46.87725" lon="8.47661">
        <ele>1971</ele>
        <time>2021-08-11T13:24:03.261Z</time>
      </trkpt>
      <trkpt lat="46.87724" lon="8.4766">
        <ele>1972</ele>
        <time>2021-08-11T13:24:04.260Z</time>
      </trkpt>
      <trkpt lat="46.87724" lon="8.4766">
        <ele>1972</ele>
        <time>2021-08-11T13:24:12.383Z</time>
      </trkpt>
      <trkpt lat="46.87724" lon="8.4766">
        <ele>1972</ele>
        <time>2021-08-11T13:24:13.383Z</time>
      </trkpt>
      <trkpt lat="46.87725" lon="8.47659">
        <ele>1973</ele>
        <time>2021-08-11T13:24:14.384Z</time>
      </trkpt>
      <trkpt lat="46.87725" lon="8.47658">
        <ele>1973</ele>
        <time>2021-08-11T13:24:19.532Z</time>
      </trkpt>
      <trkpt lat="46.87725" lon="8.47657">
        <ele>1973</ele>
        <time>2021-08-11T13:24:20.531Z</time>
      </trkpt>
      <trkpt lat="46.87725" lon="8.47657">
        <ele>1973</ele>
        <time>2021-08-11T13:24:21.532Z</time>
      </trkpt>
      <trkpt lat="46.87725" lon="8.47657">
        <ele>1973</ele>
        <time>2021-08-11T13:24:22.531Z</time>
      </trkpt>
      <trkpt lat="46.87724" lon="8.47656">
        <ele>1972</ele>
        <time>2021-08-11T13:24:23.531Z</time>
      </trkpt>
      <trkpt lat="46.87724" lon="8.47655">
        <ele>1972</ele>
        <time>2021-08-11T13:24:24.532Z</time>
      </trkpt>
      <trkpt lat="46.87724" lon="8.47655">
        <ele>1972</ele>
        <time>2021-08-11T13:24:25.532Z</time>
      </trkpt>
      <trkpt lat="46.87724" lon="8.47654">
        <ele>1971</ele>
        <time>2021-08-11T13:24:26.532Z</time>
      </trkpt>
      <trkpt lat="46.87724" lon="8.47654">
        <ele>1971</ele>
        <time>2021-08-11T13:24:27.532Z</time>
      </trkpt>
      <trkpt lat="46.87724" lon="8.47653">
        <ele>1971</ele>
        <time>2021-08-11T13:24:28.531Z</time>
      </trkpt>
      <trkpt lat="46.87724" lon="8.47652">
        <ele>1971</ele>
        <time>2021-08-11T13:24:29.532Z</time>
      </trkpt>
      <trkpt lat="46.87724" lon="8.47651">
        <ele>1971</ele>
        <time>2021-08-11T13:24:30.532Z</time>
      </trkpt>
      <trkpt lat="46.87724" lon="8.4765">
        <ele>1971</ele>
        <time>2021-08-11T13:24:38.633Z</time>
      </trkpt>
      <trkpt lat="46.87723" lon="8.47649">
        <ele>1972</ele>
        <time>2021-08-11T13:24:39.632Z</time>
      </trkpt>
      <trkpt lat="46.87722" lon="8.47649">
        <ele>1973</ele>
        <time>2021-08-11T13:24:40.632Z</time>
      </trkpt>
      <trkpt lat="46.87721" lon="8.47649">
        <ele>1974</ele>
        <time>2021-08-11T13:24:53.776Z</time>
      </trkpt>
      <trkpt lat="46.8772" lon="8.47649">
        <ele>1974</ele>
        <time>2021-08-11T13:24:54.776Z</time>
      </trkpt>
      <trkpt lat="46.87719" lon="8.47648">
        <ele>1975</ele>
        <time>2021-08-11T13:24:56.642Z</time>
      </trkpt>
      <trkpt lat="46.87719" lon="8.47648">
        <ele>1976</ele>
        <time>2021-08-11T13:24:57.641Z</time>
      </trkpt>
      <trkpt lat="46.87719" lon="8.47648">
        <ele>1977</ele>
        <time>2021-08-11T13:25:03.524Z</time>
      </trkpt>
      <trkpt lat="46.87719" lon="8.47647">
        <ele>1978</ele>
        <time>2021-08-11T13:25:04.525Z</time>
      </trkpt>
      <trkpt lat="46.87719" lon="8.47647">
        <ele>1978</ele>
        <time>2021-08-11T13:25:27.377Z</time>
      </trkpt>
      <trkpt lat="46.87719" lon="8.47647">
        <ele>1977</ele>
        <time>2021-08-11T13:25:28.378Z</time>
      </trkpt>
      <trkpt lat="46.87719" lon="8.47647">
        <ele>1978</ele>
        <time>2021-08-11T13:25:29.378Z</time>
      </trkpt>
      <trkpt lat="46.87718" lon="8.47646">
        <ele>1978</ele>
        <time>2021-08-11T13:25:30.378Z</time>
      </trkpt>
      <trkpt lat="46.87718" lon="8.47646">
        <ele>1978</ele>
        <time>2021-08-11T13:25:31.378Z</time>
      </trkpt>
      <trkpt lat="46.87718" lon="8.47645">
        <ele>1978</ele>
        <time>2021-08-11T13:25:32.378Z</time>
      </trkpt>
      <trkpt lat="46.87717" lon="8.47644">
        <ele>1979</ele>
        <time>2021-08-11T13:25:33.377Z</time>
      </trkpt>
      <trkpt lat="46.87717" lon="8.47644">
        <ele>1979</ele>
        <time>2021-08-11T13:25:34.378Z</time>
      </trkpt>
      <trkpt lat="46.87716" lon="8.47644">
        <ele>1978</ele>
        <time>2021-08-11T13:25:35.378Z</time>
      </trkpt>
      <trkpt lat="46.87716" lon="8.47643">
        <ele>1978</ele>
        <time>2021-08-11T13:25:48.554Z</time>
      </trkpt>
      <trkpt lat="46.87716" lon="8.47643">
        <ele>1978</ele>
        <time>2021-08-11T13:25:49.554Z</time>
      </trkpt>
      <trkpt lat="46.87715" lon="8.47643">
        <ele>1978</ele>
        <time>2021-08-11T13:25:50.554Z</time>
      </trkpt>
      <trkpt lat="46.87714" lon="8.47643">
        <ele>1979</ele>
        <time>2021-08-11T13:25:52.636Z</time>
      </trkpt>
      <trkpt lat="46.87714" lon="8.47644">
        <ele>1979</ele>
        <time>2021-08-11T13:25:53.635Z</time>
      </trkpt>
      <trkpt lat="46.87714" lon="8.47644">
        <ele>1979</ele>
        <time>2021-08-11T13:25:54.636Z</time>
      </trkpt>
      <trkpt lat="46.87715" lon="8.47644">
        <ele>1979</ele>
        <time>2021-08-11T13:25:55.637Z</time>
      </trkpt>
      <trkpt lat="46.87715" lon="8.47644">
        <ele>1979</ele>
        <time>2021-08-11T13:25:56.637Z</time>
      </trkpt>
      <trkpt lat="46.87713" lon="8.47642">
        <ele>1980</ele>
        <time>2021-08-11T13:25:57.638Z</time>
      </trkpt>
      <trkpt lat="46.87714" lon="8.47642">
        <ele>1980</ele>
        <time>2021-08-11T13:25:58.637Z</time>
      </trkpt>
      <trkpt lat="46.87714" lon="8.47641">
        <ele>1980</ele>
        <time>2021-08-11T13:25:59.637Z</time>
      </trkpt>
      <trkpt lat="46.87714" lon="8.47641">
        <ele>1980</ele>
        <time>2021-08-11T13:26:00.638Z</time>
      </trkpt>
      <trkpt lat="46.87713" lon="8.4764">
        <ele>1982</ele>
        <time>2021-08-11T13:26:01.638Z</time>
      </trkpt>
      <trkpt lat="46.87712" lon="8.4764">
        <ele>1982</ele>
        <time>2021-08-11T13:26:02.637Z</time>
      </trkpt>
      <trkpt lat="46.87712" lon="8.47639">
        <ele>1983</ele>
        <time>2021-08-11T13:26:03.637Z</time>
      </trkpt>
      <trkpt lat="46.87711" lon="8.47639">
        <ele>1984</ele>
        <time>2021-08-11T13:26:04.638Z</time>
      </trkpt>
      <trkpt lat="46.87711" lon="8.47638">
        <ele>1985</ele>
        <time>2021-08-11T13:26:05.638Z</time>
      </trkpt>
      <trkpt lat="46.8771" lon="8.47637">
        <ele>1985</ele>
        <time>2021-08-11T13:26:06.638Z</time>
      </trkpt>
      <trkpt lat="46.8771" lon="8.47637">
        <ele>1986</ele>
        <time>2021-08-11T13:26:07.638Z</time>
      </trkpt>
      <trkpt lat="46.87709" lon="8.47636">
        <ele>1986</ele>
        <time>2021-08-11T13:26:08.638Z</time>
      </trkpt>
      <trkpt lat="46.87709" lon="8.47636">
        <ele>1987</ele>
        <time>2021-08-11T13:26:09.638Z</time>
      </trkpt>
      <trkpt lat="46.87708" lon="8.47636">
        <ele>1987</ele>
        <time>2021-08-11T13:26:10.638Z</time>
      </trkpt>
      <trkpt lat="46.87708" lon="8.47635">
        <ele>1986</ele>
        <time>2021-08-11T13:26:11.638Z</time>
      </trkpt>
      <trkpt lat="46.87708" lon="8.47634">
        <ele>1986</ele>
        <time>2021-08-11T13:26:12.638Z</time>
      </trkpt>
      <trkpt lat="46.87708" lon="8.47634">
        <ele>1986</ele>
        <time>2021-08-11T13:26:13.638Z</time>
      </trkpt>
      <trkpt lat="46.87708" lon="8.47634">
        <ele>1985</ele>
        <time>2021-08-11T13:26:19.635Z</time>
      </trkpt>
      <trkpt lat="46.87708" lon="8.47632">
        <ele>1985</ele>
        <time>2021-08-11T13:26:20.635Z</time>
      </trkpt>
      <trkpt lat="46.87708" lon="8.47632">
        <ele>1985</ele>
        <time>2021-08-11T13:26:21.636Z</time>
      </trkpt>
      <trkpt lat="46.87708" lon="8.47631">
        <ele>1985</ele>
        <time>2021-08-11T13:26:22.635Z</time>
      </trkpt>
      <trkpt lat="46.87707" lon="8.47631">
        <ele>1984</ele>
        <time>2021-08-11T13:26:23.635Z</time>
      </trkpt>
      <trkpt lat="46.87707" lon="8.4763">
        <ele>1984</ele>
        <time>2021-08-11T13:26:24.636Z</time>
      </trkpt>
      <trkpt lat="46.87707" lon="8.47629">
        <ele>1984</ele>
        <time>2021-08-11T13:26:25.636Z</time>
      </trkpt>
      <trkpt lat="46.87707" lon="8.47628">
        <ele>1984</ele>
        <time>2021-08-11T13:26:26.636Z</time>
      </trkpt>
      <trkpt lat="46.87706" lon="8.47628">
        <ele>1984</ele>
        <time>2021-08-11T13:26:27.635Z</time>
      </trkpt>
      <trkpt lat="46.87706" lon="8.47628">
        <ele>1984</ele>
        <time>2021-08-11T13:26:28.635Z</time>
      </trkpt>
      <trkpt lat="46.87706" lon="8.47627">
        <ele>1985</ele>
        <time>2021-08-11T13:26:29.636Z</time>
      </trkpt>
      <trkpt lat="46.87706" lon="8.47626">
        <ele>1985</ele>
        <time>2021-08-11T13:26:30.636Z</time>
      </trkpt>
      <trkpt lat="46.87706" lon="8.47626">
        <ele>1985</ele>
        <time>2021-08-11T13:26:31.636Z</time>
      </trkpt>
      <trkpt lat="46.87705" lon="8.47625">
        <ele>1985</ele>
        <time>2021-08-11T13:26:32.636Z</time>
      </trkpt>
      <trkpt lat="46.87705" lon="8.47625">
        <ele>1985</ele>
        <time>2021-08-11T13:26:33.636Z</time>
      </trkpt>
      <trkpt lat="46.87705" lon="8.47624">
        <ele>1985</ele>
        <time>2021-08-11T13:26:34.635Z</time>
      </trkpt>
      <trkpt lat="46.87705" lon="8.47624">
        <ele>1985</ele>
        <time>2021-08-11T13:26:35.636Z</time>
      </trkpt>
      <trkpt lat="46.87704" lon="8.47623">
        <ele>1985</ele>
        <time>2021-08-11T13:26:36.636Z</time>
      </trkpt>
      <trkpt lat="46.87704" lon="8.47623">
        <ele>1985</ele>
        <time>2021-08-11T13:26:37.636Z</time>
      </trkpt>
      <trkpt lat="46.87703" lon="8.47622">
        <ele>1985</ele>
        <time>2021-08-11T13:26:38.636Z</time>
      </trkpt>
      <trkpt lat="46.87703" lon="8.47622">
        <ele>1985</ele>
        <time>2021-08-11T13:26:39.635Z</time>
      </trkpt>
      <trkpt lat="46.87703" lon="8.47622">
        <ele>1986</ele>
        <time>2021-08-11T13:26:40.636Z</time>
      </trkpt>
      <trkpt lat="46.87703" lon="8.47621">
        <ele>1986</ele>
        <time>2021-08-11T13:26:41.636Z</time>
      </trkpt>
      <trkpt lat="46.87702" lon="8.47621">
        <ele>1986</ele>
        <time>2021-08-11T13:26:42.636Z</time>
      </trkpt>
      <trkpt lat="46.87702" lon="8.47621">
        <ele>1986</ele>
        <time>2021-08-11T13:26:43.635Z</time>
      </trkpt>
      <trkpt lat="46.87702" lon="8.47621">
        <ele>1985</ele>
        <time>2021-08-11T13:26:44.635Z</time>
      </trkpt>
      <trkpt lat="46.87701" lon="8.47616">
        <ele>1986</ele>
        <time>2021-08-11T13:26:45.637Z</time>
      </trkpt>
      <trkpt lat="46.877" lon="8.47616">
        <ele>1987</ele>
        <time>2021-08-11T13:26:46.637Z</time>
      </trkpt>
      <trkpt lat="46.877" lon="8.47615">
        <ele>1987</ele>
        <time>2021-08-11T13:26:47.637Z</time>
      </trkpt>
      <trkpt lat="46.87699" lon="8.47616">
        <ele>1988</ele>
        <time>2021-08-11T13:26:48.636Z</time>
      </trkpt>
      <trkpt lat="46.87699" lon="8.47616">
        <ele>1988</ele>
        <time>2021-08-11T13:26:49.636Z</time>
      </trkpt>
      <trkpt lat="46.87699" lon="8.47615">
        <ele>1989</ele>
        <time>2021-08-11T13:26:50.637Z</time>
      </trkpt>
      <trkpt lat="46.87699" lon="8.47615">
        <ele>1989</ele>
        <time>2021-08-11T13:26:51.637Z</time>
      </trkpt>
      <trkpt lat="46.87698" lon="8.47614">
        <ele>1989</ele>
        <time>2021-08-11T13:26:52.637Z</time>
      </trkpt>
      <trkpt lat="46.87698" lon="8.47614">
        <ele>1989</ele>
        <time>2021-08-11T13:26:53.637Z</time>
      </trkpt>
      <trkpt lat="46.87698" lon="8.47614">
        <ele>1989</ele>
        <time>2021-08-11T13:26:54.637Z</time>
      </trkpt>
      <trkpt lat="46.87698" lon="8.47614">
        <ele>1989</ele>
        <time>2021-08-11T13:26:55.637Z</time>
      </trkpt>
      <trkpt lat="46.87697" lon="8.47611">
        <ele>1985</ele>
        <time>2021-08-11T13:26:56.637Z</time>
      </trkpt>
      <trkpt lat="46.87697" lon="8.4761">
        <ele>1986</ele>
        <time>2021-08-11T13:26:57.637Z</time>
      </trkpt>
      <trkpt lat="46.87696" lon="8.4761">
        <ele>1986</ele>
        <time>2021-08-11T13:26:58.636Z</time>
      </trkpt>
      <trkpt lat="46.87696" lon="8.4761">
        <ele>1986</ele>
        <time>2021-08-11T13:26:59.637Z</time>
      </trkpt>
      <trkpt lat="46.87695" lon="8.47609">
        <ele>1987</ele>
        <time>2021-08-11T13:27:00.636Z</time>
      </trkpt>
      <trkpt lat="46.87695" lon="8.47609">
        <ele>1988</ele>
        <time>2021-08-11T13:27:01.636Z</time>
      </trkpt>
      <trkpt lat="46.87694" lon="8.47609">
        <ele>1988</ele>
        <time>2021-08-11T13:27:02.637Z</time>
      </trkpt>
      <trkpt lat="46.87694" lon="8.47609">
        <ele>1988</ele>
        <time>2021-08-11T13:27:03.637Z</time>
      </trkpt>
      <trkpt lat="46.87694" lon="8.47609">
        <ele>1988</ele>
        <time>2021-08-11T13:27:04.636Z</time>
      </trkpt>
      <trkpt lat="46.87693" lon="8.47608">
        <ele>1988</ele>
        <time>2021-08-11T13:27:05.637Z</time>
      </trkpt>
      <trkpt lat="46.87693" lon="8.47608">
        <ele>1988</ele>
        <time>2021-08-11T13:27:06.636Z</time>
      </trkpt>
      <trkpt lat="46.87693" lon="8.47608">
        <ele>1988</ele>
        <time>2021-08-11T13:27:07.637Z</time>
      </trkpt>
      <trkpt lat="46.87692" lon="8.47607">
        <ele>1988</ele>
        <time>2021-08-11T13:27:08.637Z</time>
      </trkpt>
      <trkpt lat="46.87692" lon="8.47607">
        <ele>1988</ele>
        <time>2021-08-11T13:27:09.637Z</time>
      </trkpt>
      <trkpt lat="46.87691" lon="8.47606">
        <ele>1988</ele>
        <time>2021-08-11T13:27:10.637Z</time>
      </trkpt>
      <trkpt lat="46.87691" lon="8.47606">
        <ele>1988</ele>
        <time>2021-08-11T13:27:11.637Z</time>
      </trkpt>
      <trkpt lat="46.8769" lon="8.47605">
        <ele>1988</ele>
        <time>2021-08-11T13:27:12.637Z</time>
      </trkpt>
      <trkpt lat="46.8769" lon="8.47605">
        <ele>1988</ele>
        <time>2021-08-11T13:27:13.637Z</time>
      </trkpt>
      <trkpt lat="46.8769" lon="8.47605">
        <ele>1988</ele>
        <time>2021-08-11T13:27:14.636Z</time>
      </trkpt>
      <trkpt lat="46.87689" lon="8.47605">
        <ele>1988</ele>
        <time>2021-08-11T13:27:15.637Z</time>
      </trkpt>
      <trkpt lat="46.87688" lon="8.47605">
        <ele>1988</ele>
        <time>2021-08-11T13:27:16.637Z</time>
      </trkpt>
      <trkpt lat="46.87688" lon="8.47605">
        <ele>1989</ele>
        <time>2021-08-11T13:27:17.636Z</time>
      </trkpt>
      <trkpt lat="46.87687" lon="8.47604">
        <ele>1989</ele>
        <time>2021-08-11T13:27:18.636Z</time>
      </trkpt>
      <trkpt lat="46.87687" lon="8.47603">
        <ele>1989</ele>
        <time>2021-08-11T13:27:19.637Z</time>
      </trkpt>
      <trkpt lat="46.87687" lon="8.47602">
        <ele>1989</ele>
        <time>2021-08-11T13:27:20.637Z</time>
      </trkpt>
      <trkpt lat="46.87686" lon="8.47602">
        <ele>1988</ele>
        <time>2021-08-11T13:27:21.637Z</time>
      </trkpt>
      <trkpt lat="46.87685" lon="8.47602">
        <ele>1988</ele>
        <time>2021-08-11T13:27:22.637Z</time>
      </trkpt>
      <trkpt lat="46.87684" lon="8.47602">
        <ele>1987</ele>
        <time>2021-08-11T13:27:23.636Z</time>
      </trkpt>
      <trkpt lat="46.87683" lon="8.47602">
        <ele>1987</ele>
        <time>2021-08-11T13:27:24.636Z</time>
      </trkpt>
      <trkpt lat="46.87682" lon="8.47602">
        <ele>1988</ele>
        <time>2021-08-11T13:27:25.636Z</time>
      </trkpt>
      <trkpt lat="46.87682" lon="8.47601">
        <ele>1988</ele>
        <time>2021-08-11T13:27:26.636Z</time>
      </trkpt>
      <trkpt lat="46.87681" lon="8.47601">
        <ele>1988</ele>
        <time>2021-08-11T13:27:27.637Z</time>
      </trkpt>
      <trkpt lat="46.87681" lon="8.476">
        <ele>1989</ele>
        <time>2021-08-11T13:27:28.637Z</time>
      </trkpt>
      <trkpt lat="46.8768" lon="8.476">
        <ele>1989</ele>
        <time>2021-08-11T13:27:29.637Z</time>
      </trkpt>
      <trkpt lat="46.8768" lon="8.476">
        <ele>1990</ele>
        <time>2021-08-11T13:27:30.636Z</time>
      </trkpt>
      <trkpt lat="46.8768" lon="8.476">
        <ele>1990</ele>
        <time>2021-08-11T13:27:31.636Z</time>
      </trkpt>
      <trkpt lat="46.87679" lon="8.47599">
        <ele>1990</ele>
        <time>2021-08-11T13:27:32.637Z</time>
      </trkpt>
      <trkpt lat="46.87679" lon="8.47599">
        <ele>1990</ele>
        <time>2021-08-11T13:27:33.637Z</time>
      </trkpt>
      <trkpt lat="46.8768" lon="8.47598">
        <ele>1989</ele>
        <time>2021-08-11T13:27:34.637Z</time>
      </trkpt>
      <trkpt lat="46.87679" lon="8.47597">
        <ele>1989</ele>
        <time>2021-08-11T13:27:35.637Z</time>
      </trkpt>
      <trkpt lat="46.87678" lon="8.47597">
        <ele>1989</ele>
        <time>2021-08-11T13:27:36.636Z</time>
      </trkpt>
      <trkpt lat="46.87677" lon="8.47596">
        <ele>1988</ele>
        <time>2021-08-11T13:27:37.637Z</time>
      </trkpt>
      <trkpt lat="46.87676" lon="8.47595">
        <ele>1989</ele>
        <time>2021-08-11T13:27:38.637Z</time>
      </trkpt>
      <trkpt lat="46.87676" lon="8.47594">
        <ele>1989</ele>
        <time>2021-08-11T13:27:39.637Z</time>
      </trkpt>
      <trkpt lat="46.87676" lon="8.47594">
        <ele>1990</ele>
        <time>2021-08-11T13:27:40.637Z</time>
      </trkpt>
      <trkpt lat="46.87676" lon="8.47594">
        <ele>1991</ele>
        <time>2021-08-11T13:27:41.636Z</time>
      </trkpt>
      <trkpt lat="46.87675" lon="8.47593">
        <ele>1991</ele>
        <time>2021-08-11T13:27:42.637Z</time>
      </trkpt>
      <trkpt lat="46.87675" lon="8.47593">
        <ele>1992</ele>
        <time>2021-08-11T13:27:43.637Z</time>
      </trkpt>
      <trkpt lat="46.87674" lon="8.47593">
        <ele>1992</ele>
        <time>2021-08-11T13:27:44.636Z</time>
      </trkpt>
      <trkpt lat="46.87674" lon="8.47593">
        <ele>1992</ele>
        <time>2021-08-11T13:27:45.636Z</time>
      </trkpt>
      <trkpt lat="46.87673" lon="8.47593">
        <ele>1992</ele>
        <time>2021-08-11T13:27:46.637Z</time>
      </trkpt>
      <trkpt lat="46.87673" lon="8.47593">
        <ele>1992</ele>
        <time>2021-08-11T13:27:47.636Z</time>
      </trkpt>
      <trkpt lat="46.87672" lon="8.47593">
        <ele>1993</ele>
        <time>2021-08-11T13:27:48.636Z</time>
      </trkpt>
      <trkpt lat="46.87672" lon="8.47592">
        <ele>1993</ele>
        <time>2021-08-11T13:27:49.637Z</time>
      </trkpt>
      <trkpt lat="46.87671" lon="8.47592">
        <ele>1994</ele>
        <time>2021-08-11T13:27:50.637Z</time>
      </trkpt>
      <trkpt lat="46.8767" lon="8.47592">
        <ele>1995</ele>
        <time>2021-08-11T13:27:51.636Z</time>
      </trkpt>
      <trkpt lat="46.8767" lon="8.47592">
        <ele>1996</ele>
        <time>2021-08-11T13:27:52.636Z</time>
      </trkpt>
      <trkpt lat="46.87669" lon="8.47592">
        <ele>1997</ele>
        <time>2021-08-11T13:27:53.637Z</time>
      </trkpt>
      <trkpt lat="46.87668" lon="8.47592">
        <ele>1998</ele>
        <time>2021-08-11T13:27:54.637Z</time>
      </trkpt>
      <trkpt lat="46.87667" lon="8.47592">
        <ele>1998</ele>
        <time>2021-08-11T13:27:55.637Z</time>
      </trkpt>
      <trkpt lat="46.87666" lon="8.47592">
        <ele>1999</ele>
        <time>2021-08-11T13:27:56.637Z</time>
      </trkpt>
      <trkpt lat="46.87666" lon="8.47591">
        <ele>1999</ele>
        <time>2021-08-11T13:27:57.636Z</time>
      </trkpt>
      <trkpt lat="46.87665" lon="8.47591">
        <ele>1999</ele>
        <time>2021-08-11T13:27:58.637Z</time>
      </trkpt>
      <trkpt lat="46.87665" lon="8.4759">
        <ele>1999</ele>
        <time>2021-08-11T13:27:59.637Z</time>
      </trkpt>
      <trkpt lat="46.87665" lon="8.4759">
        <ele>1999</ele>
        <time>2021-08-11T13:28:00.637Z</time>
      </trkpt>
      <trkpt lat="46.87665" lon="8.47589">
        <ele>1998</ele>
        <time>2021-08-11T13:28:01.637Z</time>
      </trkpt>
      <trkpt lat="46.87664" lon="8.47589">
        <ele>1998</ele>
        <time>2021-08-11T13:28:02.636Z</time>
      </trkpt>
      <trkpt lat="46.87664" lon="8.47589">
        <ele>1997</ele>
        <time>2021-08-11T13:28:03.637Z</time>
      </trkpt>
      <trkpt lat="46.87663" lon="8.47588">
        <ele>1997</ele>
        <time>2021-08-11T13:28:04.637Z</time>
      </trkpt>
      <trkpt lat="46.87662" lon="8.47589">
        <ele>1996</ele>
        <time>2021-08-11T13:28:05.636Z</time>
      </trkpt>
      <trkpt lat="46.87662" lon="8.47589">
        <ele>1997</ele>
        <time>2021-08-11T13:28:06.637Z</time>
      </trkpt>
      <trkpt lat="46.87661" lon="8.4759">
        <ele>1997</ele>
        <time>2021-08-11T13:28:07.637Z</time>
      </trkpt>
      <trkpt lat="46.8766" lon="8.4759">
        <ele>1997</ele>
        <time>2021-08-11T13:28:08.636Z</time>
      </trkpt>
      <trkpt lat="46.87659" lon="8.4759">
        <ele>1998</ele>
        <time>2021-08-11T13:28:09.637Z</time>
      </trkpt>
      <trkpt lat="46.87659" lon="8.4759">
        <ele>1998</ele>
        <time>2021-08-11T13:28:10.637Z</time>
      </trkpt>
      <trkpt lat="46.87658" lon="8.4759">
        <ele>1998</ele>
        <time>2021-08-11T13:28:11.637Z</time>
      </trkpt>
      <trkpt lat="46.87657" lon="8.47589">
        <ele>1998</ele>
        <time>2021-08-11T13:28:12.637Z</time>
      </trkpt>
      <trkpt lat="46.87657" lon="8.47589">
        <ele>1998</ele>
        <time>2021-08-11T13:28:13.636Z</time>
      </trkpt>
      <trkpt lat="46.87656" lon="8.47589">
        <ele>1998</ele>
        <time>2021-08-11T13:28:14.637Z</time>
      </trkpt>
      <trkpt lat="46.87655" lon="8.47589">
        <ele>1998</ele>
        <time>2021-08-11T13:28:15.637Z</time>
      </trkpt>
      <trkpt lat="46.87655" lon="8.47589">
        <ele>1998</ele>
        <time>2021-08-11T13:28:16.637Z</time>
      </trkpt>
      <trkpt lat="46.87654" lon="8.47588">
        <ele>1998</ele>
        <time>2021-08-11T13:28:17.637Z</time>
      </trkpt>
      <trkpt lat="46.87654" lon="8.47588">
        <ele>1999</ele>
        <time>2021-08-11T13:28:18.636Z</time>
      </trkpt>
      <trkpt lat="46.87653" lon="8.47588">
        <ele>1999</ele>
        <time>2021-08-11T13:28:19.637Z</time>
      </trkpt>
      <trkpt lat="46.87653" lon="8.47587">
        <ele>1999</ele>
        <time>2021-08-11T13:28:20.636Z</time>
      </trkpt>
      <trkpt lat="46.87652" lon="8.47587">
        <ele>2000</ele>
        <time>2021-08-11T13:28:21.636Z</time>
      </trkpt>
      <trkpt lat="46.87651" lon="8.47586">
        <ele>2001</ele>
        <time>2021-08-11T13:28:22.637Z</time>
      </trkpt>
      <trkpt lat="46.8765" lon="8.47586">
        <ele>2002</ele>
        <time>2021-08-11T13:28:23.636Z</time>
      </trkpt>
      <trkpt lat="46.87649" lon="8.47586">
        <ele>2003</ele>
        <time>2021-08-11T13:28:24.637Z</time>
      </trkpt>
      <trkpt lat="46.87648" lon="8.47586">
        <ele>2003</ele>
        <time>2021-08-11T13:28:25.637Z</time>
      </trkpt>
      <trkpt lat="46.87647" lon="8.47586">
        <ele>2004</ele>
        <time>2021-08-11T13:28:26.636Z</time>
      </trkpt>
      <trkpt lat="46.87647" lon="8.47586">
        <ele>2004</ele>
        <time>2021-08-11T13:28:27.637Z</time>
      </trkpt>
      <trkpt lat="46.87646" lon="8.47586">
        <ele>2004</ele>
        <time>2021-08-11T13:28:28.637Z</time>
      </trkpt>
      <trkpt lat="46.87645" lon="8.47586">
        <ele>2004</ele>
        <time>2021-08-11T13:28:29.637Z</time>
      </trkpt>
      <trkpt lat="46.87644" lon="8.47586">
        <ele>2004</ele>
        <time>2021-08-11T13:28:30.637Z</time>
      </trkpt>
      <trkpt lat="46.87644" lon="8.47585">
        <ele>2004</ele>
        <time>2021-08-11T13:28:31.637Z</time>
      </trkpt>
      <trkpt lat="46.87643" lon="8.47585">
        <ele>2004</ele>
        <time>2021-08-11T13:28:32.637Z</time>
      </trkpt>
      <trkpt lat="46.87643" lon="8.47586">
        <ele>2004</ele>
        <time>2021-08-11T13:28:33.637Z</time>
      </trkpt>
      <trkpt lat="46.87643" lon="8.47586">
        <ele>2004</ele>
        <time>2021-08-11T13:28:34.636Z</time>
      </trkpt>
      <trkpt lat="46.87642" lon="8.47585">
        <ele>2003</ele>
        <time>2021-08-11T13:28:35.636Z</time>
      </trkpt>
      <trkpt lat="46.87641" lon="8.47587">
        <ele>2002</ele>
        <time>2021-08-11T13:28:36.636Z</time>
      </trkpt>
      <trkpt lat="46.87639" lon="8.47586">
        <ele>2002</ele>
        <time>2021-08-11T13:28:37.636Z</time>
      </trkpt>
      <trkpt lat="46.87638" lon="8.47586">
        <ele>2002</ele>
        <time>2021-08-11T13:28:38.636Z</time>
      </trkpt>
      <trkpt lat="46.87638" lon="8.47586">
        <ele>2003</ele>
        <time>2021-08-11T13:28:39.637Z</time>
      </trkpt>
      <trkpt lat="46.87637" lon="8.47586">
        <ele>2004</ele>
        <time>2021-08-11T13:28:40.637Z</time>
      </trkpt>
      <trkpt lat="46.87637" lon="8.47585">
        <ele>2004</ele>
        <time>2021-08-11T13:28:41.636Z</time>
      </trkpt>
      <trkpt lat="46.87637" lon="8.47585">
        <ele>2005</ele>
        <time>2021-08-11T13:28:42.636Z</time>
      </trkpt>
      <trkpt lat="46.87636" lon="8.47585">
        <ele>2005</ele>
        <time>2021-08-11T13:28:43.636Z</time>
      </trkpt>
      <trkpt lat="46.87635" lon="8.47586">
        <ele>2004</ele>
        <time>2021-08-11T13:28:44.637Z</time>
      </trkpt>
      <trkpt lat="46.87635" lon="8.47587">
        <ele>2003</ele>
        <time>2021-08-11T13:28:45.637Z</time>
      </trkpt>
      <trkpt lat="46.87634" lon="8.47587">
        <ele>2003</ele>
        <time>2021-08-11T13:28:46.637Z</time>
      </trkpt>
      <trkpt lat="46.87634" lon="8.47588">
        <ele>2003</ele>
        <time>2021-08-11T13:28:47.637Z</time>
      </trkpt>
      <trkpt lat="46.87633" lon="8.47588">
        <ele>2003</ele>
        <time>2021-08-11T13:28:48.637Z</time>
      </trkpt>
      <trkpt lat="46.87633" lon="8.47588">
        <ele>2004</ele>
        <time>2021-08-11T13:28:49.636Z</time>
      </trkpt>
      <trkpt lat="46.87632" lon="8.47589">
        <ele>2004</ele>
        <time>2021-08-11T13:28:50.636Z</time>
      </trkpt>
      <trkpt lat="46.87632" lon="8.47589">
        <ele>2005</ele>
        <time>2021-08-11T13:28:51.637Z</time>
      </trkpt>
      <trkpt lat="46.87632" lon="8.4759">
        <ele>2005</ele>
        <time>2021-08-11T13:28:52.636Z</time>
      </trkpt>
      <trkpt lat="46.87632" lon="8.47591">
        <ele>2005</ele>
        <time>2021-08-11T13:28:53.636Z</time>
      </trkpt>
      <trkpt lat="46.87631" lon="8.47592">
        <ele>2005</ele>
        <time>2021-08-11T13:28:54.636Z</time>
      </trkpt>
      <trkpt lat="46.87631" lon="8.47593">
        <ele>2006</ele>
        <time>2021-08-11T13:28:55.636Z</time>
      </trkpt>
      <trkpt lat="46.8763" lon="8.47594">
        <ele>2007</ele>
        <time>2021-08-11T13:28:56.636Z</time>
      </trkpt>
      <trkpt lat="46.8763" lon="8.47595">
        <ele>2007</ele>
        <time>2021-08-11T13:28:57.636Z</time>
      </trkpt>
      <trkpt lat="46.8763" lon="8.47595">
        <ele>2007</ele>
        <time>2021-08-11T13:28:58.636Z</time>
      </trkpt>
      <trkpt lat="46.8763" lon="8.47596">
        <ele>2007</ele>
        <time>2021-08-11T13:28:59.636Z</time>
      </trkpt>
      <trkpt lat="46.8763" lon="8.47597">
        <ele>2007</ele>
        <time>2021-08-11T13:29:00.636Z</time>
      </trkpt>
      <trkpt lat="46.87629" lon="8.47599">
        <ele>2007</ele>
        <time>2021-08-11T13:29:01.636Z</time>
      </trkpt>
      <trkpt lat="46.87629" lon="8.476">
        <ele>2007</ele>
        <time>2021-08-11T13:29:02.636Z</time>
      </trkpt>
      <trkpt lat="46.87628" lon="8.47601">
        <ele>2007</ele>
        <time>2021-08-11T13:29:03.636Z</time>
      </trkpt>
      <trkpt lat="46.87628" lon="8.47602">
        <ele>2007</ele>
        <time>2021-08-11T13:29:04.636Z</time>
      </trkpt>
      <trkpt lat="46.87628" lon="8.47603">
        <ele>2007</ele>
        <time>2021-08-11T13:29:05.636Z</time>
      </trkpt>
      <trkpt lat="46.87628" lon="8.47604">
        <ele>2007</ele>
        <time>2021-08-11T13:29:06.636Z</time>
      </trkpt>
      <trkpt lat="46.87628" lon="8.47605">
        <ele>2006</ele>
        <time>2021-08-11T13:29:07.636Z</time>
      </trkpt>
      <trkpt lat="46.87627" lon="8.47606">
        <ele>2006</ele>
        <time>2021-08-11T13:29:08.636Z</time>
      </trkpt>
      <trkpt lat="46.87627" lon="8.47607">
        <ele>2006</ele>
        <time>2021-08-11T13:29:09.636Z</time>
      </trkpt>
      <trkpt lat="46.87627" lon="8.47607">
        <ele>2006</ele>
        <time>2021-08-11T13:29:10.636Z</time>
      </trkpt>
      <trkpt lat="46.87627" lon="8.47608">
        <ele>2006</ele>
        <time>2021-08-11T13:29:11.636Z</time>
      </trkpt>
      <trkpt lat="46.87627" lon="8.47609">
        <ele>2006</ele>
        <time>2021-08-11T13:29:12.636Z</time>
      </trkpt>
      <trkpt lat="46.87627" lon="8.4761">
        <ele>2006</ele>
        <time>2021-08-11T13:29:13.637Z</time>
      </trkpt>
      <trkpt lat="46.87627" lon="8.47611">
        <ele>2006</ele>
        <time>2021-08-11T13:29:14.636Z</time>
      </trkpt>
      <trkpt lat="46.87627" lon="8.47612">
        <ele>2006</ele>
        <time>2021-08-11T13:29:15.636Z</time>
      </trkpt>
      <trkpt lat="46.87627" lon="8.47612">
        <ele>2006</ele>
        <time>2021-08-11T13:29:16.636Z</time>
      </trkpt>
      <trkpt lat="46.87627" lon="8.47613">
        <ele>2006</ele>
        <time>2021-08-11T13:29:17.636Z</time>
      </trkpt>
      <trkpt lat="46.87627" lon="8.47615">
        <ele>2006</ele>
        <time>2021-08-11T13:29:18.636Z</time>
      </trkpt>
      <trkpt lat="46.87627" lon="8.47615">
        <ele>2007</ele>
        <time>2021-08-11T13:29:19.636Z</time>
      </trkpt>
      <trkpt lat="46.87627" lon="8.47616">
        <ele>2007</ele>
        <time>2021-08-11T13:29:20.636Z</time>
      </trkpt>
      <trkpt lat="46.87627" lon="8.47617">
        <ele>2007</ele>
        <time>2021-08-11T13:29:21.636Z</time>
      </trkpt>
      <trkpt lat="46.87627" lon="8.47617">
        <ele>2008</ele>
        <time>2021-08-11T13:29:22.636Z</time>
      </trkpt>
      <trkpt lat="46.87627" lon="8.47618">
        <ele>2008</ele>
        <time>2021-08-11T13:29:23.637Z</time>
      </trkpt>
      <trkpt lat="46.87626" lon="8.47619">
        <ele>2007</ele>
        <time>2021-08-11T13:29:24.636Z</time>
      </trkpt>
      <trkpt lat="46.87626" lon="8.47619">
        <ele>2008</ele>
        <time>2021-08-11T13:29:25.636Z</time>
      </trkpt>
      <trkpt lat="46.87626" lon="8.4762">
        <ele>2008</ele>
        <time>2021-08-11T13:29:26.636Z</time>
      </trkpt>
      <trkpt lat="46.87626" lon="8.4762">
        <ele>2009</ele>
        <time>2021-08-11T13:29:27.636Z</time>
      </trkpt>
      <trkpt lat="46.87626" lon="8.47621">
        <ele>2009</ele>
        <time>2021-08-11T13:29:28.636Z</time>
      </trkpt>
      <trkpt lat="46.87626" lon="8.47621">
        <ele>2009</ele>
        <time>2021-08-11T13:29:29.636Z</time>
      </trkpt>
      <trkpt lat="46.87625" lon="8.47622">
        <ele>2009</ele>
        <time>2021-08-11T13:29:30.636Z</time>
      </trkpt>
      <trkpt lat="46.87625" lon="8.47622">
        <ele>2010</ele>
        <time>2021-08-11T13:29:31.637Z</time>
      </trkpt>
      <trkpt lat="46.87625" lon="8.47623">
        <ele>2010</ele>
        <time>2021-08-11T13:29:32.637Z</time>
      </trkpt>
      <trkpt lat="46.87625" lon="8.47623">
        <ele>2010</ele>
        <time>2021-08-11T13:29:33.636Z</time>
      </trkpt>
      <trkpt lat="46.87625" lon="8.47624">
        <ele>2010</ele>
        <time>2021-08-11T13:29:34.636Z</time>
      </trkpt>
      <trkpt lat="46.87624" lon="8.47624">
        <ele>2011</ele>
        <time>2021-08-11T13:29:35.636Z</time>
      </trkpt>
      <trkpt lat="46.87624" lon="8.47624">
        <ele>2011</ele>
        <time>2021-08-11T13:29:36.636Z</time>
      </trkpt>
      <trkpt lat="46.87624" lon="8.47625">
        <ele>2012</ele>
        <time>2021-08-11T13:29:37.636Z</time>
      </trkpt>
      <trkpt lat="46.87623" lon="8.47625">
        <ele>2013</ele>
        <time>2021-08-11T13:29:38.636Z</time>
      </trkpt>
      <trkpt lat="46.87623" lon="8.47626">
        <ele>2014</ele>
        <time>2021-08-11T13:29:39.636Z</time>
      </trkpt>
      <trkpt lat="46.87623" lon="8.47627">
        <ele>2015</ele>
        <time>2021-08-11T13:29:40.636Z</time>
      </trkpt>
      <trkpt lat="46.87622" lon="8.47627">
        <ele>2016</ele>
        <time>2021-08-11T13:29:41.637Z</time>
      </trkpt>
      <trkpt lat="46.87622" lon="8.47627">
        <ele>2016</ele>
        <time>2021-08-11T13:29:42.637Z</time>
      </trkpt>
      <trkpt lat="46.87622" lon="8.47627">
        <ele>2017</ele>
        <time>2021-08-11T13:29:43.636Z</time>
      </trkpt>
      <trkpt lat="46.87621" lon="8.47627">
        <ele>2017</ele>
        <time>2021-08-11T13:29:44.636Z</time>
      </trkpt>
      <trkpt lat="46.87621" lon="8.47627">
        <ele>2016</ele>
        <time>2021-08-11T13:29:45.636Z</time>
      </trkpt>
      <trkpt lat="46.8762" lon="8.47628">
        <ele>2016</ele>
        <time>2021-08-11T13:29:46.636Z</time>
      </trkpt>
      <trkpt lat="46.87619" lon="8.47629">
        <ele>2016</ele>
        <time>2021-08-11T13:29:47.636Z</time>
      </trkpt>
      <trkpt lat="46.87619" lon="8.4763">
        <ele>2016</ele>
        <time>2021-08-11T13:29:48.636Z</time>
      </trkpt>
      <trkpt lat="46.87618" lon="8.4763">
        <ele>2017</ele>
        <time>2021-08-11T13:29:49.636Z</time>
      </trkpt>
      <trkpt lat="46.87618" lon="8.4763">
        <ele>2017</ele>
        <time>2021-08-11T13:29:50.636Z</time>
      </trkpt>
      <trkpt lat="46.87617" lon="8.4763">
        <ele>2018</ele>
        <time>2021-08-11T13:29:51.636Z</time>
      </trkpt>
      <trkpt lat="46.87617" lon="8.47631">
        <ele>2018</ele>
        <time>2021-08-11T13:29:52.636Z</time>
      </trkpt>
      <trkpt lat="46.87617" lon="8.47631">
        <ele>2018</ele>
        <time>2021-08-11T13:29:53.636Z</time>
      </trkpt>
      <trkpt lat="46.87617" lon="8.47631">
        <ele>2019</ele>
        <time>2021-08-11T13:29:54.636Z</time>
      </trkpt>
      <trkpt lat="46.87616" lon="8.47631">
        <ele>2019</ele>
        <time>2021-08-11T13:29:55.636Z</time>
      </trkpt>
      <trkpt lat="46.87616" lon="8.47631">
        <ele>2019</ele>
        <time>2021-08-11T13:29:56.636Z</time>
      </trkpt>
      <trkpt lat="46.87615" lon="8.47632">
        <ele>2019</ele>
        <time>2021-08-11T13:29:57.636Z</time>
      </trkpt>
      <trkpt lat="46.87615" lon="8.47632">
        <ele>2020</ele>
        <time>2021-08-11T13:29:58.636Z</time>
      </trkpt>
      <trkpt lat="46.87615" lon="8.47633">
        <ele>2019</ele>
        <time>2021-08-11T13:29:59.637Z</time>
      </trkpt>
      <trkpt lat="46.87614" lon="8.47633">
        <ele>2019</ele>
        <time>2021-08-11T13:30:00.636Z</time>
      </trkpt>
      <trkpt lat="46.87614" lon="8.47634">
        <ele>2019</ele>
        <time>2021-08-11T13:30:01.636Z</time>
      </trkpt>
      <trkpt lat="46.87614" lon="8.47635">
        <ele>2019</ele>
        <time>2021-08-11T13:30:02.636Z</time>
      </trkpt>
      <trkpt lat="46.87614" lon="8.47635">
        <ele>2019</ele>
        <time>2021-08-11T13:30:03.636Z</time>
      </trkpt>
      <trkpt lat="46.87613" lon="8.47635">
        <ele>2019</ele>
        <time>2021-08-11T13:30:07.670Z</time>
      </trkpt>
      <trkpt lat="46.87613" lon="8.47636">
        <ele>2020</ele>
        <time>2021-08-11T13:30:08.670Z</time>
      </trkpt>
      <trkpt lat="46.87613" lon="8.47636">
        <ele>2020</ele>
        <time>2021-08-11T13:30:09.670Z</time>
      </trkpt>
      <trkpt lat="46.87612" lon="8.47637">
        <ele>2020</ele>
        <time>2021-08-11T13:30:10.670Z</time>
      </trkpt>
      <trkpt lat="46.87612" lon="8.47637">
        <ele>2020</ele>
        <time>2021-08-11T13:30:11.670Z</time>
      </trkpt>
      <trkpt lat="46.87612" lon="8.47637">
        <ele>2020</ele>
        <time>2021-08-11T13:30:12.670Z</time>
      </trkpt>
      <trkpt lat="46.87612" lon="8.47638">
        <ele>2020</ele>
        <time>2021-08-11T13:30:13.670Z</time>
      </trkpt>
      <trkpt lat="46.87612" lon="8.47638">
        <ele>2020</ele>
        <time>2021-08-11T13:30:14.671Z</time>
      </trkpt>
      <trkpt lat="46.87612" lon="8.47639">
        <ele>2020</ele>
        <time>2021-08-11T13:30:15.670Z</time>
      </trkpt>
      <trkpt lat="46.87611" lon="8.47639">
        <ele>2020</ele>
        <time>2021-08-11T13:30:16.670Z</time>
      </trkpt>
      <trkpt lat="46.87611" lon="8.47639">
        <ele>2021</ele>
        <time>2021-08-11T13:30:17.670Z</time>
      </trkpt>
      <trkpt lat="46.8761" lon="8.4764">
        <ele>2022</ele>
        <time>2021-08-11T13:30:18.671Z</time>
      </trkpt>
      <trkpt lat="46.8761" lon="8.4764">
        <ele>2022</ele>
        <time>2021-08-11T13:30:19.670Z</time>
      </trkpt>
      <trkpt lat="46.87609" lon="8.4764">
        <ele>2021</ele>
        <time>2021-08-11T13:30:20.671Z</time>
      </trkpt>
      <trkpt lat="46.87609" lon="8.4764">
        <ele>2021</ele>
        <time>2021-08-11T13:30:21.671Z</time>
      </trkpt>
      <trkpt lat="46.87609" lon="8.4764">
        <ele>2020</ele>
        <time>2021-08-11T13:30:22.670Z</time>
      </trkpt>
      <trkpt lat="46.87609" lon="8.4764">
        <ele>2020</ele>
        <time>2021-08-11T13:30:23.670Z</time>
      </trkpt>
      <trkpt lat="46.87609" lon="8.4764">
        <ele>2019</ele>
        <time>2021-08-11T13:30:24.671Z</time>
      </trkpt>
      <trkpt lat="46.87609" lon="8.4764">
        <ele>2019</ele>
        <time>2021-08-11T13:30:25.671Z</time>
      </trkpt>
      <trkpt lat="46.87609" lon="8.47639">
        <ele>2019</ele>
        <time>2021-08-11T13:30:26.670Z</time>
      </trkpt>
      <trkpt lat="46.87609" lon="8.47639">
        <ele>2019</ele>
        <time>2021-08-11T13:30:27.671Z</time>
      </trkpt>
      <trkpt lat="46.87609" lon="8.47638">
        <ele>2020</ele>
        <time>2021-08-11T13:30:28.671Z</time>
      </trkpt>
      <trkpt lat="46.87609" lon="8.47637">
        <ele>2020</ele>
        <time>2021-08-11T13:30:29.670Z</time>
      </trkpt>
      <trkpt lat="46.87609" lon="8.47636">
        <ele>2020</ele>
        <time>2021-08-11T13:30:30.671Z</time>
      </trkpt>
      <trkpt lat="46.87609" lon="8.47636">
        <ele>2020</ele>
        <time>2021-08-11T13:30:31.670Z</time>
      </trkpt>
      <trkpt lat="46.87609" lon="8.47635">
        <ele>2020</ele>
        <time>2021-08-11T13:30:32.671Z</time>
      </trkpt>
      <trkpt lat="46.87609" lon="8.47635">
        <ele>2020</ele>
        <time>2021-08-11T13:30:33.671Z</time>
      </trkpt>
      <trkpt lat="46.87609" lon="8.47634">
        <ele>2020</ele>
        <time>2021-08-11T13:30:34.670Z</time>
      </trkpt>
      <trkpt lat="46.87608" lon="8.47634">
        <ele>2020</ele>
        <time>2021-08-11T13:30:35.670Z</time>
      </trkpt>
      <trkpt lat="46.87608" lon="8.47633">
        <ele>2020</ele>
        <time>2021-08-11T13:30:36.670Z</time>
      </trkpt>
      <trkpt lat="46.87608" lon="8.47632">
        <ele>2020</ele>
        <time>2021-08-11T13:30:37.671Z</time>
      </trkpt>
      <trkpt lat="46.87608" lon="8.47632">
        <ele>2020</ele>
        <time>2021-08-11T13:30:38.670Z</time>
      </trkpt>
      <trkpt lat="46.87609" lon="8.47631">
        <ele>2020</ele>
        <time>2021-08-11T13:30:39.671Z</time>
      </trkpt>
      <trkpt lat="46.87609" lon="8.47631">
        <ele>2020</ele>
        <time>2021-08-11T13:30:40.671Z</time>
      </trkpt>
      <trkpt lat="46.87609" lon="8.47629">
        <ele>2020</ele>
        <time>2021-08-11T13:30:41.671Z</time>
      </trkpt>
      <trkpt lat="46.87608" lon="8.47628">
        <ele>2020</ele>
        <time>2021-08-11T13:30:42.670Z</time>
      </trkpt>
      <trkpt lat="46.87608" lon="8.47627">
        <ele>2020</ele>
        <time>2021-08-11T13:30:43.671Z</time>
      </trkpt>
      <trkpt lat="46.87608" lon="8.47626">
        <ele>2020</ele>
        <time>2021-08-11T13:30:44.671Z</time>
      </trkpt>
      <trkpt lat="46.87607" lon="8.47625">
        <ele>2020</ele>
        <time>2021-08-11T13:30:45.671Z</time>
      </trkpt>
      <trkpt lat="46.87607" lon="8.47624">
        <ele>2020</ele>
        <time>2021-08-11T13:30:46.670Z</time>
      </trkpt>
      <trkpt lat="46.87606" lon="8.47624">
        <ele>2020</ele>
        <time>2021-08-11T13:30:47.670Z</time>
      </trkpt>
      <trkpt lat="46.87606" lon="8.47623">
        <ele>2019</ele>
        <time>2021-08-11T13:30:48.671Z</time>
      </trkpt>
      <trkpt lat="46.87606" lon="8.47623">
        <ele>2019</ele>
        <time>2021-08-11T13:30:49.670Z</time>
      </trkpt>
      <trkpt lat="46.87606" lon="8.47623">
        <ele>2019</ele>
        <time>2021-08-11T13:30:50.670Z</time>
      </trkpt>
      <trkpt lat="46.87606" lon="8.47623">
        <ele>2019</ele>
        <time>2021-08-11T13:30:51.671Z</time>
      </trkpt>
      <trkpt lat="46.87606" lon="8.47623">
        <ele>2020</ele>
        <time>2021-08-11T13:30:52.670Z</time>
      </trkpt>
      <trkpt lat="46.87606" lon="8.47622">
        <ele>2021</ele>
        <time>2021-08-11T13:30:53.670Z</time>
      </trkpt>
      <trkpt lat="46.87606" lon="8.47621">
        <ele>2021</ele>
        <time>2021-08-11T13:30:54.671Z</time>
      </trkpt>
      <trkpt lat="46.87606" lon="8.47622">
        <ele>2021</ele>
        <time>2021-08-11T13:30:55.670Z</time>
      </trkpt>
      <trkpt lat="46.87605" lon="8.47621">
        <ele>2021</ele>
        <time>2021-08-11T13:30:56.670Z</time>
      </trkpt>
      <trkpt lat="46.87605" lon="8.47621">
        <ele>2021</ele>
        <time>2021-08-11T13:30:57.670Z</time>
      </trkpt>
      <trkpt lat="46.87604" lon="8.47621">
        <ele>2021</ele>
        <time>2021-08-11T13:30:58.671Z</time>
      </trkpt>
      <trkpt lat="46.87604" lon="8.4762">
        <ele>2021</ele>
        <time>2021-08-11T13:30:59.670Z</time>
      </trkpt>
      <trkpt lat="46.87603" lon="8.4762">
        <ele>2021</ele>
        <time>2021-08-11T13:31:00.670Z</time>
      </trkpt>
      <trkpt lat="46.87603" lon="8.47619">
        <ele>2021</ele>
        <time>2021-08-11T13:31:01.670Z</time>
      </trkpt>
      <trkpt lat="46.87602" lon="8.47618">
        <ele>2021</ele>
        <time>2021-08-11T13:31:02.670Z</time>
      </trkpt>
      <trkpt lat="46.87602" lon="8.47618">
        <ele>2021</ele>
        <time>2021-08-11T13:31:03.671Z</time>
      </trkpt>
      <trkpt lat="46.87601" lon="8.47617">
        <ele>2021</ele>
        <time>2021-08-11T13:31:04.670Z</time>
      </trkpt>
      <trkpt lat="46.87601" lon="8.47617">
        <ele>2021</ele>
        <time>2021-08-11T13:31:05.671Z</time>
      </trkpt>
      <trkpt lat="46.87601" lon="8.47617">
        <ele>2021</ele>
        <time>2021-08-11T13:31:06.671Z</time>
      </trkpt>
      <trkpt lat="46.876" lon="8.47617">
        <ele>2021</ele>
        <time>2021-08-11T13:31:07.670Z</time>
      </trkpt>
      <trkpt lat="46.876" lon="8.47616">
        <ele>2020</ele>
        <time>2021-08-11T13:31:08.670Z</time>
      </trkpt>
      <trkpt lat="46.87599" lon="8.47616">
        <ele>2020</ele>
        <time>2021-08-11T13:31:09.670Z</time>
      </trkpt>
      <trkpt lat="46.87599" lon="8.47616">
        <ele>2019</ele>
        <time>2021-08-11T13:31:10.671Z</time>
      </trkpt>
      <trkpt lat="46.87598" lon="8.47616">
        <ele>2019</ele>
        <time>2021-08-11T13:31:11.670Z</time>
      </trkpt>
      <trkpt lat="46.87598" lon="8.47616">
        <ele>2019</ele>
        <time>2021-08-11T13:31:12.671Z</time>
      </trkpt>
      <trkpt lat="46.87597" lon="8.47616">
        <ele>2019</ele>
        <time>2021-08-11T13:31:13.671Z</time>
      </trkpt>
      <trkpt lat="46.87597" lon="8.47616">
        <ele>2020</ele>
        <time>2021-08-11T13:31:14.670Z</time>
      </trkpt>
      <trkpt lat="46.87596" lon="8.47616">
        <ele>2021</ele>
        <time>2021-08-11T13:31:15.670Z</time>
      </trkpt>
      <trkpt lat="46.87596" lon="8.47616">
        <ele>2022</ele>
        <time>2021-08-11T13:31:16.670Z</time>
      </trkpt>
      <trkpt lat="46.87596" lon="8.47617">
        <ele>2022</ele>
        <time>2021-08-11T13:31:17.671Z</time>
      </trkpt>
      <trkpt lat="46.87596" lon="8.47617">
        <ele>2023</ele>
        <time>2021-08-11T13:31:18.670Z</time>
      </trkpt>
      <trkpt lat="46.87596" lon="8.47617">
        <ele>2024</ele>
        <time>2021-08-11T13:31:19.671Z</time>
      </trkpt>
      <trkpt lat="46.87596" lon="8.47614">
        <ele>2030</ele>
        <time>2021-08-11T13:31:20.672Z</time>
      </trkpt>
      <trkpt lat="46.87596" lon="8.47614">
        <ele>2030</ele>
        <time>2021-08-11T13:31:21.671Z</time>
      </trkpt>
      <trkpt lat="46.87596" lon="8.47613">
        <ele>2031</ele>
        <time>2021-08-11T13:31:22.672Z</time>
      </trkpt>
      <trkpt lat="46.87595" lon="8.47612">
        <ele>2031</ele>
        <time>2021-08-11T13:31:23.672Z</time>
      </trkpt>
      <trkpt lat="46.87595" lon="8.47612">
        <ele>2031</ele>
        <time>2021-08-11T13:31:24.671Z</time>
      </trkpt>
      <trkpt lat="46.87595" lon="8.47611">
        <ele>2031</ele>
        <time>2021-08-11T13:31:25.671Z</time>
      </trkpt>
      <trkpt lat="46.87595" lon="8.4761">
        <ele>2031</ele>
        <time>2021-08-11T13:31:26.671Z</time>
      </trkpt>
      <trkpt lat="46.87595" lon="8.47609">
        <ele>2030</ele>
        <time>2021-08-11T13:31:27.672Z</time>
      </trkpt>
      <trkpt lat="46.87594" lon="8.47609">
        <ele>2029</ele>
        <time>2021-08-11T13:31:28.672Z</time>
      </trkpt>
      <trkpt lat="46.87594" lon="8.47608">
        <ele>2028</ele>
        <time>2021-08-11T13:31:29.671Z</time>
      </trkpt>
      <trkpt lat="46.87594" lon="8.47607">
        <ele>2028</ele>
        <time>2021-08-11T13:31:30.672Z</time>
      </trkpt>
      <trkpt lat="46.87593" lon="8.47607">
        <ele>2027</ele>
        <time>2021-08-11T13:31:31.672Z</time>
      </trkpt>
      <trkpt lat="46.87593" lon="8.47607">
        <ele>2027</ele>
        <time>2021-08-11T13:31:32.671Z</time>
      </trkpt>
      <trkpt lat="46.87593" lon="8.47606">
        <ele>2027</ele>
        <time>2021-08-11T13:31:33.672Z</time>
      </trkpt>
      <trkpt lat="46.87592" lon="8.47606">
        <ele>2028</ele>
        <time>2021-08-11T13:31:34.672Z</time>
      </trkpt>
      <trkpt lat="46.87592" lon="8.47605">
        <ele>2028</ele>
        <time>2021-08-11T13:31:35.671Z</time>
      </trkpt>
      <trkpt lat="46.87592" lon="8.47605">
        <ele>2029</ele>
        <time>2021-08-11T13:31:36.671Z</time>
      </trkpt>
      <trkpt lat="46.87591" lon="8.47604">
        <ele>2029</ele>
        <time>2021-08-11T13:31:37.671Z</time>
      </trkpt>
      <trkpt lat="46.8759" lon="8.47603">
        <ele>2029</ele>
        <time>2021-08-11T13:31:38.671Z</time>
      </trkpt>
      <trkpt lat="46.8759" lon="8.47603">
        <ele>2029</ele>
        <time>2021-08-11T13:31:39.671Z</time>
      </trkpt>
      <trkpt lat="46.8759" lon="8.47602">
        <ele>2029</ele>
        <time>2021-08-11T13:31:40.672Z</time>
      </trkpt>
      <trkpt lat="46.8759" lon="8.47602">
        <ele>2029</ele>
        <time>2021-08-11T13:31:41.672Z</time>
      </trkpt>
      <trkpt lat="46.8759" lon="8.47602">
        <ele>2029</ele>
        <time>2021-08-11T13:31:42.671Z</time>
      </trkpt>
      <trkpt lat="46.87588" lon="8.47601">
        <ele>2032</ele>
        <time>2021-08-11T13:31:43.672Z</time>
      </trkpt>
      <trkpt lat="46.87588" lon="8.47601">
        <ele>2032</ele>
        <time>2021-08-11T13:31:44.671Z</time>
      </trkpt>
      <trkpt lat="46.87588" lon="8.476">
        <ele>2032</ele>
        <time>2021-08-11T13:31:45.672Z</time>
      </trkpt>
      <trkpt lat="46.87588" lon="8.476">
        <ele>2033</ele>
        <time>2021-08-11T13:31:46.672Z</time>
      </trkpt>
      <trkpt lat="46.87588" lon="8.476">
        <ele>2033</ele>
        <time>2021-08-11T13:31:47.671Z</time>
      </trkpt>
      <trkpt lat="46.87588" lon="8.47599">
        <ele>2035</ele>
        <time>2021-08-11T13:31:48.673Z</time>
      </trkpt>
      <trkpt lat="46.87588" lon="8.476">
        <ele>2035</ele>
        <time>2021-08-11T13:31:49.673Z</time>
      </trkpt>
      <trkpt lat="46.87587" lon="8.476">
        <ele>2036</ele>
        <time>2021-08-11T13:31:50.672Z</time>
      </trkpt>
      <trkpt lat="46.87586" lon="8.47599">
        <ele>2036</ele>
        <time>2021-08-11T13:31:51.673Z</time>
      </trkpt>
      <trkpt lat="46.87585" lon="8.47599">
        <ele>2036</ele>
        <time>2021-08-11T13:31:52.673Z</time>
      </trkpt>
      <trkpt lat="46.87584" lon="8.47599">
        <ele>2036</ele>
        <time>2021-08-11T13:31:53.673Z</time>
      </trkpt>
      <trkpt lat="46.87583" lon="8.476">
        <ele>2037</ele>
        <time>2021-08-11T13:31:54.673Z</time>
      </trkpt>
      <trkpt lat="46.87582" lon="8.476">
        <ele>2037</ele>
        <time>2021-08-11T13:31:55.673Z</time>
      </trkpt>
      <trkpt lat="46.87582" lon="8.47601">
        <ele>2037</ele>
        <time>2021-08-11T13:31:56.673Z</time>
      </trkpt>
      <trkpt lat="46.87581" lon="8.47601">
        <ele>2037</ele>
        <time>2021-08-11T13:31:57.673Z</time>
      </trkpt>
      <trkpt lat="46.8758" lon="8.47601">
        <ele>2038</ele>
        <time>2021-08-11T13:31:58.673Z</time>
      </trkpt>
      <trkpt lat="46.87579" lon="8.476">
        <ele>2038</ele>
        <time>2021-08-11T13:31:59.672Z</time>
      </trkpt>
      <trkpt lat="46.87578" lon="8.47601">
        <ele>2038</ele>
        <time>2021-08-11T13:32:00.672Z</time>
      </trkpt>
      <trkpt lat="46.87577" lon="8.476">
        <ele>2039</ele>
        <time>2021-08-11T13:32:01.672Z</time>
      </trkpt>
      <trkpt lat="46.87577" lon="8.476">
        <ele>2040</ele>
        <time>2021-08-11T13:32:02.672Z</time>
      </trkpt>
      <trkpt lat="46.87577" lon="8.47599">
        <ele>2041</ele>
        <time>2021-08-11T13:32:03.673Z</time>
      </trkpt>
      <trkpt lat="46.87576" lon="8.47599">
        <ele>2041</ele>
        <time>2021-08-11T13:32:04.672Z</time>
      </trkpt>
      <trkpt lat="46.87576" lon="8.47599">
        <ele>2041</ele>
        <time>2021-08-11T13:32:05.673Z</time>
      </trkpt>
      <trkpt lat="46.87576" lon="8.47599">
        <ele>2041</ele>
        <time>2021-08-11T13:32:06.673Z</time>
      </trkpt>
      <trkpt lat="46.87576" lon="8.47598">
        <ele>2041</ele>
        <time>2021-08-11T13:32:07.673Z</time>
      </trkpt>
      <trkpt lat="46.87576" lon="8.47599">
        <ele>2041</ele>
        <time>2021-08-11T13:32:08.673Z</time>
      </trkpt>
      <trkpt lat="46.87576" lon="8.476">
        <ele>2041</ele>
        <time>2021-08-11T13:32:09.672Z</time>
      </trkpt>
      <trkpt lat="46.87574" lon="8.47598">
        <ele>2034</ele>
        <time>2021-08-11T13:32:10.673Z</time>
      </trkpt>
      <trkpt lat="46.87575" lon="8.47598">
        <ele>2034</ele>
        <time>2021-08-11T13:32:11.673Z</time>
      </trkpt>
      <trkpt lat="46.87574" lon="8.47599">
        <ele>2031</ele>
        <time>2021-08-11T13:32:12.673Z</time>
      </trkpt>
      <trkpt lat="46.87574" lon="8.47599">
        <ele>2031</ele>
        <time>2021-08-11T13:32:13.672Z</time>
      </trkpt>
      <trkpt lat="46.87578" lon="8.47599">
        <ele>2031</ele>
        <time>2021-08-11T13:32:14.672Z</time>
      </trkpt>
      <trkpt lat="46.87578" lon="8.47599">
        <ele>2031</ele>
        <time>2021-08-11T13:32:15.672Z</time>
      </trkpt>
      <trkpt lat="46.87578" lon="8.47599">
        <ele>2031</ele>
        <time>2021-08-11T13:32:16.672Z</time>
      </trkpt>
      <trkpt lat="46.87578" lon="8.47599">
        <ele>2030</ele>
        <time>2021-08-11T13:32:17.673Z</time>
      </trkpt>
      <trkpt lat="46.87578" lon="8.47598">
        <ele>2030</ele>
        <time>2021-08-11T13:32:18.673Z</time>
      </trkpt>
      <trkpt lat="46.87577" lon="8.47597">
        <ele>2030</ele>
        <time>2021-08-11T13:32:19.673Z</time>
      </trkpt>
      <trkpt lat="46.87577" lon="8.47596">
        <ele>2029</ele>
        <time>2021-08-11T13:32:20.673Z</time>
      </trkpt>
      <trkpt lat="46.87576" lon="8.47595">
        <ele>2029</ele>
        <time>2021-08-11T13:32:21.673Z</time>
      </trkpt>
      <trkpt lat="46.87576" lon="8.47595">
        <ele>2028</ele>
        <time>2021-08-11T13:32:22.673Z</time>
      </trkpt>
      <trkpt lat="46.87576" lon="8.47594">
        <ele>2028</ele>
        <time>2021-08-11T13:32:23.673Z</time>
      </trkpt>
      <trkpt lat="46.87576" lon="8.47593">
        <ele>2027</ele>
        <time>2021-08-11T13:32:24.673Z</time>
      </trkpt>
      <trkpt lat="46.87576" lon="8.47592">
        <ele>2026</ele>
        <time>2021-08-11T13:32:25.673Z</time>
      </trkpt>
      <trkpt lat="46.87577" lon="8.47591">
        <ele>2026</ele>
        <time>2021-08-11T13:32:26.673Z</time>
      </trkpt>
      <trkpt lat="46.87576" lon="8.47591">
        <ele>2025</ele>
        <time>2021-08-11T13:32:27.673Z</time>
      </trkpt>
      <trkpt lat="46.87576" lon="8.47591">
        <ele>2025</ele>
        <time>2021-08-11T13:32:28.673Z</time>
      </trkpt>
      <trkpt lat="46.87576" lon="8.47591">
        <ele>2025</ele>
        <time>2021-08-11T13:32:29.674Z</time>
      </trkpt>
      <trkpt lat="46.87576" lon="8.4759">
        <ele>2025</ele>
        <time>2021-08-11T13:32:30.673Z</time>
      </trkpt>
      <trkpt lat="46.87575" lon="8.47589">
        <ele>2026</ele>
        <time>2021-08-11T13:32:31.674Z</time>
      </trkpt>
      <trkpt lat="46.87575" lon="8.47588">
        <ele>2026</ele>
        <time>2021-08-11T13:32:32.673Z</time>
      </trkpt>
      <trkpt lat="46.87574" lon="8.47587">
        <ele>2027</ele>
        <time>2021-08-11T13:32:33.673Z</time>
      </trkpt>
      <trkpt lat="46.87574" lon="8.47586">
        <ele>2027</ele>
        <time>2021-08-11T13:32:34.673Z</time>
      </trkpt>
      <trkpt lat="46.87574" lon="8.47586">
        <ele>2026</ele>
        <time>2021-08-11T13:32:35.674Z</time>
      </trkpt>
      <trkpt lat="46.87574" lon="8.47585">
        <ele>2026</ele>
        <time>2021-08-11T13:32:36.673Z</time>
      </trkpt>
      <trkpt lat="46.87574" lon="8.47585">
        <ele>2026</ele>
        <time>2021-08-11T13:32:37.673Z</time>
      </trkpt>
      <trkpt lat="46.87574" lon="8.47584">
        <ele>2026</ele>
        <time>2021-08-11T13:32:38.673Z</time>
      </trkpt>
      <trkpt lat="46.87574" lon="8.47584">
        <ele>2026</ele>
        <time>2021-08-11T13:32:39.673Z</time>
      </trkpt>
      <trkpt lat="46.87573" lon="8.47584">
        <ele>2026</ele>
        <time>2021-08-11T13:32:40.673Z</time>
      </trkpt>
      <trkpt lat="46.87573" lon="8.47584">
        <ele>2027</ele>
        <time>2021-08-11T13:32:41.673Z</time>
      </trkpt>
      <trkpt lat="46.87572" lon="8.47583">
        <ele>2027</ele>
        <time>2021-08-11T13:32:42.673Z</time>
      </trkpt>
      <trkpt lat="46.87572" lon="8.47583">
        <ele>2027</ele>
        <time>2021-08-11T13:32:43.673Z</time>
      </trkpt>
      <trkpt lat="46.87571" lon="8.47583">
        <ele>2027</ele>
        <time>2021-08-11T13:32:44.673Z</time>
      </trkpt>
      <trkpt lat="46.8757" lon="8.47587">
        <ele>2028</ele>
        <time>2021-08-11T13:32:45.675Z</time>
      </trkpt>
      <trkpt lat="46.87572" lon="8.47582">
        <ele>2037</ele>
        <time>2021-08-11T13:32:46.675Z</time>
      </trkpt>
      <trkpt lat="46.87572" lon="8.4758">
        <ele>2037</ele>
        <time>2021-08-11T13:32:47.676Z</time>
      </trkpt>
      <trkpt lat="46.87572" lon="8.4758">
        <ele>2037</ele>
        <time>2021-08-11T13:32:48.675Z</time>
      </trkpt>
      <trkpt lat="46.87571" lon="8.47581">
        <ele>2036</ele>
        <time>2021-08-11T13:32:49.677Z</time>
      </trkpt>
      <trkpt lat="46.87572" lon="8.47583">
        <ele>2037</ele>
        <time>2021-08-11T13:32:50.677Z</time>
      </trkpt>
      <trkpt lat="46.87571" lon="8.47583">
        <ele>2037</ele>
        <time>2021-08-11T13:32:51.678Z</time>
      </trkpt>
      <trkpt lat="46.8757" lon="8.47583">
        <ele>2037</ele>
        <time>2021-08-11T13:32:52.677Z</time>
      </trkpt>
      <trkpt lat="46.8757" lon="8.47584">
        <ele>2036</ele>
        <time>2021-08-11T13:32:53.678Z</time>
      </trkpt>
      <trkpt lat="46.8757" lon="8.47584">
        <ele>2036</ele>
        <time>2021-08-11T13:32:54.678Z</time>
      </trkpt>
      <trkpt lat="46.87571" lon="8.47583">
        <ele>2037</ele>
        <time>2021-08-11T13:32:55.679Z</time>
      </trkpt>
      <trkpt lat="46.87571" lon="8.47583">
        <ele>2037</ele>
        <time>2021-08-11T13:32:56.679Z</time>
      </trkpt>
      <trkpt lat="46.87571" lon="8.47583">
        <ele>2038</ele>
        <time>2021-08-11T13:32:57.678Z</time>
      </trkpt>
      <trkpt lat="46.87573" lon="8.4758">
        <ele>2025</ele>
        <time>2021-08-11T13:32:58.678Z</time>
      </trkpt>
      <trkpt lat="46.87573" lon="8.47581">
        <ele>2025</ele>
        <time>2021-08-11T13:32:59.679Z</time>
      </trkpt>
      <trkpt lat="46.87572" lon="8.47581">
        <ele>2025</ele>
        <time>2021-08-11T13:33:00.678Z</time>
      </trkpt>
      <trkpt lat="46.87572" lon="8.47581">
        <ele>2025</ele>
        <time>2021-08-11T13:33:01.678Z</time>
      </trkpt>
      <trkpt lat="46.87572" lon="8.4758">
        <ele>2025</ele>
        <time>2021-08-11T13:33:02.678Z</time>
      </trkpt>
      <trkpt lat="46.87572" lon="8.4758">
        <ele>2025</ele>
        <time>2021-08-11T13:33:03.679Z</time>
      </trkpt>
      <trkpt lat="46.87572" lon="8.4758">
        <ele>2025</ele>
        <time>2021-08-11T13:33:04.678Z</time>
      </trkpt>
      <trkpt lat="46.87572" lon="8.47579">
        <ele>2024</ele>
        <time>2021-08-11T13:33:05.679Z</time>
      </trkpt>
      <trkpt lat="46.87572" lon="8.47579">
        <ele>2024</ele>
        <time>2021-08-11T13:33:06.678Z</time>
      </trkpt>
      <trkpt lat="46.87573" lon="8.4758">
        <ele>2024</ele>
        <time>2021-08-11T13:33:07.679Z</time>
      </trkpt>
      <trkpt lat="46.87574" lon="8.4758">
        <ele>2024</ele>
        <time>2021-08-11T13:33:08.679Z</time>
      </trkpt>
      <trkpt lat="46.87574" lon="8.47581">
        <ele>2024</ele>
        <time>2021-08-11T13:33:09.678Z</time>
      </trkpt>
      <trkpt lat="46.87574" lon="8.47581">
        <ele>2024</ele>
        <time>2021-08-11T13:33:10.679Z</time>
      </trkpt>
      <trkpt lat="46.87573" lon="8.47581">
        <ele>2025</ele>
        <time>2021-08-11T13:33:11.679Z</time>
      </trkpt>
      <trkpt lat="46.87573" lon="8.47581">
        <ele>2025</ele>
        <time>2021-08-11T13:33:12.679Z</time>
      </trkpt>
      <trkpt lat="46.87573" lon="8.47582">
        <ele>2025</ele>
        <time>2021-08-11T13:33:13.678Z</time>
      </trkpt>
      <trkpt lat="46.87573" lon="8.47583">
        <ele>2025</ele>
        <time>2021-08-11T13:33:14.679Z</time>
      </trkpt>
      <trkpt lat="46.87573" lon="8.47584">
        <ele>2025</ele>
        <time>2021-08-11T13:33:15.679Z</time>
      </trkpt>
      <trkpt lat="46.87573" lon="8.47585">
        <ele>2026</ele>
        <time>2021-08-11T13:33:16.679Z</time>
      </trkpt>
      <trkpt lat="46.87572" lon="8.47586">
        <ele>2026</ele>
        <time>2021-08-11T13:33:17.679Z</time>
      </trkpt>
      <trkpt lat="46.87572" lon="8.47585">
        <ele>2027</ele>
        <time>2021-08-11T13:33:18.678Z</time>
      </trkpt>
      <trkpt lat="46.87572" lon="8.47585">
        <ele>2027</ele>
        <time>2021-08-11T13:33:19.679Z</time>
      </trkpt>
      <trkpt lat="46.87572" lon="8.47585">
        <ele>2028</ele>
        <time>2021-08-11T13:33:20.679Z</time>
      </trkpt>
      <trkpt lat="46.87573" lon="8.47584">
        <ele>2029</ele>
        <time>2021-08-11T13:33:21.679Z</time>
      </trkpt>
      <trkpt lat="46.87573" lon="8.47583">
        <ele>2029</ele>
        <time>2021-08-11T13:33:22.678Z</time>
      </trkpt>
      <trkpt lat="46.87573" lon="8.47582">
        <ele>2030</ele>
        <time>2021-08-11T13:33:23.678Z</time>
      </trkpt>
      <trkpt lat="46.87574" lon="8.47581">
        <ele>2030</ele>
        <time>2021-08-11T13:33:24.679Z</time>
      </trkpt>
      <trkpt lat="46.87575" lon="8.4758">
        <ele>2030</ele>
        <time>2021-08-11T13:33:25.679Z</time>
      </trkpt>
      <trkpt lat="46.87575" lon="8.4758">
        <ele>2030</ele>
        <time>2021-08-11T13:33:26.679Z</time>
      </trkpt>
      <trkpt lat="46.87576" lon="8.47579">
        <ele>2031</ele>
        <time>2021-08-11T13:33:27.679Z</time>
      </trkpt>
      <trkpt lat="46.87577" lon="8.47578">
        <ele>2031</ele>
        <time>2021-08-11T13:33:28.679Z</time>
      </trkpt>
      <trkpt lat="46.87578" lon="8.47577">
        <ele>2031</ele>
        <time>2021-08-11T13:33:29.678Z</time>
      </trkpt>
      <trkpt lat="46.87578" lon="8.47576">
        <ele>2031</ele>
        <time>2021-08-11T13:33:30.678Z</time>
      </trkpt>
      <trkpt lat="46.87579" lon="8.47576">
        <ele>2031</ele>
        <time>2021-08-11T13:33:31.679Z</time>
      </trkpt>
      <trkpt lat="46.8758" lon="8.47576">
        <ele>2031</ele>
        <time>2021-08-11T13:33:32.678Z</time>
      </trkpt>
      <trkpt lat="46.8758" lon="8.47576">
        <ele>2032</ele>
        <time>2021-08-11T13:33:33.679Z</time>
      </trkpt>
      <trkpt lat="46.87579" lon="8.47577">
        <ele>2032</ele>
        <time>2021-08-11T13:33:34.679Z</time>
      </trkpt>
      <trkpt lat="46.87579" lon="8.47577">
        <ele>2032</ele>
        <time>2021-08-11T13:33:35.679Z</time>
      </trkpt>
      <trkpt lat="46.87579" lon="8.47578">
        <ele>2032</ele>
        <time>2021-08-11T13:33:36.679Z</time>
      </trkpt>
      <trkpt lat="46.87579" lon="8.47578">
        <ele>2032</ele>
        <time>2021-08-11T13:33:37.679Z</time>
      </trkpt>
      <trkpt lat="46.8758" lon="8.47577">
        <ele>2033</ele>
        <time>2021-08-11T13:33:38.679Z</time>
      </trkpt>
      <trkpt lat="46.87579" lon="8.47576">
        <ele>2033</ele>
        <time>2021-08-11T13:33:39.679Z</time>
      </trkpt>
      <trkpt lat="46.87579" lon="8.47576">
        <ele>2033</ele>
        <time>2021-08-11T13:33:40.679Z</time>
      </trkpt>
      <trkpt lat="46.87577" lon="8.47576">
        <ele>2033</ele>
        <time>2021-08-11T13:33:41.678Z</time>
      </trkpt>
      <trkpt lat="46.87577" lon="8.47576">
        <ele>2033</ele>
        <time>2021-08-11T13:33:42.679Z</time>
      </trkpt>
      <trkpt lat="46.87575" lon="8.47577">
        <ele>2034</ele>
        <time>2021-08-11T13:33:43.678Z</time>
      </trkpt>
      <trkpt lat="46.87575" lon="8.47577">
        <ele>2033</ele>
        <time>2021-08-11T13:33:44.679Z</time>
      </trkpt>
      <trkpt lat="46.87575" lon="8.47577">
        <ele>2033</ele>
        <time>2021-08-11T13:33:45.679Z</time>
      </trkpt>
      <trkpt lat="46.87576" lon="8.47576">
        <ele>2033</ele>
        <time>2021-08-11T13:33:46.679Z</time>
      </trkpt>
      <trkpt lat="46.87578" lon="8.47575">
        <ele>2033</ele>
        <time>2021-08-11T13:33:47.679Z</time>
      </trkpt>
      <trkpt lat="46.8758" lon="8.47572">
        <ele>2033</ele>
        <time>2021-08-11T13:33:48.678Z</time>
      </trkpt>
      <trkpt lat="46.87582" lon="8.4757">
        <ele>2033</ele>
        <time>2021-08-11T13:33:49.679Z</time>
      </trkpt>
      <trkpt lat="46.87584" lon="8.47569">
        <ele>2033</ele>
        <time>2021-08-11T13:33:50.679Z</time>
      </trkpt>
      <trkpt lat="46.87585" lon="8.4757">
        <ele>2033</ele>
        <time>2021-08-11T13:33:51.679Z</time>
      </trkpt>
      <trkpt lat="46.87586" lon="8.47569">
        <ele>2033</ele>
        <time>2021-08-11T13:33:52.679Z</time>
      </trkpt>
      <trkpt lat="46.87587" lon="8.47568">
        <ele>2033</ele>
        <time>2021-08-11T13:33:53.678Z</time>
      </trkpt>
      <trkpt lat="46.87585" lon="8.4757">
        <ele>2033</ele>
        <time>2021-08-11T13:33:54.678Z</time>
      </trkpt>
      <trkpt lat="46.87582" lon="8.47572">
        <ele>2033</ele>
        <time>2021-08-11T13:33:55.679Z</time>
      </trkpt>
      <trkpt lat="46.8758" lon="8.47574">
        <ele>2033</ele>
        <time>2021-08-11T13:33:56.678Z</time>
      </trkpt>
      <trkpt lat="46.87576" lon="8.47577">
        <ele>2033</ele>
        <time>2021-08-11T13:33:57.679Z</time>
      </trkpt>
      <trkpt lat="46.87574" lon="8.47578">
        <ele>2034</ele>
        <time>2021-08-11T13:33:58.679Z</time>
      </trkpt>
      <trkpt lat="46.87572" lon="8.4758">
        <ele>2034</ele>
        <time>2021-08-11T13:33:59.679Z</time>
      </trkpt>
      <trkpt lat="46.8757" lon="8.4758">
        <ele>2034</ele>
        <time>2021-08-11T13:34:00.679Z</time>
      </trkpt>
      <trkpt lat="46.87568" lon="8.4758">
        <ele>2034</ele>
        <time>2021-08-11T13:34:01.678Z</time>
      </trkpt>
      <trkpt lat="46.87566" lon="8.47581">
        <ele>2034</ele>
        <time>2021-08-11T13:34:02.679Z</time>
      </trkpt>
      <trkpt lat="46.87564" lon="8.47582">
        <ele>2034</ele>
        <time>2021-08-11T13:34:03.678Z</time>
      </trkpt>
      <trkpt lat="46.87563" lon="8.47583">
        <ele>2034</ele>
        <time>2021-08-11T13:34:04.679Z</time>
      </trkpt>
      <trkpt lat="46.87563" lon="8.47584">
        <ele>2035</ele>
        <time>2021-08-11T13:34:05.679Z</time>
      </trkpt>
      <trkpt lat="46.87564" lon="8.47583">
        <ele>2035</ele>
        <time>2021-08-11T13:34:06.678Z</time>
      </trkpt>
      <trkpt lat="46.87565" lon="8.47583">
        <ele>2035</ele>
        <time>2021-08-11T13:34:07.679Z</time>
      </trkpt>
      <trkpt lat="46.87565" lon="8.47584">
        <ele>2037</ele>
        <time>2021-08-11T13:34:08.680Z</time>
      </trkpt>
      <trkpt lat="46.87565" lon="8.47584">
        <ele>2037</ele>
        <time>2021-08-11T13:34:09.680Z</time>
      </trkpt>
      <trkpt lat="46.87564" lon="8.47584">
        <ele>2037</ele>
        <time>2021-08-11T13:34:10.680Z</time>
      </trkpt>
      <trkpt lat="46.87564" lon="8.47585">
        <ele>2037</ele>
        <time>2021-08-11T13:34:11.680Z</time>
      </trkpt>
      <trkpt lat="46.87565" lon="8.47586">
        <ele>2037</ele>
        <time>2021-08-11T13:34:12.679Z</time>
      </trkpt>
      <trkpt lat="46.87568" lon="8.47585">
        <ele>2039</ele>
        <time>2021-08-11T13:34:13.680Z</time>
      </trkpt>
      <trkpt lat="46.87569" lon="8.47583">
        <ele>2040</ele>
        <time>2021-08-11T13:34:14.680Z</time>
      </trkpt>
      <trkpt lat="46.87575" lon="8.47577">
        <ele>2041</ele>
        <time>2021-08-11T13:34:15.681Z</time>
      </trkpt>
      <trkpt lat="46.87576" lon="8.47575">
        <ele>2042</ele>
        <time>2021-08-11T13:34:16.680Z</time>
      </trkpt>
      <trkpt lat="46.87576" lon="8.47575">
        <ele>2042</ele>
        <time>2021-08-11T13:34:17.680Z</time>
      </trkpt>
      <trkpt lat="46.87578" lon="8.47575">
        <ele>2042</ele>
        <time>2021-08-11T13:34:18.681Z</time>
      </trkpt>
      <trkpt lat="46.87579" lon="8.47575">
        <ele>2042</ele>
        <time>2021-08-11T13:34:19.680Z</time>
      </trkpt>
      <trkpt lat="46.87579" lon="8.47576">
        <ele>2042</ele>
        <time>2021-08-11T13:34:20.680Z</time>
      </trkpt>
      <trkpt lat="46.87578" lon="8.47576">
        <ele>2043</ele>
        <time>2021-08-11T13:34:21.681Z</time>
      </trkpt>
      <trkpt lat="46.87577" lon="8.47577">
        <ele>2043</ele>
        <time>2021-08-11T13:34:22.680Z</time>
      </trkpt>
      <trkpt lat="46.87577" lon="8.47576">
        <ele>2043</ele>
        <time>2021-08-11T13:34:23.680Z</time>
      </trkpt>
      <trkpt lat="46.87578" lon="8.47576">
        <ele>2043</ele>
        <time>2021-08-11T13:34:24.680Z</time>
      </trkpt>
      <trkpt lat="46.87579" lon="8.47575">
        <ele>2043</ele>
        <time>2021-08-11T13:34:25.681Z</time>
      </trkpt>
      <trkpt lat="46.8758" lon="8.47575">
        <ele>2043</ele>
        <time>2021-08-11T13:34:26.681Z</time>
      </trkpt>
      <trkpt lat="46.8758" lon="8.47574">
        <ele>2043</ele>
        <time>2021-08-11T13:34:27.681Z</time>
      </trkpt>
      <trkpt lat="46.8758" lon="8.47574">
        <ele>2043</ele>
        <time>2021-08-11T13:34:28.681Z</time>
      </trkpt>
      <trkpt lat="46.8758" lon="8.47574">
        <ele>2043</ele>
        <time>2021-08-11T13:34:29.681Z</time>
      </trkpt>
      <trkpt lat="46.8758" lon="8.47574">
        <ele>2044</ele>
        <time>2021-08-11T13:34:30.680Z</time>
      </trkpt>
      <trkpt lat="46.87579" lon="8.47575">
        <ele>2043</ele>
        <time>2021-08-11T13:34:31.680Z</time>
      </trkpt>
      <trkpt lat="46.87578" lon="8.47578">
        <ele>2042</ele>
        <time>2021-08-11T13:34:32.681Z</time>
      </trkpt>
      <trkpt lat="46.87579" lon="8.47578">
        <ele>2042</ele>
        <time>2021-08-11T13:34:33.680Z</time>
      </trkpt>
      <trkpt lat="46.87579" lon="8.47578">
        <ele>2041</ele>
        <time>2021-08-11T13:34:34.680Z</time>
      </trkpt>
      <trkpt lat="46.87578" lon="8.47577">
        <ele>2041</ele>
        <time>2021-08-11T13:34:35.681Z</time>
      </trkpt>
      <trkpt lat="46.87574" lon="8.47579">
        <ele>2036</ele>
        <time>2021-08-11T13:34:36.683Z</time>
      </trkpt>
      <trkpt lat="46.87575" lon="8.47579">
        <ele>2039</ele>
        <time>2021-08-11T13:34:37.684Z</time>
      </trkpt>
      <trkpt lat="46.87574" lon="8.4758">
        <ele>2039</ele>
        <time>2021-08-11T13:34:38.683Z</time>
      </trkpt>
      <trkpt lat="46.87572" lon="8.4758">
        <ele>2040</ele>
        <time>2021-08-11T13:34:39.683Z</time>
      </trkpt>
      <trkpt lat="46.87572" lon="8.47581">
        <ele>2042</ele>
        <time>2021-08-11T13:34:40.684Z</time>
      </trkpt>
      <trkpt lat="46.87571" lon="8.47581">
        <ele>2043</ele>
        <time>2021-08-11T13:34:41.684Z</time>
      </trkpt>
      <trkpt lat="46.87569" lon="8.47582">
        <ele>2038</ele>
        <time>2021-08-11T13:34:42.685Z</time>
      </trkpt>
      <trkpt lat="46.87568" lon="8.47583">
        <ele>2038</ele>
        <time>2021-08-11T13:34:43.685Z</time>
      </trkpt>
      <trkpt lat="46.87567" lon="8.47584">
        <ele>2040</ele>
        <time>2021-08-11T13:34:44.686Z</time>
      </trkpt>
      <trkpt lat="46.87567" lon="8.47582">
        <ele>2040</ele>
        <time>2021-08-11T13:34:45.685Z</time>
      </trkpt>
      <trkpt lat="46.87567" lon="8.47582">
        <ele>2040</ele>
        <time>2021-08-11T13:34:46.685Z</time>
      </trkpt>
      <trkpt lat="46.87569" lon="8.47582">
        <ele>2040</ele>
        <time>2021-08-11T13:34:47.685Z</time>
      </trkpt>
      <trkpt lat="46.87568" lon="8.47582">
        <ele>2040</ele>
        <time>2021-08-11T13:34:48.685Z</time>
      </trkpt>
      <trkpt lat="46.87568" lon="8.47582">
        <ele>2040</ele>
        <time>2021-08-11T13:34:49.686Z</time>
      </trkpt>
      <trkpt lat="46.87569" lon="8.47577">
        <ele>2035</ele>
        <time>2021-08-11T13:34:50.687Z</time>
      </trkpt>
      <trkpt lat="46.87569" lon="8.47577">
        <ele>2035</ele>
        <time>2021-08-11T13:34:51.687Z</time>
      </trkpt>
      <trkpt lat="46.87569" lon="8.47576">
        <ele>2035</ele>
        <time>2021-08-11T13:34:52.686Z</time>
      </trkpt>
      <trkpt lat="46.87569" lon="8.47576">
        <ele>2035</ele>
        <time>2021-08-11T13:34:53.687Z</time>
      </trkpt>
      <trkpt lat="46.8757" lon="8.47576">
        <ele>2035</ele>
        <time>2021-08-11T13:34:54.687Z</time>
      </trkpt>
      <trkpt lat="46.87572" lon="8.47575">
        <ele>2040</ele>
        <time>2021-08-11T13:34:55.688Z</time>
      </trkpt>
      <trkpt lat="46.87572" lon="8.47575">
        <ele>2040</ele>
        <time>2021-08-11T13:34:56.687Z</time>
      </trkpt>
      <trkpt lat="46.87572" lon="8.47574">
        <ele>2041</ele>
        <time>2021-08-11T13:34:57.687Z</time>
      </trkpt>
      <trkpt lat="46.87572" lon="8.47574">
        <ele>2045</ele>
        <time>2021-08-11T13:34:58.687Z</time>
      </trkpt>
      <trkpt lat="46.87571" lon="8.47575">
        <ele>2046</ele>
        <time>2021-08-11T13:35:00.688Z</time>
      </trkpt>
      <trkpt lat="46.8757" lon="8.47575">
        <ele>2047</ele>
        <time>2021-08-11T13:35:01.688Z</time>
      </trkpt>
      <trkpt lat="46.87573" lon="8.4758">
        <ele>2040</ele>
        <time>2021-08-11T13:35:02.691Z</time>
      </trkpt>
      <trkpt lat="46.87573" lon="8.47579">
        <ele>2040</ele>
        <time>2021-08-11T13:35:03.690Z</time>
      </trkpt>
      <trkpt lat="46.87573" lon="8.47579">
        <ele>2040</ele>
        <time>2021-08-11T13:35:04.690Z</time>
      </trkpt>
      <trkpt lat="46.87572" lon="8.47579">
        <ele>2039</ele>
        <time>2021-08-11T13:35:05.691Z</time>
      </trkpt>
      <trkpt lat="46.87572" lon="8.47579">
        <ele>2039</ele>
        <time>2021-08-11T13:35:06.690Z</time>
      </trkpt>
      <trkpt lat="46.87572" lon="8.4758">
        <ele>2039</ele>
        <time>2021-08-11T13:35:07.691Z</time>
      </trkpt>
      <trkpt lat="46.87572" lon="8.4758">
        <ele>2040</ele>
        <time>2021-08-11T13:35:08.690Z</time>
      </trkpt>
      <trkpt lat="46.87573" lon="8.4758">
        <ele>2039</ele>
        <time>2021-08-11T13:35:09.690Z</time>
      </trkpt>
      <trkpt lat="46.87573" lon="8.4758">
        <ele>2039</ele>
        <time>2021-08-11T13:35:10.691Z</time>
      </trkpt>
      <trkpt lat="46.87573" lon="8.4758">
        <ele>2039</ele>
        <time>2021-08-11T13:35:11.691Z</time>
      </trkpt>
      <trkpt lat="46.87572" lon="8.47579">
        <ele>2039</ele>
        <time>2021-08-11T13:35:12.690Z</time>
      </trkpt>
      <trkpt lat="46.87572" lon="8.47578">
        <ele>2039</ele>
        <time>2021-08-11T13:35:13.691Z</time>
      </trkpt>
      <trkpt lat="46.87572" lon="8.47578">
        <ele>2039</ele>
        <time>2021-08-11T13:35:14.691Z</time>
      </trkpt>
      <trkpt lat="46.87572" lon="8.47577">
        <ele>2040</ele>
        <time>2021-08-11T13:35:15.691Z</time>
      </trkpt>
      <trkpt lat="46.87572" lon="8.47577">
        <ele>2040</ele>
        <time>2021-08-11T13:35:16.691Z</time>
      </trkpt>
      <trkpt lat="46.87572" lon="8.47577">
        <ele>2040</ele>
        <time>2021-08-11T13:35:17.690Z</time>
      </trkpt>
      <trkpt lat="46.87571" lon="8.47577">
        <ele>2041</ele>
        <time>2021-08-11T13:35:18.690Z</time>
      </trkpt>
      <trkpt lat="46.87571" lon="8.47577">
        <ele>2041</ele>
        <time>2021-08-11T13:35:19.691Z</time>
      </trkpt>
      <trkpt lat="46.8757" lon="8.47577">
        <ele>2041</ele>
        <time>2021-08-11T13:35:20.691Z</time>
      </trkpt>
      <trkpt lat="46.87571" lon="8.47577">
        <ele>2041</ele>
        <time>2021-08-11T13:35:21.691Z</time>
      </trkpt>
      <trkpt lat="46.87571" lon="8.47577">
        <ele>2041</ele>
        <time>2021-08-11T13:35:22.691Z</time>
      </trkpt>
      <trkpt lat="46.87571" lon="8.47577">
        <ele>2041</ele>
        <time>2021-08-11T13:35:23.690Z</time>
      </trkpt>
      <trkpt lat="46.87571" lon="8.47578">
        <ele>2041</ele>
        <time>2021-08-11T13:35:24.691Z</time>
      </trkpt>
      <trkpt lat="46.8757" lon="8.47578">
        <ele>2041</ele>
        <time>2021-08-11T13:35:25.691Z</time>
      </trkpt>
      <trkpt lat="46.8757" lon="8.47578">
        <ele>2041</ele>
        <time>2021-08-11T13:35:26.691Z</time>
      </trkpt>
      <trkpt lat="46.87569" lon="8.47578">
        <ele>2040</ele>
        <time>2021-08-11T13:35:27.691Z</time>
      </trkpt>
      <trkpt lat="46.8757" lon="8.47577">
        <ele>2040</ele>
        <time>2021-08-11T13:35:28.691Z</time>
      </trkpt>
      <trkpt lat="46.8757" lon="8.47577">
        <ele>2040</ele>
        <time>2021-08-11T13:35:29.690Z</time>
      </trkpt>
      <trkpt lat="46.87571" lon="8.47577">
        <ele>2039</ele>
        <time>2021-08-11T13:35:30.690Z</time>
      </trkpt>
      <trkpt lat="46.87572" lon="8.47578">
        <ele>2038</ele>
        <time>2021-08-11T13:35:31.692Z</time>
      </trkpt>
      <trkpt lat="46.87573" lon="8.47578">
        <ele>2038</ele>
        <time>2021-08-11T13:35:32.692Z</time>
      </trkpt>
      <trkpt lat="46.87573" lon="8.47578">
        <ele>2038</ele>
        <time>2021-08-11T13:35:33.692Z</time>
      </trkpt>
      <trkpt lat="46.87573" lon="8.47578">
        <ele>2038</ele>
        <time>2021-08-11T13:35:34.692Z</time>
      </trkpt>
      <trkpt lat="46.87572" lon="8.47578">
        <ele>2039</ele>
        <time>2021-08-11T13:35:35.692Z</time>
      </trkpt>
      <trkpt lat="46.87572" lon="8.47578">
        <ele>2039</ele>
        <time>2021-08-11T13:35:36.691Z</time>
      </trkpt>
      <trkpt lat="46.87572" lon="8.47578">
        <ele>2039</ele>
        <time>2021-08-11T13:35:37.692Z</time>
      </trkpt>
      <trkpt lat="46.87573" lon="8.47578">
        <ele>2040</ele>
        <time>2021-08-11T13:35:38.692Z</time>
      </trkpt>
      <trkpt lat="46.87574" lon="8.47578">
        <ele>2040</ele>
        <time>2021-08-11T13:35:39.692Z</time>
      </trkpt>
      <trkpt lat="46.87575" lon="8.47577">
        <ele>2041</ele>
        <time>2021-08-11T13:35:40.691Z</time>
      </trkpt>
      <trkpt lat="46.87576" lon="8.47577">
        <ele>2041</ele>
        <time>2021-08-11T13:35:41.691Z</time>
      </trkpt>
      <trkpt lat="46.87576" lon="8.47577">
        <ele>2041</ele>
        <time>2021-08-11T13:35:42.692Z</time>
      </trkpt>
      <trkpt lat="46.87577" lon="8.47577">
        <ele>2041</ele>
        <time>2021-08-11T13:35:43.692Z</time>
      </trkpt>
      <trkpt lat="46.87576" lon="8.47578">
        <ele>2041</ele>
        <time>2021-08-11T13:35:44.692Z</time>
      </trkpt>
      <trkpt lat="46.87576" lon="8.47578">
        <ele>2041</ele>
        <time>2021-08-11T13:35:45.692Z</time>
      </trkpt>
      <trkpt lat="46.87576" lon="8.47578">
        <ele>2041</ele>
        <time>2021-08-11T13:35:46.691Z</time>
      </trkpt>
      <trkpt lat="46.87577" lon="8.47577">
        <ele>2041</ele>
        <time>2021-08-11T13:35:47.691Z</time>
      </trkpt>
      <trkpt lat="46.87577" lon="8.47577">
        <ele>2041</ele>
        <time>2021-08-11T13:35:48.692Z</time>
      </trkpt>
      <trkpt lat="46.87576" lon="8.47575">
        <ele>2041</ele>
        <time>2021-08-11T13:35:49.693Z</time>
      </trkpt>
      <trkpt lat="46.87575" lon="8.47575">
        <ele>2041</ele>
        <time>2021-08-11T13:35:50.692Z</time>
      </trkpt>
      <trkpt lat="46.87575" lon="8.47575">
        <ele>2041</ele>
        <time>2021-08-11T13:35:51.692Z</time>
      </trkpt>
      <trkpt lat="46.87575" lon="8.47575">
        <ele>2040</ele>
        <time>2021-08-11T13:35:52.692Z</time>
      </trkpt>
      <trkpt lat="46.87575" lon="8.47576">
        <ele>2040</ele>
        <time>2021-08-11T13:35:53.692Z</time>
      </trkpt>
      <trkpt lat="46.87577" lon="8.47577">
        <ele>2042</ele>
        <time>2021-08-11T13:35:54.692Z</time>
      </trkpt>
      <trkpt lat="46.87577" lon="8.47576">
        <ele>2042</ele>
        <time>2021-08-11T13:35:55.692Z</time>
      </trkpt>
      <trkpt lat="46.87577" lon="8.47575">
        <ele>2042</ele>
        <time>2021-08-11T13:35:56.692Z</time>
      </trkpt>
      <trkpt lat="46.87576" lon="8.47575">
        <ele>2042</ele>
        <time>2021-08-11T13:35:57.693Z</time>
      </trkpt>
      <trkpt lat="46.87575" lon="8.47575">
        <ele>2042</ele>
        <time>2021-08-11T13:35:58.692Z</time>
      </trkpt>
      <trkpt lat="46.87576" lon="8.47576">
        <ele>2041</ele>
        <time>2021-08-11T13:35:59.693Z</time>
      </trkpt>
      <trkpt lat="46.87576" lon="8.47576">
        <ele>2039</ele>
        <time>2021-08-11T13:36:00.694Z</time>
      </trkpt>
      <trkpt lat="46.87575" lon="8.47576">
        <ele>2038</ele>
        <time>2021-08-11T13:36:01.694Z</time>
      </trkpt>
      <trkpt lat="46.87573" lon="8.47573">
        <ele>2031</ele>
        <time>2021-08-11T13:36:02.694Z</time>
      </trkpt>
      <trkpt lat="46.87573" lon="8.47574">
        <ele>2031</ele>
        <time>2021-08-11T13:36:03.694Z</time>
      </trkpt>
      <trkpt lat="46.8757" lon="8.47575">
        <ele>2026</ele>
        <time>2021-08-11T13:36:04.694Z</time>
      </trkpt>
      <trkpt lat="46.87569" lon="8.47575">
        <ele>2025</ele>
        <time>2021-08-11T13:36:05.693Z</time>
      </trkpt>
      <trkpt lat="46.87569" lon="8.47575">
        <ele>2025</ele>
        <time>2021-08-11T13:36:06.693Z</time>
      </trkpt>
      <trkpt lat="46.8757" lon="8.47575">
        <ele>2025</ele>
        <time>2021-08-11T13:36:07.694Z</time>
      </trkpt>
      <trkpt lat="46.8757" lon="8.47577">
        <ele>2025</ele>
        <time>2021-08-11T13:36:08.694Z</time>
      </trkpt>
      <trkpt lat="46.87571" lon="8.47578">
        <ele>2026</ele>
        <time>2021-08-11T13:36:09.694Z</time>
      </trkpt>
      <trkpt lat="46.8757" lon="8.47578">
        <ele>2026</ele>
        <time>2021-08-11T13:36:10.693Z</time>
      </trkpt>
      <trkpt lat="46.87569" lon="8.47577">
        <ele>2027</ele>
        <time>2021-08-11T13:36:11.694Z</time>
      </trkpt>
      <trkpt lat="46.87568" lon="8.47577">
        <ele>2027</ele>
        <time>2021-08-11T13:36:12.694Z</time>
      </trkpt>
      <trkpt lat="46.87569" lon="8.47577">
        <ele>2027</ele>
        <time>2021-08-11T13:36:13.693Z</time>
      </trkpt>
      <trkpt lat="46.87569" lon="8.47577">
        <ele>2026</ele>
        <time>2021-08-11T13:36:14.694Z</time>
      </trkpt>
      <trkpt lat="46.87569" lon="8.47577">
        <ele>2026</ele>
        <time>2021-08-11T13:36:15.693Z</time>
      </trkpt>
      <trkpt lat="46.8757" lon="8.47577">
        <ele>2026</ele>
        <time>2021-08-11T13:36:16.694Z</time>
      </trkpt>
      <trkpt lat="46.8757" lon="8.47577">
        <ele>2026</ele>
        <time>2021-08-11T13:36:17.694Z</time>
      </trkpt>
      <trkpt lat="46.8757" lon="8.47578">
        <ele>2032</ele>
        <time>2021-08-11T13:36:18.694Z</time>
      </trkpt>
      <trkpt lat="46.8757" lon="8.47578">
        <ele>2032</ele>
        <time>2021-08-11T13:36:19.695Z</time>
      </trkpt>
      <trkpt lat="46.87569" lon="8.47577">
        <ele>2033</ele>
        <time>2021-08-11T13:36:20.694Z</time>
      </trkpt>
      <trkpt lat="46.87568" lon="8.47577">
        <ele>2033</ele>
        <time>2021-08-11T13:36:21.695Z</time>
      </trkpt>
      <trkpt lat="46.87568" lon="8.47577">
        <ele>2035</ele>
        <time>2021-08-11T13:36:22.696Z</time>
      </trkpt>
      <trkpt lat="46.87569" lon="8.47577">
        <ele>2035</ele>
        <time>2021-08-11T13:36:23.695Z</time>
      </trkpt>
      <trkpt lat="46.87569" lon="8.47577">
        <ele>2035</ele>
        <time>2021-08-11T13:36:24.695Z</time>
      </trkpt>
      <trkpt lat="46.87569" lon="8.47576">
        <ele>2034</ele>
        <time>2021-08-11T13:36:25.695Z</time>
      </trkpt>
      <trkpt lat="46.87569" lon="8.47577">
        <ele>2034</ele>
        <time>2021-08-11T13:36:26.695Z</time>
      </trkpt>
      <trkpt lat="46.8757" lon="8.47577">
        <ele>2030</ele>
        <time>2021-08-11T13:36:27.696Z</time>
      </trkpt>
      <trkpt lat="46.87569" lon="8.47578">
        <ele>2029</ele>
        <time>2021-08-11T13:36:28.697Z</time>
      </trkpt>
      <trkpt lat="46.87569" lon="8.47578">
        <ele>2029</ele>
        <time>2021-08-11T13:36:29.697Z</time>
      </trkpt>
      <trkpt lat="46.87569" lon="8.47578">
        <ele>2029</ele>
        <time>2021-08-11T13:36:30.696Z</time>
      </trkpt>
      <trkpt lat="46.87569" lon="8.47579">
        <ele>2029</ele>
        <time>2021-08-11T13:36:31.696Z</time>
      </trkpt>
      <trkpt lat="46.87569" lon="8.4758">
        <ele>2029</ele>
        <time>2021-08-11T13:36:32.696Z</time>
      </trkpt>
      <trkpt lat="46.87569" lon="8.4758">
        <ele>2029</ele>
        <time>2021-08-11T13:36:33.697Z</time>
      </trkpt>
      <trkpt lat="46.87569" lon="8.4758">
        <ele>2028</ele>
        <time>2021-08-11T13:36:34.697Z</time>
      </trkpt>
      <trkpt lat="46.87569" lon="8.4758">
        <ele>2028</ele>
        <time>2021-08-11T13:36:35.697Z</time>
      </trkpt>
      <trkpt lat="46.87569" lon="8.47581">
        <ele>2028</ele>
        <time>2021-08-11T13:36:36.698Z</time>
      </trkpt>
      <trkpt lat="46.87569" lon="8.47582">
        <ele>2028</ele>
        <time>2021-08-11T13:36:37.698Z</time>
      </trkpt>
      <trkpt lat="46.8757" lon="8.47582">
        <ele>2028</ele>
        <time>2021-08-11T13:36:38.697Z</time>
      </trkpt>
      <trkpt lat="46.87571" lon="8.47582">
        <ele>2029</ele>
        <time>2021-08-11T13:36:39.698Z</time>
      </trkpt>
      <trkpt lat="46.87571" lon="8.47582">
        <ele>2029</ele>
        <time>2021-08-11T13:36:40.697Z</time>
      </trkpt>
      <trkpt lat="46.87571" lon="8.47583">
        <ele>2029</ele>
        <time>2021-08-11T13:36:41.698Z</time>
      </trkpt>
      <trkpt lat="46.8757" lon="8.47583">
        <ele>2029</ele>
        <time>2021-08-11T13:36:42.697Z</time>
      </trkpt>
      <trkpt lat="46.87568" lon="8.47576">
        <ele>2040</ele>
        <time>2021-08-11T13:36:43.698Z</time>
      </trkpt>
      <trkpt lat="46.87568" lon="8.47575">
        <ele>2040</ele>
        <time>2021-08-11T13:36:44.698Z</time>
      </trkpt>
      <trkpt lat="46.87568" lon="8.47575">
        <ele>2041</ele>
        <time>2021-08-11T13:36:45.698Z</time>
      </trkpt>
      <trkpt lat="46.87568" lon="8.47575">
        <ele>2041</ele>
        <time>2021-08-11T13:36:46.698Z</time>
      </trkpt>
      <trkpt lat="46.87568" lon="8.47575">
        <ele>2041</ele>
        <time>2021-08-11T13:36:47.697Z</time>
      </trkpt>
      <trkpt lat="46.87567" lon="8.47575">
        <ele>2044</ele>
        <time>2021-08-11T13:36:48.699Z</time>
      </trkpt>
      <trkpt lat="46.87567" lon="8.47576">
        <ele>2044</ele>
        <time>2021-08-11T13:36:49.698Z</time>
      </trkpt>
      <trkpt lat="46.87567" lon="8.47577">
        <ele>2047</ele>
        <time>2021-08-11T13:36:50.700Z</time>
      </trkpt>
      <trkpt lat="46.87567" lon="8.47577">
        <ele>2046</ele>
        <time>2021-08-11T13:36:51.700Z</time>
      </trkpt>
      <trkpt lat="46.87567" lon="8.47577">
        <ele>2046</ele>
        <time>2021-08-11T13:36:52.700Z</time>
      </trkpt>
      <trkpt lat="46.87567" lon="8.47576">
        <ele>2046</ele>
        <time>2021-08-11T13:36:53.700Z</time>
      </trkpt>
      <trkpt lat="46.87569" lon="8.47575">
        <ele>2037</ele>
        <time>2021-08-11T13:36:54.701Z</time>
      </trkpt>
      <trkpt lat="46.87569" lon="8.47575">
        <ele>2036</ele>
        <time>2021-08-11T13:36:55.701Z</time>
      </trkpt>
      <trkpt lat="46.8757" lon="8.47579">
        <ele>2028</ele>
        <time>2021-08-11T13:36:56.701Z</time>
      </trkpt>
      <trkpt lat="46.87571" lon="8.47578">
        <ele>2027</ele>
        <time>2021-08-11T13:36:57.700Z</time>
      </trkpt>
      <trkpt lat="46.8757" lon="8.47578">
        <ele>2027</ele>
        <time>2021-08-11T13:36:58.700Z</time>
      </trkpt>
      <trkpt lat="46.87569" lon="8.47577">
        <ele>2026</ele>
        <time>2021-08-11T13:36:59.701Z</time>
      </trkpt>
      <trkpt lat="46.87569" lon="8.47576">
        <ele>2026</ele>
        <time>2021-08-11T13:37:00.701Z</time>
      </trkpt>
      <trkpt lat="46.87569" lon="8.47576">
        <ele>2023</ele>
        <time>2021-08-11T13:37:01.700Z</time>
      </trkpt>
      <trkpt lat="46.8757" lon="8.47576">
        <ele>2023</ele>
        <time>2021-08-11T13:37:02.701Z</time>
      </trkpt>
      <trkpt lat="46.8757" lon="8.47576">
        <ele>2023</ele>
        <time>2021-08-11T13:37:03.700Z</time>
      </trkpt>
      <trkpt lat="46.87571" lon="8.47577">
        <ele>2023</ele>
        <time>2021-08-11T13:37:04.700Z</time>
      </trkpt>
      <trkpt lat="46.87571" lon="8.47577">
        <ele>2023</ele>
        <time>2021-08-11T13:37:05.701Z</time>
      </trkpt>
      <trkpt lat="46.87571" lon="8.47577">
        <ele>2025</ele>
        <time>2021-08-11T13:37:06.700Z</time>
      </trkpt>
      <trkpt lat="46.87569" lon="8.47576">
        <ele>2031</ele>
        <time>2021-08-11T13:37:07.701Z</time>
      </trkpt>
      <trkpt lat="46.87569" lon="8.47576">
        <ele>2031</ele>
        <time>2021-08-11T13:37:08.701Z</time>
      </trkpt>
      <trkpt lat="46.87569" lon="8.47575">
        <ele>2031</ele>
        <time>2021-08-11T13:37:09.700Z</time>
      </trkpt>
      <trkpt lat="46.8757" lon="8.47576">
        <ele>2031</ele>
        <time>2021-08-11T13:37:10.701Z</time>
      </trkpt>
      <trkpt lat="46.87569" lon="8.47577">
        <ele>2031</ele>
        <time>2021-08-11T13:37:11.701Z</time>
      </trkpt>
      <trkpt lat="46.87569" lon="8.47577">
        <ele>2031</ele>
        <time>2021-08-11T13:37:12.700Z</time>
      </trkpt>
      <trkpt lat="46.8757" lon="8.47577">
        <ele>2034</ele>
        <time>2021-08-11T13:37:13.700Z</time>
      </trkpt>
      <trkpt lat="46.8757" lon="8.47577">
        <ele>2034</ele>
        <time>2021-08-11T13:37:14.700Z</time>
      </trkpt>
      <trkpt lat="46.8757" lon="8.47577">
        <ele>2034</ele>
        <time>2021-08-11T13:37:15.700Z</time>
      </trkpt>
      <trkpt lat="46.87569" lon="8.47577">
        <ele>2033</ele>
        <time>2021-08-11T13:37:16.701Z</time>
      </trkpt>
      <trkpt lat="46.87569" lon="8.47577">
        <ele>2033</ele>
        <time>2021-08-11T13:37:17.700Z</time>
      </trkpt>
      <trkpt lat="46.87569" lon="8.47577">
        <ele>2032</ele>
        <time>2021-08-11T13:37:18.701Z</time>
      </trkpt>
      <trkpt lat="46.8757" lon="8.47576">
        <ele>2032</ele>
        <time>2021-08-11T13:37:19.701Z</time>
      </trkpt>
      <trkpt lat="46.8757" lon="8.47576">
        <ele>2032</ele>
        <time>2021-08-11T13:37:20.701Z</time>
      </trkpt>
      <trkpt lat="46.87574" lon="8.47579">
        <ele>2037</ele>
        <time>2021-08-11T13:37:21.701Z</time>
      </trkpt>
      <trkpt lat="46.87573" lon="8.47579">
        <ele>2037</ele>
        <time>2021-08-11T13:37:22.701Z</time>
      </trkpt>
      <trkpt lat="46.87573" lon="8.47579">
        <ele>2038</ele>
        <time>2021-08-11T13:37:27.700Z</time>
      </trkpt>
      <trkpt lat="46.87574" lon="8.47579">
        <ele>2038</ele>
        <time>2021-08-11T13:37:28.701Z</time>
      </trkpt>
      <trkpt lat="46.87575" lon="8.47579">
        <ele>2038</ele>
        <time>2021-08-11T13:37:29.701Z</time>
      </trkpt>
      <trkpt lat="46.87573" lon="8.47579">
        <ele>2039</ele>
        <time>2021-08-11T13:37:30.700Z</time>
      </trkpt>
      <trkpt lat="46.87572" lon="8.47579">
        <ele>2039</ele>
        <time>2021-08-11T13:37:31.701Z</time>
      </trkpt>
      <trkpt lat="46.87572" lon="8.47579">
        <ele>2039</ele>
        <time>2021-08-11T13:37:32.701Z</time>
      </trkpt>
      <trkpt lat="46.87573" lon="8.47578">
        <ele>2038</ele>
        <time>2021-08-11T13:37:33.700Z</time>
      </trkpt>
      <trkpt lat="46.87573" lon="8.47577">
        <ele>2038</ele>
        <time>2021-08-11T13:37:34.700Z</time>
      </trkpt>
      <trkpt lat="46.87574" lon="8.47576">
        <ele>2038</ele>
        <time>2021-08-11T13:37:35.700Z</time>
      </trkpt>
      <trkpt lat="46.87573" lon="8.47575">
        <ele>2037</ele>
        <time>2021-08-11T13:37:36.701Z</time>
      </trkpt>
      <trkpt lat="46.87572" lon="8.47576">
        <ele>2036</ele>
        <time>2021-08-11T13:37:37.700Z</time>
      </trkpt>
      <trkpt lat="46.8757" lon="8.47578">
        <ele>2035</ele>
        <time>2021-08-11T13:37:39.670Z</time>
      </trkpt>
      <trkpt lat="46.87569" lon="8.47578">
        <ele>2034</ele>
        <time>2021-08-11T13:37:40.670Z</time>
      </trkpt>
      <trkpt lat="46.8757" lon="8.47578">
        <ele>2033</ele>
        <time>2021-08-11T13:37:41.669Z</time>
      </trkpt>
      <trkpt lat="46.8757" lon="8.47578">
        <ele>2033</ele>
        <time>2021-08-11T13:37:42.670Z</time>
      </trkpt>
      <trkpt lat="46.8757" lon="8.47578">
        <ele>2032</ele>
        <time>2021-08-11T13:37:43.670Z</time>
      </trkpt>
      <trkpt lat="46.87571" lon="8.47578">
        <ele>2032</ele>
        <time>2021-08-11T13:37:44.669Z</time>
      </trkpt>
      <trkpt lat="46.87571" lon="8.47578">
        <ele>2031</ele>
        <time>2021-08-11T13:37:45.669Z</time>
      </trkpt>
      <trkpt lat="46.87571" lon="8.47579">
        <ele>2031</ele>
        <time>2021-08-11T13:37:46.670Z</time>
      </trkpt>
      <trkpt lat="46.87571" lon="8.47578">
        <ele>2031</ele>
        <time>2021-08-11T13:37:47.670Z</time>
      </trkpt>
      <trkpt lat="46.8757" lon="8.47578">
        <ele>2032</ele>
        <time>2021-08-11T13:37:48.670Z</time>
      </trkpt>
      <trkpt lat="46.8757" lon="8.47578">
        <ele>2032</ele>
        <time>2021-08-11T13:37:49.670Z</time>
      </trkpt>
      <trkpt lat="46.8757" lon="8.47578">
        <ele>2033</ele>
        <time>2021-08-11T13:37:50.670Z</time>
      </trkpt>
      <trkpt lat="46.8757" lon="8.47578">
        <ele>2033</ele>
        <time>2021-08-11T13:37:51.670Z</time>
      </trkpt>
      <trkpt lat="46.8757" lon="8.47578">
        <ele>2034</ele>
        <time>2021-08-11T13:37:52.670Z</time>
      </trkpt>
      <trkpt lat="46.8757" lon="8.47578">
        <ele>2035</ele>
        <time>2021-08-11T13:37:53.670Z</time>
      </trkpt>
      <trkpt lat="46.8757" lon="8.47578">
        <ele>2035</ele>
        <time>2021-08-11T13:37:54.669Z</time>
      </trkpt>
      <trkpt lat="46.87571" lon="8.47577">
        <ele>2036</ele>
        <time>2021-08-11T13:37:55.670Z</time>
      </trkpt>
      <trkpt lat="46.87571" lon="8.47577">
        <ele>2036</ele>
        <time>2021-08-11T13:37:56.670Z</time>
      </trkpt>
      <trkpt lat="46.87571" lon="8.47577">
        <ele>2037</ele>
        <time>2021-08-11T13:37:57.670Z</time>
      </trkpt>
      <trkpt lat="46.87571" lon="8.47576">
        <ele>2037</ele>
        <time>2021-08-11T13:37:58.670Z</time>
      </trkpt>
      <trkpt lat="46.87571" lon="8.47575">
        <ele>2038</ele>
        <time>2021-08-11T13:37:59.669Z</time>
      </trkpt>
      <trkpt lat="46.8757" lon="8.47575">
        <ele>2038</ele>
        <time>2021-08-11T13:38:00.670Z</time>
      </trkpt>
      <trkpt lat="46.8757" lon="8.47574">
        <ele>2038</ele>
        <time>2021-08-11T13:38:01.670Z</time>
      </trkpt>
      <trkpt lat="46.8757" lon="8.47573">
        <ele>2038</ele>
        <time>2021-08-11T13:38:02.669Z</time>
      </trkpt>
      <trkpt lat="46.87569" lon="8.47572">
        <ele>2038</ele>
        <time>2021-08-11T13:38:03.670Z</time>
      </trkpt>
      <trkpt lat="46.87569" lon="8.47572">
        <ele>2038</ele>
        <time>2021-08-11T13:38:04.670Z</time>
      </trkpt>
      <trkpt lat="46.87569" lon="8.47571">
        <ele>2038</ele>
        <time>2021-08-11T13:38:05.670Z</time>
      </trkpt>
      <trkpt lat="46.87568" lon="8.47571">
        <ele>2038</ele>
        <time>2021-08-11T13:38:06.670Z</time>
      </trkpt>
      <trkpt lat="46.87568" lon="8.4757">
        <ele>2037</ele>
        <time>2021-08-11T13:38:07.669Z</time>
      </trkpt>
      <trkpt lat="46.87568" lon="8.4757">
        <ele>2036</ele>
        <time>2021-08-11T13:38:08.669Z</time>
      </trkpt>
      <trkpt lat="46.87567" lon="8.4757">
        <ele>2035</ele>
        <time>2021-08-11T13:38:09.669Z</time>
      </trkpt>
      <trkpt lat="46.87567" lon="8.47571">
        <ele>2035</ele>
        <time>2021-08-11T13:38:10.670Z</time>
      </trkpt>
      <trkpt lat="46.87567" lon="8.47571">
        <ele>2036</ele>
        <time>2021-08-11T13:38:11.670Z</time>
      </trkpt>
      <trkpt lat="46.87565" lon="8.47571">
        <ele>2047</ele>
        <time>2021-08-11T13:38:12.671Z</time>
      </trkpt>
      <trkpt lat="46.87565" lon="8.47571">
        <ele>2047</ele>
        <time>2021-08-11T13:38:13.671Z</time>
      </trkpt>
      <trkpt lat="46.87565" lon="8.47571">
        <ele>2048</ele>
        <time>2021-08-11T13:38:14.671Z</time>
      </trkpt>
      <trkpt lat="46.87565" lon="8.47571">
        <ele>2048</ele>
        <time>2021-08-11T13:38:15.671Z</time>
      </trkpt>
      <trkpt lat="46.87564" lon="8.4757">
        <ele>2049</ele>
        <time>2021-08-11T13:38:16.671Z</time>
      </trkpt>
      <trkpt lat="46.87564" lon="8.47569">
        <ele>2049</ele>
        <time>2021-08-11T13:38:17.670Z</time>
      </trkpt>
      <trkpt lat="46.87564" lon="8.47569">
        <ele>2048</ele>
        <time>2021-08-11T13:38:18.670Z</time>
      </trkpt>
      <trkpt lat="46.87565" lon="8.47569">
        <ele>2048</ele>
        <time>2021-08-11T13:38:19.670Z</time>
      </trkpt>
      <trkpt lat="46.87566" lon="8.47568">
        <ele>2045</ele>
        <time>2021-08-11T13:38:20.671Z</time>
      </trkpt>
      <trkpt lat="46.87566" lon="8.47568">
        <ele>2045</ele>
        <time>2021-08-11T13:38:21.671Z</time>
      </trkpt>
      <trkpt lat="46.87566" lon="8.47568">
        <ele>2044</ele>
        <time>2021-08-11T13:38:22.671Z</time>
      </trkpt>
      <trkpt lat="46.87565" lon="8.47567">
        <ele>2040</ele>
        <time>2021-08-11T13:38:23.672Z</time>
      </trkpt>
      <trkpt lat="46.87567" lon="8.47565">
        <ele>2043</ele>
        <time>2021-08-11T13:38:24.672Z</time>
      </trkpt>
      <trkpt lat="46.87567" lon="8.47565">
        <ele>2042</ele>
        <time>2021-08-11T13:38:25.671Z</time>
      </trkpt>
      <trkpt lat="46.87566" lon="8.47564">
        <ele>2042</ele>
        <time>2021-08-11T13:38:26.671Z</time>
      </trkpt>
      <trkpt lat="46.87565" lon="8.47564">
        <ele>2041</ele>
        <time>2021-08-11T13:38:27.671Z</time>
      </trkpt>
      <trkpt lat="46.87565" lon="8.47563">
        <ele>2041</ele>
        <time>2021-08-11T13:38:28.672Z</time>
      </trkpt>
      <trkpt lat="46.87565" lon="8.47563">
        <ele>2041</ele>
        <time>2021-08-11T13:38:29.672Z</time>
      </trkpt>
      <trkpt lat="46.87564" lon="8.47562">
        <ele>2041</ele>
        <time>2021-08-11T13:38:30.672Z</time>
      </trkpt>
      <trkpt lat="46.87563" lon="8.47561">
        <ele>2042</ele>
        <time>2021-08-11T13:38:31.672Z</time>
      </trkpt>
      <trkpt lat="46.87562" lon="8.47559">
        <ele>2042</ele>
        <time>2021-08-11T13:38:32.672Z</time>
      </trkpt>
      <trkpt lat="46.87562" lon="8.47558">
        <ele>2042</ele>
        <time>2021-08-11T13:38:33.671Z</time>
      </trkpt>
      <trkpt lat="46.87561" lon="8.47557">
        <ele>2041</ele>
        <time>2021-08-11T13:38:34.672Z</time>
      </trkpt>
      <trkpt lat="46.87561" lon="8.47556">
        <ele>2042</ele>
        <time>2021-08-11T13:38:35.672Z</time>
      </trkpt>
      <trkpt lat="46.87561" lon="8.47556">
        <ele>2042</ele>
        <time>2021-08-11T13:38:36.672Z</time>
      </trkpt>
      <trkpt lat="46.87561" lon="8.47555">
        <ele>2042</ele>
        <time>2021-08-11T13:38:37.671Z</time>
      </trkpt>
      <trkpt lat="46.87561" lon="8.47554">
        <ele>2043</ele>
        <time>2021-08-11T13:38:38.671Z</time>
      </trkpt>
      <trkpt lat="46.87561" lon="8.47554">
        <ele>2043</ele>
        <time>2021-08-11T13:38:39.672Z</time>
      </trkpt>
      <trkpt lat="46.87561" lon="8.47549">
        <ele>2034</ele>
        <time>2021-08-11T13:38:40.674Z</time>
      </trkpt>
      <trkpt lat="46.8756" lon="8.47548">
        <ele>2035</ele>
        <time>2021-08-11T13:38:41.674Z</time>
      </trkpt>
      <trkpt lat="46.8756" lon="8.47548">
        <ele>2035</ele>
        <time>2021-08-11T13:38:42.673Z</time>
      </trkpt>
      <trkpt lat="46.87559" lon="8.47547">
        <ele>2035</ele>
        <time>2021-08-11T13:38:43.673Z</time>
      </trkpt>
      <trkpt lat="46.87559" lon="8.47547">
        <ele>2035</ele>
        <time>2021-08-11T13:38:44.674Z</time>
      </trkpt>
      <trkpt lat="46.87558" lon="8.47546">
        <ele>2035</ele>
        <time>2021-08-11T13:38:45.674Z</time>
      </trkpt>
      <trkpt lat="46.87558" lon="8.47545">
        <ele>2035</ele>
        <time>2021-08-11T13:38:46.674Z</time>
      </trkpt>
      <trkpt lat="46.87558" lon="8.47544">
        <ele>2035</ele>
        <time>2021-08-11T13:38:47.674Z</time>
      </trkpt>
      <trkpt lat="46.87557" lon="8.47543">
        <ele>2035</ele>
        <time>2021-08-11T13:38:48.673Z</time>
      </trkpt>
      <trkpt lat="46.87557" lon="8.47543">
        <ele>2035</ele>
        <time>2021-08-11T13:38:49.674Z</time>
      </trkpt>
      <trkpt lat="46.87557" lon="8.47543">
        <ele>2035</ele>
        <time>2021-08-11T13:38:50.674Z</time>
      </trkpt>
      <trkpt lat="46.87557" lon="8.47542">
        <ele>2036</ele>
        <time>2021-08-11T13:38:51.674Z</time>
      </trkpt>
      <trkpt lat="46.87556" lon="8.47542">
        <ele>2037</ele>
        <time>2021-08-11T13:38:52.673Z</time>
      </trkpt>
      <trkpt lat="46.87556" lon="8.47542">
        <ele>2042</ele>
        <time>2021-08-11T13:38:53.674Z</time>
      </trkpt>
      <trkpt lat="46.87556" lon="8.47542">
        <ele>2042</ele>
        <time>2021-08-11T13:38:54.673Z</time>
      </trkpt>
      <trkpt lat="46.87555" lon="8.47541">
        <ele>2041</ele>
        <time>2021-08-11T13:38:57.690Z</time>
      </trkpt>
      <trkpt lat="46.87554" lon="8.4754">
        <ele>2037</ele>
        <time>2021-08-11T13:38:58.691Z</time>
      </trkpt>
      <trkpt lat="46.87554" lon="8.4754">
        <ele>2037</ele>
        <time>2021-08-11T13:38:59.691Z</time>
      </trkpt>
      <trkpt lat="46.87555" lon="8.47539">
        <ele>2037</ele>
        <time>2021-08-11T13:39:00.690Z</time>
      </trkpt>
      <trkpt lat="46.87555" lon="8.47539">
        <ele>2037</ele>
        <time>2021-08-11T13:39:01.691Z</time>
      </trkpt>
      <trkpt lat="46.87557" lon="8.47537">
        <ele>2037</ele>
        <time>2021-08-11T13:39:02.692Z</time>
      </trkpt>
      <trkpt lat="46.87557" lon="8.47536">
        <ele>2037</ele>
        <time>2021-08-11T13:39:03.692Z</time>
      </trkpt>
      <trkpt lat="46.87556" lon="8.47536">
        <ele>2043</ele>
        <time>2021-08-11T13:39:04.691Z</time>
      </trkpt>
      <trkpt lat="46.87557" lon="8.47536">
        <ele>2043</ele>
        <time>2021-08-11T13:39:05.692Z</time>
      </trkpt>
      <trkpt lat="46.87557" lon="8.47535">
        <ele>2044</ele>
        <time>2021-08-11T13:39:06.691Z</time>
      </trkpt>
      <trkpt lat="46.87558" lon="8.47535">
        <ele>2044</ele>
        <time>2021-08-11T13:39:07.692Z</time>
      </trkpt>
      <trkpt lat="46.87558" lon="8.47534">
        <ele>2045</ele>
        <time>2021-08-11T13:39:08.692Z</time>
      </trkpt>
      <trkpt lat="46.87559" lon="8.47533">
        <ele>2046</ele>
        <time>2021-08-11T13:39:09.692Z</time>
      </trkpt>
      <trkpt lat="46.8756" lon="8.47533">
        <ele>2046</ele>
        <time>2021-08-11T13:39:10.691Z</time>
      </trkpt>
      <trkpt lat="46.87561" lon="8.47532">
        <ele>2047</ele>
        <time>2021-08-11T13:39:11.691Z</time>
      </trkpt>
      <trkpt lat="46.87561" lon="8.47531">
        <ele>2047</ele>
        <time>2021-08-11T13:39:12.692Z</time>
      </trkpt>
      <trkpt lat="46.87561" lon="8.47531">
        <ele>2046</ele>
        <time>2021-08-11T13:39:13.692Z</time>
      </trkpt>
      <trkpt lat="46.87562" lon="8.4753">
        <ele>2046</ele>
        <time>2021-08-11T13:39:14.691Z</time>
      </trkpt>
      <trkpt lat="46.87562" lon="8.47529">
        <ele>2045</ele>
        <time>2021-08-11T13:39:15.692Z</time>
      </trkpt>
      <trkpt lat="46.87562" lon="8.47528">
        <ele>2045</ele>
        <time>2021-08-11T13:39:16.691Z</time>
      </trkpt>
      <trkpt lat="46.87562" lon="8.47526">
        <ele>2045</ele>
        <time>2021-08-11T13:39:17.692Z</time>
      </trkpt>
      <trkpt lat="46.87562" lon="8.47525">
        <ele>2044</ele>
        <time>2021-08-11T13:39:18.692Z</time>
      </trkpt>
      <trkpt lat="46.87562" lon="8.47525">
        <ele>2044</ele>
        <time>2021-08-11T13:39:19.691Z</time>
      </trkpt>
      <trkpt lat="46.87562" lon="8.47524">
        <ele>2043</ele>
        <time>2021-08-11T13:39:20.692Z</time>
      </trkpt>
      <trkpt lat="46.87562" lon="8.47522">
        <ele>2043</ele>
        <time>2021-08-11T13:39:21.692Z</time>
      </trkpt>
      <trkpt lat="46.87561" lon="8.47521">
        <ele>2043</ele>
        <time>2021-08-11T13:39:22.692Z</time>
      </trkpt>
      <trkpt lat="46.87561" lon="8.4752">
        <ele>2043</ele>
        <time>2021-08-11T13:39:23.691Z</time>
      </trkpt>
      <trkpt lat="46.87561" lon="8.47518">
        <ele>2043</ele>
        <time>2021-08-11T13:39:24.692Z</time>
      </trkpt>
      <trkpt lat="46.87562" lon="8.47517">
        <ele>2043</ele>
        <time>2021-08-11T13:39:25.692Z</time>
      </trkpt>
      <trkpt lat="46.87562" lon="8.47515">
        <ele>2043</ele>
        <time>2021-08-11T13:39:26.692Z</time>
      </trkpt>
      <trkpt lat="46.87562" lon="8.47514">
        <ele>2043</ele>
        <time>2021-08-11T13:39:27.692Z</time>
      </trkpt>
      <trkpt lat="46.87562" lon="8.47512">
        <ele>2043</ele>
        <time>2021-08-11T13:39:28.692Z</time>
      </trkpt>
      <trkpt lat="46.87562" lon="8.47511">
        <ele>2042</ele>
        <time>2021-08-11T13:39:29.691Z</time>
      </trkpt>
      <trkpt lat="46.87562" lon="8.4751">
        <ele>2042</ele>
        <time>2021-08-11T13:39:30.692Z</time>
      </trkpt>
      <trkpt lat="46.87563" lon="8.47508">
        <ele>2042</ele>
        <time>2021-08-11T13:39:31.692Z</time>
      </trkpt>
      <trkpt lat="46.87563" lon="8.47507">
        <ele>2043</ele>
        <time>2021-08-11T13:39:32.692Z</time>
      </trkpt>
      <trkpt lat="46.87563" lon="8.47506">
        <ele>2043</ele>
        <time>2021-08-11T13:39:33.692Z</time>
      </trkpt>
      <trkpt lat="46.87564" lon="8.47504">
        <ele>2043</ele>
        <time>2021-08-11T13:39:34.692Z</time>
      </trkpt>
      <trkpt lat="46.87564" lon="8.47503">
        <ele>2044</ele>
        <time>2021-08-11T13:39:35.691Z</time>
      </trkpt>
      <trkpt lat="46.87563" lon="8.47502">
        <ele>2044</ele>
        <time>2021-08-11T13:39:36.692Z</time>
      </trkpt>
      <trkpt lat="46.87564" lon="8.47501">
        <ele>2044</ele>
        <time>2021-08-11T13:39:37.692Z</time>
      </trkpt>
      <trkpt lat="46.87564" lon="8.475">
        <ele>2043</ele>
        <time>2021-08-11T13:39:38.691Z</time>
      </trkpt>
      <trkpt lat="46.87565" lon="8.47499">
        <ele>2043</ele>
        <time>2021-08-11T13:39:39.692Z</time>
      </trkpt>
      <trkpt lat="46.87566" lon="8.47498">
        <ele>2043</ele>
        <time>2021-08-11T13:39:40.691Z</time>
      </trkpt>
      <trkpt lat="46.87566" lon="8.47497">
        <ele>2043</ele>
        <time>2021-08-11T13:39:41.692Z</time>
      </trkpt>
      <trkpt lat="46.87566" lon="8.47495">
        <ele>2042</ele>
        <time>2021-08-11T13:39:42.692Z</time>
      </trkpt>
      <trkpt lat="46.87566" lon="8.47494">
        <ele>2042</ele>
        <time>2021-08-11T13:39:43.692Z</time>
      </trkpt>
      <trkpt lat="46.87567" lon="8.47493">
        <ele>2042</ele>
        <time>2021-08-11T13:39:44.692Z</time>
      </trkpt>
      <trkpt lat="46.87567" lon="8.47492">
        <ele>2041</ele>
        <time>2021-08-11T13:39:45.692Z</time>
      </trkpt>
      <trkpt lat="46.87568" lon="8.47491">
        <ele>2041</ele>
        <time>2021-08-11T13:39:46.692Z</time>
      </trkpt>
      <trkpt lat="46.87568" lon="8.4749">
        <ele>2041</ele>
        <time>2021-08-11T13:39:47.692Z</time>
      </trkpt>
      <trkpt lat="46.87568" lon="8.47489">
        <ele>2040</ele>
        <time>2021-08-11T13:39:48.692Z</time>
      </trkpt>
      <trkpt lat="46.87568" lon="8.47488">
        <ele>2040</ele>
        <time>2021-08-11T13:39:49.692Z</time>
      </trkpt>
      <trkpt lat="46.87568" lon="8.47488">
        <ele>2040</ele>
        <time>2021-08-11T13:39:50.691Z</time>
      </trkpt>
      <trkpt lat="46.87568" lon="8.47487">
        <ele>2040</ele>
        <time>2021-08-11T13:39:51.691Z</time>
      </trkpt>
      <trkpt lat="46.87568" lon="8.47487">
        <ele>2040</ele>
        <time>2021-08-11T13:39:52.692Z</time>
      </trkpt>
      <trkpt lat="46.87568" lon="8.47487">
        <ele>2040</ele>
        <time>2021-08-11T13:39:53.692Z</time>
      </trkpt>
      <trkpt lat="46.87568" lon="8.47486">
        <ele>2040</ele>
        <time>2021-08-11T13:39:54.692Z</time>
      </trkpt>
      <trkpt lat="46.87569" lon="8.47485">
        <ele>2040</ele>
        <time>2021-08-11T13:39:55.692Z</time>
      </trkpt>
      <trkpt lat="46.87569" lon="8.47485">
        <ele>2040</ele>
        <time>2021-08-11T13:39:56.691Z</time>
      </trkpt>
      <trkpt lat="46.87569" lon="8.47484">
        <ele>2040</ele>
        <time>2021-08-11T13:39:57.692Z</time>
      </trkpt>
      <trkpt lat="46.87569" lon="8.47483">
        <ele>2039</ele>
        <time>2021-08-11T13:39:58.692Z</time>
      </trkpt>
      <trkpt lat="46.87568" lon="8.47482">
        <ele>2039</ele>
        <time>2021-08-11T13:39:59.692Z</time>
      </trkpt>
      <trkpt lat="46.87568" lon="8.47482">
        <ele>2039</ele>
        <time>2021-08-11T13:40:00.692Z</time>
      </trkpt>
      <trkpt lat="46.87568" lon="8.47481">
        <ele>2038</ele>
        <time>2021-08-11T13:40:01.691Z</time>
      </trkpt>
      <trkpt lat="46.87568" lon="8.4748">
        <ele>2038</ele>
        <time>2021-08-11T13:40:02.692Z</time>
      </trkpt>
      <trkpt lat="46.87567" lon="8.4748">
        <ele>2038</ele>
        <time>2021-08-11T13:40:03.692Z</time>
      </trkpt>
      <trkpt lat="46.87567" lon="8.47479">
        <ele>2037</ele>
        <time>2021-08-11T13:40:04.692Z</time>
      </trkpt>
      <trkpt lat="46.87567" lon="8.47478">
        <ele>2037</ele>
        <time>2021-08-11T13:40:05.692Z</time>
      </trkpt>
      <trkpt lat="46.87567" lon="8.47478">
        <ele>2038</ele>
        <time>2021-08-11T13:40:06.692Z</time>
      </trkpt>
      <trkpt lat="46.87567" lon="8.47477">
        <ele>2038</ele>
        <time>2021-08-11T13:40:07.691Z</time>
      </trkpt>
      <trkpt lat="46.87567" lon="8.47477">
        <ele>2038</ele>
        <time>2021-08-11T13:40:08.692Z</time>
      </trkpt>
      <trkpt lat="46.87567" lon="8.47476">
        <ele>2038</ele>
        <time>2021-08-11T13:40:09.692Z</time>
      </trkpt>
      <trkpt lat="46.87567" lon="8.47475">
        <ele>2038</ele>
        <time>2021-08-11T13:40:10.691Z</time>
      </trkpt>
      <trkpt lat="46.87566" lon="8.47475">
        <ele>2038</ele>
        <time>2021-08-11T13:40:11.691Z</time>
      </trkpt>
      <trkpt lat="46.87566" lon="8.47474">
        <ele>2037</ele>
        <time>2021-08-11T13:40:12.691Z</time>
      </trkpt>
      <trkpt lat="46.87566" lon="8.47473">
        <ele>2037</ele>
        <time>2021-08-11T13:40:13.692Z</time>
      </trkpt>
      <trkpt lat="46.87566" lon="8.47473">
        <ele>2037</ele>
        <time>2021-08-11T13:40:14.692Z</time>
      </trkpt>
      <trkpt lat="46.87566" lon="8.47473">
        <ele>2037</ele>
        <time>2021-08-11T13:40:15.692Z</time>
      </trkpt>
      <trkpt lat="46.87565" lon="8.47472">
        <ele>2037</ele>
        <time>2021-08-11T13:40:16.693Z</time>
      </trkpt>
      <trkpt lat="46.87565" lon="8.47471">
        <ele>2037</ele>
        <time>2021-08-11T13:40:17.693Z</time>
      </trkpt>
      <trkpt lat="46.87565" lon="8.4747">
        <ele>2038</ele>
        <time>2021-08-11T13:40:18.692Z</time>
      </trkpt>
      <trkpt lat="46.87565" lon="8.47469">
        <ele>2038</ele>
        <time>2021-08-11T13:40:19.693Z</time>
      </trkpt>
      <trkpt lat="46.87565" lon="8.47468">
        <ele>2038</ele>
        <time>2021-08-11T13:40:20.693Z</time>
      </trkpt>
      <trkpt lat="46.87565" lon="8.47467">
        <ele>2039</ele>
        <time>2021-08-11T13:40:21.692Z</time>
      </trkpt>
      <trkpt lat="46.87565" lon="8.47467">
        <ele>2039</ele>
        <time>2021-08-11T13:40:22.692Z</time>
      </trkpt>
      <trkpt lat="46.87565" lon="8.47466">
        <ele>2040</ele>
        <time>2021-08-11T13:40:23.693Z</time>
      </trkpt>
      <trkpt lat="46.87565" lon="8.47465">
        <ele>2040</ele>
        <time>2021-08-11T13:40:24.693Z</time>
      </trkpt>
      <trkpt lat="46.87565" lon="8.47463">
        <ele>2041</ele>
        <time>2021-08-11T13:40:25.693Z</time>
      </trkpt>
      <trkpt lat="46.87564" lon="8.47462">
        <ele>2041</ele>
        <time>2021-08-11T13:40:26.693Z</time>
      </trkpt>
      <trkpt lat="46.87564" lon="8.47461">
        <ele>2041</ele>
        <time>2021-08-11T13:40:27.692Z</time>
      </trkpt>
      <trkpt lat="46.87563" lon="8.47461">
        <ele>2040</ele>
        <time>2021-08-11T13:40:28.692Z</time>
      </trkpt>
      <trkpt lat="46.87562" lon="8.4746">
        <ele>2040</ele>
        <time>2021-08-11T13:40:29.693Z</time>
      </trkpt>
      <trkpt lat="46.87562" lon="8.4746">
        <ele>2040</ele>
        <time>2021-08-11T13:40:30.693Z</time>
      </trkpt>
      <trkpt lat="46.87561" lon="8.47459">
        <ele>2039</ele>
        <time>2021-08-11T13:40:31.693Z</time>
      </trkpt>
      <trkpt lat="46.87561" lon="8.47459">
        <ele>2039</ele>
        <time>2021-08-11T13:40:32.692Z</time>
      </trkpt>
      <trkpt lat="46.87561" lon="8.47458">
        <ele>2039</ele>
        <time>2021-08-11T13:40:33.693Z</time>
      </trkpt>
      <trkpt lat="46.87561" lon="8.47457">
        <ele>2039</ele>
        <time>2021-08-11T13:40:34.692Z</time>
      </trkpt>
      <trkpt lat="46.87561" lon="8.47457">
        <ele>2039</ele>
        <time>2021-08-11T13:40:35.692Z</time>
      </trkpt>
      <trkpt lat="46.87561" lon="8.47456">
        <ele>2038</ele>
        <time>2021-08-11T13:40:36.693Z</time>
      </trkpt>
      <trkpt lat="46.87562" lon="8.47455">
        <ele>2038</ele>
        <time>2021-08-11T13:40:37.693Z</time>
      </trkpt>
      <trkpt lat="46.87562" lon="8.47454">
        <ele>2038</ele>
        <time>2021-08-11T13:40:38.693Z</time>
      </trkpt>
      <trkpt lat="46.87561" lon="8.47452">
        <ele>2038</ele>
        <time>2021-08-11T13:40:39.693Z</time>
      </trkpt>
      <trkpt lat="46.8756" lon="8.47451">
        <ele>2038</ele>
        <time>2021-08-11T13:40:40.692Z</time>
      </trkpt>
      <trkpt lat="46.87559" lon="8.4745">
        <ele>2039</ele>
        <time>2021-08-11T13:40:41.693Z</time>
      </trkpt>
      <trkpt lat="46.87559" lon="8.47449">
        <ele>2039</ele>
        <time>2021-08-11T13:40:42.692Z</time>
      </trkpt>
      <trkpt lat="46.87559" lon="8.47449">
        <ele>2038</ele>
        <time>2021-08-11T13:40:43.693Z</time>
      </trkpt>
      <trkpt lat="46.87559" lon="8.47448">
        <ele>2038</ele>
        <time>2021-08-11T13:40:44.693Z</time>
      </trkpt>
      <trkpt lat="46.87558" lon="8.47448">
        <ele>2038</ele>
        <time>2021-08-11T13:40:45.692Z</time>
      </trkpt>
      <trkpt lat="46.87558" lon="8.47447">
        <ele>2038</ele>
        <time>2021-08-11T13:40:46.692Z</time>
      </trkpt>
      <trkpt lat="46.87557" lon="8.47446">
        <ele>2038</ele>
        <time>2021-08-11T13:40:47.693Z</time>
      </trkpt>
      <trkpt lat="46.87557" lon="8.47446">
        <ele>2039</ele>
        <time>2021-08-11T13:40:48.693Z</time>
      </trkpt>
      <trkpt lat="46.87557" lon="8.47445">
        <ele>2039</ele>
        <time>2021-08-11T13:40:49.693Z</time>
      </trkpt>
      <trkpt lat="46.87557" lon="8.47445">
        <ele>2039</ele>
        <time>2021-08-11T13:40:50.692Z</time>
      </trkpt>
      <trkpt lat="46.87557" lon="8.47445">
        <ele>2039</ele>
        <time>2021-08-11T13:40:51.692Z</time>
      </trkpt>
      <trkpt lat="46.87556" lon="8.47444">
        <ele>2040</ele>
        <time>2021-08-11T13:40:52.693Z</time>
      </trkpt>
      <trkpt lat="46.87557" lon="8.47443">
        <ele>2040</ele>
        <time>2021-08-11T13:40:53.693Z</time>
      </trkpt>
      <trkpt lat="46.87557" lon="8.47442">
        <ele>2040</ele>
        <time>2021-08-11T13:40:54.692Z</time>
      </trkpt>
      <trkpt lat="46.87557" lon="8.47441">
        <ele>2040</ele>
        <time>2021-08-11T13:40:55.692Z</time>
      </trkpt>
      <trkpt lat="46.87556" lon="8.47441">
        <ele>2040</ele>
        <time>2021-08-11T13:40:56.693Z</time>
      </trkpt>
      <trkpt lat="46.87556" lon="8.4744">
        <ele>2040</ele>
        <time>2021-08-11T13:40:57.693Z</time>
      </trkpt>
      <trkpt lat="46.87555" lon="8.47439">
        <ele>2041</ele>
        <time>2021-08-11T13:40:58.693Z</time>
      </trkpt>
      <trkpt lat="46.87555" lon="8.47439">
        <ele>2041</ele>
        <time>2021-08-11T13:40:59.692Z</time>
      </trkpt>
      <trkpt lat="46.87555" lon="8.47438">
        <ele>2041</ele>
        <time>2021-08-11T13:41:00.692Z</time>
      </trkpt>
      <trkpt lat="46.87555" lon="8.47437">
        <ele>2041</ele>
        <time>2021-08-11T13:41:01.693Z</time>
      </trkpt>
      <trkpt lat="46.87555" lon="8.47437">
        <ele>2041</ele>
        <time>2021-08-11T13:41:02.693Z</time>
      </trkpt>
      <trkpt lat="46.87555" lon="8.47436">
        <ele>2041</ele>
        <time>2021-08-11T13:41:03.692Z</time>
      </trkpt>
      <trkpt lat="46.87554" lon="8.47436">
        <ele>2041</ele>
        <time>2021-08-11T13:41:04.692Z</time>
      </trkpt>
      <trkpt lat="46.87554" lon="8.47435">
        <ele>2041</ele>
        <time>2021-08-11T13:41:05.693Z</time>
      </trkpt>
      <trkpt lat="46.87553" lon="8.47435">
        <ele>2041</ele>
        <time>2021-08-11T13:41:06.693Z</time>
      </trkpt>
      <trkpt lat="46.87554" lon="8.47435">
        <ele>2041</ele>
        <time>2021-08-11T13:41:07.693Z</time>
      </trkpt>
      <trkpt lat="46.87554" lon="8.47435">
        <ele>2041</ele>
        <time>2021-08-11T13:41:08.693Z</time>
      </trkpt>
      <trkpt lat="46.87554" lon="8.47434">
        <ele>2041</ele>
        <time>2021-08-11T13:41:09.693Z</time>
      </trkpt>
      <trkpt lat="46.87554" lon="8.47434">
        <ele>2040</ele>
        <time>2021-08-11T13:41:10.693Z</time>
      </trkpt>
      <trkpt lat="46.87554" lon="8.47433">
        <ele>2040</ele>
        <time>2021-08-11T13:41:11.693Z</time>
      </trkpt>
      <trkpt lat="46.87553" lon="8.47433">
        <ele>2040</ele>
        <time>2021-08-11T13:41:12.692Z</time>
      </trkpt>
      <trkpt lat="46.87553" lon="8.47432">
        <ele>2040</ele>
        <time>2021-08-11T13:41:13.693Z</time>
      </trkpt>
      <trkpt lat="46.87553" lon="8.47431">
        <ele>2040</ele>
        <time>2021-08-11T13:41:14.693Z</time>
      </trkpt>
      <trkpt lat="46.87553" lon="8.47431">
        <ele>2040</ele>
        <time>2021-08-11T13:41:15.693Z</time>
      </trkpt>
      <trkpt lat="46.87553" lon="8.4743">
        <ele>2040</ele>
        <time>2021-08-11T13:41:16.693Z</time>
      </trkpt>
      <trkpt lat="46.87553" lon="8.47429">
        <ele>2040</ele>
        <time>2021-08-11T13:41:17.692Z</time>
      </trkpt>
      <trkpt lat="46.87553" lon="8.47429">
        <ele>2040</ele>
        <time>2021-08-11T13:41:18.692Z</time>
      </trkpt>
      <trkpt lat="46.87552" lon="8.47428">
        <ele>2040</ele>
        <time>2021-08-11T13:41:19.693Z</time>
      </trkpt>
      <trkpt lat="46.87552" lon="8.47428">
        <ele>2040</ele>
        <time>2021-08-11T13:41:20.693Z</time>
      </trkpt>
      <trkpt lat="46.87552" lon="8.47427">
        <ele>2040</ele>
        <time>2021-08-11T13:41:21.692Z</time>
      </trkpt>
      <trkpt lat="46.87551" lon="8.47426">
        <ele>2041</ele>
        <time>2021-08-11T13:41:22.692Z</time>
      </trkpt>
      <trkpt lat="46.87551" lon="8.47426">
        <ele>2041</ele>
        <time>2021-08-11T13:41:23.692Z</time>
      </trkpt>
      <trkpt lat="46.87551" lon="8.47426">
        <ele>2042</ele>
        <time>2021-08-11T13:41:24.692Z</time>
      </trkpt>
      <trkpt lat="46.87551" lon="8.47425">
        <ele>2042</ele>
        <time>2021-08-11T13:41:25.693Z</time>
      </trkpt>
      <trkpt lat="46.8755" lon="8.47425">
        <ele>2042</ele>
        <time>2021-08-11T13:41:26.693Z</time>
      </trkpt>
      <trkpt lat="46.8755" lon="8.47427">
        <ele>2052</ele>
        <time>2021-08-11T13:41:27.694Z</time>
      </trkpt>
      <trkpt lat="46.8755" lon="8.47427">
        <ele>2053</ele>
        <time>2021-08-11T13:41:28.694Z</time>
      </trkpt>
      <trkpt lat="46.8755" lon="8.47428">
        <ele>2053</ele>
        <time>2021-08-11T13:41:29.693Z</time>
      </trkpt>
      <trkpt lat="46.8755" lon="8.4743">
        <ele>2052</ele>
        <time>2021-08-11T13:41:30.696Z</time>
      </trkpt>
      <trkpt lat="46.8755" lon="8.4743">
        <ele>2052</ele>
        <time>2021-08-11T13:41:31.696Z</time>
      </trkpt>
      <trkpt lat="46.87549" lon="8.4743">
        <ele>2052</ele>
        <time>2021-08-11T13:41:32.696Z</time>
      </trkpt>
      <trkpt lat="46.87549" lon="8.47429">
        <ele>2052</ele>
        <time>2021-08-11T13:41:33.696Z</time>
      </trkpt>
      <trkpt lat="46.87548" lon="8.47428">
        <ele>2050</ele>
        <time>2021-08-11T13:41:34.698Z</time>
      </trkpt>
      <trkpt lat="46.87548" lon="8.47428">
        <ele>2049</ele>
        <time>2021-08-11T13:41:35.698Z</time>
      </trkpt>
      <trkpt lat="46.87547" lon="8.47428">
        <ele>2048</ele>
        <time>2021-08-11T13:41:36.697Z</time>
      </trkpt>
      <trkpt lat="46.87547" lon="8.47428">
        <ele>2048</ele>
        <time>2021-08-11T13:41:37.698Z</time>
      </trkpt>
      <trkpt lat="46.87547" lon="8.47427">
        <ele>2048</ele>
        <time>2021-08-11T13:41:38.697Z</time>
      </trkpt>
      <trkpt lat="46.87547" lon="8.47426">
        <ele>2047</ele>
        <time>2021-08-11T13:41:39.698Z</time>
      </trkpt>
      <trkpt lat="46.87547" lon="8.47426">
        <ele>2047</ele>
        <time>2021-08-11T13:41:40.698Z</time>
      </trkpt>
      <trkpt lat="46.87546" lon="8.47425">
        <ele>2047</ele>
        <time>2021-08-11T13:41:41.698Z</time>
      </trkpt>
      <trkpt lat="46.87546" lon="8.47424">
        <ele>2047</ele>
        <time>2021-08-11T13:41:42.697Z</time>
      </trkpt>
      <trkpt lat="46.87546" lon="8.47423">
        <ele>2047</ele>
        <time>2021-08-11T13:41:43.698Z</time>
      </trkpt>
      <trkpt lat="46.87546" lon="8.47423">
        <ele>2047</ele>
        <time>2021-08-11T13:41:44.698Z</time>
      </trkpt>
      <trkpt lat="46.87546" lon="8.47422">
        <ele>2047</ele>
        <time>2021-08-11T13:41:45.698Z</time>
      </trkpt>
      <trkpt lat="46.87546" lon="8.47421">
        <ele>2047</ele>
        <time>2021-08-11T13:41:46.698Z</time>
      </trkpt>
      <trkpt lat="46.87546" lon="8.47421">
        <ele>2047</ele>
        <time>2021-08-11T13:41:47.697Z</time>
      </trkpt>
      <trkpt lat="46.87546" lon="8.4742">
        <ele>2048</ele>
        <time>2021-08-11T13:41:48.698Z</time>
      </trkpt>
      <trkpt lat="46.87546" lon="8.4742">
        <ele>2048</ele>
        <time>2021-08-11T13:41:49.698Z</time>
      </trkpt>
      <trkpt lat="46.87545" lon="8.4742">
        <ele>2049</ele>
        <time>2021-08-11T13:41:50.698Z</time>
      </trkpt>
      <trkpt lat="46.87545" lon="8.47419">
        <ele>2049</ele>
        <time>2021-08-11T13:41:51.698Z</time>
      </trkpt>
      <trkpt lat="46.87545" lon="8.47418">
        <ele>2050</ele>
        <time>2021-08-11T13:41:52.697Z</time>
      </trkpt>
      <trkpt lat="46.87545" lon="8.47418">
        <ele>2051</ele>
        <time>2021-08-11T13:41:53.698Z</time>
      </trkpt>
      <trkpt lat="46.87544" lon="8.47418">
        <ele>2051</ele>
        <time>2021-08-11T13:41:54.698Z</time>
      </trkpt>
      <trkpt lat="46.87544" lon="8.47417">
        <ele>2051</ele>
        <time>2021-08-11T13:41:55.698Z</time>
      </trkpt>
      <trkpt lat="46.87544" lon="8.47417">
        <ele>2051</ele>
        <time>2021-08-11T13:41:56.698Z</time>
      </trkpt>
      <trkpt lat="46.87544" lon="8.47416">
        <ele>2052</ele>
        <time>2021-08-11T13:41:57.698Z</time>
      </trkpt>
      <trkpt lat="46.87543" lon="8.47416">
        <ele>2052</ele>
        <time>2021-08-11T13:41:58.697Z</time>
      </trkpt>
      <trkpt lat="46.87543" lon="8.47415">
        <ele>2052</ele>
        <time>2021-08-11T13:41:59.698Z</time>
      </trkpt>
      <trkpt lat="46.87543" lon="8.47415">
        <ele>2052</ele>
        <time>2021-08-11T13:42:00.698Z</time>
      </trkpt>
      <trkpt lat="46.87542" lon="8.47414">
        <ele>2052</ele>
        <time>2021-08-11T13:42:01.698Z</time>
      </trkpt>
      <trkpt lat="46.87542" lon="8.47413">
        <ele>2052</ele>
        <time>2021-08-11T13:42:02.698Z</time>
      </trkpt>
      <trkpt lat="46.87542" lon="8.47412">
        <ele>2052</ele>
        <time>2021-08-11T13:42:03.698Z</time>
      </trkpt>
      <trkpt lat="46.87542" lon="8.47411">
        <ele>2053</ele>
        <time>2021-08-11T13:42:04.697Z</time>
      </trkpt>
      <trkpt lat="46.87542" lon="8.4741">
        <ele>2054</ele>
        <time>2021-08-11T13:42:05.698Z</time>
      </trkpt>
      <trkpt lat="46.87541" lon="8.4741">
        <ele>2054</ele>
        <time>2021-08-11T13:42:06.697Z</time>
      </trkpt>
      <trkpt lat="46.87541" lon="8.47409">
        <ele>2054</ele>
        <time>2021-08-11T13:42:07.698Z</time>
      </trkpt>
      <trkpt lat="46.87541" lon="8.47409">
        <ele>2055</ele>
        <time>2021-08-11T13:42:08.697Z</time>
      </trkpt>
      <trkpt lat="46.87541" lon="8.47408">
        <ele>2055</ele>
        <time>2021-08-11T13:42:09.698Z</time>
      </trkpt>
      <trkpt lat="46.87541" lon="8.47407">
        <ele>2055</ele>
        <time>2021-08-11T13:42:10.698Z</time>
      </trkpt>
      <trkpt lat="46.87541" lon="8.47406">
        <ele>2055</ele>
        <time>2021-08-11T13:42:11.698Z</time>
      </trkpt>
      <trkpt lat="46.87541" lon="8.47405">
        <ele>2055</ele>
        <time>2021-08-11T13:42:12.698Z</time>
      </trkpt>
      <trkpt lat="46.87541" lon="8.47405">
        <ele>2056</ele>
        <time>2021-08-11T13:42:13.697Z</time>
      </trkpt>
      <trkpt lat="46.8754" lon="8.47404">
        <ele>2056</ele>
        <time>2021-08-11T13:42:14.698Z</time>
      </trkpt>
      <trkpt lat="46.8754" lon="8.47404">
        <ele>2056</ele>
        <time>2021-08-11T13:42:15.698Z</time>
      </trkpt>
      <trkpt lat="46.8754" lon="8.47403">
        <ele>2056</ele>
        <time>2021-08-11T13:42:16.697Z</time>
      </trkpt>
      <trkpt lat="46.8754" lon="8.47403">
        <ele>2056</ele>
        <time>2021-08-11T13:42:17.698Z</time>
      </trkpt>
      <trkpt lat="46.8754" lon="8.47402">
        <ele>2056</ele>
        <time>2021-08-11T13:42:18.698Z</time>
      </trkpt>
      <trkpt lat="46.8754" lon="8.47402">
        <ele>2056</ele>
        <time>2021-08-11T13:42:19.698Z</time>
      </trkpt>
      <trkpt lat="46.87539" lon="8.47401">
        <ele>2056</ele>
        <time>2021-08-11T13:42:20.698Z</time>
      </trkpt>
      <trkpt lat="46.87539" lon="8.47401">
        <ele>2056</ele>
        <time>2021-08-11T13:42:21.697Z</time>
      </trkpt>
      <trkpt lat="46.8754" lon="8.474">
        <ele>2056</ele>
        <time>2021-08-11T13:42:22.697Z</time>
      </trkpt>
      <trkpt lat="46.87539" lon="8.47399">
        <ele>2056</ele>
        <time>2021-08-11T13:42:23.697Z</time>
      </trkpt>
      <trkpt lat="46.87538" lon="8.47398">
        <ele>2056</ele>
        <time>2021-08-11T13:42:24.697Z</time>
      </trkpt>
      <trkpt lat="46.87539" lon="8.47396">
        <ele>2056</ele>
        <time>2021-08-11T13:42:25.698Z</time>
      </trkpt>
      <trkpt lat="46.87539" lon="8.47396">
        <ele>2056</ele>
        <time>2021-08-11T13:42:26.698Z</time>
      </trkpt>
      <trkpt lat="46.87539" lon="8.47393">
        <ele>2059</ele>
        <time>2021-08-11T13:42:27.698Z</time>
      </trkpt>
      <trkpt lat="46.87538" lon="8.47392">
        <ele>2059</ele>
        <time>2021-08-11T13:42:28.698Z</time>
      </trkpt>
      <trkpt lat="46.87538" lon="8.47392">
        <ele>2058</ele>
        <time>2021-08-11T13:42:29.697Z</time>
      </trkpt>
      <trkpt lat="46.87538" lon="8.47391">
        <ele>2058</ele>
        <time>2021-08-11T13:42:30.697Z</time>
      </trkpt>
      <trkpt lat="46.87538" lon="8.4739">
        <ele>2058</ele>
        <time>2021-08-11T13:42:31.697Z</time>
      </trkpt>
      <trkpt lat="46.87538" lon="8.4739">
        <ele>2058</ele>
        <time>2021-08-11T13:42:32.698Z</time>
      </trkpt>
      <trkpt lat="46.87538" lon="8.47389">
        <ele>2058</ele>
        <time>2021-08-11T13:42:33.698Z</time>
      </trkpt>
      <trkpt lat="46.87538" lon="8.47388">
        <ele>2059</ele>
        <time>2021-08-11T13:42:34.698Z</time>
      </trkpt>
      <trkpt lat="46.87538" lon="8.47388">
        <ele>2060</ele>
        <time>2021-08-11T13:42:35.698Z</time>
      </trkpt>
      <trkpt lat="46.87539" lon="8.47387">
        <ele>2060</ele>
        <time>2021-08-11T13:42:36.697Z</time>
      </trkpt>
      <trkpt lat="46.87539" lon="8.47387">
        <ele>2061</ele>
        <time>2021-08-11T13:42:37.697Z</time>
      </trkpt>
      <trkpt lat="46.8754" lon="8.47388">
        <ele>2061</ele>
        <time>2021-08-11T13:42:38.698Z</time>
      </trkpt>
      <trkpt lat="46.87541" lon="8.47387">
        <ele>2061</ele>
        <time>2021-08-11T13:42:39.698Z</time>
      </trkpt>
      <trkpt lat="46.87541" lon="8.47386">
        <ele>2061</ele>
        <time>2021-08-11T13:42:40.698Z</time>
      </trkpt>
      <trkpt lat="46.87541" lon="8.47385">
        <ele>2061</ele>
        <time>2021-08-11T13:42:41.698Z</time>
      </trkpt>
      <trkpt lat="46.87541" lon="8.47384">
        <ele>2061</ele>
        <time>2021-08-11T13:42:42.698Z</time>
      </trkpt>
      <trkpt lat="46.8754" lon="8.47383">
        <ele>2061</ele>
        <time>2021-08-11T13:42:43.698Z</time>
      </trkpt>
      <trkpt lat="46.8754" lon="8.47382">
        <ele>2061</ele>
        <time>2021-08-11T13:42:44.697Z</time>
      </trkpt>
      <trkpt lat="46.87541" lon="8.47382">
        <ele>2061</ele>
        <time>2021-08-11T13:42:45.698Z</time>
      </trkpt>
      <trkpt lat="46.87541" lon="8.47381">
        <ele>2061</ele>
        <time>2021-08-11T13:42:46.698Z</time>
      </trkpt>
      <trkpt lat="46.87541" lon="8.4738">
        <ele>2060</ele>
        <time>2021-08-11T13:42:47.697Z</time>
      </trkpt>
      <trkpt lat="46.87541" lon="8.4738">
        <ele>2060</ele>
        <time>2021-08-11T13:42:48.698Z</time>
      </trkpt>
      <trkpt lat="46.87541" lon="8.47379">
        <ele>2060</ele>
        <time>2021-08-11T13:42:49.698Z</time>
      </trkpt>
      <trkpt lat="46.87541" lon="8.47378">
        <ele>2060</ele>
        <time>2021-08-11T13:42:50.698Z</time>
      </trkpt>
      <trkpt lat="46.87541" lon="8.47378">
        <ele>2059</ele>
        <time>2021-08-11T13:42:51.697Z</time>
      </trkpt>
      <trkpt lat="46.87541" lon="8.47377">
        <ele>2059</ele>
        <time>2021-08-11T13:42:52.698Z</time>
      </trkpt>
      <trkpt lat="46.87542" lon="8.47376">
        <ele>2059</ele>
        <time>2021-08-11T13:42:53.698Z</time>
      </trkpt>
      <trkpt lat="46.87543" lon="8.47375">
        <ele>2060</ele>
        <time>2021-08-11T13:42:54.698Z</time>
      </trkpt>
      <trkpt lat="46.87543" lon="8.47374">
        <ele>2060</ele>
        <time>2021-08-11T13:42:55.698Z</time>
      </trkpt>
      <trkpt lat="46.87543" lon="8.47374">
        <ele>2060</ele>
        <time>2021-08-11T13:42:56.697Z</time>
      </trkpt>
      <trkpt lat="46.87543" lon="8.47374">
        <ele>2061</ele>
        <time>2021-08-11T13:42:57.698Z</time>
      </trkpt>
      <trkpt lat="46.87543" lon="8.47374">
        <ele>2061</ele>
        <time>2021-08-11T13:42:58.698Z</time>
      </trkpt>
      <trkpt lat="46.87543" lon="8.47374">
        <ele>2061</ele>
        <time>2021-08-11T13:42:59.698Z</time>
      </trkpt>
      <trkpt lat="46.87543" lon="8.47373">
        <ele>2062</ele>
        <time>2021-08-11T13:43:00.697Z</time>
      </trkpt>
      <trkpt lat="46.87543" lon="8.47373">
        <ele>2062</ele>
        <time>2021-08-11T13:43:01.697Z</time>
      </trkpt>
      <trkpt lat="46.87543" lon="8.47372">
        <ele>2062</ele>
        <time>2021-08-11T13:43:02.698Z</time>
      </trkpt>
      <trkpt lat="46.87544" lon="8.47372">
        <ele>2060</ele>
        <time>2021-08-11T13:43:03.699Z</time>
      </trkpt>
      <trkpt lat="46.87544" lon="8.47372">
        <ele>2060</ele>
        <time>2021-08-11T13:43:04.699Z</time>
      </trkpt>
      <trkpt lat="46.87544" lon="8.47372">
        <ele>2060</ele>
        <time>2021-08-11T13:43:05.699Z</time>
      </trkpt>
      <trkpt lat="46.87543" lon="8.47371">
        <ele>2060</ele>
        <time>2021-08-11T13:43:06.699Z</time>
      </trkpt>
      <trkpt lat="46.87543" lon="8.47369">
        <ele>2060</ele>
        <time>2021-08-11T13:43:07.700Z</time>
      </trkpt>
      <trkpt lat="46.87542" lon="8.47368">
        <ele>2060</ele>
        <time>2021-08-11T13:43:08.700Z</time>
      </trkpt>
      <trkpt lat="46.8754" lon="8.47366">
        <ele>2063</ele>
        <time>2021-08-11T13:43:09.699Z</time>
      </trkpt>
      <trkpt lat="46.87539" lon="8.47366">
        <ele>2063</ele>
        <time>2021-08-11T13:43:10.700Z</time>
      </trkpt>
      <trkpt lat="46.87538" lon="8.47366">
        <ele>2063</ele>
        <time>2021-08-11T13:43:11.699Z</time>
      </trkpt>
      <trkpt lat="46.87537" lon="8.47366">
        <ele>2063</ele>
        <time>2021-08-11T13:43:12.700Z</time>
      </trkpt>
      <trkpt lat="46.87536" lon="8.47366">
        <ele>2063</ele>
        <time>2021-08-11T13:43:13.700Z</time>
      </trkpt>
      <trkpt lat="46.87535" lon="8.47365">
        <ele>2063</ele>
        <time>2021-08-11T13:43:14.700Z</time>
      </trkpt>
      <trkpt lat="46.87535" lon="8.47366">
        <ele>2063</ele>
        <time>2021-08-11T13:43:15.700Z</time>
      </trkpt>
      <trkpt lat="46.87535" lon="8.47366">
        <ele>2062</ele>
        <time>2021-08-11T13:43:16.700Z</time>
      </trkpt>
      <trkpt lat="46.87534" lon="8.47366">
        <ele>2062</ele>
        <time>2021-08-11T13:43:17.700Z</time>
      </trkpt>
      <trkpt lat="46.87534" lon="8.47367">
        <ele>2062</ele>
        <time>2021-08-11T13:43:18.699Z</time>
      </trkpt>
      <trkpt lat="46.87534" lon="8.47368">
        <ele>2061</ele>
        <time>2021-08-11T13:43:19.700Z</time>
      </trkpt>
      <trkpt lat="46.87535" lon="8.47369">
        <ele>2061</ele>
        <time>2021-08-11T13:43:20.700Z</time>
      </trkpt>
      <trkpt lat="46.87535" lon="8.4737">
        <ele>2061</ele>
        <time>2021-08-11T13:43:21.699Z</time>
      </trkpt>
      <trkpt lat="46.87535" lon="8.47371">
        <ele>2062</ele>
        <time>2021-08-11T13:43:22.700Z</time>
      </trkpt>
      <trkpt lat="46.87535" lon="8.47372">
        <ele>2062</ele>
        <time>2021-08-11T13:43:23.700Z</time>
      </trkpt>
      <trkpt lat="46.87535" lon="8.47372">
        <ele>2062</ele>
        <time>2021-08-11T13:43:24.700Z</time>
      </trkpt>
      <trkpt lat="46.87535" lon="8.47373">
        <ele>2061</ele>
        <time>2021-08-11T13:43:25.700Z</time>
      </trkpt>
      <trkpt lat="46.87535" lon="8.47374">
        <ele>2061</ele>
        <time>2021-08-11T13:43:26.700Z</time>
      </trkpt>
      <trkpt lat="46.87534" lon="8.47374">
        <ele>2062</ele>
        <time>2021-08-11T13:43:27.699Z</time>
      </trkpt>
      <trkpt lat="46.87534" lon="8.47375">
        <ele>2062</ele>
        <time>2021-08-11T13:43:28.700Z</time>
      </trkpt>
      <trkpt lat="46.87533" lon="8.47375">
        <ele>2062</ele>
        <time>2021-08-11T13:43:29.700Z</time>
      </trkpt>
      <trkpt lat="46.87532" lon="8.47376">
        <ele>2062</ele>
        <time>2021-08-11T13:43:30.700Z</time>
      </trkpt>
      <trkpt lat="46.87532" lon="8.47378">
        <ele>2062</ele>
        <time>2021-08-11T13:43:31.699Z</time>
      </trkpt>
      <trkpt lat="46.87531" lon="8.4738">
        <ele>2063</ele>
        <time>2021-08-11T13:43:32.699Z</time>
      </trkpt>
      <trkpt lat="46.87531" lon="8.47381">
        <ele>2064</ele>
        <time>2021-08-11T13:43:33.700Z</time>
      </trkpt>
      <trkpt lat="46.87531" lon="8.47382">
        <ele>2064</ele>
        <time>2021-08-11T13:43:34.700Z</time>
      </trkpt>
      <trkpt lat="46.87531" lon="8.47383">
        <ele>2065</ele>
        <time>2021-08-11T13:43:35.700Z</time>
      </trkpt>
      <trkpt lat="46.87531" lon="8.47383">
        <ele>2065</ele>
        <time>2021-08-11T13:43:36.700Z</time>
      </trkpt>
      <trkpt lat="46.87532" lon="8.47383">
        <ele>2065</ele>
        <time>2021-08-11T13:43:37.700Z</time>
      </trkpt>
      <trkpt lat="46.87532" lon="8.47383">
        <ele>2065</ele>
        <time>2021-08-11T13:43:38.699Z</time>
      </trkpt>
      <trkpt lat="46.87532" lon="8.47384">
        <ele>2066</ele>
        <time>2021-08-11T13:43:39.699Z</time>
      </trkpt>
      <trkpt lat="46.87532" lon="8.47385">
        <ele>2065</ele>
        <time>2021-08-11T13:43:40.700Z</time>
      </trkpt>
      <trkpt lat="46.87532" lon="8.47385">
        <ele>2065</ele>
        <time>2021-08-11T13:43:41.699Z</time>
      </trkpt>
      <trkpt lat="46.87532" lon="8.47385">
        <ele>2064</ele>
        <time>2021-08-11T13:43:42.700Z</time>
      </trkpt>
      <trkpt lat="46.87531" lon="8.47385">
        <ele>2064</ele>
        <time>2021-08-11T13:43:43.700Z</time>
      </trkpt>
      <trkpt lat="46.87531" lon="8.47385">
        <ele>2064</ele>
        <time>2021-08-11T13:43:44.700Z</time>
      </trkpt>
      <trkpt lat="46.8753" lon="8.47386">
        <ele>2063</ele>
        <time>2021-08-11T13:43:45.699Z</time>
      </trkpt>
      <trkpt lat="46.8753" lon="8.47386">
        <ele>2063</ele>
        <time>2021-08-11T13:43:46.699Z</time>
      </trkpt>
      <trkpt lat="46.8753" lon="8.47387">
        <ele>2062</ele>
        <time>2021-08-11T13:43:47.700Z</time>
      </trkpt>
      <trkpt lat="46.87529" lon="8.47388">
        <ele>2062</ele>
        <time>2021-08-11T13:43:48.699Z</time>
      </trkpt>
      <trkpt lat="46.87529" lon="8.47389">
        <ele>2061</ele>
        <time>2021-08-11T13:43:49.700Z</time>
      </trkpt>
      <trkpt lat="46.87529" lon="8.4739">
        <ele>2061</ele>
        <time>2021-08-11T13:43:50.700Z</time>
      </trkpt>
      <trkpt lat="46.87529" lon="8.4739">
        <ele>2060</ele>
        <time>2021-08-11T13:43:51.700Z</time>
      </trkpt>
      <trkpt lat="46.87529" lon="8.47391">
        <ele>2059</ele>
        <time>2021-08-11T13:43:52.699Z</time>
      </trkpt>
      <trkpt lat="46.87529" lon="8.47392">
        <ele>2059</ele>
        <time>2021-08-11T13:43:53.700Z</time>
      </trkpt>
      <trkpt lat="46.87529" lon="8.47392">
        <ele>2058</ele>
        <time>2021-08-11T13:43:54.700Z</time>
      </trkpt>
      <trkpt lat="46.87529" lon="8.47392">
        <ele>2057</ele>
        <time>2021-08-11T13:43:55.700Z</time>
      </trkpt>
      <trkpt lat="46.87528" lon="8.47393">
        <ele>2057</ele>
        <time>2021-08-11T13:43:56.700Z</time>
      </trkpt>
      <trkpt lat="46.87528" lon="8.47393">
        <ele>2057</ele>
        <time>2021-08-11T13:43:57.700Z</time>
      </trkpt>
      <trkpt lat="46.87528" lon="8.47394">
        <ele>2057</ele>
        <time>2021-08-11T13:43:58.700Z</time>
      </trkpt>
      <trkpt lat="46.87528" lon="8.47394">
        <ele>2058</ele>
        <time>2021-08-11T13:43:59.699Z</time>
      </trkpt>
      <trkpt lat="46.87527" lon="8.47395">
        <ele>2058</ele>
        <time>2021-08-11T13:44:00.700Z</time>
      </trkpt>
      <trkpt lat="46.87527" lon="8.47396">
        <ele>2058</ele>
        <time>2021-08-11T13:44:01.699Z</time>
      </trkpt>
      <trkpt lat="46.87527" lon="8.47396">
        <ele>2059</ele>
        <time>2021-08-11T13:44:02.699Z</time>
      </trkpt>
      <trkpt lat="46.87527" lon="8.47397">
        <ele>2059</ele>
        <time>2021-08-11T13:44:03.699Z</time>
      </trkpt>
      <trkpt lat="46.87527" lon="8.47398">
        <ele>2059</ele>
        <time>2021-08-11T13:44:04.699Z</time>
      </trkpt>
      <trkpt lat="46.87527" lon="8.47398">
        <ele>2060</ele>
        <time>2021-08-11T13:44:05.699Z</time>
      </trkpt>
      <trkpt lat="46.87527" lon="8.47399">
        <ele>2060</ele>
        <time>2021-08-11T13:44:06.699Z</time>
      </trkpt>
      <trkpt lat="46.87527" lon="8.47399">
        <ele>2060</ele>
        <time>2021-08-11T13:44:07.700Z</time>
      </trkpt>
      <trkpt lat="46.87527" lon="8.47399">
        <ele>2060</ele>
        <time>2021-08-11T13:44:08.700Z</time>
      </trkpt>
      <trkpt lat="46.87526" lon="8.47399">
        <ele>2059</ele>
        <time>2021-08-11T13:44:09.700Z</time>
      </trkpt>
      <trkpt lat="46.87526" lon="8.474">
        <ele>2059</ele>
        <time>2021-08-11T13:44:10.700Z</time>
      </trkpt>
      <trkpt lat="46.87525" lon="8.474">
        <ele>2059</ele>
        <time>2021-08-11T13:44:11.700Z</time>
      </trkpt>
      <trkpt lat="46.87525" lon="8.474">
        <ele>2059</ele>
        <time>2021-08-11T13:44:12.700Z</time>
      </trkpt>
      <trkpt lat="46.87526" lon="8.474">
        <ele>2059</ele>
        <time>2021-08-11T13:44:13.700Z</time>
      </trkpt>
      <trkpt lat="46.87526" lon="8.474">
        <ele>2059</ele>
        <time>2021-08-11T13:44:14.700Z</time>
      </trkpt>
      <trkpt lat="46.87526" lon="8.47401">
        <ele>2058</ele>
        <time>2021-08-11T13:44:15.700Z</time>
      </trkpt>
      <trkpt lat="46.87526" lon="8.47401">
        <ele>2058</ele>
        <time>2021-08-11T13:44:16.700Z</time>
      </trkpt>
      <trkpt lat="46.87526" lon="8.47402">
        <ele>2057</ele>
        <time>2021-08-11T13:44:17.700Z</time>
      </trkpt>
      <trkpt lat="46.87526" lon="8.47403">
        <ele>2057</ele>
        <time>2021-08-11T13:44:18.700Z</time>
      </trkpt>
      <trkpt lat="46.87526" lon="8.47404">
        <ele>2057</ele>
        <time>2021-08-11T13:44:19.700Z</time>
      </trkpt>
      <trkpt lat="46.87525" lon="8.47405">
        <ele>2057</ele>
        <time>2021-08-11T13:44:20.700Z</time>
      </trkpt>
      <trkpt lat="46.87525" lon="8.47406">
        <ele>2057</ele>
        <time>2021-08-11T13:44:21.700Z</time>
      </trkpt>
      <trkpt lat="46.87525" lon="8.47406">
        <ele>2058</ele>
        <time>2021-08-11T13:44:22.699Z</time>
      </trkpt>
      <trkpt lat="46.87524" lon="8.47406">
        <ele>2058</ele>
        <time>2021-08-11T13:44:23.699Z</time>
      </trkpt>
      <trkpt lat="46.87523" lon="8.47405">
        <ele>2058</ele>
        <time>2021-08-11T13:44:24.700Z</time>
      </trkpt>
      <trkpt lat="46.87523" lon="8.47405">
        <ele>2058</ele>
        <time>2021-08-11T13:44:25.699Z</time>
      </trkpt>
      <trkpt lat="46.87522" lon="8.47405">
        <ele>2058</ele>
        <time>2021-08-11T13:44:26.700Z</time>
      </trkpt>
      <trkpt lat="46.87521" lon="8.47405">
        <ele>2057</ele>
        <time>2021-08-11T13:44:27.700Z</time>
      </trkpt>
      <trkpt lat="46.87521" lon="8.47405">
        <ele>2057</ele>
        <time>2021-08-11T13:44:28.700Z</time>
      </trkpt>
      <trkpt lat="46.87521" lon="8.47404">
        <ele>2057</ele>
        <time>2021-08-11T13:44:29.700Z</time>
      </trkpt>
      <trkpt lat="46.87521" lon="8.47404">
        <ele>2057</ele>
        <time>2021-08-11T13:44:30.699Z</time>
      </trkpt>
      <trkpt lat="46.87521" lon="8.47403">
        <ele>2057</ele>
        <time>2021-08-11T13:44:31.700Z</time>
      </trkpt>
      <trkpt lat="46.87521" lon="8.47403">
        <ele>2057</ele>
        <time>2021-08-11T13:44:32.699Z</time>
      </trkpt>
      <trkpt lat="46.87521" lon="8.47403">
        <ele>2057</ele>
        <time>2021-08-11T13:44:33.700Z</time>
      </trkpt>
      <trkpt lat="46.87522" lon="8.47403">
        <ele>2057</ele>
        <time>2021-08-11T13:44:34.700Z</time>
      </trkpt>
      <trkpt lat="46.87523" lon="8.47402">
        <ele>2057</ele>
        <time>2021-08-11T13:44:35.700Z</time>
      </trkpt>
      <trkpt lat="46.87523" lon="8.47398">
        <ele>2060</ele>
        <time>2021-08-11T13:44:36.699Z</time>
      </trkpt>
      <trkpt lat="46.87522" lon="8.47397">
        <ele>2061</ele>
        <time>2021-08-11T13:44:37.699Z</time>
      </trkpt>
      <trkpt lat="46.87521" lon="8.47397">
        <ele>2061</ele>
        <time>2021-08-11T13:44:38.699Z</time>
      </trkpt>
      <trkpt lat="46.87521" lon="8.47397">
        <ele>2062</ele>
        <time>2021-08-11T13:44:39.700Z</time>
      </trkpt>
      <trkpt lat="46.87521" lon="8.47397">
        <ele>2062</ele>
        <time>2021-08-11T13:44:40.699Z</time>
      </trkpt>
      <trkpt lat="46.8752" lon="8.47397">
        <ele>2063</ele>
        <time>2021-08-11T13:44:41.699Z</time>
      </trkpt>
      <trkpt lat="46.8752" lon="8.47397">
        <ele>2064</ele>
        <time>2021-08-11T13:44:42.699Z</time>
      </trkpt>
      <trkpt lat="46.87521" lon="8.47396">
        <ele>2064</ele>
        <time>2021-08-11T13:44:43.700Z</time>
      </trkpt>
      <trkpt lat="46.87521" lon="8.47396">
        <ele>2065</ele>
        <time>2021-08-11T13:44:44.699Z</time>
      </trkpt>
      <trkpt lat="46.87521" lon="8.47396">
        <ele>2065</ele>
        <time>2021-08-11T13:44:45.700Z</time>
      </trkpt>
      <trkpt lat="46.87521" lon="8.47395">
        <ele>2065</ele>
        <time>2021-08-11T13:44:46.700Z</time>
      </trkpt>
      <trkpt lat="46.87522" lon="8.47395">
        <ele>2064</ele>
        <time>2021-08-11T13:44:47.699Z</time>
      </trkpt>
      <trkpt lat="46.87522" lon="8.47394">
        <ele>2064</ele>
        <time>2021-08-11T13:44:48.700Z</time>
      </trkpt>
      <trkpt lat="46.87523" lon="8.47394">
        <ele>2064</ele>
        <time>2021-08-11T13:44:49.700Z</time>
      </trkpt>
      <trkpt lat="46.87524" lon="8.47393">
        <ele>2064</ele>
        <time>2021-08-11T13:44:50.700Z</time>
      </trkpt>
      <trkpt lat="46.87524" lon="8.47392">
        <ele>2064</ele>
        <time>2021-08-11T13:44:51.699Z</time>
      </trkpt>
      <trkpt lat="46.87523" lon="8.4739">
        <ele>2064</ele>
        <time>2021-08-11T13:44:52.700Z</time>
      </trkpt>
      <trkpt lat="46.87522" lon="8.4739">
        <ele>2064</ele>
        <time>2021-08-11T13:44:53.700Z</time>
      </trkpt>
      <trkpt lat="46.87522" lon="8.47389">
        <ele>2065</ele>
        <time>2021-08-11T13:44:54.700Z</time>
      </trkpt>
      <trkpt lat="46.87521" lon="8.47389">
        <ele>2065</ele>
        <time>2021-08-11T13:44:55.700Z</time>
      </trkpt>
      <trkpt lat="46.8752" lon="8.47389">
        <ele>2065</ele>
        <time>2021-08-11T13:44:56.699Z</time>
      </trkpt>
      <trkpt lat="46.87519" lon="8.47389">
        <ele>2065</ele>
        <time>2021-08-11T13:44:57.700Z</time>
      </trkpt>
      <trkpt lat="46.87518" lon="8.47389">
        <ele>2065</ele>
        <time>2021-08-11T13:44:58.700Z</time>
      </trkpt>
      <trkpt lat="46.87518" lon="8.47388">
        <ele>2065</ele>
        <time>2021-08-11T13:44:59.700Z</time>
      </trkpt>
      <trkpt lat="46.87517" lon="8.47388">
        <ele>2065</ele>
        <time>2021-08-11T13:45:00.699Z</time>
      </trkpt>
      <trkpt lat="46.87517" lon="8.47388">
        <ele>2066</ele>
        <time>2021-08-11T13:45:01.699Z</time>
      </trkpt>
      <trkpt lat="46.87516" lon="8.47387">
        <ele>2066</ele>
        <time>2021-08-11T13:45:02.699Z</time>
      </trkpt>
      <trkpt lat="46.87516" lon="8.47386">
        <ele>2067</ele>
        <time>2021-08-11T13:45:03.699Z</time>
      </trkpt>
      <trkpt lat="46.87515" lon="8.47386">
        <ele>2067</ele>
        <time>2021-08-11T13:45:04.700Z</time>
      </trkpt>
      <trkpt lat="46.87514" lon="8.47386">
        <ele>2067</ele>
        <time>2021-08-11T13:45:05.699Z</time>
      </trkpt>
      <trkpt lat="46.87514" lon="8.47386">
        <ele>2067</ele>
        <time>2021-08-11T13:45:06.699Z</time>
      </trkpt>
      <trkpt lat="46.87513" lon="8.47386">
        <ele>2068</ele>
        <time>2021-08-11T13:45:07.699Z</time>
      </trkpt>
      <trkpt lat="46.87513" lon="8.47385">
        <ele>2068</ele>
        <time>2021-08-11T13:45:08.700Z</time>
      </trkpt>
      <trkpt lat="46.87513" lon="8.47385">
        <ele>2068</ele>
        <time>2021-08-11T13:45:09.699Z</time>
      </trkpt>
      <trkpt lat="46.87513" lon="8.47385">
        <ele>2068</ele>
        <time>2021-08-11T13:45:10.699Z</time>
      </trkpt>
      <trkpt lat="46.87513" lon="8.47384">
        <ele>2069</ele>
        <time>2021-08-11T13:45:11.701Z</time>
      </trkpt>
      <trkpt lat="46.87514" lon="8.47384">
        <ele>2069</ele>
        <time>2021-08-11T13:45:12.700Z</time>
      </trkpt>
      <trkpt lat="46.87515" lon="8.47384">
        <ele>2069</ele>
        <time>2021-08-11T13:45:13.700Z</time>
      </trkpt>
      <trkpt lat="46.87515" lon="8.47384">
        <ele>2069</ele>
        <time>2021-08-11T13:45:14.701Z</time>
      </trkpt>
      <trkpt lat="46.87516" lon="8.47384">
        <ele>2069</ele>
        <time>2021-08-11T13:45:15.700Z</time>
      </trkpt>
      <trkpt lat="46.87516" lon="8.47384">
        <ele>2069</ele>
        <time>2021-08-11T13:45:16.700Z</time>
      </trkpt>
      <trkpt lat="46.87517" lon="8.47384">
        <ele>2069</ele>
        <time>2021-08-11T13:45:17.700Z</time>
      </trkpt>
      <trkpt lat="46.87517" lon="8.47384">
        <ele>2069</ele>
        <time>2021-08-11T13:45:18.701Z</time>
      </trkpt>
      <trkpt lat="46.87518" lon="8.47383">
        <ele>2068</ele>
        <time>2021-08-11T13:45:19.701Z</time>
      </trkpt>
      <trkpt lat="46.87519" lon="8.47383">
        <ele>2067</ele>
        <time>2021-08-11T13:45:20.701Z</time>
      </trkpt>
      <trkpt lat="46.87519" lon="8.47382">
        <ele>2067</ele>
        <time>2021-08-11T13:45:21.701Z</time>
      </trkpt>
      <trkpt lat="46.87519" lon="8.47381">
        <ele>2066</ele>
        <time>2021-08-11T13:45:22.700Z</time>
      </trkpt>
      <trkpt lat="46.87519" lon="8.4738">
        <ele>2066</ele>
        <time>2021-08-11T13:45:23.701Z</time>
      </trkpt>
      <trkpt lat="46.87518" lon="8.47379">
        <ele>2066</ele>
        <time>2021-08-11T13:45:24.701Z</time>
      </trkpt>
      <trkpt lat="46.87517" lon="8.47378">
        <ele>2066</ele>
        <time>2021-08-11T13:45:25.700Z</time>
      </trkpt>
      <trkpt lat="46.87516" lon="8.47377">
        <ele>2067</ele>
        <time>2021-08-11T13:45:26.701Z</time>
      </trkpt>
      <trkpt lat="46.87516" lon="8.47376">
        <ele>2067</ele>
        <time>2021-08-11T13:45:30.795Z</time>
      </trkpt>
      <trkpt lat="46.87515" lon="8.47375">
        <ele>2067</ele>
        <time>2021-08-11T13:45:31.795Z</time>
      </trkpt>
      <trkpt lat="46.87515" lon="8.47375">
        <ele>2068</ele>
        <time>2021-08-11T13:45:32.795Z</time>
      </trkpt>
      <trkpt lat="46.87515" lon="8.47374">
        <ele>2069</ele>
        <time>2021-08-11T13:45:33.795Z</time>
      </trkpt>
      <trkpt lat="46.87514" lon="8.47373">
        <ele>2069</ele>
        <time>2021-08-11T13:45:34.795Z</time>
      </trkpt>
      <trkpt lat="46.87514" lon="8.47373">
        <ele>2070</ele>
        <time>2021-08-11T13:45:35.795Z</time>
      </trkpt>
      <trkpt lat="46.87513" lon="8.47372">
        <ele>2071</ele>
        <time>2021-08-11T13:45:36.794Z</time>
      </trkpt>
      <trkpt lat="46.87512" lon="8.47372">
        <ele>2072</ele>
        <time>2021-08-11T13:45:37.795Z</time>
      </trkpt>
      <trkpt lat="46.87512" lon="8.47371">
        <ele>2073</ele>
        <time>2021-08-11T13:45:38.795Z</time>
      </trkpt>
      <trkpt lat="46.87512" lon="8.47374">
        <ele>2076</ele>
        <time>2021-08-11T13:45:39.796Z</time>
      </trkpt>
      <trkpt lat="46.87511" lon="8.47374">
        <ele>2075</ele>
        <time>2021-08-11T13:45:40.796Z</time>
      </trkpt>
      <trkpt lat="46.87511" lon="8.47373">
        <ele>2075</ele>
        <time>2021-08-11T13:45:41.795Z</time>
      </trkpt>
      <trkpt lat="46.87511" lon="8.47373">
        <ele>2074</ele>
        <time>2021-08-11T13:45:42.796Z</time>
      </trkpt>
      <trkpt lat="46.87512" lon="8.47373">
        <ele>2074</ele>
        <time>2021-08-11T13:45:43.796Z</time>
      </trkpt>
      <trkpt lat="46.87513" lon="8.47375">
        <ele>2072</ele>
        <time>2021-08-11T13:45:44.795Z</time>
      </trkpt>
      <trkpt lat="46.87513" lon="8.47375">
        <ele>2071</ele>
        <time>2021-08-11T13:45:45.796Z</time>
      </trkpt>
      <trkpt lat="46.87513" lon="8.47376">
        <ele>2071</ele>
        <time>2021-08-11T13:45:46.795Z</time>
      </trkpt>
      <trkpt lat="46.87513" lon="8.47376">
        <ele>2070</ele>
        <time>2021-08-11T13:45:47.796Z</time>
      </trkpt>
      <trkpt lat="46.87514" lon="8.47376">
        <ele>2070</ele>
        <time>2021-08-11T13:45:48.795Z</time>
      </trkpt>
      <trkpt lat="46.87514" lon="8.47377">
        <ele>2070</ele>
        <time>2021-08-11T13:45:49.796Z</time>
      </trkpt>
      <trkpt lat="46.87511" lon="8.47375">
        <ele>2073</ele>
        <time>2021-08-11T13:45:50.797Z</time>
      </trkpt>
      <trkpt lat="46.87511" lon="8.47375">
        <ele>2073</ele>
        <time>2021-08-11T13:45:51.797Z</time>
      </trkpt>
      <trkpt lat="46.87509" lon="8.4737">
        <ele>2070</ele>
        <time>2021-08-11T13:45:52.799Z</time>
      </trkpt>
      <trkpt lat="46.87508" lon="8.47369">
        <ele>2070</ele>
        <time>2021-08-11T13:45:53.798Z</time>
      </trkpt>
      <trkpt lat="46.87508" lon="8.47369">
        <ele>2069</ele>
        <time>2021-08-11T13:45:54.798Z</time>
      </trkpt>
      <trkpt lat="46.87508" lon="8.47368">
        <ele>2069</ele>
        <time>2021-08-11T13:45:55.799Z</time>
      </trkpt>
      <trkpt lat="46.87508" lon="8.47368">
        <ele>2069</ele>
        <time>2021-08-11T13:45:56.798Z</time>
      </trkpt>
      <trkpt lat="46.87508" lon="8.47365">
        <ele>2070</ele>
        <time>2021-08-11T13:45:57.799Z</time>
      </trkpt>
      <trkpt lat="46.87508" lon="8.47365">
        <ele>2069</ele>
        <time>2021-08-11T13:45:58.799Z</time>
      </trkpt>
      <trkpt lat="46.87509" lon="8.47364">
        <ele>2069</ele>
        <time>2021-08-11T13:45:59.798Z</time>
      </trkpt>
      <trkpt lat="46.87509" lon="8.47364">
        <ele>2069</ele>
        <time>2021-08-11T13:46:00.798Z</time>
      </trkpt>
      <trkpt lat="46.87509" lon="8.47363">
        <ele>2069</ele>
        <time>2021-08-11T13:46:01.798Z</time>
      </trkpt>
      <trkpt lat="46.87509" lon="8.47362">
        <ele>2069</ele>
        <time>2021-08-11T13:46:02.799Z</time>
      </trkpt>
      <trkpt lat="46.8751" lon="8.47361">
        <ele>2069</ele>
        <time>2021-08-11T13:46:03.799Z</time>
      </trkpt>
      <trkpt lat="46.8751" lon="8.47361">
        <ele>2069</ele>
        <time>2021-08-11T13:46:04.798Z</time>
      </trkpt>
      <trkpt lat="46.87508" lon="8.47358">
        <ele>2069</ele>
        <time>2021-08-11T13:46:05.799Z</time>
      </trkpt>
      <trkpt lat="46.87508" lon="8.47358">
        <ele>2069</ele>
        <time>2021-08-11T13:46:06.799Z</time>
      </trkpt>
      <trkpt lat="46.87509" lon="8.47358">
        <ele>2069</ele>
        <time>2021-08-11T13:46:07.799Z</time>
      </trkpt>
      <trkpt lat="46.87509" lon="8.47358">
        <ele>2069</ele>
        <time>2021-08-11T13:46:08.799Z</time>
      </trkpt>
      <trkpt lat="46.87509" lon="8.47357">
        <ele>2069</ele>
        <time>2021-08-11T13:46:09.799Z</time>
      </trkpt>
      <trkpt lat="46.87509" lon="8.47357">
        <ele>2068</ele>
        <time>2021-08-11T13:46:10.799Z</time>
      </trkpt>
      <trkpt lat="46.87509" lon="8.47356">
        <ele>2068</ele>
        <time>2021-08-11T13:46:11.799Z</time>
      </trkpt>
      <trkpt lat="46.87509" lon="8.47356">
        <ele>2068</ele>
        <time>2021-08-11T13:46:12.799Z</time>
      </trkpt>
      <trkpt lat="46.87509" lon="8.47355">
        <ele>2068</ele>
        <time>2021-08-11T13:46:13.799Z</time>
      </trkpt>
      <trkpt lat="46.8751" lon="8.47355">
        <ele>2067</ele>
        <time>2021-08-11T13:46:14.800Z</time>
      </trkpt>
      <trkpt lat="46.8751" lon="8.47354">
        <ele>2067</ele>
        <time>2021-08-11T13:46:15.800Z</time>
      </trkpt>
      <trkpt lat="46.87511" lon="8.47354">
        <ele>2066</ele>
        <time>2021-08-11T13:46:16.800Z</time>
      </trkpt>
      <trkpt lat="46.87512" lon="8.47352">
        <ele>2066</ele>
        <time>2021-08-11T13:46:17.800Z</time>
      </trkpt>
      <trkpt lat="46.87512" lon="8.47352">
        <ele>2065</ele>
        <time>2021-08-11T13:46:18.800Z</time>
      </trkpt>
      <trkpt lat="46.87511" lon="8.47351">
        <ele>2067</ele>
        <time>2021-08-11T13:46:19.800Z</time>
      </trkpt>
      <trkpt lat="46.8751" lon="8.47352">
        <ele>2068</ele>
        <time>2021-08-11T13:46:20.800Z</time>
      </trkpt>
      <trkpt lat="46.87509" lon="8.47352">
        <ele>2068</ele>
        <time>2021-08-11T13:46:21.800Z</time>
      </trkpt>
      <trkpt lat="46.87509" lon="8.47351">
        <ele>2069</ele>
        <time>2021-08-11T13:46:22.800Z</time>
      </trkpt>
      <trkpt lat="46.87509" lon="8.4735">
        <ele>2070</ele>
        <time>2021-08-11T13:46:23.800Z</time>
      </trkpt>
      <trkpt lat="46.87509" lon="8.47351">
        <ele>2071</ele>
        <time>2021-08-11T13:46:24.800Z</time>
      </trkpt>
      <trkpt lat="46.87508" lon="8.47349">
        <ele>2074</ele>
        <time>2021-08-11T13:46:25.800Z</time>
      </trkpt>
      <trkpt lat="46.87509" lon="8.47349">
        <ele>2074</ele>
        <time>2021-08-11T13:46:26.800Z</time>
      </trkpt>
      <trkpt lat="46.87509" lon="8.47349">
        <ele>2074</ele>
        <time>2021-08-11T13:46:27.800Z</time>
      </trkpt>
      <trkpt lat="46.87508" lon="8.47347">
        <ele>2074</ele>
        <time>2021-08-11T13:46:28.801Z</time>
      </trkpt>
      <trkpt lat="46.87509" lon="8.47346">
        <ele>2073</ele>
        <time>2021-08-11T13:46:29.800Z</time>
      </trkpt>
      <trkpt lat="46.87509" lon="8.47346">
        <ele>2073</ele>
        <time>2021-08-11T13:46:30.800Z</time>
      </trkpt>
      <trkpt lat="46.87509" lon="8.47345">
        <ele>2073</ele>
        <time>2021-08-11T13:46:31.801Z</time>
      </trkpt>
      <trkpt lat="46.87509" lon="8.47345">
        <ele>2073</ele>
        <time>2021-08-11T13:46:32.801Z</time>
      </trkpt>
      <trkpt lat="46.87509" lon="8.47344">
        <ele>2073</ele>
        <time>2021-08-11T13:46:33.801Z</time>
      </trkpt>
      <trkpt lat="46.8751" lon="8.47343">
        <ele>2073</ele>
        <time>2021-08-11T13:46:34.801Z</time>
      </trkpt>
      <trkpt lat="46.8751" lon="8.47343">
        <ele>2073</ele>
        <time>2021-08-11T13:46:35.801Z</time>
      </trkpt>
      <trkpt lat="46.8751" lon="8.47342">
        <ele>2074</ele>
        <time>2021-08-11T13:46:36.800Z</time>
      </trkpt>
      <trkpt lat="46.87509" lon="8.47342">
        <ele>2075</ele>
        <time>2021-08-11T13:46:37.801Z</time>
      </trkpt>
      <trkpt lat="46.8751" lon="8.4734">
        <ele>2075</ele>
        <time>2021-08-11T13:46:38.801Z</time>
      </trkpt>
      <trkpt lat="46.8751" lon="8.47339">
        <ele>2076</ele>
        <time>2021-08-11T13:46:39.801Z</time>
      </trkpt>
      <trkpt lat="46.8751" lon="8.47339">
        <ele>2077</ele>
        <time>2021-08-11T13:46:40.801Z</time>
      </trkpt>
      <trkpt lat="46.8751" lon="8.47339">
        <ele>2077</ele>
        <time>2021-08-11T13:46:41.800Z</time>
      </trkpt>
      <trkpt lat="46.8751" lon="8.47339">
        <ele>2077</ele>
        <time>2021-08-11T13:46:42.800Z</time>
      </trkpt>
      <trkpt lat="46.87509" lon="8.47336">
        <ele>2083</ele>
        <time>2021-08-11T13:46:43.801Z</time>
      </trkpt>
      <trkpt lat="46.87509" lon="8.47335">
        <ele>2084</ele>
        <time>2021-08-11T13:46:44.800Z</time>
      </trkpt>
      <trkpt lat="46.87508" lon="8.47334">
        <ele>2085</ele>
        <time>2021-08-11T13:46:45.801Z</time>
      </trkpt>
      <trkpt lat="46.87508" lon="8.47333">
        <ele>2087</ele>
        <time>2021-08-11T13:46:46.800Z</time>
      </trkpt>
      <trkpt lat="46.87507" lon="8.47333">
        <ele>2088</ele>
        <time>2021-08-11T13:46:47.800Z</time>
      </trkpt>
      <trkpt lat="46.87506" lon="8.47332">
        <ele>2088</ele>
        <time>2021-08-11T13:46:48.800Z</time>
      </trkpt>
      <trkpt lat="46.87506" lon="8.47332">
        <ele>2089</ele>
        <time>2021-08-11T13:46:49.800Z</time>
      </trkpt>
      <trkpt lat="46.87506" lon="8.47331">
        <ele>2089</ele>
        <time>2021-08-11T13:46:50.801Z</time>
      </trkpt>
      <trkpt lat="46.87507" lon="8.47331">
        <ele>2090</ele>
        <time>2021-08-11T13:46:51.801Z</time>
      </trkpt>
      <trkpt lat="46.87507" lon="8.4733">
        <ele>2090</ele>
        <time>2021-08-11T13:46:52.801Z</time>
      </trkpt>
      <trkpt lat="46.87507" lon="8.4733">
        <ele>2090</ele>
        <time>2021-08-11T13:46:53.801Z</time>
      </trkpt>
      <trkpt lat="46.87507" lon="8.47334">
        <ele>2090</ele>
        <time>2021-08-11T13:46:54.802Z</time>
      </trkpt>
      <trkpt lat="46.87508" lon="8.47334">
        <ele>2090</ele>
        <time>2021-08-11T13:46:55.801Z</time>
      </trkpt>
      <trkpt lat="46.87508" lon="8.47335">
        <ele>2089</ele>
        <time>2021-08-11T13:46:56.802Z</time>
      </trkpt>
      <trkpt lat="46.87509" lon="8.47335">
        <ele>2089</ele>
        <time>2021-08-11T13:46:57.802Z</time>
      </trkpt>
      <trkpt lat="46.87507" lon="8.47336">
        <ele>2085</ele>
        <time>2021-08-11T13:46:58.803Z</time>
      </trkpt>
      <trkpt lat="46.87508" lon="8.47336">
        <ele>2085</ele>
        <time>2021-08-11T13:46:59.802Z</time>
      </trkpt>
      <trkpt lat="46.87509" lon="8.47336">
        <ele>2084</ele>
        <time>2021-08-11T13:47:00.802Z</time>
      </trkpt>
      <trkpt lat="46.8751" lon="8.47336">
        <ele>2084</ele>
        <time>2021-08-11T13:47:01.803Z</time>
      </trkpt>
      <trkpt lat="46.8751" lon="8.47336">
        <ele>2084</ele>
        <time>2021-08-11T13:47:02.803Z</time>
      </trkpt>
      <trkpt lat="46.8751" lon="8.47335">
        <ele>2084</ele>
        <time>2021-08-11T13:47:03.803Z</time>
      </trkpt>
      <trkpt lat="46.87512" lon="8.4733">
        <ele>2082</ele>
        <time>2021-08-11T13:47:04.803Z</time>
      </trkpt>
      <trkpt lat="46.87511" lon="8.4733">
        <ele>2082</ele>
        <time>2021-08-11T13:47:05.804Z</time>
      </trkpt>
      <trkpt lat="46.87511" lon="8.4733">
        <ele>2082</ele>
        <time>2021-08-11T13:47:06.803Z</time>
      </trkpt>
      <trkpt lat="46.8751" lon="8.47329">
        <ele>2083</ele>
        <time>2021-08-11T13:47:07.804Z</time>
      </trkpt>
      <trkpt lat="46.87509" lon="8.47329">
        <ele>2083</ele>
        <time>2021-08-11T13:47:08.804Z</time>
      </trkpt>
      <trkpt lat="46.87509" lon="8.47329">
        <ele>2084</ele>
        <time>2021-08-11T13:47:09.804Z</time>
      </trkpt>
      <trkpt lat="46.87509" lon="8.47329">
        <ele>2084</ele>
        <time>2021-08-11T13:47:10.804Z</time>
      </trkpt>
      <trkpt lat="46.87508" lon="8.47329">
        <ele>2084</ele>
        <time>2021-08-11T13:47:11.803Z</time>
      </trkpt>
      <trkpt lat="46.87509" lon="8.47328">
        <ele>2084</ele>
        <time>2021-08-11T13:47:12.804Z</time>
      </trkpt>
      <trkpt lat="46.8751" lon="8.47328">
        <ele>2084</ele>
        <time>2021-08-11T13:47:13.804Z</time>
      </trkpt>
      <trkpt lat="46.8751" lon="8.47328">
        <ele>2084</ele>
        <time>2021-08-11T13:47:14.804Z</time>
      </trkpt>
      <trkpt lat="46.87511" lon="8.47327">
        <ele>2084</ele>
        <time>2021-08-11T13:47:15.804Z</time>
      </trkpt>
      <trkpt lat="46.87512" lon="8.47326">
        <ele>2084</ele>
        <time>2021-08-11T13:47:16.804Z</time>
      </trkpt>
      <trkpt lat="46.87512" lon="8.47325">
        <ele>2084</ele>
        <time>2021-08-11T13:47:17.804Z</time>
      </trkpt>
      <trkpt lat="46.87512" lon="8.47323">
        <ele>2085</ele>
        <time>2021-08-11T13:47:18.803Z</time>
      </trkpt>
      <trkpt lat="46.87511" lon="8.47322">
        <ele>2086</ele>
        <time>2021-08-11T13:47:19.804Z</time>
      </trkpt>
      <trkpt lat="46.8751" lon="8.47321">
        <ele>2087</ele>
        <time>2021-08-11T13:47:20.804Z</time>
      </trkpt>
      <trkpt lat="46.87509" lon="8.4732">
        <ele>2088</ele>
        <time>2021-08-11T13:47:21.803Z</time>
      </trkpt>
      <trkpt lat="46.87509" lon="8.4732">
        <ele>2090</ele>
        <time>2021-08-11T13:47:22.804Z</time>
      </trkpt>
      <trkpt lat="46.87508" lon="8.47319">
        <ele>2091</ele>
        <time>2021-08-11T13:47:23.803Z</time>
      </trkpt>
      <trkpt lat="46.87508" lon="8.47319">
        <ele>2092</ele>
        <time>2021-08-11T13:47:24.804Z</time>
      </trkpt>
      <trkpt lat="46.87507" lon="8.47318">
        <ele>2093</ele>
        <time>2021-08-11T13:47:25.804Z</time>
      </trkpt>
      <trkpt lat="46.87506" lon="8.47317">
        <ele>2094</ele>
        <time>2021-08-11T13:47:26.804Z</time>
      </trkpt>
      <trkpt lat="46.87506" lon="8.47317">
        <ele>2095</ele>
        <time>2021-08-11T13:47:27.804Z</time>
      </trkpt>
      <trkpt lat="46.87506" lon="8.47317">
        <ele>2096</ele>
        <time>2021-08-11T13:47:28.804Z</time>
      </trkpt>
      <trkpt lat="46.87506" lon="8.47317">
        <ele>2096</ele>
        <time>2021-08-11T13:47:29.804Z</time>
      </trkpt>
      <trkpt lat="46.87507" lon="8.47317">
        <ele>2096</ele>
        <time>2021-08-11T13:47:30.804Z</time>
      </trkpt>
      <trkpt lat="46.87508" lon="8.47317">
        <ele>2096</ele>
        <time>2021-08-11T13:47:31.804Z</time>
      </trkpt>
      <trkpt lat="46.87509" lon="8.47316">
        <ele>2096</ele>
        <time>2021-08-11T13:47:32.804Z</time>
      </trkpt>
      <trkpt lat="46.87509" lon="8.47315">
        <ele>2096</ele>
        <time>2021-08-11T13:47:33.803Z</time>
      </trkpt>
      <trkpt lat="46.8751" lon="8.47314">
        <ele>2095</ele>
        <time>2021-08-11T13:47:34.804Z</time>
      </trkpt>
      <trkpt lat="46.87509" lon="8.47317">
        <ele>2093</ele>
        <time>2021-08-11T13:47:35.803Z</time>
      </trkpt>
      <trkpt lat="46.87509" lon="8.47319">
        <ele>2092</ele>
        <time>2021-08-11T13:47:36.804Z</time>
      </trkpt>
      <trkpt lat="46.87508" lon="8.47319">
        <ele>2090</ele>
        <time>2021-08-11T13:47:37.804Z</time>
      </trkpt>
      <trkpt lat="46.87509" lon="8.47319">
        <ele>2090</ele>
        <time>2021-08-11T13:47:38.804Z</time>
      </trkpt>
      <trkpt lat="46.87509" lon="8.47319">
        <ele>2089</ele>
        <time>2021-08-11T13:47:39.803Z</time>
      </trkpt>
      <trkpt lat="46.87509" lon="8.47316">
        <ele>2091</ele>
        <time>2021-08-11T13:47:40.804Z</time>
      </trkpt>
      <trkpt lat="46.87507" lon="8.47318">
        <ele>2091</ele>
        <time>2021-08-11T13:47:41.804Z</time>
      </trkpt>
      <trkpt lat="46.87507" lon="8.47319">
        <ele>2091</ele>
        <time>2021-08-11T13:47:42.804Z</time>
      </trkpt>
      <trkpt lat="46.87507" lon="8.47318">
        <ele>2090</ele>
        <time>2021-08-11T13:47:43.804Z</time>
      </trkpt>
      <trkpt lat="46.87507" lon="8.47318">
        <ele>2090</ele>
        <time>2021-08-11T13:47:44.804Z</time>
      </trkpt>
      <trkpt lat="46.87506" lon="8.47317">
        <ele>2086</ele>
        <time>2021-08-11T13:47:45.805Z</time>
      </trkpt>
      <trkpt lat="46.87506" lon="8.47317">
        <ele>2085</ele>
        <time>2021-08-11T13:47:46.805Z</time>
      </trkpt>
      <trkpt lat="46.87506" lon="8.47317">
        <ele>2085</ele>
        <time>2021-08-11T13:47:47.805Z</time>
      </trkpt>
      <trkpt lat="46.87506" lon="8.47312">
        <ele>2094</ele>
        <time>2021-08-11T13:47:48.806Z</time>
      </trkpt>
      <trkpt lat="46.87505" lon="8.47311">
        <ele>2095</ele>
        <time>2021-08-11T13:47:49.806Z</time>
      </trkpt>
      <trkpt lat="46.87505" lon="8.47311">
        <ele>2096</ele>
        <time>2021-08-11T13:47:50.805Z</time>
      </trkpt>
      <trkpt lat="46.87505" lon="8.47311">
        <ele>2097</ele>
        <time>2021-08-11T13:47:51.806Z</time>
      </trkpt>
      <trkpt lat="46.87505" lon="8.4731">
        <ele>2098</ele>
        <time>2021-08-11T13:47:52.806Z</time>
      </trkpt>
      <trkpt lat="46.87504" lon="8.4731">
        <ele>2098</ele>
        <time>2021-08-11T13:47:53.806Z</time>
      </trkpt>
      <trkpt lat="46.87505" lon="8.47307">
        <ele>2100</ele>
        <time>2021-08-11T13:47:54.806Z</time>
      </trkpt>
      <trkpt lat="46.87505" lon="8.47307">
        <ele>2100</ele>
        <time>2021-08-11T13:47:55.806Z</time>
      </trkpt>
      <trkpt lat="46.87506" lon="8.47306">
        <ele>2100</ele>
        <time>2021-08-11T13:47:56.806Z</time>
      </trkpt>
      <trkpt lat="46.87506" lon="8.47306">
        <ele>2100</ele>
        <time>2021-08-11T13:47:57.807Z</time>
      </trkpt>
      <trkpt lat="46.87507" lon="8.47305">
        <ele>2100</ele>
        <time>2021-08-11T13:47:58.806Z</time>
      </trkpt>
      <trkpt lat="46.87507" lon="8.47304">
        <ele>2100</ele>
        <time>2021-08-11T13:47:59.806Z</time>
      </trkpt>
      <trkpt lat="46.87508" lon="8.47303">
        <ele>2100</ele>
        <time>2021-08-11T13:48:00.806Z</time>
      </trkpt>
      <trkpt lat="46.87507" lon="8.47302">
        <ele>2100</ele>
        <time>2021-08-11T13:48:01.806Z</time>
      </trkpt>
      <trkpt lat="46.87506" lon="8.47302">
        <ele>2101</ele>
        <time>2021-08-11T13:48:02.806Z</time>
      </trkpt>
      <trkpt lat="46.87505" lon="8.47301">
        <ele>2102</ele>
        <time>2021-08-11T13:48:03.806Z</time>
      </trkpt>
      <trkpt lat="46.87503" lon="8.47303">
        <ele>2103</ele>
        <time>2021-08-11T13:48:04.806Z</time>
      </trkpt>
      <trkpt lat="46.87502" lon="8.47303">
        <ele>2103</ele>
        <time>2021-08-11T13:48:05.806Z</time>
      </trkpt>
      <trkpt lat="46.87502" lon="8.47303">
        <ele>2104</ele>
        <time>2021-08-11T13:48:06.806Z</time>
      </trkpt>
      <trkpt lat="46.87502" lon="8.47303">
        <ele>2104</ele>
        <time>2021-08-11T13:48:07.806Z</time>
      </trkpt>
      <trkpt lat="46.87501" lon="8.47303">
        <ele>2104</ele>
        <time>2021-08-11T13:48:08.806Z</time>
      </trkpt>
      <trkpt lat="46.87501" lon="8.47303">
        <ele>2104</ele>
        <time>2021-08-11T13:48:09.806Z</time>
      </trkpt>
      <trkpt lat="46.87501" lon="8.47303">
        <ele>2103</ele>
        <time>2021-08-11T13:48:10.806Z</time>
      </trkpt>
      <trkpt lat="46.87502" lon="8.47303">
        <ele>2098</ele>
        <time>2021-08-11T13:48:11.807Z</time>
      </trkpt>
      <trkpt lat="46.87502" lon="8.47304">
        <ele>2098</ele>
        <time>2021-08-11T13:48:12.807Z</time>
      </trkpt>
      <trkpt lat="46.87502" lon="8.47303">
        <ele>2098</ele>
        <time>2021-08-11T13:48:13.806Z</time>
      </trkpt>
      <trkpt lat="46.87502" lon="8.47304">
        <ele>2100</ele>
        <time>2021-08-11T13:48:14.808Z</time>
      </trkpt>
      <trkpt lat="46.87502" lon="8.47305">
        <ele>2101</ele>
        <time>2021-08-11T13:48:15.808Z</time>
      </trkpt>
      <trkpt lat="46.87502" lon="8.47305">
        <ele>2101</ele>
        <time>2021-08-11T13:48:16.807Z</time>
      </trkpt>
      <trkpt lat="46.87505" lon="8.47298">
        <ele>2110</ele>
        <time>2021-08-11T13:48:17.807Z</time>
      </trkpt>
      <trkpt lat="46.87506" lon="8.47298">
        <ele>2110</ele>
        <time>2021-08-11T13:48:18.808Z</time>
      </trkpt>
      <trkpt lat="46.87506" lon="8.47298">
        <ele>2110</ele>
        <time>2021-08-11T13:48:19.807Z</time>
      </trkpt>
      <trkpt lat="46.87506" lon="8.47298">
        <ele>2109</ele>
        <time>2021-08-11T13:48:20.808Z</time>
      </trkpt>
      <trkpt lat="46.87507" lon="8.47297">
        <ele>2108</ele>
        <time>2021-08-11T13:48:21.808Z</time>
      </trkpt>
      <trkpt lat="46.87507" lon="8.47296">
        <ele>2108</ele>
        <time>2021-08-11T13:48:22.808Z</time>
      </trkpt>
      <trkpt lat="46.87507" lon="8.47295">
        <ele>2107</ele>
        <time>2021-08-11T13:48:23.808Z</time>
      </trkpt>
      <trkpt lat="46.87507" lon="8.47294">
        <ele>2106</ele>
        <time>2021-08-11T13:48:24.807Z</time>
      </trkpt>
      <trkpt lat="46.87506" lon="8.47294">
        <ele>2106</ele>
        <time>2021-08-11T13:48:25.807Z</time>
      </trkpt>
      <trkpt lat="46.87504" lon="8.47294">
        <ele>2105</ele>
        <time>2021-08-11T13:48:26.808Z</time>
      </trkpt>
      <trkpt lat="46.87503" lon="8.47294">
        <ele>2105</ele>
        <time>2021-08-11T13:48:27.808Z</time>
      </trkpt>
      <trkpt lat="46.87503" lon="8.47294">
        <ele>2105</ele>
        <time>2021-08-11T13:48:28.808Z</time>
      </trkpt>
      <trkpt lat="46.87503" lon="8.47294">
        <ele>2105</ele>
        <time>2021-08-11T13:48:29.808Z</time>
      </trkpt>
      <trkpt lat="46.87503" lon="8.47295">
        <ele>2106</ele>
        <time>2021-08-11T13:48:30.808Z</time>
      </trkpt>
      <trkpt lat="46.87502" lon="8.47294">
        <ele>2108</ele>
        <time>2021-08-11T13:48:31.808Z</time>
      </trkpt>
      <trkpt lat="46.87502" lon="8.47293">
        <ele>2108</ele>
        <time>2021-08-11T13:48:32.809Z</time>
      </trkpt>
      <trkpt lat="46.87502" lon="8.47293">
        <ele>2108</ele>
        <time>2021-08-11T13:48:33.808Z</time>
      </trkpt>
      <trkpt lat="46.87504" lon="8.47291">
        <ele>2108</ele>
        <time>2021-08-11T13:48:34.809Z</time>
      </trkpt>
      <trkpt lat="46.87505" lon="8.4729">
        <ele>2108</ele>
        <time>2021-08-11T13:48:35.809Z</time>
      </trkpt>
      <trkpt lat="46.87505" lon="8.4729">
        <ele>2108</ele>
        <time>2021-08-11T13:48:45.831Z</time>
      </trkpt>
      <trkpt lat="46.87505" lon="8.47289">
        <ele>2108</ele>
        <time>2021-08-11T13:48:46.832Z</time>
      </trkpt>
      <trkpt lat="46.87503" lon="8.47287">
        <ele>2106</ele>
        <time>2021-08-11T13:48:47.832Z</time>
      </trkpt>
      <trkpt lat="46.87503" lon="8.47286">
        <ele>2106</ele>
        <time>2021-08-11T13:48:54.953Z</time>
      </trkpt>
      <trkpt lat="46.87503" lon="8.47286">
        <ele>2106</ele>
        <time>2021-08-11T13:48:55.952Z</time>
      </trkpt>
      <trkpt lat="46.87503" lon="8.47285">
        <ele>2106</ele>
        <time>2021-08-11T13:48:56.953Z</time>
      </trkpt>
      <trkpt lat="46.87503" lon="8.47284">
        <ele>2107</ele>
        <time>2021-08-11T13:49:07.095Z</time>
      </trkpt>
      <trkpt lat="46.87503" lon="8.47284">
        <ele>2108</ele>
        <time>2021-08-11T13:49:08.096Z</time>
      </trkpt>
      <trkpt lat="46.87503" lon="8.47283">
        <ele>2109</ele>
        <time>2021-08-11T13:49:09.096Z</time>
      </trkpt>
      <trkpt lat="46.87503" lon="8.47283">
        <ele>2110</ele>
        <time>2021-08-11T13:49:10.095Z</time>
      </trkpt>
      <trkpt lat="46.87502" lon="8.47282">
        <ele>2111</ele>
        <time>2021-08-11T13:49:11.095Z</time>
      </trkpt>
      <trkpt lat="46.87502" lon="8.47282">
        <ele>2111</ele>
        <time>2021-08-11T13:49:12.096Z</time>
      </trkpt>
      <trkpt lat="46.87501" lon="8.47281">
        <ele>2112</ele>
        <time>2021-08-11T13:49:13.096Z</time>
      </trkpt>
      <trkpt lat="46.87501" lon="8.47281">
        <ele>2112</ele>
        <time>2021-08-11T13:49:14.096Z</time>
      </trkpt>
      <trkpt lat="46.875" lon="8.47281">
        <ele>2112</ele>
        <time>2021-08-11T13:49:15.095Z</time>
      </trkpt>
      <trkpt lat="46.875" lon="8.47281">
        <ele>2111</ele>
        <time>2021-08-11T13:49:16.095Z</time>
      </trkpt>
      <trkpt lat="46.875" lon="8.47282">
        <ele>2110</ele>
        <time>2021-08-11T13:49:17.096Z</time>
      </trkpt>
      <trkpt lat="46.87499" lon="8.47282">
        <ele>2108</ele>
        <time>2021-08-11T13:49:18.096Z</time>
      </trkpt>
      <trkpt lat="46.87498" lon="8.47281">
        <ele>2108</ele>
        <time>2021-08-11T13:49:19.096Z</time>
      </trkpt>
      <trkpt lat="46.87497" lon="8.47281">
        <ele>2108</ele>
        <time>2021-08-11T13:49:20.095Z</time>
      </trkpt>
      <trkpt lat="46.87497" lon="8.4728">
        <ele>2108</ele>
        <time>2021-08-11T13:49:21.095Z</time>
      </trkpt>
      <trkpt lat="46.87496" lon="8.4728">
        <ele>2108</ele>
        <time>2021-08-11T13:49:22.096Z</time>
      </trkpt>
      <trkpt lat="46.87496" lon="8.47279">
        <ele>2107</ele>
        <time>2021-08-11T13:49:23.095Z</time>
      </trkpt>
      <trkpt lat="46.87495" lon="8.47278">
        <ele>2107</ele>
        <time>2021-08-11T13:49:24.095Z</time>
      </trkpt>
      <trkpt lat="46.87494" lon="8.47278">
        <ele>2108</ele>
        <time>2021-08-11T13:49:25.095Z</time>
      </trkpt>
      <trkpt lat="46.87493" lon="8.47277">
        <ele>2108</ele>
        <time>2021-08-11T13:49:26.095Z</time>
      </trkpt>
      <trkpt lat="46.87492" lon="8.47277">
        <ele>2108</ele>
        <time>2021-08-11T13:49:27.095Z</time>
      </trkpt>
      <trkpt lat="46.87492" lon="8.47277">
        <ele>2108</ele>
        <time>2021-08-11T13:49:28.095Z</time>
      </trkpt>
      <trkpt lat="46.87492" lon="8.47276">
        <ele>2108</ele>
        <time>2021-08-11T13:49:29.095Z</time>
      </trkpt>
      <trkpt lat="46.87491" lon="8.47276">
        <ele>2108</ele>
        <time>2021-08-11T13:49:30.095Z</time>
      </trkpt>
      <trkpt lat="46.8749" lon="8.47275">
        <ele>2108</ele>
        <time>2021-08-11T13:49:31.095Z</time>
      </trkpt>
      <trkpt lat="46.87488" lon="8.47273">
        <ele>2108</ele>
        <time>2021-08-11T13:49:32.097Z</time>
      </trkpt>
      <trkpt lat="46.87489" lon="8.47273">
        <ele>2108</ele>
        <time>2021-08-11T13:49:33.097Z</time>
      </trkpt>
      <trkpt lat="46.8749" lon="8.47273">
        <ele>2107</ele>
        <time>2021-08-11T13:49:34.097Z</time>
      </trkpt>
      <trkpt lat="46.87489" lon="8.47272">
        <ele>2115</ele>
        <time>2021-08-11T13:49:35.097Z</time>
      </trkpt>
      <trkpt lat="46.87489" lon="8.47271">
        <ele>2116</ele>
        <time>2021-08-11T13:49:36.096Z</time>
      </trkpt>
      <trkpt lat="46.87489" lon="8.4727">
        <ele>2116</ele>
        <time>2021-08-11T13:49:37.097Z</time>
      </trkpt>
      <trkpt lat="46.87489" lon="8.4727">
        <ele>2117</ele>
        <time>2021-08-11T13:49:38.097Z</time>
      </trkpt>
      <trkpt lat="46.87488" lon="8.47269">
        <ele>2118</ele>
        <time>2021-08-11T13:49:39.097Z</time>
      </trkpt>
      <trkpt lat="46.87488" lon="8.47269">
        <ele>2119</ele>
        <time>2021-08-11T13:49:40.096Z</time>
      </trkpt>
      <trkpt lat="46.87488" lon="8.47268">
        <ele>2120</ele>
        <time>2021-08-11T13:49:41.097Z</time>
      </trkpt>
      <trkpt lat="46.87488" lon="8.47267">
        <ele>2121</ele>
        <time>2021-08-11T13:49:42.098Z</time>
      </trkpt>
      <trkpt lat="46.87488" lon="8.47267">
        <ele>2121</ele>
        <time>2021-08-11T13:49:43.097Z</time>
      </trkpt>
      <trkpt lat="46.87488" lon="8.47271">
        <ele>2112</ele>
        <time>2021-08-11T13:49:44.098Z</time>
      </trkpt>
      <trkpt lat="46.87487" lon="8.47273">
        <ele>2111</ele>
        <time>2021-08-11T13:49:45.098Z</time>
      </trkpt>
      <trkpt lat="46.87487" lon="8.47274">
        <ele>2111</ele>
        <time>2021-08-11T13:49:46.098Z</time>
      </trkpt>
      <trkpt lat="46.87487" lon="8.47274">
        <ele>2110</ele>
        <time>2021-08-11T13:49:47.098Z</time>
      </trkpt>
      <trkpt lat="46.87487" lon="8.47273">
        <ele>2110</ele>
        <time>2021-08-11T13:49:48.098Z</time>
      </trkpt>
      <trkpt lat="46.87489" lon="8.47274">
        <ele>2108</ele>
        <time>2021-08-11T13:49:49.099Z</time>
      </trkpt>
      <trkpt lat="46.87489" lon="8.47274">
        <ele>2108</ele>
        <time>2021-08-11T13:49:50.099Z</time>
      </trkpt>
      <trkpt lat="46.87489" lon="8.47274">
        <ele>2108</ele>
        <time>2021-08-11T13:49:51.098Z</time>
      </trkpt>
      <trkpt lat="46.87489" lon="8.47273">
        <ele>2108</ele>
        <time>2021-08-11T13:49:52.098Z</time>
      </trkpt>
      <trkpt lat="46.87488" lon="8.47273">
        <ele>2108</ele>
        <time>2021-08-11T13:49:53.098Z</time>
      </trkpt>
      <trkpt lat="46.87487" lon="8.47271">
        <ele>2111</ele>
        <time>2021-08-11T13:49:54.098Z</time>
      </trkpt>
      <trkpt lat="46.87487" lon="8.4727">
        <ele>2111</ele>
        <time>2021-08-11T13:49:55.098Z</time>
      </trkpt>
      <trkpt lat="46.87487" lon="8.47269">
        <ele>2111</ele>
        <time>2021-08-11T13:49:58.065Z</time>
      </trkpt>
      <trkpt lat="46.87486" lon="8.47269">
        <ele>2112</ele>
        <time>2021-08-11T13:50:10.834Z</time>
      </trkpt>
      <trkpt lat="46.87486" lon="8.47268">
        <ele>2112</ele>
        <time>2021-08-11T13:50:11.834Z</time>
      </trkpt>
      <trkpt lat="46.87485" lon="8.47267">
        <ele>2113</ele>
        <time>2021-08-11T13:50:12.833Z</time>
      </trkpt>
      <trkpt lat="46.87485" lon="8.47266">
        <ele>2113</ele>
        <time>2021-08-11T13:50:15.917Z</time>
      </trkpt>
      <trkpt lat="46.87484" lon="8.47266">
        <ele>2113</ele>
        <time>2021-08-11T13:50:16.917Z</time>
      </trkpt>
      <trkpt lat="46.87485" lon="8.47265">
        <ele>2114</ele>
        <time>2021-08-11T13:50:17.917Z</time>
      </trkpt>
      <trkpt lat="46.87484" lon="8.47265">
        <ele>2114</ele>
        <time>2021-08-11T13:50:20.919Z</time>
      </trkpt>
      <trkpt lat="46.87484" lon="8.47265">
        <ele>2115</ele>
        <time>2021-08-11T13:50:21.918Z</time>
      </trkpt>
      <trkpt lat="46.87483" lon="8.47264">
        <ele>2116</ele>
        <time>2021-08-11T13:50:22.919Z</time>
      </trkpt>
      <trkpt lat="46.87483" lon="8.47264">
        <ele>2117</ele>
        <time>2021-08-11T13:50:23.919Z</time>
      </trkpt>
      <trkpt lat="46.87483" lon="8.47263">
        <ele>2117</ele>
        <time>2021-08-11T13:50:24.919Z</time>
      </trkpt>
      <trkpt lat="46.87482" lon="8.47263">
        <ele>2118</ele>
        <time>2021-08-11T13:50:25.918Z</time>
      </trkpt>
      <trkpt lat="46.87482" lon="8.47262">
        <ele>2118</ele>
        <time>2021-08-11T13:50:26.919Z</time>
      </trkpt>
      <trkpt lat="46.87481" lon="8.47262">
        <ele>2118</ele>
        <time>2021-08-11T13:50:27.918Z</time>
      </trkpt>
      <trkpt lat="46.87481" lon="8.47262">
        <ele>2118</ele>
        <time>2021-08-11T13:50:28.919Z</time>
      </trkpt>
      <trkpt lat="46.87481" lon="8.47262">
        <ele>2118</ele>
        <time>2021-08-11T13:50:29.918Z</time>
      </trkpt>
      <trkpt lat="46.8748" lon="8.47261">
        <ele>2118</ele>
        <time>2021-08-11T13:50:30.919Z</time>
      </trkpt>
      <trkpt lat="46.8748" lon="8.47261">
        <ele>2118</ele>
        <time>2021-08-11T13:50:31.919Z</time>
      </trkpt>
      <trkpt lat="46.87479" lon="8.4726">
        <ele>2118</ele>
        <time>2021-08-11T13:50:32.919Z</time>
      </trkpt>
      <trkpt lat="46.87477" lon="8.47259">
        <ele>2119</ele>
        <time>2021-08-11T13:50:33.919Z</time>
      </trkpt>
      <trkpt lat="46.87477" lon="8.47258">
        <ele>2119</ele>
        <time>2021-08-11T13:50:34.918Z</time>
      </trkpt>
      <trkpt lat="46.87476" lon="8.47257">
        <ele>2119</ele>
        <time>2021-08-11T13:50:35.919Z</time>
      </trkpt>
      <trkpt lat="46.87475" lon="8.47256">
        <ele>2118</ele>
        <time>2021-08-11T13:50:36.919Z</time>
      </trkpt>
      <trkpt lat="46.87474" lon="8.47255">
        <ele>2118</ele>
        <time>2021-08-11T13:50:37.919Z</time>
      </trkpt>
      <trkpt lat="46.87473" lon="8.47254">
        <ele>2119</ele>
        <time>2021-08-11T13:50:38.919Z</time>
      </trkpt>
      <trkpt lat="46.87472" lon="8.47254">
        <ele>2119</ele>
        <time>2021-08-11T13:50:39.918Z</time>
      </trkpt>
      <trkpt lat="46.87472" lon="8.47253">
        <ele>2120</ele>
        <time>2021-08-11T13:50:40.919Z</time>
      </trkpt>
      <trkpt lat="46.87471" lon="8.47252">
        <ele>2121</ele>
        <time>2021-08-11T13:50:41.919Z</time>
      </trkpt>
      <trkpt lat="46.87471" lon="8.47251">
        <ele>2121</ele>
        <time>2021-08-11T13:50:42.919Z</time>
      </trkpt>
      <trkpt lat="46.8747" lon="8.4725">
        <ele>2121</ele>
        <time>2021-08-11T13:50:43.918Z</time>
      </trkpt>
      <trkpt lat="46.87469" lon="8.47249">
        <ele>2121</ele>
        <time>2021-08-11T13:50:44.919Z</time>
      </trkpt>
      <trkpt lat="46.87469" lon="8.47248">
        <ele>2121</ele>
        <time>2021-08-11T13:50:45.919Z</time>
      </trkpt>
      <trkpt lat="46.87468" lon="8.47247">
        <ele>2121</ele>
        <time>2021-08-11T13:50:46.919Z</time>
      </trkpt>
      <trkpt lat="46.87467" lon="8.47245">
        <ele>2121</ele>
        <time>2021-08-11T13:50:47.919Z</time>
      </trkpt>
      <trkpt lat="46.87466" lon="8.47245">
        <ele>2121</ele>
        <time>2021-08-11T13:50:48.918Z</time>
      </trkpt>
      <trkpt lat="46.87465" lon="8.47244">
        <ele>2121</ele>
        <time>2021-08-11T13:50:49.919Z</time>
      </trkpt>
      <trkpt lat="46.87464" lon="8.47244">
        <ele>2121</ele>
        <time>2021-08-11T13:50:50.919Z</time>
      </trkpt>
      <trkpt lat="46.87464" lon="8.47244">
        <ele>2122</ele>
        <time>2021-08-11T13:50:51.919Z</time>
      </trkpt>
      <trkpt lat="46.87463" lon="8.47243">
        <ele>2122</ele>
        <time>2021-08-11T13:50:52.919Z</time>
      </trkpt>
      <trkpt lat="46.87462" lon="8.47243">
        <ele>2123</ele>
        <time>2021-08-11T13:50:53.918Z</time>
      </trkpt>
      <trkpt lat="46.87461" lon="8.47243">
        <ele>2123</ele>
        <time>2021-08-11T13:50:54.918Z</time>
      </trkpt>
      <trkpt lat="46.87461" lon="8.47243">
        <ele>2123</ele>
        <time>2021-08-11T13:50:55.918Z</time>
      </trkpt>
      <trkpt lat="46.8746" lon="8.47243">
        <ele>2122</ele>
        <time>2021-08-11T13:50:56.918Z</time>
      </trkpt>
      <trkpt lat="46.8746" lon="8.47242">
        <ele>2122</ele>
        <time>2021-08-11T13:50:57.918Z</time>
      </trkpt>
      <trkpt lat="46.8746" lon="8.47241">
        <ele>2122</ele>
        <time>2021-08-11T13:50:58.918Z</time>
      </trkpt>
      <trkpt lat="46.87459" lon="8.4724">
        <ele>2121</ele>
        <time>2021-08-11T13:50:59.919Z</time>
      </trkpt>
      <trkpt lat="46.87459" lon="8.4724">
        <ele>2121</ele>
        <time>2021-08-11T13:51:00.919Z</time>
      </trkpt>
      <trkpt lat="46.87459" lon="8.47239">
        <ele>2121</ele>
        <time>2021-08-11T13:51:01.918Z</time>
      </trkpt>
      <trkpt lat="46.87458" lon="8.47239">
        <ele>2122</ele>
        <time>2021-08-11T13:51:03.957Z</time>
      </trkpt>
      <trkpt lat="46.87457" lon="8.47239">
        <ele>2122</ele>
        <time>2021-08-11T13:51:04.957Z</time>
      </trkpt>
      <trkpt lat="46.87456" lon="8.47239">
        <ele>2122</ele>
        <time>2021-08-11T13:51:05.957Z</time>
      </trkpt>
      <trkpt lat="46.87455" lon="8.47239">
        <ele>2122</ele>
        <time>2021-08-11T13:51:06.956Z</time>
      </trkpt>
      <trkpt lat="46.87454" lon="8.47239">
        <ele>2123</ele>
        <time>2021-08-11T13:51:07.957Z</time>
      </trkpt>
      <trkpt lat="46.87454" lon="8.47239">
        <ele>2123</ele>
        <time>2021-08-11T13:51:08.957Z</time>
      </trkpt>
      <trkpt lat="46.87453" lon="8.47239">
        <ele>2124</ele>
        <time>2021-08-11T13:51:09.957Z</time>
      </trkpt>
      <trkpt lat="46.87452" lon="8.47238">
        <ele>2125</ele>
        <time>2021-08-11T13:51:10.957Z</time>
      </trkpt>
      <trkpt lat="46.87451" lon="8.47238">
        <ele>2126</ele>
        <time>2021-08-11T13:51:11.956Z</time>
      </trkpt>
      <trkpt lat="46.87451" lon="8.47238">
        <ele>2126</ele>
        <time>2021-08-11T13:51:12.957Z</time>
      </trkpt>
      <trkpt lat="46.8745" lon="8.47238">
        <ele>2127</ele>
        <time>2021-08-11T13:51:13.957Z</time>
      </trkpt>
      <trkpt lat="46.87449" lon="8.47238">
        <ele>2127</ele>
        <time>2021-08-11T13:51:14.957Z</time>
      </trkpt>
      <trkpt lat="46.87448" lon="8.47238">
        <ele>2128</ele>
        <time>2021-08-11T13:51:15.956Z</time>
      </trkpt>
      <trkpt lat="46.87448" lon="8.47237">
        <ele>2129</ele>
        <time>2021-08-11T13:51:16.957Z</time>
      </trkpt>
      <trkpt lat="46.87448" lon="8.47237">
        <ele>2130</ele>
        <time>2021-08-11T13:51:17.957Z</time>
      </trkpt>
      <trkpt lat="46.87448" lon="8.47236">
        <ele>2130</ele>
        <time>2021-08-11T13:51:18.957Z</time>
      </trkpt>
      <trkpt lat="46.87447" lon="8.47236">
        <ele>2131</ele>
        <time>2021-08-11T13:51:19.957Z</time>
      </trkpt>
      <trkpt lat="46.87447" lon="8.47235">
        <ele>2131</ele>
        <time>2021-08-11T13:51:20.957Z</time>
      </trkpt>
      <trkpt lat="46.87447" lon="8.47234">
        <ele>2131</ele>
        <time>2021-08-11T13:51:21.956Z</time>
      </trkpt>
      <trkpt lat="46.87446" lon="8.47234">
        <ele>2131</ele>
        <time>2021-08-11T13:51:22.956Z</time>
      </trkpt>
      <trkpt lat="46.87446" lon="8.47233">
        <ele>2131</ele>
        <time>2021-08-11T13:51:23.956Z</time>
      </trkpt>
      <trkpt lat="46.87445" lon="8.47233">
        <ele>2131</ele>
        <time>2021-08-11T13:51:24.957Z</time>
      </trkpt>
      <trkpt lat="46.87445" lon="8.47234">
        <ele>2131</ele>
        <time>2021-08-11T13:51:25.956Z</time>
      </trkpt>
      <trkpt lat="46.87445" lon="8.47234">
        <ele>2131</ele>
        <time>2021-08-11T13:51:26.956Z</time>
      </trkpt>
      <trkpt lat="46.87445" lon="8.47234">
        <ele>2131</ele>
        <time>2021-08-11T13:51:27.956Z</time>
      </trkpt>
      <trkpt lat="46.87445" lon="8.47233">
        <ele>2131</ele>
        <time>2021-08-11T13:51:28.957Z</time>
      </trkpt>
      <trkpt lat="46.87445" lon="8.47233">
        <ele>2131</ele>
        <time>2021-08-11T13:51:29.956Z</time>
      </trkpt>
      <trkpt lat="46.87445" lon="8.47232">
        <ele>2131</ele>
        <time>2021-08-11T13:51:30.956Z</time>
      </trkpt>
      <trkpt lat="46.87445" lon="8.47232">
        <ele>2131</ele>
        <time>2021-08-11T13:51:31.956Z</time>
      </trkpt>
      <trkpt lat="46.87446" lon="8.4723">
        <ele>2135</ele>
        <time>2021-08-11T13:51:32.958Z</time>
      </trkpt>
      <trkpt lat="46.87446" lon="8.47229">
        <ele>2135</ele>
        <time>2021-08-11T13:51:33.958Z</time>
      </trkpt>
      <trkpt lat="46.87445" lon="8.47229">
        <ele>2135</ele>
        <time>2021-08-11T13:51:34.958Z</time>
      </trkpt>
      <trkpt lat="46.87445" lon="8.47229">
        <ele>2136</ele>
        <time>2021-08-11T13:51:35.958Z</time>
      </trkpt>
      <trkpt lat="46.87444" lon="8.47229">
        <ele>2136</ele>
        <time>2021-08-11T13:51:36.958Z</time>
      </trkpt>
      <trkpt lat="46.87444" lon="8.47229">
        <ele>2136</ele>
        <time>2021-08-11T13:51:37.958Z</time>
      </trkpt>
      <trkpt lat="46.87444" lon="8.4723">
        <ele>2135</ele>
        <time>2021-08-11T13:51:38.957Z</time>
      </trkpt>
      <trkpt lat="46.87444" lon="8.4723">
        <ele>2134</ele>
        <time>2021-08-11T13:51:39.957Z</time>
      </trkpt>
      <trkpt lat="46.87444" lon="8.4723">
        <ele>2134</ele>
        <time>2021-08-11T13:51:40.958Z</time>
      </trkpt>
      <trkpt lat="46.87444" lon="8.47231">
        <ele>2134</ele>
        <time>2021-08-11T13:51:41.957Z</time>
      </trkpt>
      <trkpt lat="46.87444" lon="8.47231">
        <ele>2134</ele>
        <time>2021-08-11T13:51:42.958Z</time>
      </trkpt>
      <trkpt lat="46.87443" lon="8.47231">
        <ele>2134</ele>
        <time>2021-08-11T13:51:43.958Z</time>
      </trkpt>
      <trkpt lat="46.87442" lon="8.47231">
        <ele>2134</ele>
        <time>2021-08-11T13:51:44.958Z</time>
      </trkpt>
      <trkpt lat="46.87442" lon="8.47231">
        <ele>2134</ele>
        <time>2021-08-11T13:51:45.957Z</time>
      </trkpt>
      <trkpt lat="46.87442" lon="8.4723">
        <ele>2134</ele>
        <time>2021-08-11T13:51:46.958Z</time>
      </trkpt>
      <trkpt lat="46.87443" lon="8.47228">
        <ele>2133</ele>
        <time>2021-08-11T13:51:47.959Z</time>
      </trkpt>
      <trkpt lat="46.87442" lon="8.47228">
        <ele>2133</ele>
        <time>2021-08-11T13:51:48.958Z</time>
      </trkpt>
      <trkpt lat="46.87441" lon="8.47227">
        <ele>2133</ele>
        <time>2021-08-11T13:51:49.958Z</time>
      </trkpt>
      <trkpt lat="46.87441" lon="8.47227">
        <ele>2133</ele>
        <time>2021-08-11T13:51:50.959Z</time>
      </trkpt>
      <trkpt lat="46.87441" lon="8.47226">
        <ele>2137</ele>
        <time>2021-08-11T13:51:51.958Z</time>
      </trkpt>
      <trkpt lat="46.8744" lon="8.47226">
        <ele>2137</ele>
        <time>2021-08-11T13:51:52.959Z</time>
      </trkpt>
      <trkpt lat="46.8744" lon="8.47225">
        <ele>2136</ele>
        <time>2021-08-11T13:51:53.958Z</time>
      </trkpt>
      <trkpt lat="46.8744" lon="8.47225">
        <ele>2135</ele>
        <time>2021-08-11T13:51:54.959Z</time>
      </trkpt>
      <trkpt lat="46.8744" lon="8.47224">
        <ele>2135</ele>
        <time>2021-08-11T13:51:55.959Z</time>
      </trkpt>
      <trkpt lat="46.8744" lon="8.47224">
        <ele>2134</ele>
        <time>2021-08-11T13:51:56.959Z</time>
      </trkpt>
      <trkpt lat="46.87439" lon="8.47224">
        <ele>2133</ele>
        <time>2021-08-11T13:51:57.958Z</time>
      </trkpt>
      <trkpt lat="46.87438" lon="8.47223">
        <ele>2132</ele>
        <time>2021-08-11T13:52:06.056Z</time>
      </trkpt>
      <trkpt lat="46.87438" lon="8.47222">
        <ele>2131</ele>
        <time>2021-08-11T13:52:07.056Z</time>
      </trkpt>
      <trkpt lat="46.87437" lon="8.47221">
        <ele>2131</ele>
        <time>2021-08-11T13:52:08.055Z</time>
      </trkpt>
      <trkpt lat="46.87437" lon="8.4722">
        <ele>2130</ele>
        <time>2021-08-11T13:52:21.059Z</time>
      </trkpt>
      <trkpt lat="46.87437" lon="8.4722">
        <ele>2129</ele>
        <time>2021-08-11T13:52:22.792Z</time>
      </trkpt>
      <trkpt lat="46.87437" lon="8.47219">
        <ele>2129</ele>
        <time>2021-08-11T13:52:23.793Z</time>
      </trkpt>
      <trkpt lat="46.87436" lon="8.47219">
        <ele>2128</ele>
        <time>2021-08-11T13:52:24.793Z</time>
      </trkpt>
      <trkpt lat="46.87436" lon="8.47218">
        <ele>2128</ele>
        <time>2021-08-11T13:52:38.811Z</time>
      </trkpt>
      <trkpt lat="46.87435" lon="8.47218">
        <ele>2128</ele>
        <time>2021-08-11T13:52:39.811Z</time>
      </trkpt>
      <trkpt lat="46.87434" lon="8.47218">
        <ele>2128</ele>
        <time>2021-08-11T13:52:40.812Z</time>
      </trkpt>
      <trkpt lat="46.87435" lon="8.47221">
        <ele>2129</ele>
        <time>2021-08-11T13:52:41.813Z</time>
      </trkpt>
      <trkpt lat="46.87436" lon="8.47221">
        <ele>2130</ele>
        <time>2021-08-11T13:52:42.813Z</time>
      </trkpt>
      <trkpt lat="46.87436" lon="8.47222">
        <ele>2131</ele>
        <time>2021-08-11T13:52:43.812Z</time>
      </trkpt>
      <trkpt lat="46.87434" lon="8.47218">
        <ele>2134</ele>
        <time>2021-08-11T13:52:44.812Z</time>
      </trkpt>
      <trkpt lat="46.87433" lon="8.47218">
        <ele>2134</ele>
        <time>2021-08-11T13:52:45.813Z</time>
      </trkpt>
      <trkpt lat="46.87432" lon="8.47217">
        <ele>2134</ele>
        <time>2021-08-11T13:52:46.812Z</time>
      </trkpt>
      <trkpt lat="46.87431" lon="8.47216">
        <ele>2135</ele>
        <time>2021-08-11T13:52:47.813Z</time>
      </trkpt>
      <trkpt lat="46.8743" lon="8.47216">
        <ele>2136</ele>
        <time>2021-08-11T13:52:48.813Z</time>
      </trkpt>
      <trkpt lat="46.8743" lon="8.47214">
        <ele>2136</ele>
        <time>2021-08-11T13:52:49.812Z</time>
      </trkpt>
      <trkpt lat="46.8743" lon="8.47213">
        <ele>2137</ele>
        <time>2021-08-11T13:52:50.812Z</time>
      </trkpt>
      <trkpt lat="46.8743" lon="8.47213">
        <ele>2137</ele>
        <time>2021-08-11T13:52:51.812Z</time>
      </trkpt>
      <trkpt lat="46.8743" lon="8.47212">
        <ele>2138</ele>
        <time>2021-08-11T13:52:52.813Z</time>
      </trkpt>
      <trkpt lat="46.8743" lon="8.47212">
        <ele>2138</ele>
        <time>2021-08-11T13:52:53.813Z</time>
      </trkpt>
      <trkpt lat="46.87431" lon="8.47211">
        <ele>2138</ele>
        <time>2021-08-11T13:52:54.812Z</time>
      </trkpt>
      <trkpt lat="46.87432" lon="8.4721">
        <ele>2139</ele>
        <time>2021-08-11T13:52:55.813Z</time>
      </trkpt>
      <trkpt lat="46.87432" lon="8.47209">
        <ele>2139</ele>
        <time>2021-08-11T13:52:56.813Z</time>
      </trkpt>
      <trkpt lat="46.87432" lon="8.47208">
        <ele>2139</ele>
        <time>2021-08-11T13:52:57.813Z</time>
      </trkpt>
      <trkpt lat="46.87432" lon="8.47207">
        <ele>2139</ele>
        <time>2021-08-11T13:52:58.813Z</time>
      </trkpt>
      <trkpt lat="46.87432" lon="8.47207">
        <ele>2140</ele>
        <time>2021-08-11T13:52:59.813Z</time>
      </trkpt>
      <trkpt lat="46.87432" lon="8.47207">
        <ele>2140</ele>
        <time>2021-08-11T13:53:00.813Z</time>
      </trkpt>
      <trkpt lat="46.87431" lon="8.47206">
        <ele>2140</ele>
        <time>2021-08-11T13:53:01.812Z</time>
      </trkpt>
      <trkpt lat="46.87431" lon="8.47206">
        <ele>2140</ele>
        <time>2021-08-11T13:53:02.812Z</time>
      </trkpt>
      <trkpt lat="46.87431" lon="8.47205">
        <ele>2141</ele>
        <time>2021-08-11T13:53:03.813Z</time>
      </trkpt>
      <trkpt lat="46.87431" lon="8.47205">
        <ele>2141</ele>
        <time>2021-08-11T13:53:04.813Z</time>
      </trkpt>
      <trkpt lat="46.87431" lon="8.47204">
        <ele>2142</ele>
        <time>2021-08-11T13:53:05.813Z</time>
      </trkpt>
      <trkpt lat="46.87431" lon="8.47204">
        <ele>2142</ele>
        <time>2021-08-11T13:53:06.813Z</time>
      </trkpt>
      <trkpt lat="46.87431" lon="8.47203">
        <ele>2142</ele>
        <time>2021-08-11T13:53:07.812Z</time>
      </trkpt>
      <trkpt lat="46.87431" lon="8.47203">
        <ele>2142</ele>
        <time>2021-08-11T13:53:08.813Z</time>
      </trkpt>
      <trkpt lat="46.87431" lon="8.47201">
        <ele>2141</ele>
        <time>2021-08-11T13:53:09.814Z</time>
      </trkpt>
      <trkpt lat="46.8743" lon="8.472">
        <ele>2140</ele>
        <time>2021-08-11T13:53:10.813Z</time>
      </trkpt>
      <trkpt lat="46.8743" lon="8.47199">
        <ele>2140</ele>
        <time>2021-08-11T13:53:11.813Z</time>
      </trkpt>
      <trkpt lat="46.8743" lon="8.47198">
        <ele>2140</ele>
        <time>2021-08-11T13:53:12.814Z</time>
      </trkpt>
      <trkpt lat="46.87429" lon="8.47197">
        <ele>2139</ele>
        <time>2021-08-11T13:53:13.813Z</time>
      </trkpt>
      <trkpt lat="46.87429" lon="8.47197">
        <ele>2139</ele>
        <time>2021-08-11T13:53:14.814Z</time>
      </trkpt>
      <trkpt lat="46.87429" lon="8.47196">
        <ele>2139</ele>
        <time>2021-08-11T13:53:15.813Z</time>
      </trkpt>
      <trkpt lat="46.87429" lon="8.47196">
        <ele>2139</ele>
        <time>2021-08-11T13:53:16.814Z</time>
      </trkpt>
      <trkpt lat="46.87429" lon="8.47196">
        <ele>2138</ele>
        <time>2021-08-11T13:53:17.814Z</time>
      </trkpt>
      <trkpt lat="46.87429" lon="8.47196">
        <ele>2138</ele>
        <time>2021-08-11T13:53:18.813Z</time>
      </trkpt>
      <trkpt lat="46.87428" lon="8.47197">
        <ele>2138</ele>
        <time>2021-08-11T13:53:19.813Z</time>
      </trkpt>
      <trkpt lat="46.87429" lon="8.47196">
        <ele>2136</ele>
        <time>2021-08-11T13:53:20.815Z</time>
      </trkpt>
      <trkpt lat="46.87428" lon="8.47196">
        <ele>2137</ele>
        <time>2021-08-11T13:53:21.815Z</time>
      </trkpt>
      <trkpt lat="46.87428" lon="8.47196">
        <ele>2137</ele>
        <time>2021-08-11T13:53:22.814Z</time>
      </trkpt>
      <trkpt lat="46.87428" lon="8.47195">
        <ele>2138</ele>
        <time>2021-08-11T13:53:23.815Z</time>
      </trkpt>
      <trkpt lat="46.87427" lon="8.47195">
        <ele>2138</ele>
        <time>2021-08-11T13:53:24.815Z</time>
      </trkpt>
      <trkpt lat="46.87427" lon="8.47195">
        <ele>2138</ele>
        <time>2021-08-11T13:53:25.815Z</time>
      </trkpt>
      <trkpt lat="46.87427" lon="8.47195">
        <ele>2138</ele>
        <time>2021-08-11T13:53:26.814Z</time>
      </trkpt>
      <trkpt lat="46.87426" lon="8.47194">
        <ele>2138</ele>
        <time>2021-08-11T13:53:27.814Z</time>
      </trkpt>
      <trkpt lat="46.87426" lon="8.47194">
        <ele>2139</ele>
        <time>2021-08-11T13:53:28.815Z</time>
      </trkpt>
      <trkpt lat="46.87425" lon="8.47194">
        <ele>2139</ele>
        <time>2021-08-11T13:53:29.815Z</time>
      </trkpt>
      <trkpt lat="46.87425" lon="8.47193">
        <ele>2139</ele>
        <time>2021-08-11T13:53:30.814Z</time>
      </trkpt>
      <trkpt lat="46.87424" lon="8.47192">
        <ele>2139</ele>
        <time>2021-08-11T13:53:31.815Z</time>
      </trkpt>
      <trkpt lat="46.87424" lon="8.47192">
        <ele>2139</ele>
        <time>2021-08-11T13:53:32.815Z</time>
      </trkpt>
      <trkpt lat="46.87424" lon="8.47191">
        <ele>2139</ele>
        <time>2021-08-11T13:53:33.815Z</time>
      </trkpt>
      <trkpt lat="46.87424" lon="8.47189">
        <ele>2140</ele>
        <time>2021-08-11T13:53:34.815Z</time>
      </trkpt>
      <trkpt lat="46.87424" lon="8.47188">
        <ele>2140</ele>
        <time>2021-08-11T13:53:35.815Z</time>
      </trkpt>
      <trkpt lat="46.87425" lon="8.47187">
        <ele>2140</ele>
        <time>2021-08-11T13:53:36.815Z</time>
      </trkpt>
      <trkpt lat="46.87425" lon="8.47187">
        <ele>2140</ele>
        <time>2021-08-11T13:53:37.815Z</time>
      </trkpt>
      <trkpt lat="46.87425" lon="8.47187">
        <ele>2141</ele>
        <time>2021-08-11T13:53:38.815Z</time>
      </trkpt>
      <trkpt lat="46.87424" lon="8.47185">
        <ele>2141</ele>
        <time>2021-08-11T13:53:39.815Z</time>
      </trkpt>
      <trkpt lat="46.87424" lon="8.47185">
        <ele>2142</ele>
        <time>2021-08-11T13:53:40.815Z</time>
      </trkpt>
      <trkpt lat="46.87424" lon="8.47185">
        <ele>2143</ele>
        <time>2021-08-11T13:53:41.815Z</time>
      </trkpt>
      <trkpt lat="46.87424" lon="8.47184">
        <ele>2143</ele>
        <time>2021-08-11T13:53:42.815Z</time>
      </trkpt>
      <trkpt lat="46.87423" lon="8.47184">
        <ele>2144</ele>
        <time>2021-08-11T13:53:43.815Z</time>
      </trkpt>
      <trkpt lat="46.87423" lon="8.47183">
        <ele>2145</ele>
        <time>2021-08-11T13:53:44.815Z</time>
      </trkpt>
      <trkpt lat="46.87423" lon="8.47183">
        <ele>2146</ele>
        <time>2021-08-11T13:53:45.815Z</time>
      </trkpt>
      <trkpt lat="46.87423" lon="8.47183">
        <ele>2146</ele>
        <time>2021-08-11T13:53:46.814Z</time>
      </trkpt>
      <trkpt lat="46.87424" lon="8.47182">
        <ele>2147</ele>
        <time>2021-08-11T13:53:47.815Z</time>
      </trkpt>
      <trkpt lat="46.87424" lon="8.47183">
        <ele>2147</ele>
        <time>2021-08-11T13:53:48.815Z</time>
      </trkpt>
      <trkpt lat="46.87422" lon="8.47182">
        <ele>2150</ele>
        <time>2021-08-11T13:53:49.816Z</time>
      </trkpt>
      <trkpt lat="46.87424" lon="8.47184">
        <ele>2151</ele>
        <time>2021-08-11T13:53:50.816Z</time>
      </trkpt>
      <trkpt lat="46.87424" lon="8.47184">
        <ele>2151</ele>
        <time>2021-08-11T13:53:51.816Z</time>
      </trkpt>
      <trkpt lat="46.87424" lon="8.47182">
        <ele>2152</ele>
        <time>2021-08-11T13:53:52.815Z</time>
      </trkpt>
      <trkpt lat="46.87424" lon="8.47181">
        <ele>2152</ele>
        <time>2021-08-11T13:53:53.815Z</time>
      </trkpt>
      <trkpt lat="46.87424" lon="8.4718">
        <ele>2152</ele>
        <time>2021-08-11T13:53:54.816Z</time>
      </trkpt>
      <trkpt lat="46.87424" lon="8.47178">
        <ele>2153</ele>
        <time>2021-08-11T13:53:55.815Z</time>
      </trkpt>
      <trkpt lat="46.87424" lon="8.47177">
        <ele>2153</ele>
        <time>2021-08-11T13:53:56.815Z</time>
      </trkpt>
      <trkpt lat="46.87423" lon="8.47177">
        <ele>2153</ele>
        <time>2021-08-11T13:53:57.816Z</time>
      </trkpt>
      <trkpt lat="46.87423" lon="8.47176">
        <ele>2155</ele>
        <time>2021-08-11T13:53:58.817Z</time>
      </trkpt>
      <trkpt lat="46.87423" lon="8.47176">
        <ele>2156</ele>
        <time>2021-08-11T13:53:59.817Z</time>
      </trkpt>
      <trkpt lat="46.87422" lon="8.47175">
        <ele>2158</ele>
        <time>2021-08-11T13:54:00.817Z</time>
      </trkpt>
      <trkpt lat="46.87422" lon="8.47175">
        <ele>2158</ele>
        <time>2021-08-11T13:54:01.817Z</time>
      </trkpt>
      <trkpt lat="46.87422" lon="8.47174">
        <ele>2159</ele>
        <time>2021-08-11T13:54:02.816Z</time>
      </trkpt>
      <trkpt lat="46.87422" lon="8.47173">
        <ele>2160</ele>
        <time>2021-08-11T13:54:03.817Z</time>
      </trkpt>
      <trkpt lat="46.87421" lon="8.47172">
        <ele>2160</ele>
        <time>2021-08-11T13:54:04.817Z</time>
      </trkpt>
      <trkpt lat="46.87421" lon="8.47171">
        <ele>2160</ele>
        <time>2021-08-11T13:54:05.816Z</time>
      </trkpt>
      <trkpt lat="46.87421" lon="8.47171">
        <ele>2160</ele>
        <time>2021-08-11T13:54:06.817Z</time>
      </trkpt>
      <trkpt lat="46.87421" lon="8.4717">
        <ele>2160</ele>
        <time>2021-08-11T13:54:07.817Z</time>
      </trkpt>
      <trkpt lat="46.87421" lon="8.4717">
        <ele>2159</ele>
        <time>2021-08-11T13:54:08.816Z</time>
      </trkpt>
      <trkpt lat="46.87421" lon="8.47169">
        <ele>2159</ele>
        <time>2021-08-11T13:54:09.817Z</time>
      </trkpt>
      <trkpt lat="46.87421" lon="8.47169">
        <ele>2159</ele>
        <time>2021-08-11T13:54:10.817Z</time>
      </trkpt>
      <trkpt lat="46.8742" lon="8.47169">
        <ele>2158</ele>
        <time>2021-08-11T13:54:11.816Z</time>
      </trkpt>
      <trkpt lat="46.8742" lon="8.47168">
        <ele>2158</ele>
        <time>2021-08-11T13:54:12.817Z</time>
      </trkpt>
      <trkpt lat="46.8742" lon="8.47168">
        <ele>2157</ele>
        <time>2021-08-11T13:54:13.817Z</time>
      </trkpt>
      <trkpt lat="46.8742" lon="8.47167">
        <ele>2157</ele>
        <time>2021-08-11T13:54:14.816Z</time>
      </trkpt>
      <trkpt lat="46.8742" lon="8.47167">
        <ele>2155</ele>
        <time>2021-08-11T13:54:15.816Z</time>
      </trkpt>
      <trkpt lat="46.8742" lon="8.47167">
        <ele>2155</ele>
        <time>2021-08-11T13:54:16.817Z</time>
      </trkpt>
      <trkpt lat="46.8742" lon="8.47166">
        <ele>2155</ele>
        <time>2021-08-11T13:54:17.816Z</time>
      </trkpt>
      <trkpt lat="46.87419" lon="8.47166">
        <ele>2155</ele>
        <time>2021-08-11T13:54:18.816Z</time>
      </trkpt>
      <trkpt lat="46.87418" lon="8.47165">
        <ele>2155</ele>
        <time>2021-08-11T13:54:19.817Z</time>
      </trkpt>
      <trkpt lat="46.87417" lon="8.47164">
        <ele>2155</ele>
        <time>2021-08-11T13:54:20.817Z</time>
      </trkpt>
      <trkpt lat="46.87416" lon="8.47163">
        <ele>2155</ele>
        <time>2021-08-11T13:54:21.817Z</time>
      </trkpt>
      <trkpt lat="46.87416" lon="8.47162">
        <ele>2155</ele>
        <time>2021-08-11T13:54:22.817Z</time>
      </trkpt>
      <trkpt lat="46.87416" lon="8.47161">
        <ele>2155</ele>
        <time>2021-08-11T13:54:23.817Z</time>
      </trkpt>
      <trkpt lat="46.87416" lon="8.4716">
        <ele>2155</ele>
        <time>2021-08-11T13:54:24.816Z</time>
      </trkpt>
      <trkpt lat="46.87416" lon="8.4716">
        <ele>2155</ele>
        <time>2021-08-11T13:54:25.817Z</time>
      </trkpt>
      <trkpt lat="46.87415" lon="8.47159">
        <ele>2154</ele>
        <time>2021-08-11T13:54:26.817Z</time>
      </trkpt>
      <trkpt lat="46.87415" lon="8.47158">
        <ele>2155</ele>
        <time>2021-08-11T13:54:27.816Z</time>
      </trkpt>
      <trkpt lat="46.87414" lon="8.47157">
        <ele>2155</ele>
        <time>2021-08-11T13:54:28.817Z</time>
      </trkpt>
      <trkpt lat="46.87414" lon="8.47156">
        <ele>2155</ele>
        <time>2021-08-11T13:54:29.817Z</time>
      </trkpt>
      <trkpt lat="46.87414" lon="8.47156">
        <ele>2155</ele>
        <time>2021-08-11T13:54:30.816Z</time>
      </trkpt>
      <trkpt lat="46.87414" lon="8.47156">
        <ele>2155</ele>
        <time>2021-08-11T13:54:31.817Z</time>
      </trkpt>
      <trkpt lat="46.87414" lon="8.47156">
        <ele>2155</ele>
        <time>2021-08-11T13:54:32.816Z</time>
      </trkpt>
      <trkpt lat="46.87414" lon="8.47156">
        <ele>2156</ele>
        <time>2021-08-11T13:54:33.817Z</time>
      </trkpt>
      <trkpt lat="46.87413" lon="8.47155">
        <ele>2156</ele>
        <time>2021-08-11T13:54:34.817Z</time>
      </trkpt>
      <trkpt lat="46.87413" lon="8.47155">
        <ele>2156</ele>
        <time>2021-08-11T13:54:35.816Z</time>
      </trkpt>
      <trkpt lat="46.87413" lon="8.47155">
        <ele>2156</ele>
        <time>2021-08-11T13:54:36.816Z</time>
      </trkpt>
      <trkpt lat="46.87413" lon="8.47154">
        <ele>2156</ele>
        <time>2021-08-11T13:54:37.817Z</time>
      </trkpt>
      <trkpt lat="46.87413" lon="8.47154">
        <ele>2155</ele>
        <time>2021-08-11T13:54:38.817Z</time>
      </trkpt>
      <trkpt lat="46.87413" lon="8.47154">
        <ele>2155</ele>
        <time>2021-08-11T13:54:39.816Z</time>
      </trkpt>
      <trkpt lat="46.87413" lon="8.47153">
        <ele>2155</ele>
        <time>2021-08-11T13:54:40.816Z</time>
      </trkpt>
      <trkpt lat="46.87413" lon="8.47153">
        <ele>2155</ele>
        <time>2021-08-11T13:54:41.817Z</time>
      </trkpt>
      <trkpt lat="46.87412" lon="8.47152">
        <ele>2156</ele>
        <time>2021-08-11T13:54:42.817Z</time>
      </trkpt>
      <trkpt lat="46.87412" lon="8.47152">
        <ele>2156</ele>
        <time>2021-08-11T13:54:43.816Z</time>
      </trkpt>
      <trkpt lat="46.87412" lon="8.47151">
        <ele>2156</ele>
        <time>2021-08-11T13:54:44.816Z</time>
      </trkpt>
      <trkpt lat="46.87412" lon="8.47152">
        <ele>2153</ele>
        <time>2021-08-11T13:54:45.816Z</time>
      </trkpt>
      <trkpt lat="46.87412" lon="8.47152">
        <ele>2153</ele>
        <time>2021-08-11T13:54:46.816Z</time>
      </trkpt>
      <trkpt lat="46.87413" lon="8.4715">
        <ele>2153</ele>
        <time>2021-08-11T13:54:47.817Z</time>
      </trkpt>
      <trkpt lat="46.87413" lon="8.47149">
        <ele>2153</ele>
        <time>2021-08-11T13:54:48.816Z</time>
      </trkpt>
      <trkpt lat="46.87413" lon="8.47149">
        <ele>2153</ele>
        <time>2021-08-11T13:54:49.816Z</time>
      </trkpt>
      <trkpt lat="46.87413" lon="8.47147">
        <ele>2153</ele>
        <time>2021-08-11T13:54:50.817Z</time>
      </trkpt>
      <trkpt lat="46.87413" lon="8.47146">
        <ele>2153</ele>
        <time>2021-08-11T13:54:51.816Z</time>
      </trkpt>
      <trkpt lat="46.87413" lon="8.47145">
        <ele>2153</ele>
        <time>2021-08-11T13:54:52.816Z</time>
      </trkpt>
      <trkpt lat="46.87413" lon="8.47144">
        <ele>2154</ele>
        <time>2021-08-11T13:54:53.817Z</time>
      </trkpt>
      <trkpt lat="46.87413" lon="8.47143">
        <ele>2154</ele>
        <time>2021-08-11T13:54:54.816Z</time>
      </trkpt>
      <trkpt lat="46.87413" lon="8.47141">
        <ele>2155</ele>
        <time>2021-08-11T13:54:55.817Z</time>
      </trkpt>
      <trkpt lat="46.87413" lon="8.4714">
        <ele>2156</ele>
        <time>2021-08-11T13:54:56.817Z</time>
      </trkpt>
      <trkpt lat="46.87413" lon="8.47139">
        <ele>2156</ele>
        <time>2021-08-11T13:54:57.816Z</time>
      </trkpt>
      <trkpt lat="46.87413" lon="8.47137">
        <ele>2157</ele>
        <time>2021-08-11T13:54:58.817Z</time>
      </trkpt>
      <trkpt lat="46.87413" lon="8.47137">
        <ele>2157</ele>
        <time>2021-08-11T13:54:59.817Z</time>
      </trkpt>
      <trkpt lat="46.87412" lon="8.47137">
        <ele>2157</ele>
        <time>2021-08-11T13:55:00.817Z</time>
      </trkpt>
      <trkpt lat="46.87411" lon="8.47137">
        <ele>2157</ele>
        <time>2021-08-11T13:55:01.817Z</time>
      </trkpt>
      <trkpt lat="46.87411" lon="8.47137">
        <ele>2157</ele>
        <time>2021-08-11T13:55:02.817Z</time>
      </trkpt>
      <trkpt lat="46.87411" lon="8.47136">
        <ele>2157</ele>
        <time>2021-08-11T13:55:03.817Z</time>
      </trkpt>
      <trkpt lat="46.87411" lon="8.47135">
        <ele>2157</ele>
        <time>2021-08-11T13:55:04.817Z</time>
      </trkpt>
      <trkpt lat="46.87412" lon="8.47134">
        <ele>2156</ele>
        <time>2021-08-11T13:55:05.817Z</time>
      </trkpt>
      <trkpt lat="46.87412" lon="8.47133">
        <ele>2156</ele>
        <time>2021-08-11T13:55:06.817Z</time>
      </trkpt>
      <trkpt lat="46.87412" lon="8.47132">
        <ele>2156</ele>
        <time>2021-08-11T13:55:07.817Z</time>
      </trkpt>
      <trkpt lat="46.87411" lon="8.47131">
        <ele>2156</ele>
        <time>2021-08-11T13:55:08.817Z</time>
      </trkpt>
      <trkpt lat="46.87411" lon="8.4713">
        <ele>2156</ele>
        <time>2021-08-11T13:55:09.817Z</time>
      </trkpt>
      <trkpt lat="46.8741" lon="8.47129">
        <ele>2157</ele>
        <time>2021-08-11T13:55:10.817Z</time>
      </trkpt>
      <trkpt lat="46.87409" lon="8.4713">
        <ele>2157</ele>
        <time>2021-08-11T13:55:11.817Z</time>
      </trkpt>
      <trkpt lat="46.87408" lon="8.47131">
        <ele>2158</ele>
        <time>2021-08-11T13:55:12.816Z</time>
      </trkpt>
      <trkpt lat="46.87408" lon="8.47131">
        <ele>2158</ele>
        <time>2021-08-11T13:55:13.817Z</time>
      </trkpt>
      <trkpt lat="46.87407" lon="8.47132">
        <ele>2159</ele>
        <time>2021-08-11T13:55:14.817Z</time>
      </trkpt>
      <trkpt lat="46.87407" lon="8.47133">
        <ele>2159</ele>
        <time>2021-08-11T13:55:15.817Z</time>
      </trkpt>
      <trkpt lat="46.87407" lon="8.47133">
        <ele>2159</ele>
        <time>2021-08-11T13:55:16.817Z</time>
      </trkpt>
      <trkpt lat="46.87405" lon="8.47133">
        <ele>2160</ele>
        <time>2021-08-11T13:55:17.817Z</time>
      </trkpt>
      <trkpt lat="46.87405" lon="8.47133">
        <ele>2161</ele>
        <time>2021-08-11T13:55:18.817Z</time>
      </trkpt>
      <trkpt lat="46.87406" lon="8.47133">
        <ele>2161</ele>
        <time>2021-08-11T13:55:19.817Z</time>
      </trkpt>
      <trkpt lat="46.87405" lon="8.47132">
        <ele>2161</ele>
        <time>2021-08-11T13:55:20.818Z</time>
      </trkpt>
      <trkpt lat="46.87405" lon="8.47132">
        <ele>2161</ele>
        <time>2021-08-11T13:55:21.817Z</time>
      </trkpt>
      <trkpt lat="46.87404" lon="8.47132">
        <ele>2162</ele>
        <time>2021-08-11T13:55:22.818Z</time>
      </trkpt>
      <trkpt lat="46.87404" lon="8.47132">
        <ele>2161</ele>
        <time>2021-08-11T13:55:23.818Z</time>
      </trkpt>
      <trkpt lat="46.87404" lon="8.47132">
        <ele>2161</ele>
        <time>2021-08-11T13:55:24.818Z</time>
      </trkpt>
      <trkpt lat="46.87403" lon="8.47132">
        <ele>2159</ele>
        <time>2021-08-11T13:55:25.819Z</time>
      </trkpt>
      <trkpt lat="46.87401" lon="8.47131">
        <ele>2158</ele>
        <time>2021-08-11T13:55:26.820Z</time>
      </trkpt>
      <trkpt lat="46.87401" lon="8.4713">
        <ele>2159</ele>
        <time>2021-08-11T13:55:27.819Z</time>
      </trkpt>
      <trkpt lat="46.87399" lon="8.47127">
        <ele>2162</ele>
        <time>2021-08-11T13:55:28.820Z</time>
      </trkpt>
      <trkpt lat="46.87399" lon="8.47126">
        <ele>2163</ele>
        <time>2021-08-11T13:55:29.819Z</time>
      </trkpt>
      <trkpt lat="46.87399" lon="8.47125">
        <ele>2163</ele>
        <time>2021-08-11T13:55:30.820Z</time>
      </trkpt>
      <trkpt lat="46.87399" lon="8.47125">
        <ele>2164</ele>
        <time>2021-08-11T13:55:31.819Z</time>
      </trkpt>
      <trkpt lat="46.87399" lon="8.47124">
        <ele>2164</ele>
        <time>2021-08-11T13:55:32.819Z</time>
      </trkpt>
      <trkpt lat="46.87399" lon="8.47124">
        <ele>2165</ele>
        <time>2021-08-11T13:55:33.820Z</time>
      </trkpt>
      <trkpt lat="46.874" lon="8.47125">
        <ele>2165</ele>
        <time>2021-08-11T13:55:34.820Z</time>
      </trkpt>
      <trkpt lat="46.874" lon="8.47124">
        <ele>2164</ele>
        <time>2021-08-11T13:55:35.820Z</time>
      </trkpt>
      <trkpt lat="46.874" lon="8.47124">
        <ele>2164</ele>
        <time>2021-08-11T13:55:36.820Z</time>
      </trkpt>
      <trkpt lat="46.87401" lon="8.47123">
        <ele>2164</ele>
        <time>2021-08-11T13:55:38.949Z</time>
      </trkpt>
      <trkpt lat="46.87401" lon="8.47123">
        <ele>2163</ele>
        <time>2021-08-11T13:55:39.948Z</time>
      </trkpt>
      <trkpt lat="46.874" lon="8.47122">
        <ele>2163</ele>
        <time>2021-08-11T13:55:40.949Z</time>
      </trkpt>
      <trkpt lat="46.874" lon="8.47121">
        <ele>2163</ele>
        <time>2021-08-11T13:55:41.949Z</time>
      </trkpt>
      <trkpt lat="46.874" lon="8.4712">
        <ele>2163</ele>
        <time>2021-08-11T13:55:42.948Z</time>
      </trkpt>
      <trkpt lat="46.87399" lon="8.47118">
        <ele>2164</ele>
        <time>2021-08-11T13:55:43.948Z</time>
      </trkpt>
      <trkpt lat="46.87399" lon="8.47118">
        <ele>2164</ele>
        <time>2021-08-11T13:55:44.949Z</time>
      </trkpt>
      <trkpt lat="46.87399" lon="8.47118">
        <ele>2164</ele>
        <time>2021-08-11T13:55:45.948Z</time>
      </trkpt>
      <trkpt lat="46.87399" lon="8.47118">
        <ele>2165</ele>
        <time>2021-08-11T13:55:46.949Z</time>
      </trkpt>
      <trkpt lat="46.87399" lon="8.47117">
        <ele>2165</ele>
        <time>2021-08-11T13:55:47.949Z</time>
      </trkpt>
      <trkpt lat="46.87399" lon="8.47116">
        <ele>2165</ele>
        <time>2021-08-11T13:55:48.949Z</time>
      </trkpt>
      <trkpt lat="46.87398" lon="8.47115">
        <ele>2165</ele>
        <time>2021-08-11T13:55:49.949Z</time>
      </trkpt>
      <trkpt lat="46.87398" lon="8.47115">
        <ele>2165</ele>
        <time>2021-08-11T13:55:50.949Z</time>
      </trkpt>
      <trkpt lat="46.87398" lon="8.47114">
        <ele>2165</ele>
        <time>2021-08-11T13:55:51.948Z</time>
      </trkpt>
      <trkpt lat="46.87397" lon="8.47113">
        <ele>2165</ele>
        <time>2021-08-11T13:55:52.949Z</time>
      </trkpt>
      <trkpt lat="46.87396" lon="8.47111">
        <ele>2166</ele>
        <time>2021-08-11T13:55:53.949Z</time>
      </trkpt>
      <trkpt lat="46.87396" lon="8.4711">
        <ele>2167</ele>
        <time>2021-08-11T13:55:54.948Z</time>
      </trkpt>
      <trkpt lat="46.87396" lon="8.47109">
        <ele>2168</ele>
        <time>2021-08-11T13:55:55.949Z</time>
      </trkpt>
      <trkpt lat="46.87395" lon="8.47109">
        <ele>2169</ele>
        <time>2021-08-11T13:55:56.949Z</time>
      </trkpt>
      <trkpt lat="46.87395" lon="8.47109">
        <ele>2170</ele>
        <time>2021-08-11T13:55:57.948Z</time>
      </trkpt>
      <trkpt lat="46.87395" lon="8.47109">
        <ele>2170</ele>
        <time>2021-08-11T13:55:58.948Z</time>
      </trkpt>
      <trkpt lat="46.87394" lon="8.47109">
        <ele>2170</ele>
        <time>2021-08-11T13:55:59.948Z</time>
      </trkpt>
      <trkpt lat="46.87394" lon="8.47108">
        <ele>2169</ele>
        <time>2021-08-11T13:56:00.949Z</time>
      </trkpt>
      <trkpt lat="46.87394" lon="8.47108">
        <ele>2169</ele>
        <time>2021-08-11T13:56:01.948Z</time>
      </trkpt>
      <trkpt lat="46.87393" lon="8.47107">
        <ele>2169</ele>
        <time>2021-08-11T13:56:02.949Z</time>
      </trkpt>
      <trkpt lat="46.87393" lon="8.47106">
        <ele>2168</ele>
        <time>2021-08-11T13:56:03.949Z</time>
      </trkpt>
      <trkpt lat="46.87393" lon="8.47106">
        <ele>2168</ele>
        <time>2021-08-11T13:56:04.948Z</time>
      </trkpt>
      <trkpt lat="46.87393" lon="8.47106">
        <ele>2168</ele>
        <time>2021-08-11T13:56:05.949Z</time>
      </trkpt>
      <trkpt lat="46.87392" lon="8.47105">
        <ele>2167</ele>
        <time>2021-08-11T13:56:06.949Z</time>
      </trkpt>
      <trkpt lat="46.87392" lon="8.47104">
        <ele>2167</ele>
        <time>2021-08-11T13:56:07.948Z</time>
      </trkpt>
      <trkpt lat="46.87392" lon="8.47104">
        <ele>2166</ele>
        <time>2021-08-11T13:56:08.949Z</time>
      </trkpt>
      <trkpt lat="46.87392" lon="8.47103">
        <ele>2166</ele>
        <time>2021-08-11T13:56:09.949Z</time>
      </trkpt>
      <trkpt lat="46.87392" lon="8.47103">
        <ele>2165</ele>
        <time>2021-08-11T13:56:10.948Z</time>
      </trkpt>
      <trkpt lat="46.87391" lon="8.47102">
        <ele>2164</ele>
        <time>2021-08-11T13:56:11.949Z</time>
      </trkpt>
      <trkpt lat="46.87391" lon="8.47101">
        <ele>2164</ele>
        <time>2021-08-11T13:56:12.949Z</time>
      </trkpt>
      <trkpt lat="46.8739" lon="8.47101">
        <ele>2164</ele>
        <time>2021-08-11T13:56:13.948Z</time>
      </trkpt>
      <trkpt lat="46.8739" lon="8.47101">
        <ele>2164</ele>
        <time>2021-08-11T13:56:14.949Z</time>
      </trkpt>
      <trkpt lat="46.87389" lon="8.47102">
        <ele>2165</ele>
        <time>2021-08-11T13:56:15.949Z</time>
      </trkpt>
      <trkpt lat="46.87389" lon="8.47103">
        <ele>2165</ele>
        <time>2021-08-11T13:56:16.948Z</time>
      </trkpt>
      <trkpt lat="46.87389" lon="8.47103">
        <ele>2166</ele>
        <time>2021-08-11T13:56:17.949Z</time>
      </trkpt>
      <trkpt lat="46.87389" lon="8.47103">
        <ele>2166</ele>
        <time>2021-08-11T13:56:18.949Z</time>
      </trkpt>
      <trkpt lat="46.87388" lon="8.47102">
        <ele>2169</ele>
        <time>2021-08-11T13:56:19.948Z</time>
      </trkpt>
      <trkpt lat="46.87387" lon="8.47102">
        <ele>2170</ele>
        <time>2021-08-11T13:56:20.949Z</time>
      </trkpt>
      <trkpt lat="46.87387" lon="8.47102">
        <ele>2170</ele>
        <time>2021-08-11T13:56:21.949Z</time>
      </trkpt>
      <trkpt lat="46.87387" lon="8.47101">
        <ele>2171</ele>
        <time>2021-08-11T13:56:22.949Z</time>
      </trkpt>
      <trkpt lat="46.87386" lon="8.47101">
        <ele>2172</ele>
        <time>2021-08-11T13:56:23.949Z</time>
      </trkpt>
      <trkpt lat="46.87387" lon="8.47108">
        <ele>2172</ele>
        <time>2021-08-11T13:56:24.949Z</time>
      </trkpt>
      <trkpt lat="46.87386" lon="8.47107">
        <ele>2171</ele>
        <time>2021-08-11T13:56:25.948Z</time>
      </trkpt>
      <trkpt lat="46.87386" lon="8.47106">
        <ele>2170</ele>
        <time>2021-08-11T13:56:26.948Z</time>
      </trkpt>
      <trkpt lat="46.87386" lon="8.47105">
        <ele>2169</ele>
        <time>2021-08-11T13:56:27.949Z</time>
      </trkpt>
      <trkpt lat="46.87386" lon="8.47103">
        <ele>2169</ele>
        <time>2021-08-11T13:56:28.950Z</time>
      </trkpt>
      <trkpt lat="46.87386" lon="8.47103">
        <ele>2169</ele>
        <time>2021-08-11T13:56:29.949Z</time>
      </trkpt>
      <trkpt lat="46.87386" lon="8.47103">
        <ele>2169</ele>
        <time>2021-08-11T13:56:30.949Z</time>
      </trkpt>
      <trkpt lat="46.87387" lon="8.47106">
        <ele>2162</ele>
        <time>2021-08-11T13:56:31.950Z</time>
      </trkpt>
      <trkpt lat="46.87387" lon="8.47105">
        <ele>2162</ele>
        <time>2021-08-11T13:56:32.951Z</time>
      </trkpt>
      <trkpt lat="46.87388" lon="8.47103">
        <ele>2161</ele>
        <time>2021-08-11T13:56:33.951Z</time>
      </trkpt>
      <trkpt lat="46.87389" lon="8.47102">
        <ele>2161</ele>
        <time>2021-08-11T13:56:34.951Z</time>
      </trkpt>
      <trkpt lat="46.8739" lon="8.47102">
        <ele>2160</ele>
        <time>2021-08-11T13:56:35.951Z</time>
      </trkpt>
      <trkpt lat="46.8739" lon="8.47102">
        <ele>2160</ele>
        <time>2021-08-11T13:56:36.951Z</time>
      </trkpt>
      <trkpt lat="46.87389" lon="8.47101">
        <ele>2161</ele>
        <time>2021-08-11T13:56:37.951Z</time>
      </trkpt>
      <trkpt lat="46.87388" lon="8.47101">
        <ele>2161</ele>
        <time>2021-08-11T13:56:38.951Z</time>
      </trkpt>
      <trkpt lat="46.87388" lon="8.47101">
        <ele>2162</ele>
        <time>2021-08-11T13:56:39.950Z</time>
      </trkpt>
      <trkpt lat="46.87388" lon="8.47102">
        <ele>2164</ele>
        <time>2021-08-11T13:56:40.950Z</time>
      </trkpt>
      <trkpt lat="46.87388" lon="8.47103">
        <ele>2166</ele>
        <time>2021-08-11T13:56:41.951Z</time>
      </trkpt>
      <trkpt lat="46.87388" lon="8.47103">
        <ele>2166</ele>
        <time>2021-08-11T13:56:42.950Z</time>
      </trkpt>
      <trkpt lat="46.87388" lon="8.47104">
        <ele>2165</ele>
        <time>2021-08-11T13:56:43.950Z</time>
      </trkpt>
      <trkpt lat="46.87389" lon="8.47105">
        <ele>2171</ele>
        <time>2021-08-11T13:56:44.951Z</time>
      </trkpt>
      <trkpt lat="46.87389" lon="8.47105">
        <ele>2171</ele>
        <time>2021-08-11T13:56:45.951Z</time>
      </trkpt>
      <trkpt lat="46.87389" lon="8.47105">
        <ele>2171</ele>
        <time>2021-08-11T13:56:46.952Z</time>
      </trkpt>
      <trkpt lat="46.8739" lon="8.47105">
        <ele>2171</ele>
        <time>2021-08-11T13:56:47.951Z</time>
      </trkpt>
      <trkpt lat="46.87389" lon="8.47106">
        <ele>2158</ele>
        <time>2021-08-11T13:56:48.952Z</time>
      </trkpt>
      <trkpt lat="46.87389" lon="8.47106">
        <ele>2159</ele>
        <time>2021-08-11T13:56:49.951Z</time>
      </trkpt>
      <trkpt lat="46.87389" lon="8.47106">
        <ele>2159</ele>
        <time>2021-08-11T13:56:50.952Z</time>
      </trkpt>
      <trkpt lat="46.87388" lon="8.47106">
        <ele>2159</ele>
        <time>2021-08-11T13:56:51.951Z</time>
      </trkpt>
      <trkpt lat="46.87388" lon="8.47106">
        <ele>2159</ele>
        <time>2021-08-11T13:56:52.952Z</time>
      </trkpt>
      <trkpt lat="46.87388" lon="8.47105">
        <ele>2161</ele>
        <time>2021-08-11T13:56:53.952Z</time>
      </trkpt>
      <trkpt lat="46.87387" lon="8.47104">
        <ele>2165</ele>
        <time>2021-08-11T13:56:54.953Z</time>
      </trkpt>
      <trkpt lat="46.87387" lon="8.47103">
        <ele>2166</ele>
        <time>2021-08-11T13:56:55.953Z</time>
      </trkpt>
      <trkpt lat="46.87387" lon="8.47102">
        <ele>2166</ele>
        <time>2021-08-11T13:56:56.952Z</time>
      </trkpt>
      <trkpt lat="46.87386" lon="8.47101">
        <ele>2166</ele>
        <time>2021-08-11T13:56:57.953Z</time>
      </trkpt>
      <trkpt lat="46.87386" lon="8.471">
        <ele>2166</ele>
        <time>2021-08-11T13:56:58.953Z</time>
      </trkpt>
      <trkpt lat="46.87386" lon="8.47099">
        <ele>2166</ele>
        <time>2021-08-11T13:56:59.953Z</time>
      </trkpt>
      <trkpt lat="46.87385" lon="8.47098">
        <ele>2166</ele>
        <time>2021-08-11T13:57:00.953Z</time>
      </trkpt>
      <trkpt lat="46.87385" lon="8.47097">
        <ele>2166</ele>
        <time>2021-08-11T13:57:01.953Z</time>
      </trkpt>
      <trkpt lat="46.87384" lon="8.47095">
        <ele>2166</ele>
        <time>2021-08-11T13:57:02.953Z</time>
      </trkpt>
      <trkpt lat="46.87384" lon="8.47094">
        <ele>2166</ele>
        <time>2021-08-11T13:57:03.953Z</time>
      </trkpt>
      <trkpt lat="46.87383" lon="8.47094">
        <ele>2166</ele>
        <time>2021-08-11T13:57:04.953Z</time>
      </trkpt>
      <trkpt lat="46.87382" lon="8.47094">
        <ele>2165</ele>
        <time>2021-08-11T13:57:05.953Z</time>
      </trkpt>
      <trkpt lat="46.87381" lon="8.47094">
        <ele>2165</ele>
        <time>2021-08-11T13:57:06.953Z</time>
      </trkpt>
      <trkpt lat="46.87381" lon="8.47093">
        <ele>2165</ele>
        <time>2021-08-11T13:57:07.952Z</time>
      </trkpt>
      <trkpt lat="46.8738" lon="8.47092">
        <ele>2165</ele>
        <time>2021-08-11T13:57:08.953Z</time>
      </trkpt>
      <trkpt lat="46.87379" lon="8.47092">
        <ele>2164</ele>
        <time>2021-08-11T13:57:09.953Z</time>
      </trkpt>
      <trkpt lat="46.87379" lon="8.47091">
        <ele>2164</ele>
        <time>2021-08-11T13:57:10.953Z</time>
      </trkpt>
      <trkpt lat="46.87378" lon="8.4709">
        <ele>2164</ele>
        <time>2021-08-11T13:57:11.953Z</time>
      </trkpt>
      <trkpt lat="46.87376" lon="8.4709">
        <ele>2164</ele>
        <time>2021-08-11T13:57:12.952Z</time>
      </trkpt>
      <trkpt lat="46.87375" lon="8.4709">
        <ele>2164</ele>
        <time>2021-08-11T13:57:13.953Z</time>
      </trkpt>
      <trkpt lat="46.87374" lon="8.4709">
        <ele>2165</ele>
        <time>2021-08-11T13:57:14.953Z</time>
      </trkpt>
      <trkpt lat="46.87373" lon="8.47091">
        <ele>2166</ele>
        <time>2021-08-11T13:57:15.953Z</time>
      </trkpt>
      <trkpt lat="46.87372" lon="8.47091">
        <ele>2166</ele>
        <time>2021-08-11T13:57:16.953Z</time>
      </trkpt>
      <trkpt lat="46.87372" lon="8.47091">
        <ele>2167</ele>
        <time>2021-08-11T13:57:17.953Z</time>
      </trkpt>
      <trkpt lat="46.87371" lon="8.4709">
        <ele>2167</ele>
        <time>2021-08-11T13:57:18.952Z</time>
      </trkpt>
      <trkpt lat="46.87371" lon="8.4709">
        <ele>2168</ele>
        <time>2021-08-11T13:57:19.953Z</time>
      </trkpt>
      <trkpt lat="46.8737" lon="8.47089">
        <ele>2168</ele>
        <time>2021-08-11T13:57:20.953Z</time>
      </trkpt>
      <trkpt lat="46.8737" lon="8.47088">
        <ele>2169</ele>
        <time>2021-08-11T13:57:21.953Z</time>
      </trkpt>
      <trkpt lat="46.87369" lon="8.47087">
        <ele>2169</ele>
        <time>2021-08-11T13:57:22.953Z</time>
      </trkpt>
      <trkpt lat="46.87368" lon="8.47086">
        <ele>2170</ele>
        <time>2021-08-11T13:57:23.952Z</time>
      </trkpt>
      <trkpt lat="46.87368" lon="8.47086">
        <ele>2170</ele>
        <time>2021-08-11T13:57:24.953Z</time>
      </trkpt>
      <trkpt lat="46.87367" lon="8.47085">
        <ele>2171</ele>
        <time>2021-08-11T13:57:25.953Z</time>
      </trkpt>
      <trkpt lat="46.87367" lon="8.47085">
        <ele>2171</ele>
        <time>2021-08-11T13:57:26.953Z</time>
      </trkpt>
      <trkpt lat="46.87367" lon="8.47084">
        <ele>2171</ele>
        <time>2021-08-11T13:57:27.953Z</time>
      </trkpt>
      <trkpt lat="46.87367" lon="8.47083">
        <ele>2172</ele>
        <time>2021-08-11T13:57:28.952Z</time>
      </trkpt>
      <trkpt lat="46.87367" lon="8.47082">
        <ele>2172</ele>
        <time>2021-08-11T13:57:29.953Z</time>
      </trkpt>
      <trkpt lat="46.87367" lon="8.47081">
        <ele>2172</ele>
        <time>2021-08-11T13:57:30.953Z</time>
      </trkpt>
      <trkpt lat="46.87366" lon="8.47081">
        <ele>2173</ele>
        <time>2021-08-11T13:57:31.952Z</time>
      </trkpt>
      <trkpt lat="46.87366" lon="8.47081">
        <ele>2173</ele>
        <time>2021-08-11T13:57:32.952Z</time>
      </trkpt>
      <trkpt lat="46.87365" lon="8.47081">
        <ele>2173</ele>
        <time>2021-08-11T13:57:33.953Z</time>
      </trkpt>
      <trkpt lat="46.87364" lon="8.47081">
        <ele>2173</ele>
        <time>2021-08-11T13:57:34.953Z</time>
      </trkpt>
      <trkpt lat="46.87364" lon="8.47081">
        <ele>2174</ele>
        <time>2021-08-11T13:57:35.953Z</time>
      </trkpt>
      <trkpt lat="46.87363" lon="8.47081">
        <ele>2175</ele>
        <time>2021-08-11T13:57:36.953Z</time>
      </trkpt>
      <trkpt lat="46.87363" lon="8.4708">
        <ele>2175</ele>
        <time>2021-08-11T13:57:37.952Z</time>
      </trkpt>
      <trkpt lat="46.87363" lon="8.47079">
        <ele>2176</ele>
        <time>2021-08-11T13:57:38.953Z</time>
      </trkpt>
      <trkpt lat="46.87363" lon="8.47078">
        <ele>2177</ele>
        <time>2021-08-11T13:57:39.953Z</time>
      </trkpt>
      <trkpt lat="46.87363" lon="8.47077">
        <ele>2178</ele>
        <time>2021-08-11T13:57:40.953Z</time>
      </trkpt>
      <trkpt lat="46.87363" lon="8.47077">
        <ele>2178</ele>
        <time>2021-08-11T13:57:41.953Z</time>
      </trkpt>
      <trkpt lat="46.87363" lon="8.47076">
        <ele>2179</ele>
        <time>2021-08-11T13:57:42.953Z</time>
      </trkpt>
      <trkpt lat="46.87363" lon="8.47075">
        <ele>2179</ele>
        <time>2021-08-11T13:57:43.953Z</time>
      </trkpt>
      <trkpt lat="46.87363" lon="8.47075">
        <ele>2179</ele>
        <time>2021-08-11T13:57:44.953Z</time>
      </trkpt>
      <trkpt lat="46.87363" lon="8.47074">
        <ele>2178</ele>
        <time>2021-08-11T13:57:45.953Z</time>
      </trkpt>
      <trkpt lat="46.87363" lon="8.47073">
        <ele>2178</ele>
        <time>2021-08-11T13:57:46.952Z</time>
      </trkpt>
      <trkpt lat="46.87363" lon="8.47073">
        <ele>2177</ele>
        <time>2021-08-11T13:57:47.953Z</time>
      </trkpt>
      <trkpt lat="46.87362" lon="8.47072">
        <ele>2176</ele>
        <time>2021-08-11T13:57:48.953Z</time>
      </trkpt>
      <trkpt lat="46.87362" lon="8.47071">
        <ele>2176</ele>
        <time>2021-08-11T13:57:49.953Z</time>
      </trkpt>
      <trkpt lat="46.87361" lon="8.47071">
        <ele>2175</ele>
        <time>2021-08-11T13:57:50.953Z</time>
      </trkpt>
      <trkpt lat="46.87361" lon="8.47071">
        <ele>2175</ele>
        <time>2021-08-11T13:57:51.952Z</time>
      </trkpt>
      <trkpt lat="46.87361" lon="8.4707">
        <ele>2174</ele>
        <time>2021-08-11T13:57:52.952Z</time>
      </trkpt>
      <trkpt lat="46.8736" lon="8.4707">
        <ele>2174</ele>
        <time>2021-08-11T13:57:53.953Z</time>
      </trkpt>
      <trkpt lat="46.8736" lon="8.4707">
        <ele>2175</ele>
        <time>2021-08-11T13:57:54.953Z</time>
      </trkpt>
      <trkpt lat="46.87359" lon="8.4707">
        <ele>2175</ele>
        <time>2021-08-11T13:57:55.953Z</time>
      </trkpt>
      <trkpt lat="46.87359" lon="8.47069">
        <ele>2175</ele>
        <time>2021-08-11T13:57:56.953Z</time>
      </trkpt>
      <trkpt lat="46.87359" lon="8.47069">
        <ele>2176</ele>
        <time>2021-08-11T13:57:57.952Z</time>
      </trkpt>
      <trkpt lat="46.87359" lon="8.47069">
        <ele>2176</ele>
        <time>2021-08-11T13:57:58.953Z</time>
      </trkpt>
      <trkpt lat="46.87358" lon="8.47068">
        <ele>2177</ele>
        <time>2021-08-11T13:57:59.953Z</time>
      </trkpt>
      <trkpt lat="46.87358" lon="8.47068">
        <ele>2178</ele>
        <time>2021-08-11T13:58:00.953Z</time>
      </trkpt>
      <trkpt lat="46.87357" lon="8.47068">
        <ele>2179</ele>
        <time>2021-08-11T13:58:01.953Z</time>
      </trkpt>
      <trkpt lat="46.87357" lon="8.47068">
        <ele>2179</ele>
        <time>2021-08-11T13:58:02.952Z</time>
      </trkpt>
      <trkpt lat="46.87357" lon="8.47068">
        <ele>2180</ele>
        <time>2021-08-11T13:58:03.953Z</time>
      </trkpt>
      <trkpt lat="46.87356" lon="8.47069">
        <ele>2180</ele>
        <time>2021-08-11T13:58:04.953Z</time>
      </trkpt>
      <trkpt lat="46.87356" lon="8.47069">
        <ele>2180</ele>
        <time>2021-08-11T13:58:05.953Z</time>
      </trkpt>
      <trkpt lat="46.87356" lon="8.47069">
        <ele>2180</ele>
        <time>2021-08-11T13:58:06.953Z</time>
      </trkpt>
      <trkpt lat="46.87356" lon="8.4707">
        <ele>2180</ele>
        <time>2021-08-11T13:58:07.952Z</time>
      </trkpt>
      <trkpt lat="46.87356" lon="8.4707">
        <ele>2180</ele>
        <time>2021-08-11T13:58:08.953Z</time>
      </trkpt>
      <trkpt lat="46.87355" lon="8.4707">
        <ele>2180</ele>
        <time>2021-08-11T13:58:09.953Z</time>
      </trkpt>
      <trkpt lat="46.87355" lon="8.4707">
        <ele>2182</ele>
        <time>2021-08-11T13:58:10.954Z</time>
      </trkpt>
      <trkpt lat="46.87354" lon="8.47069">
        <ele>2183</ele>
        <time>2021-08-11T13:58:11.954Z</time>
      </trkpt>
      <trkpt lat="46.87354" lon="8.47069">
        <ele>2183</ele>
        <time>2021-08-11T13:58:12.954Z</time>
      </trkpt>
      <trkpt lat="46.87354" lon="8.47069">
        <ele>2184</ele>
        <time>2021-08-11T13:58:13.954Z</time>
      </trkpt>
      <trkpt lat="46.87354" lon="8.47068">
        <ele>2184</ele>
        <time>2021-08-11T13:58:14.953Z</time>
      </trkpt>
      <trkpt lat="46.87354" lon="8.47068">
        <ele>2184</ele>
        <time>2021-08-11T13:58:15.954Z</time>
      </trkpt>
      <trkpt lat="46.87354" lon="8.47068">
        <ele>2184</ele>
        <time>2021-08-11T13:58:16.954Z</time>
      </trkpt>
      <trkpt lat="46.87355" lon="8.47067">
        <ele>2184</ele>
        <time>2021-08-11T13:58:17.954Z</time>
      </trkpt>
      <trkpt lat="46.87355" lon="8.47066">
        <ele>2183</ele>
        <time>2021-08-11T13:58:18.954Z</time>
      </trkpt>
      <trkpt lat="46.87355" lon="8.47065">
        <ele>2183</ele>
        <time>2021-08-11T13:58:19.954Z</time>
      </trkpt>
      <trkpt lat="46.87355" lon="8.47065">
        <ele>2183</ele>
        <time>2021-08-11T13:58:20.954Z</time>
      </trkpt>
      <trkpt lat="46.87354" lon="8.47064">
        <ele>2183</ele>
        <time>2021-08-11T13:58:21.955Z</time>
      </trkpt>
      <trkpt lat="46.87354" lon="8.47064">
        <ele>2183</ele>
        <time>2021-08-11T13:58:22.955Z</time>
      </trkpt>
      <trkpt lat="46.87353" lon="8.47063">
        <ele>2184</ele>
        <time>2021-08-11T13:58:23.954Z</time>
      </trkpt>
      <trkpt lat="46.87352" lon="8.47063">
        <ele>2184</ele>
        <time>2021-08-11T13:58:24.954Z</time>
      </trkpt>
      <trkpt lat="46.87351" lon="8.47063">
        <ele>2185</ele>
        <time>2021-08-11T13:58:25.955Z</time>
      </trkpt>
      <trkpt lat="46.87351" lon="8.47063">
        <ele>2185</ele>
        <time>2021-08-11T13:58:26.955Z</time>
      </trkpt>
      <trkpt lat="46.87348" lon="8.47059">
        <ele>2184</ele>
        <time>2021-08-11T13:58:28.955Z</time>
      </trkpt>
      <trkpt lat="46.87347" lon="8.47058">
        <ele>2185</ele>
        <time>2021-08-11T13:58:29.955Z</time>
      </trkpt>
      <trkpt lat="46.87347" lon="8.47058">
        <ele>2185</ele>
        <time>2021-08-11T13:58:30.956Z</time>
      </trkpt>
      <trkpt lat="46.87346" lon="8.47058">
        <ele>2185</ele>
        <time>2021-08-11T13:58:31.955Z</time>
      </trkpt>
      <trkpt lat="46.87346" lon="8.47058">
        <ele>2185</ele>
        <time>2021-08-11T13:58:32.955Z</time>
      </trkpt>
      <trkpt lat="46.87345" lon="8.47058">
        <ele>2185</ele>
        <time>2021-08-11T13:58:33.955Z</time>
      </trkpt>
      <trkpt lat="46.87345" lon="8.47058">
        <ele>2185</ele>
        <time>2021-08-11T13:58:34.956Z</time>
      </trkpt>
      <trkpt lat="46.87345" lon="8.47058">
        <ele>2185</ele>
        <time>2021-08-11T13:58:35.955Z</time>
      </trkpt>
      <trkpt lat="46.87344" lon="8.47057">
        <ele>2186</ele>
        <time>2021-08-11T13:58:36.957Z</time>
      </trkpt>
      <trkpt lat="46.87343" lon="8.47057">
        <ele>2186</ele>
        <time>2021-08-11T13:58:37.957Z</time>
      </trkpt>
      <trkpt lat="46.87343" lon="8.47057">
        <ele>2186</ele>
        <time>2021-08-11T13:58:38.956Z</time>
      </trkpt>
      <trkpt lat="46.87343" lon="8.47057">
        <ele>2185</ele>
        <time>2021-08-11T13:58:39.956Z</time>
      </trkpt>
      <trkpt lat="46.87343" lon="8.47057">
        <ele>2185</ele>
        <time>2021-08-11T13:58:40.957Z</time>
      </trkpt>
      <trkpt lat="46.87342" lon="8.47057">
        <ele>2185</ele>
        <time>2021-08-11T13:58:41.957Z</time>
      </trkpt>
      <trkpt lat="46.87341" lon="8.47057">
        <ele>2185</ele>
        <time>2021-08-11T13:58:42.957Z</time>
      </trkpt>
      <trkpt lat="46.87341" lon="8.47057">
        <ele>2185</ele>
        <time>2021-08-11T13:58:43.957Z</time>
      </trkpt>
      <trkpt lat="46.87341" lon="8.47057">
        <ele>2185</ele>
        <time>2021-08-11T13:58:44.957Z</time>
      </trkpt>
      <trkpt lat="46.87341" lon="8.47057">
        <ele>2186</ele>
        <time>2021-08-11T13:58:45.958Z</time>
      </trkpt>
      <trkpt lat="46.87341" lon="8.47056">
        <ele>2186</ele>
        <time>2021-08-11T13:58:46.959Z</time>
      </trkpt>
      <trkpt lat="46.87341" lon="8.47057">
        <ele>2185</ele>
        <time>2021-08-11T13:58:47.958Z</time>
      </trkpt>
      <trkpt lat="46.8734" lon="8.47057">
        <ele>2185</ele>
        <time>2021-08-11T13:58:48.958Z</time>
      </trkpt>
      <trkpt lat="46.8734" lon="8.47057">
        <ele>2185</ele>
        <time>2021-08-11T13:58:49.958Z</time>
      </trkpt>
      <trkpt lat="46.8734" lon="8.47058">
        <ele>2185</ele>
        <time>2021-08-11T13:58:50.959Z</time>
      </trkpt>
      <trkpt lat="46.8734" lon="8.47058">
        <ele>2185</ele>
        <time>2021-08-11T13:58:51.959Z</time>
      </trkpt>
      <trkpt lat="46.87339" lon="8.47058">
        <ele>2189</ele>
        <time>2021-08-11T13:58:52.959Z</time>
      </trkpt>
      <trkpt lat="46.87339" lon="8.47058">
        <ele>2190</ele>
        <time>2021-08-11T13:58:53.960Z</time>
      </trkpt>
      <trkpt lat="46.87339" lon="8.47057">
        <ele>2190</ele>
        <time>2021-08-11T13:58:54.959Z</time>
      </trkpt>
      <trkpt lat="46.87338" lon="8.47057">
        <ele>2190</ele>
        <time>2021-08-11T13:58:55.960Z</time>
      </trkpt>
      <trkpt lat="46.87338" lon="8.47056">
        <ele>2190</ele>
        <time>2021-08-11T13:58:56.960Z</time>
      </trkpt>
      <trkpt lat="46.87339" lon="8.47056">
        <ele>2190</ele>
        <time>2021-08-11T13:58:57.959Z</time>
      </trkpt>
      <trkpt lat="46.87338" lon="8.47055">
        <ele>2190</ele>
        <time>2021-08-11T13:58:58.960Z</time>
      </trkpt>
      <trkpt lat="46.87338" lon="8.47055">
        <ele>2190</ele>
        <time>2021-08-11T13:58:59.960Z</time>
      </trkpt>
      <trkpt lat="46.87338" lon="8.47055">
        <ele>2189</ele>
        <time>2021-08-11T13:59:00.960Z</time>
      </trkpt>
      <trkpt lat="46.87338" lon="8.47053">
        <ele>2189</ele>
        <time>2021-08-11T13:59:01.960Z</time>
      </trkpt>
      <trkpt lat="46.87337" lon="8.47052">
        <ele>2189</ele>
        <time>2021-08-11T13:59:02.959Z</time>
      </trkpt>
      <trkpt lat="46.87337" lon="8.47051">
        <ele>2189</ele>
        <time>2021-08-11T13:59:03.959Z</time>
      </trkpt>
      <trkpt lat="46.87336" lon="8.47052">
        <ele>2189</ele>
        <time>2021-08-11T13:59:04.960Z</time>
      </trkpt>
      <trkpt lat="46.87336" lon="8.47052">
        <ele>2189</ele>
        <time>2021-08-11T13:59:05.960Z</time>
      </trkpt>
      <trkpt lat="46.87336" lon="8.47051">
        <ele>2190</ele>
        <time>2021-08-11T13:59:06.960Z</time>
      </trkpt>
      <trkpt lat="46.87335" lon="8.47051">
        <ele>2191</ele>
        <time>2021-08-11T13:59:07.961Z</time>
      </trkpt>
      <trkpt lat="46.87335" lon="8.47051">
        <ele>2192</ele>
        <time>2021-08-11T13:59:13.980Z</time>
      </trkpt>
      <trkpt lat="46.87335" lon="8.4705">
        <ele>2190</ele>
        <time>2021-08-11T13:59:24.829Z</time>
      </trkpt>
      <trkpt lat="46.87335" lon="8.4705">
        <ele>2191</ele>
        <time>2021-08-11T13:59:25.828Z</time>
      </trkpt>
      <trkpt lat="46.87335" lon="8.4705">
        <ele>2192</ele>
        <time>2021-08-11T13:59:26.828Z</time>
      </trkpt>
      <trkpt lat="46.87334" lon="8.47048">
        <ele>2194</ele>
        <time>2021-08-11T13:59:53.828Z</time>
      </trkpt>
      <trkpt lat="46.87334" lon="8.47047">
        <ele>2195</ele>
        <time>2021-08-11T13:59:54.828Z</time>
      </trkpt>
      <trkpt lat="46.87334" lon="8.47046">
        <ele>2195</ele>
        <time>2021-08-11T13:59:55.828Z</time>
      </trkpt>
      <trkpt lat="46.87334" lon="8.47045">
        <ele>2196</ele>
        <time>2021-08-11T13:59:56.829Z</time>
      </trkpt>
      <trkpt lat="46.87334" lon="8.47045">
        <ele>2196</ele>
        <time>2021-08-11T14:00:11.828Z</time>
      </trkpt>
      <trkpt lat="46.87334" lon="8.47044">
        <ele>2197</ele>
        <time>2021-08-11T14:00:12.828Z</time>
      </trkpt>
      <trkpt lat="46.87334" lon="8.47043">
        <ele>2197</ele>
        <time>2021-08-11T14:00:27.739Z</time>
      </trkpt>
      <trkpt lat="46.87333" lon="8.47041">
        <ele>2198</ele>
        <time>2021-08-11T14:00:28.739Z</time>
      </trkpt>
      <trkpt lat="46.87333" lon="8.4704">
        <ele>2199</ele>
        <time>2021-08-11T14:00:36.578Z</time>
      </trkpt>
      <trkpt lat="46.87333" lon="8.4704">
        <ele>2200</ele>
        <time>2021-08-11T14:00:51.335Z</time>
      </trkpt>
      <trkpt lat="46.87332" lon="8.4704">
        <ele>2201</ele>
        <time>2021-08-11T14:00:52.335Z</time>
      </trkpt>
      <trkpt lat="46.87332" lon="8.47039">
        <ele>2201</ele>
        <time>2021-08-11T14:00:53.335Z</time>
      </trkpt>
      <trkpt lat="46.87331" lon="8.4704">
        <ele>2202</ele>
        <time>2021-08-11T14:00:54.335Z</time>
      </trkpt>
      <trkpt lat="46.87331" lon="8.47039">
        <ele>2202</ele>
        <time>2021-08-11T14:00:55.335Z</time>
      </trkpt>
      <trkpt lat="46.8733" lon="8.47039">
        <ele>2202</ele>
        <time>2021-08-11T14:00:56.334Z</time>
      </trkpt>
      <trkpt lat="46.8733" lon="8.47038">
        <ele>2202</ele>
        <time>2021-08-11T14:00:57.334Z</time>
      </trkpt>
      <trkpt lat="46.8733" lon="8.47038">
        <ele>2203</ele>
        <time>2021-08-11T14:00:58.335Z</time>
      </trkpt>
      <trkpt lat="46.8733" lon="8.47037">
        <ele>2203</ele>
        <time>2021-08-11T14:00:59.335Z</time>
      </trkpt>
      <trkpt lat="46.8733" lon="8.47036">
        <ele>2203</ele>
        <time>2021-08-11T14:01:28.359Z</time>
      </trkpt>
      <trkpt lat="46.87331" lon="8.47036">
        <ele>2203</ele>
        <time>2021-08-11T14:01:29.358Z</time>
      </trkpt>
      <trkpt lat="46.87331" lon="8.47035">
        <ele>2202</ele>
        <time>2021-08-11T14:01:35.224Z</time>
      </trkpt>
      <trkpt lat="46.87331" lon="8.47034">
        <ele>2202</ele>
        <time>2021-08-11T14:01:36.223Z</time>
      </trkpt>
      <trkpt lat="46.87332" lon="8.47034">
        <ele>2202</ele>
        <time>2021-08-11T14:01:42.950Z</time>
      </trkpt>
      <trkpt lat="46.87331" lon="8.47034">
        <ele>2201</ele>
        <time>2021-08-11T14:01:43.951Z</time>
      </trkpt>
      <trkpt lat="46.87332" lon="8.47033">
        <ele>2201</ele>
        <time>2021-08-11T14:01:44.950Z</time>
      </trkpt>
      <trkpt lat="46.87331" lon="8.47033">
        <ele>2201</ele>
        <time>2021-08-11T14:01:52.950Z</time>
      </trkpt>
      <trkpt lat="46.87331" lon="8.47032">
        <ele>2201</ele>
        <time>2021-08-11T14:01:53.950Z</time>
      </trkpt>
      <trkpt lat="46.8733" lon="8.47032">
        <ele>2202</ele>
        <time>2021-08-11T14:01:54.951Z</time>
      </trkpt>
      <trkpt lat="46.8733" lon="8.47031">
        <ele>2202</ele>
        <time>2021-08-11T14:01:55.950Z</time>
      </trkpt>
      <trkpt lat="46.87329" lon="8.47031">
        <ele>2202</ele>
        <time>2021-08-11T14:01:56.950Z</time>
      </trkpt>
      <trkpt lat="46.87328" lon="8.4703">
        <ele>2202</ele>
        <time>2021-08-11T14:01:57.950Z</time>
      </trkpt>
      <trkpt lat="46.87328" lon="8.4703">
        <ele>2202</ele>
        <time>2021-08-11T14:01:58.950Z</time>
      </trkpt>
      <trkpt lat="46.87327" lon="8.4703">
        <ele>2201</ele>
        <time>2021-08-11T14:01:59.950Z</time>
      </trkpt>
      <trkpt lat="46.87327" lon="8.4703">
        <ele>2202</ele>
        <time>2021-08-11T14:02:00.950Z</time>
      </trkpt>
      <trkpt lat="46.87327" lon="8.4703">
        <ele>2202</ele>
        <time>2021-08-11T14:02:03.071Z</time>
      </trkpt>
      <trkpt lat="46.87326" lon="8.4703">
        <ele>2202</ele>
        <time>2021-08-11T14:02:04.071Z</time>
      </trkpt>
      <trkpt lat="46.87326" lon="8.4703">
        <ele>2203</ele>
        <time>2021-08-11T14:02:05.849Z</time>
      </trkpt>
      <trkpt lat="46.87326" lon="8.47028">
        <ele>2205</ele>
        <time>2021-08-11T14:02:08.596Z</time>
      </trkpt>
      <trkpt lat="46.87326" lon="8.47028">
        <ele>2205</ele>
        <time>2021-08-11T14:02:09.596Z</time>
      </trkpt>
      <trkpt lat="46.87326" lon="8.47028">
        <ele>2205</ele>
        <time>2021-08-11T14:02:10.595Z</time>
      </trkpt>
      <trkpt lat="46.87325" lon="8.47027">
        <ele>2204</ele>
        <time>2021-08-11T14:02:15.743Z</time>
      </trkpt>
      <trkpt lat="46.87325" lon="8.47027">
        <ele>2203</ele>
        <time>2021-08-11T14:02:16.743Z</time>
      </trkpt>
      <trkpt lat="46.87324" lon="8.47026">
        <ele>2202</ele>
        <time>2021-08-11T14:02:31.574Z</time>
      </trkpt>
      <trkpt lat="46.87324" lon="8.47026">
        <ele>2202</ele>
        <time>2021-08-11T14:02:34.449Z</time>
      </trkpt>
      <trkpt lat="46.87324" lon="8.47025">
        <ele>2202</ele>
        <time>2021-08-11T14:02:35.449Z</time>
      </trkpt>
      <trkpt lat="46.87324" lon="8.47024">
        <ele>2202</ele>
        <time>2021-08-11T14:02:36.449Z</time>
      </trkpt>
      <trkpt lat="46.87323" lon="8.47024">
        <ele>2202</ele>
        <time>2021-08-11T14:02:37.448Z</time>
      </trkpt>
      <trkpt lat="46.87323" lon="8.47024">
        <ele>2202</ele>
        <time>2021-08-11T14:02:44.479Z</time>
      </trkpt>
      <trkpt lat="46.87323" lon="8.47023">
        <ele>2203</ele>
        <time>2021-08-11T14:02:45.480Z</time>
      </trkpt>
      <trkpt lat="46.87322" lon="8.47023">
        <ele>2204</ele>
        <time>2021-08-11T14:02:46.479Z</time>
      </trkpt>
      <trkpt lat="46.87322" lon="8.47023">
        <ele>2205</ele>
        <time>2021-08-11T14:02:47.480Z</time>
      </trkpt>
      <trkpt lat="46.87322" lon="8.47023">
        <ele>2204</ele>
        <time>2021-08-11T14:02:48.479Z</time>
      </trkpt>
      <trkpt lat="46.87321" lon="8.47023">
        <ele>2204</ele>
        <time>2021-08-11T14:02:49.479Z</time>
      </trkpt>
      <trkpt lat="46.87322" lon="8.47024">
        <ele>2201</ele>
        <time>2021-08-11T14:02:50.482Z</time>
      </trkpt>
      <trkpt lat="46.87321" lon="8.47024">
        <ele>2201</ele>
        <time>2021-08-11T14:02:51.481Z</time>
      </trkpt>
      <trkpt lat="46.87322" lon="8.47023">
        <ele>2201</ele>
        <time>2021-08-11T14:02:52.481Z</time>
      </trkpt>
      <trkpt lat="46.87322" lon="8.47023">
        <ele>2201</ele>
        <time>2021-08-11T14:02:55.452Z</time>
      </trkpt>
      <trkpt lat="46.87321" lon="8.47023">
        <ele>2201</ele>
        <time>2021-08-11T14:03:00.216Z</time>
      </trkpt>
      <trkpt lat="46.87321" lon="8.47022">
        <ele>2202</ele>
        <time>2021-08-11T14:03:01.217Z</time>
      </trkpt>
      <trkpt lat="46.87321" lon="8.4702">
        <ele>2205</ele>
        <time>2021-08-11T14:03:02.217Z</time>
      </trkpt>
      <trkpt lat="46.87321" lon="8.47019">
        <ele>2205</ele>
        <time>2021-08-11T14:03:03.217Z</time>
      </trkpt>
      <trkpt lat="46.87321" lon="8.47018">
        <ele>2206</ele>
        <time>2021-08-11T14:03:17.213Z</time>
      </trkpt>
      <trkpt lat="46.87321" lon="8.47018">
        <ele>2207</ele>
        <time>2021-08-11T14:03:18.214Z</time>
      </trkpt>
      <trkpt lat="46.8732" lon="8.47017">
        <ele>2207</ele>
        <time>2021-08-11T14:03:19.214Z</time>
      </trkpt>
      <trkpt lat="46.8732" lon="8.47017">
        <ele>2207</ele>
        <time>2021-08-11T14:03:20.214Z</time>
      </trkpt>
      <trkpt lat="46.87319" lon="8.47016">
        <ele>2206</ele>
        <time>2021-08-11T14:03:21.213Z</time>
      </trkpt>
      <trkpt lat="46.87319" lon="8.47016">
        <ele>2206</ele>
        <time>2021-08-11T14:03:25.346Z</time>
      </trkpt>
      <trkpt lat="46.87318" lon="8.47016">
        <ele>2206</ele>
        <time>2021-08-11T14:03:35.227Z</time>
      </trkpt>
      <trkpt lat="46.87318" lon="8.47016">
        <ele>2207</ele>
        <time>2021-08-11T14:03:36.226Z</time>
      </trkpt>
      <trkpt lat="46.87317" lon="8.47015">
        <ele>2206</ele>
        <time>2021-08-11T14:03:37.227Z</time>
      </trkpt>
      <trkpt lat="46.87317" lon="8.47015">
        <ele>2206</ele>
        <time>2021-08-11T14:03:43.070Z</time>
      </trkpt>
      <trkpt lat="46.87316" lon="8.47014">
        <ele>2206</ele>
        <time>2021-08-11T14:03:55.843Z</time>
      </trkpt>
      <trkpt lat="46.87317" lon="8.47014">
        <ele>2206</ele>
        <time>2021-08-11T14:03:56.842Z</time>
      </trkpt>
      <trkpt lat="46.87317" lon="8.47013">
        <ele>2206</ele>
        <time>2021-08-11T14:03:57.842Z</time>
      </trkpt>
      <trkpt lat="46.87317" lon="8.47013">
        <ele>2206</ele>
        <time>2021-08-11T14:04:03.965Z</time>
      </trkpt>
      <trkpt lat="46.87317" lon="8.47013">
        <ele>2206</ele>
        <time>2021-08-11T14:04:04.966Z</time>
      </trkpt>
      <trkpt lat="46.87316" lon="8.47013">
        <ele>2207</ele>
        <time>2021-08-11T14:04:05.966Z</time>
      </trkpt>
      <trkpt lat="46.87316" lon="8.47012">
        <ele>2207</ele>
        <time>2021-08-11T14:04:06.966Z</time>
      </trkpt>
      <trkpt lat="46.87313" lon="8.47014">
        <ele>2214</ele>
        <time>2021-08-11T14:04:07.968Z</time>
      </trkpt>
      <trkpt lat="46.87312" lon="8.47012">
        <ele>2214</ele>
        <time>2021-08-11T14:04:08.967Z</time>
      </trkpt>
      <trkpt lat="46.87312" lon="8.47011">
        <ele>2214</ele>
        <time>2021-08-11T14:04:16.098Z</time>
      </trkpt>
      <trkpt lat="46.87313" lon="8.47011">
        <ele>2210</ele>
        <time>2021-08-11T14:04:17.099Z</time>
      </trkpt>
      <trkpt lat="46.87313" lon="8.47011">
        <ele>2211</ele>
        <time>2021-08-11T14:04:18.099Z</time>
      </trkpt>
      <trkpt lat="46.87313" lon="8.47011">
        <ele>2211</ele>
        <time>2021-08-11T14:04:33.071Z</time>
      </trkpt>
      <trkpt lat="46.87313" lon="8.4701">
        <ele>2211</ele>
        <time>2021-08-11T14:04:34.072Z</time>
      </trkpt>
      <trkpt lat="46.87313" lon="8.4701">
        <ele>2211</ele>
        <time>2021-08-11T14:04:35.071Z</time>
      </trkpt>
      <trkpt lat="46.87314" lon="8.4701">
        <ele>2211</ele>
        <time>2021-08-11T14:04:36.072Z</time>
      </trkpt>
      <trkpt lat="46.87309" lon="8.47014">
        <ele>2224</ele>
        <time>2021-08-11T14:04:36.948Z</time>
      </trkpt>
      <trkpt lat="46.87309" lon="8.47014">
        <ele>2225</ele>
        <time>2021-08-11T14:04:37.948Z</time>
      </trkpt>
      <trkpt lat="46.87308" lon="8.47014">
        <ele>2226</ele>
        <time>2021-08-11T14:04:50.067Z</time>
      </trkpt>
      <trkpt lat="46.87308" lon="8.47014">
        <ele>2227</ele>
        <time>2021-08-11T14:04:50.943Z</time>
      </trkpt>
      <trkpt lat="46.87309" lon="8.47014">
        <ele>2227</ele>
        <time>2021-08-11T14:04:59.194Z</time>
      </trkpt>
      <trkpt lat="46.87309" lon="8.47015">
        <ele>2227</ele>
        <time>2021-08-11T14:05:00.069Z</time>
      </trkpt>
      <trkpt lat="46.87309" lon="8.47015">
        <ele>2227</ele>
        <time>2021-08-11T14:05:01.069Z</time>
      </trkpt>
      <trkpt lat="46.87312" lon="8.47013">
        <ele>2220</ele>
        <time>2021-08-11T14:05:02.954Z</time>
      </trkpt>
      <trkpt lat="46.87312" lon="8.47012">
        <ele>2219</ele>
        <time>2021-08-11T14:05:39.762Z</time>
      </trkpt>
      <trkpt lat="46.87315" lon="8.47016">
        <ele>2213</ele>
        <time>2021-08-11T14:05:40.762Z</time>
      </trkpt>
      <trkpt lat="46.87315" lon="8.47016">
        <ele>2212</ele>
        <time>2021-08-11T14:05:41.762Z</time>
      </trkpt>
      <trkpt lat="46.87314" lon="8.47013">
        <ele>2210</ele>
        <time>2021-08-11T14:05:42.762Z</time>
      </trkpt>
      <trkpt lat="46.87314" lon="8.47013">
        <ele>2210</ele>
        <time>2021-08-11T14:05:49.845Z</time>
      </trkpt>
      <trkpt lat="46.87315" lon="8.47013">
        <ele>2209</ele>
        <time>2021-08-11T14:05:50.844Z</time>
      </trkpt>
      <trkpt lat="46.87315" lon="8.47015">
        <ele>2208</ele>
        <time>2021-08-11T14:05:57.718Z</time>
      </trkpt>
      <trkpt lat="46.87314" lon="8.47014">
        <ele>2208</ele>
        <time>2021-08-11T14:05:58.717Z</time>
      </trkpt>
      <trkpt lat="46.87314" lon="8.47014">
        <ele>2208</ele>
        <time>2021-08-11T14:05:59.717Z</time>
      </trkpt>
      <trkpt lat="46.87314" lon="8.47013">
        <ele>2208</ele>
        <time>2021-08-11T14:06:10.840Z</time>
      </trkpt>
      <trkpt lat="46.87312" lon="8.47012">
        <ele>2209</ele>
        <time>2021-08-11T14:06:11.841Z</time>
      </trkpt>
      <trkpt lat="46.87312" lon="8.47011">
        <ele>2209</ele>
        <time>2021-08-11T14:06:12.841Z</time>
      </trkpt>
      <trkpt lat="46.87312" lon="8.47011">
        <ele>2209</ele>
        <time>2021-08-11T14:06:14.929Z</time>
      </trkpt>
      <trkpt lat="46.87312" lon="8.4701">
        <ele>2209</ele>
        <time>2021-08-11T14:06:15.930Z</time>
      </trkpt>
      <trkpt lat="46.87312" lon="8.47009">
        <ele>2210</ele>
        <time>2021-08-11T14:06:16.929Z</time>
      </trkpt>
      <trkpt lat="46.87311" lon="8.47009">
        <ele>2210</ele>
        <time>2021-08-11T14:06:17.930Z</time>
      </trkpt>
      <trkpt lat="46.87311" lon="8.47008">
        <ele>2210</ele>
        <time>2021-08-11T14:06:40.943Z</time>
      </trkpt>
      <trkpt lat="46.87312" lon="8.47007">
        <ele>2214</ele>
        <time>2021-08-11T14:06:59.716Z</time>
      </trkpt>
      <trkpt lat="46.87312" lon="8.47007">
        <ele>2214</ele>
        <time>2021-08-11T14:07:00.715Z</time>
      </trkpt>
      <trkpt lat="46.87312" lon="8.47007">
        <ele>2214</ele>
        <time>2021-08-11T14:07:01.715Z</time>
      </trkpt>
      <trkpt lat="46.8731" lon="8.47006">
        <ele>2213</ele>
        <time>2021-08-11T14:07:02.717Z</time>
      </trkpt>
      <trkpt lat="46.8731" lon="8.47005">
        <ele>2213</ele>
        <time>2021-08-11T14:07:03.716Z</time>
      </trkpt>
      <trkpt lat="46.87305" lon="8.47007">
        <ele>2217</ele>
        <time>2021-08-11T14:07:04.717Z</time>
      </trkpt>
      <trkpt lat="46.87305" lon="8.47007">
        <ele>2217</ele>
        <time>2021-08-11T14:07:05.717Z</time>
      </trkpt>
      <trkpt lat="46.87305" lon="8.47006">
        <ele>2218</ele>
        <time>2021-08-11T14:07:06.716Z</time>
      </trkpt>
      <trkpt lat="46.87305" lon="8.47006">
        <ele>2215</ele>
        <time>2021-08-11T14:07:07.716Z</time>
      </trkpt>
      <trkpt lat="46.87305" lon="8.47007">
        <ele>2214</ele>
        <time>2021-08-11T14:07:08.716Z</time>
      </trkpt>
      <trkpt lat="46.87305" lon="8.47007">
        <ele>2214</ele>
        <time>2021-08-11T14:07:09.716Z</time>
      </trkpt>
      <trkpt lat="46.87306" lon="8.47008">
        <ele>2210</ele>
        <time>2021-08-11T14:07:10.718Z</time>
      </trkpt>
      <trkpt lat="46.87306" lon="8.47009">
        <ele>2210</ele>
        <time>2021-08-11T14:07:18.840Z</time>
      </trkpt>
      <trkpt lat="46.87305" lon="8.47007">
        <ele>2207</ele>
        <time>2021-08-11T14:07:24.570Z</time>
      </trkpt>
      <trkpt lat="46.87306" lon="8.47008">
        <ele>2205</ele>
        <time>2021-08-11T14:07:51.340Z</time>
      </trkpt>
      <trkpt lat="46.87306" lon="8.47008">
        <ele>2205</ele>
        <time>2021-08-11T14:07:52.340Z</time>
      </trkpt>
      <trkpt lat="46.87306" lon="8.47008">
        <ele>2206</ele>
        <time>2021-08-11T14:07:58.070Z</time>
      </trkpt>
      <trkpt lat="46.87306" lon="8.47008">
        <ele>2206</ele>
        <time>2021-08-11T14:07:59.071Z</time>
      </trkpt>
      <trkpt lat="46.87306" lon="8.47008">
        <ele>2207</ele>
        <time>2021-08-11T14:08:00.071Z</time>
      </trkpt>
      <trkpt lat="46.87305" lon="8.47008">
        <ele>2208</ele>
        <time>2021-08-11T14:08:01.070Z</time>
      </trkpt>
      <trkpt lat="46.87304" lon="8.47008">
        <ele>2215</ele>
        <time>2021-08-11T14:08:16.070Z</time>
      </trkpt>
      <trkpt lat="46.87304" lon="8.47008">
        <ele>2215</ele>
        <time>2021-08-11T14:08:17.070Z</time>
      </trkpt>
      <trkpt lat="46.87304" lon="8.47005">
        <ele>2224</ele>
        <time>2021-08-11T14:08:27.817Z</time>
      </trkpt>
      <trkpt lat="46.87304" lon="8.47005">
        <ele>2224</ele>
        <time>2021-08-11T14:08:28.818Z</time>
      </trkpt>
      <trkpt lat="46.87304" lon="8.47005">
        <ele>2224</ele>
        <time>2021-08-11T14:08:29.817Z</time>
      </trkpt>
      <trkpt lat="46.87303" lon="8.47004">
        <ele>2224</ele>
        <time>2021-08-11T14:08:39.821Z</time>
      </trkpt>
      <trkpt lat="46.87303" lon="8.47003">
        <ele>2224</ele>
        <time>2021-08-11T14:08:40.821Z</time>
      </trkpt>
      <trkpt lat="46.87303" lon="8.47002">
        <ele>2223</ele>
        <time>2021-08-11T14:08:41.820Z</time>
      </trkpt>
      <trkpt lat="46.87302" lon="8.47002">
        <ele>2223</ele>
        <time>2021-08-11T14:08:42.821Z</time>
      </trkpt>
      <trkpt lat="46.87301" lon="8.47001">
        <ele>2223</ele>
        <time>2021-08-11T14:08:43.820Z</time>
      </trkpt>
      <trkpt lat="46.87301" lon="8.47">
        <ele>2223</ele>
        <time>2021-08-11T14:08:49.841Z</time>
      </trkpt>
      <trkpt lat="46.87301" lon="8.46999">
        <ele>2223</ele>
        <time>2021-08-11T14:08:50.842Z</time>
      </trkpt>
      <trkpt lat="46.87302" lon="8.46999">
        <ele>2223</ele>
        <time>2021-08-11T14:08:51.842Z</time>
      </trkpt>
      <trkpt lat="46.87302" lon="8.46998">
        <ele>2223</ele>
        <time>2021-08-11T14:08:52.841Z</time>
      </trkpt>
      <trkpt lat="46.87301" lon="8.46997">
        <ele>2222</ele>
        <time>2021-08-11T14:08:53.841Z</time>
      </trkpt>
      <trkpt lat="46.87301" lon="8.46997">
        <ele>2222</ele>
        <time>2021-08-11T14:08:54.842Z</time>
      </trkpt>
      <trkpt lat="46.87301" lon="8.46995">
        <ele>2221</ele>
        <time>2021-08-11T14:09:12.947Z</time>
      </trkpt>
      <trkpt lat="46.87301" lon="8.46994">
        <ele>2221</ele>
        <time>2021-08-11T14:09:13.947Z</time>
      </trkpt>
      <trkpt lat="46.87301" lon="8.46994">
        <ele>2221</ele>
        <time>2021-08-11T14:09:14.947Z</time>
      </trkpt>
      <trkpt lat="46.873" lon="8.46993">
        <ele>2221</ele>
        <time>2021-08-11T14:09:15.947Z</time>
      </trkpt>
      <trkpt lat="46.873" lon="8.46994">
        <ele>2221</ele>
        <time>2021-08-11T14:09:16.947Z</time>
      </trkpt>
      <trkpt lat="46.873" lon="8.46994">
        <ele>2222</ele>
        <time>2021-08-11T14:09:17.947Z</time>
      </trkpt>
      <trkpt lat="46.87299" lon="8.46993">
        <ele>2225</ele>
        <time>2021-08-11T14:09:28.945Z</time>
      </trkpt>
      <trkpt lat="46.87299" lon="8.46993">
        <ele>2225</ele>
        <time>2021-08-11T14:09:34.720Z</time>
      </trkpt>
      <trkpt lat="46.87298" lon="8.46993">
        <ele>2225</ele>
        <time>2021-08-11T14:09:35.719Z</time>
      </trkpt>
      <trkpt lat="46.87297" lon="8.46993">
        <ele>2225</ele>
        <time>2021-08-11T14:09:36.722Z</time>
      </trkpt>
      <trkpt lat="46.87297" lon="8.46993">
        <ele>2225</ele>
        <time>2021-08-11T14:09:49.820Z</time>
      </trkpt>
      <trkpt lat="46.87297" lon="8.46993">
        <ele>2226</ele>
        <time>2021-08-11T14:09:50.820Z</time>
      </trkpt>
      <trkpt lat="46.87297" lon="8.46992">
        <ele>2227</ele>
        <time>2021-08-11T14:09:51.821Z</time>
      </trkpt>
      <trkpt lat="46.87297" lon="8.46991">
        <ele>2227</ele>
        <time>2021-08-11T14:10:31.828Z</time>
      </trkpt>
      <trkpt lat="46.87297" lon="8.46991">
        <ele>2228</ele>
        <time>2021-08-11T14:10:32.828Z</time>
      </trkpt>
      <trkpt lat="46.87296" lon="8.4699">
        <ele>2228</ele>
        <time>2021-08-11T14:10:33.828Z</time>
      </trkpt>
      <trkpt lat="46.87296" lon="8.4699">
        <ele>2228</ele>
        <time>2021-08-11T14:10:34.828Z</time>
      </trkpt>
      <trkpt lat="46.87296" lon="8.46989">
        <ele>2228</ele>
        <time>2021-08-11T14:10:35.828Z</time>
      </trkpt>
      <trkpt lat="46.87296" lon="8.46988">
        <ele>2228</ele>
        <time>2021-08-11T14:10:36.828Z</time>
      </trkpt>
      <trkpt lat="46.87296" lon="8.46986">
        <ele>2229</ele>
        <time>2021-08-11T14:10:45.968Z</time>
      </trkpt>
      <trkpt lat="46.87295" lon="8.46985">
        <ele>2229</ele>
        <time>2021-08-11T14:10:46.968Z</time>
      </trkpt>
      <trkpt lat="46.87295" lon="8.46985">
        <ele>2229</ele>
        <time>2021-08-11T14:10:47.968Z</time>
      </trkpt>
      <trkpt lat="46.87294" lon="8.46986">
        <ele>2229</ele>
        <time>2021-08-11T14:10:48.968Z</time>
      </trkpt>
      <trkpt lat="46.87293" lon="8.46986">
        <ele>2228</ele>
        <time>2021-08-11T14:10:49.968Z</time>
      </trkpt>
      <trkpt lat="46.87293" lon="8.46986">
        <ele>2228</ele>
        <time>2021-08-11T14:10:55.970Z</time>
      </trkpt>
      <trkpt lat="46.87292" lon="8.46987">
        <ele>2227</ele>
        <time>2021-08-11T14:10:56.970Z</time>
      </trkpt>
      <trkpt lat="46.87292" lon="8.46987">
        <ele>2227</ele>
        <time>2021-08-11T14:10:57.971Z</time>
      </trkpt>
      <trkpt lat="46.87291" lon="8.46987">
        <ele>2227</ele>
        <time>2021-08-11T14:10:58.970Z</time>
      </trkpt>
      <trkpt lat="46.8729" lon="8.46988">
        <ele>2227</ele>
        <time>2021-08-11T14:11:04.071Z</time>
      </trkpt>
      <trkpt lat="46.8729" lon="8.46988">
        <ele>2227</ele>
        <time>2021-08-11T14:11:07.850Z</time>
      </trkpt>
      <trkpt lat="46.8729" lon="8.46987">
        <ele>2227</ele>
        <time>2021-08-11T14:11:12.702Z</time>
      </trkpt>
      <trkpt lat="46.87291" lon="8.46987">
        <ele>2228</ele>
        <time>2021-08-11T14:11:13.702Z</time>
      </trkpt>
      <trkpt lat="46.87291" lon="8.46986">
        <ele>2228</ele>
        <time>2021-08-11T14:11:14.703Z</time>
      </trkpt>
      <trkpt lat="46.87291" lon="8.46987">
        <ele>2230</ele>
        <time>2021-08-11T14:11:15.705Z</time>
      </trkpt>
      <trkpt lat="46.87291" lon="8.46986">
        <ele>2230</ele>
        <time>2021-08-11T14:11:24.828Z</time>
      </trkpt>
      <trkpt lat="46.87292" lon="8.46986">
        <ele>2230</ele>
        <time>2021-08-11T14:11:25.828Z</time>
      </trkpt>
      <trkpt lat="46.87291" lon="8.46986">
        <ele>2230</ele>
        <time>2021-08-11T14:11:33.702Z</time>
      </trkpt>
      <trkpt lat="46.87291" lon="8.46985">
        <ele>2230</ele>
        <time>2021-08-11T14:11:34.702Z</time>
      </trkpt>
      <trkpt lat="46.87291" lon="8.46985">
        <ele>2230</ele>
        <time>2021-08-11T14:11:37.557Z</time>
      </trkpt>
      <trkpt lat="46.87291" lon="8.46985">
        <ele>2231</ele>
        <time>2021-08-11T14:11:38.558Z</time>
      </trkpt>
      <trkpt lat="46.8729" lon="8.46985">
        <ele>2231</ele>
        <time>2021-08-11T14:11:39.558Z</time>
      </trkpt>
      <trkpt lat="46.8729" lon="8.46986">
        <ele>2231</ele>
        <time>2021-08-11T14:11:42.582Z</time>
      </trkpt>
      <trkpt lat="46.8729" lon="8.46987">
        <ele>2230</ele>
        <time>2021-08-11T14:11:43.582Z</time>
      </trkpt>
      <trkpt lat="46.87289" lon="8.46987">
        <ele>2230</ele>
        <time>2021-08-11T14:11:44.581Z</time>
      </trkpt>
      <trkpt lat="46.87288" lon="8.46987">
        <ele>2230</ele>
        <time>2021-08-11T14:11:56.596Z</time>
      </trkpt>
      <trkpt lat="46.87288" lon="8.46988">
        <ele>2230</ele>
        <time>2021-08-11T14:11:57.596Z</time>
      </trkpt>
      <trkpt lat="46.87287" lon="8.4699">
        <ele>2220</ele>
        <time>2021-08-11T14:11:58.595Z</time>
      </trkpt>
      <trkpt lat="46.87287" lon="8.46991">
        <ele>2219</ele>
        <time>2021-08-11T14:11:59.596Z</time>
      </trkpt>
      <trkpt lat="46.87287" lon="8.46991">
        <ele>2218</ele>
        <time>2021-08-11T14:12:00.595Z</time>
      </trkpt>
      <trkpt lat="46.87287" lon="8.46992">
        <ele>2217</ele>
        <time>2021-08-11T14:12:01.596Z</time>
      </trkpt>
      <trkpt lat="46.87286" lon="8.46991">
        <ele>2218</ele>
        <time>2021-08-11T14:12:02.597Z</time>
      </trkpt>
      <trkpt lat="46.87285" lon="8.46989">
        <ele>2222</ele>
        <time>2021-08-11T14:12:03.598Z</time>
      </trkpt>
      <trkpt lat="46.87285" lon="8.46988">
        <ele>2223</ele>
        <time>2021-08-11T14:12:04.598Z</time>
      </trkpt>
      <trkpt lat="46.87285" lon="8.46987">
        <ele>2224</ele>
        <time>2021-08-11T14:12:05.597Z</time>
      </trkpt>
      <trkpt lat="46.87285" lon="8.46987">
        <ele>2225</ele>
        <time>2021-08-11T14:12:06.597Z</time>
      </trkpt>
      <trkpt lat="46.87285" lon="8.46986">
        <ele>2226</ele>
        <time>2021-08-11T14:12:07.598Z</time>
      </trkpt>
      <trkpt lat="46.87285" lon="8.46985">
        <ele>2226</ele>
        <time>2021-08-11T14:12:08.597Z</time>
      </trkpt>
      <trkpt lat="46.87284" lon="8.46984">
        <ele>2227</ele>
        <time>2021-08-11T14:12:12.722Z</time>
      </trkpt>
      <trkpt lat="46.87284" lon="8.46983">
        <ele>2228</ele>
        <time>2021-08-11T14:12:21.578Z</time>
      </trkpt>
      <trkpt lat="46.87283" lon="8.46983">
        <ele>2229</ele>
        <time>2021-08-11T14:12:22.578Z</time>
      </trkpt>
      <trkpt lat="46.87283" lon="8.46983">
        <ele>2230</ele>
        <time>2021-08-11T14:12:23.577Z</time>
      </trkpt>
      <trkpt lat="46.87283" lon="8.46982">
        <ele>2231</ele>
        <time>2021-08-11T14:12:24.577Z</time>
      </trkpt>
      <trkpt lat="46.87283" lon="8.46982">
        <ele>2231</ele>
        <time>2021-08-11T14:12:25.577Z</time>
      </trkpt>
      <trkpt lat="46.87283" lon="8.46981">
        <ele>2232</ele>
        <time>2021-08-11T14:12:29.577Z</time>
      </trkpt>
      <trkpt lat="46.87283" lon="8.46981">
        <ele>2233</ele>
        <time>2021-08-11T14:12:53.326Z</time>
      </trkpt>
      <trkpt lat="46.87282" lon="8.46981">
        <ele>2233</ele>
        <time>2021-08-11T14:12:54.327Z</time>
      </trkpt>
      <trkpt lat="46.87282" lon="8.46981">
        <ele>2234</ele>
        <time>2021-08-11T14:12:55.326Z</time>
      </trkpt>
      <trkpt lat="46.87282" lon="8.4698">
        <ele>2235</ele>
        <time>2021-08-11T14:12:56.327Z</time>
      </trkpt>
      <trkpt lat="46.87282" lon="8.4698">
        <ele>2235</ele>
        <time>2021-08-11T14:12:57.328Z</time>
      </trkpt>
      <trkpt lat="46.87282" lon="8.4698">
        <ele>2235</ele>
        <time>2021-08-11T14:12:58.328Z</time>
      </trkpt>
      <trkpt lat="46.87282" lon="8.4698">
        <ele>2235</ele>
        <time>2021-08-11T14:12:59.327Z</time>
      </trkpt>
      <trkpt lat="46.87282" lon="8.46978">
        <ele>2234</ele>
        <time>2021-08-11T14:13:01.455Z</time>
      </trkpt>
      <trkpt lat="46.87281" lon="8.46977">
        <ele>2234</ele>
        <time>2021-08-11T14:13:02.455Z</time>
      </trkpt>
      <trkpt lat="46.87281" lon="8.46976">
        <ele>2235</ele>
        <time>2021-08-11T14:13:03.455Z</time>
      </trkpt>
      <trkpt lat="46.87281" lon="8.46976">
        <ele>2235</ele>
        <time>2021-08-11T14:13:04.455Z</time>
      </trkpt>
      <trkpt lat="46.8728" lon="8.46975">
        <ele>2235</ele>
        <time>2021-08-11T14:13:05.455Z</time>
      </trkpt>
      <trkpt lat="46.8728" lon="8.46975">
        <ele>2235</ele>
        <time>2021-08-11T14:13:07.580Z</time>
      </trkpt>
      <trkpt lat="46.87279" lon="8.46974">
        <ele>2236</ele>
        <time>2021-08-11T14:13:08.581Z</time>
      </trkpt>
      <trkpt lat="46.87279" lon="8.46973">
        <ele>2236</ele>
        <time>2021-08-11T14:13:09.581Z</time>
      </trkpt>
      <trkpt lat="46.87279" lon="8.46973">
        <ele>2236</ele>
        <time>2021-08-11T14:13:10.580Z</time>
      </trkpt>
      <trkpt lat="46.87279" lon="8.46972">
        <ele>2236</ele>
        <time>2021-08-11T14:13:11.580Z</time>
      </trkpt>
      <trkpt lat="46.87278" lon="8.46971">
        <ele>2237</ele>
        <time>2021-08-11T14:13:27.592Z</time>
      </trkpt>
      <trkpt lat="46.87278" lon="8.4697">
        <ele>2242</ele>
        <time>2021-08-11T14:13:28.593Z</time>
      </trkpt>
      <trkpt lat="46.87278" lon="8.4697">
        <ele>2242</ele>
        <time>2021-08-11T14:13:29.594Z</time>
      </trkpt>
      <trkpt lat="46.87279" lon="8.46971">
        <ele>2242</ele>
        <time>2021-08-11T14:13:30.594Z</time>
      </trkpt>
      <trkpt lat="46.87277" lon="8.4697">
        <ele>2242</ele>
        <time>2021-08-11T14:13:31.595Z</time>
      </trkpt>
      <trkpt lat="46.87277" lon="8.4697">
        <ele>2242</ele>
        <time>2021-08-11T14:13:32.594Z</time>
      </trkpt>
      <trkpt lat="46.87277" lon="8.4697">
        <ele>2243</ele>
        <time>2021-08-11T14:13:33.595Z</time>
      </trkpt>
      <trkpt lat="46.87276" lon="8.4697">
        <ele>2243</ele>
        <time>2021-08-11T14:13:34.596Z</time>
      </trkpt>
      <trkpt lat="46.87276" lon="8.46971">
        <ele>2243</ele>
        <time>2021-08-11T14:13:35.596Z</time>
      </trkpt>
      <trkpt lat="46.87276" lon="8.46971">
        <ele>2243</ele>
        <time>2021-08-11T14:13:56.720Z</time>
      </trkpt>
      <trkpt lat="46.87276" lon="8.4697">
        <ele>2243</ele>
        <time>2021-08-11T14:14:09.597Z</time>
      </trkpt>
      <trkpt lat="46.87276" lon="8.4697">
        <ele>2243</ele>
        <time>2021-08-11T14:14:13.474Z</time>
      </trkpt>
      <trkpt lat="46.87277" lon="8.46968">
        <ele>2241</ele>
        <time>2021-08-11T14:14:14.474Z</time>
      </trkpt>
      <trkpt lat="46.87277" lon="8.46968">
        <ele>2241</ele>
        <time>2021-08-11T14:14:15.474Z</time>
      </trkpt>
      <trkpt lat="46.87276" lon="8.46967">
        <ele>2241</ele>
        <time>2021-08-11T14:14:40.598Z</time>
      </trkpt>
      <trkpt lat="46.87275" lon="8.46968">
        <ele>2240</ele>
        <time>2021-08-11T14:14:44.453Z</time>
      </trkpt>
      <trkpt lat="46.87276" lon="8.46968">
        <ele>2240</ele>
        <time>2021-08-11T14:14:45.453Z</time>
      </trkpt>
      <trkpt lat="46.87275" lon="8.46967">
        <ele>2240</ele>
        <time>2021-08-11T14:14:46.454Z</time>
      </trkpt>
      <trkpt lat="46.87275" lon="8.46967">
        <ele>2240</ele>
        <time>2021-08-11T14:14:47.453Z</time>
      </trkpt>
      <trkpt lat="46.87274" lon="8.46966">
        <ele>2242</ele>
        <time>2021-08-11T14:14:48.454Z</time>
      </trkpt>
      <trkpt lat="46.87274" lon="8.46965">
        <ele>2242</ele>
        <time>2021-08-11T14:14:49.453Z</time>
      </trkpt>
      <trkpt lat="46.87273" lon="8.46964">
        <ele>2243</ele>
        <time>2021-08-11T14:14:50.453Z</time>
      </trkpt>
      <trkpt lat="46.87273" lon="8.46964">
        <ele>2243</ele>
        <time>2021-08-11T14:14:51.454Z</time>
      </trkpt>
      <trkpt lat="46.87274" lon="8.46964">
        <ele>2244</ele>
        <time>2021-08-11T14:15:05.474Z</time>
      </trkpt>
      <trkpt lat="46.87274" lon="8.46964">
        <ele>2244</ele>
        <time>2021-08-11T14:15:06.473Z</time>
      </trkpt>
      <trkpt lat="46.87273" lon="8.46964">
        <ele>2245</ele>
        <time>2021-08-11T14:15:07.473Z</time>
      </trkpt>
      <trkpt lat="46.87273" lon="8.46965">
        <ele>2245</ele>
        <time>2021-08-11T14:15:08.474Z</time>
      </trkpt>
      <trkpt lat="46.87272" lon="8.46965">
        <ele>2245</ele>
        <time>2021-08-11T14:15:09.474Z</time>
      </trkpt>
      <trkpt lat="46.87272" lon="8.46966">
        <ele>2246</ele>
        <time>2021-08-11T14:15:10.473Z</time>
      </trkpt>
      <trkpt lat="46.87271" lon="8.46966">
        <ele>2246</ele>
        <time>2021-08-11T14:15:11.473Z</time>
      </trkpt>
      <trkpt lat="46.87271" lon="8.46965">
        <ele>2246</ele>
        <time>2021-08-11T14:15:12.474Z</time>
      </trkpt>
      <trkpt lat="46.8727" lon="8.46965">
        <ele>2245</ele>
        <time>2021-08-11T14:15:13.473Z</time>
      </trkpt>
      <trkpt lat="46.8727" lon="8.46965">
        <ele>2245</ele>
        <time>2021-08-11T14:15:14.473Z</time>
      </trkpt>
      <trkpt lat="46.8727" lon="8.46965">
        <ele>2245</ele>
        <time>2021-08-11T14:15:15.474Z</time>
      </trkpt>
      <trkpt lat="46.87269" lon="8.46966">
        <ele>2243</ele>
        <time>2021-08-11T14:15:16.474Z</time>
      </trkpt>
      <trkpt lat="46.87269" lon="8.46965">
        <ele>2243</ele>
        <time>2021-08-11T14:15:17.473Z</time>
      </trkpt>
      <trkpt lat="46.87266" lon="8.46965">
        <ele>2242</ele>
        <time>2021-08-11T14:15:18.473Z</time>
      </trkpt>
      <trkpt lat="46.87266" lon="8.46964">
        <ele>2242</ele>
        <time>2021-08-11T14:15:19.474Z</time>
      </trkpt>
      <trkpt lat="46.87265" lon="8.46964">
        <ele>2243</ele>
        <time>2021-08-11T14:15:20.473Z</time>
      </trkpt>
      <trkpt lat="46.87265" lon="8.46964">
        <ele>2243</ele>
        <time>2021-08-11T14:15:21.473Z</time>
      </trkpt>
      <trkpt lat="46.87265" lon="8.46964">
        <ele>2243</ele>
        <time>2021-08-11T14:15:22.474Z</time>
      </trkpt>
      <trkpt lat="46.87265" lon="8.46963">
        <ele>2243</ele>
        <time>2021-08-11T14:15:23.475Z</time>
      </trkpt>
      <trkpt lat="46.87265" lon="8.46963">
        <ele>2242</ele>
        <time>2021-08-11T14:15:29.454Z</time>
      </trkpt>
      <trkpt lat="46.87265" lon="8.46962">
        <ele>2242</ele>
        <time>2021-08-11T14:15:30.453Z</time>
      </trkpt>
      <trkpt lat="46.87266" lon="8.46962">
        <ele>2242</ele>
        <time>2021-08-11T14:15:31.454Z</time>
      </trkpt>
      <trkpt lat="46.87266" lon="8.46962">
        <ele>2242</ele>
        <time>2021-08-11T14:15:32.453Z</time>
      </trkpt>
      <trkpt lat="46.87266" lon="8.46961">
        <ele>2242</ele>
        <time>2021-08-11T14:15:33.454Z</time>
      </trkpt>
      <trkpt lat="46.87266" lon="8.4696">
        <ele>2242</ele>
        <time>2021-08-11T14:15:34.454Z</time>
      </trkpt>
      <trkpt lat="46.87266" lon="8.4696">
        <ele>2241</ele>
        <time>2021-08-11T14:15:35.454Z</time>
      </trkpt>
      <trkpt lat="46.87265" lon="8.46959">
        <ele>2241</ele>
        <time>2021-08-11T14:15:42.452Z</time>
      </trkpt>
      <trkpt lat="46.87265" lon="8.46959">
        <ele>2241</ele>
        <time>2021-08-11T14:15:43.453Z</time>
      </trkpt>
      <trkpt lat="46.87265" lon="8.46958">
        <ele>2241</ele>
        <time>2021-08-11T14:15:51.206Z</time>
      </trkpt>
      <trkpt lat="46.87265" lon="8.46958">
        <ele>2241</ele>
        <time>2021-08-11T14:15:52.205Z</time>
      </trkpt>
      <trkpt lat="46.87265" lon="8.46956">
        <ele>2241</ele>
        <time>2021-08-11T14:15:53.206Z</time>
      </trkpt>
      <trkpt lat="46.87265" lon="8.46955">
        <ele>2241</ele>
        <time>2021-08-11T14:15:54.205Z</time>
      </trkpt>
      <trkpt lat="46.87265" lon="8.46954">
        <ele>2241</ele>
        <time>2021-08-11T14:15:55.206Z</time>
      </trkpt>
      <trkpt lat="46.87265" lon="8.46954">
        <ele>2241</ele>
        <time>2021-08-11T14:16:01.206Z</time>
      </trkpt>
      <trkpt lat="46.87266" lon="8.46954">
        <ele>2241</ele>
        <time>2021-08-11T14:16:02.206Z</time>
      </trkpt>
      <trkpt lat="46.87266" lon="8.46953">
        <ele>2241</ele>
        <time>2021-08-11T14:16:03.205Z</time>
      </trkpt>
      <trkpt lat="46.87267" lon="8.46953">
        <ele>2242</ele>
        <time>2021-08-11T14:16:08.955Z</time>
      </trkpt>
      <trkpt lat="46.87267" lon="8.46953">
        <ele>2242</ele>
        <time>2021-08-11T14:16:09.955Z</time>
      </trkpt>
      <trkpt lat="46.87268" lon="8.46952">
        <ele>2242</ele>
        <time>2021-08-11T14:16:10.955Z</time>
      </trkpt>
      <trkpt lat="46.87267" lon="8.46951">
        <ele>2242</ele>
        <time>2021-08-11T14:16:11.955Z</time>
      </trkpt>
      <trkpt lat="46.87268" lon="8.4695">
        <ele>2243</ele>
        <time>2021-08-11T14:16:12.954Z</time>
      </trkpt>
      <trkpt lat="46.87268" lon="8.4695">
        <ele>2243</ele>
        <time>2021-08-11T14:16:13.955Z</time>
      </trkpt>
      <trkpt lat="46.87268" lon="8.46949">
        <ele>2243</ele>
        <time>2021-08-11T14:16:14.955Z</time>
      </trkpt>
      <trkpt lat="46.87268" lon="8.46949">
        <ele>2243</ele>
        <time>2021-08-11T14:16:15.955Z</time>
      </trkpt>
      <trkpt lat="46.87268" lon="8.46949">
        <ele>2243</ele>
        <time>2021-08-11T14:16:16.955Z</time>
      </trkpt>
      <trkpt lat="46.87268" lon="8.46948">
        <ele>2243</ele>
        <time>2021-08-11T14:16:52.950Z</time>
      </trkpt>
      <trkpt lat="46.87268" lon="8.46948">
        <ele>2243</ele>
        <time>2021-08-11T14:17:08.844Z</time>
      </trkpt>
      <trkpt lat="46.87268" lon="8.46947">
        <ele>2243</ele>
        <time>2021-08-11T14:17:09.844Z</time>
      </trkpt>
      <trkpt lat="46.87269" lon="8.46947">
        <ele>2244</ele>
        <time>2021-08-11T14:17:20.702Z</time>
      </trkpt>
      <trkpt lat="46.87269" lon="8.46947">
        <ele>2244</ele>
        <time>2021-08-11T14:17:21.701Z</time>
      </trkpt>
      <trkpt lat="46.87269" lon="8.46946">
        <ele>2244</ele>
        <time>2021-08-11T14:17:22.702Z</time>
      </trkpt>
      <trkpt lat="46.87269" lon="8.46946">
        <ele>2244</ele>
        <time>2021-08-11T14:17:31.704Z</time>
      </trkpt>
      <trkpt lat="46.8727" lon="8.46946">
        <ele>2244</ele>
        <time>2021-08-11T14:17:32.704Z</time>
      </trkpt>
      <trkpt lat="46.87269" lon="8.46947">
        <ele>2244</ele>
        <time>2021-08-11T14:18:48.578Z</time>
      </trkpt>
      <trkpt lat="46.87269" lon="8.46947">
        <ele>2244</ele>
        <time>2021-08-11T14:18:49.577Z</time>
      </trkpt>
      <trkpt lat="46.87269" lon="8.46948">
        <ele>2244</ele>
        <time>2021-08-11T14:18:59.327Z</time>
      </trkpt>
      <trkpt lat="46.87269" lon="8.46948">
        <ele>2244</ele>
        <time>2021-08-11T14:19:00.327Z</time>
      </trkpt>
      <trkpt lat="46.87267" lon="8.46947">
        <ele>2244</ele>
        <time>2021-08-11T14:19:01.328Z</time>
      </trkpt>
      <trkpt lat="46.87268" lon="8.46947">
        <ele>2244</ele>
        <time>2021-08-11T14:19:02.329Z</time>
      </trkpt>
      <trkpt lat="46.87268" lon="8.46947">
        <ele>2244</ele>
        <time>2021-08-11T14:19:10.476Z</time>
      </trkpt>
      <trkpt lat="46.87268" lon="8.46946">
        <ele>2244</ele>
        <time>2021-08-11T14:19:11.477Z</time>
      </trkpt>
      <trkpt lat="46.87268" lon="8.46945">
        <ele>2245</ele>
        <time>2021-08-11T14:19:12.478Z</time>
      </trkpt>
      <trkpt lat="46.87268" lon="8.46944">
        <ele>2245</ele>
        <time>2021-08-11T14:19:13.478Z</time>
      </trkpt>
      <trkpt lat="46.87268" lon="8.46944">
        <ele>2246</ele>
        <time>2021-08-11T14:19:14.478Z</time>
      </trkpt>
      <trkpt lat="46.87268" lon="8.46943">
        <ele>2246</ele>
        <time>2021-08-11T14:19:20.601Z</time>
      </trkpt>
      <trkpt lat="46.87268" lon="8.46943">
        <ele>2246</ele>
        <time>2021-08-11T14:19:21.601Z</time>
      </trkpt>
      <trkpt lat="46.87267" lon="8.46942">
        <ele>2247</ele>
        <time>2021-08-11T14:19:22.600Z</time>
      </trkpt>
      <trkpt lat="46.87267" lon="8.46942">
        <ele>2247</ele>
        <time>2021-08-11T14:19:23.600Z</time>
      </trkpt>
      <trkpt lat="46.87267" lon="8.46942">
        <ele>2247</ele>
        <time>2021-08-11T14:19:37.725Z</time>
      </trkpt>
      <trkpt lat="46.87266" lon="8.46942">
        <ele>2248</ele>
        <time>2021-08-11T14:19:38.725Z</time>
      </trkpt>
      <trkpt lat="46.87265" lon="8.46942">
        <ele>2248</ele>
        <time>2021-08-11T14:19:39.725Z</time>
      </trkpt>
      <trkpt lat="46.87265" lon="8.46942">
        <ele>2248</ele>
        <time>2021-08-11T14:19:48.853Z</time>
      </trkpt>
      <trkpt lat="46.87266" lon="8.46942">
        <ele>2248</ele>
        <time>2021-08-11T14:19:49.852Z</time>
      </trkpt>
      <trkpt lat="46.87265" lon="8.46941">
        <ele>2248</ele>
        <time>2021-08-11T14:19:50.852Z</time>
      </trkpt>
      <trkpt lat="46.87265" lon="8.4694">
        <ele>2248</ele>
        <time>2021-08-11T14:20:01.972Z</time>
      </trkpt>
      <trkpt lat="46.87264" lon="8.46939">
        <ele>2248</ele>
        <time>2021-08-11T14:20:02.972Z</time>
      </trkpt>
      <trkpt lat="46.87265" lon="8.46939">
        <ele>2249</ele>
        <time>2021-08-11T14:20:03.973Z</time>
      </trkpt>
      <trkpt lat="46.87265" lon="8.46939">
        <ele>2249</ele>
        <time>2021-08-11T14:20:04.972Z</time>
      </trkpt>
      <trkpt lat="46.87264" lon="8.46939">
        <ele>2249</ele>
        <time>2021-08-11T14:20:05.972Z</time>
      </trkpt>
      <trkpt lat="46.87263" lon="8.46939">
        <ele>2250</ele>
        <time>2021-08-11T14:20:06.973Z</time>
      </trkpt>
      <trkpt lat="46.87263" lon="8.46939">
        <ele>2250</ele>
        <time>2021-08-11T14:20:07.973Z</time>
      </trkpt>
      <trkpt lat="46.87262" lon="8.46939">
        <ele>2250</ele>
        <time>2021-08-11T14:20:08.972Z</time>
      </trkpt>
      <trkpt lat="46.87262" lon="8.46939">
        <ele>2251</ele>
        <time>2021-08-11T14:20:14.077Z</time>
      </trkpt>
      <trkpt lat="46.87262" lon="8.46939">
        <ele>2251</ele>
        <time>2021-08-11T14:20:15.077Z</time>
      </trkpt>
      <trkpt lat="46.87261" lon="8.46939">
        <ele>2251</ele>
        <time>2021-08-11T14:20:16.078Z</time>
      </trkpt>
      <trkpt lat="46.87261" lon="8.46938">
        <ele>2252</ele>
        <time>2021-08-11T14:20:25.077Z</time>
      </trkpt>
      <trkpt lat="46.8726" lon="8.46938">
        <ele>2253</ele>
        <time>2021-08-11T14:20:26.077Z</time>
      </trkpt>
      <trkpt lat="46.8726" lon="8.46939">
        <ele>2253</ele>
        <time>2021-08-11T14:20:31.826Z</time>
      </trkpt>
      <trkpt lat="46.8726" lon="8.46939">
        <ele>2253</ele>
        <time>2021-08-11T14:20:32.825Z</time>
      </trkpt>
      <trkpt lat="46.8726" lon="8.46938">
        <ele>2253</ele>
        <time>2021-08-11T14:20:33.825Z</time>
      </trkpt>
      <trkpt lat="46.8726" lon="8.46938">
        <ele>2252</ele>
        <time>2021-08-11T14:20:34.826Z</time>
      </trkpt>
      <trkpt lat="46.8726" lon="8.46938">
        <ele>2252</ele>
        <time>2021-08-11T14:20:35.826Z</time>
      </trkpt>
      <trkpt lat="46.87258" lon="8.46939">
        <ele>2253</ele>
        <time>2021-08-11T14:20:39.954Z</time>
      </trkpt>
      <trkpt lat="46.87258" lon="8.4694">
        <ele>2254</ele>
        <time>2021-08-11T14:20:40.953Z</time>
      </trkpt>
      <trkpt lat="46.87258" lon="8.4694">
        <ele>2254</ele>
        <time>2021-08-11T14:20:48.702Z</time>
      </trkpt>
      <trkpt lat="46.87257" lon="8.4694">
        <ele>2254</ele>
        <time>2021-08-11T14:20:49.703Z</time>
      </trkpt>
      <trkpt lat="46.87257" lon="8.46941">
        <ele>2255</ele>
        <time>2021-08-11T14:20:50.702Z</time>
      </trkpt>
      <trkpt lat="46.87257" lon="8.46942">
        <ele>2256</ele>
        <time>2021-08-11T14:20:51.704Z</time>
      </trkpt>
      <trkpt lat="46.87257" lon="8.46942">
        <ele>2256</ele>
        <time>2021-08-11T14:20:52.704Z</time>
      </trkpt>
      <trkpt lat="46.87257" lon="8.46941">
        <ele>2256</ele>
        <time>2021-08-11T14:20:53.704Z</time>
      </trkpt>
      <trkpt lat="46.87256" lon="8.46941">
        <ele>2257</ele>
        <time>2021-08-11T14:20:54.703Z</time>
      </trkpt>
      <trkpt lat="46.87255" lon="8.46941">
        <ele>2257</ele>
        <time>2021-08-11T14:20:55.703Z</time>
      </trkpt>
      <trkpt lat="46.87255" lon="8.46941">
        <ele>2256</ele>
        <time>2021-08-11T14:20:56.703Z</time>
      </trkpt>
      <trkpt lat="46.87254" lon="8.46939">
        <ele>2263</ele>
        <time>2021-08-11T14:21:11.825Z</time>
      </trkpt>
      <trkpt lat="46.87254" lon="8.46938">
        <ele>2263</ele>
        <time>2021-08-11T14:21:12.826Z</time>
      </trkpt>
      <trkpt lat="46.87254" lon="8.46937">
        <ele>2263</ele>
        <time>2021-08-11T14:21:22.572Z</time>
      </trkpt>
      <trkpt lat="46.87254" lon="8.46936">
        <ele>2264</ele>
        <time>2021-08-11T14:21:23.571Z</time>
      </trkpt>
      <trkpt lat="46.87255" lon="8.46935">
        <ele>2264</ele>
        <time>2021-08-11T14:21:27.472Z</time>
      </trkpt>
      <trkpt lat="46.87255" lon="8.46934">
        <ele>2264</ele>
        <time>2021-08-11T14:21:28.472Z</time>
      </trkpt>
      <trkpt lat="46.87256" lon="8.46934">
        <ele>2264</ele>
        <time>2021-08-11T14:21:29.471Z</time>
      </trkpt>
      <trkpt lat="46.87257" lon="8.46934">
        <ele>2263</ele>
        <time>2021-08-11T14:21:30.471Z</time>
      </trkpt>
      <trkpt lat="46.87257" lon="8.46934">
        <ele>2263</ele>
        <time>2021-08-11T14:21:31.472Z</time>
      </trkpt>
      <trkpt lat="46.87258" lon="8.46934">
        <ele>2262</ele>
        <time>2021-08-11T14:21:32.471Z</time>
      </trkpt>
      <trkpt lat="46.87258" lon="8.46934">
        <ele>2262</ele>
        <time>2021-08-11T14:21:33.471Z</time>
      </trkpt>
      <trkpt lat="46.87258" lon="8.46933">
        <ele>2261</ele>
        <time>2021-08-11T14:21:34.471Z</time>
      </trkpt>
      <trkpt lat="46.87258" lon="8.46933">
        <ele>2261</ele>
        <time>2021-08-11T14:21:36.558Z</time>
      </trkpt>
      <trkpt lat="46.87259" lon="8.46932">
        <ele>2260</ele>
        <time>2021-08-11T14:21:37.557Z</time>
      </trkpt>
      <trkpt lat="46.8726" lon="8.46931">
        <ele>2259</ele>
        <time>2021-08-11T14:21:38.557Z</time>
      </trkpt>
      <trkpt lat="46.87261" lon="8.4693">
        <ele>2259</ele>
        <time>2021-08-11T14:21:39.557Z</time>
      </trkpt>
      <trkpt lat="46.8726" lon="8.4693">
        <ele>2259</ele>
        <time>2021-08-11T14:21:43.594Z</time>
      </trkpt>
      <trkpt lat="46.8726" lon="8.4693">
        <ele>2259</ele>
        <time>2021-08-11T14:21:44.593Z</time>
      </trkpt>
      <trkpt lat="46.8726" lon="8.46929">
        <ele>2258</ele>
        <time>2021-08-11T14:21:58.467Z</time>
      </trkpt>
      <trkpt lat="46.87261" lon="8.46928">
        <ele>2258</ele>
        <time>2021-08-11T14:21:59.468Z</time>
      </trkpt>
      <trkpt lat="46.87261" lon="8.46928">
        <ele>2258</ele>
        <time>2021-08-11T14:22:00.468Z</time>
      </trkpt>
      <trkpt lat="46.87261" lon="8.46927">
        <ele>2258</ele>
        <time>2021-08-11T14:22:01.467Z</time>
      </trkpt>
      <trkpt lat="46.87261" lon="8.46926">
        <ele>2258</ele>
        <time>2021-08-11T14:22:02.468Z</time>
      </trkpt>
      <trkpt lat="46.8726" lon="8.46926">
        <ele>2259</ele>
        <time>2021-08-11T14:22:03.468Z</time>
      </trkpt>
      <trkpt lat="46.8726" lon="8.46926">
        <ele>2259</ele>
        <time>2021-08-11T14:22:09.571Z</time>
      </trkpt>
      <trkpt lat="46.87263" lon="8.4693">
        <ele>2259</ele>
        <time>2021-08-11T14:22:10.572Z</time>
      </trkpt>
      <trkpt lat="46.87263" lon="8.46931">
        <ele>2259</ele>
        <time>2021-08-11T14:22:11.571Z</time>
      </trkpt>
      <trkpt lat="46.87262" lon="8.46931">
        <ele>2260</ele>
        <time>2021-08-11T14:22:12.571Z</time>
      </trkpt>
      <trkpt lat="46.87263" lon="8.46928">
        <ele>2260</ele>
        <time>2021-08-11T14:22:13.572Z</time>
      </trkpt>
      <trkpt lat="46.87264" lon="8.46928">
        <ele>2259</ele>
        <time>2021-08-11T14:22:14.571Z</time>
      </trkpt>
      <trkpt lat="46.87264" lon="8.46927">
        <ele>2259</ele>
        <time>2021-08-11T14:22:15.571Z</time>
      </trkpt>
      <trkpt lat="46.87264" lon="8.46927">
        <ele>2259</ele>
        <time>2021-08-11T14:22:16.572Z</time>
      </trkpt>
      <trkpt lat="46.87264" lon="8.46926">
        <ele>2258</ele>
        <time>2021-08-11T14:22:17.571Z</time>
      </trkpt>
      <trkpt lat="46.87265" lon="8.46926">
        <ele>2258</ele>
        <time>2021-08-11T14:22:18.572Z</time>
      </trkpt>
      <trkpt lat="46.87264" lon="8.46925">
        <ele>2258</ele>
        <time>2021-08-11T14:22:24.697Z</time>
      </trkpt>
      <trkpt lat="46.87264" lon="8.46925">
        <ele>2258</ele>
        <time>2021-08-11T14:22:25.696Z</time>
      </trkpt>
      <trkpt lat="46.87266" lon="8.46924">
        <ele>2257</ele>
        <time>2021-08-11T14:22:26.698Z</time>
      </trkpt>
      <trkpt lat="46.87267" lon="8.46924">
        <ele>2257</ele>
        <time>2021-08-11T14:22:27.698Z</time>
      </trkpt>
      <trkpt lat="46.87267" lon="8.46924">
        <ele>2257</ele>
        <time>2021-08-11T14:22:31.822Z</time>
      </trkpt>
      <trkpt lat="46.87267" lon="8.46924">
        <ele>2258</ele>
        <time>2021-08-11T14:22:32.822Z</time>
      </trkpt>
      <trkpt lat="46.87268" lon="8.46923">
        <ele>2258</ele>
        <time>2021-08-11T14:22:33.821Z</time>
      </trkpt>
      <trkpt lat="46.87268" lon="8.46923">
        <ele>2257</ele>
        <time>2021-08-11T14:22:34.822Z</time>
      </trkpt>
      <trkpt lat="46.87269" lon="8.46923">
        <ele>2257</ele>
        <time>2021-08-11T14:22:35.821Z</time>
      </trkpt>
      <trkpt lat="46.87268" lon="8.46922">
        <ele>2257</ele>
        <time>2021-08-11T14:22:40.948Z</time>
      </trkpt>
      <trkpt lat="46.87269" lon="8.4692">
        <ele>2256</ele>
        <time>2021-08-11T14:22:55.695Z</time>
      </trkpt>
      <trkpt lat="46.8727" lon="8.46919">
        <ele>2256</ele>
        <time>2021-08-11T14:22:57.451Z</time>
      </trkpt>
      <trkpt lat="46.8727" lon="8.46919">
        <ele>2256</ele>
        <time>2021-08-11T14:23:07.217Z</time>
      </trkpt>
      <trkpt lat="46.8727" lon="8.46919">
        <ele>2257</ele>
        <time>2021-08-11T14:23:08.218Z</time>
      </trkpt>
      <trkpt lat="46.87269" lon="8.46918">
        <ele>2257</ele>
        <time>2021-08-11T14:23:09.219Z</time>
      </trkpt>
      <trkpt lat="46.87269" lon="8.46918">
        <ele>2258</ele>
        <time>2021-08-11T14:23:10.218Z</time>
      </trkpt>
      <trkpt lat="46.87269" lon="8.46918">
        <ele>2258</ele>
        <time>2021-08-11T14:23:12.326Z</time>
      </trkpt>
      <trkpt lat="46.87268" lon="8.46918">
        <ele>2259</ele>
        <time>2021-08-11T14:23:13.327Z</time>
      </trkpt>
      <trkpt lat="46.87268" lon="8.46918">
        <ele>2259</ele>
        <time>2021-08-11T14:23:31.065Z</time>
      </trkpt>
      <trkpt lat="46.87268" lon="8.46918">
        <ele>2259</ele>
        <time>2021-08-11T14:23:49.841Z</time>
      </trkpt>
      <trkpt lat="46.87268" lon="8.46918">
        <ele>2260</ele>
        <time>2021-08-11T14:23:50.840Z</time>
      </trkpt>
      <trkpt lat="46.87267" lon="8.46918">
        <ele>2260</ele>
        <time>2021-08-11T14:24:08.718Z</time>
      </trkpt>
      <trkpt lat="46.87267" lon="8.46918">
        <ele>2260</ele>
        <time>2021-08-11T14:24:09.717Z</time>
      </trkpt>
      <trkpt lat="46.87267" lon="8.46918">
        <ele>2260</ele>
        <time>2021-08-11T14:24:10.718Z</time>
      </trkpt>
      <trkpt lat="46.87266" lon="8.46918">
        <ele>2260</ele>
        <time>2021-08-11T14:24:11.718Z</time>
      </trkpt>
      <trkpt lat="46.87266" lon="8.46919">
        <ele>2260</ele>
        <time>2021-08-11T14:24:19.821Z</time>
      </trkpt>
      <trkpt lat="46.87266" lon="8.4692">
        <ele>2260</ele>
        <time>2021-08-11T14:24:20.822Z</time>
      </trkpt>
      <trkpt lat="46.87265" lon="8.4692">
        <ele>2261</ele>
        <time>2021-08-11T14:24:21.821Z</time>
      </trkpt>
      <trkpt lat="46.87265" lon="8.46921">
        <ele>2261</ele>
        <time>2021-08-11T14:24:22.822Z</time>
      </trkpt>
      <trkpt lat="46.87264" lon="8.46921">
        <ele>2261</ele>
        <time>2021-08-11T14:24:23.822Z</time>
      </trkpt>
      <trkpt lat="46.87264" lon="8.46921">
        <ele>2261</ele>
        <time>2021-08-11T14:24:24.821Z</time>
      </trkpt>
      <trkpt lat="46.87263" lon="8.46921">
        <ele>2261</ele>
        <time>2021-08-11T14:24:25.822Z</time>
      </trkpt>
      <trkpt lat="46.87263" lon="8.46922">
        <ele>2261</ele>
        <time>2021-08-11T14:24:26.822Z</time>
      </trkpt>
      <trkpt lat="46.87262" lon="8.46922">
        <ele>2261</ele>
        <time>2021-08-11T14:24:27.822Z</time>
      </trkpt>
      <trkpt lat="46.87262" lon="8.46922">
        <ele>2262</ele>
        <time>2021-08-11T14:24:31.964Z</time>
      </trkpt>
      <trkpt lat="46.87262" lon="8.46922">
        <ele>2262</ele>
        <time>2021-08-11T14:24:32.964Z</time>
      </trkpt>
      <trkpt lat="46.87261" lon="8.46922">
        <ele>2262</ele>
        <time>2021-08-11T14:24:33.964Z</time>
      </trkpt>
      <trkpt lat="46.8726" lon="8.46922">
        <ele>2262</ele>
        <time>2021-08-11T14:24:34.964Z</time>
      </trkpt>
      <trkpt lat="46.8726" lon="8.46922">
        <ele>2262</ele>
        <time>2021-08-11T14:24:35.965Z</time>
      </trkpt>
      <trkpt lat="46.87259" lon="8.46922">
        <ele>2262</ele>
        <time>2021-08-11T14:24:36.965Z</time>
      </trkpt>
      <trkpt lat="46.87259" lon="8.46923">
        <ele>2262</ele>
        <time>2021-08-11T14:24:37.965Z</time>
      </trkpt>
      <trkpt lat="46.87258" lon="8.46923">
        <ele>2262</ele>
        <time>2021-08-11T14:24:38.964Z</time>
      </trkpt>
      <trkpt lat="46.87258" lon="8.46923">
        <ele>2262</ele>
        <time>2021-08-11T14:24:39.964Z</time>
      </trkpt>
      <trkpt lat="46.87258" lon="8.46923">
        <ele>2262</ele>
        <time>2021-08-11T14:24:40.965Z</time>
      </trkpt>
      <trkpt lat="46.87258" lon="8.46922">
        <ele>2262</ele>
        <time>2021-08-11T14:24:41.965Z</time>
      </trkpt>
      <trkpt lat="46.87257" lon="8.46921">
        <ele>2265</ele>
        <time>2021-08-11T14:24:42.966Z</time>
      </trkpt>
      <trkpt lat="46.87256" lon="8.4692">
        <ele>2265</ele>
        <time>2021-08-11T14:24:58.069Z</time>
      </trkpt>
      <trkpt lat="46.87256" lon="8.4692">
        <ele>2266</ele>
        <time>2021-08-11T14:24:59.069Z</time>
      </trkpt>
      <trkpt lat="46.87255" lon="8.4692">
        <ele>2266</ele>
        <time>2021-08-11T14:25:05.943Z</time>
      </trkpt>
      <trkpt lat="46.87255" lon="8.4692">
        <ele>2265</ele>
        <time>2021-08-11T14:25:06.943Z</time>
      </trkpt>
      <trkpt lat="46.87254" lon="8.4692">
        <ele>2265</ele>
        <time>2021-08-11T14:25:07.943Z</time>
      </trkpt>
      <trkpt lat="46.87254" lon="8.4692">
        <ele>2265</ele>
        <time>2021-08-11T14:25:19.067Z</time>
      </trkpt>
      <trkpt lat="46.87253" lon="8.4692">
        <ele>2265</ele>
        <time>2021-08-11T14:25:20.066Z</time>
      </trkpt>
      <trkpt lat="46.87252" lon="8.4692">
        <ele>2265</ele>
        <time>2021-08-11T14:25:21.067Z</time>
      </trkpt>
      <trkpt lat="46.87252" lon="8.46921">
        <ele>2265</ele>
        <time>2021-08-11T14:25:42.088Z</time>
      </trkpt>
      <trkpt lat="46.87251" lon="8.46921">
        <ele>2265</ele>
        <time>2021-08-11T14:25:43.088Z</time>
      </trkpt>
      <trkpt lat="46.87251" lon="8.46921">
        <ele>2265</ele>
        <time>2021-08-11T14:26:02.213Z</time>
      </trkpt>
      <trkpt lat="46.8725" lon="8.46922">
        <ele>2266</ele>
        <time>2021-08-11T14:26:03.213Z</time>
      </trkpt>
      <trkpt lat="46.8725" lon="8.46922">
        <ele>2266</ele>
        <time>2021-08-11T14:26:04.213Z</time>
      </trkpt>
      <trkpt lat="46.8725" lon="8.46922">
        <ele>2266</ele>
        <time>2021-08-11T14:26:13.086Z</time>
      </trkpt>
      <trkpt lat="46.87248" lon="8.46922">
        <ele>2263</ele>
        <time>2021-08-11T14:26:26.963Z</time>
      </trkpt>
      <trkpt lat="46.87246" lon="8.46923">
        <ele>2263</ele>
        <time>2021-08-11T14:26:27.964Z</time>
      </trkpt>
      <trkpt lat="46.87246" lon="8.46923">
        <ele>2263</ele>
        <time>2021-08-11T14:26:28.964Z</time>
      </trkpt>
      <trkpt lat="46.87246" lon="8.46923">
        <ele>2263</ele>
        <time>2021-08-11T14:26:42.941Z</time>
      </trkpt>
      <trkpt lat="46.87245" lon="8.46924">
        <ele>2263</ele>
        <time>2021-08-11T14:26:57.817Z</time>
      </trkpt>
      <trkpt lat="46.87245" lon="8.46924">
        <ele>2265</ele>
        <time>2021-08-11T14:26:58.817Z</time>
      </trkpt>
      <trkpt lat="46.87245" lon="8.46924">
        <ele>2265</ele>
        <time>2021-08-11T14:27:11.587Z</time>
      </trkpt>
      <trkpt lat="46.87244" lon="8.46924">
        <ele>2265</ele>
        <time>2021-08-11T14:27:22.443Z</time>
      </trkpt>
      <trkpt lat="46.87244" lon="8.46924">
        <ele>2265</ele>
        <time>2021-08-11T14:27:23.444Z</time>
      </trkpt>
      <trkpt lat="46.87243" lon="8.46924">
        <ele>2266</ele>
        <time>2021-08-11T14:27:24.443Z</time>
      </trkpt>
      <trkpt lat="46.87243" lon="8.46925">
        <ele>2266</ele>
        <time>2021-08-11T14:27:27.449Z</time>
      </trkpt>
      <trkpt lat="46.87243" lon="8.46925">
        <ele>2266</ele>
        <time>2021-08-11T14:27:37.189Z</time>
      </trkpt>
      <trkpt lat="46.87243" lon="8.46926">
        <ele>2266</ele>
        <time>2021-08-11T14:27:38.190Z</time>
      </trkpt>
      <trkpt lat="46.87242" lon="8.46925">
        <ele>2269</ele>
        <time>2021-08-11T14:27:39.191Z</time>
      </trkpt>
      <trkpt lat="46.87243" lon="8.46925">
        <ele>2272</ele>
        <time>2021-08-11T14:27:53.940Z</time>
      </trkpt>
      <trkpt lat="46.87243" lon="8.46925">
        <ele>2272</ele>
        <time>2021-08-11T14:27:54.939Z</time>
      </trkpt>
      <trkpt lat="46.87243" lon="8.46925">
        <ele>2273</ele>
        <time>2021-08-11T14:27:55.939Z</time>
      </trkpt>
      <trkpt lat="46.87245" lon="8.46922">
        <ele>2276</ele>
        <time>2021-08-11T14:27:56.940Z</time>
      </trkpt>
      <trkpt lat="46.87245" lon="8.46922">
        <ele>2276</ele>
        <time>2021-08-11T14:27:57.940Z</time>
      </trkpt>
      <trkpt lat="46.87245" lon="8.46921">
        <ele>2277</ele>
        <time>2021-08-11T14:28:08.068Z</time>
      </trkpt>
      <trkpt lat="46.87245" lon="8.46921">
        <ele>2277</ele>
        <time>2021-08-11T14:28:09.069Z</time>
      </trkpt>
      <trkpt lat="46.87246" lon="8.4692">
        <ele>2277</ele>
        <time>2021-08-11T14:28:10.069Z</time>
      </trkpt>
      <trkpt lat="46.87245" lon="8.46919">
        <ele>2277</ele>
        <time>2021-08-11T14:28:18.068Z</time>
      </trkpt>
      <trkpt lat="46.87245" lon="8.46918">
        <ele>2277</ele>
        <time>2021-08-11T14:28:19.069Z</time>
      </trkpt>
      <trkpt lat="46.87245" lon="8.46918">
        <ele>2277</ele>
        <time>2021-08-11T14:28:20.069Z</time>
      </trkpt>
      <trkpt lat="46.87245" lon="8.46919">
        <ele>2277</ele>
        <time>2021-08-11T14:31:16.088Z</time>
      </trkpt>
      <trkpt lat="46.87245" lon="8.46919">
        <ele>2277</ele>
        <time>2021-08-11T14:31:17.088Z</time>
      </trkpt>
      <trkpt lat="46.87245" lon="8.46918">
        <ele>2277</ele>
        <time>2021-08-11T14:31:52.942Z</time>
      </trkpt>
      <trkpt lat="46.87244" lon="8.46919">
        <ele>2276</ele>
        <time>2021-08-11T14:31:53.943Z</time>
      </trkpt>
      <trkpt lat="46.87243" lon="8.46918">
        <ele>2276</ele>
        <time>2021-08-11T14:31:54.942Z</time>
      </trkpt>
      <trkpt lat="46.87243" lon="8.46919">
        <ele>2276</ele>
        <time>2021-08-11T14:32:17.065Z</time>
      </trkpt>
      <trkpt lat="46.87242" lon="8.46918">
        <ele>2275</ele>
        <time>2021-08-11T14:32:18.065Z</time>
      </trkpt>
      <trkpt lat="46.87242" lon="8.46918">
        <ele>2275</ele>
        <time>2021-08-11T14:32:26.816Z</time>
      </trkpt>
      <trkpt lat="46.87241" lon="8.46919">
        <ele>2275</ele>
        <time>2021-08-11T14:32:27.816Z</time>
      </trkpt>
      <trkpt lat="46.8724" lon="8.46918">
        <ele>2275</ele>
        <time>2021-08-11T14:32:28.816Z</time>
      </trkpt>
      <trkpt lat="46.8724" lon="8.46918">
        <ele>2276</ele>
        <time>2021-08-11T14:32:29.816Z</time>
      </trkpt>
      <trkpt lat="46.87239" lon="8.46918">
        <ele>2276</ele>
        <time>2021-08-11T14:32:30.815Z</time>
      </trkpt>
      <trkpt lat="46.87239" lon="8.46918">
        <ele>2276</ele>
        <time>2021-08-11T14:32:40.939Z</time>
      </trkpt>
      <trkpt lat="46.87238" lon="8.46918">
        <ele>2277</ele>
        <time>2021-08-11T14:32:41.939Z</time>
      </trkpt>
      <trkpt lat="46.87238" lon="8.46918">
        <ele>2277</ele>
        <time>2021-08-11T14:32:42.939Z</time>
      </trkpt>
      <trkpt lat="46.87238" lon="8.46918">
        <ele>2277</ele>
        <time>2021-08-11T14:32:43.939Z</time>
      </trkpt>
      <trkpt lat="46.87237" lon="8.46918">
        <ele>2278</ele>
        <time>2021-08-11T14:32:44.939Z</time>
      </trkpt>
      <trkpt lat="46.87237" lon="8.46918">
        <ele>2278</ele>
        <time>2021-08-11T14:32:51.064Z</time>
      </trkpt>
      <trkpt lat="46.87236" lon="8.46918">
        <ele>2279</ele>
        <time>2021-08-11T14:32:56.811Z</time>
      </trkpt>
      <trkpt lat="46.87236" lon="8.46918">
        <ele>2279</ele>
        <time>2021-08-11T14:32:57.812Z</time>
      </trkpt>
      <trkpt lat="46.87235" lon="8.46919">
        <ele>2280</ele>
        <time>2021-08-11T14:32:58.811Z</time>
      </trkpt>
      <trkpt lat="46.87235" lon="8.46919">
        <ele>2281</ele>
        <time>2021-08-11T14:33:06.938Z</time>
      </trkpt>
      <trkpt lat="46.87234" lon="8.46919">
        <ele>2281</ele>
        <time>2021-08-11T14:33:19.685Z</time>
      </trkpt>
      <trkpt lat="46.87233" lon="8.46919">
        <ele>2282</ele>
        <time>2021-08-11T14:33:20.686Z</time>
      </trkpt>
      <trkpt lat="46.87233" lon="8.46918">
        <ele>2282</ele>
        <time>2021-08-11T14:33:28.463Z</time>
      </trkpt>
      <trkpt lat="46.87232" lon="8.46918">
        <ele>2282</ele>
        <time>2021-08-11T14:33:29.462Z</time>
      </trkpt>
      <trkpt lat="46.87232" lon="8.46918">
        <ele>2282</ele>
        <time>2021-08-11T14:33:30.463Z</time>
      </trkpt>
      <trkpt lat="46.87231" lon="8.46917">
        <ele>2282</ele>
        <time>2021-08-11T14:33:31.463Z</time>
      </trkpt>
      <trkpt lat="46.87231" lon="8.46918">
        <ele>2282</ele>
        <time>2021-08-11T14:33:32.462Z</time>
      </trkpt>
      <trkpt lat="46.87231" lon="8.46917">
        <ele>2282</ele>
        <time>2021-08-11T14:33:33.463Z</time>
      </trkpt>
      <trkpt lat="46.8723" lon="8.46917">
        <ele>2281</ele>
        <time>2021-08-11T14:33:34.463Z</time>
      </trkpt>
      <trkpt lat="46.8723" lon="8.46916">
        <ele>2281</ele>
        <time>2021-08-11T14:33:57.585Z</time>
      </trkpt>
      <trkpt lat="46.87229" lon="8.46916">
        <ele>2281</ele>
        <time>2021-08-11T14:33:58.584Z</time>
      </trkpt>
      <trkpt lat="46.87229" lon="8.46915">
        <ele>2280</ele>
        <time>2021-08-11T14:34:01.319Z</time>
      </trkpt>
      <trkpt lat="46.87229" lon="8.46915">
        <ele>2280</ele>
        <time>2021-08-11T14:34:02.319Z</time>
      </trkpt>
      <trkpt lat="46.87229" lon="8.46915">
        <ele>2280</ele>
        <time>2021-08-11T14:34:03.319Z</time>
      </trkpt>
      <trkpt lat="46.87229" lon="8.46915">
        <ele>2280</ele>
        <time>2021-08-11T14:34:09.061Z</time>
      </trkpt>
      <trkpt lat="46.8723" lon="8.46914">
        <ele>2280</ele>
        <time>2021-08-11T14:34:10.061Z</time>
      </trkpt>
      <trkpt lat="46.8723" lon="8.46913">
        <ele>2280</ele>
        <time>2021-08-11T14:34:11.061Z</time>
      </trkpt>
      <trkpt lat="46.8723" lon="8.46913">
        <ele>2279</ele>
        <time>2021-08-11T14:34:12.061Z</time>
      </trkpt>
      <trkpt lat="46.8723" lon="8.46912">
        <ele>2279</ele>
        <time>2021-08-11T14:34:18.187Z</time>
      </trkpt>
      <trkpt lat="46.8723" lon="8.46911">
        <ele>2279</ele>
        <time>2021-08-11T14:34:19.186Z</time>
      </trkpt>
      <trkpt lat="46.87229" lon="8.46911">
        <ele>2280</ele>
        <time>2021-08-11T14:34:20.187Z</time>
      </trkpt>
      <trkpt lat="46.87229" lon="8.46911">
        <ele>2280</ele>
        <time>2021-08-11T14:34:25.955Z</time>
      </trkpt>
      <trkpt lat="46.87228" lon="8.4691">
        <ele>2280</ele>
        <time>2021-08-11T14:34:26.954Z</time>
      </trkpt>
      <trkpt lat="46.87228" lon="8.4691">
        <ele>2279</ele>
        <time>2021-08-11T14:34:27.955Z</time>
      </trkpt>
      <trkpt lat="46.87227" lon="8.4691">
        <ele>2279</ele>
        <time>2021-08-11T14:34:28.955Z</time>
      </trkpt>
      <trkpt lat="46.87226" lon="8.46911">
        <ele>2279</ele>
        <time>2021-08-11T14:34:33.060Z</time>
      </trkpt>
      <trkpt lat="46.87226" lon="8.46911">
        <ele>2279</ele>
        <time>2021-08-11T14:34:34.061Z</time>
      </trkpt>
      <trkpt lat="46.87225" lon="8.46911">
        <ele>2279</ele>
        <time>2021-08-11T14:34:38.814Z</time>
      </trkpt>
      <trkpt lat="46.87225" lon="8.4691">
        <ele>2279</ele>
        <time>2021-08-11T14:34:39.813Z</time>
      </trkpt>
      <trkpt lat="46.87224" lon="8.4691">
        <ele>2279</ele>
        <time>2021-08-11T14:34:47.561Z</time>
      </trkpt>
      <trkpt lat="46.87224" lon="8.4691">
        <ele>2280</ele>
        <time>2021-08-11T14:34:48.561Z</time>
      </trkpt>
      <trkpt lat="46.87223" lon="8.4691">
        <ele>2280</ele>
        <time>2021-08-11T14:34:49.560Z</time>
      </trkpt>
      <trkpt lat="46.87222" lon="8.4691">
        <ele>2280</ele>
        <time>2021-08-11T14:34:50.561Z</time>
      </trkpt>
      <trkpt lat="46.87222" lon="8.4691">
        <ele>2280</ele>
        <time>2021-08-11T14:34:51.561Z</time>
      </trkpt>
      <trkpt lat="46.87222" lon="8.4691">
        <ele>2280</ele>
        <time>2021-08-11T14:34:52.560Z</time>
      </trkpt>
      <trkpt lat="46.87221" lon="8.4691">
        <ele>2280</ele>
        <time>2021-08-11T14:34:53.561Z</time>
      </trkpt>
      <trkpt lat="46.87221" lon="8.46909">
        <ele>2286</ele>
        <time>2021-08-11T14:34:54.561Z</time>
      </trkpt>
      <trkpt lat="46.87221" lon="8.46909">
        <ele>2286</ele>
        <time>2021-08-11T14:34:55.560Z</time>
      </trkpt>
      <trkpt lat="46.87221" lon="8.46909">
        <ele>2286</ele>
        <time>2021-08-11T14:34:56.560Z</time>
      </trkpt>
      <trkpt lat="46.87223" lon="8.46909">
        <ele>2284</ele>
        <time>2021-08-11T14:34:57.560Z</time>
      </trkpt>
      <trkpt lat="46.87222" lon="8.46909">
        <ele>2284</ele>
        <time>2021-08-11T14:34:58.560Z</time>
      </trkpt>
      <trkpt lat="46.87222" lon="8.46906">
        <ele>2290</ele>
        <time>2021-08-11T14:35:36.560Z</time>
      </trkpt>
      <trkpt lat="46.87221" lon="8.46905">
        <ele>2289</ele>
        <time>2021-08-11T14:35:37.559Z</time>
      </trkpt>
      <trkpt lat="46.87221" lon="8.46905">
        <ele>2289</ele>
        <time>2021-08-11T14:35:38.559Z</time>
      </trkpt>
      <trkpt lat="46.87221" lon="8.46907">
        <ele>2286</ele>
        <time>2021-08-11T14:35:49.684Z</time>
      </trkpt>
      <trkpt lat="46.87221" lon="8.46907">
        <ele>2286</ele>
        <time>2021-08-11T14:35:57.435Z</time>
      </trkpt>
      <trkpt lat="46.87221" lon="8.46909">
        <ele>2283</ele>
        <time>2021-08-11T14:35:58.434Z</time>
      </trkpt>
      <trkpt lat="46.87221" lon="8.46909">
        <ele>2283</ele>
        <time>2021-08-11T14:36:18.310Z</time>
      </trkpt>
      <trkpt lat="46.87221" lon="8.46909">
        <ele>2282</ele>
        <time>2021-08-11T14:36:19.309Z</time>
      </trkpt>
      <trkpt lat="46.87223" lon="8.46911">
        <ele>2280</ele>
        <time>2021-08-11T14:36:20.310Z</time>
      </trkpt>
      <trkpt lat="46.87223" lon="8.46911">
        <ele>2280</ele>
        <time>2021-08-11T14:36:21.311Z</time>
      </trkpt>
      <trkpt lat="46.87223" lon="8.46911">
        <ele>2280</ele>
        <time>2021-08-11T14:36:23.413Z</time>
      </trkpt>
      <trkpt lat="46.87224" lon="8.46911">
        <ele>2280</ele>
        <time>2021-08-11T14:36:24.413Z</time>
      </trkpt>
      <trkpt lat="46.87223" lon="8.4691">
        <ele>2280</ele>
        <time>2021-08-11T14:36:25.414Z</time>
      </trkpt>
      <trkpt lat="46.87223" lon="8.4691">
        <ele>2280</ele>
        <time>2021-08-11T14:36:26.413Z</time>
      </trkpt>
      <trkpt lat="46.87224" lon="8.4691">
        <ele>2279</ele>
        <time>2021-08-11T14:36:27.413Z</time>
      </trkpt>
      <trkpt lat="46.87223" lon="8.46904">
        <ele>2278</ele>
        <time>2021-08-11T14:36:28.414Z</time>
      </trkpt>
      <trkpt lat="46.87223" lon="8.46902">
        <ele>2278</ele>
        <time>2021-08-11T14:36:29.413Z</time>
      </trkpt>
      <trkpt lat="46.87223" lon="8.46903">
        <ele>2278</ele>
        <time>2021-08-11T14:36:33.431Z</time>
      </trkpt>
      <trkpt lat="46.87223" lon="8.46903">
        <ele>2278</ele>
        <time>2021-08-11T14:36:34.431Z</time>
      </trkpt>
      <trkpt lat="46.87224" lon="8.46906">
        <ele>2278</ele>
        <time>2021-08-11T14:36:35.432Z</time>
      </trkpt>
      <trkpt lat="46.87225" lon="8.46907">
        <ele>2277</ele>
        <time>2021-08-11T14:36:36.433Z</time>
      </trkpt>
      <trkpt lat="46.87225" lon="8.46907">
        <ele>2277</ele>
        <time>2021-08-11T14:36:37.433Z</time>
      </trkpt>
      <trkpt lat="46.87225" lon="8.46907">
        <ele>2277</ele>
        <time>2021-08-11T14:36:38.432Z</time>
      </trkpt>
      <trkpt lat="46.87225" lon="8.46907">
        <ele>2277</ele>
        <time>2021-08-11T14:36:39.432Z</time>
      </trkpt>
      <trkpt lat="46.87225" lon="8.46907">
        <ele>2277</ele>
        <time>2021-08-11T14:36:41.435Z</time>
      </trkpt>
      <trkpt lat="46.87225" lon="8.46906">
        <ele>2278</ele>
        <time>2021-08-11T14:36:42.435Z</time>
      </trkpt>
      <trkpt lat="46.87225" lon="8.46907">
        <ele>2278</ele>
        <time>2021-08-11T14:36:43.434Z</time>
      </trkpt>
      <trkpt lat="46.87222" lon="8.46905">
        <ele>2280</ele>
        <time>2021-08-11T14:36:44.434Z</time>
      </trkpt>
      <trkpt lat="46.87222" lon="8.46904">
        <ele>2280</ele>
        <time>2021-08-11T14:36:45.434Z</time>
      </trkpt>
      <trkpt lat="46.87223" lon="8.46904">
        <ele>2279</ele>
        <time>2021-08-11T14:36:46.435Z</time>
      </trkpt>
      <trkpt lat="46.87224" lon="8.46903">
        <ele>2278</ele>
        <time>2021-08-11T14:36:47.436Z</time>
      </trkpt>
      <trkpt lat="46.87224" lon="8.46903">
        <ele>2278</ele>
        <time>2021-08-11T14:36:48.436Z</time>
      </trkpt>
      <trkpt lat="46.87224" lon="8.46903">
        <ele>2278</ele>
        <time>2021-08-11T14:36:49.435Z</time>
      </trkpt>
      <trkpt lat="46.87225" lon="8.46902">
        <ele>2278</ele>
        <time>2021-08-11T14:36:50.436Z</time>
      </trkpt>
      <trkpt lat="46.87225" lon="8.46902">
        <ele>2278</ele>
        <time>2021-08-11T14:36:56.553Z</time>
      </trkpt>
      <trkpt lat="46.87225" lon="8.46902">
        <ele>2278</ele>
        <time>2021-08-11T14:36:57.553Z</time>
      </trkpt>
      <trkpt lat="46.87226" lon="8.46902">
        <ele>2279</ele>
        <time>2021-08-11T14:37:15.348Z</time>
      </trkpt>
      <trkpt lat="46.87227" lon="8.46902">
        <ele>2279</ele>
        <time>2021-08-11T14:37:16.347Z</time>
      </trkpt>
      <trkpt lat="46.87227" lon="8.46902">
        <ele>2279</ele>
        <time>2021-08-11T14:37:19.166Z</time>
      </trkpt>
      <trkpt lat="46.87228" lon="8.46902">
        <ele>2279</ele>
        <time>2021-08-11T14:37:20.166Z</time>
      </trkpt>
      <trkpt lat="46.87229" lon="8.46901">
        <ele>2279</ele>
        <time>2021-08-11T14:37:21.166Z</time>
      </trkpt>
      <trkpt lat="46.87229" lon="8.46901">
        <ele>2280</ele>
        <time>2021-08-11T14:37:22.166Z</time>
      </trkpt>
      <trkpt lat="46.8723" lon="8.46901">
        <ele>2280</ele>
        <time>2021-08-11T14:37:23.166Z</time>
      </trkpt>
      <trkpt lat="46.8723" lon="8.469">
        <ele>2280</ele>
        <time>2021-08-11T14:37:24.165Z</time>
      </trkpt>
      <trkpt lat="46.87231" lon="8.469">
        <ele>2281</ele>
        <time>2021-08-11T14:37:25.166Z</time>
      </trkpt>
      <trkpt lat="46.87231" lon="8.46898">
        <ele>2281</ele>
        <time>2021-08-11T14:37:26.166Z</time>
      </trkpt>
      <trkpt lat="46.87231" lon="8.46897">
        <ele>2281</ele>
        <time>2021-08-11T14:37:27.165Z</time>
      </trkpt>
      <trkpt lat="46.87232" lon="8.46896">
        <ele>2282</ele>
        <time>2021-08-11T14:37:28.165Z</time>
      </trkpt>
      <trkpt lat="46.87232" lon="8.46895">
        <ele>2282</ele>
        <time>2021-08-11T14:37:29.166Z</time>
      </trkpt>
      <trkpt lat="46.87232" lon="8.46894">
        <ele>2283</ele>
        <time>2021-08-11T14:37:30.166Z</time>
      </trkpt>
      <trkpt lat="46.87233" lon="8.46893">
        <ele>2283</ele>
        <time>2021-08-11T14:37:31.166Z</time>
      </trkpt>
      <trkpt lat="46.87233" lon="8.46892">
        <ele>2284</ele>
        <time>2021-08-11T14:37:32.166Z</time>
      </trkpt>
      <trkpt lat="46.87234" lon="8.46891">
        <ele>2284</ele>
        <time>2021-08-11T14:37:33.165Z</time>
      </trkpt>
      <trkpt lat="46.87235" lon="8.46891">
        <ele>2284</ele>
        <time>2021-08-11T14:37:34.166Z</time>
      </trkpt>
      <trkpt lat="46.87235" lon="8.46891">
        <ele>2285</ele>
        <time>2021-08-11T14:37:35.165Z</time>
      </trkpt>
      <trkpt lat="46.87236" lon="8.4689">
        <ele>2285</ele>
        <time>2021-08-11T14:37:36.166Z</time>
      </trkpt>
      <trkpt lat="46.87237" lon="8.4689">
        <ele>2285</ele>
        <time>2021-08-11T14:37:37.166Z</time>
      </trkpt>
      <trkpt lat="46.87237" lon="8.46891">
        <ele>2285</ele>
        <time>2021-08-11T14:37:38.166Z</time>
      </trkpt>
      <trkpt lat="46.87237" lon="8.46891">
        <ele>2285</ele>
        <time>2021-08-11T14:37:39.165Z</time>
      </trkpt>
      <trkpt lat="46.87238" lon="8.46891">
        <ele>2286</ele>
        <time>2021-08-11T14:37:40.165Z</time>
      </trkpt>
      <trkpt lat="46.87239" lon="8.46891">
        <ele>2286</ele>
        <time>2021-08-11T14:37:41.166Z</time>
      </trkpt>
      <trkpt lat="46.87239" lon="8.4689">
        <ele>2286</ele>
        <time>2021-08-11T14:37:42.166Z</time>
      </trkpt>
      <trkpt lat="46.87241" lon="8.4689">
        <ele>2286</ele>
        <time>2021-08-11T14:37:43.166Z</time>
      </trkpt>
      <trkpt lat="46.87242" lon="8.4689">
        <ele>2286</ele>
        <time>2021-08-11T14:37:44.166Z</time>
      </trkpt>
      <trkpt lat="46.87242" lon="8.46889">
        <ele>2286</ele>
        <time>2021-08-11T14:37:45.165Z</time>
      </trkpt>
      <trkpt lat="46.87242" lon="8.46889">
        <ele>2286</ele>
        <time>2021-08-11T14:37:46.166Z</time>
      </trkpt>
      <trkpt lat="46.87243" lon="8.46888">
        <ele>2286</ele>
        <time>2021-08-11T14:37:47.165Z</time>
      </trkpt>
      <trkpt lat="46.87243" lon="8.46888">
        <ele>2286</ele>
        <time>2021-08-11T14:37:48.166Z</time>
      </trkpt>
      <trkpt lat="46.87244" lon="8.46888">
        <ele>2287</ele>
        <time>2021-08-11T14:37:49.165Z</time>
      </trkpt>
      <trkpt lat="46.87244" lon="8.46888">
        <ele>2287</ele>
        <time>2021-08-11T14:37:50.165Z</time>
      </trkpt>
      <trkpt lat="46.87245" lon="8.46887">
        <ele>2287</ele>
        <time>2021-08-11T14:37:51.165Z</time>
      </trkpt>
      <trkpt lat="46.87245" lon="8.46887">
        <ele>2287</ele>
        <time>2021-08-11T14:37:52.166Z</time>
      </trkpt>
      <trkpt lat="46.87246" lon="8.46886">
        <ele>2288</ele>
        <time>2021-08-11T14:37:53.166Z</time>
      </trkpt>
      <trkpt lat="46.87247" lon="8.46886">
        <ele>2288</ele>
        <time>2021-08-11T14:37:54.167Z</time>
      </trkpt>
      <trkpt lat="46.87247" lon="8.46886">
        <ele>2287</ele>
        <time>2021-08-11T14:37:55.166Z</time>
      </trkpt>
      <trkpt lat="46.87248" lon="8.46885">
        <ele>2287</ele>
        <time>2021-08-11T14:37:56.166Z</time>
      </trkpt>
      <trkpt lat="46.87249" lon="8.46885">
        <ele>2287</ele>
        <time>2021-08-11T14:37:57.167Z</time>
      </trkpt>
      <trkpt lat="46.87249" lon="8.46884">
        <ele>2287</ele>
        <time>2021-08-11T14:37:58.167Z</time>
      </trkpt>
      <trkpt lat="46.8725" lon="8.46884">
        <ele>2286</ele>
        <time>2021-08-11T14:37:59.167Z</time>
      </trkpt>
      <trkpt lat="46.8725" lon="8.46883">
        <ele>2286</ele>
        <time>2021-08-11T14:38:00.167Z</time>
      </trkpt>
      <trkpt lat="46.87251" lon="8.46883">
        <ele>2286</ele>
        <time>2021-08-11T14:38:01.166Z</time>
      </trkpt>
      <trkpt lat="46.87252" lon="8.46883">
        <ele>2286</ele>
        <time>2021-08-11T14:38:02.167Z</time>
      </trkpt>
      <trkpt lat="46.87252" lon="8.46884">
        <ele>2286</ele>
        <time>2021-08-11T14:38:03.166Z</time>
      </trkpt>
      <trkpt lat="46.87253" lon="8.46883">
        <ele>2286</ele>
        <time>2021-08-11T14:38:04.167Z</time>
      </trkpt>
      <trkpt lat="46.87253" lon="8.46883">
        <ele>2287</ele>
        <time>2021-08-11T14:38:05.167Z</time>
      </trkpt>
      <trkpt lat="46.87254" lon="8.46882">
        <ele>2287</ele>
        <time>2021-08-11T14:38:06.166Z</time>
      </trkpt>
      <trkpt lat="46.87254" lon="8.46881">
        <ele>2287</ele>
        <time>2021-08-11T14:38:07.167Z</time>
      </trkpt>
      <trkpt lat="46.87255" lon="8.46881">
        <ele>2287</ele>
        <time>2021-08-11T14:38:08.166Z</time>
      </trkpt>
      <trkpt lat="46.87255" lon="8.46881">
        <ele>2287</ele>
        <time>2021-08-11T14:38:09.166Z</time>
      </trkpt>
      <trkpt lat="46.87256" lon="8.4688">
        <ele>2287</ele>
        <time>2021-08-11T14:38:10.167Z</time>
      </trkpt>
      <trkpt lat="46.87257" lon="8.46879">
        <ele>2286</ele>
        <time>2021-08-11T14:38:11.167Z</time>
      </trkpt>
      <trkpt lat="46.87259" lon="8.4688">
        <ele>2286</ele>
        <time>2021-08-11T14:38:12.167Z</time>
      </trkpt>
      <trkpt lat="46.8726" lon="8.4688">
        <ele>2285</ele>
        <time>2021-08-11T14:38:13.167Z</time>
      </trkpt>
      <trkpt lat="46.87261" lon="8.4688">
        <ele>2285</ele>
        <time>2021-08-11T14:38:14.167Z</time>
      </trkpt>
      <trkpt lat="46.87262" lon="8.4688">
        <ele>2285</ele>
        <time>2021-08-11T14:38:15.166Z</time>
      </trkpt>
      <trkpt lat="46.87263" lon="8.4688">
        <ele>2285</ele>
        <time>2021-08-11T14:38:16.167Z</time>
      </trkpt>
      <trkpt lat="46.87264" lon="8.46879">
        <ele>2285</ele>
        <time>2021-08-11T14:38:17.166Z</time>
      </trkpt>
      <trkpt lat="46.87265" lon="8.46879">
        <ele>2284</ele>
        <time>2021-08-11T14:38:18.166Z</time>
      </trkpt>
      <trkpt lat="46.87266" lon="8.46878">
        <ele>2285</ele>
        <time>2021-08-11T14:38:19.167Z</time>
      </trkpt>
      <trkpt lat="46.87267" lon="8.46877">
        <ele>2285</ele>
        <time>2021-08-11T14:38:20.167Z</time>
      </trkpt>
      <trkpt lat="46.87267" lon="8.46876">
        <ele>2285</ele>
        <time>2021-08-11T14:38:21.167Z</time>
      </trkpt>
      <trkpt lat="46.87269" lon="8.46875">
        <ele>2285</ele>
        <time>2021-08-11T14:38:22.167Z</time>
      </trkpt>
      <trkpt lat="46.87269" lon="8.46875">
        <ele>2285</ele>
        <time>2021-08-11T14:38:23.166Z</time>
      </trkpt>
      <trkpt lat="46.8727" lon="8.46874">
        <ele>2285</ele>
        <time>2021-08-11T14:38:24.167Z</time>
      </trkpt>
      <trkpt lat="46.87271" lon="8.46873">
        <ele>2285</ele>
        <time>2021-08-11T14:38:25.167Z</time>
      </trkpt>
      <trkpt lat="46.87271" lon="8.46872">
        <ele>2286</ele>
        <time>2021-08-11T14:38:26.167Z</time>
      </trkpt>
      <trkpt lat="46.87272" lon="8.46871">
        <ele>2286</ele>
        <time>2021-08-11T14:38:27.167Z</time>
      </trkpt>
      <trkpt lat="46.87273" lon="8.4687">
        <ele>2286</ele>
        <time>2021-08-11T14:38:28.166Z</time>
      </trkpt>
      <trkpt lat="46.87273" lon="8.46869">
        <ele>2287</ele>
        <time>2021-08-11T14:38:29.167Z</time>
      </trkpt>
      <trkpt lat="46.87274" lon="8.46868">
        <ele>2287</ele>
        <time>2021-08-11T14:38:30.167Z</time>
      </trkpt>
      <trkpt lat="46.87274" lon="8.46868">
        <ele>2287</ele>
        <time>2021-08-11T14:38:31.167Z</time>
      </trkpt>
      <trkpt lat="46.87274" lon="8.46867">
        <ele>2287</ele>
        <time>2021-08-11T14:38:32.167Z</time>
      </trkpt>
      <trkpt lat="46.87275" lon="8.46867">
        <ele>2287</ele>
        <time>2021-08-11T14:38:33.166Z</time>
      </trkpt>
      <trkpt lat="46.87276" lon="8.46867">
        <ele>2287</ele>
        <time>2021-08-11T14:38:34.166Z</time>
      </trkpt>
      <trkpt lat="46.87276" lon="8.46866">
        <ele>2287</ele>
        <time>2021-08-11T14:38:35.167Z</time>
      </trkpt>
      <trkpt lat="46.87277" lon="8.46866">
        <ele>2288</ele>
        <time>2021-08-11T14:38:36.167Z</time>
      </trkpt>
      <trkpt lat="46.87278" lon="8.46865">
        <ele>2288</ele>
        <time>2021-08-11T14:38:37.167Z</time>
      </trkpt>
      <trkpt lat="46.87278" lon="8.46864">
        <ele>2288</ele>
        <time>2021-08-11T14:38:38.167Z</time>
      </trkpt>
      <trkpt lat="46.87278" lon="8.46864">
        <ele>2288</ele>
        <time>2021-08-11T14:38:39.166Z</time>
      </trkpt>
      <trkpt lat="46.87278" lon="8.46864">
        <ele>2287</ele>
        <time>2021-08-11T14:38:40.167Z</time>
      </trkpt>
      <trkpt lat="46.87279" lon="8.46863">
        <ele>2287</ele>
        <time>2021-08-11T14:38:41.166Z</time>
      </trkpt>
      <trkpt lat="46.8728" lon="8.46862">
        <ele>2287</ele>
        <time>2021-08-11T14:38:42.167Z</time>
      </trkpt>
      <trkpt lat="46.8728" lon="8.46862">
        <ele>2286</ele>
        <time>2021-08-11T14:38:43.166Z</time>
      </trkpt>
      <trkpt lat="46.87281" lon="8.46861">
        <ele>2286</ele>
        <time>2021-08-11T14:38:44.166Z</time>
      </trkpt>
      <trkpt lat="46.87282" lon="8.46861">
        <ele>2286</ele>
        <time>2021-08-11T14:38:45.167Z</time>
      </trkpt>
      <trkpt lat="46.87282" lon="8.4686">
        <ele>2286</ele>
        <time>2021-08-11T14:38:46.167Z</time>
      </trkpt>
      <trkpt lat="46.87283" lon="8.4686">
        <ele>2286</ele>
        <time>2021-08-11T14:38:47.167Z</time>
      </trkpt>
      <trkpt lat="46.87284" lon="8.4686">
        <ele>2286</ele>
        <time>2021-08-11T14:38:48.166Z</time>
      </trkpt>
      <trkpt lat="46.87285" lon="8.4686">
        <ele>2286</ele>
        <time>2021-08-11T14:38:49.167Z</time>
      </trkpt>
      <trkpt lat="46.87286" lon="8.4686">
        <ele>2286</ele>
        <time>2021-08-11T14:38:50.167Z</time>
      </trkpt>
      <trkpt lat="46.87287" lon="8.46859">
        <ele>2286</ele>
        <time>2021-08-11T14:38:51.166Z</time>
      </trkpt>
      <trkpt lat="46.87288" lon="8.46859">
        <ele>2286</ele>
        <time>2021-08-11T14:38:52.167Z</time>
      </trkpt>
      <trkpt lat="46.87288" lon="8.46859">
        <ele>2286</ele>
        <time>2021-08-11T14:38:53.167Z</time>
      </trkpt>
      <trkpt lat="46.87289" lon="8.46858">
        <ele>2286</ele>
        <time>2021-08-11T14:38:54.167Z</time>
      </trkpt>
      <trkpt lat="46.8729" lon="8.46858">
        <ele>2286</ele>
        <time>2021-08-11T14:38:55.167Z</time>
      </trkpt>
      <trkpt lat="46.87291" lon="8.46857">
        <ele>2286</ele>
        <time>2021-08-11T14:38:56.166Z</time>
      </trkpt>
      <trkpt lat="46.87291" lon="8.46856">
        <ele>2286</ele>
        <time>2021-08-11T14:38:57.167Z</time>
      </trkpt>
      <trkpt lat="46.87291" lon="8.46856">
        <ele>2286</ele>
        <time>2021-08-11T14:38:58.167Z</time>
      </trkpt>
      <trkpt lat="46.87291" lon="8.46855">
        <ele>2286</ele>
        <time>2021-08-11T14:38:59.167Z</time>
      </trkpt>
      <trkpt lat="46.8729" lon="8.46854">
        <ele>2286</ele>
        <time>2021-08-11T14:39:00.167Z</time>
      </trkpt>
      <trkpt lat="46.87291" lon="8.46854">
        <ele>2287</ele>
        <time>2021-08-11T14:39:01.167Z</time>
      </trkpt>
      <trkpt lat="46.87291" lon="8.46853">
        <ele>2287</ele>
        <time>2021-08-11T14:39:02.166Z</time>
      </trkpt>
      <trkpt lat="46.87291" lon="8.46852">
        <ele>2287</ele>
        <time>2021-08-11T14:39:03.167Z</time>
      </trkpt>
      <trkpt lat="46.87292" lon="8.46852">
        <ele>2288</ele>
        <time>2021-08-11T14:39:04.166Z</time>
      </trkpt>
      <trkpt lat="46.87293" lon="8.46851">
        <ele>2288</ele>
        <time>2021-08-11T14:39:05.166Z</time>
      </trkpt>
      <trkpt lat="46.87293" lon="8.46851">
        <ele>2288</ele>
        <time>2021-08-11T14:39:06.167Z</time>
      </trkpt>
      <trkpt lat="46.87294" lon="8.4685">
        <ele>2289</ele>
        <time>2021-08-11T14:39:07.166Z</time>
      </trkpt>
      <trkpt lat="46.87294" lon="8.4685">
        <ele>2289</ele>
        <time>2021-08-11T14:39:08.167Z</time>
      </trkpt>
      <trkpt lat="46.87294" lon="8.46848">
        <ele>2290</ele>
        <time>2021-08-11T14:39:09.167Z</time>
      </trkpt>
      <trkpt lat="46.87294" lon="8.46847">
        <ele>2290</ele>
        <time>2021-08-11T14:39:10.166Z</time>
      </trkpt>
      <trkpt lat="46.87295" lon="8.46846">
        <ele>2290</ele>
        <time>2021-08-11T14:39:11.166Z</time>
      </trkpt>
      <trkpt lat="46.87295" lon="8.46846">
        <ele>2291</ele>
        <time>2021-08-11T14:39:12.167Z</time>
      </trkpt>
      <trkpt lat="46.87295" lon="8.46845">
        <ele>2291</ele>
        <time>2021-08-11T14:39:13.166Z</time>
      </trkpt>
      <trkpt lat="46.87296" lon="8.46845">
        <ele>2292</ele>
        <time>2021-08-11T14:39:14.167Z</time>
      </trkpt>
      <trkpt lat="46.87297" lon="8.46844">
        <ele>2292</ele>
        <time>2021-08-11T14:39:15.167Z</time>
      </trkpt>
      <trkpt lat="46.87297" lon="8.46844">
        <ele>2293</ele>
        <time>2021-08-11T14:39:16.167Z</time>
      </trkpt>
      <trkpt lat="46.87297" lon="8.46843">
        <ele>2294</ele>
        <time>2021-08-11T14:39:17.167Z</time>
      </trkpt>
      <trkpt lat="46.87298" lon="8.46842">
        <ele>2294</ele>
        <time>2021-08-11T14:39:18.166Z</time>
      </trkpt>
      <trkpt lat="46.87298" lon="8.46842">
        <ele>2295</ele>
        <time>2021-08-11T14:39:19.167Z</time>
      </trkpt>
      <trkpt lat="46.87299" lon="8.46841">
        <ele>2295</ele>
        <time>2021-08-11T14:39:20.167Z</time>
      </trkpt>
      <trkpt lat="46.87299" lon="8.4684">
        <ele>2296</ele>
        <time>2021-08-11T14:39:21.167Z</time>
      </trkpt>
      <trkpt lat="46.87299" lon="8.46838">
        <ele>2296</ele>
        <time>2021-08-11T14:39:22.166Z</time>
      </trkpt>
      <trkpt lat="46.873" lon="8.46837">
        <ele>2296</ele>
        <time>2021-08-11T14:39:23.166Z</time>
      </trkpt>
      <trkpt lat="46.873" lon="8.46836">
        <ele>2296</ele>
        <time>2021-08-11T14:39:24.166Z</time>
      </trkpt>
      <trkpt lat="46.873" lon="8.46835">
        <ele>2296</ele>
        <time>2021-08-11T14:39:25.167Z</time>
      </trkpt>
      <trkpt lat="46.873" lon="8.46834">
        <ele>2296</ele>
        <time>2021-08-11T14:39:26.167Z</time>
      </trkpt>
      <trkpt lat="46.873" lon="8.46832">
        <ele>2296</ele>
        <time>2021-08-11T14:39:27.167Z</time>
      </trkpt>
      <trkpt lat="46.87301" lon="8.46832">
        <ele>2296</ele>
        <time>2021-08-11T14:39:28.166Z</time>
      </trkpt>
      <trkpt lat="46.87301" lon="8.46831">
        <ele>2296</ele>
        <time>2021-08-11T14:39:29.166Z</time>
      </trkpt>
      <trkpt lat="46.87301" lon="8.46831">
        <ele>2296</ele>
        <time>2021-08-11T14:39:30.166Z</time>
      </trkpt>
      <trkpt lat="46.87301" lon="8.4683">
        <ele>2296</ele>
        <time>2021-08-11T14:39:31.167Z</time>
      </trkpt>
      <trkpt lat="46.87302" lon="8.46829">
        <ele>2296</ele>
        <time>2021-08-11T14:39:32.167Z</time>
      </trkpt>
      <trkpt lat="46.87302" lon="8.46828">
        <ele>2296</ele>
        <time>2021-08-11T14:39:33.167Z</time>
      </trkpt>
      <trkpt lat="46.87302" lon="8.46827">
        <ele>2297</ele>
        <time>2021-08-11T14:39:34.166Z</time>
      </trkpt>
      <trkpt lat="46.87302" lon="8.46826">
        <ele>2297</ele>
        <time>2021-08-11T14:39:35.167Z</time>
      </trkpt>
      <trkpt lat="46.87302" lon="8.46825">
        <ele>2298</ele>
        <time>2021-08-11T14:39:36.167Z</time>
      </trkpt>
      <trkpt lat="46.87302" lon="8.46824">
        <ele>2298</ele>
        <time>2021-08-11T14:39:37.166Z</time>
      </trkpt>
      <trkpt lat="46.87301" lon="8.46822">
        <ele>2298</ele>
        <time>2021-08-11T14:39:38.166Z</time>
      </trkpt>
      <trkpt lat="46.87301" lon="8.46821">
        <ele>2298</ele>
        <time>2021-08-11T14:39:39.167Z</time>
      </trkpt>
      <trkpt lat="46.87302" lon="8.4682">
        <ele>2298</ele>
        <time>2021-08-11T14:39:40.166Z</time>
      </trkpt>
      <trkpt lat="46.87302" lon="8.4682">
        <ele>2298</ele>
        <time>2021-08-11T14:39:41.166Z</time>
      </trkpt>
      <trkpt lat="46.87303" lon="8.46819">
        <ele>2298</ele>
        <time>2021-08-11T14:39:42.167Z</time>
      </trkpt>
      <trkpt lat="46.87303" lon="8.46818">
        <ele>2298</ele>
        <time>2021-08-11T14:39:43.167Z</time>
      </trkpt>
      <trkpt lat="46.87303" lon="8.46817">
        <ele>2298</ele>
        <time>2021-08-11T14:39:44.167Z</time>
      </trkpt>
      <trkpt lat="46.87304" lon="8.46817">
        <ele>2298</ele>
        <time>2021-08-11T14:39:45.166Z</time>
      </trkpt>
      <trkpt lat="46.87305" lon="8.46816">
        <ele>2298</ele>
        <time>2021-08-11T14:39:46.166Z</time>
      </trkpt>
      <trkpt lat="46.87305" lon="8.46816">
        <ele>2298</ele>
        <time>2021-08-11T14:39:47.167Z</time>
      </trkpt>
      <trkpt lat="46.87306" lon="8.46816">
        <ele>2298</ele>
        <time>2021-08-11T14:39:48.166Z</time>
      </trkpt>
      <trkpt lat="46.87306" lon="8.46816">
        <ele>2298</ele>
        <time>2021-08-11T14:39:49.166Z</time>
      </trkpt>
      <trkpt lat="46.87308" lon="8.46815">
        <ele>2298</ele>
        <time>2021-08-11T14:39:50.167Z</time>
      </trkpt>
      <trkpt lat="46.87308" lon="8.46814">
        <ele>2298</ele>
        <time>2021-08-11T14:39:51.167Z</time>
      </trkpt>
      <trkpt lat="46.87308" lon="8.46814">
        <ele>2298</ele>
        <time>2021-08-11T14:39:52.167Z</time>
      </trkpt>
      <trkpt lat="46.87309" lon="8.46814">
        <ele>2298</ele>
        <time>2021-08-11T14:39:53.166Z</time>
      </trkpt>
      <trkpt lat="46.87309" lon="8.46814">
        <ele>2298</ele>
        <time>2021-08-11T14:39:54.167Z</time>
      </trkpt>
      <trkpt lat="46.8731" lon="8.46814">
        <ele>2298</ele>
        <time>2021-08-11T14:39:55.166Z</time>
      </trkpt>
      <trkpt lat="46.87311" lon="8.46814">
        <ele>2298</ele>
        <time>2021-08-11T14:39:56.167Z</time>
      </trkpt>
      <trkpt lat="46.87311" lon="8.46813">
        <ele>2299</ele>
        <time>2021-08-11T14:39:57.167Z</time>
      </trkpt>
      <trkpt lat="46.87312" lon="8.46813">
        <ele>2299</ele>
        <time>2021-08-11T14:39:58.166Z</time>
      </trkpt>
      <trkpt lat="46.87313" lon="8.46813">
        <ele>2299</ele>
        <time>2021-08-11T14:39:59.166Z</time>
      </trkpt>
      <trkpt lat="46.87313" lon="8.46812">
        <ele>2299</ele>
        <time>2021-08-11T14:40:00.167Z</time>
      </trkpt>
      <trkpt lat="46.87314" lon="8.46812">
        <ele>2299</ele>
        <time>2021-08-11T14:40:01.167Z</time>
      </trkpt>
      <trkpt lat="46.87315" lon="8.46811">
        <ele>2299</ele>
        <time>2021-08-11T14:40:02.167Z</time>
      </trkpt>
      <trkpt lat="46.87315" lon="8.4681">
        <ele>2299</ele>
        <time>2021-08-11T14:40:03.166Z</time>
      </trkpt>
      <trkpt lat="46.87316" lon="8.4681">
        <ele>2299</ele>
        <time>2021-08-11T14:40:04.166Z</time>
      </trkpt>
      <trkpt lat="46.87316" lon="8.46809">
        <ele>2299</ele>
        <time>2021-08-11T14:40:05.166Z</time>
      </trkpt>
      <trkpt lat="46.87317" lon="8.46809">
        <ele>2299</ele>
        <time>2021-08-11T14:40:06.167Z</time>
      </trkpt>
      <trkpt lat="46.87317" lon="8.46809">
        <ele>2299</ele>
        <time>2021-08-11T14:40:07.167Z</time>
      </trkpt>
      <trkpt lat="46.87318" lon="8.46809">
        <ele>2299</ele>
        <time>2021-08-11T14:40:08.167Z</time>
      </trkpt>
      <trkpt lat="46.87318" lon="8.46809">
        <ele>2298</ele>
        <time>2021-08-11T14:40:09.166Z</time>
      </trkpt>
      <trkpt lat="46.87319" lon="8.46808">
        <ele>2298</ele>
        <time>2021-08-11T14:40:10.167Z</time>
      </trkpt>
      <trkpt lat="46.87319" lon="8.46808">
        <ele>2298</ele>
        <time>2021-08-11T14:40:11.166Z</time>
      </trkpt>
      <trkpt lat="46.8732" lon="8.46807">
        <ele>2298</ele>
        <time>2021-08-11T14:40:12.167Z</time>
      </trkpt>
      <trkpt lat="46.8732" lon="8.46807">
        <ele>2299</ele>
        <time>2021-08-11T14:40:13.167Z</time>
      </trkpt>
      <trkpt lat="46.8732" lon="8.46807">
        <ele>2299</ele>
        <time>2021-08-11T14:40:14.166Z</time>
      </trkpt>
      <trkpt lat="46.87321" lon="8.46807">
        <ele>2299</ele>
        <time>2021-08-11T14:40:15.166Z</time>
      </trkpt>
      <trkpt lat="46.87322" lon="8.46806">
        <ele>2300</ele>
        <time>2021-08-11T14:40:16.167Z</time>
      </trkpt>
      <trkpt lat="46.87322" lon="8.46806">
        <ele>2300</ele>
        <time>2021-08-11T14:40:17.167Z</time>
      </trkpt>
      <trkpt lat="46.87322" lon="8.46805">
        <ele>2301</ele>
        <time>2021-08-11T14:40:18.166Z</time>
      </trkpt>
      <trkpt lat="46.87323" lon="8.46804">
        <ele>2301</ele>
        <time>2021-08-11T14:40:19.167Z</time>
      </trkpt>
      <trkpt lat="46.87323" lon="8.46804">
        <ele>2302</ele>
        <time>2021-08-11T14:40:20.167Z</time>
      </trkpt>
      <trkpt lat="46.87324" lon="8.46803">
        <ele>2302</ele>
        <time>2021-08-11T14:40:21.166Z</time>
      </trkpt>
      <trkpt lat="46.87324" lon="8.46802">
        <ele>2303</ele>
        <time>2021-08-11T14:40:22.167Z</time>
      </trkpt>
      <trkpt lat="46.87324" lon="8.46802">
        <ele>2303</ele>
        <time>2021-08-11T14:40:23.166Z</time>
      </trkpt>
      <trkpt lat="46.87324" lon="8.46801">
        <ele>2303</ele>
        <time>2021-08-11T14:40:24.167Z</time>
      </trkpt>
      <trkpt lat="46.87325" lon="8.46801">
        <ele>2303</ele>
        <time>2021-08-11T14:40:25.167Z</time>
      </trkpt>
      <trkpt lat="46.87325" lon="8.46801">
        <ele>2304</ele>
        <time>2021-08-11T14:40:26.166Z</time>
      </trkpt>
      <trkpt lat="46.87327" lon="8.468">
        <ele>2304</ele>
        <time>2021-08-11T14:40:27.167Z</time>
      </trkpt>
      <trkpt lat="46.87327" lon="8.468">
        <ele>2304</ele>
        <time>2021-08-11T14:40:28.167Z</time>
      </trkpt>
      <trkpt lat="46.87328" lon="8.46799">
        <ele>2304</ele>
        <time>2021-08-11T14:40:29.167Z</time>
      </trkpt>
      <trkpt lat="46.87328" lon="8.46799">
        <ele>2303</ele>
        <time>2021-08-11T14:40:30.167Z</time>
      </trkpt>
      <trkpt lat="46.87329" lon="8.46798">
        <ele>2303</ele>
        <time>2021-08-11T14:40:31.166Z</time>
      </trkpt>
      <trkpt lat="46.87329" lon="8.46797">
        <ele>2303</ele>
        <time>2021-08-11T14:40:32.166Z</time>
      </trkpt>
      <trkpt lat="46.87329" lon="8.46796">
        <ele>2303</ele>
        <time>2021-08-11T14:40:33.167Z</time>
      </trkpt>
      <trkpt lat="46.8733" lon="8.46796">
        <ele>2303</ele>
        <time>2021-08-11T14:40:34.167Z</time>
      </trkpt>
      <trkpt lat="46.8733" lon="8.46795">
        <ele>2303</ele>
        <time>2021-08-11T14:40:35.166Z</time>
      </trkpt>
      <trkpt lat="46.87331" lon="8.46795">
        <ele>2303</ele>
        <time>2021-08-11T14:40:36.167Z</time>
      </trkpt>
      <trkpt lat="46.87331" lon="8.46794">
        <ele>2303</ele>
        <time>2021-08-11T14:40:37.166Z</time>
      </trkpt>
      <trkpt lat="46.87331" lon="8.46793">
        <ele>2303</ele>
        <time>2021-08-11T14:40:38.166Z</time>
      </trkpt>
      <trkpt lat="46.87331" lon="8.46792">
        <ele>2304</ele>
        <time>2021-08-11T14:40:39.166Z</time>
      </trkpt>
      <trkpt lat="46.87331" lon="8.46792">
        <ele>2304</ele>
        <time>2021-08-11T14:40:40.166Z</time>
      </trkpt>
      <trkpt lat="46.87331" lon="8.46791">
        <ele>2304</ele>
        <time>2021-08-11T14:40:41.167Z</time>
      </trkpt>
      <trkpt lat="46.87332" lon="8.46789">
        <ele>2305</ele>
        <time>2021-08-11T14:40:42.168Z</time>
      </trkpt>
      <trkpt lat="46.87332" lon="8.46789">
        <ele>2305</ele>
        <time>2021-08-11T14:40:43.167Z</time>
      </trkpt>
      <trkpt lat="46.87332" lon="8.46788">
        <ele>2305</ele>
        <time>2021-08-11T14:40:44.167Z</time>
      </trkpt>
      <trkpt lat="46.87332" lon="8.46789">
        <ele>2306</ele>
        <time>2021-08-11T14:40:45.168Z</time>
      </trkpt>
      <trkpt lat="46.87332" lon="8.46788">
        <ele>2306</ele>
        <time>2021-08-11T14:40:46.168Z</time>
      </trkpt>
      <trkpt lat="46.87331" lon="8.46788">
        <ele>2306</ele>
        <time>2021-08-11T14:40:47.168Z</time>
      </trkpt>
      <trkpt lat="46.8733" lon="8.46788">
        <ele>2307</ele>
        <time>2021-08-11T14:40:48.168Z</time>
      </trkpt>
      <trkpt lat="46.87329" lon="8.46785">
        <ele>2308</ele>
        <time>2021-08-11T14:40:49.169Z</time>
      </trkpt>
      <trkpt lat="46.87328" lon="8.46784">
        <ele>2309</ele>
        <time>2021-08-11T14:40:50.169Z</time>
      </trkpt>
      <trkpt lat="46.87328" lon="8.46784">
        <ele>2309</ele>
        <time>2021-08-11T14:40:51.169Z</time>
      </trkpt>
      <trkpt lat="46.87328" lon="8.46784">
        <ele>2310</ele>
        <time>2021-08-11T14:40:52.168Z</time>
      </trkpt>
      <trkpt lat="46.87329" lon="8.46785">
        <ele>2311</ele>
        <time>2021-08-11T14:40:53.169Z</time>
      </trkpt>
      <trkpt lat="46.87329" lon="8.46785">
        <ele>2311</ele>
        <time>2021-08-11T14:40:54.170Z</time>
      </trkpt>
      <trkpt lat="46.87329" lon="8.46784">
        <ele>2311</ele>
        <time>2021-08-11T14:40:55.169Z</time>
      </trkpt>
      <trkpt lat="46.87329" lon="8.46784">
        <ele>2311</ele>
        <time>2021-08-11T14:40:56.170Z</time>
      </trkpt>
      <trkpt lat="46.87329" lon="8.46784">
        <ele>2311</ele>
        <time>2021-08-11T14:40:57.170Z</time>
      </trkpt>
      <trkpt lat="46.8733" lon="8.46783">
        <ele>2311</ele>
        <time>2021-08-11T14:40:58.169Z</time>
      </trkpt>
      <trkpt lat="46.87329" lon="8.46783">
        <ele>2311</ele>
        <time>2021-08-11T14:40:59.170Z</time>
      </trkpt>
      <trkpt lat="46.87329" lon="8.46782">
        <ele>2311</ele>
        <time>2021-08-11T14:41:00.170Z</time>
      </trkpt>
      <trkpt lat="46.87329" lon="8.46782">
        <ele>2311</ele>
        <time>2021-08-11T14:41:01.170Z</time>
      </trkpt>
      <trkpt lat="46.8733" lon="8.46782">
        <ele>2311</ele>
        <time>2021-08-11T14:41:02.170Z</time>
      </trkpt>
      <trkpt lat="46.8733" lon="8.46781">
        <ele>2311</ele>
        <time>2021-08-11T14:41:03.170Z</time>
      </trkpt>
      <trkpt lat="46.87331" lon="8.46781">
        <ele>2311</ele>
        <time>2021-08-11T14:41:04.170Z</time>
      </trkpt>
      <trkpt lat="46.87332" lon="8.46781">
        <ele>2311</ele>
        <time>2021-08-11T14:41:05.169Z</time>
      </trkpt>
      <trkpt lat="46.87333" lon="8.46782">
        <ele>2311</ele>
        <time>2021-08-11T14:41:06.169Z</time>
      </trkpt>
      <trkpt lat="46.87334" lon="8.46783">
        <ele>2312</ele>
        <time>2021-08-11T14:41:07.170Z</time>
      </trkpt>
      <trkpt lat="46.87335" lon="8.46784">
        <ele>2312</ele>
        <time>2021-08-11T14:41:08.170Z</time>
      </trkpt>
      <trkpt lat="46.87335" lon="8.46784">
        <ele>2312</ele>
        <time>2021-08-11T14:41:09.170Z</time>
      </trkpt>
      <trkpt lat="46.87336" lon="8.46784">
        <ele>2312</ele>
        <time>2021-08-11T14:41:10.170Z</time>
      </trkpt>
      <trkpt lat="46.87337" lon="8.46785">
        <ele>2313</ele>
        <time>2021-08-11T14:41:11.169Z</time>
      </trkpt>
      <trkpt lat="46.87337" lon="8.46785">
        <ele>2313</ele>
        <time>2021-08-11T14:41:12.170Z</time>
      </trkpt>
      <trkpt lat="46.87338" lon="8.46785">
        <ele>2313</ele>
        <time>2021-08-11T14:41:13.170Z</time>
      </trkpt>
      <trkpt lat="46.87338" lon="8.46785">
        <ele>2313</ele>
        <time>2021-08-11T14:41:14.170Z</time>
      </trkpt>
      <trkpt lat="46.87339" lon="8.46784">
        <ele>2313</ele>
        <time>2021-08-11T14:41:15.169Z</time>
      </trkpt>
      <trkpt lat="46.87339" lon="8.46783">
        <ele>2313</ele>
        <time>2021-08-11T14:41:16.169Z</time>
      </trkpt>
      <trkpt lat="46.87339" lon="8.46782">
        <ele>2313</ele>
        <time>2021-08-11T14:41:17.170Z</time>
      </trkpt>
      <trkpt lat="46.87339" lon="8.46781">
        <ele>2313</ele>
        <time>2021-08-11T14:41:18.170Z</time>
      </trkpt>
      <trkpt lat="46.8734" lon="8.46781">
        <ele>2313</ele>
        <time>2021-08-11T14:41:19.170Z</time>
      </trkpt>
      <trkpt lat="46.87341" lon="8.46781">
        <ele>2313</ele>
        <time>2021-08-11T14:41:20.170Z</time>
      </trkpt>
      <trkpt lat="46.87341" lon="8.46781">
        <ele>2313</ele>
        <time>2021-08-11T14:41:21.169Z</time>
      </trkpt>
      <trkpt lat="46.87342" lon="8.46781">
        <ele>2313</ele>
        <time>2021-08-11T14:41:22.169Z</time>
      </trkpt>
      <trkpt lat="46.87343" lon="8.46781">
        <ele>2312</ele>
        <time>2021-08-11T14:41:23.170Z</time>
      </trkpt>
      <trkpt lat="46.87344" lon="8.4678">
        <ele>2312</ele>
        <time>2021-08-11T14:41:24.170Z</time>
      </trkpt>
      <trkpt lat="46.87345" lon="8.4678">
        <ele>2312</ele>
        <time>2021-08-11T14:41:25.170Z</time>
      </trkpt>
      <trkpt lat="46.87345" lon="8.46779">
        <ele>2312</ele>
        <time>2021-08-11T14:41:26.170Z</time>
      </trkpt>
      <trkpt lat="46.87346" lon="8.46779">
        <ele>2312</ele>
        <time>2021-08-11T14:41:27.169Z</time>
      </trkpt>
      <trkpt lat="46.87346" lon="8.46778">
        <ele>2312</ele>
        <time>2021-08-11T14:41:28.169Z</time>
      </trkpt>
      <trkpt lat="46.87347" lon="8.46778">
        <ele>2312</ele>
        <time>2021-08-11T14:41:29.170Z</time>
      </trkpt>
      <trkpt lat="46.87348" lon="8.46778">
        <ele>2311</ele>
        <time>2021-08-11T14:41:30.169Z</time>
      </trkpt>
      <trkpt lat="46.87348" lon="8.46778">
        <ele>2311</ele>
        <time>2021-08-11T14:41:31.169Z</time>
      </trkpt>
      <trkpt lat="46.87349" lon="8.46777">
        <ele>2311</ele>
        <time>2021-08-11T14:41:32.170Z</time>
      </trkpt>
      <trkpt lat="46.87349" lon="8.46777">
        <ele>2311</ele>
        <time>2021-08-11T14:41:33.170Z</time>
      </trkpt>
      <trkpt lat="46.87349" lon="8.46776">
        <ele>2310</ele>
        <time>2021-08-11T14:41:34.170Z</time>
      </trkpt>
      <trkpt lat="46.8735" lon="8.46776">
        <ele>2310</ele>
        <time>2021-08-11T14:41:35.169Z</time>
      </trkpt>
      <trkpt lat="46.87351" lon="8.46776">
        <ele>2309</ele>
        <time>2021-08-11T14:41:36.169Z</time>
      </trkpt>
      <trkpt lat="46.87352" lon="8.46775">
        <ele>2309</ele>
        <time>2021-08-11T14:41:37.170Z</time>
      </trkpt>
      <trkpt lat="46.87352" lon="8.46774">
        <ele>2308</ele>
        <time>2021-08-11T14:41:38.170Z</time>
      </trkpt>
      <trkpt lat="46.87353" lon="8.46774">
        <ele>2308</ele>
        <time>2021-08-11T14:41:39.170Z</time>
      </trkpt>
      <trkpt lat="46.87353" lon="8.46773">
        <ele>2308</ele>
        <time>2021-08-11T14:41:40.170Z</time>
      </trkpt>
      <trkpt lat="46.87354" lon="8.46773">
        <ele>2308</ele>
        <time>2021-08-11T14:41:41.170Z</time>
      </trkpt>
      <trkpt lat="46.87354" lon="8.46773">
        <ele>2308</ele>
        <time>2021-08-11T14:41:42.170Z</time>
      </trkpt>
      <trkpt lat="46.87355" lon="8.46773">
        <ele>2308</ele>
        <time>2021-08-11T14:41:43.169Z</time>
      </trkpt>
      <trkpt lat="46.87355" lon="8.46772">
        <ele>2308</ele>
        <time>2021-08-11T14:41:44.170Z</time>
      </trkpt>
      <trkpt lat="46.87356" lon="8.46772">
        <ele>2308</ele>
        <time>2021-08-11T14:41:45.170Z</time>
      </trkpt>
      <trkpt lat="46.87356" lon="8.46772">
        <ele>2308</ele>
        <time>2021-08-11T14:41:46.170Z</time>
      </trkpt>
      <trkpt lat="46.87356" lon="8.46772">
        <ele>2307</ele>
        <time>2021-08-11T14:41:47.170Z</time>
      </trkpt>
      <trkpt lat="46.87357" lon="8.46772">
        <ele>2307</ele>
        <time>2021-08-11T14:41:48.170Z</time>
      </trkpt>
      <trkpt lat="46.87357" lon="8.46772">
        <ele>2307</ele>
        <time>2021-08-11T14:41:49.169Z</time>
      </trkpt>
      <trkpt lat="46.87358" lon="8.46771">
        <ele>2308</ele>
        <time>2021-08-11T14:41:50.170Z</time>
      </trkpt>
      <trkpt lat="46.87357" lon="8.46771">
        <ele>2308</ele>
        <time>2021-08-11T14:41:51.170Z</time>
      </trkpt>
      <trkpt lat="46.87358" lon="8.46771">
        <ele>2308</ele>
        <time>2021-08-11T14:41:52.170Z</time>
      </trkpt>
      <trkpt lat="46.87358" lon="8.4677">
        <ele>2308</ele>
        <time>2021-08-11T14:41:53.170Z</time>
      </trkpt>
      <trkpt lat="46.87358" lon="8.4677">
        <ele>2308</ele>
        <time>2021-08-11T14:41:54.169Z</time>
      </trkpt>
      <trkpt lat="46.87358" lon="8.46769">
        <ele>2308</ele>
        <time>2021-08-11T14:41:55.169Z</time>
      </trkpt>
      <trkpt lat="46.87359" lon="8.46769">
        <ele>2308</ele>
        <time>2021-08-11T14:41:56.170Z</time>
      </trkpt>
      <trkpt lat="46.87359" lon="8.46768">
        <ele>2308</ele>
        <time>2021-08-11T14:41:57.170Z</time>
      </trkpt>
      <trkpt lat="46.87359" lon="8.46768">
        <ele>2308</ele>
        <time>2021-08-11T14:41:58.170Z</time>
      </trkpt>
      <trkpt lat="46.87359" lon="8.46767">
        <ele>2308</ele>
        <time>2021-08-11T14:41:59.170Z</time>
      </trkpt>
      <trkpt lat="46.87359" lon="8.46767">
        <ele>2309</ele>
        <time>2021-08-11T14:42:00.170Z</time>
      </trkpt>
      <trkpt lat="46.87359" lon="8.46766">
        <ele>2309</ele>
        <time>2021-08-11T14:42:01.169Z</time>
      </trkpt>
      <trkpt lat="46.8736" lon="8.46765">
        <ele>2309</ele>
        <time>2021-08-11T14:42:02.170Z</time>
      </trkpt>
      <trkpt lat="46.8736" lon="8.46765">
        <ele>2309</ele>
        <time>2021-08-11T14:42:03.170Z</time>
      </trkpt>
      <trkpt lat="46.87361" lon="8.46764">
        <ele>2309</ele>
        <time>2021-08-11T14:42:04.169Z</time>
      </trkpt>
      <trkpt lat="46.87361" lon="8.46764">
        <ele>2310</ele>
        <time>2021-08-11T14:42:05.170Z</time>
      </trkpt>
      <trkpt lat="46.87361" lon="8.46763">
        <ele>2310</ele>
        <time>2021-08-11T14:42:06.169Z</time>
      </trkpt>
      <trkpt lat="46.87361" lon="8.46763">
        <ele>2310</ele>
        <time>2021-08-11T14:42:07.170Z</time>
      </trkpt>
      <trkpt lat="46.87362" lon="8.46764">
        <ele>2311</ele>
        <time>2021-08-11T14:42:08.170Z</time>
      </trkpt>
      <trkpt lat="46.87362" lon="8.46764">
        <ele>2310</ele>
        <time>2021-08-11T14:42:09.170Z</time>
      </trkpt>
      <trkpt lat="46.87362" lon="8.46765">
        <ele>2310</ele>
        <time>2021-08-11T14:42:10.170Z</time>
      </trkpt>
      <trkpt lat="46.87362" lon="8.46765">
        <ele>2310</ele>
        <time>2021-08-11T14:42:11.169Z</time>
      </trkpt>
      <trkpt lat="46.87361" lon="8.46766">
        <ele>2309</ele>
        <time>2021-08-11T14:42:12.170Z</time>
      </trkpt>
      <trkpt lat="46.87361" lon="8.46767">
        <ele>2309</ele>
        <time>2021-08-11T14:42:13.170Z</time>
      </trkpt>
      <trkpt lat="46.87362" lon="8.46767">
        <ele>2309</ele>
        <time>2021-08-11T14:42:14.170Z</time>
      </trkpt>
      <trkpt lat="46.87362" lon="8.46767">
        <ele>2309</ele>
        <time>2021-08-11T14:42:15.169Z</time>
      </trkpt>
      <trkpt lat="46.87362" lon="8.46767">
        <ele>2309</ele>
        <time>2021-08-11T14:42:16.170Z</time>
      </trkpt>
      <trkpt lat="46.87363" lon="8.46767">
        <ele>2309</ele>
        <time>2021-08-11T14:42:17.169Z</time>
      </trkpt>
      <trkpt lat="46.87363" lon="8.46767">
        <ele>2309</ele>
        <time>2021-08-11T14:42:18.170Z</time>
      </trkpt>
      <trkpt lat="46.87364" lon="8.46766">
        <ele>2309</ele>
        <time>2021-08-11T14:42:19.169Z</time>
      </trkpt>
      <trkpt lat="46.87364" lon="8.46766">
        <ele>2309</ele>
        <time>2021-08-11T14:42:20.170Z</time>
      </trkpt>
      <trkpt lat="46.87364" lon="8.46765">
        <ele>2309</ele>
        <time>2021-08-11T14:42:21.170Z</time>
      </trkpt>
      <trkpt lat="46.87365" lon="8.46765">
        <ele>2309</ele>
        <time>2021-08-11T14:42:22.169Z</time>
      </trkpt>
      <trkpt lat="46.87365" lon="8.46764">
        <ele>2309</ele>
        <time>2021-08-11T14:42:23.170Z</time>
      </trkpt>
      <trkpt lat="46.87365" lon="8.46764">
        <ele>2309</ele>
        <time>2021-08-11T14:42:24.169Z</time>
      </trkpt>
      <trkpt lat="46.87366" lon="8.46764">
        <ele>2309</ele>
        <time>2021-08-11T14:42:25.170Z</time>
      </trkpt>
      <trkpt lat="46.87366" lon="8.46763">
        <ele>2309</ele>
        <time>2021-08-11T14:42:26.170Z</time>
      </trkpt>
      <trkpt lat="46.87367" lon="8.46763">
        <ele>2310</ele>
        <time>2021-08-11T14:42:27.170Z</time>
      </trkpt>
      <trkpt lat="46.87367" lon="8.46763">
        <ele>2310</ele>
        <time>2021-08-11T14:42:28.170Z</time>
      </trkpt>
      <trkpt lat="46.87368" lon="8.46762">
        <ele>2310</ele>
        <time>2021-08-11T14:42:29.170Z</time>
      </trkpt>
      <trkpt lat="46.87369" lon="8.46762">
        <ele>2310</ele>
        <time>2021-08-11T14:42:30.170Z</time>
      </trkpt>
      <trkpt lat="46.87369" lon="8.46761">
        <ele>2310</ele>
        <time>2021-08-11T14:42:31.170Z</time>
      </trkpt>
      <trkpt lat="46.87369" lon="8.46761">
        <ele>2310</ele>
        <time>2021-08-11T14:42:32.169Z</time>
      </trkpt>
      <trkpt lat="46.87369" lon="8.46761">
        <ele>2311</ele>
        <time>2021-08-11T14:42:33.169Z</time>
      </trkpt>
      <trkpt lat="46.87369" lon="8.46762">
        <ele>2312</ele>
        <time>2021-08-11T14:42:34.170Z</time>
      </trkpt>
      <trkpt lat="46.8737" lon="8.46762">
        <ele>2312</ele>
        <time>2021-08-11T14:42:35.169Z</time>
      </trkpt>
      <trkpt lat="46.87371" lon="8.46762">
        <ele>2315</ele>
        <time>2021-08-11T14:42:36.171Z</time>
      </trkpt>
      <trkpt lat="46.87371" lon="8.46762">
        <ele>2315</ele>
        <time>2021-08-11T14:42:37.171Z</time>
      </trkpt>
      <trkpt lat="46.87372" lon="8.46762">
        <ele>2316</ele>
        <time>2021-08-11T14:42:38.170Z</time>
      </trkpt>
      <trkpt lat="46.87372" lon="8.46762">
        <ele>2316</ele>
        <time>2021-08-11T14:42:39.170Z</time>
      </trkpt>
      <trkpt lat="46.87373" lon="8.46761">
        <ele>2316</ele>
        <time>2021-08-11T14:42:40.171Z</time>
      </trkpt>
      <trkpt lat="46.87373" lon="8.46761">
        <ele>2317</ele>
        <time>2021-08-11T14:42:41.171Z</time>
      </trkpt>
      <trkpt lat="46.87374" lon="8.4676">
        <ele>2317</ele>
        <time>2021-08-11T14:42:42.171Z</time>
      </trkpt>
      <trkpt lat="46.87375" lon="8.4676">
        <ele>2317</ele>
        <time>2021-08-11T14:42:43.170Z</time>
      </trkpt>
      <trkpt lat="46.87376" lon="8.4676">
        <ele>2317</ele>
        <time>2021-08-11T14:42:44.171Z</time>
      </trkpt>
      <trkpt lat="46.87376" lon="8.4676">
        <ele>2317</ele>
        <time>2021-08-11T14:42:45.171Z</time>
      </trkpt>
      <trkpt lat="46.87376" lon="8.46759">
        <ele>2317</ele>
        <time>2021-08-11T14:42:46.170Z</time>
      </trkpt>
      <trkpt lat="46.87377" lon="8.46758">
        <ele>2317</ele>
        <time>2021-08-11T14:42:47.171Z</time>
      </trkpt>
      <trkpt lat="46.87378" lon="8.46758">
        <ele>2317</ele>
        <time>2021-08-11T14:42:48.171Z</time>
      </trkpt>
      <trkpt lat="46.87378" lon="8.46757">
        <ele>2317</ele>
        <time>2021-08-11T14:42:49.171Z</time>
      </trkpt>
      <trkpt lat="46.87378" lon="8.46756">
        <ele>2318</ele>
        <time>2021-08-11T14:42:50.171Z</time>
      </trkpt>
      <trkpt lat="46.87378" lon="8.46755">
        <ele>2318</ele>
        <time>2021-08-11T14:42:51.171Z</time>
      </trkpt>
      <trkpt lat="46.87379" lon="8.46755">
        <ele>2318</ele>
        <time>2021-08-11T14:42:52.170Z</time>
      </trkpt>
      <trkpt lat="46.87379" lon="8.46754">
        <ele>2318</ele>
        <time>2021-08-11T14:42:53.171Z</time>
      </trkpt>
      <trkpt lat="46.8738" lon="8.46754">
        <ele>2317</ele>
        <time>2021-08-11T14:42:54.171Z</time>
      </trkpt>
      <trkpt lat="46.8738" lon="8.46753">
        <ele>2317</ele>
        <time>2021-08-11T14:42:55.171Z</time>
      </trkpt>
      <trkpt lat="46.8738" lon="8.46752">
        <ele>2318</ele>
        <time>2021-08-11T14:42:56.171Z</time>
      </trkpt>
      <trkpt lat="46.8738" lon="8.46751">
        <ele>2318</ele>
        <time>2021-08-11T14:42:57.170Z</time>
      </trkpt>
      <trkpt lat="46.8738" lon="8.4675">
        <ele>2318</ele>
        <time>2021-08-11T14:42:58.171Z</time>
      </trkpt>
      <trkpt lat="46.87381" lon="8.4675">
        <ele>2318</ele>
        <time>2021-08-11T14:42:59.170Z</time>
      </trkpt>
      <trkpt lat="46.87382" lon="8.46749">
        <ele>2318</ele>
        <time>2021-08-11T14:43:00.171Z</time>
      </trkpt>
      <trkpt lat="46.87382" lon="8.46749">
        <ele>2318</ele>
        <time>2021-08-11T14:43:01.171Z</time>
      </trkpt>
      <trkpt lat="46.87383" lon="8.46749">
        <ele>2318</ele>
        <time>2021-08-11T14:43:02.171Z</time>
      </trkpt>
      <trkpt lat="46.87383" lon="8.46748">
        <ele>2318</ele>
        <time>2021-08-11T14:43:03.171Z</time>
      </trkpt>
      <trkpt lat="46.87383" lon="8.46747">
        <ele>2318</ele>
        <time>2021-08-11T14:43:04.171Z</time>
      </trkpt>
      <trkpt lat="46.87383" lon="8.46747">
        <ele>2318</ele>
        <time>2021-08-11T14:43:05.171Z</time>
      </trkpt>
      <trkpt lat="46.87384" lon="8.46746">
        <ele>2318</ele>
        <time>2021-08-11T14:43:06.171Z</time>
      </trkpt>
      <trkpt lat="46.87384" lon="8.46745">
        <ele>2318</ele>
        <time>2021-08-11T14:43:07.170Z</time>
      </trkpt>
      <trkpt lat="46.87384" lon="8.46745">
        <ele>2318</ele>
        <time>2021-08-11T14:43:08.171Z</time>
      </trkpt>
      <trkpt lat="46.87385" lon="8.46745">
        <ele>2318</ele>
        <time>2021-08-11T14:43:09.172Z</time>
      </trkpt>
      <trkpt lat="46.87386" lon="8.46744">
        <ele>2318</ele>
        <time>2021-08-11T14:43:10.172Z</time>
      </trkpt>
      <trkpt lat="46.87385" lon="8.46743">
        <ele>2319</ele>
        <time>2021-08-11T14:43:11.172Z</time>
      </trkpt>
      <trkpt lat="46.87386" lon="8.46742">
        <ele>2319</ele>
        <time>2021-08-11T14:43:12.172Z</time>
      </trkpt>
      <trkpt lat="46.87386" lon="8.46741">
        <ele>2319</ele>
        <time>2021-08-11T14:43:13.173Z</time>
      </trkpt>
      <trkpt lat="46.87386" lon="8.46741">
        <ele>2319</ele>
        <time>2021-08-11T14:43:14.173Z</time>
      </trkpt>
      <trkpt lat="46.87387" lon="8.4674">
        <ele>2319</ele>
        <time>2021-08-11T14:43:15.173Z</time>
      </trkpt>
      <trkpt lat="46.87387" lon="8.46739">
        <ele>2319</ele>
        <time>2021-08-11T14:43:16.173Z</time>
      </trkpt>
      <trkpt lat="46.87387" lon="8.46738">
        <ele>2319</ele>
        <time>2021-08-11T14:43:17.172Z</time>
      </trkpt>
      <trkpt lat="46.87387" lon="8.46738">
        <ele>2319</ele>
        <time>2021-08-11T14:43:18.173Z</time>
      </trkpt>
      <trkpt lat="46.87387" lon="8.46737">
        <ele>2319</ele>
        <time>2021-08-11T14:43:19.173Z</time>
      </trkpt>
      <trkpt lat="46.87387" lon="8.46736">
        <ele>2319</ele>
        <time>2021-08-11T14:43:20.173Z</time>
      </trkpt>
      <trkpt lat="46.87388" lon="8.46736">
        <ele>2320</ele>
        <time>2021-08-11T14:43:21.173Z</time>
      </trkpt>
      <trkpt lat="46.87388" lon="8.46735">
        <ele>2320</ele>
        <time>2021-08-11T14:43:22.173Z</time>
      </trkpt>
      <trkpt lat="46.87389" lon="8.46735">
        <ele>2320</ele>
        <time>2021-08-11T14:43:23.173Z</time>
      </trkpt>
      <trkpt lat="46.8739" lon="8.46734">
        <ele>2321</ele>
        <time>2021-08-11T14:43:24.173Z</time>
      </trkpt>
      <trkpt lat="46.8739" lon="8.46733">
        <ele>2321</ele>
        <time>2021-08-11T14:43:25.173Z</time>
      </trkpt>
      <trkpt lat="46.8739" lon="8.46733">
        <ele>2321</ele>
        <time>2021-08-11T14:43:26.173Z</time>
      </trkpt>
      <trkpt lat="46.87391" lon="8.46732">
        <ele>2321</ele>
        <time>2021-08-11T14:43:27.172Z</time>
      </trkpt>
      <trkpt lat="46.87391" lon="8.46731">
        <ele>2321</ele>
        <time>2021-08-11T14:43:28.172Z</time>
      </trkpt>
      <trkpt lat="46.87392" lon="8.4673">
        <ele>2321</ele>
        <time>2021-08-11T14:43:29.173Z</time>
      </trkpt>
      <trkpt lat="46.87393" lon="8.4673">
        <ele>2321</ele>
        <time>2021-08-11T14:43:30.173Z</time>
      </trkpt>
      <trkpt lat="46.87393" lon="8.46729">
        <ele>2321</ele>
        <time>2021-08-11T14:43:31.173Z</time>
      </trkpt>
      <trkpt lat="46.87394" lon="8.46729">
        <ele>2322</ele>
        <time>2021-08-11T14:43:32.173Z</time>
      </trkpt>
      <trkpt lat="46.87395" lon="8.46729">
        <ele>2322</ele>
        <time>2021-08-11T14:43:33.173Z</time>
      </trkpt>
      <trkpt lat="46.87395" lon="8.46729">
        <ele>2323</ele>
        <time>2021-08-11T14:43:34.173Z</time>
      </trkpt>
      <trkpt lat="46.87396" lon="8.46728">
        <ele>2323</ele>
        <time>2021-08-11T14:43:35.172Z</time>
      </trkpt>
      <trkpt lat="46.87397" lon="8.46728">
        <ele>2324</ele>
        <time>2021-08-11T14:43:36.173Z</time>
      </trkpt>
      <trkpt lat="46.87397" lon="8.46728">
        <ele>2324</ele>
        <time>2021-08-11T14:43:37.173Z</time>
      </trkpt>
      <trkpt lat="46.87398" lon="8.46727">
        <ele>2324</ele>
        <time>2021-08-11T14:43:38.173Z</time>
      </trkpt>
      <trkpt lat="46.87398" lon="8.46727">
        <ele>2324</ele>
        <time>2021-08-11T14:43:39.173Z</time>
      </trkpt>
      <trkpt lat="46.87398" lon="8.46727">
        <ele>2325</ele>
        <time>2021-08-11T14:43:40.172Z</time>
      </trkpt>
      <trkpt lat="46.87398" lon="8.46727">
        <ele>2326</ele>
        <time>2021-08-11T14:43:41.173Z</time>
      </trkpt>
      <trkpt lat="46.87397" lon="8.46726">
        <ele>2326</ele>
        <time>2021-08-11T14:43:42.174Z</time>
      </trkpt>
      <trkpt lat="46.87399" lon="8.46726">
        <ele>2326</ele>
        <time>2021-08-11T14:43:43.174Z</time>
      </trkpt>
      <trkpt lat="46.87399" lon="8.46727">
        <ele>2327</ele>
        <time>2021-08-11T14:43:44.174Z</time>
      </trkpt>
      <trkpt lat="46.87399" lon="8.46726">
        <ele>2327</ele>
        <time>2021-08-11T14:43:45.174Z</time>
      </trkpt>
      <trkpt lat="46.87398" lon="8.46726">
        <ele>2327</ele>
        <time>2021-08-11T14:43:46.173Z</time>
      </trkpt>
      <trkpt lat="46.87398" lon="8.46727">
        <ele>2327</ele>
        <time>2021-08-11T14:43:47.173Z</time>
      </trkpt>
      <trkpt lat="46.87398" lon="8.46727">
        <ele>2327</ele>
        <time>2021-08-11T14:43:48.174Z</time>
      </trkpt>
      <trkpt lat="46.87398" lon="8.46723">
        <ele>2322</ele>
        <time>2021-08-11T14:43:49.175Z</time>
      </trkpt>
      <trkpt lat="46.87399" lon="8.46723">
        <ele>2322</ele>
        <time>2021-08-11T14:43:50.175Z</time>
      </trkpt>
      <trkpt lat="46.87399" lon="8.46723">
        <ele>2321</ele>
        <time>2021-08-11T14:43:51.174Z</time>
      </trkpt>
      <trkpt lat="46.874" lon="8.46723">
        <ele>2321</ele>
        <time>2021-08-11T14:43:52.175Z</time>
      </trkpt>
      <trkpt lat="46.874" lon="8.46726">
        <ele>2323</ele>
        <time>2021-08-11T14:43:53.176Z</time>
      </trkpt>
      <trkpt lat="46.874" lon="8.46726">
        <ele>2323</ele>
        <time>2021-08-11T14:43:54.175Z</time>
      </trkpt>
      <trkpt lat="46.87399" lon="8.46726">
        <ele>2324</ele>
        <time>2021-08-11T14:43:55.175Z</time>
      </trkpt>
      <trkpt lat="46.87399" lon="8.46726">
        <ele>2328</ele>
        <time>2021-08-11T14:43:56.177Z</time>
      </trkpt>
      <trkpt lat="46.87399" lon="8.46725">
        <ele>2328</ele>
        <time>2021-08-11T14:43:57.177Z</time>
      </trkpt>
      <trkpt lat="46.874" lon="8.46725">
        <ele>2328</ele>
        <time>2021-08-11T14:43:58.176Z</time>
      </trkpt>
      <trkpt lat="46.87401" lon="8.46725">
        <ele>2328</ele>
        <time>2021-08-11T14:43:59.177Z</time>
      </trkpt>
      <trkpt lat="46.87401" lon="8.46725">
        <ele>2328</ele>
        <time>2021-08-11T14:44:00.176Z</time>
      </trkpt>
      <trkpt lat="46.87401" lon="8.46725">
        <ele>2328</ele>
        <time>2021-08-11T14:44:01.177Z</time>
      </trkpt>
      <trkpt lat="46.874" lon="8.46724">
        <ele>2328</ele>
        <time>2021-08-11T14:44:02.177Z</time>
      </trkpt>
      <trkpt lat="46.87399" lon="8.46724">
        <ele>2328</ele>
        <time>2021-08-11T14:44:03.176Z</time>
      </trkpt>
      <trkpt lat="46.87398" lon="8.46724">
        <ele>2328</ele>
        <time>2021-08-11T14:44:04.177Z</time>
      </trkpt>
      <trkpt lat="46.87398" lon="8.46725">
        <ele>2328</ele>
        <time>2021-08-11T14:44:05.176Z</time>
      </trkpt>
      <trkpt lat="46.87397" lon="8.46725">
        <ele>2328</ele>
        <time>2021-08-11T14:44:06.176Z</time>
      </trkpt>
      <trkpt lat="46.87397" lon="8.46726">
        <ele>2328</ele>
        <time>2021-08-11T14:44:07.177Z</time>
      </trkpt>
      <trkpt lat="46.87398" lon="8.46726">
        <ele>2328</ele>
        <time>2021-08-11T14:44:08.177Z</time>
      </trkpt>
      <trkpt lat="46.87399" lon="8.46726">
        <ele>2328</ele>
        <time>2021-08-11T14:44:09.177Z</time>
      </trkpt>
      <trkpt lat="46.87399" lon="8.46727">
        <ele>2328</ele>
        <time>2021-08-11T14:44:10.177Z</time>
      </trkpt>
      <trkpt lat="46.87398" lon="8.46728">
        <ele>2326</ele>
        <time>2021-08-11T14:44:11.176Z</time>
      </trkpt>
      <trkpt lat="46.87398" lon="8.46729">
        <ele>2326</ele>
        <time>2021-08-11T14:44:12.176Z</time>
      </trkpt>
      <trkpt lat="46.87399" lon="8.4673">
        <ele>2326</ele>
        <time>2021-08-11T14:44:13.176Z</time>
      </trkpt>
      <trkpt lat="46.87399" lon="8.4673">
        <ele>2326</ele>
        <time>2021-08-11T14:44:14.176Z</time>
      </trkpt>
      <trkpt lat="46.874" lon="8.46729">
        <ele>2326</ele>
        <time>2021-08-11T14:44:15.177Z</time>
      </trkpt>
      <trkpt lat="46.87401" lon="8.46728">
        <ele>2327</ele>
        <time>2021-08-11T14:44:16.177Z</time>
      </trkpt>
      <trkpt lat="46.87401" lon="8.46727">
        <ele>2327</ele>
        <time>2021-08-11T14:44:17.177Z</time>
      </trkpt>
      <trkpt lat="46.87401" lon="8.46726">
        <ele>2325</ele>
        <time>2021-08-11T14:44:18.177Z</time>
      </trkpt>
      <trkpt lat="46.87401" lon="8.46726">
        <ele>2325</ele>
        <time>2021-08-11T14:44:19.176Z</time>
      </trkpt>
      <trkpt lat="46.87402" lon="8.46726">
        <ele>2325</ele>
        <time>2021-08-11T14:44:20.176Z</time>
      </trkpt>
      <trkpt lat="46.87402" lon="8.46726">
        <ele>2325</ele>
        <time>2021-08-11T14:44:21.176Z</time>
      </trkpt>
      <trkpt lat="46.87403" lon="8.46726">
        <ele>2324</ele>
        <time>2021-08-11T14:44:22.178Z</time>
      </trkpt>
      <trkpt lat="46.87404" lon="8.46726">
        <ele>2324</ele>
        <time>2021-08-11T14:44:23.177Z</time>
      </trkpt>
      <trkpt lat="46.87405" lon="8.46726">
        <ele>2324</ele>
        <time>2021-08-11T14:44:24.177Z</time>
      </trkpt>
      <trkpt lat="46.87405" lon="8.46726">
        <ele>2323</ele>
        <time>2021-08-11T14:44:25.177Z</time>
      </trkpt>
      <trkpt lat="46.87406" lon="8.46726">
        <ele>2323</ele>
        <time>2021-08-11T14:44:26.178Z</time>
      </trkpt>
      <trkpt lat="46.87407" lon="8.46726">
        <ele>2323</ele>
        <time>2021-08-11T14:44:27.177Z</time>
      </trkpt>
      <trkpt lat="46.87407" lon="8.46725">
        <ele>2323</ele>
        <time>2021-08-11T14:44:28.177Z</time>
      </trkpt>
      <trkpt lat="46.87407" lon="8.46725">
        <ele>2323</ele>
        <time>2021-08-11T14:44:29.178Z</time>
      </trkpt>
      <trkpt lat="46.87408" lon="8.46725">
        <ele>2323</ele>
        <time>2021-08-11T14:44:30.177Z</time>
      </trkpt>
      <trkpt lat="46.87408" lon="8.46724">
        <ele>2323</ele>
        <time>2021-08-11T14:44:31.177Z</time>
      </trkpt>
      <trkpt lat="46.87409" lon="8.46724">
        <ele>2323</ele>
        <time>2021-08-11T14:44:32.177Z</time>
      </trkpt>
      <trkpt lat="46.87409" lon="8.46723">
        <ele>2322</ele>
        <time>2021-08-11T14:44:33.177Z</time>
      </trkpt>
      <trkpt lat="46.8741" lon="8.46723">
        <ele>2322</ele>
        <time>2021-08-11T14:44:34.178Z</time>
      </trkpt>
      <trkpt lat="46.8741" lon="8.46723">
        <ele>2322</ele>
        <time>2021-08-11T14:44:35.177Z</time>
      </trkpt>
      <trkpt lat="46.8741" lon="8.46723">
        <ele>2322</ele>
        <time>2021-08-11T14:44:36.178Z</time>
      </trkpt>
      <trkpt lat="46.87411" lon="8.46722">
        <ele>2322</ele>
        <time>2021-08-11T14:44:37.178Z</time>
      </trkpt>
      <trkpt lat="46.87412" lon="8.46722">
        <ele>2322</ele>
        <time>2021-08-11T14:44:38.178Z</time>
      </trkpt>
      <trkpt lat="46.87412" lon="8.46722">
        <ele>2322</ele>
        <time>2021-08-11T14:44:39.178Z</time>
      </trkpt>
      <trkpt lat="46.87412" lon="8.46722">
        <ele>2322</ele>
        <time>2021-08-11T14:44:40.177Z</time>
      </trkpt>
      <trkpt lat="46.87412" lon="8.46721">
        <ele>2321</ele>
        <time>2021-08-11T14:44:41.177Z</time>
      </trkpt>
      <trkpt lat="46.87412" lon="8.4672">
        <ele>2321</ele>
        <time>2021-08-11T14:44:42.177Z</time>
      </trkpt>
      <trkpt lat="46.87413" lon="8.46719">
        <ele>2318</ele>
        <time>2021-08-11T14:44:43.180Z</time>
      </trkpt>
      <trkpt lat="46.87414" lon="8.46719">
        <ele>2318</ele>
        <time>2021-08-11T14:44:44.180Z</time>
      </trkpt>
      <trkpt lat="46.87414" lon="8.4672">
        <ele>2318</ele>
        <time>2021-08-11T14:44:45.179Z</time>
      </trkpt>
      <trkpt lat="46.87415" lon="8.46719">
        <ele>2318</ele>
        <time>2021-08-11T14:44:46.180Z</time>
      </trkpt>
      <trkpt lat="46.87416" lon="8.46719">
        <ele>2318</ele>
        <time>2021-08-11T14:44:47.179Z</time>
      </trkpt>
      <trkpt lat="46.87416" lon="8.46719">
        <ele>2317</ele>
        <time>2021-08-11T14:44:48.179Z</time>
      </trkpt>
      <trkpt lat="46.87417" lon="8.46718">
        <ele>2317</ele>
        <time>2021-08-11T14:44:49.179Z</time>
      </trkpt>
      <trkpt lat="46.87418" lon="8.46718">
        <ele>2317</ele>
        <time>2021-08-11T14:44:50.179Z</time>
      </trkpt>
      <trkpt lat="46.87418" lon="8.46717">
        <ele>2317</ele>
        <time>2021-08-11T14:44:51.179Z</time>
      </trkpt>
      <trkpt lat="46.87419" lon="8.46716">
        <ele>2317</ele>
        <time>2021-08-11T14:44:52.179Z</time>
      </trkpt>
      <trkpt lat="46.87419" lon="8.46715">
        <ele>2317</ele>
        <time>2021-08-11T14:44:53.179Z</time>
      </trkpt>
      <trkpt lat="46.87419" lon="8.46714">
        <ele>2317</ele>
        <time>2021-08-11T14:44:54.180Z</time>
      </trkpt>
      <trkpt lat="46.87419" lon="8.46714">
        <ele>2317</ele>
        <time>2021-08-11T14:44:55.180Z</time>
      </trkpt>
      <trkpt lat="46.8742" lon="8.46715">
        <ele>2318</ele>
        <time>2021-08-11T14:44:56.181Z</time>
      </trkpt>
      <trkpt lat="46.87421" lon="8.46715">
        <ele>2319</ele>
        <time>2021-08-11T14:44:57.182Z</time>
      </trkpt>
      <trkpt lat="46.87421" lon="8.46714">
        <ele>2320</ele>
        <time>2021-08-11T14:44:58.182Z</time>
      </trkpt>
      <trkpt lat="46.8742" lon="8.46714">
        <ele>2320</ele>
        <time>2021-08-11T14:44:59.181Z</time>
      </trkpt>
      <trkpt lat="46.8742" lon="8.46715">
        <ele>2320</ele>
        <time>2021-08-11T14:45:00.182Z</time>
      </trkpt>
      <trkpt lat="46.87419" lon="8.46714">
        <ele>2318</ele>
        <time>2021-08-11T14:45:01.182Z</time>
      </trkpt>
      <trkpt lat="46.87419" lon="8.46713">
        <ele>2318</ele>
        <time>2021-08-11T14:45:02.181Z</time>
      </trkpt>
      <trkpt lat="46.87419" lon="8.46713">
        <ele>2318</ele>
        <time>2021-08-11T14:45:03.181Z</time>
      </trkpt>
      <trkpt lat="46.8742" lon="8.46713">
        <ele>2319</ele>
        <time>2021-08-11T14:45:04.181Z</time>
      </trkpt>
      <trkpt lat="46.8742" lon="8.46713">
        <ele>2320</ele>
        <time>2021-08-11T14:45:05.181Z</time>
      </trkpt>
      <trkpt lat="46.8742" lon="8.46713">
        <ele>2320</ele>
        <time>2021-08-11T14:45:06.181Z</time>
      </trkpt>
      <trkpt lat="46.87421" lon="8.46713">
        <ele>2320</ele>
        <time>2021-08-11T14:45:07.182Z</time>
      </trkpt>
      <trkpt lat="46.87421" lon="8.46713">
        <ele>2320</ele>
        <time>2021-08-11T14:45:08.182Z</time>
      </trkpt>
      <trkpt lat="46.87423" lon="8.46714">
        <ele>2318</ele>
        <time>2021-08-11T14:45:09.182Z</time>
      </trkpt>
      <trkpt lat="46.87423" lon="8.46714">
        <ele>2318</ele>
        <time>2021-08-11T14:45:10.182Z</time>
      </trkpt>
      <trkpt lat="46.87423" lon="8.46714">
        <ele>2318</ele>
        <time>2021-08-11T14:45:11.181Z</time>
      </trkpt>
      <trkpt lat="46.87423" lon="8.46713">
        <ele>2318</ele>
        <time>2021-08-11T14:45:12.182Z</time>
      </trkpt>
      <trkpt lat="46.87423" lon="8.46713">
        <ele>2319</ele>
        <time>2021-08-11T14:45:13.182Z</time>
      </trkpt>
      <trkpt lat="46.87422" lon="8.46713">
        <ele>2321</ele>
        <time>2021-08-11T14:45:14.181Z</time>
      </trkpt>
      <trkpt lat="46.87423" lon="8.46713">
        <ele>2321</ele>
        <time>2021-08-11T14:45:15.182Z</time>
      </trkpt>
      <trkpt lat="46.87423" lon="8.46713">
        <ele>2322</ele>
        <time>2021-08-11T14:45:16.181Z</time>
      </trkpt>
      <trkpt lat="46.87424" lon="8.46714">
        <ele>2322</ele>
        <time>2021-08-11T14:45:17.182Z</time>
      </trkpt>
      <trkpt lat="46.87424" lon="8.46714">
        <ele>2323</ele>
        <time>2021-08-11T14:45:18.181Z</time>
      </trkpt>
      <trkpt lat="46.87425" lon="8.46714">
        <ele>2323</ele>
        <time>2021-08-11T14:45:19.182Z</time>
      </trkpt>
      <trkpt lat="46.87425" lon="8.46714">
        <ele>2324</ele>
        <time>2021-08-11T14:45:20.182Z</time>
      </trkpt>
      <trkpt lat="46.87425" lon="8.46714">
        <ele>2324</ele>
        <time>2021-08-11T14:45:21.182Z</time>
      </trkpt>
      <trkpt lat="46.87426" lon="8.46715">
        <ele>2324</ele>
        <time>2021-08-11T14:45:22.181Z</time>
      </trkpt>
      <trkpt lat="46.87427" lon="8.46715">
        <ele>2324</ele>
        <time>2021-08-11T14:45:23.182Z</time>
      </trkpt>
      <trkpt lat="46.87428" lon="8.46715">
        <ele>2324</ele>
        <time>2021-08-11T14:45:24.182Z</time>
      </trkpt>
      <trkpt lat="46.87429" lon="8.46716">
        <ele>2324</ele>
        <time>2021-08-11T14:45:25.181Z</time>
      </trkpt>
      <trkpt lat="46.87429" lon="8.46716">
        <ele>2325</ele>
        <time>2021-08-11T14:45:26.181Z</time>
      </trkpt>
      <trkpt lat="46.8743" lon="8.46716">
        <ele>2325</ele>
        <time>2021-08-11T14:45:27.182Z</time>
      </trkpt>
      <trkpt lat="46.8743" lon="8.46716">
        <ele>2325</ele>
        <time>2021-08-11T14:45:28.182Z</time>
      </trkpt>
      <trkpt lat="46.87431" lon="8.46716">
        <ele>2324</ele>
        <time>2021-08-11T14:45:29.181Z</time>
      </trkpt>
      <trkpt lat="46.87432" lon="8.46717">
        <ele>2325</ele>
        <time>2021-08-11T14:45:30.182Z</time>
      </trkpt>
      <trkpt lat="46.87433" lon="8.46717">
        <ele>2325</ele>
        <time>2021-08-11T14:45:31.181Z</time>
      </trkpt>
      <trkpt lat="46.87434" lon="8.46717">
        <ele>2325</ele>
        <time>2021-08-11T14:45:32.182Z</time>
      </trkpt>
      <trkpt lat="46.87435" lon="8.46717">
        <ele>2325</ele>
        <time>2021-08-11T14:45:33.181Z</time>
      </trkpt>
      <trkpt lat="46.87436" lon="8.46717">
        <ele>2325</ele>
        <time>2021-08-11T14:45:34.182Z</time>
      </trkpt>
      <trkpt lat="46.87437" lon="8.46717">
        <ele>2325</ele>
        <time>2021-08-11T14:45:35.182Z</time>
      </trkpt>
      <trkpt lat="46.87438" lon="8.46717">
        <ele>2325</ele>
        <time>2021-08-11T14:45:36.181Z</time>
      </trkpt>
      <trkpt lat="46.8744" lon="8.46717">
        <ele>2325</ele>
        <time>2021-08-11T14:45:37.182Z</time>
      </trkpt>
      <trkpt lat="46.87441" lon="8.46718">
        <ele>2325</ele>
        <time>2021-08-11T14:45:38.181Z</time>
      </trkpt>
      <trkpt lat="46.87442" lon="8.46718">
        <ele>2325</ele>
        <time>2021-08-11T14:45:39.182Z</time>
      </trkpt>
      <trkpt lat="46.87442" lon="8.46718">
        <ele>2325</ele>
        <time>2021-08-11T14:45:40.181Z</time>
      </trkpt>
      <trkpt lat="46.87443" lon="8.46718">
        <ele>2325</ele>
        <time>2021-08-11T14:45:41.182Z</time>
      </trkpt>
      <trkpt lat="46.87443" lon="8.46717">
        <ele>2326</ele>
        <time>2021-08-11T14:45:42.182Z</time>
      </trkpt>
      <trkpt lat="46.87443" lon="8.46717">
        <ele>2326</ele>
        <time>2021-08-11T14:45:43.182Z</time>
      </trkpt>
      <trkpt lat="46.87445" lon="8.46717">
        <ele>2327</ele>
        <time>2021-08-11T14:45:44.181Z</time>
      </trkpt>
      <trkpt lat="46.87447" lon="8.46717">
        <ele>2327</ele>
        <time>2021-08-11T14:45:45.182Z</time>
      </trkpt>
      <trkpt lat="46.87448" lon="8.46717">
        <ele>2327</ele>
        <time>2021-08-11T14:45:46.182Z</time>
      </trkpt>
      <trkpt lat="46.87449" lon="8.46716">
        <ele>2328</ele>
        <time>2021-08-11T14:45:47.182Z</time>
      </trkpt>
      <trkpt lat="46.8745" lon="8.46716">
        <ele>2328</ele>
        <time>2021-08-11T14:45:48.181Z</time>
      </trkpt>
      <trkpt lat="46.8745" lon="8.46715">
        <ele>2328</ele>
        <time>2021-08-11T14:45:49.181Z</time>
      </trkpt>
      <trkpt lat="46.87451" lon="8.46715">
        <ele>2328</ele>
        <time>2021-08-11T14:45:50.182Z</time>
      </trkpt>
      <trkpt lat="46.87453" lon="8.46715">
        <ele>2328</ele>
        <time>2021-08-11T14:45:51.182Z</time>
      </trkpt>
      <trkpt lat="46.87454" lon="8.46715">
        <ele>2329</ele>
        <time>2021-08-11T14:45:52.182Z</time>
      </trkpt>
      <trkpt lat="46.87454" lon="8.46715">
        <ele>2329</ele>
        <time>2021-08-11T14:45:53.182Z</time>
      </trkpt>
      <trkpt lat="46.87455" lon="8.46715">
        <ele>2329</ele>
        <time>2021-08-11T14:45:54.182Z</time>
      </trkpt>
      <trkpt lat="46.87455" lon="8.46715">
        <ele>2329</ele>
        <time>2021-08-11T14:45:55.181Z</time>
      </trkpt>
      <trkpt lat="46.87456" lon="8.46716">
        <ele>2329</ele>
        <time>2021-08-11T14:45:56.181Z</time>
      </trkpt>
      <trkpt lat="46.87457" lon="8.46716">
        <ele>2328</ele>
        <time>2021-08-11T14:45:57.182Z</time>
      </trkpt>
      <trkpt lat="46.87457" lon="8.46717">
        <ele>2328</ele>
        <time>2021-08-11T14:45:58.182Z</time>
      </trkpt>
      <trkpt lat="46.87458" lon="8.46717">
        <ele>2327</ele>
        <time>2021-08-11T14:45:59.182Z</time>
      </trkpt>
      <trkpt lat="46.87458" lon="8.46717">
        <ele>2327</ele>
        <time>2021-08-11T14:46:00.182Z</time>
      </trkpt>
      <trkpt lat="46.87459" lon="8.46718">
        <ele>2327</ele>
        <time>2021-08-11T14:46:01.181Z</time>
      </trkpt>
      <trkpt lat="46.87459" lon="8.46718">
        <ele>2326</ele>
        <time>2021-08-11T14:46:02.182Z</time>
      </trkpt>
      <trkpt lat="46.8746" lon="8.46719">
        <ele>2326</ele>
        <time>2021-08-11T14:46:03.182Z</time>
      </trkpt>
      <trkpt lat="46.8746" lon="8.46719">
        <ele>2325</ele>
        <time>2021-08-11T14:46:04.182Z</time>
      </trkpt>
      <trkpt lat="46.87461" lon="8.4672">
        <ele>2325</ele>
        <time>2021-08-11T14:46:05.182Z</time>
      </trkpt>
      <trkpt lat="46.87462" lon="8.4672">
        <ele>2325</ele>
        <time>2021-08-11T14:46:06.181Z</time>
      </trkpt>
      <trkpt lat="46.87462" lon="8.46721">
        <ele>2325</ele>
        <time>2021-08-11T14:46:07.182Z</time>
      </trkpt>
      <trkpt lat="46.87463" lon="8.46721">
        <ele>2324</ele>
        <time>2021-08-11T14:46:08.182Z</time>
      </trkpt>
      <trkpt lat="46.87464" lon="8.46721">
        <ele>2324</ele>
        <time>2021-08-11T14:46:09.182Z</time>
      </trkpt>
      <trkpt lat="46.87465" lon="8.46721">
        <ele>2324</ele>
        <time>2021-08-11T14:46:10.182Z</time>
      </trkpt>
      <trkpt lat="46.87466" lon="8.4672">
        <ele>2324</ele>
        <time>2021-08-11T14:46:11.181Z</time>
      </trkpt>
      <trkpt lat="46.87466" lon="8.4672">
        <ele>2325</ele>
        <time>2021-08-11T14:46:12.182Z</time>
      </trkpt>
      <trkpt lat="46.87467" lon="8.46719">
        <ele>2325</ele>
        <time>2021-08-11T14:46:13.181Z</time>
      </trkpt>
      <trkpt lat="46.87467" lon="8.46718">
        <ele>2325</ele>
        <time>2021-08-11T14:46:14.181Z</time>
      </trkpt>
      <trkpt lat="46.87467" lon="8.46717">
        <ele>2324</ele>
        <time>2021-08-11T14:46:15.182Z</time>
      </trkpt>
      <trkpt lat="46.87467" lon="8.46716">
        <ele>2324</ele>
        <time>2021-08-11T14:46:16.182Z</time>
      </trkpt>
      <trkpt lat="46.87467" lon="8.46715">
        <ele>2324</ele>
        <time>2021-08-11T14:46:17.182Z</time>
      </trkpt>
      <trkpt lat="46.87468" lon="8.46714">
        <ele>2325</ele>
        <time>2021-08-11T14:46:18.181Z</time>
      </trkpt>
      <trkpt lat="46.87469" lon="8.46714">
        <ele>2325</ele>
        <time>2021-08-11T14:46:19.182Z</time>
      </trkpt>
      <trkpt lat="46.87469" lon="8.46712">
        <ele>2325</ele>
        <time>2021-08-11T14:46:20.181Z</time>
      </trkpt>
      <trkpt lat="46.87469" lon="8.46711">
        <ele>2325</ele>
        <time>2021-08-11T14:46:21.182Z</time>
      </trkpt>
      <trkpt lat="46.87469" lon="8.4671">
        <ele>2326</ele>
        <time>2021-08-11T14:46:22.181Z</time>
      </trkpt>
      <trkpt lat="46.87469" lon="8.46709">
        <ele>2326</ele>
        <time>2021-08-11T14:46:23.182Z</time>
      </trkpt>
      <trkpt lat="46.87471" lon="8.46709">
        <ele>2327</ele>
        <time>2021-08-11T14:46:24.182Z</time>
      </trkpt>
      <trkpt lat="46.87471" lon="8.46709">
        <ele>2327</ele>
        <time>2021-08-11T14:46:25.182Z</time>
      </trkpt>
      <trkpt lat="46.87471" lon="8.46708">
        <ele>2327</ele>
        <time>2021-08-11T14:46:26.182Z</time>
      </trkpt>
      <trkpt lat="46.87471" lon="8.46708">
        <ele>2327</ele>
        <time>2021-08-11T14:46:27.181Z</time>
      </trkpt>
      <trkpt lat="46.87472" lon="8.46708">
        <ele>2328</ele>
        <time>2021-08-11T14:46:28.182Z</time>
      </trkpt>
      <trkpt lat="46.87472" lon="8.46707">
        <ele>2328</ele>
        <time>2021-08-11T14:46:29.182Z</time>
      </trkpt>
      <trkpt lat="46.87473" lon="8.46707">
        <ele>2328</ele>
        <time>2021-08-11T14:46:30.182Z</time>
      </trkpt>
      <trkpt lat="46.87474" lon="8.46706">
        <ele>2329</ele>
        <time>2021-08-11T14:46:31.182Z</time>
      </trkpt>
      <trkpt lat="46.87474" lon="8.46705">
        <ele>2329</ele>
        <time>2021-08-11T14:46:32.181Z</time>
      </trkpt>
      <trkpt lat="46.87474" lon="8.46704">
        <ele>2329</ele>
        <time>2021-08-11T14:46:33.182Z</time>
      </trkpt>
      <trkpt lat="46.87475" lon="8.46702">
        <ele>2329</ele>
        <time>2021-08-11T14:46:34.182Z</time>
      </trkpt>
      <trkpt lat="46.87476" lon="8.46702">
        <ele>2329</ele>
        <time>2021-08-11T14:46:35.182Z</time>
      </trkpt>
      <trkpt lat="46.87476" lon="8.46702">
        <ele>2329</ele>
        <time>2021-08-11T14:46:36.181Z</time>
      </trkpt>
      <trkpt lat="46.87477" lon="8.46702">
        <ele>2329</ele>
        <time>2021-08-11T14:46:37.182Z</time>
      </trkpt>
      <trkpt lat="46.87478" lon="8.46701">
        <ele>2329</ele>
        <time>2021-08-11T14:46:38.182Z</time>
      </trkpt>
      <trkpt lat="46.87479" lon="8.46701">
        <ele>2329</ele>
        <time>2021-08-11T14:46:39.181Z</time>
      </trkpt>
      <trkpt lat="46.8748" lon="8.46701">
        <ele>2329</ele>
        <time>2021-08-11T14:46:40.181Z</time>
      </trkpt>
      <trkpt lat="46.87481" lon="8.46701">
        <ele>2329</ele>
        <time>2021-08-11T14:46:41.181Z</time>
      </trkpt>
      <trkpt lat="46.87482" lon="8.46701">
        <ele>2329</ele>
        <time>2021-08-11T14:46:42.182Z</time>
      </trkpt>
      <trkpt lat="46.87483" lon="8.46701">
        <ele>2329</ele>
        <time>2021-08-11T14:46:43.181Z</time>
      </trkpt>
      <trkpt lat="46.87484" lon="8.46701">
        <ele>2329</ele>
        <time>2021-08-11T14:46:44.182Z</time>
      </trkpt>
      <trkpt lat="46.87484" lon="8.467">
        <ele>2328</ele>
        <time>2021-08-11T14:46:45.181Z</time>
      </trkpt>
      <trkpt lat="46.87485" lon="8.46699">
        <ele>2328</ele>
        <time>2021-08-11T14:46:46.182Z</time>
      </trkpt>
      <trkpt lat="46.87485" lon="8.46699">
        <ele>2328</ele>
        <time>2021-08-11T14:46:47.182Z</time>
      </trkpt>
      <trkpt lat="46.87486" lon="8.46699">
        <ele>2328</ele>
        <time>2021-08-11T14:46:48.182Z</time>
      </trkpt>
      <trkpt lat="46.87486" lon="8.46699">
        <ele>2329</ele>
        <time>2021-08-11T14:46:49.182Z</time>
      </trkpt>
      <trkpt lat="46.87486" lon="8.46699">
        <ele>2329</ele>
        <time>2021-08-11T14:46:50.181Z</time>
      </trkpt>
      <trkpt lat="46.87486" lon="8.46699">
        <ele>2329</ele>
        <time>2021-08-11T14:46:51.181Z</time>
      </trkpt>
      <trkpt lat="46.87487" lon="8.46698">
        <ele>2329</ele>
        <time>2021-08-11T14:46:52.182Z</time>
      </trkpt>
      <trkpt lat="46.87488" lon="8.46699">
        <ele>2329</ele>
        <time>2021-08-11T14:46:53.181Z</time>
      </trkpt>
      <trkpt lat="46.87488" lon="8.46699">
        <ele>2330</ele>
        <time>2021-08-11T14:46:54.181Z</time>
      </trkpt>
      <trkpt lat="46.87488" lon="8.46699">
        <ele>2330</ele>
        <time>2021-08-11T14:46:55.182Z</time>
      </trkpt>
      <trkpt lat="46.87489" lon="8.46699">
        <ele>2330</ele>
        <time>2021-08-11T14:46:56.182Z</time>
      </trkpt>
      <trkpt lat="46.87489" lon="8.46699">
        <ele>2330</ele>
        <time>2021-08-11T14:46:57.182Z</time>
      </trkpt>
      <trkpt lat="46.8749" lon="8.46699">
        <ele>2329</ele>
        <time>2021-08-11T14:46:58.182Z</time>
      </trkpt>
      <trkpt lat="46.8749" lon="8.46699">
        <ele>2329</ele>
        <time>2021-08-11T14:46:59.181Z</time>
      </trkpt>
      <trkpt lat="46.87491" lon="8.46699">
        <ele>2329</ele>
        <time>2021-08-11T14:47:00.181Z</time>
      </trkpt>
      <trkpt lat="46.87491" lon="8.46699">
        <ele>2329</ele>
        <time>2021-08-11T14:47:01.182Z</time>
      </trkpt>
      <trkpt lat="46.87491" lon="8.46699">
        <ele>2328</ele>
        <time>2021-08-11T14:47:02.183Z</time>
      </trkpt>
      <trkpt lat="46.87492" lon="8.46699">
        <ele>2328</ele>
        <time>2021-08-11T14:47:03.182Z</time>
      </trkpt>
      <trkpt lat="46.87492" lon="8.46699">
        <ele>2328</ele>
        <time>2021-08-11T14:47:04.182Z</time>
      </trkpt>
      <trkpt lat="46.87493" lon="8.46699">
        <ele>2328</ele>
        <time>2021-08-11T14:47:05.183Z</time>
      </trkpt>
      <trkpt lat="46.87493" lon="8.46699">
        <ele>2328</ele>
        <time>2021-08-11T14:47:06.182Z</time>
      </trkpt>
      <trkpt lat="46.87494" lon="8.46699">
        <ele>2329</ele>
        <time>2021-08-11T14:47:07.182Z</time>
      </trkpt>
      <trkpt lat="46.87493" lon="8.46699">
        <ele>2329</ele>
        <time>2021-08-11T14:47:08.182Z</time>
      </trkpt>
      <trkpt lat="46.87493" lon="8.46698">
        <ele>2329</ele>
        <time>2021-08-11T14:47:09.183Z</time>
      </trkpt>
      <trkpt lat="46.87493" lon="8.46698">
        <ele>2329</ele>
        <time>2021-08-11T14:47:10.182Z</time>
      </trkpt>
      <trkpt lat="46.87494" lon="8.46698">
        <ele>2329</ele>
        <time>2021-08-11T14:47:11.183Z</time>
      </trkpt>
      <trkpt lat="46.87495" lon="8.46698">
        <ele>2330</ele>
        <time>2021-08-11T14:47:12.183Z</time>
      </trkpt>
      <trkpt lat="46.87495" lon="8.46698">
        <ele>2330</ele>
        <time>2021-08-11T14:47:13.183Z</time>
      </trkpt>
      <trkpt lat="46.87495" lon="8.46698">
        <ele>2331</ele>
        <time>2021-08-11T14:47:14.183Z</time>
      </trkpt>
      <trkpt lat="46.87496" lon="8.46698">
        <ele>2331</ele>
        <time>2021-08-11T14:47:15.184Z</time>
      </trkpt>
      <trkpt lat="46.87496" lon="8.46698">
        <ele>2331</ele>
        <time>2021-08-11T14:47:16.184Z</time>
      </trkpt>
      <trkpt lat="46.87497" lon="8.46697">
        <ele>2331</ele>
        <time>2021-08-11T14:47:17.184Z</time>
      </trkpt>
      <trkpt lat="46.87497" lon="8.46697">
        <ele>2331</ele>
        <time>2021-08-11T14:47:18.184Z</time>
      </trkpt>
      <trkpt lat="46.87498" lon="8.46697">
        <ele>2331</ele>
        <time>2021-08-11T14:47:19.183Z</time>
      </trkpt>
      <trkpt lat="46.87499" lon="8.46697">
        <ele>2332</ele>
        <time>2021-08-11T14:47:20.183Z</time>
      </trkpt>
      <trkpt lat="46.87499" lon="8.46697">
        <ele>2332</ele>
        <time>2021-08-11T14:47:21.183Z</time>
      </trkpt>
      <trkpt lat="46.875" lon="8.46697">
        <ele>2332</ele>
        <time>2021-08-11T14:47:22.184Z</time>
      </trkpt>
      <trkpt lat="46.875" lon="8.46697">
        <ele>2332</ele>
        <time>2021-08-11T14:47:23.183Z</time>
      </trkpt>
      <trkpt lat="46.87501" lon="8.46696">
        <ele>2333</ele>
        <time>2021-08-11T14:47:24.183Z</time>
      </trkpt>
      <trkpt lat="46.87501" lon="8.46696">
        <ele>2333</ele>
        <time>2021-08-11T14:47:25.184Z</time>
      </trkpt>
      <trkpt lat="46.87502" lon="8.46695">
        <ele>2333</ele>
        <time>2021-08-11T14:47:26.184Z</time>
      </trkpt>
      <trkpt lat="46.87503" lon="8.46695">
        <ele>2334</ele>
        <time>2021-08-11T14:47:27.184Z</time>
      </trkpt>
      <trkpt lat="46.87503" lon="8.46695">
        <ele>2334</ele>
        <time>2021-08-11T14:47:28.183Z</time>
      </trkpt>
      <trkpt lat="46.87503" lon="8.46694">
        <ele>2335</ele>
        <time>2021-08-11T14:47:29.183Z</time>
      </trkpt>
      <trkpt lat="46.87504" lon="8.46694">
        <ele>2335</ele>
        <time>2021-08-11T14:47:30.183Z</time>
      </trkpt>
      <trkpt lat="46.87504" lon="8.46693">
        <ele>2335</ele>
        <time>2021-08-11T14:47:31.183Z</time>
      </trkpt>
      <trkpt lat="46.87505" lon="8.46693">
        <ele>2335</ele>
        <time>2021-08-11T14:47:32.183Z</time>
      </trkpt>
      <trkpt lat="46.87505" lon="8.46693">
        <ele>2335</ele>
        <time>2021-08-11T14:47:33.183Z</time>
      </trkpt>
      <trkpt lat="46.87506" lon="8.46692">
        <ele>2336</ele>
        <time>2021-08-11T14:47:34.184Z</time>
      </trkpt>
      <trkpt lat="46.87507" lon="8.46692">
        <ele>2336</ele>
        <time>2021-08-11T14:47:35.183Z</time>
      </trkpt>
      <trkpt lat="46.87508" lon="8.46691">
        <ele>2336</ele>
        <time>2021-08-11T14:47:36.183Z</time>
      </trkpt>
      <trkpt lat="46.87509" lon="8.46691">
        <ele>2336</ele>
        <time>2021-08-11T14:47:38.186Z</time>
      </trkpt>
      <trkpt lat="46.8751" lon="8.4669">
        <ele>2336</ele>
        <time>2021-08-11T14:47:39.187Z</time>
      </trkpt>
      <trkpt lat="46.87511" lon="8.46689">
        <ele>2336</ele>
        <time>2021-08-11T14:47:40.186Z</time>
      </trkpt>
      <trkpt lat="46.87511" lon="8.46689">
        <ele>2337</ele>
        <time>2021-08-11T14:47:41.186Z</time>
      </trkpt>
      <trkpt lat="46.87512" lon="8.46688">
        <ele>2337</ele>
        <time>2021-08-11T14:47:42.187Z</time>
      </trkpt>
      <trkpt lat="46.87513" lon="8.46688">
        <ele>2338</ele>
        <time>2021-08-11T14:47:43.187Z</time>
      </trkpt>
      <trkpt lat="46.87514" lon="8.46688">
        <ele>2338</ele>
        <time>2021-08-11T14:47:44.186Z</time>
      </trkpt>
      <trkpt lat="46.87515" lon="8.46688">
        <ele>2339</ele>
        <time>2021-08-11T14:47:45.186Z</time>
      </trkpt>
      <trkpt lat="46.87515" lon="8.46688">
        <ele>2340</ele>
        <time>2021-08-11T14:47:46.187Z</time>
      </trkpt>
      <trkpt lat="46.87516" lon="8.46688">
        <ele>2340</ele>
        <time>2021-08-11T14:47:47.187Z</time>
      </trkpt>
      <trkpt lat="46.87516" lon="8.46688">
        <ele>2340</ele>
        <time>2021-08-11T14:47:48.186Z</time>
      </trkpt>
      <trkpt lat="46.87517" lon="8.46688">
        <ele>2340</ele>
        <time>2021-08-11T14:47:49.186Z</time>
      </trkpt>
      <trkpt lat="46.87518" lon="8.46688">
        <ele>2340</ele>
        <time>2021-08-11T14:47:50.187Z</time>
      </trkpt>
      <trkpt lat="46.87519" lon="8.46688">
        <ele>2340</ele>
        <time>2021-08-11T14:47:51.186Z</time>
      </trkpt>
      <trkpt lat="46.8752" lon="8.46688">
        <ele>2340</ele>
        <time>2021-08-11T14:47:52.186Z</time>
      </trkpt>
      <trkpt lat="46.8752" lon="8.46688">
        <ele>2339</ele>
        <time>2021-08-11T14:47:53.187Z</time>
      </trkpt>
      <trkpt lat="46.87521" lon="8.46689">
        <ele>2339</ele>
        <time>2021-08-11T14:47:54.187Z</time>
      </trkpt>
      <trkpt lat="46.87522" lon="8.46689">
        <ele>2339</ele>
        <time>2021-08-11T14:47:55.187Z</time>
      </trkpt>
      <trkpt lat="46.87522" lon="8.4669">
        <ele>2339</ele>
        <time>2021-08-11T14:47:56.187Z</time>
      </trkpt>
      <trkpt lat="46.87523" lon="8.4669">
        <ele>2339</ele>
        <time>2021-08-11T14:47:57.187Z</time>
      </trkpt>
      <trkpt lat="46.87524" lon="8.46691">
        <ele>2339</ele>
        <time>2021-08-11T14:47:58.187Z</time>
      </trkpt>
      <trkpt lat="46.87524" lon="8.46691">
        <ele>2338</ele>
        <time>2021-08-11T14:47:59.186Z</time>
      </trkpt>
      <trkpt lat="46.87525" lon="8.46691">
        <ele>2338</ele>
        <time>2021-08-11T14:48:00.186Z</time>
      </trkpt>
      <trkpt lat="46.87526" lon="8.46692">
        <ele>2338</ele>
        <time>2021-08-11T14:48:01.187Z</time>
      </trkpt>
      <trkpt lat="46.87527" lon="8.46692">
        <ele>2338</ele>
        <time>2021-08-11T14:48:02.187Z</time>
      </trkpt>
      <trkpt lat="46.87527" lon="8.46693">
        <ele>2338</ele>
        <time>2021-08-11T14:48:03.186Z</time>
      </trkpt>
      <trkpt lat="46.87527" lon="8.46693">
        <ele>2338</ele>
        <time>2021-08-11T14:48:04.186Z</time>
      </trkpt>
      <trkpt lat="46.87527" lon="8.46694">
        <ele>2337</ele>
        <time>2021-08-11T14:48:05.186Z</time>
      </trkpt>
      <trkpt lat="46.87527" lon="8.46695">
        <ele>2337</ele>
        <time>2021-08-11T14:48:06.186Z</time>
      </trkpt>
      <trkpt lat="46.87527" lon="8.46696">
        <ele>2337</ele>
        <time>2021-08-11T14:48:07.186Z</time>
      </trkpt>
      <trkpt lat="46.87527" lon="8.46697">
        <ele>2336</ele>
        <time>2021-08-11T14:48:08.187Z</time>
      </trkpt>
      <trkpt lat="46.87527" lon="8.46698">
        <ele>2336</ele>
        <time>2021-08-11T14:48:09.186Z</time>
      </trkpt>
      <trkpt lat="46.87528" lon="8.46699">
        <ele>2336</ele>
        <time>2021-08-11T14:48:10.187Z</time>
      </trkpt>
      <trkpt lat="46.87528" lon="8.467">
        <ele>2336</ele>
        <time>2021-08-11T14:48:11.187Z</time>
      </trkpt>
      <trkpt lat="46.87528" lon="8.467">
        <ele>2336</ele>
        <time>2021-08-11T14:48:12.186Z</time>
      </trkpt>
      <trkpt lat="46.87528" lon="8.46702">
        <ele>2336</ele>
        <time>2021-08-11T14:48:13.187Z</time>
      </trkpt>
      <trkpt lat="46.87529" lon="8.46703">
        <ele>2336</ele>
        <time>2021-08-11T14:48:14.186Z</time>
      </trkpt>
      <trkpt lat="46.87529" lon="8.46703">
        <ele>2336</ele>
        <time>2021-08-11T14:48:15.186Z</time>
      </trkpt>
      <trkpt lat="46.87529" lon="8.46703">
        <ele>2336</ele>
        <time>2021-08-11T14:48:16.186Z</time>
      </trkpt>
      <trkpt lat="46.87529" lon="8.46703">
        <ele>2338</ele>
        <time>2021-08-11T14:48:17.189Z</time>
      </trkpt>
      <trkpt lat="46.87529" lon="8.46703">
        <ele>2338</ele>
        <time>2021-08-11T14:48:18.189Z</time>
      </trkpt>
      <trkpt lat="46.87529" lon="8.46703">
        <ele>2338</ele>
        <time>2021-08-11T14:48:19.188Z</time>
      </trkpt>
      <trkpt lat="46.87529" lon="8.46703">
        <ele>2338</ele>
        <time>2021-08-11T14:48:20.189Z</time>
      </trkpt>
      <trkpt lat="46.87529" lon="8.46702">
        <ele>2338</ele>
        <time>2021-08-11T14:48:21.189Z</time>
      </trkpt>
      <trkpt lat="46.87529" lon="8.46702">
        <ele>2338</ele>
        <time>2021-08-11T14:48:22.188Z</time>
      </trkpt>
      <trkpt lat="46.87529" lon="8.46701">
        <ele>2338</ele>
        <time>2021-08-11T14:48:23.189Z</time>
      </trkpt>
      <trkpt lat="46.87528" lon="8.46701">
        <ele>2337</ele>
        <time>2021-08-11T14:48:24.191Z</time>
      </trkpt>
      <trkpt lat="46.87528" lon="8.46702">
        <ele>2337</ele>
        <time>2021-08-11T14:48:25.191Z</time>
      </trkpt>
      <trkpt lat="46.87527" lon="8.46703">
        <ele>2337</ele>
        <time>2021-08-11T14:48:26.191Z</time>
      </trkpt>
      <trkpt lat="46.87527" lon="8.46704">
        <ele>2337</ele>
        <time>2021-08-11T14:48:27.190Z</time>
      </trkpt>
      <trkpt lat="46.87527" lon="8.46704">
        <ele>2337</ele>
        <time>2021-08-11T14:48:28.191Z</time>
      </trkpt>
      <trkpt lat="46.87527" lon="8.46705">
        <ele>2337</ele>
        <time>2021-08-11T14:48:29.190Z</time>
      </trkpt>
    </trkseg>
  </trk>
</gpx>